<?xml version="1.0" encoding="UTF-8" standalone="no" ?>
<gpx xmlns="http://www.topografix.com/GPX/1/1" xmlns:xsi="http://www.w3.org/2001/XMLSchema-instance" xsi:schemaLocation="http://www.topografix.com/GPX/1/1 http://www.topografix.com/GPX/1/1/gpx.xsd" version="1.1" creator="VisuGPX - https://www.visugpx.com">
  <metadata>
    <name>Pic de la Pyramide. Descente par Glacier du Grand Sablât</name>
  </metadata>
  <trk>
    <name><![CDATA[Pic de la Pyramide. Descente par Glacier du Grand Sablât]]></name>
    <trkseg>
      <trkpt lat="45.0947" lon="6.07148">
        <ele>1839.1</ele>
        <time>2021-03-10T07:18:11Z</time>
      </trkpt>
      <trkpt lat="45.09469" lon="6.07146">
        <ele>1839.1</ele>
        <time>2021-03-10T07:18:12Z</time>
      </trkpt>
      <trkpt lat="45.09467" lon="6.07144">
        <ele>1838.9</ele>
        <time>2021-03-10T07:18:13Z</time>
      </trkpt>
      <trkpt lat="45.09467" lon="6.07144">
        <ele>1838.9</ele>
        <time>2021-03-10T07:18:14Z</time>
      </trkpt>
      <trkpt lat="45.09467" lon="6.07144">
        <ele>1838.9</ele>
        <time>2021-03-10T07:18:15Z</time>
      </trkpt>
      <trkpt lat="45.09467" lon="6.07144">
        <ele>1838.9</ele>
        <time>2021-03-10T07:18:16Z</time>
      </trkpt>
      <trkpt lat="45.09467" lon="6.07144">
        <ele>1838.9</ele>
        <time>2021-03-10T07:18:17Z</time>
      </trkpt>
      <trkpt lat="45.09467" lon="6.07144">
        <ele>1838.9</ele>
        <time>2021-03-10T07:18:18Z</time>
      </trkpt>
      <trkpt lat="45.09466" lon="6.07139">
        <ele>1839.1</ele>
        <time>2021-03-10T07:18:19Z</time>
      </trkpt>
      <trkpt lat="45.09467" lon="6.07139">
        <ele>1839.1</ele>
        <time>2021-03-10T07:18:20Z</time>
      </trkpt>
      <trkpt lat="45.0947" lon="6.07134">
        <ele>1839.9</ele>
        <time>2021-03-10T07:18:34Z</time>
      </trkpt>
      <trkpt lat="45.09472" lon="6.07134">
        <ele>1839.9</ele>
        <time>2021-03-10T07:18:35Z</time>
      </trkpt>
      <trkpt lat="45.09472" lon="6.07134">
        <ele>1839.9</ele>
        <time>2021-03-10T07:18:36Z</time>
      </trkpt>
      <trkpt lat="45.09474" lon="6.07133">
        <ele>1840.3</ele>
        <time>2021-03-10T07:18:37Z</time>
      </trkpt>
      <trkpt lat="45.09475" lon="6.07132">
        <ele>1840.3</ele>
        <time>2021-03-10T07:18:38Z</time>
      </trkpt>
      <trkpt lat="45.09475" lon="6.07133">
        <ele>1840.3</ele>
        <time>2021-03-10T07:18:39Z</time>
      </trkpt>
      <trkpt lat="45.09476" lon="6.07133">
        <ele>1840.3</ele>
        <time>2021-03-10T07:18:40Z</time>
      </trkpt>
      <trkpt lat="45.09476" lon="6.07133">
        <ele>1840.6</ele>
        <time>2021-03-10T07:18:41Z</time>
      </trkpt>
      <trkpt lat="45.09477" lon="6.07136">
        <ele>1840.6</ele>
        <time>2021-03-10T07:18:42Z</time>
      </trkpt>
      <trkpt lat="45.09477" lon="6.07137">
        <ele>1840.5</ele>
        <time>2021-03-10T07:18:43Z</time>
      </trkpt>
      <trkpt lat="45.09477" lon="6.07138">
        <ele>1840.5</ele>
        <time>2021-03-10T07:18:44Z</time>
      </trkpt>
      <trkpt lat="45.09477" lon="6.07139">
        <ele>1840.5</ele>
        <time>2021-03-10T07:18:45Z</time>
      </trkpt>
      <trkpt lat="45.09478" lon="6.07146">
        <ele>1840.2</ele>
        <time>2021-03-10T07:18:46Z</time>
      </trkpt>
      <trkpt lat="45.09479" lon="6.07149">
        <ele>1840.2</ele>
        <time>2021-03-10T07:18:47Z</time>
      </trkpt>
      <trkpt lat="45.09479" lon="6.0715">
        <ele>1840</ele>
        <time>2021-03-10T07:18:48Z</time>
      </trkpt>
      <trkpt lat="45.0948" lon="6.07151">
        <ele>1840.3</ele>
        <time>2021-03-10T07:18:49Z</time>
      </trkpt>
      <trkpt lat="45.0948" lon="6.07152">
        <ele>1840.3</ele>
        <time>2021-03-10T07:18:50Z</time>
      </trkpt>
      <trkpt lat="45.09481" lon="6.07153">
        <ele>1840.3</ele>
        <time>2021-03-10T07:18:51Z</time>
      </trkpt>
      <trkpt lat="45.09483" lon="6.07155">
        <ele>1840.5</ele>
        <time>2021-03-10T07:18:52Z</time>
      </trkpt>
      <trkpt lat="45.09483" lon="6.07155">
        <ele>1840.5</ele>
        <time>2021-03-10T07:18:53Z</time>
      </trkpt>
      <trkpt lat="45.09483" lon="6.07155">
        <ele>1840.5</ele>
        <time>2021-03-10T07:18:54Z</time>
      </trkpt>
      <trkpt lat="45.09483" lon="6.07155">
        <ele>1840.5</ele>
        <time>2021-03-10T07:18:55Z</time>
      </trkpt>
      <trkpt lat="45.09484" lon="6.07152">
        <ele>1840.6</ele>
        <time>2021-03-10T07:18:56Z</time>
      </trkpt>
      <trkpt lat="45.09484" lon="6.07152">
        <ele>1840.6</ele>
        <time>2021-03-10T07:18:57Z</time>
      </trkpt>
      <trkpt lat="45.09485" lon="6.07152">
        <ele>1840.6</ele>
        <time>2021-03-10T07:18:58Z</time>
      </trkpt>
      <trkpt lat="45.09484" lon="6.07152">
        <ele>1840.6</ele>
        <time>2021-03-10T07:18:59Z</time>
      </trkpt>
      <trkpt lat="45.09484" lon="6.07152">
        <ele>1840.6</ele>
        <time>2021-03-10T07:19:00Z</time>
      </trkpt>
      <trkpt lat="45.09484" lon="6.07152">
        <ele>1840.6</ele>
        <time>2021-03-10T07:19:01Z</time>
      </trkpt>
      <trkpt lat="45.09483" lon="6.0715">
        <ele>1840.6</ele>
        <time>2021-03-10T07:19:02Z</time>
      </trkpt>
      <trkpt lat="45.09482" lon="6.07151">
        <ele>1840.3</ele>
        <time>2021-03-10T07:19:03Z</time>
      </trkpt>
      <trkpt lat="45.09482" lon="6.07155">
        <ele>1840.2</ele>
        <time>2021-03-10T07:19:05Z</time>
      </trkpt>
      <trkpt lat="45.09478" lon="6.07152">
        <ele>1840</ele>
        <time>2021-03-10T07:19:06Z</time>
      </trkpt>
      <trkpt lat="45.09476" lon="6.0715">
        <ele>1839.7</ele>
        <time>2021-03-10T07:19:07Z</time>
      </trkpt>
      <trkpt lat="45.09474" lon="6.07148">
        <ele>1839.8</ele>
        <time>2021-03-10T07:19:08Z</time>
      </trkpt>
      <trkpt lat="45.09472" lon="6.07146">
        <ele>1839.5</ele>
        <time>2021-03-10T07:19:09Z</time>
      </trkpt>
      <trkpt lat="45.0947" lon="6.07144">
        <ele>1839.3</ele>
        <time>2021-03-10T07:19:10Z</time>
      </trkpt>
      <trkpt lat="45.09468" lon="6.07141">
        <ele>1839.3</ele>
        <time>2021-03-10T07:19:11Z</time>
      </trkpt>
      <trkpt lat="45.09468" lon="6.07139">
        <ele>1839.4</ele>
        <time>2021-03-10T07:19:12Z</time>
      </trkpt>
      <trkpt lat="45.09468" lon="6.07139">
        <ele>1839.4</ele>
        <time>2021-03-10T07:19:13Z</time>
      </trkpt>
      <trkpt lat="45.09468" lon="6.07137">
        <ele>1839.4</ele>
        <time>2021-03-10T07:19:14Z</time>
      </trkpt>
      <trkpt lat="45.09467" lon="6.07137">
        <ele>1839.1</ele>
        <time>2021-03-10T07:19:15Z</time>
      </trkpt>
      <trkpt lat="45.09467" lon="6.07138">
        <ele>1839.1</ele>
        <time>2021-03-10T07:19:16Z</time>
      </trkpt>
      <trkpt lat="45.09462" lon="6.0713">
        <ele>1839.1</ele>
        <time>2021-03-10T07:19:21Z</time>
      </trkpt>
      <trkpt lat="45.09461" lon="6.0713">
        <ele>1839.1</ele>
        <time>2021-03-10T07:19:22Z</time>
      </trkpt>
      <trkpt lat="45.09462" lon="6.0713">
        <ele>1839.1</ele>
        <time>2021-03-10T07:19:23Z</time>
      </trkpt>
      <trkpt lat="45.09462" lon="6.0713">
        <ele>1839.1</ele>
        <time>2021-03-10T07:19:24Z</time>
      </trkpt>
      <trkpt lat="45.09461" lon="6.07131">
        <ele>1839.1</ele>
        <time>2021-03-10T07:19:25Z</time>
      </trkpt>
      <trkpt lat="45.09461" lon="6.07131">
        <ele>1839.1</ele>
        <time>2021-03-10T07:19:26Z</time>
      </trkpt>
      <trkpt lat="45.09461" lon="6.07131">
        <ele>1838.9</ele>
        <time>2021-03-10T07:19:27Z</time>
      </trkpt>
      <trkpt lat="45.0946" lon="6.0713">
        <ele>1838.9</ele>
        <time>2021-03-10T07:19:28Z</time>
      </trkpt>
      <trkpt lat="45.0946" lon="6.0713">
        <ele>1838.9</ele>
        <time>2021-03-10T07:19:29Z</time>
      </trkpt>
      <trkpt lat="45.09461" lon="6.07131">
        <ele>1838.9</ele>
        <time>2021-03-10T07:19:30Z</time>
      </trkpt>
      <trkpt lat="45.09462" lon="6.07132">
        <ele>1838.9</ele>
        <time>2021-03-10T07:19:31Z</time>
      </trkpt>
      <trkpt lat="45.09463" lon="6.07134">
        <ele>1838.9</ele>
        <time>2021-03-10T07:19:32Z</time>
      </trkpt>
      <trkpt lat="45.09461" lon="6.07134">
        <ele>1838.7</ele>
        <time>2021-03-10T07:20:14Z</time>
      </trkpt>
      <trkpt lat="45.0946" lon="6.07134">
        <ele>1838.7</ele>
        <time>2021-03-10T07:20:15Z</time>
      </trkpt>
      <trkpt lat="45.09459" lon="6.07134">
        <ele>1838.7</ele>
        <time>2021-03-10T07:20:16Z</time>
      </trkpt>
      <trkpt lat="45.09458" lon="6.07135">
        <ele>1838.4</ele>
        <time>2021-03-10T07:20:17Z</time>
      </trkpt>
      <trkpt lat="45.09456" lon="6.07136">
        <ele>1838.4</ele>
        <time>2021-03-10T07:20:18Z</time>
      </trkpt>
      <trkpt lat="45.09455" lon="6.07136">
        <ele>1837.9</ele>
        <time>2021-03-10T07:20:19Z</time>
      </trkpt>
      <trkpt lat="45.09454" lon="6.07137">
        <ele>1837.9</ele>
        <time>2021-03-10T07:20:20Z</time>
      </trkpt>
      <trkpt lat="45.09453" lon="6.07137">
        <ele>1837.9</ele>
        <time>2021-03-10T07:20:21Z</time>
      </trkpt>
      <trkpt lat="45.09452" lon="6.07138">
        <ele>1837.7</ele>
        <time>2021-03-10T07:20:22Z</time>
      </trkpt>
      <trkpt lat="45.0945" lon="6.07138">
        <ele>1837.7</ele>
        <time>2021-03-10T07:20:23Z</time>
      </trkpt>
      <trkpt lat="45.09449" lon="6.07138">
        <ele>1837.7</ele>
        <time>2021-03-10T07:20:24Z</time>
      </trkpt>
      <trkpt lat="45.09448" lon="6.07139">
        <ele>1837.4</ele>
        <time>2021-03-10T07:20:25Z</time>
      </trkpt>
      <trkpt lat="45.09448" lon="6.0714">
        <ele>1837.4</ele>
        <time>2021-03-10T07:20:26Z</time>
      </trkpt>
      <trkpt lat="45.09448" lon="6.0714">
        <ele>1837.4</ele>
        <time>2021-03-10T07:20:27Z</time>
      </trkpt>
      <trkpt lat="45.09448" lon="6.0714">
        <ele>1837.4</ele>
        <time>2021-03-10T07:20:28Z</time>
      </trkpt>
      <trkpt lat="45.09448" lon="6.0714">
        <ele>1837.4</ele>
        <time>2021-03-10T07:20:29Z</time>
      </trkpt>
      <trkpt lat="45.09448" lon="6.07142">
        <ele>1837.2</ele>
        <time>2021-03-10T07:20:30Z</time>
      </trkpt>
      <trkpt lat="45.09449" lon="6.07143">
        <ele>1837.2</ele>
        <time>2021-03-10T07:20:31Z</time>
      </trkpt>
      <trkpt lat="45.0945" lon="6.07146">
        <ele>1837.3</ele>
        <time>2021-03-10T07:20:32Z</time>
      </trkpt>
      <trkpt lat="45.0945" lon="6.07147">
        <ele>1837.3</ele>
        <time>2021-03-10T07:20:33Z</time>
      </trkpt>
      <trkpt lat="45.09451" lon="6.07148">
        <ele>1837.3</ele>
        <time>2021-03-10T07:20:34Z</time>
      </trkpt>
      <trkpt lat="45.09452" lon="6.0715">
        <ele>1837.1</ele>
        <time>2021-03-10T07:20:35Z</time>
      </trkpt>
      <trkpt lat="45.09452" lon="6.07152">
        <ele>1837.4</ele>
        <time>2021-03-10T07:20:36Z</time>
      </trkpt>
      <trkpt lat="45.09453" lon="6.07154">
        <ele>1837.3</ele>
        <time>2021-03-10T07:20:37Z</time>
      </trkpt>
      <trkpt lat="45.09453" lon="6.07156">
        <ele>1837.3</ele>
        <time>2021-03-10T07:20:38Z</time>
      </trkpt>
      <trkpt lat="45.09453" lon="6.07158">
        <ele>1837.1</ele>
        <time>2021-03-10T07:20:39Z</time>
      </trkpt>
      <trkpt lat="45.09453" lon="6.0716">
        <ele>1837.1</ele>
        <time>2021-03-10T07:20:40Z</time>
      </trkpt>
      <trkpt lat="45.09454" lon="6.07163">
        <ele>1836.9</ele>
        <time>2021-03-10T07:20:41Z</time>
      </trkpt>
      <trkpt lat="45.09455" lon="6.07164">
        <ele>1836.9</ele>
        <time>2021-03-10T07:20:42Z</time>
      </trkpt>
      <trkpt lat="45.09455" lon="6.07165">
        <ele>1836.9</ele>
        <time>2021-03-10T07:20:43Z</time>
      </trkpt>
      <trkpt lat="45.09456" lon="6.07166">
        <ele>1837.1</ele>
        <time>2021-03-10T07:20:44Z</time>
      </trkpt>
      <trkpt lat="45.09456" lon="6.07167">
        <ele>1837.1</ele>
        <time>2021-03-10T07:20:45Z</time>
      </trkpt>
      <trkpt lat="45.09456" lon="6.07167">
        <ele>1837.1</ele>
        <time>2021-03-10T07:20:46Z</time>
      </trkpt>
      <trkpt lat="45.09457" lon="6.07168">
        <ele>1837.1</ele>
        <time>2021-03-10T07:20:47Z</time>
      </trkpt>
      <trkpt lat="45.09457" lon="6.07168">
        <ele>1837.1</ele>
        <time>2021-03-10T07:20:48Z</time>
      </trkpt>
      <trkpt lat="45.09457" lon="6.07168">
        <ele>1837.1</ele>
        <time>2021-03-10T07:20:49Z</time>
      </trkpt>
      <trkpt lat="45.09457" lon="6.07168">
        <ele>1837.1</ele>
        <time>2021-03-10T07:20:50Z</time>
      </trkpt>
      <trkpt lat="45.09457" lon="6.07168">
        <ele>1837.1</ele>
        <time>2021-03-10T07:20:51Z</time>
      </trkpt>
      <trkpt lat="45.09457" lon="6.07169">
        <ele>1837.1</ele>
        <time>2021-03-10T07:20:52Z</time>
      </trkpt>
      <trkpt lat="45.09458" lon="6.0717">
        <ele>1837.1</ele>
        <time>2021-03-10T07:20:53Z</time>
      </trkpt>
      <trkpt lat="45.09458" lon="6.07171">
        <ele>1837.2</ele>
        <time>2021-03-10T07:20:54Z</time>
      </trkpt>
      <trkpt lat="45.09459" lon="6.07172">
        <ele>1837.2</ele>
        <time>2021-03-10T07:20:55Z</time>
      </trkpt>
      <trkpt lat="45.09459" lon="6.07174">
        <ele>1837.2</ele>
        <time>2021-03-10T07:22:40Z</time>
      </trkpt>
      <trkpt lat="45.0946" lon="6.07175">
        <ele>1837.1</ele>
        <time>2021-03-10T07:22:41Z</time>
      </trkpt>
      <trkpt lat="45.09461" lon="6.07176">
        <ele>1837.1</ele>
        <time>2021-03-10T07:22:42Z</time>
      </trkpt>
      <trkpt lat="45.09463" lon="6.07177">
        <ele>1837.4</ele>
        <time>2021-03-10T07:22:43Z</time>
      </trkpt>
      <trkpt lat="45.09464" lon="6.07177">
        <ele>1837.7</ele>
        <time>2021-03-10T07:22:44Z</time>
      </trkpt>
      <trkpt lat="45.09466" lon="6.07177">
        <ele>1837.7</ele>
        <time>2021-03-10T07:22:45Z</time>
      </trkpt>
      <trkpt lat="45.09467" lon="6.07177">
        <ele>1837.7</ele>
        <time>2021-03-10T07:22:46Z</time>
      </trkpt>
      <trkpt lat="45.09468" lon="6.07178">
        <ele>1838</ele>
        <time>2021-03-10T07:22:47Z</time>
      </trkpt>
      <trkpt lat="45.0947" lon="6.07178">
        <ele>1838</ele>
        <time>2021-03-10T07:22:48Z</time>
      </trkpt>
      <trkpt lat="45.09471" lon="6.07178">
        <ele>1838.3</ele>
        <time>2021-03-10T07:22:49Z</time>
      </trkpt>
      <trkpt lat="45.09472" lon="6.07179">
        <ele>1838.3</ele>
        <time>2021-03-10T07:22:50Z</time>
      </trkpt>
      <trkpt lat="45.09473" lon="6.07179">
        <ele>1838.2</ele>
        <time>2021-03-10T07:22:51Z</time>
      </trkpt>
      <trkpt lat="45.09474" lon="6.0718">
        <ele>1838.5</ele>
        <time>2021-03-10T07:22:52Z</time>
      </trkpt>
      <trkpt lat="45.09474" lon="6.07181">
        <ele>1838.5</ele>
        <time>2021-03-10T07:22:53Z</time>
      </trkpt>
      <trkpt lat="45.09475" lon="6.07181">
        <ele>1838.5</ele>
        <time>2021-03-10T07:22:54Z</time>
      </trkpt>
      <trkpt lat="45.09476" lon="6.07181">
        <ele>1838.8</ele>
        <time>2021-03-10T07:22:55Z</time>
      </trkpt>
      <trkpt lat="45.09477" lon="6.07181">
        <ele>1838.8</ele>
        <time>2021-03-10T07:22:56Z</time>
      </trkpt>
      <trkpt lat="45.09479" lon="6.07181">
        <ele>1838.8</ele>
        <time>2021-03-10T07:22:57Z</time>
      </trkpt>
      <trkpt lat="45.0948" lon="6.07182">
        <ele>1839.2</ele>
        <time>2021-03-10T07:22:58Z</time>
      </trkpt>
      <trkpt lat="45.09481" lon="6.07182">
        <ele>1839.2</ele>
        <time>2021-03-10T07:22:59Z</time>
      </trkpt>
      <trkpt lat="45.09481" lon="6.07182">
        <ele>1839.2</ele>
        <time>2021-03-10T07:23:00Z</time>
      </trkpt>
      <trkpt lat="45.09482" lon="6.07182">
        <ele>1839.2</ele>
        <time>2021-03-10T07:23:01Z</time>
      </trkpt>
      <trkpt lat="45.09482" lon="6.07182">
        <ele>1839.2</ele>
        <time>2021-03-10T07:23:02Z</time>
      </trkpt>
      <trkpt lat="45.09483" lon="6.07182">
        <ele>1839.5</ele>
        <time>2021-03-10T07:23:03Z</time>
      </trkpt>
      <trkpt lat="45.09483" lon="6.07182">
        <ele>1839.5</ele>
        <time>2021-03-10T07:23:04Z</time>
      </trkpt>
      <trkpt lat="45.09483" lon="6.07183">
        <ele>1839.5</ele>
        <time>2021-03-10T07:23:05Z</time>
      </trkpt>
      <trkpt lat="45.09484" lon="6.07183">
        <ele>1839.5</ele>
        <time>2021-03-10T07:23:06Z</time>
      </trkpt>
      <trkpt lat="45.09487" lon="6.07183">
        <ele>1839.8</ele>
        <time>2021-03-10T07:23:07Z</time>
      </trkpt>
      <trkpt lat="45.09488" lon="6.07183">
        <ele>1839.8</ele>
        <time>2021-03-10T07:23:08Z</time>
      </trkpt>
      <trkpt lat="45.09489" lon="6.07183">
        <ele>1840.1</ele>
        <time>2021-03-10T07:23:09Z</time>
      </trkpt>
      <trkpt lat="45.0949" lon="6.07183">
        <ele>1840.1</ele>
        <time>2021-03-10T07:23:10Z</time>
      </trkpt>
      <trkpt lat="45.09491" lon="6.07183">
        <ele>1840.1</ele>
        <time>2021-03-10T07:23:11Z</time>
      </trkpt>
      <trkpt lat="45.09492" lon="6.07183">
        <ele>1840.4</ele>
        <time>2021-03-10T07:23:12Z</time>
      </trkpt>
      <trkpt lat="45.09493" lon="6.07182">
        <ele>1840.4</ele>
        <time>2021-03-10T07:23:13Z</time>
      </trkpt>
      <trkpt lat="45.09495" lon="6.07182">
        <ele>1840.8</ele>
        <time>2021-03-10T07:23:14Z</time>
      </trkpt>
      <trkpt lat="45.09496" lon="6.07182">
        <ele>1840.8</ele>
        <time>2021-03-10T07:23:15Z</time>
      </trkpt>
      <trkpt lat="45.09497" lon="6.07182">
        <ele>1840.8</ele>
        <time>2021-03-10T07:23:16Z</time>
      </trkpt>
      <trkpt lat="45.09498" lon="6.07182">
        <ele>1841.3</ele>
        <time>2021-03-10T07:23:17Z</time>
      </trkpt>
      <trkpt lat="45.09499" lon="6.07182">
        <ele>1841.3</ele>
        <time>2021-03-10T07:23:18Z</time>
      </trkpt>
      <trkpt lat="45.09501" lon="6.07181">
        <ele>1841.7</ele>
        <time>2021-03-10T07:23:19Z</time>
      </trkpt>
      <trkpt lat="45.09502" lon="6.07181">
        <ele>1841.7</ele>
        <time>2021-03-10T07:23:20Z</time>
      </trkpt>
      <trkpt lat="45.09503" lon="6.07181">
        <ele>1841.7</ele>
        <time>2021-03-10T07:23:21Z</time>
      </trkpt>
      <trkpt lat="45.09504" lon="6.07181">
        <ele>1842.1</ele>
        <time>2021-03-10T07:23:22Z</time>
      </trkpt>
      <trkpt lat="45.09505" lon="6.07181">
        <ele>1842.1</ele>
        <time>2021-03-10T07:23:23Z</time>
      </trkpt>
      <trkpt lat="45.09507" lon="6.07181">
        <ele>1842.4</ele>
        <time>2021-03-10T07:23:24Z</time>
      </trkpt>
      <trkpt lat="45.09508" lon="6.07181">
        <ele>1842.4</ele>
        <time>2021-03-10T07:23:25Z</time>
      </trkpt>
      <trkpt lat="45.09509" lon="6.0718">
        <ele>1842.4</ele>
        <time>2021-03-10T07:23:26Z</time>
      </trkpt>
      <trkpt lat="45.0951" lon="6.0718">
        <ele>1842.7</ele>
        <time>2021-03-10T07:23:27Z</time>
      </trkpt>
      <trkpt lat="45.09511" lon="6.07181">
        <ele>1842.7</ele>
        <time>2021-03-10T07:23:28Z</time>
      </trkpt>
      <trkpt lat="45.09512" lon="6.07181">
        <ele>1842.7</ele>
        <time>2021-03-10T07:23:29Z</time>
      </trkpt>
      <trkpt lat="45.09513" lon="6.07181">
        <ele>1843</ele>
        <time>2021-03-10T07:23:30Z</time>
      </trkpt>
      <trkpt lat="45.09514" lon="6.07182">
        <ele>1843</ele>
        <time>2021-03-10T07:23:31Z</time>
      </trkpt>
      <trkpt lat="45.09516" lon="6.07182">
        <ele>1843.3</ele>
        <time>2021-03-10T07:23:32Z</time>
      </trkpt>
      <trkpt lat="45.09517" lon="6.07182">
        <ele>1843.3</ele>
        <time>2021-03-10T07:23:33Z</time>
      </trkpt>
      <trkpt lat="45.09518" lon="6.07183">
        <ele>1843.3</ele>
        <time>2021-03-10T07:23:34Z</time>
      </trkpt>
      <trkpt lat="45.09519" lon="6.07183">
        <ele>1843.3</ele>
        <time>2021-03-10T07:23:35Z</time>
      </trkpt>
      <trkpt lat="45.0952" lon="6.07183">
        <ele>1843.6</ele>
        <time>2021-03-10T07:23:36Z</time>
      </trkpt>
      <trkpt lat="45.0952" lon="6.07184">
        <ele>1843.5</ele>
        <time>2021-03-10T07:23:37Z</time>
      </trkpt>
      <trkpt lat="45.09522" lon="6.07184">
        <ele>1843.8</ele>
        <time>2021-03-10T07:23:38Z</time>
      </trkpt>
      <trkpt lat="45.09524" lon="6.07185">
        <ele>1843.8</ele>
        <time>2021-03-10T07:23:39Z</time>
      </trkpt>
      <trkpt lat="45.09525" lon="6.07185">
        <ele>1843.8</ele>
        <time>2021-03-10T07:23:40Z</time>
      </trkpt>
      <trkpt lat="45.09525" lon="6.07186">
        <ele>1844.1</ele>
        <time>2021-03-10T07:23:41Z</time>
      </trkpt>
      <trkpt lat="45.09526" lon="6.07186">
        <ele>1844.1</ele>
        <time>2021-03-10T07:23:42Z</time>
      </trkpt>
      <trkpt lat="45.09527" lon="6.07187">
        <ele>1844.1</ele>
        <time>2021-03-10T07:23:43Z</time>
      </trkpt>
      <trkpt lat="45.09528" lon="6.07187">
        <ele>1844.4</ele>
        <time>2021-03-10T07:23:44Z</time>
      </trkpt>
      <trkpt lat="45.0953" lon="6.07188">
        <ele>1844.4</ele>
        <time>2021-03-10T07:23:45Z</time>
      </trkpt>
      <trkpt lat="45.09531" lon="6.07189">
        <ele>1844.7</ele>
        <time>2021-03-10T07:23:46Z</time>
      </trkpt>
      <trkpt lat="45.09532" lon="6.07189">
        <ele>1844.7</ele>
        <time>2021-03-10T07:23:47Z</time>
      </trkpt>
      <trkpt lat="45.09533" lon="6.07189">
        <ele>1844.7</ele>
        <time>2021-03-10T07:23:48Z</time>
      </trkpt>
      <trkpt lat="45.09534" lon="6.0719">
        <ele>1844.7</ele>
        <time>2021-03-10T07:23:49Z</time>
      </trkpt>
      <trkpt lat="45.09535" lon="6.0719">
        <ele>1845</ele>
        <time>2021-03-10T07:23:50Z</time>
      </trkpt>
      <trkpt lat="45.09537" lon="6.07191">
        <ele>1845</ele>
        <time>2021-03-10T07:23:51Z</time>
      </trkpt>
      <trkpt lat="45.09537" lon="6.07192">
        <ele>1845.3</ele>
        <time>2021-03-10T07:23:52Z</time>
      </trkpt>
      <trkpt lat="45.09538" lon="6.07193">
        <ele>1845.4</ele>
        <time>2021-03-10T07:23:53Z</time>
      </trkpt>
      <trkpt lat="45.09539" lon="6.07193">
        <ele>1845.4</ele>
        <time>2021-03-10T07:23:54Z</time>
      </trkpt>
      <trkpt lat="45.0954" lon="6.07194">
        <ele>1845.4</ele>
        <time>2021-03-10T07:23:55Z</time>
      </trkpt>
      <trkpt lat="45.09541" lon="6.07195">
        <ele>1845.7</ele>
        <time>2021-03-10T07:23:56Z</time>
      </trkpt>
      <trkpt lat="45.09542" lon="6.07195">
        <ele>1845.7</ele>
        <time>2021-03-10T07:23:57Z</time>
      </trkpt>
      <trkpt lat="45.09543" lon="6.07196">
        <ele>1845.7</ele>
        <time>2021-03-10T07:23:58Z</time>
      </trkpt>
      <trkpt lat="45.09544" lon="6.07197">
        <ele>1846.1</ele>
        <time>2021-03-10T07:23:59Z</time>
      </trkpt>
      <trkpt lat="45.09545" lon="6.07197">
        <ele>1846.1</ele>
        <time>2021-03-10T07:24:00Z</time>
      </trkpt>
      <trkpt lat="45.09547" lon="6.07197">
        <ele>1846.5</ele>
        <time>2021-03-10T07:24:01Z</time>
      </trkpt>
      <trkpt lat="45.09549" lon="6.07198">
        <ele>1846.5</ele>
        <time>2021-03-10T07:24:02Z</time>
      </trkpt>
      <trkpt lat="45.0955" lon="6.07198">
        <ele>1846.8</ele>
        <time>2021-03-10T07:24:03Z</time>
      </trkpt>
      <trkpt lat="45.0955" lon="6.07198">
        <ele>1846.8</ele>
        <time>2021-03-10T07:24:04Z</time>
      </trkpt>
      <trkpt lat="45.09552" lon="6.07199">
        <ele>1847.3</ele>
        <time>2021-03-10T07:24:05Z</time>
      </trkpt>
      <trkpt lat="45.09553" lon="6.07199">
        <ele>1847.3</ele>
        <time>2021-03-10T07:24:06Z</time>
      </trkpt>
      <trkpt lat="45.09554" lon="6.072">
        <ele>1847.3</ele>
        <time>2021-03-10T07:24:07Z</time>
      </trkpt>
      <trkpt lat="45.09556" lon="6.072">
        <ele>1847.7</ele>
        <time>2021-03-10T07:24:08Z</time>
      </trkpt>
      <trkpt lat="45.09557" lon="6.07201">
        <ele>1847.8</ele>
        <time>2021-03-10T07:24:09Z</time>
      </trkpt>
      <trkpt lat="45.09558" lon="6.07201">
        <ele>1847.8</ele>
        <time>2021-03-10T07:24:10Z</time>
      </trkpt>
      <trkpt lat="45.09559" lon="6.07202">
        <ele>1848.3</ele>
        <time>2021-03-10T07:24:11Z</time>
      </trkpt>
      <trkpt lat="45.09561" lon="6.07202">
        <ele>1848.3</ele>
        <time>2021-03-10T07:24:12Z</time>
      </trkpt>
      <trkpt lat="45.09562" lon="6.07202">
        <ele>1848.8</ele>
        <time>2021-03-10T07:24:13Z</time>
      </trkpt>
      <trkpt lat="45.09563" lon="6.07203">
        <ele>1848.8</ele>
        <time>2021-03-10T07:24:14Z</time>
      </trkpt>
      <trkpt lat="45.09564" lon="6.07203">
        <ele>1848.8</ele>
        <time>2021-03-10T07:24:15Z</time>
      </trkpt>
      <trkpt lat="45.09565" lon="6.07204">
        <ele>1849.2</ele>
        <time>2021-03-10T07:24:16Z</time>
      </trkpt>
      <trkpt lat="45.09566" lon="6.07204">
        <ele>1849.2</ele>
        <time>2021-03-10T07:24:17Z</time>
      </trkpt>
      <trkpt lat="45.09567" lon="6.07205">
        <ele>1849.6</ele>
        <time>2021-03-10T07:24:18Z</time>
      </trkpt>
      <trkpt lat="45.09569" lon="6.07205">
        <ele>1849.7</ele>
        <time>2021-03-10T07:24:19Z</time>
      </trkpt>
      <trkpt lat="45.0957" lon="6.07206">
        <ele>1849.7</ele>
        <time>2021-03-10T07:24:20Z</time>
      </trkpt>
      <trkpt lat="45.09572" lon="6.07207">
        <ele>1850.1</ele>
        <time>2021-03-10T07:24:21Z</time>
      </trkpt>
      <trkpt lat="45.09573" lon="6.07207">
        <ele>1850.1</ele>
        <time>2021-03-10T07:24:22Z</time>
      </trkpt>
      <trkpt lat="45.09573" lon="6.07208">
        <ele>1850.5</ele>
        <time>2021-03-10T07:24:23Z</time>
      </trkpt>
      <trkpt lat="45.09574" lon="6.07208">
        <ele>1850.5</ele>
        <time>2021-03-10T07:24:24Z</time>
      </trkpt>
      <trkpt lat="45.09575" lon="6.07209">
        <ele>1850.5</ele>
        <time>2021-03-10T07:24:25Z</time>
      </trkpt>
      <trkpt lat="45.09576" lon="6.0721">
        <ele>1850.6</ele>
        <time>2021-03-10T07:24:26Z</time>
      </trkpt>
      <trkpt lat="45.09577" lon="6.0721">
        <ele>1851</ele>
        <time>2021-03-10T07:24:27Z</time>
      </trkpt>
      <trkpt lat="45.09577" lon="6.07211">
        <ele>1851</ele>
        <time>2021-03-10T07:24:28Z</time>
      </trkpt>
      <trkpt lat="45.09578" lon="6.07211">
        <ele>1851</ele>
        <time>2021-03-10T07:24:29Z</time>
      </trkpt>
      <trkpt lat="45.09579" lon="6.07212">
        <ele>1851.5</ele>
        <time>2021-03-10T07:24:30Z</time>
      </trkpt>
      <trkpt lat="45.0958" lon="6.07212">
        <ele>1851.5</ele>
        <time>2021-03-10T07:24:31Z</time>
      </trkpt>
      <trkpt lat="45.09581" lon="6.07212">
        <ele>1851.5</ele>
        <time>2021-03-10T07:24:32Z</time>
      </trkpt>
      <trkpt lat="45.09582" lon="6.07213">
        <ele>1851.5</ele>
        <time>2021-03-10T07:24:33Z</time>
      </trkpt>
      <trkpt lat="45.09583" lon="6.07213">
        <ele>1852</ele>
        <time>2021-03-10T07:24:34Z</time>
      </trkpt>
      <trkpt lat="45.09584" lon="6.07213">
        <ele>1852</ele>
        <time>2021-03-10T07:24:35Z</time>
      </trkpt>
      <trkpt lat="45.09586" lon="6.07214">
        <ele>1852.6</ele>
        <time>2021-03-10T07:24:36Z</time>
      </trkpt>
      <trkpt lat="45.09587" lon="6.07214">
        <ele>1852.6</ele>
        <time>2021-03-10T07:24:37Z</time>
      </trkpt>
      <trkpt lat="45.09589" lon="6.07215">
        <ele>1853</ele>
        <time>2021-03-10T07:24:38Z</time>
      </trkpt>
      <trkpt lat="45.0959" lon="6.07216">
        <ele>1853</ele>
        <time>2021-03-10T07:24:39Z</time>
      </trkpt>
      <trkpt lat="45.09591" lon="6.07216">
        <ele>1853</ele>
        <time>2021-03-10T07:24:40Z</time>
      </trkpt>
      <trkpt lat="45.09592" lon="6.07217">
        <ele>1853.5</ele>
        <time>2021-03-10T07:24:41Z</time>
      </trkpt>
      <trkpt lat="45.09593" lon="6.07218">
        <ele>1853.5</ele>
        <time>2021-03-10T07:24:42Z</time>
      </trkpt>
      <trkpt lat="45.09594" lon="6.07218">
        <ele>1853.5</ele>
        <time>2021-03-10T07:24:43Z</time>
      </trkpt>
      <trkpt lat="45.09595" lon="6.07219">
        <ele>1853.9</ele>
        <time>2021-03-10T07:24:44Z</time>
      </trkpt>
      <trkpt lat="45.09596" lon="6.0722">
        <ele>1853.9</ele>
        <time>2021-03-10T07:24:45Z</time>
      </trkpt>
      <trkpt lat="45.09597" lon="6.07221">
        <ele>1853.9</ele>
        <time>2021-03-10T07:24:46Z</time>
      </trkpt>
      <trkpt lat="45.09598" lon="6.07221">
        <ele>1854.4</ele>
        <time>2021-03-10T07:24:47Z</time>
      </trkpt>
      <trkpt lat="45.09599" lon="6.07222">
        <ele>1854.4</ele>
        <time>2021-03-10T07:24:48Z</time>
      </trkpt>
      <trkpt lat="45.096" lon="6.07222">
        <ele>1854.4</ele>
        <time>2021-03-10T07:24:49Z</time>
      </trkpt>
      <trkpt lat="45.09601" lon="6.07222">
        <ele>1854.8</ele>
        <time>2021-03-10T07:24:50Z</time>
      </trkpt>
      <trkpt lat="45.09602" lon="6.07223">
        <ele>1854.8</ele>
        <time>2021-03-10T07:24:51Z</time>
      </trkpt>
      <trkpt lat="45.09603" lon="6.07223">
        <ele>1854.8</ele>
        <time>2021-03-10T07:24:52Z</time>
      </trkpt>
      <trkpt lat="45.09603" lon="6.07223">
        <ele>1854.8</ele>
        <time>2021-03-10T07:24:53Z</time>
      </trkpt>
      <trkpt lat="45.09604" lon="6.07224">
        <ele>1855.3</ele>
        <time>2021-03-10T07:24:54Z</time>
      </trkpt>
      <trkpt lat="45.09606" lon="6.07224">
        <ele>1855.3</ele>
        <time>2021-03-10T07:24:55Z</time>
      </trkpt>
      <trkpt lat="45.09607" lon="6.07224">
        <ele>1855.7</ele>
        <time>2021-03-10T07:24:56Z</time>
      </trkpt>
      <trkpt lat="45.09608" lon="6.07224">
        <ele>1855.7</ele>
        <time>2021-03-10T07:24:57Z</time>
      </trkpt>
      <trkpt lat="45.09609" lon="6.07225">
        <ele>1855.7</ele>
        <time>2021-03-10T07:24:58Z</time>
      </trkpt>
      <trkpt lat="45.0961" lon="6.07225">
        <ele>1856.2</ele>
        <time>2021-03-10T07:24:59Z</time>
      </trkpt>
      <trkpt lat="45.09611" lon="6.07225">
        <ele>1856.2</ele>
        <time>2021-03-10T07:25:00Z</time>
      </trkpt>
      <trkpt lat="45.09612" lon="6.07225">
        <ele>1856.2</ele>
        <time>2021-03-10T07:25:01Z</time>
      </trkpt>
      <trkpt lat="45.09613" lon="6.07226">
        <ele>1856.6</ele>
        <time>2021-03-10T07:25:02Z</time>
      </trkpt>
      <trkpt lat="45.09614" lon="6.07227">
        <ele>1856.6</ele>
        <time>2021-03-10T07:25:03Z</time>
      </trkpt>
      <trkpt lat="45.09615" lon="6.07227">
        <ele>1856.6</ele>
        <time>2021-03-10T07:25:04Z</time>
      </trkpt>
      <trkpt lat="45.09617" lon="6.07227">
        <ele>1857</ele>
        <time>2021-03-10T07:25:05Z</time>
      </trkpt>
      <trkpt lat="45.09618" lon="6.07228">
        <ele>1857</ele>
        <time>2021-03-10T07:25:06Z</time>
      </trkpt>
      <trkpt lat="45.09618" lon="6.07228">
        <ele>1857</ele>
        <time>2021-03-10T07:25:07Z</time>
      </trkpt>
      <trkpt lat="45.09621" lon="6.07228">
        <ele>1857.4</ele>
        <time>2021-03-10T07:25:08Z</time>
      </trkpt>
      <trkpt lat="45.09621" lon="6.07229">
        <ele>1857.4</ele>
        <time>2021-03-10T07:25:09Z</time>
      </trkpt>
      <trkpt lat="45.09622" lon="6.07229">
        <ele>1857.7</ele>
        <time>2021-03-10T07:25:10Z</time>
      </trkpt>
      <trkpt lat="45.09623" lon="6.0723">
        <ele>1857.7</ele>
        <time>2021-03-10T07:25:11Z</time>
      </trkpt>
      <trkpt lat="45.09624" lon="6.0723">
        <ele>1857.7</ele>
        <time>2021-03-10T07:25:12Z</time>
      </trkpt>
      <trkpt lat="45.09625" lon="6.07231">
        <ele>1857.9</ele>
        <time>2021-03-10T07:25:13Z</time>
      </trkpt>
      <trkpt lat="45.09627" lon="6.07231">
        <ele>1857.9</ele>
        <time>2021-03-10T07:25:14Z</time>
      </trkpt>
      <trkpt lat="45.09628" lon="6.07231">
        <ele>1858.2</ele>
        <time>2021-03-10T07:25:15Z</time>
      </trkpt>
      <trkpt lat="45.0963" lon="6.07232">
        <ele>1858.2</ele>
        <time>2021-03-10T07:25:16Z</time>
      </trkpt>
      <trkpt lat="45.09632" lon="6.07232">
        <ele>1858.4</ele>
        <time>2021-03-10T07:25:17Z</time>
      </trkpt>
      <trkpt lat="45.09633" lon="6.07233">
        <ele>1858.4</ele>
        <time>2021-03-10T07:25:18Z</time>
      </trkpt>
      <trkpt lat="45.09634" lon="6.07233">
        <ele>1858.6</ele>
        <time>2021-03-10T07:25:19Z</time>
      </trkpt>
      <trkpt lat="45.09636" lon="6.07233">
        <ele>1858.6</ele>
        <time>2021-03-10T07:25:20Z</time>
      </trkpt>
      <trkpt lat="45.09637" lon="6.07233">
        <ele>1858.8</ele>
        <time>2021-03-10T07:25:21Z</time>
      </trkpt>
      <trkpt lat="45.09639" lon="6.07234">
        <ele>1858.8</ele>
        <time>2021-03-10T07:25:22Z</time>
      </trkpt>
      <trkpt lat="45.0964" lon="6.07234">
        <ele>1858.9</ele>
        <time>2021-03-10T07:25:23Z</time>
      </trkpt>
      <trkpt lat="45.09641" lon="6.07234">
        <ele>1858.9</ele>
        <time>2021-03-10T07:25:24Z</time>
      </trkpt>
      <trkpt lat="45.09642" lon="6.07235">
        <ele>1858.9</ele>
        <time>2021-03-10T07:25:25Z</time>
      </trkpt>
      <trkpt lat="45.09643" lon="6.07235">
        <ele>1859.1</ele>
        <time>2021-03-10T07:25:26Z</time>
      </trkpt>
      <trkpt lat="45.09644" lon="6.07235">
        <ele>1859.1</ele>
        <time>2021-03-10T07:25:27Z</time>
      </trkpt>
      <trkpt lat="45.09646" lon="6.07235">
        <ele>1859.2</ele>
        <time>2021-03-10T07:25:28Z</time>
      </trkpt>
      <trkpt lat="45.09647" lon="6.07236">
        <ele>1859.2</ele>
        <time>2021-03-10T07:25:29Z</time>
      </trkpt>
      <trkpt lat="45.09648" lon="6.07236">
        <ele>1859.2</ele>
        <time>2021-03-10T07:25:30Z</time>
      </trkpt>
      <trkpt lat="45.09649" lon="6.07237">
        <ele>1859.4</ele>
        <time>2021-03-10T07:25:31Z</time>
      </trkpt>
      <trkpt lat="45.0965" lon="6.07237">
        <ele>1859.4</ele>
        <time>2021-03-10T07:25:32Z</time>
      </trkpt>
      <trkpt lat="45.09651" lon="6.07238">
        <ele>1859.4</ele>
        <time>2021-03-10T07:25:33Z</time>
      </trkpt>
      <trkpt lat="45.09653" lon="6.07238">
        <ele>1859.5</ele>
        <time>2021-03-10T07:25:34Z</time>
      </trkpt>
      <trkpt lat="45.09654" lon="6.07238">
        <ele>1859.5</ele>
        <time>2021-03-10T07:25:35Z</time>
      </trkpt>
      <trkpt lat="45.09655" lon="6.07239">
        <ele>1859.6</ele>
        <time>2021-03-10T07:25:36Z</time>
      </trkpt>
      <trkpt lat="45.09657" lon="6.07239">
        <ele>1859.6</ele>
        <time>2021-03-10T07:25:37Z</time>
      </trkpt>
      <trkpt lat="45.09658" lon="6.0724">
        <ele>1859.8</ele>
        <time>2021-03-10T07:25:38Z</time>
      </trkpt>
      <trkpt lat="45.0966" lon="6.0724">
        <ele>1859.8</ele>
        <time>2021-03-10T07:25:39Z</time>
      </trkpt>
      <trkpt lat="45.09662" lon="6.0724">
        <ele>1859.9</ele>
        <time>2021-03-10T07:25:40Z</time>
      </trkpt>
      <trkpt lat="45.09663" lon="6.0724">
        <ele>1859.9</ele>
        <time>2021-03-10T07:25:41Z</time>
      </trkpt>
      <trkpt lat="45.09664" lon="6.0724">
        <ele>1859.9</ele>
        <time>2021-03-10T07:25:42Z</time>
      </trkpt>
      <trkpt lat="45.09665" lon="6.0724">
        <ele>1860.1</ele>
        <time>2021-03-10T07:25:43Z</time>
      </trkpt>
      <trkpt lat="45.09666" lon="6.0724">
        <ele>1860.1</ele>
        <time>2021-03-10T07:25:44Z</time>
      </trkpt>
      <trkpt lat="45.09668" lon="6.0724">
        <ele>1860.3</ele>
        <time>2021-03-10T07:25:45Z</time>
      </trkpt>
      <trkpt lat="45.09669" lon="6.0724">
        <ele>1860.3</ele>
        <time>2021-03-10T07:25:46Z</time>
      </trkpt>
      <trkpt lat="45.0967" lon="6.0724">
        <ele>1860.3</ele>
        <time>2021-03-10T07:25:47Z</time>
      </trkpt>
      <trkpt lat="45.09671" lon="6.0724">
        <ele>1860.5</ele>
        <time>2021-03-10T07:25:48Z</time>
      </trkpt>
      <trkpt lat="45.09672" lon="6.0724">
        <ele>1860.5</ele>
        <time>2021-03-10T07:25:49Z</time>
      </trkpt>
      <trkpt lat="45.09673" lon="6.07241">
        <ele>1860.5</ele>
        <time>2021-03-10T07:25:50Z</time>
      </trkpt>
      <trkpt lat="45.09674" lon="6.07241">
        <ele>1860.7</ele>
        <time>2021-03-10T07:25:51Z</time>
      </trkpt>
      <trkpt lat="45.09675" lon="6.07241">
        <ele>1860.7</ele>
        <time>2021-03-10T07:25:52Z</time>
      </trkpt>
      <trkpt lat="45.09676" lon="6.07242">
        <ele>1860.7</ele>
        <time>2021-03-10T07:25:53Z</time>
      </trkpt>
      <trkpt lat="45.09676" lon="6.07242">
        <ele>1860.8</ele>
        <time>2021-03-10T07:25:54Z</time>
      </trkpt>
      <trkpt lat="45.09677" lon="6.07242">
        <ele>1860.8</ele>
        <time>2021-03-10T07:25:55Z</time>
      </trkpt>
      <trkpt lat="45.09678" lon="6.07243">
        <ele>1860.8</ele>
        <time>2021-03-10T07:25:56Z</time>
      </trkpt>
      <trkpt lat="45.09679" lon="6.07243">
        <ele>1860.8</ele>
        <time>2021-03-10T07:25:57Z</time>
      </trkpt>
      <trkpt lat="45.0968" lon="6.07243">
        <ele>1861</ele>
        <time>2021-03-10T07:25:58Z</time>
      </trkpt>
      <trkpt lat="45.09681" lon="6.07243">
        <ele>1861</ele>
        <time>2021-03-10T07:25:59Z</time>
      </trkpt>
      <trkpt lat="45.09682" lon="6.07244">
        <ele>1861</ele>
        <time>2021-03-10T07:26:00Z</time>
      </trkpt>
      <trkpt lat="45.09683" lon="6.07244">
        <ele>1861.2</ele>
        <time>2021-03-10T07:26:01Z</time>
      </trkpt>
      <trkpt lat="45.09684" lon="6.07244">
        <ele>1861.2</ele>
        <time>2021-03-10T07:26:02Z</time>
      </trkpt>
      <trkpt lat="45.09685" lon="6.07244">
        <ele>1861.2</ele>
        <time>2021-03-10T07:26:03Z</time>
      </trkpt>
      <trkpt lat="45.09686" lon="6.07244">
        <ele>1861.3</ele>
        <time>2021-03-10T07:26:04Z</time>
      </trkpt>
      <trkpt lat="45.09687" lon="6.07244">
        <ele>1861.3</ele>
        <time>2021-03-10T07:26:05Z</time>
      </trkpt>
      <trkpt lat="45.09688" lon="6.07244">
        <ele>1861.3</ele>
        <time>2021-03-10T07:26:06Z</time>
      </trkpt>
      <trkpt lat="45.09689" lon="6.07244">
        <ele>1861.5</ele>
        <time>2021-03-10T07:26:07Z</time>
      </trkpt>
      <trkpt lat="45.09691" lon="6.07245">
        <ele>1861.5</ele>
        <time>2021-03-10T07:26:08Z</time>
      </trkpt>
      <trkpt lat="45.09692" lon="6.07245">
        <ele>1861.6</ele>
        <time>2021-03-10T07:26:09Z</time>
      </trkpt>
      <trkpt lat="45.09694" lon="6.07245">
        <ele>1861.8</ele>
        <time>2021-03-10T07:26:10Z</time>
      </trkpt>
      <trkpt lat="45.09695" lon="6.07245">
        <ele>1861.8</ele>
        <time>2021-03-10T07:26:11Z</time>
      </trkpt>
      <trkpt lat="45.09696" lon="6.07245">
        <ele>1861.8</ele>
        <time>2021-03-10T07:26:12Z</time>
      </trkpt>
      <trkpt lat="45.09697" lon="6.07246">
        <ele>1861.8</ele>
        <time>2021-03-10T07:26:13Z</time>
      </trkpt>
      <trkpt lat="45.09698" lon="6.07246">
        <ele>1861.9</ele>
        <time>2021-03-10T07:26:14Z</time>
      </trkpt>
      <trkpt lat="45.097" lon="6.07246">
        <ele>1861.9</ele>
        <time>2021-03-10T07:26:15Z</time>
      </trkpt>
      <trkpt lat="45.09701" lon="6.07247">
        <ele>1862.1</ele>
        <time>2021-03-10T07:26:16Z</time>
      </trkpt>
      <trkpt lat="45.09702" lon="6.07247">
        <ele>1862.1</ele>
        <time>2021-03-10T07:26:17Z</time>
      </trkpt>
      <trkpt lat="45.09703" lon="6.07247">
        <ele>1862.1</ele>
        <time>2021-03-10T07:26:18Z</time>
      </trkpt>
      <trkpt lat="45.09703" lon="6.07247">
        <ele>1862.1</ele>
        <time>2021-03-10T07:26:19Z</time>
      </trkpt>
      <trkpt lat="45.09705" lon="6.07248">
        <ele>1862.3</ele>
        <time>2021-03-10T07:26:20Z</time>
      </trkpt>
      <trkpt lat="45.09706" lon="6.07248">
        <ele>1862.4</ele>
        <time>2021-03-10T07:26:21Z</time>
      </trkpt>
      <trkpt lat="45.09708" lon="6.07249">
        <ele>1862.6</ele>
        <time>2021-03-10T07:26:22Z</time>
      </trkpt>
      <trkpt lat="45.09709" lon="6.07249">
        <ele>1862.6</ele>
        <time>2021-03-10T07:26:23Z</time>
      </trkpt>
      <trkpt lat="45.0971" lon="6.07249">
        <ele>1862.8</ele>
        <time>2021-03-10T07:26:24Z</time>
      </trkpt>
      <trkpt lat="45.09711" lon="6.0725">
        <ele>1862.8</ele>
        <time>2021-03-10T07:26:25Z</time>
      </trkpt>
      <trkpt lat="45.09713" lon="6.0725">
        <ele>1863</ele>
        <time>2021-03-10T07:26:26Z</time>
      </trkpt>
      <trkpt lat="45.09714" lon="6.0725">
        <ele>1863</ele>
        <time>2021-03-10T07:26:27Z</time>
      </trkpt>
      <trkpt lat="45.09715" lon="6.0725">
        <ele>1863</ele>
        <time>2021-03-10T07:26:28Z</time>
      </trkpt>
      <trkpt lat="45.09716" lon="6.07251">
        <ele>1863.2</ele>
        <time>2021-03-10T07:26:29Z</time>
      </trkpt>
      <trkpt lat="45.09717" lon="6.07251">
        <ele>1863.2</ele>
        <time>2021-03-10T07:26:30Z</time>
      </trkpt>
      <trkpt lat="45.09718" lon="6.07251">
        <ele>1863.2</ele>
        <time>2021-03-10T07:26:31Z</time>
      </trkpt>
      <trkpt lat="45.09719" lon="6.07251">
        <ele>1863.4</ele>
        <time>2021-03-10T07:26:32Z</time>
      </trkpt>
      <trkpt lat="45.0972" lon="6.07252">
        <ele>1863.4</ele>
        <time>2021-03-10T07:26:33Z</time>
      </trkpt>
      <trkpt lat="45.09721" lon="6.07252">
        <ele>1863.4</ele>
        <time>2021-03-10T07:26:34Z</time>
      </trkpt>
      <trkpt lat="45.09722" lon="6.07252">
        <ele>1863.7</ele>
        <time>2021-03-10T07:26:35Z</time>
      </trkpt>
      <trkpt lat="45.09723" lon="6.07252">
        <ele>1863.7</ele>
        <time>2021-03-10T07:26:36Z</time>
      </trkpt>
      <trkpt lat="45.09724" lon="6.07252">
        <ele>1863.8</ele>
        <time>2021-03-10T07:26:37Z</time>
      </trkpt>
      <trkpt lat="45.09725" lon="6.07252">
        <ele>1863.8</ele>
        <time>2021-03-10T07:26:38Z</time>
      </trkpt>
      <trkpt lat="45.09725" lon="6.07253">
        <ele>1864.1</ele>
        <time>2021-03-10T07:26:39Z</time>
      </trkpt>
      <trkpt lat="45.09726" lon="6.07253">
        <ele>1864.1</ele>
        <time>2021-03-10T07:26:40Z</time>
      </trkpt>
      <trkpt lat="45.09728" lon="6.07253">
        <ele>1864.1</ele>
        <time>2021-03-10T07:26:41Z</time>
      </trkpt>
      <trkpt lat="45.09729" lon="6.07254">
        <ele>1864.3</ele>
        <time>2021-03-10T07:26:42Z</time>
      </trkpt>
      <trkpt lat="45.0973" lon="6.07254">
        <ele>1864.3</ele>
        <time>2021-03-10T07:26:43Z</time>
      </trkpt>
      <trkpt lat="45.09731" lon="6.07254">
        <ele>1864.6</ele>
        <time>2021-03-10T07:26:44Z</time>
      </trkpt>
      <trkpt lat="45.09732" lon="6.07254">
        <ele>1864.6</ele>
        <time>2021-03-10T07:26:45Z</time>
      </trkpt>
      <trkpt lat="45.09733" lon="6.07255">
        <ele>1864.6</ele>
        <time>2021-03-10T07:26:46Z</time>
      </trkpt>
      <trkpt lat="45.09734" lon="6.07255">
        <ele>1864.8</ele>
        <time>2021-03-10T07:26:47Z</time>
      </trkpt>
      <trkpt lat="45.09735" lon="6.07255">
        <ele>1864.8</ele>
        <time>2021-03-10T07:26:48Z</time>
      </trkpt>
      <trkpt lat="45.09736" lon="6.07255">
        <ele>1864.8</ele>
        <time>2021-03-10T07:26:49Z</time>
      </trkpt>
      <trkpt lat="45.09737" lon="6.07256">
        <ele>1864.9</ele>
        <time>2021-03-10T07:26:50Z</time>
      </trkpt>
      <trkpt lat="45.09738" lon="6.07256">
        <ele>1864.9</ele>
        <time>2021-03-10T07:26:51Z</time>
      </trkpt>
      <trkpt lat="45.0974" lon="6.07257">
        <ele>1865.3</ele>
        <time>2021-03-10T07:26:52Z</time>
      </trkpt>
      <trkpt lat="45.09741" lon="6.07257">
        <ele>1865.3</ele>
        <time>2021-03-10T07:26:53Z</time>
      </trkpt>
      <trkpt lat="45.09742" lon="6.07257">
        <ele>1865.3</ele>
        <time>2021-03-10T07:26:54Z</time>
      </trkpt>
      <trkpt lat="45.09744" lon="6.07258">
        <ele>1865.5</ele>
        <time>2021-03-10T07:26:55Z</time>
      </trkpt>
      <trkpt lat="45.09745" lon="6.07258">
        <ele>1865.5</ele>
        <time>2021-03-10T07:26:56Z</time>
      </trkpt>
      <trkpt lat="45.09747" lon="6.0726">
        <ele>1865.7</ele>
        <time>2021-03-10T07:26:57Z</time>
      </trkpt>
      <trkpt lat="45.09747" lon="6.0726">
        <ele>1865.7</ele>
        <time>2021-03-10T07:26:58Z</time>
      </trkpt>
      <trkpt lat="45.09748" lon="6.07261">
        <ele>1865.9</ele>
        <time>2021-03-10T07:26:59Z</time>
      </trkpt>
      <trkpt lat="45.0975" lon="6.07263">
        <ele>1866.1</ele>
        <time>2021-03-10T07:27:00Z</time>
      </trkpt>
      <trkpt lat="45.0975" lon="6.07264">
        <ele>1866.1</ele>
        <time>2021-03-10T07:27:01Z</time>
      </trkpt>
      <trkpt lat="45.09751" lon="6.07265">
        <ele>1866.1</ele>
        <time>2021-03-10T07:27:02Z</time>
      </trkpt>
      <trkpt lat="45.09751" lon="6.07266">
        <ele>1866.4</ele>
        <time>2021-03-10T07:27:03Z</time>
      </trkpt>
      <trkpt lat="45.09752" lon="6.07267">
        <ele>1866.6</ele>
        <time>2021-03-10T07:27:04Z</time>
      </trkpt>
      <trkpt lat="45.09753" lon="6.07268">
        <ele>1866.6</ele>
        <time>2021-03-10T07:27:05Z</time>
      </trkpt>
      <trkpt lat="45.09754" lon="6.07269">
        <ele>1866.6</ele>
        <time>2021-03-10T07:27:06Z</time>
      </trkpt>
      <trkpt lat="45.09754" lon="6.07269">
        <ele>1866.8</ele>
        <time>2021-03-10T07:27:07Z</time>
      </trkpt>
      <trkpt lat="45.09755" lon="6.0727">
        <ele>1867</ele>
        <time>2021-03-10T07:27:08Z</time>
      </trkpt>
      <trkpt lat="45.09756" lon="6.07271">
        <ele>1867</ele>
        <time>2021-03-10T07:27:09Z</time>
      </trkpt>
      <trkpt lat="45.09757" lon="6.07272">
        <ele>1867</ele>
        <time>2021-03-10T07:27:10Z</time>
      </trkpt>
      <trkpt lat="45.09758" lon="6.07273">
        <ele>1867</ele>
        <time>2021-03-10T07:27:11Z</time>
      </trkpt>
      <trkpt lat="45.09759" lon="6.07274">
        <ele>1867.2</ele>
        <time>2021-03-10T07:27:12Z</time>
      </trkpt>
      <trkpt lat="45.0976" lon="6.07274">
        <ele>1867.5</ele>
        <time>2021-03-10T07:27:13Z</time>
      </trkpt>
      <trkpt lat="45.09761" lon="6.07275">
        <ele>1867.5</ele>
        <time>2021-03-10T07:27:14Z</time>
      </trkpt>
      <trkpt lat="45.09762" lon="6.07275">
        <ele>1867.7</ele>
        <time>2021-03-10T07:27:15Z</time>
      </trkpt>
      <trkpt lat="45.09763" lon="6.07276">
        <ele>1867.7</ele>
        <time>2021-03-10T07:27:16Z</time>
      </trkpt>
      <trkpt lat="45.09764" lon="6.07276">
        <ele>1867.8</ele>
        <time>2021-03-10T07:27:17Z</time>
      </trkpt>
      <trkpt lat="45.09765" lon="6.07277">
        <ele>1867.8</ele>
        <time>2021-03-10T07:27:18Z</time>
      </trkpt>
      <trkpt lat="45.09765" lon="6.07277">
        <ele>1867.8</ele>
        <time>2021-03-10T07:27:19Z</time>
      </trkpt>
      <trkpt lat="45.09766" lon="6.07278">
        <ele>1867.8</ele>
        <time>2021-03-10T07:27:20Z</time>
      </trkpt>
      <trkpt lat="45.09767" lon="6.07278">
        <ele>1868.1</ele>
        <time>2021-03-10T07:27:21Z</time>
      </trkpt>
      <trkpt lat="45.09767" lon="6.07279">
        <ele>1868.3</ele>
        <time>2021-03-10T07:27:22Z</time>
      </trkpt>
      <trkpt lat="45.09768" lon="6.0728">
        <ele>1868.3</ele>
        <time>2021-03-10T07:27:23Z</time>
      </trkpt>
      <trkpt lat="45.09769" lon="6.07281">
        <ele>1868.3</ele>
        <time>2021-03-10T07:27:24Z</time>
      </trkpt>
      <trkpt lat="45.0977" lon="6.07282">
        <ele>1868.3</ele>
        <time>2021-03-10T07:27:25Z</time>
      </trkpt>
      <trkpt lat="45.0977" lon="6.07282">
        <ele>1868.8</ele>
        <time>2021-03-10T07:27:26Z</time>
      </trkpt>
      <trkpt lat="45.09771" lon="6.07283">
        <ele>1868.8</ele>
        <time>2021-03-10T07:27:27Z</time>
      </trkpt>
      <trkpt lat="45.09772" lon="6.07283">
        <ele>1868.8</ele>
        <time>2021-03-10T07:27:28Z</time>
      </trkpt>
      <trkpt lat="45.09773" lon="6.07284">
        <ele>1868.8</ele>
        <time>2021-03-10T07:27:29Z</time>
      </trkpt>
      <trkpt lat="45.09773" lon="6.07285">
        <ele>1869</ele>
        <time>2021-03-10T07:27:30Z</time>
      </trkpt>
      <trkpt lat="45.09774" lon="6.07285">
        <ele>1869</ele>
        <time>2021-03-10T07:27:31Z</time>
      </trkpt>
      <trkpt lat="45.09775" lon="6.07286">
        <ele>1869</ele>
        <time>2021-03-10T07:27:32Z</time>
      </trkpt>
      <trkpt lat="45.09775" lon="6.07287">
        <ele>1869.3</ele>
        <time>2021-03-10T07:27:33Z</time>
      </trkpt>
      <trkpt lat="45.09776" lon="6.07288">
        <ele>1869.5</ele>
        <time>2021-03-10T07:27:34Z</time>
      </trkpt>
      <trkpt lat="45.09777" lon="6.07289">
        <ele>1869.5</ele>
        <time>2021-03-10T07:27:35Z</time>
      </trkpt>
      <trkpt lat="45.09778" lon="6.07289">
        <ele>1869.5</ele>
        <time>2021-03-10T07:27:36Z</time>
      </trkpt>
      <trkpt lat="45.09779" lon="6.0729">
        <ele>1869.5</ele>
        <time>2021-03-10T07:27:37Z</time>
      </trkpt>
      <trkpt lat="45.0978" lon="6.07292">
        <ele>1870</ele>
        <time>2021-03-10T07:27:38Z</time>
      </trkpt>
      <trkpt lat="45.09781" lon="6.07293">
        <ele>1870</ele>
        <time>2021-03-10T07:27:39Z</time>
      </trkpt>
      <trkpt lat="45.09782" lon="6.07293">
        <ele>1870</ele>
        <time>2021-03-10T07:27:40Z</time>
      </trkpt>
      <trkpt lat="45.09783" lon="6.07294">
        <ele>1870.2</ele>
        <time>2021-03-10T07:27:41Z</time>
      </trkpt>
      <trkpt lat="45.09784" lon="6.07295">
        <ele>1870.2</ele>
        <time>2021-03-10T07:27:42Z</time>
      </trkpt>
      <trkpt lat="45.09785" lon="6.07295">
        <ele>1870.7</ele>
        <time>2021-03-10T07:27:43Z</time>
      </trkpt>
      <trkpt lat="45.09787" lon="6.07296">
        <ele>1870.7</ele>
        <time>2021-03-10T07:27:44Z</time>
      </trkpt>
      <trkpt lat="45.09788" lon="6.07297">
        <ele>1870.7</ele>
        <time>2021-03-10T07:27:45Z</time>
      </trkpt>
      <trkpt lat="45.0979" lon="6.07298">
        <ele>1870.9</ele>
        <time>2021-03-10T07:27:46Z</time>
      </trkpt>
      <trkpt lat="45.0979" lon="6.07299">
        <ele>1870.9</ele>
        <time>2021-03-10T07:27:47Z</time>
      </trkpt>
      <trkpt lat="45.09791" lon="6.073">
        <ele>1871.2</ele>
        <time>2021-03-10T07:27:48Z</time>
      </trkpt>
      <trkpt lat="45.09792" lon="6.07301">
        <ele>1871.4</ele>
        <time>2021-03-10T07:27:49Z</time>
      </trkpt>
      <trkpt lat="45.09792" lon="6.07302">
        <ele>1871.4</ele>
        <time>2021-03-10T07:27:50Z</time>
      </trkpt>
      <trkpt lat="45.09793" lon="6.07302">
        <ele>1871.4</ele>
        <time>2021-03-10T07:27:51Z</time>
      </trkpt>
      <trkpt lat="45.09794" lon="6.07303">
        <ele>1871.4</ele>
        <time>2021-03-10T07:27:52Z</time>
      </trkpt>
      <trkpt lat="45.09795" lon="6.07304">
        <ele>1872</ele>
        <time>2021-03-10T07:27:53Z</time>
      </trkpt>
      <trkpt lat="45.09796" lon="6.07305">
        <ele>1872</ele>
        <time>2021-03-10T07:27:54Z</time>
      </trkpt>
      <trkpt lat="45.09798" lon="6.07307">
        <ele>1872.2</ele>
        <time>2021-03-10T07:27:55Z</time>
      </trkpt>
      <trkpt lat="45.09799" lon="6.07308">
        <ele>1872.2</ele>
        <time>2021-03-10T07:27:56Z</time>
      </trkpt>
      <trkpt lat="45.09799" lon="6.07309">
        <ele>1872.5</ele>
        <time>2021-03-10T07:27:57Z</time>
      </trkpt>
      <trkpt lat="45.098" lon="6.0731">
        <ele>1872.7</ele>
        <time>2021-03-10T07:27:58Z</time>
      </trkpt>
      <trkpt lat="45.09802" lon="6.07311">
        <ele>1872.7</ele>
        <time>2021-03-10T07:27:59Z</time>
      </trkpt>
      <trkpt lat="45.09803" lon="6.07313">
        <ele>1873</ele>
        <time>2021-03-10T07:28:00Z</time>
      </trkpt>
      <trkpt lat="45.09804" lon="6.07314">
        <ele>1873.2</ele>
        <time>2021-03-10T07:28:01Z</time>
      </trkpt>
      <trkpt lat="45.09804" lon="6.07315">
        <ele>1873.2</ele>
        <time>2021-03-10T07:28:02Z</time>
      </trkpt>
      <trkpt lat="45.09806" lon="6.07317">
        <ele>1873.5</ele>
        <time>2021-03-10T07:28:03Z</time>
      </trkpt>
      <trkpt lat="45.09806" lon="6.07318">
        <ele>1873.7</ele>
        <time>2021-03-10T07:28:04Z</time>
      </trkpt>
      <trkpt lat="45.09807" lon="6.07318">
        <ele>1873.7</ele>
        <time>2021-03-10T07:28:05Z</time>
      </trkpt>
      <trkpt lat="45.09809" lon="6.0732">
        <ele>1873.7</ele>
        <time>2021-03-10T07:28:06Z</time>
      </trkpt>
      <trkpt lat="45.0981" lon="6.0732">
        <ele>1873.9</ele>
        <time>2021-03-10T07:28:07Z</time>
      </trkpt>
      <trkpt lat="45.09811" lon="6.07321">
        <ele>1873.9</ele>
        <time>2021-03-10T07:28:08Z</time>
      </trkpt>
      <trkpt lat="45.09812" lon="6.07321">
        <ele>1874.2</ele>
        <time>2021-03-10T07:28:09Z</time>
      </trkpt>
      <trkpt lat="45.09812" lon="6.07322">
        <ele>1874.2</ele>
        <time>2021-03-10T07:28:10Z</time>
      </trkpt>
      <trkpt lat="45.09813" lon="6.07323">
        <ele>1874.4</ele>
        <time>2021-03-10T07:28:11Z</time>
      </trkpt>
      <trkpt lat="45.09814" lon="6.07324">
        <ele>1874.4</ele>
        <time>2021-03-10T07:28:12Z</time>
      </trkpt>
      <trkpt lat="45.09815" lon="6.07325">
        <ele>1874.6</ele>
        <time>2021-03-10T07:28:13Z</time>
      </trkpt>
      <trkpt lat="45.09816" lon="6.07326">
        <ele>1874.8</ele>
        <time>2021-03-10T07:28:14Z</time>
      </trkpt>
      <trkpt lat="45.09816" lon="6.07327">
        <ele>1874.8</ele>
        <time>2021-03-10T07:28:15Z</time>
      </trkpt>
      <trkpt lat="45.09817" lon="6.07328">
        <ele>1874.8</ele>
        <time>2021-03-10T07:28:16Z</time>
      </trkpt>
      <trkpt lat="45.09818" lon="6.07329">
        <ele>1874.8</ele>
        <time>2021-03-10T07:28:17Z</time>
      </trkpt>
      <trkpt lat="45.09819" lon="6.0733">
        <ele>1875.3</ele>
        <time>2021-03-10T07:28:18Z</time>
      </trkpt>
      <trkpt lat="45.0982" lon="6.0733">
        <ele>1875.3</ele>
        <time>2021-03-10T07:28:19Z</time>
      </trkpt>
      <trkpt lat="45.0982" lon="6.07331">
        <ele>1875.3</ele>
        <time>2021-03-10T07:28:20Z</time>
      </trkpt>
      <trkpt lat="45.09821" lon="6.07332">
        <ele>1875.3</ele>
        <time>2021-03-10T07:28:21Z</time>
      </trkpt>
      <trkpt lat="45.09822" lon="6.07333">
        <ele>1875.5</ele>
        <time>2021-03-10T07:28:22Z</time>
      </trkpt>
      <trkpt lat="45.09823" lon="6.07333">
        <ele>1875.5</ele>
        <time>2021-03-10T07:28:23Z</time>
      </trkpt>
      <trkpt lat="45.09824" lon="6.07334">
        <ele>1875.9</ele>
        <time>2021-03-10T07:28:24Z</time>
      </trkpt>
      <trkpt lat="45.09825" lon="6.07334">
        <ele>1876.1</ele>
        <time>2021-03-10T07:28:25Z</time>
      </trkpt>
      <trkpt lat="45.09826" lon="6.07335">
        <ele>1876.1</ele>
        <time>2021-03-10T07:28:26Z</time>
      </trkpt>
      <trkpt lat="45.09827" lon="6.07336">
        <ele>1876.1</ele>
        <time>2021-03-10T07:28:27Z</time>
      </trkpt>
      <trkpt lat="45.09828" lon="6.07336">
        <ele>1876.4</ele>
        <time>2021-03-10T07:28:28Z</time>
      </trkpt>
      <trkpt lat="45.09829" lon="6.07337">
        <ele>1876.4</ele>
        <time>2021-03-10T07:28:29Z</time>
      </trkpt>
      <trkpt lat="45.0983" lon="6.07337">
        <ele>1876.4</ele>
        <time>2021-03-10T07:28:30Z</time>
      </trkpt>
      <trkpt lat="45.09831" lon="6.07338">
        <ele>1876.7</ele>
        <time>2021-03-10T07:28:31Z</time>
      </trkpt>
      <trkpt lat="45.09832" lon="6.07339">
        <ele>1877.1</ele>
        <time>2021-03-10T07:28:32Z</time>
      </trkpt>
      <trkpt lat="45.09832" lon="6.07339">
        <ele>1877.1</ele>
        <time>2021-03-10T07:28:33Z</time>
      </trkpt>
      <trkpt lat="45.09833" lon="6.0734">
        <ele>1877.1</ele>
        <time>2021-03-10T07:28:34Z</time>
      </trkpt>
      <trkpt lat="45.09834" lon="6.07341">
        <ele>1877.4</ele>
        <time>2021-03-10T07:28:35Z</time>
      </trkpt>
      <trkpt lat="45.09835" lon="6.07342">
        <ele>1877.4</ele>
        <time>2021-03-10T07:28:36Z</time>
      </trkpt>
      <trkpt lat="45.09836" lon="6.07343">
        <ele>1877.8</ele>
        <time>2021-03-10T07:28:37Z</time>
      </trkpt>
      <trkpt lat="45.09837" lon="6.07344">
        <ele>1878.1</ele>
        <time>2021-03-10T07:28:38Z</time>
      </trkpt>
      <trkpt lat="45.09838" lon="6.07346">
        <ele>1878.1</ele>
        <time>2021-03-10T07:28:39Z</time>
      </trkpt>
      <trkpt lat="45.0984" lon="6.07348">
        <ele>1878.9</ele>
        <time>2021-03-10T07:28:40Z</time>
      </trkpt>
      <trkpt lat="45.09841" lon="6.07348">
        <ele>1878.9</ele>
        <time>2021-03-10T07:28:41Z</time>
      </trkpt>
      <trkpt lat="45.09842" lon="6.07349">
        <ele>1878.9</ele>
        <time>2021-03-10T07:28:42Z</time>
      </trkpt>
      <trkpt lat="45.09843" lon="6.07349">
        <ele>1878.9</ele>
        <time>2021-03-10T07:28:43Z</time>
      </trkpt>
      <trkpt lat="45.09844" lon="6.0735">
        <ele>1879.2</ele>
        <time>2021-03-10T07:28:44Z</time>
      </trkpt>
      <trkpt lat="45.09844" lon="6.0735">
        <ele>1879.2</ele>
        <time>2021-03-10T07:28:45Z</time>
      </trkpt>
      <trkpt lat="45.09845" lon="6.07351">
        <ele>1879.5</ele>
        <time>2021-03-10T07:28:46Z</time>
      </trkpt>
      <trkpt lat="45.09846" lon="6.07352">
        <ele>1879.5</ele>
        <time>2021-03-10T07:28:47Z</time>
      </trkpt>
      <trkpt lat="45.09847" lon="6.07353">
        <ele>1879.9</ele>
        <time>2021-03-10T07:28:48Z</time>
      </trkpt>
      <trkpt lat="45.09847" lon="6.07353">
        <ele>1879.9</ele>
        <time>2021-03-10T07:28:49Z</time>
      </trkpt>
      <trkpt lat="45.09848" lon="6.07354">
        <ele>1879.9</ele>
        <time>2021-03-10T07:28:50Z</time>
      </trkpt>
      <trkpt lat="45.09848" lon="6.07355">
        <ele>1879.9</ele>
        <time>2021-03-10T07:28:51Z</time>
      </trkpt>
      <trkpt lat="45.09849" lon="6.07356">
        <ele>1880.5</ele>
        <time>2021-03-10T07:28:52Z</time>
      </trkpt>
      <trkpt lat="45.09849" lon="6.07357">
        <ele>1880.5</ele>
        <time>2021-03-10T07:28:53Z</time>
      </trkpt>
      <trkpt lat="45.0985" lon="6.07358">
        <ele>1880.5</ele>
        <time>2021-03-10T07:28:54Z</time>
      </trkpt>
      <trkpt lat="45.09851" lon="6.07359">
        <ele>1880.5</ele>
        <time>2021-03-10T07:28:55Z</time>
      </trkpt>
      <trkpt lat="45.09852" lon="6.0736">
        <ele>1880.8</ele>
        <time>2021-03-10T07:28:56Z</time>
      </trkpt>
      <trkpt lat="45.09853" lon="6.07362">
        <ele>1881.1</ele>
        <time>2021-03-10T07:28:57Z</time>
      </trkpt>
      <trkpt lat="45.09853" lon="6.07362">
        <ele>1881.1</ele>
        <time>2021-03-10T07:28:58Z</time>
      </trkpt>
      <trkpt lat="45.09854" lon="6.07363">
        <ele>1881.1</ele>
        <time>2021-03-10T07:28:59Z</time>
      </trkpt>
      <trkpt lat="45.09854" lon="6.07364">
        <ele>1881.4</ele>
        <time>2021-03-10T07:29:00Z</time>
      </trkpt>
      <trkpt lat="45.09855" lon="6.07365">
        <ele>1881.7</ele>
        <time>2021-03-10T07:29:01Z</time>
      </trkpt>
      <trkpt lat="45.09856" lon="6.07366">
        <ele>1881.7</ele>
        <time>2021-03-10T07:29:02Z</time>
      </trkpt>
      <trkpt lat="45.09857" lon="6.07367">
        <ele>1881.7</ele>
        <time>2021-03-10T07:29:03Z</time>
      </trkpt>
      <trkpt lat="45.09858" lon="6.07368">
        <ele>1882.1</ele>
        <time>2021-03-10T07:29:04Z</time>
      </trkpt>
      <trkpt lat="45.09859" lon="6.07368">
        <ele>1882.3</ele>
        <time>2021-03-10T07:29:05Z</time>
      </trkpt>
      <trkpt lat="45.0986" lon="6.07369">
        <ele>1882.3</ele>
        <time>2021-03-10T07:29:06Z</time>
      </trkpt>
      <trkpt lat="45.09861" lon="6.0737">
        <ele>1882.3</ele>
        <time>2021-03-10T07:29:07Z</time>
      </trkpt>
      <trkpt lat="45.09862" lon="6.0737">
        <ele>1882.6</ele>
        <time>2021-03-10T07:29:08Z</time>
      </trkpt>
      <trkpt lat="45.09863" lon="6.07371">
        <ele>1882.6</ele>
        <time>2021-03-10T07:29:09Z</time>
      </trkpt>
      <trkpt lat="45.09863" lon="6.07372">
        <ele>1882.6</ele>
        <time>2021-03-10T07:29:10Z</time>
      </trkpt>
      <trkpt lat="45.09864" lon="6.07373">
        <ele>1883.2</ele>
        <time>2021-03-10T07:29:11Z</time>
      </trkpt>
      <trkpt lat="45.09865" lon="6.07373">
        <ele>1883.2</ele>
        <time>2021-03-10T07:29:12Z</time>
      </trkpt>
      <trkpt lat="45.09866" lon="6.07374">
        <ele>1883.2</ele>
        <time>2021-03-10T07:29:13Z</time>
      </trkpt>
      <trkpt lat="45.09867" lon="6.07375">
        <ele>1883.2</ele>
        <time>2021-03-10T07:29:14Z</time>
      </trkpt>
      <trkpt lat="45.09867" lon="6.07376">
        <ele>1883.5</ele>
        <time>2021-03-10T07:29:15Z</time>
      </trkpt>
      <trkpt lat="45.09868" lon="6.07376">
        <ele>1883.5</ele>
        <time>2021-03-10T07:29:16Z</time>
      </trkpt>
      <trkpt lat="45.0987" lon="6.07377">
        <ele>1883.7</ele>
        <time>2021-03-10T07:29:17Z</time>
      </trkpt>
      <trkpt lat="45.09871" lon="6.07378">
        <ele>1884</ele>
        <time>2021-03-10T07:29:18Z</time>
      </trkpt>
      <trkpt lat="45.09872" lon="6.07378">
        <ele>1884</ele>
        <time>2021-03-10T07:29:19Z</time>
      </trkpt>
      <trkpt lat="45.09872" lon="6.07379">
        <ele>1884</ele>
        <time>2021-03-10T07:29:20Z</time>
      </trkpt>
      <trkpt lat="45.09873" lon="6.0738">
        <ele>1884.2</ele>
        <time>2021-03-10T07:29:21Z</time>
      </trkpt>
      <trkpt lat="45.09874" lon="6.07381">
        <ele>1884.2</ele>
        <time>2021-03-10T07:29:22Z</time>
      </trkpt>
      <trkpt lat="45.09875" lon="6.07382">
        <ele>1884.5</ele>
        <time>2021-03-10T07:29:23Z</time>
      </trkpt>
      <trkpt lat="45.09876" lon="6.07383">
        <ele>1884.5</ele>
        <time>2021-03-10T07:29:24Z</time>
      </trkpt>
      <trkpt lat="45.09876" lon="6.07384">
        <ele>1884.5</ele>
        <time>2021-03-10T07:29:25Z</time>
      </trkpt>
      <trkpt lat="45.09877" lon="6.07384">
        <ele>1884.7</ele>
        <time>2021-03-10T07:29:26Z</time>
      </trkpt>
      <trkpt lat="45.09877" lon="6.07385">
        <ele>1884.7</ele>
        <time>2021-03-10T07:29:27Z</time>
      </trkpt>
      <trkpt lat="45.09878" lon="6.07385">
        <ele>1885</ele>
        <time>2021-03-10T07:29:28Z</time>
      </trkpt>
      <trkpt lat="45.09878" lon="6.07386">
        <ele>1885</ele>
        <time>2021-03-10T07:29:29Z</time>
      </trkpt>
      <trkpt lat="45.09879" lon="6.07387">
        <ele>1885.2</ele>
        <time>2021-03-10T07:29:30Z</time>
      </trkpt>
      <trkpt lat="45.0988" lon="6.07388">
        <ele>1885.2</ele>
        <time>2021-03-10T07:29:31Z</time>
      </trkpt>
      <trkpt lat="45.09881" lon="6.07389">
        <ele>1885.2</ele>
        <time>2021-03-10T07:29:32Z</time>
      </trkpt>
      <trkpt lat="45.09882" lon="6.07389">
        <ele>1885.2</ele>
        <time>2021-03-10T07:29:33Z</time>
      </trkpt>
      <trkpt lat="45.09882" lon="6.0739">
        <ele>1885.7</ele>
        <time>2021-03-10T07:29:34Z</time>
      </trkpt>
      <trkpt lat="45.09883" lon="6.07391">
        <ele>1885.7</ele>
        <time>2021-03-10T07:29:35Z</time>
      </trkpt>
      <trkpt lat="45.09884" lon="6.07392">
        <ele>1885.7</ele>
        <time>2021-03-10T07:29:36Z</time>
      </trkpt>
      <trkpt lat="45.09885" lon="6.07392">
        <ele>1885.7</ele>
        <time>2021-03-10T07:29:37Z</time>
      </trkpt>
      <trkpt lat="45.09885" lon="6.07393">
        <ele>1885.8</ele>
        <time>2021-03-10T07:29:38Z</time>
      </trkpt>
      <trkpt lat="45.09886" lon="6.07394">
        <ele>1886.2</ele>
        <time>2021-03-10T07:29:39Z</time>
      </trkpt>
      <trkpt lat="45.09887" lon="6.07395">
        <ele>1886.2</ele>
        <time>2021-03-10T07:29:40Z</time>
      </trkpt>
      <trkpt lat="45.09887" lon="6.07396">
        <ele>1886.2</ele>
        <time>2021-03-10T07:29:41Z</time>
      </trkpt>
      <trkpt lat="45.09887" lon="6.07397">
        <ele>1886.2</ele>
        <time>2021-03-10T07:29:42Z</time>
      </trkpt>
      <trkpt lat="45.09888" lon="6.07398">
        <ele>1886.5</ele>
        <time>2021-03-10T07:29:43Z</time>
      </trkpt>
      <trkpt lat="45.09889" lon="6.07399">
        <ele>1886.6</ele>
        <time>2021-03-10T07:29:44Z</time>
      </trkpt>
      <trkpt lat="45.0989" lon="6.074">
        <ele>1886.6</ele>
        <time>2021-03-10T07:29:45Z</time>
      </trkpt>
      <trkpt lat="45.09891" lon="6.074">
        <ele>1886.6</ele>
        <time>2021-03-10T07:29:46Z</time>
      </trkpt>
      <trkpt lat="45.09892" lon="6.074">
        <ele>1886.8</ele>
        <time>2021-03-10T07:29:47Z</time>
      </trkpt>
      <trkpt lat="45.09893" lon="6.07401">
        <ele>1886.8</ele>
        <time>2021-03-10T07:29:48Z</time>
      </trkpt>
      <trkpt lat="45.09894" lon="6.07402">
        <ele>1887</ele>
        <time>2021-03-10T07:29:49Z</time>
      </trkpt>
      <trkpt lat="45.09895" lon="6.07402">
        <ele>1887</ele>
        <time>2021-03-10T07:29:50Z</time>
      </trkpt>
      <trkpt lat="45.09896" lon="6.07402">
        <ele>1887.2</ele>
        <time>2021-03-10T07:29:51Z</time>
      </trkpt>
      <trkpt lat="45.09897" lon="6.07403">
        <ele>1887.2</ele>
        <time>2021-03-10T07:29:52Z</time>
      </trkpt>
      <trkpt lat="45.09898" lon="6.07403">
        <ele>1887.4</ele>
        <time>2021-03-10T07:29:53Z</time>
      </trkpt>
      <trkpt lat="45.09899" lon="6.07404">
        <ele>1887.4</ele>
        <time>2021-03-10T07:29:54Z</time>
      </trkpt>
      <trkpt lat="45.09899" lon="6.07404">
        <ele>1887.4</ele>
        <time>2021-03-10T07:29:55Z</time>
      </trkpt>
      <trkpt lat="45.09901" lon="6.07406">
        <ele>1887.5</ele>
        <time>2021-03-10T07:29:56Z</time>
      </trkpt>
      <trkpt lat="45.09902" lon="6.07407">
        <ele>1887.5</ele>
        <time>2021-03-10T07:29:57Z</time>
      </trkpt>
      <trkpt lat="45.09903" lon="6.07407">
        <ele>1887.8</ele>
        <time>2021-03-10T07:29:58Z</time>
      </trkpt>
      <trkpt lat="45.09903" lon="6.07408">
        <ele>1887.8</ele>
        <time>2021-03-10T07:29:59Z</time>
      </trkpt>
      <trkpt lat="45.09904" lon="6.0741">
        <ele>1887.9</ele>
        <time>2021-03-10T07:30:00Z</time>
      </trkpt>
      <trkpt lat="45.09905" lon="6.0741">
        <ele>1887.9</ele>
        <time>2021-03-10T07:30:01Z</time>
      </trkpt>
      <trkpt lat="45.09907" lon="6.07412">
        <ele>1888.3</ele>
        <time>2021-03-10T07:30:02Z</time>
      </trkpt>
      <trkpt lat="45.09908" lon="6.07412">
        <ele>1888.3</ele>
        <time>2021-03-10T07:30:03Z</time>
      </trkpt>
      <trkpt lat="45.09909" lon="6.07413">
        <ele>1888.3</ele>
        <time>2021-03-10T07:30:04Z</time>
      </trkpt>
      <trkpt lat="45.09909" lon="6.07414">
        <ele>1888.5</ele>
        <time>2021-03-10T07:30:05Z</time>
      </trkpt>
      <trkpt lat="45.0991" lon="6.07415">
        <ele>1888.5</ele>
        <time>2021-03-10T07:30:06Z</time>
      </trkpt>
      <trkpt lat="45.09911" lon="6.07415">
        <ele>1888.7</ele>
        <time>2021-03-10T07:30:07Z</time>
      </trkpt>
      <trkpt lat="45.09911" lon="6.07416">
        <ele>1888.7</ele>
        <time>2021-03-10T07:30:08Z</time>
      </trkpt>
      <trkpt lat="45.09912" lon="6.07417">
        <ele>1888.7</ele>
        <time>2021-03-10T07:30:09Z</time>
      </trkpt>
      <trkpt lat="45.09913" lon="6.07418">
        <ele>1888.9</ele>
        <time>2021-03-10T07:30:10Z</time>
      </trkpt>
      <trkpt lat="45.09913" lon="6.07419">
        <ele>1888.9</ele>
        <time>2021-03-10T07:30:11Z</time>
      </trkpt>
      <trkpt lat="45.09914" lon="6.0742">
        <ele>1889.1</ele>
        <time>2021-03-10T07:30:12Z</time>
      </trkpt>
      <trkpt lat="45.09914" lon="6.07421">
        <ele>1889.1</ele>
        <time>2021-03-10T07:30:13Z</time>
      </trkpt>
      <trkpt lat="45.09915" lon="6.07422">
        <ele>1889.1</ele>
        <time>2021-03-10T07:30:14Z</time>
      </trkpt>
      <trkpt lat="45.09915" lon="6.07423">
        <ele>1889.1</ele>
        <time>2021-03-10T07:30:15Z</time>
      </trkpt>
      <trkpt lat="45.09916" lon="6.07424">
        <ele>1889.5</ele>
        <time>2021-03-10T07:30:16Z</time>
      </trkpt>
      <trkpt lat="45.09917" lon="6.07425">
        <ele>1889.5</ele>
        <time>2021-03-10T07:30:17Z</time>
      </trkpt>
      <trkpt lat="45.09918" lon="6.07426">
        <ele>1889.5</ele>
        <time>2021-03-10T07:30:18Z</time>
      </trkpt>
      <trkpt lat="45.09919" lon="6.07427">
        <ele>1889.7</ele>
        <time>2021-03-10T07:30:19Z</time>
      </trkpt>
      <trkpt lat="45.0992" lon="6.07428">
        <ele>1889.7</ele>
        <time>2021-03-10T07:30:20Z</time>
      </trkpt>
      <trkpt lat="45.09921" lon="6.07428">
        <ele>1890</ele>
        <time>2021-03-10T07:30:21Z</time>
      </trkpt>
      <trkpt lat="45.09921" lon="6.07429">
        <ele>1890</ele>
        <time>2021-03-10T07:30:22Z</time>
      </trkpt>
      <trkpt lat="45.09922" lon="6.0743">
        <ele>1890.2</ele>
        <time>2021-03-10T07:30:23Z</time>
      </trkpt>
      <trkpt lat="45.09923" lon="6.0743">
        <ele>1890.2</ele>
        <time>2021-03-10T07:30:24Z</time>
      </trkpt>
      <trkpt lat="45.09924" lon="6.07431">
        <ele>1890.2</ele>
        <time>2021-03-10T07:30:25Z</time>
      </trkpt>
      <trkpt lat="45.09924" lon="6.07432">
        <ele>1890.2</ele>
        <time>2021-03-10T07:30:26Z</time>
      </trkpt>
      <trkpt lat="45.09925" lon="6.07433">
        <ele>1890.8</ele>
        <time>2021-03-10T07:30:27Z</time>
      </trkpt>
      <trkpt lat="45.09925" lon="6.07434">
        <ele>1890.8</ele>
        <time>2021-03-10T07:30:28Z</time>
      </trkpt>
      <trkpt lat="45.09926" lon="6.07435">
        <ele>1890.8</ele>
        <time>2021-03-10T07:30:29Z</time>
      </trkpt>
      <trkpt lat="45.09926" lon="6.07436">
        <ele>1890.8</ele>
        <time>2021-03-10T07:30:30Z</time>
      </trkpt>
      <trkpt lat="45.09927" lon="6.07436">
        <ele>1890.8</ele>
        <time>2021-03-10T07:30:31Z</time>
      </trkpt>
      <trkpt lat="45.09928" lon="6.07437">
        <ele>1891.5</ele>
        <time>2021-03-10T07:30:32Z</time>
      </trkpt>
      <trkpt lat="45.09928" lon="6.07438">
        <ele>1891.5</ele>
        <time>2021-03-10T07:30:33Z</time>
      </trkpt>
      <trkpt lat="45.09929" lon="6.07439">
        <ele>1891.5</ele>
        <time>2021-03-10T07:30:34Z</time>
      </trkpt>
      <trkpt lat="45.0993" lon="6.0744">
        <ele>1891.5</ele>
        <time>2021-03-10T07:30:35Z</time>
      </trkpt>
      <trkpt lat="45.09931" lon="6.07441">
        <ele>1891.5</ele>
        <time>2021-03-10T07:30:36Z</time>
      </trkpt>
      <trkpt lat="45.09931" lon="6.07442">
        <ele>1892.2</ele>
        <time>2021-03-10T07:30:37Z</time>
      </trkpt>
      <trkpt lat="45.09932" lon="6.07443">
        <ele>1892.2</ele>
        <time>2021-03-10T07:30:38Z</time>
      </trkpt>
      <trkpt lat="45.09933" lon="6.07443">
        <ele>1892.2</ele>
        <time>2021-03-10T07:30:39Z</time>
      </trkpt>
      <trkpt lat="45.09934" lon="6.07444">
        <ele>1892.5</ele>
        <time>2021-03-10T07:30:40Z</time>
      </trkpt>
      <trkpt lat="45.09935" lon="6.07444">
        <ele>1892.5</ele>
        <time>2021-03-10T07:30:41Z</time>
      </trkpt>
      <trkpt lat="45.09935" lon="6.07445">
        <ele>1892.5</ele>
        <time>2021-03-10T07:30:42Z</time>
      </trkpt>
      <trkpt lat="45.09936" lon="6.07446">
        <ele>1893</ele>
        <time>2021-03-10T07:30:43Z</time>
      </trkpt>
      <trkpt lat="45.09937" lon="6.07447">
        <ele>1893</ele>
        <time>2021-03-10T07:30:44Z</time>
      </trkpt>
      <trkpt lat="45.09937" lon="6.07448">
        <ele>1893.4</ele>
        <time>2021-03-10T07:30:45Z</time>
      </trkpt>
      <trkpt lat="45.09938" lon="6.07449">
        <ele>1893.4</ele>
        <time>2021-03-10T07:30:46Z</time>
      </trkpt>
      <trkpt lat="45.09939" lon="6.07449">
        <ele>1893.4</ele>
        <time>2021-03-10T07:30:47Z</time>
      </trkpt>
      <trkpt lat="45.0994" lon="6.0745">
        <ele>1894.3</ele>
        <time>2021-03-10T07:30:48Z</time>
      </trkpt>
      <trkpt lat="45.0994" lon="6.07451">
        <ele>1894.3</ele>
        <time>2021-03-10T07:30:49Z</time>
      </trkpt>
      <trkpt lat="45.09941" lon="6.07452">
        <ele>1894.3</ele>
        <time>2021-03-10T07:30:50Z</time>
      </trkpt>
      <trkpt lat="45.09941" lon="6.07454">
        <ele>1894.3</ele>
        <time>2021-03-10T07:30:51Z</time>
      </trkpt>
      <trkpt lat="45.09941" lon="6.07456">
        <ele>1894.8</ele>
        <time>2021-03-10T07:30:52Z</time>
      </trkpt>
      <trkpt lat="45.09941" lon="6.07457">
        <ele>1894.8</ele>
        <time>2021-03-10T07:30:53Z</time>
      </trkpt>
      <trkpt lat="45.09941" lon="6.07458">
        <ele>1894.8</ele>
        <time>2021-03-10T07:30:54Z</time>
      </trkpt>
      <trkpt lat="45.0994" lon="6.07459">
        <ele>1895.4</ele>
        <time>2021-03-10T07:30:55Z</time>
      </trkpt>
      <trkpt lat="45.0994" lon="6.0746">
        <ele>1895.4</ele>
        <time>2021-03-10T07:30:56Z</time>
      </trkpt>
      <trkpt lat="45.09939" lon="6.07461">
        <ele>1895</ele>
        <time>2021-03-10T07:30:57Z</time>
      </trkpt>
      <trkpt lat="45.09939" lon="6.07462">
        <ele>1895</ele>
        <time>2021-03-10T07:30:58Z</time>
      </trkpt>
      <trkpt lat="45.09939" lon="6.07463">
        <ele>1895.6</ele>
        <time>2021-03-10T07:30:59Z</time>
      </trkpt>
      <trkpt lat="45.09939" lon="6.07464">
        <ele>1895.6</ele>
        <time>2021-03-10T07:31:00Z</time>
      </trkpt>
      <trkpt lat="45.09938" lon="6.07465">
        <ele>1895.6</ele>
        <time>2021-03-10T07:31:01Z</time>
      </trkpt>
      <trkpt lat="45.09938" lon="6.07466">
        <ele>1895.6</ele>
        <time>2021-03-10T07:31:02Z</time>
      </trkpt>
      <trkpt lat="45.09938" lon="6.07467">
        <ele>1896.2</ele>
        <time>2021-03-10T07:31:03Z</time>
      </trkpt>
      <trkpt lat="45.09937" lon="6.07469">
        <ele>1896.2</ele>
        <time>2021-03-10T07:31:04Z</time>
      </trkpt>
      <trkpt lat="45.09937" lon="6.0747">
        <ele>1896.2</ele>
        <time>2021-03-10T07:31:05Z</time>
      </trkpt>
      <trkpt lat="45.09937" lon="6.07471">
        <ele>1896.8</ele>
        <time>2021-03-10T07:31:06Z</time>
      </trkpt>
      <trkpt lat="45.09937" lon="6.07472">
        <ele>1896.8</ele>
        <time>2021-03-10T07:31:07Z</time>
      </trkpt>
      <trkpt lat="45.09937" lon="6.07473">
        <ele>1896.8</ele>
        <time>2021-03-10T07:31:08Z</time>
      </trkpt>
      <trkpt lat="45.09937" lon="6.07475">
        <ele>1896.4</ele>
        <time>2021-03-10T07:31:09Z</time>
      </trkpt>
      <trkpt lat="45.09936" lon="6.07475">
        <ele>1897.1</ele>
        <time>2021-03-10T07:31:10Z</time>
      </trkpt>
      <trkpt lat="45.09936" lon="6.07477">
        <ele>1897.1</ele>
        <time>2021-03-10T07:31:11Z</time>
      </trkpt>
      <trkpt lat="45.09936" lon="6.07478">
        <ele>1897.1</ele>
        <time>2021-03-10T07:31:12Z</time>
      </trkpt>
      <trkpt lat="45.09936" lon="6.07479">
        <ele>1897.1</ele>
        <time>2021-03-10T07:31:13Z</time>
      </trkpt>
      <trkpt lat="45.09936" lon="6.0748">
        <ele>1897.7</ele>
        <time>2021-03-10T07:31:14Z</time>
      </trkpt>
      <trkpt lat="45.09936" lon="6.07482">
        <ele>1897.7</ele>
        <time>2021-03-10T07:31:15Z</time>
      </trkpt>
      <trkpt lat="45.09936" lon="6.07483">
        <ele>1897.7</ele>
        <time>2021-03-10T07:31:16Z</time>
      </trkpt>
      <trkpt lat="45.09937" lon="6.07484">
        <ele>1897.7</ele>
        <time>2021-03-10T07:31:17Z</time>
      </trkpt>
      <trkpt lat="45.09937" lon="6.07485">
        <ele>1898.7</ele>
        <time>2021-03-10T07:31:18Z</time>
      </trkpt>
      <trkpt lat="45.09937" lon="6.07486">
        <ele>1898.7</ele>
        <time>2021-03-10T07:31:19Z</time>
      </trkpt>
      <trkpt lat="45.09938" lon="6.07488">
        <ele>1898.7</ele>
        <time>2021-03-10T07:31:20Z</time>
      </trkpt>
      <trkpt lat="45.09939" lon="6.07489">
        <ele>1899.3</ele>
        <time>2021-03-10T07:31:21Z</time>
      </trkpt>
      <trkpt lat="45.09939" lon="6.0749">
        <ele>1899.3</ele>
        <time>2021-03-10T07:31:22Z</time>
      </trkpt>
      <trkpt lat="45.0994" lon="6.07491">
        <ele>1899.6</ele>
        <time>2021-03-10T07:31:23Z</time>
      </trkpt>
      <trkpt lat="45.09941" lon="6.07492">
        <ele>1899.6</ele>
        <time>2021-03-10T07:31:24Z</time>
      </trkpt>
      <trkpt lat="45.09941" lon="6.07493">
        <ele>1900.2</ele>
        <time>2021-03-10T07:31:25Z</time>
      </trkpt>
      <trkpt lat="45.09942" lon="6.07494">
        <ele>1900.2</ele>
        <time>2021-03-10T07:31:26Z</time>
      </trkpt>
      <trkpt lat="45.09942" lon="6.07495">
        <ele>1900.2</ele>
        <time>2021-03-10T07:31:27Z</time>
      </trkpt>
      <trkpt lat="45.09943" lon="6.07497">
        <ele>1900.2</ele>
        <time>2021-03-10T07:31:28Z</time>
      </trkpt>
      <trkpt lat="45.09943" lon="6.07497">
        <ele>1901.1</ele>
        <time>2021-03-10T07:31:29Z</time>
      </trkpt>
      <trkpt lat="45.09944" lon="6.07498">
        <ele>1901.1</ele>
        <time>2021-03-10T07:31:30Z</time>
      </trkpt>
      <trkpt lat="45.09944" lon="6.075">
        <ele>1901.1</ele>
        <time>2021-03-10T07:31:31Z</time>
      </trkpt>
      <trkpt lat="45.09945" lon="6.07501">
        <ele>1901.1</ele>
        <time>2021-03-10T07:31:32Z</time>
      </trkpt>
      <trkpt lat="45.09946" lon="6.07502">
        <ele>1901.6</ele>
        <time>2021-03-10T07:31:33Z</time>
      </trkpt>
      <trkpt lat="45.09946" lon="6.07503">
        <ele>1902</ele>
        <time>2021-03-10T07:31:34Z</time>
      </trkpt>
      <trkpt lat="45.09947" lon="6.07503">
        <ele>1902</ele>
        <time>2021-03-10T07:31:35Z</time>
      </trkpt>
      <trkpt lat="45.09948" lon="6.07504">
        <ele>1902</ele>
        <time>2021-03-10T07:31:36Z</time>
      </trkpt>
      <trkpt lat="45.09949" lon="6.07505">
        <ele>1902</ele>
        <time>2021-03-10T07:31:37Z</time>
      </trkpt>
      <trkpt lat="45.09949" lon="6.07506">
        <ele>1902.8</ele>
        <time>2021-03-10T07:31:38Z</time>
      </trkpt>
      <trkpt lat="45.0995" lon="6.07507">
        <ele>1902.8</ele>
        <time>2021-03-10T07:31:39Z</time>
      </trkpt>
      <trkpt lat="45.0995" lon="6.07508">
        <ele>1902.8</ele>
        <time>2021-03-10T07:31:40Z</time>
      </trkpt>
      <trkpt lat="45.09951" lon="6.07509">
        <ele>1902.8</ele>
        <time>2021-03-10T07:31:41Z</time>
      </trkpt>
      <trkpt lat="45.09952" lon="6.0751">
        <ele>1903.3</ele>
        <time>2021-03-10T07:31:42Z</time>
      </trkpt>
      <trkpt lat="45.09952" lon="6.0751">
        <ele>1903.6</ele>
        <time>2021-03-10T07:31:43Z</time>
      </trkpt>
      <trkpt lat="45.09953" lon="6.07511">
        <ele>1903.6</ele>
        <time>2021-03-10T07:31:44Z</time>
      </trkpt>
      <trkpt lat="45.09954" lon="6.07511">
        <ele>1903.6</ele>
        <time>2021-03-10T07:31:45Z</time>
      </trkpt>
      <trkpt lat="45.09955" lon="6.07512">
        <ele>1903.6</ele>
        <time>2021-03-10T07:31:46Z</time>
      </trkpt>
      <trkpt lat="45.09956" lon="6.07512">
        <ele>1904</ele>
        <time>2021-03-10T07:31:47Z</time>
      </trkpt>
      <trkpt lat="45.09957" lon="6.07513">
        <ele>1904</ele>
        <time>2021-03-10T07:31:48Z</time>
      </trkpt>
      <trkpt lat="45.09958" lon="6.07513">
        <ele>1904</ele>
        <time>2021-03-10T07:31:49Z</time>
      </trkpt>
      <trkpt lat="45.09959" lon="6.07514">
        <ele>1904.3</ele>
        <time>2021-03-10T07:31:50Z</time>
      </trkpt>
      <trkpt lat="45.0996" lon="6.07514">
        <ele>1904.8</ele>
        <time>2021-03-10T07:31:51Z</time>
      </trkpt>
      <trkpt lat="45.09961" lon="6.07515">
        <ele>1904.8</ele>
        <time>2021-03-10T07:31:52Z</time>
      </trkpt>
      <trkpt lat="45.09961" lon="6.07516">
        <ele>1905.1</ele>
        <time>2021-03-10T07:31:53Z</time>
      </trkpt>
      <trkpt lat="45.09962" lon="6.07516">
        <ele>1905.1</ele>
        <time>2021-03-10T07:31:54Z</time>
      </trkpt>
      <trkpt lat="45.09963" lon="6.07517">
        <ele>1905.1</ele>
        <time>2021-03-10T07:31:55Z</time>
      </trkpt>
      <trkpt lat="45.09963" lon="6.07518">
        <ele>1905.7</ele>
        <time>2021-03-10T07:31:56Z</time>
      </trkpt>
      <trkpt lat="45.09963" lon="6.0752">
        <ele>1905.7</ele>
        <time>2021-03-10T07:31:57Z</time>
      </trkpt>
      <trkpt lat="45.09963" lon="6.07521">
        <ele>1905.7</ele>
        <time>2021-03-10T07:31:58Z</time>
      </trkpt>
      <trkpt lat="45.09963" lon="6.07522">
        <ele>1905.7</ele>
        <time>2021-03-10T07:31:59Z</time>
      </trkpt>
      <trkpt lat="45.09963" lon="6.07523">
        <ele>1906.3</ele>
        <time>2021-03-10T07:32:00Z</time>
      </trkpt>
      <trkpt lat="45.09964" lon="6.07524">
        <ele>1906.3</ele>
        <time>2021-03-10T07:32:01Z</time>
      </trkpt>
      <trkpt lat="45.09964" lon="6.07525">
        <ele>1906.7</ele>
        <time>2021-03-10T07:32:02Z</time>
      </trkpt>
      <trkpt lat="45.09964" lon="6.07526">
        <ele>1906.7</ele>
        <time>2021-03-10T07:32:03Z</time>
      </trkpt>
      <trkpt lat="45.09965" lon="6.07528">
        <ele>1907.3</ele>
        <time>2021-03-10T07:32:04Z</time>
      </trkpt>
      <trkpt lat="45.09965" lon="6.07529">
        <ele>1907.3</ele>
        <time>2021-03-10T07:32:05Z</time>
      </trkpt>
      <trkpt lat="45.09965" lon="6.0753">
        <ele>1907.3</ele>
        <time>2021-03-10T07:32:06Z</time>
      </trkpt>
      <trkpt lat="45.09965" lon="6.07531">
        <ele>1907.3</ele>
        <time>2021-03-10T07:32:07Z</time>
      </trkpt>
      <trkpt lat="45.09965" lon="6.07532">
        <ele>1908</ele>
        <time>2021-03-10T07:32:08Z</time>
      </trkpt>
      <trkpt lat="45.09965" lon="6.07533">
        <ele>1908</ele>
        <time>2021-03-10T07:32:09Z</time>
      </trkpt>
      <trkpt lat="45.09965" lon="6.07534">
        <ele>1908</ele>
        <time>2021-03-10T07:32:10Z</time>
      </trkpt>
      <trkpt lat="45.09965" lon="6.07535">
        <ele>1908</ele>
        <time>2021-03-10T07:32:11Z</time>
      </trkpt>
      <trkpt lat="45.09965" lon="6.07536">
        <ele>1908.7</ele>
        <time>2021-03-10T07:32:12Z</time>
      </trkpt>
      <trkpt lat="45.09965" lon="6.07537">
        <ele>1908.7</ele>
        <time>2021-03-10T07:32:13Z</time>
      </trkpt>
      <trkpt lat="45.09965" lon="6.07538">
        <ele>1908.7</ele>
        <time>2021-03-10T07:32:14Z</time>
      </trkpt>
      <trkpt lat="45.09965" lon="6.07539">
        <ele>1908.7</ele>
        <time>2021-03-10T07:32:15Z</time>
      </trkpt>
      <trkpt lat="45.09965" lon="6.0754">
        <ele>1909.4</ele>
        <time>2021-03-10T07:32:16Z</time>
      </trkpt>
      <trkpt lat="45.09965" lon="6.07541">
        <ele>1909.4</ele>
        <time>2021-03-10T07:32:17Z</time>
      </trkpt>
      <trkpt lat="45.09965" lon="6.07542">
        <ele>1909.4</ele>
        <time>2021-03-10T07:32:18Z</time>
      </trkpt>
      <trkpt lat="45.09965" lon="6.07544">
        <ele>1910.4</ele>
        <time>2021-03-10T07:32:19Z</time>
      </trkpt>
      <trkpt lat="45.09964" lon="6.07546">
        <ele>1910.4</ele>
        <time>2021-03-10T07:32:20Z</time>
      </trkpt>
      <trkpt lat="45.09964" lon="6.07547">
        <ele>1910.4</ele>
        <time>2021-03-10T07:32:21Z</time>
      </trkpt>
      <trkpt lat="45.09964" lon="6.07549">
        <ele>1911</ele>
        <time>2021-03-10T07:32:22Z</time>
      </trkpt>
      <trkpt lat="45.09964" lon="6.0755">
        <ele>1910.7</ele>
        <time>2021-03-10T07:32:23Z</time>
      </trkpt>
      <trkpt lat="45.09964" lon="6.07551">
        <ele>1910.7</ele>
        <time>2021-03-10T07:32:24Z</time>
      </trkpt>
      <trkpt lat="45.09964" lon="6.07553">
        <ele>1910.7</ele>
        <time>2021-03-10T07:32:25Z</time>
      </trkpt>
      <trkpt lat="45.09964" lon="6.07554">
        <ele>1911.3</ele>
        <time>2021-03-10T07:32:26Z</time>
      </trkpt>
      <trkpt lat="45.09964" lon="6.07556">
        <ele>1911.3</ele>
        <time>2021-03-10T07:32:27Z</time>
      </trkpt>
      <trkpt lat="45.09964" lon="6.07557">
        <ele>1912</ele>
        <time>2021-03-10T07:32:28Z</time>
      </trkpt>
      <trkpt lat="45.09964" lon="6.07558">
        <ele>1912</ele>
        <time>2021-03-10T07:32:29Z</time>
      </trkpt>
      <trkpt lat="45.09964" lon="6.07559">
        <ele>1912</ele>
        <time>2021-03-10T07:32:30Z</time>
      </trkpt>
      <trkpt lat="45.09964" lon="6.07561">
        <ele>1912</ele>
        <time>2021-03-10T07:32:31Z</time>
      </trkpt>
      <trkpt lat="45.09964" lon="6.07562">
        <ele>1912.7</ele>
        <time>2021-03-10T07:32:32Z</time>
      </trkpt>
      <trkpt lat="45.09964" lon="6.07564">
        <ele>1913</ele>
        <time>2021-03-10T07:32:33Z</time>
      </trkpt>
      <trkpt lat="45.09965" lon="6.07565">
        <ele>1913</ele>
        <time>2021-03-10T07:32:34Z</time>
      </trkpt>
      <trkpt lat="45.09966" lon="6.07566">
        <ele>1913.7</ele>
        <time>2021-03-10T07:32:35Z</time>
      </trkpt>
      <trkpt lat="45.09968" lon="6.07567">
        <ele>1914.1</ele>
        <time>2021-03-10T07:32:36Z</time>
      </trkpt>
      <trkpt lat="45.09968" lon="6.07567">
        <ele>1914.1</ele>
        <time>2021-03-10T07:32:37Z</time>
      </trkpt>
      <trkpt lat="45.09969" lon="6.07568">
        <ele>1914.1</ele>
        <time>2021-03-10T07:32:38Z</time>
      </trkpt>
      <trkpt lat="45.09971" lon="6.07568">
        <ele>1914.4</ele>
        <time>2021-03-10T07:32:39Z</time>
      </trkpt>
      <trkpt lat="45.09972" lon="6.07569">
        <ele>1914.4</ele>
        <time>2021-03-10T07:32:40Z</time>
      </trkpt>
      <trkpt lat="45.09972" lon="6.07569">
        <ele>1914.4</ele>
        <time>2021-03-10T07:32:41Z</time>
      </trkpt>
      <trkpt lat="45.09973" lon="6.07569">
        <ele>1914.8</ele>
        <time>2021-03-10T07:32:42Z</time>
      </trkpt>
      <trkpt lat="45.09974" lon="6.0757">
        <ele>1915.6</ele>
        <time>2021-03-10T07:32:43Z</time>
      </trkpt>
      <trkpt lat="45.09975" lon="6.0757">
        <ele>1915.6</ele>
        <time>2021-03-10T07:32:44Z</time>
      </trkpt>
      <trkpt lat="45.09977" lon="6.07571">
        <ele>1915.9</ele>
        <time>2021-03-10T07:32:45Z</time>
      </trkpt>
      <trkpt lat="45.09978" lon="6.07571">
        <ele>1915.9</ele>
        <time>2021-03-10T07:32:46Z</time>
      </trkpt>
      <trkpt lat="45.09978" lon="6.07571">
        <ele>1915.9</ele>
        <time>2021-03-10T07:32:47Z</time>
      </trkpt>
      <trkpt lat="45.0998" lon="6.07572">
        <ele>1916.3</ele>
        <time>2021-03-10T07:32:48Z</time>
      </trkpt>
      <trkpt lat="45.09981" lon="6.07572">
        <ele>1916.3</ele>
        <time>2021-03-10T07:32:49Z</time>
      </trkpt>
      <trkpt lat="45.09982" lon="6.07573">
        <ele>1916.3</ele>
        <time>2021-03-10T07:32:50Z</time>
      </trkpt>
      <trkpt lat="45.09982" lon="6.07574">
        <ele>1916.6</ele>
        <time>2021-03-10T07:32:51Z</time>
      </trkpt>
      <trkpt lat="45.09983" lon="6.07574">
        <ele>1917.4</ele>
        <time>2021-03-10T07:32:52Z</time>
      </trkpt>
      <trkpt lat="45.09984" lon="6.07575">
        <ele>1917.4</ele>
        <time>2021-03-10T07:32:53Z</time>
      </trkpt>
      <trkpt lat="45.09984" lon="6.07577">
        <ele>1917.4</ele>
        <time>2021-03-10T07:32:54Z</time>
      </trkpt>
      <trkpt lat="45.09985" lon="6.07578">
        <ele>1917.4</ele>
        <time>2021-03-10T07:32:55Z</time>
      </trkpt>
      <trkpt lat="45.09985" lon="6.07579">
        <ele>1918.2</ele>
        <time>2021-03-10T07:32:56Z</time>
      </trkpt>
      <trkpt lat="45.09985" lon="6.0758">
        <ele>1918.2</ele>
        <time>2021-03-10T07:32:57Z</time>
      </trkpt>
      <trkpt lat="45.09985" lon="6.07582">
        <ele>1918.2</ele>
        <time>2021-03-10T07:32:58Z</time>
      </trkpt>
      <trkpt lat="45.09985" lon="6.07583">
        <ele>1918.9</ele>
        <time>2021-03-10T07:32:59Z</time>
      </trkpt>
      <trkpt lat="45.09985" lon="6.07584">
        <ele>1918.9</ele>
        <time>2021-03-10T07:33:00Z</time>
      </trkpt>
      <trkpt lat="45.09985" lon="6.07586">
        <ele>1918.9</ele>
        <time>2021-03-10T07:33:01Z</time>
      </trkpt>
      <trkpt lat="45.09985" lon="6.07587">
        <ele>1920</ele>
        <time>2021-03-10T07:33:02Z</time>
      </trkpt>
      <trkpt lat="45.09985" lon="6.07588">
        <ele>1920</ele>
        <time>2021-03-10T07:33:03Z</time>
      </trkpt>
      <trkpt lat="45.09985" lon="6.0759">
        <ele>1920</ele>
        <time>2021-03-10T07:33:04Z</time>
      </trkpt>
      <trkpt lat="45.09985" lon="6.07591">
        <ele>1920</ele>
        <time>2021-03-10T07:33:05Z</time>
      </trkpt>
      <trkpt lat="45.09985" lon="6.07592">
        <ele>1920.7</ele>
        <time>2021-03-10T07:33:06Z</time>
      </trkpt>
      <trkpt lat="45.09985" lon="6.07593">
        <ele>1920.7</ele>
        <time>2021-03-10T07:33:07Z</time>
      </trkpt>
      <trkpt lat="45.09985" lon="6.07594">
        <ele>1920.7</ele>
        <time>2021-03-10T07:33:08Z</time>
      </trkpt>
      <trkpt lat="45.09985" lon="6.07595">
        <ele>1920.3</ele>
        <time>2021-03-10T07:33:09Z</time>
      </trkpt>
      <trkpt lat="45.09985" lon="6.07596">
        <ele>1920.9</ele>
        <time>2021-03-10T07:33:10Z</time>
      </trkpt>
      <trkpt lat="45.09985" lon="6.07597">
        <ele>1920.9</ele>
        <time>2021-03-10T07:33:11Z</time>
      </trkpt>
      <trkpt lat="45.09985" lon="6.07598">
        <ele>1920.9</ele>
        <time>2021-03-10T07:33:12Z</time>
      </trkpt>
      <trkpt lat="45.09985" lon="6.07599">
        <ele>1920.9</ele>
        <time>2021-03-10T07:33:13Z</time>
      </trkpt>
      <trkpt lat="45.09985" lon="6.076">
        <ele>1921.6</ele>
        <time>2021-03-10T07:33:14Z</time>
      </trkpt>
      <trkpt lat="45.09984" lon="6.07602">
        <ele>1921.6</ele>
        <time>2021-03-10T07:33:15Z</time>
      </trkpt>
      <trkpt lat="45.09984" lon="6.07603">
        <ele>1921.6</ele>
        <time>2021-03-10T07:33:16Z</time>
      </trkpt>
      <trkpt lat="45.09984" lon="6.07604">
        <ele>1922.2</ele>
        <time>2021-03-10T07:33:17Z</time>
      </trkpt>
      <trkpt lat="45.09983" lon="6.07605">
        <ele>1922.2</ele>
        <time>2021-03-10T07:33:18Z</time>
      </trkpt>
      <trkpt lat="45.09983" lon="6.07607">
        <ele>1922.2</ele>
        <time>2021-03-10T07:33:19Z</time>
      </trkpt>
      <trkpt lat="45.09983" lon="6.07608">
        <ele>1922.2</ele>
        <time>2021-03-10T07:33:20Z</time>
      </trkpt>
      <trkpt lat="45.09983" lon="6.07609">
        <ele>1922.9</ele>
        <time>2021-03-10T07:33:21Z</time>
      </trkpt>
      <trkpt lat="45.09983" lon="6.0761">
        <ele>1922.9</ele>
        <time>2021-03-10T07:33:22Z</time>
      </trkpt>
      <trkpt lat="45.09982" lon="6.07612">
        <ele>1922.9</ele>
        <time>2021-03-10T07:33:23Z</time>
      </trkpt>
      <trkpt lat="45.09982" lon="6.07613">
        <ele>1923.6</ele>
        <time>2021-03-10T07:33:24Z</time>
      </trkpt>
      <trkpt lat="45.09982" lon="6.07614">
        <ele>1923.6</ele>
        <time>2021-03-10T07:33:25Z</time>
      </trkpt>
      <trkpt lat="45.09982" lon="6.07615">
        <ele>1923.6</ele>
        <time>2021-03-10T07:33:26Z</time>
      </trkpt>
      <trkpt lat="45.09983" lon="6.07616">
        <ele>1923.6</ele>
        <time>2021-03-10T07:33:27Z</time>
      </trkpt>
      <trkpt lat="45.09984" lon="6.07616">
        <ele>1923.6</ele>
        <time>2021-03-10T07:33:28Z</time>
      </trkpt>
      <trkpt lat="45.09985" lon="6.07617">
        <ele>1923.6</ele>
        <time>2021-03-10T07:33:29Z</time>
      </trkpt>
      <trkpt lat="45.09985" lon="6.07617">
        <ele>1924.8</ele>
        <time>2021-03-10T07:33:30Z</time>
      </trkpt>
      <trkpt lat="45.09986" lon="6.07618">
        <ele>1924.8</ele>
        <time>2021-03-10T07:33:31Z</time>
      </trkpt>
      <trkpt lat="45.09987" lon="6.07618">
        <ele>1924.8</ele>
        <time>2021-03-10T07:33:32Z</time>
      </trkpt>
      <trkpt lat="45.09988" lon="6.07619">
        <ele>1924.8</ele>
        <time>2021-03-10T07:33:33Z</time>
      </trkpt>
      <trkpt lat="45.09989" lon="6.0762">
        <ele>1925.3</ele>
        <time>2021-03-10T07:33:34Z</time>
      </trkpt>
      <trkpt lat="45.09989" lon="6.0762">
        <ele>1925.3</ele>
        <time>2021-03-10T07:33:35Z</time>
      </trkpt>
      <trkpt lat="45.0999" lon="6.07621">
        <ele>1925.3</ele>
        <time>2021-03-10T07:33:36Z</time>
      </trkpt>
      <trkpt lat="45.09991" lon="6.07622">
        <ele>1926.4</ele>
        <time>2021-03-10T07:33:37Z</time>
      </trkpt>
      <trkpt lat="45.09992" lon="6.07622">
        <ele>1926.4</ele>
        <time>2021-03-10T07:33:38Z</time>
      </trkpt>
      <trkpt lat="45.09993" lon="6.07623">
        <ele>1926.4</ele>
        <time>2021-03-10T07:33:39Z</time>
      </trkpt>
      <trkpt lat="45.09993" lon="6.07623">
        <ele>1926.4</ele>
        <time>2021-03-10T07:33:40Z</time>
      </trkpt>
      <trkpt lat="45.09994" lon="6.07623">
        <ele>1926.4</ele>
        <time>2021-03-10T07:33:41Z</time>
      </trkpt>
      <trkpt lat="45.09994" lon="6.07624">
        <ele>1926.9</ele>
        <time>2021-03-10T07:33:42Z</time>
      </trkpt>
      <trkpt lat="45.09995" lon="6.07624">
        <ele>1926.9</ele>
        <time>2021-03-10T07:33:43Z</time>
      </trkpt>
      <trkpt lat="45.09996" lon="6.07624">
        <ele>1926.9</ele>
        <time>2021-03-10T07:33:44Z</time>
      </trkpt>
      <trkpt lat="45.09996" lon="6.07625">
        <ele>1926.9</ele>
        <time>2021-03-10T07:33:45Z</time>
      </trkpt>
      <trkpt lat="45.09997" lon="6.07625">
        <ele>1926.9</ele>
        <time>2021-03-10T07:33:46Z</time>
      </trkpt>
      <trkpt lat="45.09998" lon="6.07625">
        <ele>1927.5</ele>
        <time>2021-03-10T07:33:47Z</time>
      </trkpt>
      <trkpt lat="45.09999" lon="6.07625">
        <ele>1927.5</ele>
        <time>2021-03-10T07:33:48Z</time>
      </trkpt>
      <trkpt lat="45.1" lon="6.07626">
        <ele>1928.1</ele>
        <time>2021-03-10T07:33:49Z</time>
      </trkpt>
      <trkpt lat="45.10001" lon="6.07626">
        <ele>1928.6</ele>
        <time>2021-03-10T07:33:50Z</time>
      </trkpt>
      <trkpt lat="45.10001" lon="6.07627">
        <ele>1928.6</ele>
        <time>2021-03-10T07:33:51Z</time>
      </trkpt>
      <trkpt lat="45.10002" lon="6.07628">
        <ele>1928.6</ele>
        <time>2021-03-10T07:33:52Z</time>
      </trkpt>
      <trkpt lat="45.10002" lon="6.07629">
        <ele>1928.6</ele>
        <time>2021-03-10T07:33:53Z</time>
      </trkpt>
      <trkpt lat="45.10002" lon="6.07631">
        <ele>1929.2</ele>
        <time>2021-03-10T07:33:54Z</time>
      </trkpt>
      <trkpt lat="45.10002" lon="6.07632">
        <ele>1929.2</ele>
        <time>2021-03-10T07:33:55Z</time>
      </trkpt>
      <trkpt lat="45.10002" lon="6.07633">
        <ele>1929.2</ele>
        <time>2021-03-10T07:33:56Z</time>
      </trkpt>
      <trkpt lat="45.10002" lon="6.07634">
        <ele>1929.2</ele>
        <time>2021-03-10T07:33:57Z</time>
      </trkpt>
      <trkpt lat="45.10002" lon="6.07635">
        <ele>1929.9</ele>
        <time>2021-03-10T07:33:58Z</time>
      </trkpt>
      <trkpt lat="45.10002" lon="6.07636">
        <ele>1929.9</ele>
        <time>2021-03-10T07:33:59Z</time>
      </trkpt>
      <trkpt lat="45.10002" lon="6.07637">
        <ele>1929.9</ele>
        <time>2021-03-10T07:34:00Z</time>
      </trkpt>
      <trkpt lat="45.10001" lon="6.07638">
        <ele>1929.9</ele>
        <time>2021-03-10T07:34:01Z</time>
      </trkpt>
      <trkpt lat="45.10001" lon="6.07639">
        <ele>1930.5</ele>
        <time>2021-03-10T07:34:02Z</time>
      </trkpt>
      <trkpt lat="45.10001" lon="6.0764">
        <ele>1930.5</ele>
        <time>2021-03-10T07:34:03Z</time>
      </trkpt>
      <trkpt lat="45.10001" lon="6.07642">
        <ele>1930.5</ele>
        <time>2021-03-10T07:34:04Z</time>
      </trkpt>
      <trkpt lat="45.10001" lon="6.07643">
        <ele>1930.5</ele>
        <time>2021-03-10T07:34:05Z</time>
      </trkpt>
      <trkpt lat="45.1" lon="6.07644">
        <ele>1930.6</ele>
        <time>2021-03-10T07:34:06Z</time>
      </trkpt>
      <trkpt lat="45.1" lon="6.07645">
        <ele>1930.6</ele>
        <time>2021-03-10T07:34:07Z</time>
      </trkpt>
      <trkpt lat="45.1" lon="6.07646">
        <ele>1930.6</ele>
        <time>2021-03-10T07:34:08Z</time>
      </trkpt>
      <trkpt lat="45.1" lon="6.07647">
        <ele>1931.3</ele>
        <time>2021-03-10T07:34:09Z</time>
      </trkpt>
      <trkpt lat="45.09999" lon="6.07648">
        <ele>1931.3</ele>
        <time>2021-03-10T07:34:10Z</time>
      </trkpt>
      <trkpt lat="45.09999" lon="6.07649">
        <ele>1931.3</ele>
        <time>2021-03-10T07:34:11Z</time>
      </trkpt>
      <trkpt lat="45.09999" lon="6.0765">
        <ele>1931.3</ele>
        <time>2021-03-10T07:34:12Z</time>
      </trkpt>
      <trkpt lat="45.09999" lon="6.07651">
        <ele>1931.3</ele>
        <time>2021-03-10T07:34:13Z</time>
      </trkpt>
      <trkpt lat="45.09999" lon="6.07652">
        <ele>1932</ele>
        <time>2021-03-10T07:34:14Z</time>
      </trkpt>
      <trkpt lat="45.09999" lon="6.07653">
        <ele>1932</ele>
        <time>2021-03-10T07:34:15Z</time>
      </trkpt>
      <trkpt lat="45.09999" lon="6.07654">
        <ele>1932</ele>
        <time>2021-03-10T07:34:16Z</time>
      </trkpt>
      <trkpt lat="45.09998" lon="6.07655">
        <ele>1932</ele>
        <time>2021-03-10T07:34:17Z</time>
      </trkpt>
      <trkpt lat="45.09998" lon="6.07656">
        <ele>1932.7</ele>
        <time>2021-03-10T07:34:18Z</time>
      </trkpt>
      <trkpt lat="45.09998" lon="6.07657">
        <ele>1932.7</ele>
        <time>2021-03-10T07:34:19Z</time>
      </trkpt>
      <trkpt lat="45.09998" lon="6.07658">
        <ele>1932.7</ele>
        <time>2021-03-10T07:34:20Z</time>
      </trkpt>
      <trkpt lat="45.09998" lon="6.0766">
        <ele>1932.7</ele>
        <time>2021-03-10T07:34:21Z</time>
      </trkpt>
      <trkpt lat="45.09998" lon="6.07661">
        <ele>1933.5</ele>
        <time>2021-03-10T07:34:22Z</time>
      </trkpt>
      <trkpt lat="45.09999" lon="6.07662">
        <ele>1933.5</ele>
        <time>2021-03-10T07:34:23Z</time>
      </trkpt>
      <trkpt lat="45.09999" lon="6.07663">
        <ele>1933.5</ele>
        <time>2021-03-10T07:34:24Z</time>
      </trkpt>
      <trkpt lat="45.1" lon="6.07664">
        <ele>1933.5</ele>
        <time>2021-03-10T07:34:25Z</time>
      </trkpt>
      <trkpt lat="45.10001" lon="6.07664">
        <ele>1933.9</ele>
        <time>2021-03-10T07:34:26Z</time>
      </trkpt>
      <trkpt lat="45.10002" lon="6.07665">
        <ele>1934.7</ele>
        <time>2021-03-10T07:34:27Z</time>
      </trkpt>
      <trkpt lat="45.10003" lon="6.07665">
        <ele>1935.1</ele>
        <time>2021-03-10T07:34:28Z</time>
      </trkpt>
      <trkpt lat="45.10004" lon="6.07666">
        <ele>1935.1</ele>
        <time>2021-03-10T07:34:29Z</time>
      </trkpt>
      <trkpt lat="45.10005" lon="6.07667">
        <ele>1935.1</ele>
        <time>2021-03-10T07:34:30Z</time>
      </trkpt>
      <trkpt lat="45.10006" lon="6.07667">
        <ele>1935.1</ele>
        <time>2021-03-10T07:34:31Z</time>
      </trkpt>
      <trkpt lat="45.10006" lon="6.07668">
        <ele>1935.5</ele>
        <time>2021-03-10T07:34:32Z</time>
      </trkpt>
      <trkpt lat="45.10007" lon="6.07669">
        <ele>1936.3</ele>
        <time>2021-03-10T07:34:33Z</time>
      </trkpt>
      <trkpt lat="45.10008" lon="6.07669">
        <ele>1936.3</ele>
        <time>2021-03-10T07:34:34Z</time>
      </trkpt>
      <trkpt lat="45.10008" lon="6.0767">
        <ele>1936.3</ele>
        <time>2021-03-10T07:34:35Z</time>
      </trkpt>
      <trkpt lat="45.10009" lon="6.07671">
        <ele>1936.3</ele>
        <time>2021-03-10T07:34:36Z</time>
      </trkpt>
      <trkpt lat="45.10009" lon="6.07671">
        <ele>1936.3</ele>
        <time>2021-03-10T07:34:37Z</time>
      </trkpt>
      <trkpt lat="45.1001" lon="6.07672">
        <ele>1936.7</ele>
        <time>2021-03-10T07:34:38Z</time>
      </trkpt>
      <trkpt lat="45.10011" lon="6.07672">
        <ele>1936.7</ele>
        <time>2021-03-10T07:34:39Z</time>
      </trkpt>
      <trkpt lat="45.10011" lon="6.07673">
        <ele>1937.4</ele>
        <time>2021-03-10T07:34:40Z</time>
      </trkpt>
      <trkpt lat="45.10012" lon="6.07674">
        <ele>1937.4</ele>
        <time>2021-03-10T07:34:41Z</time>
      </trkpt>
      <trkpt lat="45.10013" lon="6.07674">
        <ele>1937.8</ele>
        <time>2021-03-10T07:34:42Z</time>
      </trkpt>
      <trkpt lat="45.10014" lon="6.07675">
        <ele>1937.8</ele>
        <time>2021-03-10T07:34:43Z</time>
      </trkpt>
      <trkpt lat="45.10015" lon="6.07675">
        <ele>1937.8</ele>
        <time>2021-03-10T07:34:44Z</time>
      </trkpt>
      <trkpt lat="45.10015" lon="6.07676">
        <ele>1937.8</ele>
        <time>2021-03-10T07:34:45Z</time>
      </trkpt>
      <trkpt lat="45.10016" lon="6.07676">
        <ele>1938.3</ele>
        <time>2021-03-10T07:34:46Z</time>
      </trkpt>
      <trkpt lat="45.10017" lon="6.07677">
        <ele>1938.3</ele>
        <time>2021-03-10T07:34:47Z</time>
      </trkpt>
      <trkpt lat="45.10017" lon="6.07678">
        <ele>1939</ele>
        <time>2021-03-10T07:34:48Z</time>
      </trkpt>
      <trkpt lat="45.10018" lon="6.07679">
        <ele>1939</ele>
        <time>2021-03-10T07:34:49Z</time>
      </trkpt>
      <trkpt lat="45.10018" lon="6.0768">
        <ele>1939</ele>
        <time>2021-03-10T07:34:50Z</time>
      </trkpt>
      <trkpt lat="45.10017" lon="6.07682">
        <ele>1939.8</ele>
        <time>2021-03-10T07:34:51Z</time>
      </trkpt>
      <trkpt lat="45.10017" lon="6.07683">
        <ele>1939.8</ele>
        <time>2021-03-10T07:34:52Z</time>
      </trkpt>
      <trkpt lat="45.10017" lon="6.07684">
        <ele>1939.8</ele>
        <time>2021-03-10T07:34:53Z</time>
      </trkpt>
      <trkpt lat="45.10017" lon="6.07685">
        <ele>1939.8</ele>
        <time>2021-03-10T07:34:54Z</time>
      </trkpt>
      <trkpt lat="45.10017" lon="6.07687">
        <ele>1940.6</ele>
        <time>2021-03-10T07:34:55Z</time>
      </trkpt>
      <trkpt lat="45.10017" lon="6.07688">
        <ele>1940.6</ele>
        <time>2021-03-10T07:34:56Z</time>
      </trkpt>
      <trkpt lat="45.10017" lon="6.07689">
        <ele>1940.6</ele>
        <time>2021-03-10T07:34:57Z</time>
      </trkpt>
      <trkpt lat="45.10017" lon="6.0769">
        <ele>1941.4</ele>
        <time>2021-03-10T07:34:58Z</time>
      </trkpt>
      <trkpt lat="45.10017" lon="6.07691">
        <ele>1941.4</ele>
        <time>2021-03-10T07:34:59Z</time>
      </trkpt>
      <trkpt lat="45.10017" lon="6.07692">
        <ele>1941.4</ele>
        <time>2021-03-10T07:35:00Z</time>
      </trkpt>
      <trkpt lat="45.10016" lon="6.07693">
        <ele>1941.4</ele>
        <time>2021-03-10T07:35:01Z</time>
      </trkpt>
      <trkpt lat="45.10016" lon="6.07694">
        <ele>1941.4</ele>
        <time>2021-03-10T07:35:02Z</time>
      </trkpt>
      <trkpt lat="45.10016" lon="6.07695">
        <ele>1942.3</ele>
        <time>2021-03-10T07:35:03Z</time>
      </trkpt>
      <trkpt lat="45.10015" lon="6.07696">
        <ele>1941.9</ele>
        <time>2021-03-10T07:35:04Z</time>
      </trkpt>
      <trkpt lat="45.10015" lon="6.07697">
        <ele>1941.9</ele>
        <time>2021-03-10T07:35:05Z</time>
      </trkpt>
      <trkpt lat="45.10015" lon="6.07698">
        <ele>1941.9</ele>
        <time>2021-03-10T07:35:06Z</time>
      </trkpt>
      <trkpt lat="45.10015" lon="6.07698">
        <ele>1941.9</ele>
        <time>2021-03-10T07:35:07Z</time>
      </trkpt>
      <trkpt lat="45.10014" lon="6.07699">
        <ele>1942.8</ele>
        <time>2021-03-10T07:35:08Z</time>
      </trkpt>
      <trkpt lat="45.10014" lon="6.077">
        <ele>1942.8</ele>
        <time>2021-03-10T07:35:09Z</time>
      </trkpt>
      <trkpt lat="45.10014" lon="6.07701">
        <ele>1942.8</ele>
        <time>2021-03-10T07:35:10Z</time>
      </trkpt>
      <trkpt lat="45.10013" lon="6.07702">
        <ele>1942.8</ele>
        <time>2021-03-10T07:35:11Z</time>
      </trkpt>
      <trkpt lat="45.10013" lon="6.07704">
        <ele>1943.7</ele>
        <time>2021-03-10T07:35:12Z</time>
      </trkpt>
      <trkpt lat="45.10013" lon="6.07705">
        <ele>1943.7</ele>
        <time>2021-03-10T07:35:13Z</time>
      </trkpt>
      <trkpt lat="45.10013" lon="6.07706">
        <ele>1943.7</ele>
        <time>2021-03-10T07:35:14Z</time>
      </trkpt>
      <trkpt lat="45.10013" lon="6.07707">
        <ele>1944.6</ele>
        <time>2021-03-10T07:35:15Z</time>
      </trkpt>
      <trkpt lat="45.10013" lon="6.07709">
        <ele>1944.6</ele>
        <time>2021-03-10T07:35:16Z</time>
      </trkpt>
      <trkpt lat="45.10013" lon="6.0771">
        <ele>1944.6</ele>
        <time>2021-03-10T07:35:17Z</time>
      </trkpt>
      <trkpt lat="45.10013" lon="6.07711">
        <ele>1944.6</ele>
        <time>2021-03-10T07:35:18Z</time>
      </trkpt>
      <trkpt lat="45.10014" lon="6.07712">
        <ele>1945.5</ele>
        <time>2021-03-10T07:35:19Z</time>
      </trkpt>
      <trkpt lat="45.10015" lon="6.07713">
        <ele>1945.5</ele>
        <time>2021-03-10T07:35:20Z</time>
      </trkpt>
      <trkpt lat="45.10015" lon="6.07714">
        <ele>1945.5</ele>
        <time>2021-03-10T07:35:21Z</time>
      </trkpt>
      <trkpt lat="45.10016" lon="6.07715">
        <ele>1946</ele>
        <time>2021-03-10T07:35:22Z</time>
      </trkpt>
      <trkpt lat="45.10017" lon="6.07716">
        <ele>1946.8</ele>
        <time>2021-03-10T07:35:23Z</time>
      </trkpt>
      <trkpt lat="45.10017" lon="6.07717">
        <ele>1946.8</ele>
        <time>2021-03-10T07:35:24Z</time>
      </trkpt>
      <trkpt lat="45.10018" lon="6.07717">
        <ele>1946.8</ele>
        <time>2021-03-10T07:35:25Z</time>
      </trkpt>
      <trkpt lat="45.10019" lon="6.07718">
        <ele>1947.3</ele>
        <time>2021-03-10T07:35:26Z</time>
      </trkpt>
      <trkpt lat="45.1002" lon="6.07718">
        <ele>1947.3</ele>
        <time>2021-03-10T07:35:27Z</time>
      </trkpt>
      <trkpt lat="45.1002" lon="6.07719">
        <ele>1947.3</ele>
        <time>2021-03-10T07:35:28Z</time>
      </trkpt>
      <trkpt lat="45.10021" lon="6.07719">
        <ele>1947.3</ele>
        <time>2021-03-10T07:35:29Z</time>
      </trkpt>
      <trkpt lat="45.10022" lon="6.0772">
        <ele>1948.6</ele>
        <time>2021-03-10T07:35:30Z</time>
      </trkpt>
      <trkpt lat="45.10022" lon="6.07721">
        <ele>1948.6</ele>
        <time>2021-03-10T07:35:31Z</time>
      </trkpt>
      <trkpt lat="45.10023" lon="6.07721">
        <ele>1948.6</ele>
        <time>2021-03-10T07:35:32Z</time>
      </trkpt>
      <trkpt lat="45.10024" lon="6.07722">
        <ele>1948.6</ele>
        <time>2021-03-10T07:35:33Z</time>
      </trkpt>
      <trkpt lat="45.10024" lon="6.07722">
        <ele>1948.6</ele>
        <time>2021-03-10T07:35:34Z</time>
      </trkpt>
      <trkpt lat="45.10025" lon="6.07723">
        <ele>1949.2</ele>
        <time>2021-03-10T07:35:35Z</time>
      </trkpt>
      <trkpt lat="45.10026" lon="6.07723">
        <ele>1949.2</ele>
        <time>2021-03-10T07:35:36Z</time>
      </trkpt>
      <trkpt lat="45.10027" lon="6.07724">
        <ele>1949.2</ele>
        <time>2021-03-10T07:35:37Z</time>
      </trkpt>
      <trkpt lat="45.10028" lon="6.07724">
        <ele>1949.7</ele>
        <time>2021-03-10T07:35:38Z</time>
      </trkpt>
      <trkpt lat="45.10029" lon="6.07724">
        <ele>1950.5</ele>
        <time>2021-03-10T07:35:39Z</time>
      </trkpt>
      <trkpt lat="45.1003" lon="6.07725">
        <ele>1950.5</ele>
        <time>2021-03-10T07:35:40Z</time>
      </trkpt>
      <trkpt lat="45.1003" lon="6.07726">
        <ele>1950.5</ele>
        <time>2021-03-10T07:35:41Z</time>
      </trkpt>
      <trkpt lat="45.10031" lon="6.07726">
        <ele>1951</ele>
        <time>2021-03-10T07:35:42Z</time>
      </trkpt>
      <trkpt lat="45.10032" lon="6.07727">
        <ele>1951</ele>
        <time>2021-03-10T07:35:43Z</time>
      </trkpt>
      <trkpt lat="45.10033" lon="6.07727">
        <ele>1951</ele>
        <time>2021-03-10T07:35:44Z</time>
      </trkpt>
      <trkpt lat="45.10034" lon="6.07728">
        <ele>1951.5</ele>
        <time>2021-03-10T07:35:45Z</time>
      </trkpt>
      <trkpt lat="45.10035" lon="6.07728">
        <ele>1951.5</ele>
        <time>2021-03-10T07:35:46Z</time>
      </trkpt>
      <trkpt lat="45.10036" lon="6.07729">
        <ele>1952.1</ele>
        <time>2021-03-10T07:35:47Z</time>
      </trkpt>
      <trkpt lat="45.10037" lon="6.07729">
        <ele>1952.6</ele>
        <time>2021-03-10T07:35:48Z</time>
      </trkpt>
      <trkpt lat="45.10038" lon="6.0773">
        <ele>1952.6</ele>
        <time>2021-03-10T07:35:49Z</time>
      </trkpt>
      <trkpt lat="45.10039" lon="6.0773">
        <ele>1952.6</ele>
        <time>2021-03-10T07:35:50Z</time>
      </trkpt>
      <trkpt lat="45.10039" lon="6.07731">
        <ele>1952.6</ele>
        <time>2021-03-10T07:35:51Z</time>
      </trkpt>
      <trkpt lat="45.1004" lon="6.07732">
        <ele>1952.9</ele>
        <time>2021-03-10T07:35:52Z</time>
      </trkpt>
      <trkpt lat="45.1004" lon="6.07734">
        <ele>1953.5</ele>
        <time>2021-03-10T07:35:53Z</time>
      </trkpt>
      <trkpt lat="45.10041" lon="6.07735">
        <ele>1953.5</ele>
        <time>2021-03-10T07:35:54Z</time>
      </trkpt>
      <trkpt lat="45.10041" lon="6.07736">
        <ele>1953.5</ele>
        <time>2021-03-10T07:35:55Z</time>
      </trkpt>
      <trkpt lat="45.10041" lon="6.07737">
        <ele>1954.1</ele>
        <time>2021-03-10T07:35:56Z</time>
      </trkpt>
      <trkpt lat="45.10041" lon="6.07738">
        <ele>1954.1</ele>
        <time>2021-03-10T07:35:57Z</time>
      </trkpt>
      <trkpt lat="45.10041" lon="6.0774">
        <ele>1954.1</ele>
        <time>2021-03-10T07:35:58Z</time>
      </trkpt>
      <trkpt lat="45.10041" lon="6.07741">
        <ele>1954.1</ele>
        <time>2021-03-10T07:35:59Z</time>
      </trkpt>
      <trkpt lat="45.10041" lon="6.07742">
        <ele>1954.8</ele>
        <time>2021-03-10T07:36:00Z</time>
      </trkpt>
      <trkpt lat="45.10041" lon="6.07743">
        <ele>1954.8</ele>
        <time>2021-03-10T07:36:01Z</time>
      </trkpt>
      <trkpt lat="45.10041" lon="6.07744">
        <ele>1954.8</ele>
        <time>2021-03-10T07:36:02Z</time>
      </trkpt>
      <trkpt lat="45.10041" lon="6.07746">
        <ele>1954.8</ele>
        <time>2021-03-10T07:36:03Z</time>
      </trkpt>
      <trkpt lat="45.10041" lon="6.07747">
        <ele>1955.4</ele>
        <time>2021-03-10T07:36:04Z</time>
      </trkpt>
      <trkpt lat="45.10041" lon="6.07748">
        <ele>1955.4</ele>
        <time>2021-03-10T07:36:05Z</time>
      </trkpt>
      <trkpt lat="45.10041" lon="6.07749">
        <ele>1955.4</ele>
        <time>2021-03-10T07:36:06Z</time>
      </trkpt>
      <trkpt lat="45.10041" lon="6.07751">
        <ele>1956.1</ele>
        <time>2021-03-10T07:36:07Z</time>
      </trkpt>
      <trkpt lat="45.10041" lon="6.07752">
        <ele>1956.1</ele>
        <time>2021-03-10T07:36:08Z</time>
      </trkpt>
      <trkpt lat="45.10041" lon="6.07753">
        <ele>1956.1</ele>
        <time>2021-03-10T07:36:09Z</time>
      </trkpt>
      <trkpt lat="45.10041" lon="6.07754">
        <ele>1956.1</ele>
        <time>2021-03-10T07:36:10Z</time>
      </trkpt>
      <trkpt lat="45.10041" lon="6.07755">
        <ele>1956.7</ele>
        <time>2021-03-10T07:36:11Z</time>
      </trkpt>
      <trkpt lat="45.10041" lon="6.07757">
        <ele>1956.7</ele>
        <time>2021-03-10T07:36:12Z</time>
      </trkpt>
      <trkpt lat="45.10041" lon="6.07758">
        <ele>1956.7</ele>
        <time>2021-03-10T07:36:13Z</time>
      </trkpt>
      <trkpt lat="45.10041" lon="6.07759">
        <ele>1957.3</ele>
        <time>2021-03-10T07:36:14Z</time>
      </trkpt>
      <trkpt lat="45.10042" lon="6.0776">
        <ele>1957.3</ele>
        <time>2021-03-10T07:36:15Z</time>
      </trkpt>
      <trkpt lat="45.10042" lon="6.07761">
        <ele>1957.3</ele>
        <time>2021-03-10T07:36:16Z</time>
      </trkpt>
      <trkpt lat="45.10042" lon="6.07762">
        <ele>1957.3</ele>
        <time>2021-03-10T07:36:17Z</time>
      </trkpt>
      <trkpt lat="45.10042" lon="6.07763">
        <ele>1957.9</ele>
        <time>2021-03-10T07:36:18Z</time>
      </trkpt>
      <trkpt lat="45.10042" lon="6.07765">
        <ele>1957.9</ele>
        <time>2021-03-10T07:36:19Z</time>
      </trkpt>
      <trkpt lat="45.10042" lon="6.07766">
        <ele>1957.9</ele>
        <time>2021-03-10T07:36:20Z</time>
      </trkpt>
      <trkpt lat="45.10042" lon="6.07767">
        <ele>1957.9</ele>
        <time>2021-03-10T07:36:21Z</time>
      </trkpt>
      <trkpt lat="45.10042" lon="6.07768">
        <ele>1958.5</ele>
        <time>2021-03-10T07:36:22Z</time>
      </trkpt>
      <trkpt lat="45.10043" lon="6.07769">
        <ele>1958.8</ele>
        <time>2021-03-10T07:36:23Z</time>
      </trkpt>
      <trkpt lat="45.10043" lon="6.0777">
        <ele>1958.8</ele>
        <time>2021-03-10T07:36:24Z</time>
      </trkpt>
      <trkpt lat="45.10044" lon="6.0777">
        <ele>1958.8</ele>
        <time>2021-03-10T07:36:25Z</time>
      </trkpt>
      <trkpt lat="45.10045" lon="6.07771">
        <ele>1958.8</ele>
        <time>2021-03-10T07:36:26Z</time>
      </trkpt>
      <trkpt lat="45.10046" lon="6.07772">
        <ele>1959.6</ele>
        <time>2021-03-10T07:36:27Z</time>
      </trkpt>
      <trkpt lat="45.10047" lon="6.07772">
        <ele>1959.6</ele>
        <time>2021-03-10T07:36:28Z</time>
      </trkpt>
      <trkpt lat="45.10048" lon="6.07773">
        <ele>1959.6</ele>
        <time>2021-03-10T07:36:29Z</time>
      </trkpt>
      <trkpt lat="45.10049" lon="6.07774">
        <ele>1959.6</ele>
        <time>2021-03-10T07:36:30Z</time>
      </trkpt>
      <trkpt lat="45.10049" lon="6.07775">
        <ele>1959.9</ele>
        <time>2021-03-10T07:36:31Z</time>
      </trkpt>
      <trkpt lat="45.1005" lon="6.07776">
        <ele>1959.9</ele>
        <time>2021-03-10T07:36:32Z</time>
      </trkpt>
      <trkpt lat="45.10051" lon="6.07776">
        <ele>1960.6</ele>
        <time>2021-03-10T07:36:33Z</time>
      </trkpt>
      <trkpt lat="45.10051" lon="6.07777">
        <ele>1960.6</ele>
        <time>2021-03-10T07:36:34Z</time>
      </trkpt>
      <trkpt lat="45.10052" lon="6.07778">
        <ele>1961</ele>
        <time>2021-03-10T07:36:35Z</time>
      </trkpt>
      <trkpt lat="45.10053" lon="6.07778">
        <ele>1961</ele>
        <time>2021-03-10T07:36:36Z</time>
      </trkpt>
      <trkpt lat="45.10054" lon="6.07779">
        <ele>1961</ele>
        <time>2021-03-10T07:36:37Z</time>
      </trkpt>
      <trkpt lat="45.10055" lon="6.0778">
        <ele>1961</ele>
        <time>2021-03-10T07:36:38Z</time>
      </trkpt>
      <trkpt lat="45.10056" lon="6.0778">
        <ele>1962.1</ele>
        <time>2021-03-10T07:36:39Z</time>
      </trkpt>
      <trkpt lat="45.10057" lon="6.07781">
        <ele>1962.1</ele>
        <time>2021-03-10T07:36:40Z</time>
      </trkpt>
      <trkpt lat="45.10058" lon="6.07782">
        <ele>1962.1</ele>
        <time>2021-03-10T07:36:41Z</time>
      </trkpt>
      <trkpt lat="45.10059" lon="6.07782">
        <ele>1962.5</ele>
        <time>2021-03-10T07:36:42Z</time>
      </trkpt>
      <trkpt lat="45.1006" lon="6.07783">
        <ele>1962.5</ele>
        <time>2021-03-10T07:36:43Z</time>
      </trkpt>
      <trkpt lat="45.10061" lon="6.07784">
        <ele>1962.8</ele>
        <time>2021-03-10T07:36:44Z</time>
      </trkpt>
      <trkpt lat="45.10062" lon="6.07784">
        <ele>1962.8</ele>
        <time>2021-03-10T07:36:45Z</time>
      </trkpt>
      <trkpt lat="45.10063" lon="6.07785">
        <ele>1963.6</ele>
        <time>2021-03-10T07:36:46Z</time>
      </trkpt>
      <trkpt lat="45.10064" lon="6.07785">
        <ele>1963.9</ele>
        <time>2021-03-10T07:36:47Z</time>
      </trkpt>
      <trkpt lat="45.10065" lon="6.07786">
        <ele>1963.9</ele>
        <time>2021-03-10T07:36:48Z</time>
      </trkpt>
      <trkpt lat="45.10065" lon="6.07786">
        <ele>1963.9</ele>
        <time>2021-03-10T07:36:49Z</time>
      </trkpt>
      <trkpt lat="45.10066" lon="6.07787">
        <ele>1963.9</ele>
        <time>2021-03-10T07:36:50Z</time>
      </trkpt>
      <trkpt lat="45.10067" lon="6.07787">
        <ele>1964.3</ele>
        <time>2021-03-10T07:36:51Z</time>
      </trkpt>
      <trkpt lat="45.10068" lon="6.07788">
        <ele>1964.3</ele>
        <time>2021-03-10T07:36:52Z</time>
      </trkpt>
      <trkpt lat="45.10069" lon="6.07788">
        <ele>1964.3</ele>
        <time>2021-03-10T07:36:53Z</time>
      </trkpt>
      <trkpt lat="45.10069" lon="6.07789">
        <ele>1965</ele>
        <time>2021-03-10T07:36:54Z</time>
      </trkpt>
      <trkpt lat="45.1007" lon="6.07789">
        <ele>1965</ele>
        <time>2021-03-10T07:36:55Z</time>
      </trkpt>
      <trkpt lat="45.10071" lon="6.0779">
        <ele>1965.4</ele>
        <time>2021-03-10T07:36:56Z</time>
      </trkpt>
      <trkpt lat="45.10072" lon="6.07791">
        <ele>1965.4</ele>
        <time>2021-03-10T07:36:57Z</time>
      </trkpt>
      <trkpt lat="45.10072" lon="6.07791">
        <ele>1965.4</ele>
        <time>2021-03-10T07:36:58Z</time>
      </trkpt>
      <trkpt lat="45.10073" lon="6.07791">
        <ele>1965.7</ele>
        <time>2021-03-10T07:36:59Z</time>
      </trkpt>
      <trkpt lat="45.10074" lon="6.07792">
        <ele>1965.7</ele>
        <time>2021-03-10T07:37:00Z</time>
      </trkpt>
      <trkpt lat="45.10075" lon="6.07792">
        <ele>1965.7</ele>
        <time>2021-03-10T07:37:01Z</time>
      </trkpt>
      <trkpt lat="45.10076" lon="6.07793">
        <ele>1966.1</ele>
        <time>2021-03-10T07:37:02Z</time>
      </trkpt>
      <trkpt lat="45.10077" lon="6.07793">
        <ele>1966.9</ele>
        <time>2021-03-10T07:37:03Z</time>
      </trkpt>
      <trkpt lat="45.10078" lon="6.07794">
        <ele>1966.9</ele>
        <time>2021-03-10T07:37:04Z</time>
      </trkpt>
      <trkpt lat="45.10079" lon="6.07794">
        <ele>1966.9</ele>
        <time>2021-03-10T07:37:05Z</time>
      </trkpt>
      <trkpt lat="45.10079" lon="6.07795">
        <ele>1967.2</ele>
        <time>2021-03-10T07:37:06Z</time>
      </trkpt>
      <trkpt lat="45.1008" lon="6.07795">
        <ele>1967.2</ele>
        <time>2021-03-10T07:37:07Z</time>
      </trkpt>
      <trkpt lat="45.10081" lon="6.07796">
        <ele>1967.2</ele>
        <time>2021-03-10T07:37:08Z</time>
      </trkpt>
      <trkpt lat="45.10082" lon="6.07797">
        <ele>1967.2</ele>
        <time>2021-03-10T07:37:09Z</time>
      </trkpt>
      <trkpt lat="45.10082" lon="6.07798">
        <ele>1968.3</ele>
        <time>2021-03-10T07:37:10Z</time>
      </trkpt>
      <trkpt lat="45.10083" lon="6.07799">
        <ele>1968.3</ele>
        <time>2021-03-10T07:37:11Z</time>
      </trkpt>
      <trkpt lat="45.10083" lon="6.078">
        <ele>1968.3</ele>
        <time>2021-03-10T07:37:12Z</time>
      </trkpt>
      <trkpt lat="45.10083" lon="6.07801">
        <ele>1968.3</ele>
        <time>2021-03-10T07:37:13Z</time>
      </trkpt>
      <trkpt lat="45.10083" lon="6.07802">
        <ele>1969.1</ele>
        <time>2021-03-10T07:37:14Z</time>
      </trkpt>
      <trkpt lat="45.10083" lon="6.07805">
        <ele>1969.1</ele>
        <time>2021-03-10T07:37:15Z</time>
      </trkpt>
      <trkpt lat="45.10083" lon="6.07806">
        <ele>1969.1</ele>
        <time>2021-03-10T07:37:16Z</time>
      </trkpt>
      <trkpt lat="45.10083" lon="6.07807">
        <ele>1969.7</ele>
        <time>2021-03-10T07:37:17Z</time>
      </trkpt>
      <trkpt lat="45.10083" lon="6.07808">
        <ele>1969.7</ele>
        <time>2021-03-10T07:37:18Z</time>
      </trkpt>
      <trkpt lat="45.10083" lon="6.07809">
        <ele>1969.7</ele>
        <time>2021-03-10T07:37:19Z</time>
      </trkpt>
      <trkpt lat="45.10083" lon="6.0781">
        <ele>1969.7</ele>
        <time>2021-03-10T07:37:20Z</time>
      </trkpt>
      <trkpt lat="45.10083" lon="6.07811">
        <ele>1970.4</ele>
        <time>2021-03-10T07:37:21Z</time>
      </trkpt>
      <trkpt lat="45.10083" lon="6.07812">
        <ele>1970.4</ele>
        <time>2021-03-10T07:37:22Z</time>
      </trkpt>
      <trkpt lat="45.10083" lon="6.07812">
        <ele>1970.4</ele>
        <time>2021-03-10T07:37:23Z</time>
      </trkpt>
      <trkpt lat="45.10083" lon="6.07813">
        <ele>1970.4</ele>
        <time>2021-03-10T07:37:24Z</time>
      </trkpt>
      <trkpt lat="45.10084" lon="6.07815">
        <ele>1970.9</ele>
        <time>2021-03-10T07:37:25Z</time>
      </trkpt>
      <trkpt lat="45.10084" lon="6.07816">
        <ele>1970.9</ele>
        <time>2021-03-10T07:37:26Z</time>
      </trkpt>
      <trkpt lat="45.10084" lon="6.07817">
        <ele>1970.9</ele>
        <time>2021-03-10T07:37:27Z</time>
      </trkpt>
      <trkpt lat="45.10084" lon="6.07818">
        <ele>1970.9</ele>
        <time>2021-03-10T07:37:28Z</time>
      </trkpt>
      <trkpt lat="45.10084" lon="6.07819">
        <ele>1971.5</ele>
        <time>2021-03-10T07:37:29Z</time>
      </trkpt>
      <trkpt lat="45.10084" lon="6.0782">
        <ele>1971.5</ele>
        <time>2021-03-10T07:37:30Z</time>
      </trkpt>
      <trkpt lat="45.10084" lon="6.07822">
        <ele>1971.5</ele>
        <time>2021-03-10T07:37:31Z</time>
      </trkpt>
      <trkpt lat="45.10085" lon="6.07823">
        <ele>1971.5</ele>
        <time>2021-03-10T07:37:32Z</time>
      </trkpt>
      <trkpt lat="45.10085" lon="6.07824">
        <ele>1972.1</ele>
        <time>2021-03-10T07:37:33Z</time>
      </trkpt>
      <trkpt lat="45.10085" lon="6.07825">
        <ele>1972.1</ele>
        <time>2021-03-10T07:37:34Z</time>
      </trkpt>
      <trkpt lat="45.10085" lon="6.07826">
        <ele>1972.4</ele>
        <time>2021-03-10T07:37:35Z</time>
      </trkpt>
      <trkpt lat="45.10086" lon="6.07827">
        <ele>1972.9</ele>
        <time>2021-03-10T07:37:36Z</time>
      </trkpt>
      <trkpt lat="45.10086" lon="6.07828">
        <ele>1972.9</ele>
        <time>2021-03-10T07:37:37Z</time>
      </trkpt>
      <trkpt lat="45.10086" lon="6.0783">
        <ele>1972.9</ele>
        <time>2021-03-10T07:37:38Z</time>
      </trkpt>
      <trkpt lat="45.10086" lon="6.07831">
        <ele>1972.9</ele>
        <time>2021-03-10T07:37:39Z</time>
      </trkpt>
      <trkpt lat="45.10086" lon="6.07832">
        <ele>1973.5</ele>
        <time>2021-03-10T07:37:40Z</time>
      </trkpt>
      <trkpt lat="45.10087" lon="6.07833">
        <ele>1973.5</ele>
        <time>2021-03-10T07:37:41Z</time>
      </trkpt>
      <trkpt lat="45.10087" lon="6.07834">
        <ele>1973.5</ele>
        <time>2021-03-10T07:37:42Z</time>
      </trkpt>
      <trkpt lat="45.10087" lon="6.07835">
        <ele>1973.5</ele>
        <time>2021-03-10T07:37:43Z</time>
      </trkpt>
      <trkpt lat="45.10088" lon="6.07836">
        <ele>1974</ele>
        <time>2021-03-10T07:37:44Z</time>
      </trkpt>
      <trkpt lat="45.10088" lon="6.07836">
        <ele>1974.3</ele>
        <time>2021-03-10T07:37:45Z</time>
      </trkpt>
      <trkpt lat="45.10089" lon="6.07837">
        <ele>1974.3</ele>
        <time>2021-03-10T07:37:46Z</time>
      </trkpt>
      <trkpt lat="45.10091" lon="6.07838">
        <ele>1974.3</ele>
        <time>2021-03-10T07:37:47Z</time>
      </trkpt>
      <trkpt lat="45.10091" lon="6.07838">
        <ele>1974.5</ele>
        <time>2021-03-10T07:37:48Z</time>
      </trkpt>
      <trkpt lat="45.10092" lon="6.07838">
        <ele>1974.5</ele>
        <time>2021-03-10T07:37:49Z</time>
      </trkpt>
      <trkpt lat="45.10093" lon="6.07839">
        <ele>1974.5</ele>
        <time>2021-03-10T07:37:50Z</time>
      </trkpt>
      <trkpt lat="45.10093" lon="6.07839">
        <ele>1974.5</ele>
        <time>2021-03-10T07:37:51Z</time>
      </trkpt>
      <trkpt lat="45.10094" lon="6.0784">
        <ele>1974.8</ele>
        <time>2021-03-10T07:37:52Z</time>
      </trkpt>
      <trkpt lat="45.10095" lon="6.0784">
        <ele>1975.4</ele>
        <time>2021-03-10T07:37:53Z</time>
      </trkpt>
      <trkpt lat="45.10096" lon="6.07841">
        <ele>1975.4</ele>
        <time>2021-03-10T07:37:54Z</time>
      </trkpt>
      <trkpt lat="45.10097" lon="6.07842">
        <ele>1975.7</ele>
        <time>2021-03-10T07:37:55Z</time>
      </trkpt>
      <trkpt lat="45.10098" lon="6.07842">
        <ele>1975.7</ele>
        <time>2021-03-10T07:37:56Z</time>
      </trkpt>
      <trkpt lat="45.10099" lon="6.07842">
        <ele>1975.7</ele>
        <time>2021-03-10T07:37:57Z</time>
      </trkpt>
      <trkpt lat="45.101" lon="6.07842">
        <ele>1975.7</ele>
        <time>2021-03-10T07:37:58Z</time>
      </trkpt>
      <trkpt lat="45.10101" lon="6.07842">
        <ele>1976</ele>
        <time>2021-03-10T07:37:59Z</time>
      </trkpt>
      <trkpt lat="45.10102" lon="6.07843">
        <ele>1976</ele>
        <time>2021-03-10T07:38:00Z</time>
      </trkpt>
      <trkpt lat="45.10102" lon="6.07843">
        <ele>1976</ele>
        <time>2021-03-10T07:38:01Z</time>
      </trkpt>
      <trkpt lat="45.10103" lon="6.07843">
        <ele>1976</ele>
        <time>2021-03-10T07:38:02Z</time>
      </trkpt>
      <trkpt lat="45.10104" lon="6.07844">
        <ele>1976.3</ele>
        <time>2021-03-10T07:38:03Z</time>
      </trkpt>
      <trkpt lat="45.10104" lon="6.07844">
        <ele>1976.3</ele>
        <time>2021-03-10T07:38:04Z</time>
      </trkpt>
      <trkpt lat="45.10105" lon="6.07844">
        <ele>1976.3</ele>
        <time>2021-03-10T07:38:05Z</time>
      </trkpt>
      <trkpt lat="45.10106" lon="6.07845">
        <ele>1976.8</ele>
        <time>2021-03-10T07:38:06Z</time>
      </trkpt>
      <trkpt lat="45.10107" lon="6.07845">
        <ele>1977.2</ele>
        <time>2021-03-10T07:38:07Z</time>
      </trkpt>
      <trkpt lat="45.10108" lon="6.07846">
        <ele>1977.2</ele>
        <time>2021-03-10T07:38:08Z</time>
      </trkpt>
      <trkpt lat="45.10108" lon="6.07846">
        <ele>1977.2</ele>
        <time>2021-03-10T07:38:09Z</time>
      </trkpt>
      <trkpt lat="45.10109" lon="6.07847">
        <ele>1977.2</ele>
        <time>2021-03-10T07:38:10Z</time>
      </trkpt>
      <trkpt lat="45.1011" lon="6.07847">
        <ele>1977.6</ele>
        <time>2021-03-10T07:38:11Z</time>
      </trkpt>
      <trkpt lat="45.10111" lon="6.07847">
        <ele>1977.6</ele>
        <time>2021-03-10T07:38:12Z</time>
      </trkpt>
      <trkpt lat="45.10112" lon="6.07848">
        <ele>1977.6</ele>
        <time>2021-03-10T07:38:13Z</time>
      </trkpt>
      <trkpt lat="45.10113" lon="6.07848">
        <ele>1977.9</ele>
        <time>2021-03-10T07:38:14Z</time>
      </trkpt>
      <trkpt lat="45.10114" lon="6.07848">
        <ele>1977.9</ele>
        <time>2021-03-10T07:38:15Z</time>
      </trkpt>
      <trkpt lat="45.10114" lon="6.07849">
        <ele>1978.4</ele>
        <time>2021-03-10T07:38:16Z</time>
      </trkpt>
      <trkpt lat="45.10115" lon="6.07849">
        <ele>1978.4</ele>
        <time>2021-03-10T07:38:17Z</time>
      </trkpt>
      <trkpt lat="45.10116" lon="6.0785">
        <ele>1978.7</ele>
        <time>2021-03-10T07:38:18Z</time>
      </trkpt>
      <trkpt lat="45.10117" lon="6.0785">
        <ele>1978.7</ele>
        <time>2021-03-10T07:38:19Z</time>
      </trkpt>
      <trkpt lat="45.10118" lon="6.0785">
        <ele>1978.7</ele>
        <time>2021-03-10T07:38:20Z</time>
      </trkpt>
      <trkpt lat="45.10119" lon="6.07851">
        <ele>1979.1</ele>
        <time>2021-03-10T07:38:21Z</time>
      </trkpt>
      <trkpt lat="45.10119" lon="6.07852">
        <ele>1979.1</ele>
        <time>2021-03-10T07:38:22Z</time>
      </trkpt>
      <trkpt lat="45.10119" lon="6.07853">
        <ele>1979.4</ele>
        <time>2021-03-10T07:38:23Z</time>
      </trkpt>
      <trkpt lat="45.1012" lon="6.07854">
        <ele>1979.4</ele>
        <time>2021-03-10T07:38:24Z</time>
      </trkpt>
      <trkpt lat="45.1012" lon="6.07856">
        <ele>1979.4</ele>
        <time>2021-03-10T07:38:25Z</time>
      </trkpt>
      <trkpt lat="45.1012" lon="6.07857">
        <ele>1979.4</ele>
        <time>2021-03-10T07:38:26Z</time>
      </trkpt>
      <trkpt lat="45.1012" lon="6.07858">
        <ele>1979.8</ele>
        <time>2021-03-10T07:38:27Z</time>
      </trkpt>
      <trkpt lat="45.1012" lon="6.07859">
        <ele>1979.8</ele>
        <time>2021-03-10T07:38:28Z</time>
      </trkpt>
      <trkpt lat="45.1012" lon="6.0786">
        <ele>1979.8</ele>
        <time>2021-03-10T07:38:29Z</time>
      </trkpt>
      <trkpt lat="45.10121" lon="6.07862">
        <ele>1980.1</ele>
        <time>2021-03-10T07:38:30Z</time>
      </trkpt>
      <trkpt lat="45.10121" lon="6.07863">
        <ele>1980.1</ele>
        <time>2021-03-10T07:38:31Z</time>
      </trkpt>
      <trkpt lat="45.10121" lon="6.07864">
        <ele>1980.1</ele>
        <time>2021-03-10T07:38:32Z</time>
      </trkpt>
      <trkpt lat="45.10121" lon="6.07865">
        <ele>1980.1</ele>
        <time>2021-03-10T07:38:33Z</time>
      </trkpt>
      <trkpt lat="45.10122" lon="6.07866">
        <ele>1980.7</ele>
        <time>2021-03-10T07:38:34Z</time>
      </trkpt>
      <trkpt lat="45.10122" lon="6.07867">
        <ele>1980.7</ele>
        <time>2021-03-10T07:38:35Z</time>
      </trkpt>
      <trkpt lat="45.10122" lon="6.07868">
        <ele>1980.7</ele>
        <time>2021-03-10T07:38:36Z</time>
      </trkpt>
      <trkpt lat="45.10122" lon="6.07869">
        <ele>1980.7</ele>
        <time>2021-03-10T07:38:37Z</time>
      </trkpt>
      <trkpt lat="45.10122" lon="6.0787">
        <ele>1980.7</ele>
        <time>2021-03-10T07:38:38Z</time>
      </trkpt>
      <trkpt lat="45.10122" lon="6.07871">
        <ele>1981.1</ele>
        <time>2021-03-10T07:38:39Z</time>
      </trkpt>
      <trkpt lat="45.10122" lon="6.07872">
        <ele>1981.1</ele>
        <time>2021-03-10T07:38:40Z</time>
      </trkpt>
      <trkpt lat="45.10122" lon="6.07873">
        <ele>1981.1</ele>
        <time>2021-03-10T07:38:41Z</time>
      </trkpt>
      <trkpt lat="45.10122" lon="6.07874">
        <ele>1981.1</ele>
        <time>2021-03-10T07:38:42Z</time>
      </trkpt>
      <trkpt lat="45.10122" lon="6.07875">
        <ele>1981.4</ele>
        <time>2021-03-10T07:38:43Z</time>
      </trkpt>
      <trkpt lat="45.10122" lon="6.07876">
        <ele>1981.4</ele>
        <time>2021-03-10T07:38:44Z</time>
      </trkpt>
      <trkpt lat="45.10122" lon="6.07877">
        <ele>1981.4</ele>
        <time>2021-03-10T07:38:45Z</time>
      </trkpt>
      <trkpt lat="45.10122" lon="6.07878">
        <ele>1981.4</ele>
        <time>2021-03-10T07:38:46Z</time>
      </trkpt>
      <trkpt lat="45.10122" lon="6.07879">
        <ele>1981.8</ele>
        <time>2021-03-10T07:38:47Z</time>
      </trkpt>
      <trkpt lat="45.10123" lon="6.0788">
        <ele>1981.8</ele>
        <time>2021-03-10T07:38:48Z</time>
      </trkpt>
      <trkpt lat="45.10123" lon="6.07881">
        <ele>1981.8</ele>
        <time>2021-03-10T07:38:49Z</time>
      </trkpt>
      <trkpt lat="45.10123" lon="6.07883">
        <ele>1981.8</ele>
        <time>2021-03-10T07:38:50Z</time>
      </trkpt>
      <trkpt lat="45.10123" lon="6.07884">
        <ele>1982.3</ele>
        <time>2021-03-10T07:38:51Z</time>
      </trkpt>
      <trkpt lat="45.10124" lon="6.07885">
        <ele>1982.3</ele>
        <time>2021-03-10T07:38:52Z</time>
      </trkpt>
      <trkpt lat="45.10125" lon="6.07886">
        <ele>1982.5</ele>
        <time>2021-03-10T07:38:53Z</time>
      </trkpt>
      <trkpt lat="45.10126" lon="6.07886">
        <ele>1982.5</ele>
        <time>2021-03-10T07:38:54Z</time>
      </trkpt>
      <trkpt lat="45.10127" lon="6.07886">
        <ele>1982.5</ele>
        <time>2021-03-10T07:38:55Z</time>
      </trkpt>
      <trkpt lat="45.10128" lon="6.07887">
        <ele>1982.8</ele>
        <time>2021-03-10T07:38:56Z</time>
      </trkpt>
      <trkpt lat="45.10129" lon="6.07887">
        <ele>1982.8</ele>
        <time>2021-03-10T07:38:57Z</time>
      </trkpt>
      <trkpt lat="45.1013" lon="6.07887">
        <ele>1982.8</ele>
        <time>2021-03-10T07:38:58Z</time>
      </trkpt>
      <trkpt lat="45.10131" lon="6.07887">
        <ele>1983.2</ele>
        <time>2021-03-10T07:38:59Z</time>
      </trkpt>
      <trkpt lat="45.10131" lon="6.07887">
        <ele>1983.2</ele>
        <time>2021-03-10T07:39:00Z</time>
      </trkpt>
      <trkpt lat="45.10132" lon="6.07887">
        <ele>1983.2</ele>
        <time>2021-03-10T07:39:01Z</time>
      </trkpt>
      <trkpt lat="45.10132" lon="6.07887">
        <ele>1983.2</ele>
        <time>2021-03-10T07:39:02Z</time>
      </trkpt>
      <trkpt lat="45.10133" lon="6.07887">
        <ele>1983.6</ele>
        <time>2021-03-10T07:39:03Z</time>
      </trkpt>
      <trkpt lat="45.10134" lon="6.07888">
        <ele>1984</ele>
        <time>2021-03-10T07:39:04Z</time>
      </trkpt>
      <trkpt lat="45.10135" lon="6.07888">
        <ele>1984</ele>
        <time>2021-03-10T07:39:05Z</time>
      </trkpt>
      <trkpt lat="45.10136" lon="6.07888">
        <ele>1984</ele>
        <time>2021-03-10T07:39:06Z</time>
      </trkpt>
      <trkpt lat="45.10137" lon="6.07888">
        <ele>1984.4</ele>
        <time>2021-03-10T07:39:07Z</time>
      </trkpt>
      <trkpt lat="45.10138" lon="6.07888">
        <ele>1984.4</ele>
        <time>2021-03-10T07:39:08Z</time>
      </trkpt>
      <trkpt lat="45.10138" lon="6.07889">
        <ele>1984.4</ele>
        <time>2021-03-10T07:39:09Z</time>
      </trkpt>
      <trkpt lat="45.10139" lon="6.07889">
        <ele>1984.4</ele>
        <time>2021-03-10T07:39:10Z</time>
      </trkpt>
      <trkpt lat="45.1014" lon="6.07889">
        <ele>1984.4</ele>
        <time>2021-03-10T07:39:11Z</time>
      </trkpt>
      <trkpt lat="45.1014" lon="6.07889">
        <ele>1984.9</ele>
        <time>2021-03-10T07:39:12Z</time>
      </trkpt>
      <trkpt lat="45.10141" lon="6.0789">
        <ele>1984.9</ele>
        <time>2021-03-10T07:39:13Z</time>
      </trkpt>
      <trkpt lat="45.10142" lon="6.0789">
        <ele>1984.9</ele>
        <time>2021-03-10T07:39:14Z</time>
      </trkpt>
      <trkpt lat="45.10143" lon="6.07891">
        <ele>1985.4</ele>
        <time>2021-03-10T07:39:15Z</time>
      </trkpt>
      <trkpt lat="45.10143" lon="6.07892">
        <ele>1985.8</ele>
        <time>2021-03-10T07:39:16Z</time>
      </trkpt>
      <trkpt lat="45.10144" lon="6.07893">
        <ele>1985.8</ele>
        <time>2021-03-10T07:39:17Z</time>
      </trkpt>
      <trkpt lat="45.10144" lon="6.07894">
        <ele>1985.8</ele>
        <time>2021-03-10T07:39:18Z</time>
      </trkpt>
      <trkpt lat="45.10145" lon="6.07895">
        <ele>1985.8</ele>
        <time>2021-03-10T07:39:19Z</time>
      </trkpt>
      <trkpt lat="45.10145" lon="6.07896">
        <ele>1986.2</ele>
        <time>2021-03-10T07:39:20Z</time>
      </trkpt>
      <trkpt lat="45.10145" lon="6.07898">
        <ele>1986.2</ele>
        <time>2021-03-10T07:39:21Z</time>
      </trkpt>
      <trkpt lat="45.10146" lon="6.07899">
        <ele>1986.2</ele>
        <time>2021-03-10T07:39:22Z</time>
      </trkpt>
      <trkpt lat="45.10146" lon="6.079">
        <ele>1986.9</ele>
        <time>2021-03-10T07:39:23Z</time>
      </trkpt>
      <trkpt lat="45.10146" lon="6.07902">
        <ele>1986.9</ele>
        <time>2021-03-10T07:39:24Z</time>
      </trkpt>
      <trkpt lat="45.10146" lon="6.07903">
        <ele>1986.9</ele>
        <time>2021-03-10T07:39:25Z</time>
      </trkpt>
      <trkpt lat="45.10146" lon="6.07904">
        <ele>1986.9</ele>
        <time>2021-03-10T07:39:26Z</time>
      </trkpt>
      <trkpt lat="45.10146" lon="6.07905">
        <ele>1987.3</ele>
        <time>2021-03-10T07:39:27Z</time>
      </trkpt>
      <trkpt lat="45.10147" lon="6.07906">
        <ele>1987.3</ele>
        <time>2021-03-10T07:39:28Z</time>
      </trkpt>
      <trkpt lat="45.10147" lon="6.07907">
        <ele>1987.3</ele>
        <time>2021-03-10T07:39:29Z</time>
      </trkpt>
      <trkpt lat="45.10147" lon="6.07908">
        <ele>1987.3</ele>
        <time>2021-03-10T07:39:30Z</time>
      </trkpt>
      <trkpt lat="45.10147" lon="6.07909">
        <ele>1987.7</ele>
        <time>2021-03-10T07:39:31Z</time>
      </trkpt>
      <trkpt lat="45.10147" lon="6.0791">
        <ele>1987.7</ele>
        <time>2021-03-10T07:39:32Z</time>
      </trkpt>
      <trkpt lat="45.10148" lon="6.07911">
        <ele>1987.7</ele>
        <time>2021-03-10T07:39:33Z</time>
      </trkpt>
      <trkpt lat="45.10148" lon="6.07912">
        <ele>1987.7</ele>
        <time>2021-03-10T07:39:34Z</time>
      </trkpt>
      <trkpt lat="45.10148" lon="6.07913">
        <ele>1987.7</ele>
        <time>2021-03-10T07:39:35Z</time>
      </trkpt>
      <trkpt lat="45.10148" lon="6.07914">
        <ele>1988.1</ele>
        <time>2021-03-10T07:39:36Z</time>
      </trkpt>
      <trkpt lat="45.10148" lon="6.07915">
        <ele>1988.1</ele>
        <time>2021-03-10T07:39:37Z</time>
      </trkpt>
      <trkpt lat="45.10148" lon="6.07916">
        <ele>1988.1</ele>
        <time>2021-03-10T07:39:38Z</time>
      </trkpt>
      <trkpt lat="45.10149" lon="6.07917">
        <ele>1988.1</ele>
        <time>2021-03-10T07:39:39Z</time>
      </trkpt>
      <trkpt lat="45.10149" lon="6.07918">
        <ele>1988.8</ele>
        <time>2021-03-10T07:39:40Z</time>
      </trkpt>
      <trkpt lat="45.10149" lon="6.07919">
        <ele>1988.8</ele>
        <time>2021-03-10T07:39:41Z</time>
      </trkpt>
      <trkpt lat="45.10149" lon="6.0792">
        <ele>1988.8</ele>
        <time>2021-03-10T07:39:42Z</time>
      </trkpt>
      <trkpt lat="45.10149" lon="6.07921">
        <ele>1988.8</ele>
        <time>2021-03-10T07:39:43Z</time>
      </trkpt>
      <trkpt lat="45.1015" lon="6.07922">
        <ele>1988.8</ele>
        <time>2021-03-10T07:39:44Z</time>
      </trkpt>
      <trkpt lat="45.1015" lon="6.07923">
        <ele>1989.3</ele>
        <time>2021-03-10T07:39:45Z</time>
      </trkpt>
      <trkpt lat="45.1015" lon="6.07924">
        <ele>1989.3</ele>
        <time>2021-03-10T07:39:46Z</time>
      </trkpt>
      <trkpt lat="45.1015" lon="6.07926">
        <ele>1989.3</ele>
        <time>2021-03-10T07:39:47Z</time>
      </trkpt>
      <trkpt lat="45.10151" lon="6.07927">
        <ele>1989.7</ele>
        <time>2021-03-10T07:39:48Z</time>
      </trkpt>
      <trkpt lat="45.10151" lon="6.07929">
        <ele>1989.7</ele>
        <time>2021-03-10T07:39:49Z</time>
      </trkpt>
      <trkpt lat="45.10151" lon="6.0793">
        <ele>1989.7</ele>
        <time>2021-03-10T07:39:50Z</time>
      </trkpt>
      <trkpt lat="45.10151" lon="6.07931">
        <ele>1990.2</ele>
        <time>2021-03-10T07:39:51Z</time>
      </trkpt>
      <trkpt lat="45.10151" lon="6.07932">
        <ele>1990.2</ele>
        <time>2021-03-10T07:39:52Z</time>
      </trkpt>
      <trkpt lat="45.10151" lon="6.07934">
        <ele>1990.2</ele>
        <time>2021-03-10T07:39:53Z</time>
      </trkpt>
      <trkpt lat="45.10151" lon="6.07935">
        <ele>1990.6</ele>
        <time>2021-03-10T07:39:54Z</time>
      </trkpt>
      <trkpt lat="45.10151" lon="6.07936">
        <ele>1990.6</ele>
        <time>2021-03-10T07:39:55Z</time>
      </trkpt>
      <trkpt lat="45.10151" lon="6.07937">
        <ele>1990.6</ele>
        <time>2021-03-10T07:39:56Z</time>
      </trkpt>
      <trkpt lat="45.10151" lon="6.07939">
        <ele>1991.1</ele>
        <time>2021-03-10T07:39:57Z</time>
      </trkpt>
      <trkpt lat="45.10152" lon="6.0794">
        <ele>1991.1</ele>
        <time>2021-03-10T07:39:58Z</time>
      </trkpt>
      <trkpt lat="45.10152" lon="6.07941">
        <ele>1991.1</ele>
        <time>2021-03-10T07:39:59Z</time>
      </trkpt>
      <trkpt lat="45.10152" lon="6.07942">
        <ele>1991.5</ele>
        <time>2021-03-10T07:40:00Z</time>
      </trkpt>
      <trkpt lat="45.10152" lon="6.07944">
        <ele>1992</ele>
        <time>2021-03-10T07:40:01Z</time>
      </trkpt>
      <trkpt lat="45.10153" lon="6.07945">
        <ele>1992</ele>
        <time>2021-03-10T07:40:02Z</time>
      </trkpt>
      <trkpt lat="45.10153" lon="6.07946">
        <ele>1992</ele>
        <time>2021-03-10T07:40:03Z</time>
      </trkpt>
      <trkpt lat="45.10153" lon="6.07948">
        <ele>1992.5</ele>
        <time>2021-03-10T07:40:04Z</time>
      </trkpt>
      <trkpt lat="45.10153" lon="6.07949">
        <ele>1992.5</ele>
        <time>2021-03-10T07:40:05Z</time>
      </trkpt>
      <trkpt lat="45.10154" lon="6.0795">
        <ele>1992.5</ele>
        <time>2021-03-10T07:40:06Z</time>
      </trkpt>
      <trkpt lat="45.10155" lon="6.07951">
        <ele>1992.5</ele>
        <time>2021-03-10T07:40:07Z</time>
      </trkpt>
      <trkpt lat="45.10155" lon="6.07951">
        <ele>1992.9</ele>
        <time>2021-03-10T07:40:08Z</time>
      </trkpt>
      <trkpt lat="45.10156" lon="6.07952">
        <ele>1993.4</ele>
        <time>2021-03-10T07:40:09Z</time>
      </trkpt>
      <trkpt lat="45.10157" lon="6.07952">
        <ele>1993.4</ele>
        <time>2021-03-10T07:40:10Z</time>
      </trkpt>
      <trkpt lat="45.10158" lon="6.07953">
        <ele>1993.9</ele>
        <time>2021-03-10T07:40:11Z</time>
      </trkpt>
      <trkpt lat="45.10159" lon="6.07953">
        <ele>1993.9</ele>
        <time>2021-03-10T07:40:12Z</time>
      </trkpt>
      <trkpt lat="45.1016" lon="6.07953">
        <ele>1993.9</ele>
        <time>2021-03-10T07:40:13Z</time>
      </trkpt>
      <trkpt lat="45.1016" lon="6.07953">
        <ele>1993.9</ele>
        <time>2021-03-10T07:40:14Z</time>
      </trkpt>
      <trkpt lat="45.10161" lon="6.07953">
        <ele>1994.5</ele>
        <time>2021-03-10T07:40:15Z</time>
      </trkpt>
      <trkpt lat="45.10162" lon="6.07953">
        <ele>1994.5</ele>
        <time>2021-03-10T07:40:16Z</time>
      </trkpt>
      <trkpt lat="45.10162" lon="6.07954">
        <ele>1994.5</ele>
        <time>2021-03-10T07:40:17Z</time>
      </trkpt>
      <trkpt lat="45.10163" lon="6.07954">
        <ele>1994.5</ele>
        <time>2021-03-10T07:40:18Z</time>
      </trkpt>
      <trkpt lat="45.10164" lon="6.07955">
        <ele>1994.5</ele>
        <time>2021-03-10T07:40:19Z</time>
      </trkpt>
      <trkpt lat="45.10164" lon="6.07955">
        <ele>1995</ele>
        <time>2021-03-10T07:40:20Z</time>
      </trkpt>
      <trkpt lat="45.10165" lon="6.07956">
        <ele>1995</ele>
        <time>2021-03-10T07:40:21Z</time>
      </trkpt>
      <trkpt lat="45.10166" lon="6.07956">
        <ele>1995.5</ele>
        <time>2021-03-10T07:40:22Z</time>
      </trkpt>
      <trkpt lat="45.10167" lon="6.07957">
        <ele>1995.5</ele>
        <time>2021-03-10T07:40:23Z</time>
      </trkpt>
      <trkpt lat="45.10168" lon="6.07957">
        <ele>1996.1</ele>
        <time>2021-03-10T07:40:24Z</time>
      </trkpt>
      <trkpt lat="45.10168" lon="6.07957">
        <ele>1996.1</ele>
        <time>2021-03-10T07:40:25Z</time>
      </trkpt>
      <trkpt lat="45.10169" lon="6.07957">
        <ele>1996.1</ele>
        <time>2021-03-10T07:40:26Z</time>
      </trkpt>
      <trkpt lat="45.10169" lon="6.07958">
        <ele>1996.1</ele>
        <time>2021-03-10T07:40:27Z</time>
      </trkpt>
      <trkpt lat="45.1017" lon="6.07958">
        <ele>1996.6</ele>
        <time>2021-03-10T07:40:28Z</time>
      </trkpt>
      <trkpt lat="45.10171" lon="6.07959">
        <ele>1996.6</ele>
        <time>2021-03-10T07:40:29Z</time>
      </trkpt>
      <trkpt lat="45.10171" lon="6.07959">
        <ele>1996.6</ele>
        <time>2021-03-10T07:40:30Z</time>
      </trkpt>
      <trkpt lat="45.10172" lon="6.0796">
        <ele>1996.6</ele>
        <time>2021-03-10T07:40:31Z</time>
      </trkpt>
      <trkpt lat="45.10172" lon="6.07961">
        <ele>1997.1</ele>
        <time>2021-03-10T07:40:32Z</time>
      </trkpt>
      <trkpt lat="45.10173" lon="6.07962">
        <ele>1997.1</ele>
        <time>2021-03-10T07:40:33Z</time>
      </trkpt>
      <trkpt lat="45.10173" lon="6.07963">
        <ele>1997.7</ele>
        <time>2021-03-10T07:40:34Z</time>
      </trkpt>
      <trkpt lat="45.10173" lon="6.07964">
        <ele>1997.7</ele>
        <time>2021-03-10T07:40:35Z</time>
      </trkpt>
      <trkpt lat="45.10174" lon="6.07965">
        <ele>1998.2</ele>
        <time>2021-03-10T07:40:36Z</time>
      </trkpt>
      <trkpt lat="45.10174" lon="6.07966">
        <ele>1998.2</ele>
        <time>2021-03-10T07:40:37Z</time>
      </trkpt>
      <trkpt lat="45.10174" lon="6.07967">
        <ele>1998.2</ele>
        <time>2021-03-10T07:40:38Z</time>
      </trkpt>
      <trkpt lat="45.10174" lon="6.07968">
        <ele>1998.2</ele>
        <time>2021-03-10T07:40:39Z</time>
      </trkpt>
      <trkpt lat="45.10174" lon="6.07969">
        <ele>1998.7</ele>
        <time>2021-03-10T07:40:40Z</time>
      </trkpt>
      <trkpt lat="45.10174" lon="6.0797">
        <ele>1998.7</ele>
        <time>2021-03-10T07:40:41Z</time>
      </trkpt>
      <trkpt lat="45.10175" lon="6.07972">
        <ele>1998.7</ele>
        <time>2021-03-10T07:40:42Z</time>
      </trkpt>
      <trkpt lat="45.10175" lon="6.07973">
        <ele>1998.7</ele>
        <time>2021-03-10T07:40:43Z</time>
      </trkpt>
      <trkpt lat="45.10175" lon="6.07974">
        <ele>1999.3</ele>
        <time>2021-03-10T07:40:44Z</time>
      </trkpt>
      <trkpt lat="45.10175" lon="6.07975">
        <ele>1999.3</ele>
        <time>2021-03-10T07:40:45Z</time>
      </trkpt>
      <trkpt lat="45.10175" lon="6.07976">
        <ele>1999.3</ele>
        <time>2021-03-10T07:40:46Z</time>
      </trkpt>
      <trkpt lat="45.10176" lon="6.07978">
        <ele>1999.8</ele>
        <time>2021-03-10T07:40:47Z</time>
      </trkpt>
      <trkpt lat="45.10176" lon="6.07979">
        <ele>1999.8</ele>
        <time>2021-03-10T07:40:48Z</time>
      </trkpt>
      <trkpt lat="45.10176" lon="6.0798">
        <ele>1999.8</ele>
        <time>2021-03-10T07:40:49Z</time>
      </trkpt>
      <trkpt lat="45.10176" lon="6.07981">
        <ele>2000.4</ele>
        <time>2021-03-10T07:40:50Z</time>
      </trkpt>
      <trkpt lat="45.10177" lon="6.07983">
        <ele>2000.9</ele>
        <time>2021-03-10T07:40:51Z</time>
      </trkpt>
      <trkpt lat="45.10177" lon="6.07984">
        <ele>2000.9</ele>
        <time>2021-03-10T07:40:52Z</time>
      </trkpt>
      <trkpt lat="45.10177" lon="6.07985">
        <ele>2000.9</ele>
        <time>2021-03-10T07:40:53Z</time>
      </trkpt>
      <trkpt lat="45.10178" lon="6.07987">
        <ele>2001.4</ele>
        <time>2021-03-10T07:40:54Z</time>
      </trkpt>
      <trkpt lat="45.10178" lon="6.07988">
        <ele>2001.4</ele>
        <time>2021-03-10T07:40:55Z</time>
      </trkpt>
      <trkpt lat="45.10178" lon="6.07989">
        <ele>2001.4</ele>
        <time>2021-03-10T07:40:56Z</time>
      </trkpt>
      <trkpt lat="45.10178" lon="6.0799">
        <ele>2001.8</ele>
        <time>2021-03-10T07:40:57Z</time>
      </trkpt>
      <trkpt lat="45.10179" lon="6.07992">
        <ele>2001.8</ele>
        <time>2021-03-10T07:40:58Z</time>
      </trkpt>
      <trkpt lat="45.10179" lon="6.07993">
        <ele>2001.8</ele>
        <time>2021-03-10T07:40:59Z</time>
      </trkpt>
      <trkpt lat="45.10179" lon="6.07994">
        <ele>2002.4</ele>
        <time>2021-03-10T07:41:00Z</time>
      </trkpt>
      <trkpt lat="45.10179" lon="6.07995">
        <ele>2002.9</ele>
        <time>2021-03-10T07:41:01Z</time>
      </trkpt>
      <trkpt lat="45.10179" lon="6.07996">
        <ele>2002.9</ele>
        <time>2021-03-10T07:41:02Z</time>
      </trkpt>
      <trkpt lat="45.10179" lon="6.07997">
        <ele>2002.9</ele>
        <time>2021-03-10T07:41:03Z</time>
      </trkpt>
      <trkpt lat="45.10179" lon="6.07998">
        <ele>2002.3</ele>
        <time>2021-03-10T07:41:04Z</time>
      </trkpt>
      <trkpt lat="45.10179" lon="6.07999">
        <ele>2002.8</ele>
        <time>2021-03-10T07:41:05Z</time>
      </trkpt>
      <trkpt lat="45.10179" lon="6.08001">
        <ele>2003.5</ele>
        <time>2021-03-10T07:41:06Z</time>
      </trkpt>
      <trkpt lat="45.10179" lon="6.08002">
        <ele>2003.5</ele>
        <time>2021-03-10T07:41:07Z</time>
      </trkpt>
      <trkpt lat="45.1018" lon="6.08003">
        <ele>2003.5</ele>
        <time>2021-03-10T07:41:08Z</time>
      </trkpt>
      <trkpt lat="45.1018" lon="6.08004">
        <ele>2004</ele>
        <time>2021-03-10T07:41:09Z</time>
      </trkpt>
      <trkpt lat="45.1018" lon="6.08005">
        <ele>2004</ele>
        <time>2021-03-10T07:41:10Z</time>
      </trkpt>
      <trkpt lat="45.1018" lon="6.08007">
        <ele>2004</ele>
        <time>2021-03-10T07:41:11Z</time>
      </trkpt>
      <trkpt lat="45.10181" lon="6.08008">
        <ele>2004.7</ele>
        <time>2021-03-10T07:41:12Z</time>
      </trkpt>
      <trkpt lat="45.10181" lon="6.08009">
        <ele>2004.7</ele>
        <time>2021-03-10T07:41:13Z</time>
      </trkpt>
      <trkpt lat="45.10181" lon="6.0801">
        <ele>2004.7</ele>
        <time>2021-03-10T07:41:14Z</time>
      </trkpt>
      <trkpt lat="45.10181" lon="6.08012">
        <ele>2004.7</ele>
        <time>2021-03-10T07:41:15Z</time>
      </trkpt>
      <trkpt lat="45.10182" lon="6.08013">
        <ele>2005.3</ele>
        <time>2021-03-10T07:41:16Z</time>
      </trkpt>
      <trkpt lat="45.10182" lon="6.08014">
        <ele>2005.3</ele>
        <time>2021-03-10T07:41:17Z</time>
      </trkpt>
      <trkpt lat="45.10182" lon="6.08015">
        <ele>2006</ele>
        <time>2021-03-10T07:41:18Z</time>
      </trkpt>
      <trkpt lat="45.10182" lon="6.08017">
        <ele>2006.7</ele>
        <time>2021-03-10T07:41:19Z</time>
      </trkpt>
      <trkpt lat="45.10183" lon="6.08018">
        <ele>2006.7</ele>
        <time>2021-03-10T07:41:20Z</time>
      </trkpt>
      <trkpt lat="45.10183" lon="6.08019">
        <ele>2006.7</ele>
        <time>2021-03-10T07:41:21Z</time>
      </trkpt>
      <trkpt lat="45.10183" lon="6.08021">
        <ele>2007.5</ele>
        <time>2021-03-10T07:41:22Z</time>
      </trkpt>
      <trkpt lat="45.10183" lon="6.08022">
        <ele>2007.5</ele>
        <time>2021-03-10T07:41:23Z</time>
      </trkpt>
      <trkpt lat="45.10183" lon="6.08023">
        <ele>2007.5</ele>
        <time>2021-03-10T07:41:24Z</time>
      </trkpt>
      <trkpt lat="45.10183" lon="6.08025">
        <ele>2007.5</ele>
        <time>2021-03-10T07:41:25Z</time>
      </trkpt>
      <trkpt lat="45.10182" lon="6.08026">
        <ele>2008.2</ele>
        <time>2021-03-10T07:41:26Z</time>
      </trkpt>
      <trkpt lat="45.10182" lon="6.08028">
        <ele>2008.2</ele>
        <time>2021-03-10T07:41:27Z</time>
      </trkpt>
      <trkpt lat="45.10182" lon="6.08029">
        <ele>2008.2</ele>
        <time>2021-03-10T07:41:28Z</time>
      </trkpt>
      <trkpt lat="45.10183" lon="6.0803">
        <ele>2009</ele>
        <time>2021-03-10T07:41:29Z</time>
      </trkpt>
      <trkpt lat="45.10183" lon="6.08031">
        <ele>2009</ele>
        <time>2021-03-10T07:41:30Z</time>
      </trkpt>
      <trkpt lat="45.10183" lon="6.08032">
        <ele>2009</ele>
        <time>2021-03-10T07:41:31Z</time>
      </trkpt>
      <trkpt lat="45.10183" lon="6.08034">
        <ele>2009.7</ele>
        <time>2021-03-10T07:41:32Z</time>
      </trkpt>
      <trkpt lat="45.10183" lon="6.08035">
        <ele>2009.7</ele>
        <time>2021-03-10T07:41:33Z</time>
      </trkpt>
      <trkpt lat="45.10183" lon="6.08036">
        <ele>2009.7</ele>
        <time>2021-03-10T07:41:34Z</time>
      </trkpt>
      <trkpt lat="45.10184" lon="6.08038">
        <ele>2010.4</ele>
        <time>2021-03-10T07:41:35Z</time>
      </trkpt>
      <trkpt lat="45.10184" lon="6.08039">
        <ele>2010.4</ele>
        <time>2021-03-10T07:41:36Z</time>
      </trkpt>
      <trkpt lat="45.10185" lon="6.0804">
        <ele>2011.1</ele>
        <time>2021-03-10T07:41:37Z</time>
      </trkpt>
      <trkpt lat="45.10186" lon="6.0804">
        <ele>2011.1</ele>
        <time>2021-03-10T07:41:38Z</time>
      </trkpt>
      <trkpt lat="45.10187" lon="6.08041">
        <ele>2011.1</ele>
        <time>2021-03-10T07:41:39Z</time>
      </trkpt>
      <trkpt lat="45.10188" lon="6.08041">
        <ele>2011.1</ele>
        <time>2021-03-10T07:41:40Z</time>
      </trkpt>
      <trkpt lat="45.10189" lon="6.08042">
        <ele>2012.4</ele>
        <time>2021-03-10T07:41:41Z</time>
      </trkpt>
      <trkpt lat="45.10189" lon="6.08042">
        <ele>2012.4</ele>
        <time>2021-03-10T07:41:42Z</time>
      </trkpt>
      <trkpt lat="45.1019" lon="6.08043">
        <ele>2012.4</ele>
        <time>2021-03-10T07:41:43Z</time>
      </trkpt>
      <trkpt lat="45.10191" lon="6.08043">
        <ele>2013</ele>
        <time>2021-03-10T07:41:44Z</time>
      </trkpt>
      <trkpt lat="45.10192" lon="6.08044">
        <ele>2013</ele>
        <time>2021-03-10T07:41:45Z</time>
      </trkpt>
      <trkpt lat="45.10193" lon="6.08045">
        <ele>2013</ele>
        <time>2021-03-10T07:41:46Z</time>
      </trkpt>
      <trkpt lat="45.10194" lon="6.08045">
        <ele>2013.7</ele>
        <time>2021-03-10T07:41:47Z</time>
      </trkpt>
      <trkpt lat="45.10195" lon="6.08045">
        <ele>2013.7</ele>
        <time>2021-03-10T07:41:48Z</time>
      </trkpt>
      <trkpt lat="45.10196" lon="6.08046">
        <ele>2013.7</ele>
        <time>2021-03-10T07:41:49Z</time>
      </trkpt>
      <trkpt lat="45.10197" lon="6.08046">
        <ele>2014.3</ele>
        <time>2021-03-10T07:41:50Z</time>
      </trkpt>
      <trkpt lat="45.10198" lon="6.08046">
        <ele>2014.3</ele>
        <time>2021-03-10T07:41:51Z</time>
      </trkpt>
      <trkpt lat="45.10199" lon="6.08046">
        <ele>2014.9</ele>
        <time>2021-03-10T07:41:52Z</time>
      </trkpt>
      <trkpt lat="45.10201" lon="6.08047">
        <ele>2015.5</ele>
        <time>2021-03-10T07:41:53Z</time>
      </trkpt>
      <trkpt lat="45.10201" lon="6.08047">
        <ele>2015.5</ele>
        <time>2021-03-10T07:41:54Z</time>
      </trkpt>
      <trkpt lat="45.10202" lon="6.08048">
        <ele>2015.5</ele>
        <time>2021-03-10T07:41:55Z</time>
      </trkpt>
      <trkpt lat="45.10202" lon="6.08048">
        <ele>2015.5</ele>
        <time>2021-03-10T07:41:56Z</time>
      </trkpt>
      <trkpt lat="45.10203" lon="6.08049">
        <ele>2015.5</ele>
        <time>2021-03-10T07:41:57Z</time>
      </trkpt>
      <trkpt lat="45.10204" lon="6.08049">
        <ele>2016.1</ele>
        <time>2021-03-10T07:41:58Z</time>
      </trkpt>
      <trkpt lat="45.10205" lon="6.0805">
        <ele>2016.1</ele>
        <time>2021-03-10T07:41:59Z</time>
      </trkpt>
      <trkpt lat="45.10205" lon="6.08051">
        <ele>2016.7</ele>
        <time>2021-03-10T07:42:00Z</time>
      </trkpt>
      <trkpt lat="45.10206" lon="6.08051">
        <ele>2016.7</ele>
        <time>2021-03-10T07:42:01Z</time>
      </trkpt>
      <trkpt lat="45.10207" lon="6.08052">
        <ele>2017.3</ele>
        <time>2021-03-10T07:42:02Z</time>
      </trkpt>
      <trkpt lat="45.10207" lon="6.08053">
        <ele>2017.3</ele>
        <time>2021-03-10T07:42:03Z</time>
      </trkpt>
      <trkpt lat="45.10208" lon="6.08054">
        <ele>2017.3</ele>
        <time>2021-03-10T07:42:04Z</time>
      </trkpt>
      <trkpt lat="45.10208" lon="6.08055">
        <ele>2017.9</ele>
        <time>2021-03-10T07:42:05Z</time>
      </trkpt>
      <trkpt lat="45.10208" lon="6.08056">
        <ele>2017.9</ele>
        <time>2021-03-10T07:42:06Z</time>
      </trkpt>
      <trkpt lat="45.10209" lon="6.08057">
        <ele>2017.9</ele>
        <time>2021-03-10T07:42:07Z</time>
      </trkpt>
      <trkpt lat="45.10209" lon="6.08058">
        <ele>2017.9</ele>
        <time>2021-03-10T07:42:08Z</time>
      </trkpt>
      <trkpt lat="45.10209" lon="6.08059">
        <ele>2018.4</ele>
        <time>2021-03-10T07:42:09Z</time>
      </trkpt>
      <trkpt lat="45.1021" lon="6.0806">
        <ele>2019.1</ele>
        <time>2021-03-10T07:42:10Z</time>
      </trkpt>
      <trkpt lat="45.1021" lon="6.08061">
        <ele>2019.1</ele>
        <time>2021-03-10T07:42:11Z</time>
      </trkpt>
      <trkpt lat="45.1021" lon="6.08062">
        <ele>2019.1</ele>
        <time>2021-03-10T07:42:12Z</time>
      </trkpt>
      <trkpt lat="45.10211" lon="6.08063">
        <ele>2019.1</ele>
        <time>2021-03-10T07:42:13Z</time>
      </trkpt>
      <trkpt lat="45.10211" lon="6.08064">
        <ele>2019.7</ele>
        <time>2021-03-10T07:42:14Z</time>
      </trkpt>
      <trkpt lat="45.10211" lon="6.08064">
        <ele>2019.7</ele>
        <time>2021-03-10T07:42:15Z</time>
      </trkpt>
      <trkpt lat="45.10212" lon="6.08065">
        <ele>2019.7</ele>
        <time>2021-03-10T07:42:16Z</time>
      </trkpt>
      <trkpt lat="45.10212" lon="6.08066">
        <ele>2020.2</ele>
        <time>2021-03-10T07:42:17Z</time>
      </trkpt>
      <trkpt lat="45.10213" lon="6.08068">
        <ele>2020.2</ele>
        <time>2021-03-10T07:42:18Z</time>
      </trkpt>
      <trkpt lat="45.10213" lon="6.08069">
        <ele>2020.8</ele>
        <time>2021-03-10T07:42:19Z</time>
      </trkpt>
      <trkpt lat="45.10213" lon="6.0807">
        <ele>2020.8</ele>
        <time>2021-03-10T07:42:20Z</time>
      </trkpt>
      <trkpt lat="45.10214" lon="6.0807">
        <ele>2020.8</ele>
        <time>2021-03-10T07:42:21Z</time>
      </trkpt>
      <trkpt lat="45.10214" lon="6.08071">
        <ele>2020.8</ele>
        <time>2021-03-10T07:42:22Z</time>
      </trkpt>
      <trkpt lat="45.10214" lon="6.08073">
        <ele>2021.3</ele>
        <time>2021-03-10T07:42:23Z</time>
      </trkpt>
      <trkpt lat="45.10214" lon="6.08074">
        <ele>2021.3</ele>
        <time>2021-03-10T07:42:24Z</time>
      </trkpt>
      <trkpt lat="45.10214" lon="6.08075">
        <ele>2021.3</ele>
        <time>2021-03-10T07:42:25Z</time>
      </trkpt>
      <trkpt lat="45.10215" lon="6.08076">
        <ele>2021.3</ele>
        <time>2021-03-10T07:42:26Z</time>
      </trkpt>
      <trkpt lat="45.10215" lon="6.08077">
        <ele>2021.8</ele>
        <time>2021-03-10T07:42:27Z</time>
      </trkpt>
      <trkpt lat="45.10216" lon="6.08078">
        <ele>2022.3</ele>
        <time>2021-03-10T07:42:28Z</time>
      </trkpt>
      <trkpt lat="45.10216" lon="6.08079">
        <ele>2022.3</ele>
        <time>2021-03-10T07:42:29Z</time>
      </trkpt>
      <trkpt lat="45.10216" lon="6.0808">
        <ele>2022.3</ele>
        <time>2021-03-10T07:42:30Z</time>
      </trkpt>
      <trkpt lat="45.10217" lon="6.08081">
        <ele>2022.8</ele>
        <time>2021-03-10T07:42:31Z</time>
      </trkpt>
      <trkpt lat="45.10217" lon="6.08082">
        <ele>2022.8</ele>
        <time>2021-03-10T07:42:32Z</time>
      </trkpt>
      <trkpt lat="45.10217" lon="6.08083">
        <ele>2022.8</ele>
        <time>2021-03-10T07:42:33Z</time>
      </trkpt>
      <trkpt lat="45.10218" lon="6.08084">
        <ele>2022.8</ele>
        <time>2021-03-10T07:42:34Z</time>
      </trkpt>
      <trkpt lat="45.10218" lon="6.08085">
        <ele>2023.3</ele>
        <time>2021-03-10T07:42:35Z</time>
      </trkpt>
      <trkpt lat="45.10218" lon="6.08086">
        <ele>2023.3</ele>
        <time>2021-03-10T07:42:36Z</time>
      </trkpt>
      <trkpt lat="45.10218" lon="6.08087">
        <ele>2023.3</ele>
        <time>2021-03-10T07:42:37Z</time>
      </trkpt>
      <trkpt lat="45.10219" lon="6.08088">
        <ele>2023.8</ele>
        <time>2021-03-10T07:42:38Z</time>
      </trkpt>
      <trkpt lat="45.10219" lon="6.08089">
        <ele>2024.2</ele>
        <time>2021-03-10T07:42:39Z</time>
      </trkpt>
      <trkpt lat="45.10219" lon="6.08091">
        <ele>2024.2</ele>
        <time>2021-03-10T07:42:40Z</time>
      </trkpt>
      <trkpt lat="45.1022" lon="6.08092">
        <ele>2024.2</ele>
        <time>2021-03-10T07:42:41Z</time>
      </trkpt>
      <trkpt lat="45.1022" lon="6.08093">
        <ele>2024.2</ele>
        <time>2021-03-10T07:42:42Z</time>
      </trkpt>
      <trkpt lat="45.10221" lon="6.08093">
        <ele>2024.7</ele>
        <time>2021-03-10T07:42:43Z</time>
      </trkpt>
      <trkpt lat="45.10221" lon="6.08094">
        <ele>2024.7</ele>
        <time>2021-03-10T07:42:44Z</time>
      </trkpt>
      <trkpt lat="45.10222" lon="6.08095">
        <ele>2025.2</ele>
        <time>2021-03-10T07:42:45Z</time>
      </trkpt>
      <trkpt lat="45.10222" lon="6.08096">
        <ele>2025.2</ele>
        <time>2021-03-10T07:42:46Z</time>
      </trkpt>
      <trkpt lat="45.10223" lon="6.08098">
        <ele>2025.7</ele>
        <time>2021-03-10T07:42:47Z</time>
      </trkpt>
      <trkpt lat="45.10223" lon="6.08099">
        <ele>2025.7</ele>
        <time>2021-03-10T07:42:48Z</time>
      </trkpt>
      <trkpt lat="45.10223" lon="6.081">
        <ele>2025.7</ele>
        <time>2021-03-10T07:42:49Z</time>
      </trkpt>
      <trkpt lat="45.10224" lon="6.08102">
        <ele>2026.2</ele>
        <time>2021-03-10T07:42:50Z</time>
      </trkpt>
      <trkpt lat="45.10224" lon="6.08103">
        <ele>2026.2</ele>
        <time>2021-03-10T07:42:51Z</time>
      </trkpt>
      <trkpt lat="45.10224" lon="6.08105">
        <ele>2026.2</ele>
        <time>2021-03-10T07:42:52Z</time>
      </trkpt>
      <trkpt lat="45.10224" lon="6.08106">
        <ele>2026.2</ele>
        <time>2021-03-10T07:42:53Z</time>
      </trkpt>
      <trkpt lat="45.10224" lon="6.08107">
        <ele>2026.8</ele>
        <time>2021-03-10T07:42:54Z</time>
      </trkpt>
      <trkpt lat="45.10225" lon="6.08108">
        <ele>2027.3</ele>
        <time>2021-03-10T07:42:55Z</time>
      </trkpt>
      <trkpt lat="45.10225" lon="6.08109">
        <ele>2027.3</ele>
        <time>2021-03-10T07:42:56Z</time>
      </trkpt>
      <trkpt lat="45.10225" lon="6.08111">
        <ele>2027.8</ele>
        <time>2021-03-10T07:42:57Z</time>
      </trkpt>
      <trkpt lat="45.10225" lon="6.08112">
        <ele>2027.8</ele>
        <time>2021-03-10T07:42:58Z</time>
      </trkpt>
      <trkpt lat="45.10225" lon="6.08113">
        <ele>2027.8</ele>
        <time>2021-03-10T07:42:59Z</time>
      </trkpt>
      <trkpt lat="45.10225" lon="6.08114">
        <ele>2027.8</ele>
        <time>2021-03-10T07:43:00Z</time>
      </trkpt>
      <trkpt lat="45.10225" lon="6.08115">
        <ele>2028.3</ele>
        <time>2021-03-10T07:43:01Z</time>
      </trkpt>
      <trkpt lat="45.10226" lon="6.08116">
        <ele>2028.3</ele>
        <time>2021-03-10T07:43:02Z</time>
      </trkpt>
      <trkpt lat="45.10226" lon="6.08117">
        <ele>2028.3</ele>
        <time>2021-03-10T07:43:03Z</time>
      </trkpt>
      <trkpt lat="45.10226" lon="6.08118">
        <ele>2028.3</ele>
        <time>2021-03-10T07:43:04Z</time>
      </trkpt>
      <trkpt lat="45.10225" lon="6.0812">
        <ele>2028.8</ele>
        <time>2021-03-10T07:43:05Z</time>
      </trkpt>
      <trkpt lat="45.10226" lon="6.08121">
        <ele>2028.8</ele>
        <time>2021-03-10T07:43:06Z</time>
      </trkpt>
      <trkpt lat="45.10226" lon="6.08123">
        <ele>2028.8</ele>
        <time>2021-03-10T07:43:07Z</time>
      </trkpt>
      <trkpt lat="45.10226" lon="6.08124">
        <ele>2029.2</ele>
        <time>2021-03-10T07:43:08Z</time>
      </trkpt>
      <trkpt lat="45.10226" lon="6.08125">
        <ele>2029.2</ele>
        <time>2021-03-10T07:43:09Z</time>
      </trkpt>
      <trkpt lat="45.10227" lon="6.08127">
        <ele>2029.2</ele>
        <time>2021-03-10T07:43:10Z</time>
      </trkpt>
      <trkpt lat="45.10227" lon="6.08128">
        <ele>2029.6</ele>
        <time>2021-03-10T07:43:11Z</time>
      </trkpt>
      <trkpt lat="45.10227" lon="6.08129">
        <ele>2029.6</ele>
        <time>2021-03-10T07:43:12Z</time>
      </trkpt>
      <trkpt lat="45.10227" lon="6.0813">
        <ele>2029.6</ele>
        <time>2021-03-10T07:43:13Z</time>
      </trkpt>
      <trkpt lat="45.10227" lon="6.08131">
        <ele>2029.6</ele>
        <time>2021-03-10T07:43:14Z</time>
      </trkpt>
      <trkpt lat="45.10227" lon="6.08132">
        <ele>2029.9</ele>
        <time>2021-03-10T07:43:15Z</time>
      </trkpt>
      <trkpt lat="45.10227" lon="6.08133">
        <ele>2029.9</ele>
        <time>2021-03-10T07:43:16Z</time>
      </trkpt>
      <trkpt lat="45.10227" lon="6.08135">
        <ele>2029.9</ele>
        <time>2021-03-10T07:43:17Z</time>
      </trkpt>
      <trkpt lat="45.10227" lon="6.08136">
        <ele>2029.9</ele>
        <time>2021-03-10T07:43:18Z</time>
      </trkpt>
      <trkpt lat="45.10227" lon="6.08137">
        <ele>2030.3</ele>
        <time>2021-03-10T07:43:19Z</time>
      </trkpt>
      <trkpt lat="45.10228" lon="6.08138">
        <ele>2030.6</ele>
        <time>2021-03-10T07:43:20Z</time>
      </trkpt>
      <trkpt lat="45.10228" lon="6.08139">
        <ele>2030.6</ele>
        <time>2021-03-10T07:43:21Z</time>
      </trkpt>
      <trkpt lat="45.10228" lon="6.08141">
        <ele>2031</ele>
        <time>2021-03-10T07:43:22Z</time>
      </trkpt>
      <trkpt lat="45.10228" lon="6.08142">
        <ele>2031</ele>
        <time>2021-03-10T07:43:23Z</time>
      </trkpt>
      <trkpt lat="45.10229" lon="6.08143">
        <ele>2031</ele>
        <time>2021-03-10T07:43:24Z</time>
      </trkpt>
      <trkpt lat="45.10229" lon="6.08144">
        <ele>2031</ele>
        <time>2021-03-10T07:43:25Z</time>
      </trkpt>
      <trkpt lat="45.1023" lon="6.08145">
        <ele>2031.3</ele>
        <time>2021-03-10T07:43:26Z</time>
      </trkpt>
      <trkpt lat="45.1023" lon="6.08146">
        <ele>2031.3</ele>
        <time>2021-03-10T07:43:27Z</time>
      </trkpt>
      <trkpt lat="45.10231" lon="6.08147">
        <ele>2031.7</ele>
        <time>2021-03-10T07:43:28Z</time>
      </trkpt>
      <trkpt lat="45.10232" lon="6.08148">
        <ele>2031.7</ele>
        <time>2021-03-10T07:43:29Z</time>
      </trkpt>
      <trkpt lat="45.10232" lon="6.08149">
        <ele>2031.7</ele>
        <time>2021-03-10T07:43:30Z</time>
      </trkpt>
      <trkpt lat="45.10233" lon="6.08149">
        <ele>2032</ele>
        <time>2021-03-10T07:43:31Z</time>
      </trkpt>
      <trkpt lat="45.10234" lon="6.0815">
        <ele>2032.3</ele>
        <time>2021-03-10T07:43:32Z</time>
      </trkpt>
      <trkpt lat="45.10235" lon="6.08151">
        <ele>2032.3</ele>
        <time>2021-03-10T07:43:33Z</time>
      </trkpt>
      <trkpt lat="45.10236" lon="6.08151">
        <ele>2032.3</ele>
        <time>2021-03-10T07:43:34Z</time>
      </trkpt>
      <trkpt lat="45.10237" lon="6.08152">
        <ele>2032.7</ele>
        <time>2021-03-10T07:43:35Z</time>
      </trkpt>
      <trkpt lat="45.10238" lon="6.08153">
        <ele>2032.7</ele>
        <time>2021-03-10T07:43:36Z</time>
      </trkpt>
      <trkpt lat="45.10238" lon="6.08154">
        <ele>2033</ele>
        <time>2021-03-10T07:43:37Z</time>
      </trkpt>
      <trkpt lat="45.10239" lon="6.08155">
        <ele>2033</ele>
        <time>2021-03-10T07:43:38Z</time>
      </trkpt>
      <trkpt lat="45.1024" lon="6.08156">
        <ele>2033</ele>
        <time>2021-03-10T07:43:39Z</time>
      </trkpt>
      <trkpt lat="45.1024" lon="6.08157">
        <ele>2033.5</ele>
        <time>2021-03-10T07:43:40Z</time>
      </trkpt>
      <trkpt lat="45.10241" lon="6.08158">
        <ele>2033.8</ele>
        <time>2021-03-10T07:43:41Z</time>
      </trkpt>
      <trkpt lat="45.10241" lon="6.08159">
        <ele>2033.8</ele>
        <time>2021-03-10T07:43:42Z</time>
      </trkpt>
      <trkpt lat="45.10242" lon="6.08161">
        <ele>2033.8</ele>
        <time>2021-03-10T07:43:43Z</time>
      </trkpt>
      <trkpt lat="45.10243" lon="6.08162">
        <ele>2034.2</ele>
        <time>2021-03-10T07:43:44Z</time>
      </trkpt>
      <trkpt lat="45.10243" lon="6.08164">
        <ele>2034.7</ele>
        <time>2021-03-10T07:43:45Z</time>
      </trkpt>
      <trkpt lat="45.10243" lon="6.08165">
        <ele>2034.7</ele>
        <time>2021-03-10T07:43:46Z</time>
      </trkpt>
      <trkpt lat="45.10244" lon="6.08166">
        <ele>2034.7</ele>
        <time>2021-03-10T07:43:47Z</time>
      </trkpt>
      <trkpt lat="45.10244" lon="6.08167">
        <ele>2035</ele>
        <time>2021-03-10T07:43:48Z</time>
      </trkpt>
      <trkpt lat="45.10245" lon="6.08168">
        <ele>2035</ele>
        <time>2021-03-10T07:43:49Z</time>
      </trkpt>
      <trkpt lat="45.10245" lon="6.08169">
        <ele>2035</ele>
        <time>2021-03-10T07:43:50Z</time>
      </trkpt>
      <trkpt lat="45.10245" lon="6.0817">
        <ele>2035</ele>
        <time>2021-03-10T07:43:51Z</time>
      </trkpt>
      <trkpt lat="45.10246" lon="6.08171">
        <ele>2035.9</ele>
        <time>2021-03-10T07:43:52Z</time>
      </trkpt>
      <trkpt lat="45.10246" lon="6.08173">
        <ele>2035.9</ele>
        <time>2021-03-10T07:43:53Z</time>
      </trkpt>
      <trkpt lat="45.10246" lon="6.08174">
        <ele>2035.9</ele>
        <time>2021-03-10T07:43:54Z</time>
      </trkpt>
      <trkpt lat="45.10247" lon="6.08175">
        <ele>2036.2</ele>
        <time>2021-03-10T07:43:55Z</time>
      </trkpt>
      <trkpt lat="45.10247" lon="6.08176">
        <ele>2036.2</ele>
        <time>2021-03-10T07:43:56Z</time>
      </trkpt>
      <trkpt lat="45.10247" lon="6.08178">
        <ele>2036.2</ele>
        <time>2021-03-10T07:43:57Z</time>
      </trkpt>
      <trkpt lat="45.10247" lon="6.08179">
        <ele>2036.2</ele>
        <time>2021-03-10T07:43:58Z</time>
      </trkpt>
      <trkpt lat="45.10248" lon="6.0818">
        <ele>2036.4</ele>
        <time>2021-03-10T07:43:59Z</time>
      </trkpt>
      <trkpt lat="45.10248" lon="6.08181">
        <ele>2036.4</ele>
        <time>2021-03-10T07:44:00Z</time>
      </trkpt>
      <trkpt lat="45.10249" lon="6.08182">
        <ele>2036.4</ele>
        <time>2021-03-10T07:44:01Z</time>
      </trkpt>
      <trkpt lat="45.10249" lon="6.08184">
        <ele>2037.3</ele>
        <time>2021-03-10T07:44:02Z</time>
      </trkpt>
      <trkpt lat="45.10249" lon="6.08185">
        <ele>2037.3</ele>
        <time>2021-03-10T07:44:03Z</time>
      </trkpt>
      <trkpt lat="45.1025" lon="6.08186">
        <ele>2037.3</ele>
        <time>2021-03-10T07:44:04Z</time>
      </trkpt>
      <trkpt lat="45.10251" lon="6.08187">
        <ele>2037.3</ele>
        <time>2021-03-10T07:44:05Z</time>
      </trkpt>
      <trkpt lat="45.10251" lon="6.08188">
        <ele>2037.5</ele>
        <time>2021-03-10T07:44:06Z</time>
      </trkpt>
      <trkpt lat="45.10251" lon="6.0819">
        <ele>2037.5</ele>
        <time>2021-03-10T07:44:07Z</time>
      </trkpt>
      <trkpt lat="45.10252" lon="6.08191">
        <ele>2037.5</ele>
        <time>2021-03-10T07:44:08Z</time>
      </trkpt>
      <trkpt lat="45.10252" lon="6.08192">
        <ele>2038.1</ele>
        <time>2021-03-10T07:44:09Z</time>
      </trkpt>
      <trkpt lat="45.10252" lon="6.08193">
        <ele>2038.3</ele>
        <time>2021-03-10T07:44:10Z</time>
      </trkpt>
      <trkpt lat="45.10252" lon="6.08194">
        <ele>2038.3</ele>
        <time>2021-03-10T07:44:11Z</time>
      </trkpt>
      <trkpt lat="45.10253" lon="6.08196">
        <ele>2038.3</ele>
        <time>2021-03-10T07:44:12Z</time>
      </trkpt>
      <trkpt lat="45.10253" lon="6.08197">
        <ele>2038.5</ele>
        <time>2021-03-10T07:44:13Z</time>
      </trkpt>
      <trkpt lat="45.10253" lon="6.08198">
        <ele>2038.5</ele>
        <time>2021-03-10T07:44:14Z</time>
      </trkpt>
      <trkpt lat="45.10253" lon="6.08199">
        <ele>2038.5</ele>
        <time>2021-03-10T07:44:15Z</time>
      </trkpt>
      <trkpt lat="45.10254" lon="6.08201">
        <ele>2038.7</ele>
        <time>2021-03-10T07:44:16Z</time>
      </trkpt>
      <trkpt lat="45.10254" lon="6.08202">
        <ele>2038.7</ele>
        <time>2021-03-10T07:44:17Z</time>
      </trkpt>
      <trkpt lat="45.10254" lon="6.08203">
        <ele>2038.7</ele>
        <time>2021-03-10T07:44:18Z</time>
      </trkpt>
      <trkpt lat="45.10254" lon="6.08204">
        <ele>2038.7</ele>
        <time>2021-03-10T07:44:19Z</time>
      </trkpt>
      <trkpt lat="45.10254" lon="6.08205">
        <ele>2038.9</ele>
        <time>2021-03-10T07:44:20Z</time>
      </trkpt>
      <trkpt lat="45.10255" lon="6.08207">
        <ele>2038.9</ele>
        <time>2021-03-10T07:44:21Z</time>
      </trkpt>
      <trkpt lat="45.10255" lon="6.08208">
        <ele>2039.5</ele>
        <time>2021-03-10T07:44:22Z</time>
      </trkpt>
      <trkpt lat="45.10255" lon="6.08209">
        <ele>2039.7</ele>
        <time>2021-03-10T07:44:23Z</time>
      </trkpt>
      <trkpt lat="45.10256" lon="6.08211">
        <ele>2039.7</ele>
        <time>2021-03-10T07:44:24Z</time>
      </trkpt>
      <trkpt lat="45.10256" lon="6.08212">
        <ele>2039.7</ele>
        <time>2021-03-10T07:44:25Z</time>
      </trkpt>
      <trkpt lat="45.10257" lon="6.08213">
        <ele>2039.7</ele>
        <time>2021-03-10T07:44:26Z</time>
      </trkpt>
      <trkpt lat="45.10257" lon="6.08214">
        <ele>2039.9</ele>
        <time>2021-03-10T07:44:27Z</time>
      </trkpt>
      <trkpt lat="45.10258" lon="6.08215">
        <ele>2039.9</ele>
        <time>2021-03-10T07:44:28Z</time>
      </trkpt>
      <trkpt lat="45.10258" lon="6.08216">
        <ele>2040.4</ele>
        <time>2021-03-10T07:44:29Z</time>
      </trkpt>
      <trkpt lat="45.10258" lon="6.08217">
        <ele>2040.4</ele>
        <time>2021-03-10T07:44:30Z</time>
      </trkpt>
      <trkpt lat="45.10259" lon="6.08218">
        <ele>2040.7</ele>
        <time>2021-03-10T07:44:31Z</time>
      </trkpt>
      <trkpt lat="45.10259" lon="6.08219">
        <ele>2040.7</ele>
        <time>2021-03-10T07:44:32Z</time>
      </trkpt>
      <trkpt lat="45.1026" lon="6.0822">
        <ele>2040.7</ele>
        <time>2021-03-10T07:44:33Z</time>
      </trkpt>
      <trkpt lat="45.1026" lon="6.08221">
        <ele>2040.7</ele>
        <time>2021-03-10T07:44:34Z</time>
      </trkpt>
      <trkpt lat="45.10261" lon="6.08222">
        <ele>2041.2</ele>
        <time>2021-03-10T07:44:35Z</time>
      </trkpt>
      <trkpt lat="45.10262" lon="6.08223">
        <ele>2041.4</ele>
        <time>2021-03-10T07:44:36Z</time>
      </trkpt>
      <trkpt lat="45.10263" lon="6.08224">
        <ele>2041.4</ele>
        <time>2021-03-10T07:44:37Z</time>
      </trkpt>
      <trkpt lat="45.10263" lon="6.08225">
        <ele>2041.4</ele>
        <time>2021-03-10T07:44:38Z</time>
      </trkpt>
      <trkpt lat="45.10264" lon="6.08226">
        <ele>2041.9</ele>
        <time>2021-03-10T07:44:39Z</time>
      </trkpt>
      <trkpt lat="45.10264" lon="6.08227">
        <ele>2042.2</ele>
        <time>2021-03-10T07:44:40Z</time>
      </trkpt>
      <trkpt lat="45.10265" lon="6.08228">
        <ele>2042.2</ele>
        <time>2021-03-10T07:44:41Z</time>
      </trkpt>
      <trkpt lat="45.10265" lon="6.08229">
        <ele>2042.2</ele>
        <time>2021-03-10T07:44:42Z</time>
      </trkpt>
      <trkpt lat="45.10266" lon="6.08231">
        <ele>2042.4</ele>
        <time>2021-03-10T07:44:43Z</time>
      </trkpt>
      <trkpt lat="45.10266" lon="6.08232">
        <ele>2042.4</ele>
        <time>2021-03-10T07:44:44Z</time>
      </trkpt>
      <trkpt lat="45.10266" lon="6.08233">
        <ele>2042.4</ele>
        <time>2021-03-10T07:44:45Z</time>
      </trkpt>
      <trkpt lat="45.10267" lon="6.08234">
        <ele>2042.4</ele>
        <time>2021-03-10T07:44:46Z</time>
      </trkpt>
      <trkpt lat="45.10267" lon="6.08236">
        <ele>2043.3</ele>
        <time>2021-03-10T07:44:47Z</time>
      </trkpt>
      <trkpt lat="45.10268" lon="6.08237">
        <ele>2043.3</ele>
        <time>2021-03-10T07:44:48Z</time>
      </trkpt>
      <trkpt lat="45.10268" lon="6.08238">
        <ele>2043.3</ele>
        <time>2021-03-10T07:44:49Z</time>
      </trkpt>
      <trkpt lat="45.10269" lon="6.08239">
        <ele>2043.6</ele>
        <time>2021-03-10T07:44:50Z</time>
      </trkpt>
      <trkpt lat="45.1027" lon="6.0824">
        <ele>2043.6</ele>
        <time>2021-03-10T07:44:51Z</time>
      </trkpt>
      <trkpt lat="45.1027" lon="6.08241">
        <ele>2044.3</ele>
        <time>2021-03-10T07:44:52Z</time>
      </trkpt>
      <trkpt lat="45.10271" lon="6.08242">
        <ele>2044.3</ele>
        <time>2021-03-10T07:44:53Z</time>
      </trkpt>
      <trkpt lat="45.10271" lon="6.08243">
        <ele>2044.3</ele>
        <time>2021-03-10T07:44:54Z</time>
      </trkpt>
      <trkpt lat="45.10272" lon="6.08244">
        <ele>2044.6</ele>
        <time>2021-03-10T07:44:55Z</time>
      </trkpt>
      <trkpt lat="45.10273" lon="6.08244">
        <ele>2044.6</ele>
        <time>2021-03-10T07:44:56Z</time>
      </trkpt>
      <trkpt lat="45.10274" lon="6.08246">
        <ele>2045.4</ele>
        <time>2021-03-10T07:44:57Z</time>
      </trkpt>
      <trkpt lat="45.10274" lon="6.08246">
        <ele>2045.4</ele>
        <time>2021-03-10T07:44:58Z</time>
      </trkpt>
      <trkpt lat="45.10275" lon="6.08247">
        <ele>2045.4</ele>
        <time>2021-03-10T07:44:59Z</time>
      </trkpt>
      <trkpt lat="45.10276" lon="6.08248">
        <ele>2045.7</ele>
        <time>2021-03-10T07:45:00Z</time>
      </trkpt>
      <trkpt lat="45.10277" lon="6.08249">
        <ele>2046.5</ele>
        <time>2021-03-10T07:45:01Z</time>
      </trkpt>
      <trkpt lat="45.10278" lon="6.08251">
        <ele>2046.5</ele>
        <time>2021-03-10T07:45:02Z</time>
      </trkpt>
      <trkpt lat="45.10278" lon="6.08251">
        <ele>2046.5</ele>
        <time>2021-03-10T07:45:03Z</time>
      </trkpt>
      <trkpt lat="45.10279" lon="6.08252">
        <ele>2046.5</ele>
        <time>2021-03-10T07:45:04Z</time>
      </trkpt>
      <trkpt lat="45.10279" lon="6.08253">
        <ele>2047.7</ele>
        <time>2021-03-10T07:45:05Z</time>
      </trkpt>
      <trkpt lat="45.1028" lon="6.08253">
        <ele>2047.7</ele>
        <time>2021-03-10T07:45:06Z</time>
      </trkpt>
      <trkpt lat="45.10281" lon="6.08254">
        <ele>2047.7</ele>
        <time>2021-03-10T07:45:07Z</time>
      </trkpt>
      <trkpt lat="45.10282" lon="6.08255">
        <ele>2047.7</ele>
        <time>2021-03-10T07:45:08Z</time>
      </trkpt>
      <trkpt lat="45.10282" lon="6.08256">
        <ele>2048.4</ele>
        <time>2021-03-10T07:45:09Z</time>
      </trkpt>
      <trkpt lat="45.10283" lon="6.08257">
        <ele>2048.8</ele>
        <time>2021-03-10T07:45:10Z</time>
      </trkpt>
      <trkpt lat="45.10283" lon="6.08258">
        <ele>2048.8</ele>
        <time>2021-03-10T07:45:11Z</time>
      </trkpt>
      <trkpt lat="45.10284" lon="6.08259">
        <ele>2048.8</ele>
        <time>2021-03-10T07:45:12Z</time>
      </trkpt>
      <trkpt lat="45.10284" lon="6.0826">
        <ele>2048.8</ele>
        <time>2021-03-10T07:45:13Z</time>
      </trkpt>
      <trkpt lat="45.10285" lon="6.08261">
        <ele>2049.2</ele>
        <time>2021-03-10T07:45:14Z</time>
      </trkpt>
      <trkpt lat="45.10285" lon="6.08262">
        <ele>2049.9</ele>
        <time>2021-03-10T07:45:15Z</time>
      </trkpt>
      <trkpt lat="45.10286" lon="6.08263">
        <ele>2049.9</ele>
        <time>2021-03-10T07:45:16Z</time>
      </trkpt>
      <trkpt lat="45.10286" lon="6.08264">
        <ele>2049.9</ele>
        <time>2021-03-10T07:45:17Z</time>
      </trkpt>
      <trkpt lat="45.10287" lon="6.08265">
        <ele>2050.3</ele>
        <time>2021-03-10T07:45:18Z</time>
      </trkpt>
      <trkpt lat="45.10288" lon="6.08266">
        <ele>2050.3</ele>
        <time>2021-03-10T07:45:19Z</time>
      </trkpt>
      <trkpt lat="45.10289" lon="6.08267">
        <ele>2051</ele>
        <time>2021-03-10T07:45:20Z</time>
      </trkpt>
      <trkpt lat="45.10289" lon="6.08268">
        <ele>2051</ele>
        <time>2021-03-10T07:45:21Z</time>
      </trkpt>
      <trkpt lat="45.1029" lon="6.08269">
        <ele>2051</ele>
        <time>2021-03-10T07:45:22Z</time>
      </trkpt>
      <trkpt lat="45.10291" lon="6.0827">
        <ele>2051.3</ele>
        <time>2021-03-10T07:45:23Z</time>
      </trkpt>
      <trkpt lat="45.10291" lon="6.08271">
        <ele>2051.3</ele>
        <time>2021-03-10T07:45:24Z</time>
      </trkpt>
      <trkpt lat="45.10292" lon="6.08272">
        <ele>2052</ele>
        <time>2021-03-10T07:45:25Z</time>
      </trkpt>
      <trkpt lat="45.10292" lon="6.08273">
        <ele>2052</ele>
        <time>2021-03-10T07:45:26Z</time>
      </trkpt>
      <trkpt lat="45.10293" lon="6.08274">
        <ele>2052.4</ele>
        <time>2021-03-10T07:45:27Z</time>
      </trkpt>
      <trkpt lat="45.10294" lon="6.08275">
        <ele>2052.4</ele>
        <time>2021-03-10T07:45:28Z</time>
      </trkpt>
      <trkpt lat="45.10294" lon="6.08276">
        <ele>2053.1</ele>
        <time>2021-03-10T07:45:29Z</time>
      </trkpt>
      <trkpt lat="45.10295" lon="6.08277">
        <ele>2053.1</ele>
        <time>2021-03-10T07:45:30Z</time>
      </trkpt>
      <trkpt lat="45.10296" lon="6.08278">
        <ele>2053.1</ele>
        <time>2021-03-10T07:45:31Z</time>
      </trkpt>
      <trkpt lat="45.10297" lon="6.08278">
        <ele>2053.4</ele>
        <time>2021-03-10T07:45:32Z</time>
      </trkpt>
      <trkpt lat="45.10298" lon="6.08279">
        <ele>2054.1</ele>
        <time>2021-03-10T07:45:33Z</time>
      </trkpt>
      <trkpt lat="45.10299" lon="6.0828">
        <ele>2054.1</ele>
        <time>2021-03-10T07:45:34Z</time>
      </trkpt>
      <trkpt lat="45.103" lon="6.08281">
        <ele>2054.1</ele>
        <time>2021-03-10T07:45:35Z</time>
      </trkpt>
      <trkpt lat="45.10301" lon="6.08282">
        <ele>2055.2</ele>
        <time>2021-03-10T07:45:36Z</time>
      </trkpt>
      <trkpt lat="45.10301" lon="6.08283">
        <ele>2055.2</ele>
        <time>2021-03-10T07:45:37Z</time>
      </trkpt>
      <trkpt lat="45.10302" lon="6.08284">
        <ele>2055.2</ele>
        <time>2021-03-10T07:45:38Z</time>
      </trkpt>
      <trkpt lat="45.10302" lon="6.08286">
        <ele>2055.2</ele>
        <time>2021-03-10T07:45:39Z</time>
      </trkpt>
      <trkpt lat="45.10302" lon="6.08287">
        <ele>2055.6</ele>
        <time>2021-03-10T07:45:40Z</time>
      </trkpt>
      <trkpt lat="45.10303" lon="6.08288">
        <ele>2055.6</ele>
        <time>2021-03-10T07:45:41Z</time>
      </trkpt>
      <trkpt lat="45.10303" lon="6.08289">
        <ele>2056.4</ele>
        <time>2021-03-10T07:45:42Z</time>
      </trkpt>
      <trkpt lat="45.10304" lon="6.0829">
        <ele>2056.4</ele>
        <time>2021-03-10T07:45:43Z</time>
      </trkpt>
      <trkpt lat="45.10304" lon="6.08291">
        <ele>2056.7</ele>
        <time>2021-03-10T07:45:44Z</time>
      </trkpt>
      <trkpt lat="45.10305" lon="6.08292">
        <ele>2056.7</ele>
        <time>2021-03-10T07:45:45Z</time>
      </trkpt>
      <trkpt lat="45.10305" lon="6.08293">
        <ele>2056.7</ele>
        <time>2021-03-10T07:45:46Z</time>
      </trkpt>
      <trkpt lat="45.10306" lon="6.08295">
        <ele>2056.7</ele>
        <time>2021-03-10T07:45:47Z</time>
      </trkpt>
      <trkpt lat="45.10307" lon="6.08296">
        <ele>2057.9</ele>
        <time>2021-03-10T07:45:48Z</time>
      </trkpt>
      <trkpt lat="45.10307" lon="6.08297">
        <ele>2057.9</ele>
        <time>2021-03-10T07:45:49Z</time>
      </trkpt>
      <trkpt lat="45.10308" lon="6.08298">
        <ele>2057.9</ele>
        <time>2021-03-10T07:45:50Z</time>
      </trkpt>
      <trkpt lat="45.10308" lon="6.08299">
        <ele>2057.9</ele>
        <time>2021-03-10T07:45:51Z</time>
      </trkpt>
      <trkpt lat="45.10309" lon="6.083">
        <ele>2058.2</ele>
        <time>2021-03-10T07:45:52Z</time>
      </trkpt>
      <trkpt lat="45.1031" lon="6.08301">
        <ele>2059</ele>
        <time>2021-03-10T07:45:53Z</time>
      </trkpt>
      <trkpt lat="45.1031" lon="6.08302">
        <ele>2059</ele>
        <time>2021-03-10T07:45:54Z</time>
      </trkpt>
      <trkpt lat="45.10311" lon="6.08303">
        <ele>2059</ele>
        <time>2021-03-10T07:45:55Z</time>
      </trkpt>
      <trkpt lat="45.10312" lon="6.08304">
        <ele>2059.4</ele>
        <time>2021-03-10T07:45:56Z</time>
      </trkpt>
      <trkpt lat="45.10312" lon="6.08305">
        <ele>2060.1</ele>
        <time>2021-03-10T07:45:57Z</time>
      </trkpt>
      <trkpt lat="45.10313" lon="6.08306">
        <ele>2060.1</ele>
        <time>2021-03-10T07:45:58Z</time>
      </trkpt>
      <trkpt lat="45.10313" lon="6.08307">
        <ele>2060.1</ele>
        <time>2021-03-10T07:45:59Z</time>
      </trkpt>
      <trkpt lat="45.10314" lon="6.08308">
        <ele>2060.1</ele>
        <time>2021-03-10T07:46:00Z</time>
      </trkpt>
      <trkpt lat="45.10315" lon="6.08309">
        <ele>2060.5</ele>
        <time>2021-03-10T07:46:01Z</time>
      </trkpt>
      <trkpt lat="45.10316" lon="6.0831">
        <ele>2061.2</ele>
        <time>2021-03-10T07:46:02Z</time>
      </trkpt>
      <trkpt lat="45.10316" lon="6.08311">
        <ele>2061.2</ele>
        <time>2021-03-10T07:46:03Z</time>
      </trkpt>
      <trkpt lat="45.10317" lon="6.08312">
        <ele>2061.2</ele>
        <time>2021-03-10T07:46:04Z</time>
      </trkpt>
      <trkpt lat="45.10318" lon="6.08313">
        <ele>2061.5</ele>
        <time>2021-03-10T07:46:05Z</time>
      </trkpt>
      <trkpt lat="45.10319" lon="6.08314">
        <ele>2062.2</ele>
        <time>2021-03-10T07:46:06Z</time>
      </trkpt>
      <trkpt lat="45.1032" lon="6.08315">
        <ele>2062.2</ele>
        <time>2021-03-10T07:46:07Z</time>
      </trkpt>
      <trkpt lat="45.10321" lon="6.08316">
        <ele>2062.2</ele>
        <time>2021-03-10T07:46:08Z</time>
      </trkpt>
      <trkpt lat="45.10321" lon="6.08317">
        <ele>2063.2</ele>
        <time>2021-03-10T07:46:09Z</time>
      </trkpt>
      <trkpt lat="45.10322" lon="6.08318">
        <ele>2063.2</ele>
        <time>2021-03-10T07:46:10Z</time>
      </trkpt>
      <trkpt lat="45.10323" lon="6.08319">
        <ele>2063.2</ele>
        <time>2021-03-10T07:46:11Z</time>
      </trkpt>
      <trkpt lat="45.10324" lon="6.0832">
        <ele>2063.2</ele>
        <time>2021-03-10T07:46:12Z</time>
      </trkpt>
      <trkpt lat="45.10324" lon="6.08321">
        <ele>2063.6</ele>
        <time>2021-03-10T07:46:13Z</time>
      </trkpt>
      <trkpt lat="45.10325" lon="6.08322">
        <ele>2064.2</ele>
        <time>2021-03-10T07:46:14Z</time>
      </trkpt>
      <trkpt lat="45.10326" lon="6.08322">
        <ele>2064.2</ele>
        <time>2021-03-10T07:46:15Z</time>
      </trkpt>
      <trkpt lat="45.10327" lon="6.08322">
        <ele>2064.2</ele>
        <time>2021-03-10T07:46:16Z</time>
      </trkpt>
      <trkpt lat="45.10328" lon="6.08323">
        <ele>2064.9</ele>
        <time>2021-03-10T07:46:17Z</time>
      </trkpt>
      <trkpt lat="45.10329" lon="6.08323">
        <ele>2064.9</ele>
        <time>2021-03-10T07:46:18Z</time>
      </trkpt>
      <trkpt lat="45.10329" lon="6.08322">
        <ele>2064.9</ele>
        <time>2021-03-10T07:46:19Z</time>
      </trkpt>
      <trkpt lat="45.1033" lon="6.08322">
        <ele>2064.9</ele>
        <time>2021-03-10T07:46:20Z</time>
      </trkpt>
      <trkpt lat="45.10331" lon="6.08322">
        <ele>2065.6</ele>
        <time>2021-03-10T07:46:21Z</time>
      </trkpt>
      <trkpt lat="45.10331" lon="6.08323">
        <ele>2065.6</ele>
        <time>2021-03-10T07:46:22Z</time>
      </trkpt>
      <trkpt lat="45.10332" lon="6.08323">
        <ele>2065.6</ele>
        <time>2021-03-10T07:46:23Z</time>
      </trkpt>
      <trkpt lat="45.10333" lon="6.08323">
        <ele>2065.6</ele>
        <time>2021-03-10T07:46:24Z</time>
      </trkpt>
      <trkpt lat="45.10333" lon="6.08324">
        <ele>2065.6</ele>
        <time>2021-03-10T07:46:25Z</time>
      </trkpt>
      <trkpt lat="45.10334" lon="6.08325">
        <ele>2066.8</ele>
        <time>2021-03-10T07:46:26Z</time>
      </trkpt>
      <trkpt lat="45.10334" lon="6.08327">
        <ele>2066.8</ele>
        <time>2021-03-10T07:46:27Z</time>
      </trkpt>
      <trkpt lat="45.10335" lon="6.08328">
        <ele>2066.8</ele>
        <time>2021-03-10T07:46:28Z</time>
      </trkpt>
      <trkpt lat="45.10335" lon="6.08329">
        <ele>2066.8</ele>
        <time>2021-03-10T07:46:29Z</time>
      </trkpt>
      <trkpt lat="45.10336" lon="6.0833">
        <ele>2067.2</ele>
        <time>2021-03-10T07:46:30Z</time>
      </trkpt>
      <trkpt lat="45.10336" lon="6.08331">
        <ele>2067.2</ele>
        <time>2021-03-10T07:46:31Z</time>
      </trkpt>
      <trkpt lat="45.10337" lon="6.08332">
        <ele>2067.9</ele>
        <time>2021-03-10T07:46:32Z</time>
      </trkpt>
      <trkpt lat="45.10337" lon="6.08333">
        <ele>2067.9</ele>
        <time>2021-03-10T07:46:33Z</time>
      </trkpt>
      <trkpt lat="45.10338" lon="6.08333">
        <ele>2067.9</ele>
        <time>2021-03-10T07:46:34Z</time>
      </trkpt>
      <trkpt lat="45.10339" lon="6.08334">
        <ele>2068.4</ele>
        <time>2021-03-10T07:46:35Z</time>
      </trkpt>
      <trkpt lat="45.10339" lon="6.08335">
        <ele>2068.4</ele>
        <time>2021-03-10T07:46:36Z</time>
      </trkpt>
      <trkpt lat="45.1034" lon="6.08335">
        <ele>2069.1</ele>
        <time>2021-03-10T07:46:37Z</time>
      </trkpt>
      <trkpt lat="45.10341" lon="6.08336">
        <ele>2069.1</ele>
        <time>2021-03-10T07:46:38Z</time>
      </trkpt>
      <trkpt lat="45.10341" lon="6.08337">
        <ele>2069.1</ele>
        <time>2021-03-10T07:46:39Z</time>
      </trkpt>
      <trkpt lat="45.10342" lon="6.08337">
        <ele>2069.1</ele>
        <time>2021-03-10T07:46:40Z</time>
      </trkpt>
      <trkpt lat="45.10343" lon="6.08338">
        <ele>2069.5</ele>
        <time>2021-03-10T07:46:41Z</time>
      </trkpt>
      <trkpt lat="45.10343" lon="6.08339">
        <ele>2070.1</ele>
        <time>2021-03-10T07:46:42Z</time>
      </trkpt>
      <trkpt lat="45.10344" lon="6.0834">
        <ele>2070.1</ele>
        <time>2021-03-10T07:46:43Z</time>
      </trkpt>
      <trkpt lat="45.10345" lon="6.0834">
        <ele>2070.1</ele>
        <time>2021-03-10T07:46:44Z</time>
      </trkpt>
      <trkpt lat="45.10345" lon="6.08341">
        <ele>2070.1</ele>
        <time>2021-03-10T07:46:45Z</time>
      </trkpt>
      <trkpt lat="45.10346" lon="6.08341">
        <ele>2070.6</ele>
        <time>2021-03-10T07:46:46Z</time>
      </trkpt>
      <trkpt lat="45.10347" lon="6.08342">
        <ele>2070.6</ele>
        <time>2021-03-10T07:46:47Z</time>
      </trkpt>
      <trkpt lat="45.10348" lon="6.08343">
        <ele>2071</ele>
        <time>2021-03-10T07:46:48Z</time>
      </trkpt>
      <trkpt lat="45.10348" lon="6.08343">
        <ele>2071</ele>
        <time>2021-03-10T07:46:49Z</time>
      </trkpt>
      <trkpt lat="45.10349" lon="6.08344">
        <ele>2071.5</ele>
        <time>2021-03-10T07:46:50Z</time>
      </trkpt>
      <trkpt lat="45.1035" lon="6.08345">
        <ele>2071.5</ele>
        <time>2021-03-10T07:46:51Z</time>
      </trkpt>
      <trkpt lat="45.10351" lon="6.08346">
        <ele>2071.5</ele>
        <time>2021-03-10T07:46:52Z</time>
      </trkpt>
      <trkpt lat="45.10351" lon="6.08346">
        <ele>2071.5</ele>
        <time>2021-03-10T07:46:53Z</time>
      </trkpt>
      <trkpt lat="45.10352" lon="6.08347">
        <ele>2072.4</ele>
        <time>2021-03-10T07:46:54Z</time>
      </trkpt>
      <trkpt lat="45.10353" lon="6.08348">
        <ele>2072.4</ele>
        <time>2021-03-10T07:46:55Z</time>
      </trkpt>
      <trkpt lat="45.10354" lon="6.08349">
        <ele>2072.4</ele>
        <time>2021-03-10T07:46:56Z</time>
      </trkpt>
      <trkpt lat="45.10354" lon="6.0835">
        <ele>2072.4</ele>
        <time>2021-03-10T07:46:57Z</time>
      </trkpt>
      <trkpt lat="45.10355" lon="6.08351">
        <ele>2073.3</ele>
        <time>2021-03-10T07:46:58Z</time>
      </trkpt>
      <trkpt lat="45.10356" lon="6.08352">
        <ele>2073.3</ele>
        <time>2021-03-10T07:46:59Z</time>
      </trkpt>
      <trkpt lat="45.10357" lon="6.08353">
        <ele>2073.3</ele>
        <time>2021-03-10T07:47:00Z</time>
      </trkpt>
      <trkpt lat="45.10358" lon="6.08354">
        <ele>2073.3</ele>
        <time>2021-03-10T07:47:01Z</time>
      </trkpt>
      <trkpt lat="45.10358" lon="6.08356">
        <ele>2074.2</ele>
        <time>2021-03-10T07:47:02Z</time>
      </trkpt>
      <trkpt lat="45.1036" lon="6.08357">
        <ele>2074.2</ele>
        <time>2021-03-10T07:47:03Z</time>
      </trkpt>
      <trkpt lat="45.1036" lon="6.08358">
        <ele>2074.2</ele>
        <time>2021-03-10T07:47:04Z</time>
      </trkpt>
      <trkpt lat="45.10361" lon="6.08358">
        <ele>2074.2</ele>
        <time>2021-03-10T07:47:05Z</time>
      </trkpt>
      <trkpt lat="45.10361" lon="6.08359">
        <ele>2074.7</ele>
        <time>2021-03-10T07:47:06Z</time>
      </trkpt>
      <trkpt lat="45.10362" lon="6.0836">
        <ele>2075</ele>
        <time>2021-03-10T07:47:07Z</time>
      </trkpt>
      <trkpt lat="45.10363" lon="6.08361">
        <ele>2075</ele>
        <time>2021-03-10T07:47:08Z</time>
      </trkpt>
      <trkpt lat="45.10364" lon="6.08362">
        <ele>2075</ele>
        <time>2021-03-10T07:47:09Z</time>
      </trkpt>
      <trkpt lat="45.10364" lon="6.08363">
        <ele>2075.4</ele>
        <time>2021-03-10T07:47:10Z</time>
      </trkpt>
      <trkpt lat="45.10365" lon="6.08364">
        <ele>2075.7</ele>
        <time>2021-03-10T07:47:11Z</time>
      </trkpt>
      <trkpt lat="45.10366" lon="6.08365">
        <ele>2075.7</ele>
        <time>2021-03-10T07:47:12Z</time>
      </trkpt>
      <trkpt lat="45.10366" lon="6.08365">
        <ele>2075.7</ele>
        <time>2021-03-10T07:47:13Z</time>
      </trkpt>
      <trkpt lat="45.10367" lon="6.08366">
        <ele>2075.7</ele>
        <time>2021-03-10T07:47:14Z</time>
      </trkpt>
      <trkpt lat="45.10367" lon="6.08367">
        <ele>2076</ele>
        <time>2021-03-10T07:47:15Z</time>
      </trkpt>
      <trkpt lat="45.10368" lon="6.08368">
        <ele>2076.3</ele>
        <time>2021-03-10T07:47:16Z</time>
      </trkpt>
      <trkpt lat="45.10368" lon="6.08369">
        <ele>2076.3</ele>
        <time>2021-03-10T07:47:17Z</time>
      </trkpt>
      <trkpt lat="45.10369" lon="6.0837">
        <ele>2076.3</ele>
        <time>2021-03-10T07:47:18Z</time>
      </trkpt>
      <trkpt lat="45.10369" lon="6.08371">
        <ele>2076.3</ele>
        <time>2021-03-10T07:47:19Z</time>
      </trkpt>
      <trkpt lat="45.1037" lon="6.08372">
        <ele>2076.6</ele>
        <time>2021-03-10T07:47:20Z</time>
      </trkpt>
      <trkpt lat="45.10371" lon="6.08373">
        <ele>2076.8</ele>
        <time>2021-03-10T07:47:21Z</time>
      </trkpt>
      <trkpt lat="45.10372" lon="6.08374">
        <ele>2076.8</ele>
        <time>2021-03-10T07:47:22Z</time>
      </trkpt>
      <trkpt lat="45.10373" lon="6.08375">
        <ele>2076.8</ele>
        <time>2021-03-10T07:47:23Z</time>
      </trkpt>
      <trkpt lat="45.10374" lon="6.08376">
        <ele>2077.1</ele>
        <time>2021-03-10T07:47:24Z</time>
      </trkpt>
      <trkpt lat="45.10374" lon="6.08377">
        <ele>2077.3</ele>
        <time>2021-03-10T07:47:25Z</time>
      </trkpt>
      <trkpt lat="45.10375" lon="6.08378">
        <ele>2077.3</ele>
        <time>2021-03-10T07:47:26Z</time>
      </trkpt>
      <trkpt lat="45.10376" lon="6.08379">
        <ele>2077.3</ele>
        <time>2021-03-10T07:47:27Z</time>
      </trkpt>
      <trkpt lat="45.10376" lon="6.0838">
        <ele>2077.6</ele>
        <time>2021-03-10T07:47:28Z</time>
      </trkpt>
      <trkpt lat="45.10377" lon="6.08381">
        <ele>2077.7</ele>
        <time>2021-03-10T07:47:29Z</time>
      </trkpt>
      <trkpt lat="45.10378" lon="6.08382">
        <ele>2077.7</ele>
        <time>2021-03-10T07:47:30Z</time>
      </trkpt>
      <trkpt lat="45.10378" lon="6.08383">
        <ele>2077.7</ele>
        <time>2021-03-10T07:47:31Z</time>
      </trkpt>
      <trkpt lat="45.10379" lon="6.08384">
        <ele>2078</ele>
        <time>2021-03-10T07:47:32Z</time>
      </trkpt>
      <trkpt lat="45.1038" lon="6.08385">
        <ele>2078</ele>
        <time>2021-03-10T07:47:33Z</time>
      </trkpt>
      <trkpt lat="45.10381" lon="6.08386">
        <ele>2078.2</ele>
        <time>2021-03-10T07:47:34Z</time>
      </trkpt>
      <trkpt lat="45.10382" lon="6.08386">
        <ele>2078.2</ele>
        <time>2021-03-10T07:47:35Z</time>
      </trkpt>
      <trkpt lat="45.10382" lon="6.08387">
        <ele>2078.4</ele>
        <time>2021-03-10T07:47:36Z</time>
      </trkpt>
      <trkpt lat="45.10383" lon="6.08388">
        <ele>2078.4</ele>
        <time>2021-03-10T07:47:37Z</time>
      </trkpt>
      <trkpt lat="45.10383" lon="6.08389">
        <ele>2078.4</ele>
        <time>2021-03-10T07:47:38Z</time>
      </trkpt>
      <trkpt lat="45.10384" lon="6.0839">
        <ele>2078.5</ele>
        <time>2021-03-10T07:47:39Z</time>
      </trkpt>
      <trkpt lat="45.10385" lon="6.08391">
        <ele>2078.5</ele>
        <time>2021-03-10T07:47:40Z</time>
      </trkpt>
      <trkpt lat="45.10385" lon="6.08392">
        <ele>2078.8</ele>
        <time>2021-03-10T07:47:41Z</time>
      </trkpt>
      <trkpt lat="45.10386" lon="6.08393">
        <ele>2078.8</ele>
        <time>2021-03-10T07:47:42Z</time>
      </trkpt>
      <trkpt lat="45.10387" lon="6.08394">
        <ele>2078.9</ele>
        <time>2021-03-10T07:47:43Z</time>
      </trkpt>
      <trkpt lat="45.10387" lon="6.08395">
        <ele>2078.9</ele>
        <time>2021-03-10T07:47:44Z</time>
      </trkpt>
      <trkpt lat="45.10388" lon="6.08397">
        <ele>2079.1</ele>
        <time>2021-03-10T07:47:45Z</time>
      </trkpt>
      <trkpt lat="45.10389" lon="6.08398">
        <ele>2079.1</ele>
        <time>2021-03-10T07:47:46Z</time>
      </trkpt>
      <trkpt lat="45.10389" lon="6.08399">
        <ele>2079.1</ele>
        <time>2021-03-10T07:47:47Z</time>
      </trkpt>
      <trkpt lat="45.1039" lon="6.084">
        <ele>2079.1</ele>
        <time>2021-03-10T07:47:48Z</time>
      </trkpt>
      <trkpt lat="45.10391" lon="6.08401">
        <ele>2079.1</ele>
        <time>2021-03-10T07:47:49Z</time>
      </trkpt>
      <trkpt lat="45.10391" lon="6.08402">
        <ele>2079.2</ele>
        <time>2021-03-10T07:47:50Z</time>
      </trkpt>
      <trkpt lat="45.10392" lon="6.08404">
        <ele>2079.3</ele>
        <time>2021-03-10T07:47:51Z</time>
      </trkpt>
      <trkpt lat="45.10393" lon="6.08405">
        <ele>2079.3</ele>
        <time>2021-03-10T07:47:52Z</time>
      </trkpt>
      <trkpt lat="45.10393" lon="6.08406">
        <ele>2079.3</ele>
        <time>2021-03-10T07:47:53Z</time>
      </trkpt>
      <trkpt lat="45.10394" lon="6.08407">
        <ele>2079.3</ele>
        <time>2021-03-10T07:47:54Z</time>
      </trkpt>
      <trkpt lat="45.10395" lon="6.08408">
        <ele>2079.5</ele>
        <time>2021-03-10T07:47:55Z</time>
      </trkpt>
      <trkpt lat="45.10395" lon="6.08409">
        <ele>2079.5</ele>
        <time>2021-03-10T07:47:56Z</time>
      </trkpt>
      <trkpt lat="45.10396" lon="6.08411">
        <ele>2079.5</ele>
        <time>2021-03-10T07:47:57Z</time>
      </trkpt>
      <trkpt lat="45.10396" lon="6.08412">
        <ele>2079.5</ele>
        <time>2021-03-10T07:47:58Z</time>
      </trkpt>
      <trkpt lat="45.10397" lon="6.08413">
        <ele>2079.5</ele>
        <time>2021-03-10T07:47:59Z</time>
      </trkpt>
      <trkpt lat="45.10398" lon="6.08414">
        <ele>2079.6</ele>
        <time>2021-03-10T07:48:00Z</time>
      </trkpt>
      <trkpt lat="45.10398" lon="6.08415">
        <ele>2079.6</ele>
        <time>2021-03-10T07:48:01Z</time>
      </trkpt>
      <trkpt lat="45.10399" lon="6.08416">
        <ele>2079.6</ele>
        <time>2021-03-10T07:48:02Z</time>
      </trkpt>
      <trkpt lat="45.104" lon="6.08417">
        <ele>2079.6</ele>
        <time>2021-03-10T07:48:03Z</time>
      </trkpt>
      <trkpt lat="45.10401" lon="6.08418">
        <ele>2079.8</ele>
        <time>2021-03-10T07:48:04Z</time>
      </trkpt>
      <trkpt lat="45.10402" lon="6.0842">
        <ele>2079.8</ele>
        <time>2021-03-10T07:48:05Z</time>
      </trkpt>
      <trkpt lat="45.10402" lon="6.08421">
        <ele>2079.8</ele>
        <time>2021-03-10T07:48:06Z</time>
      </trkpt>
      <trkpt lat="45.10403" lon="6.08422">
        <ele>2079.8</ele>
        <time>2021-03-10T07:48:07Z</time>
      </trkpt>
      <trkpt lat="45.10404" lon="6.08423">
        <ele>2079.9</ele>
        <time>2021-03-10T07:48:08Z</time>
      </trkpt>
      <trkpt lat="45.10404" lon="6.08424">
        <ele>2079.9</ele>
        <time>2021-03-10T07:48:09Z</time>
      </trkpt>
      <trkpt lat="45.10405" lon="6.08425">
        <ele>2079.9</ele>
        <time>2021-03-10T07:48:10Z</time>
      </trkpt>
      <trkpt lat="45.10405" lon="6.08426">
        <ele>2079.9</ele>
        <time>2021-03-10T07:48:11Z</time>
      </trkpt>
      <trkpt lat="45.10406" lon="6.08427">
        <ele>2079.9</ele>
        <time>2021-03-10T07:48:12Z</time>
      </trkpt>
      <trkpt lat="45.10406" lon="6.08429">
        <ele>2079.9</ele>
        <time>2021-03-10T07:48:13Z</time>
      </trkpt>
      <trkpt lat="45.10406" lon="6.0843">
        <ele>2080.1</ele>
        <time>2021-03-10T07:48:14Z</time>
      </trkpt>
      <trkpt lat="45.10407" lon="6.08431">
        <ele>2080.1</ele>
        <time>2021-03-10T07:48:15Z</time>
      </trkpt>
      <trkpt lat="45.10408" lon="6.08431">
        <ele>2080.1</ele>
        <time>2021-03-10T07:48:16Z</time>
      </trkpt>
      <trkpt lat="45.10408" lon="6.08432">
        <ele>2080.1</ele>
        <time>2021-03-10T07:48:17Z</time>
      </trkpt>
      <trkpt lat="45.10409" lon="6.08433">
        <ele>2080.1</ele>
        <time>2021-03-10T07:48:18Z</time>
      </trkpt>
      <trkpt lat="45.1041" lon="6.08434">
        <ele>2080.3</ele>
        <time>2021-03-10T07:48:19Z</time>
      </trkpt>
      <trkpt lat="45.1041" lon="6.08435">
        <ele>2080.3</ele>
        <time>2021-03-10T07:48:20Z</time>
      </trkpt>
      <trkpt lat="45.10411" lon="6.08435">
        <ele>2080.3</ele>
        <time>2021-03-10T07:48:21Z</time>
      </trkpt>
      <trkpt lat="45.10411" lon="6.08436">
        <ele>2080.3</ele>
        <time>2021-03-10T07:48:22Z</time>
      </trkpt>
      <trkpt lat="45.10412" lon="6.08438">
        <ele>2080.3</ele>
        <time>2021-03-10T07:48:23Z</time>
      </trkpt>
      <trkpt lat="45.10412" lon="6.08439">
        <ele>2080.5</ele>
        <time>2021-03-10T07:48:24Z</time>
      </trkpt>
      <trkpt lat="45.10413" lon="6.0844">
        <ele>2080.5</ele>
        <time>2021-03-10T07:48:25Z</time>
      </trkpt>
      <trkpt lat="45.10414" lon="6.08441">
        <ele>2080.5</ele>
        <time>2021-03-10T07:48:26Z</time>
      </trkpt>
      <trkpt lat="45.10414" lon="6.08442">
        <ele>2080.5</ele>
        <time>2021-03-10T07:48:27Z</time>
      </trkpt>
      <trkpt lat="45.10415" lon="6.08443">
        <ele>2080.5</ele>
        <time>2021-03-10T07:48:28Z</time>
      </trkpt>
      <trkpt lat="45.10416" lon="6.08444">
        <ele>2080.8</ele>
        <time>2021-03-10T07:48:29Z</time>
      </trkpt>
      <trkpt lat="45.10417" lon="6.08445">
        <ele>2080.8</ele>
        <time>2021-03-10T07:48:30Z</time>
      </trkpt>
      <trkpt lat="45.10418" lon="6.08446">
        <ele>2080.8</ele>
        <time>2021-03-10T07:48:31Z</time>
      </trkpt>
      <trkpt lat="45.10418" lon="6.08447">
        <ele>2080.8</ele>
        <time>2021-03-10T07:48:32Z</time>
      </trkpt>
      <trkpt lat="45.10419" lon="6.08447">
        <ele>2081</ele>
        <time>2021-03-10T07:48:33Z</time>
      </trkpt>
      <trkpt lat="45.10419" lon="6.08448">
        <ele>2081</ele>
        <time>2021-03-10T07:48:34Z</time>
      </trkpt>
      <trkpt lat="45.1042" lon="6.08448">
        <ele>2081</ele>
        <time>2021-03-10T07:48:35Z</time>
      </trkpt>
      <trkpt lat="45.10421" lon="6.08448">
        <ele>2081</ele>
        <time>2021-03-10T07:48:36Z</time>
      </trkpt>
      <trkpt lat="45.10422" lon="6.08449">
        <ele>2081.3</ele>
        <time>2021-03-10T07:48:37Z</time>
      </trkpt>
      <trkpt lat="45.10423" lon="6.08449">
        <ele>2081.3</ele>
        <time>2021-03-10T07:48:38Z</time>
      </trkpt>
      <trkpt lat="45.10424" lon="6.08449">
        <ele>2081.3</ele>
        <time>2021-03-10T07:48:39Z</time>
      </trkpt>
      <trkpt lat="45.10424" lon="6.0845">
        <ele>2081.6</ele>
        <time>2021-03-10T07:48:40Z</time>
      </trkpt>
      <trkpt lat="45.10425" lon="6.0845">
        <ele>2081.6</ele>
        <time>2021-03-10T07:48:41Z</time>
      </trkpt>
      <trkpt lat="45.10426" lon="6.0845">
        <ele>2081.6</ele>
        <time>2021-03-10T07:48:42Z</time>
      </trkpt>
      <trkpt lat="45.10427" lon="6.08451">
        <ele>2081.9</ele>
        <time>2021-03-10T07:48:43Z</time>
      </trkpt>
      <trkpt lat="45.10428" lon="6.08451">
        <ele>2081.9</ele>
        <time>2021-03-10T07:48:44Z</time>
      </trkpt>
      <trkpt lat="45.10429" lon="6.08451">
        <ele>2081.9</ele>
        <time>2021-03-10T07:48:45Z</time>
      </trkpt>
      <trkpt lat="45.10431" lon="6.08451">
        <ele>2082.2</ele>
        <time>2021-03-10T07:48:46Z</time>
      </trkpt>
      <trkpt lat="45.10432" lon="6.08452">
        <ele>2082.2</ele>
        <time>2021-03-10T07:48:47Z</time>
      </trkpt>
      <trkpt lat="45.10433" lon="6.08452">
        <ele>2082.2</ele>
        <time>2021-03-10T07:48:48Z</time>
      </trkpt>
      <trkpt lat="45.10434" lon="6.08452">
        <ele>2082.5</ele>
        <time>2021-03-10T07:48:49Z</time>
      </trkpt>
      <trkpt lat="45.10435" lon="6.08452">
        <ele>2082.5</ele>
        <time>2021-03-10T07:48:50Z</time>
      </trkpt>
      <trkpt lat="45.10436" lon="6.08453">
        <ele>2082.5</ele>
        <time>2021-03-10T07:48:51Z</time>
      </trkpt>
      <trkpt lat="45.10436" lon="6.08454">
        <ele>2082.5</ele>
        <time>2021-03-10T07:48:52Z</time>
      </trkpt>
      <trkpt lat="45.10437" lon="6.08455">
        <ele>2082.8</ele>
        <time>2021-03-10T07:48:53Z</time>
      </trkpt>
      <trkpt lat="45.10438" lon="6.08456">
        <ele>2082.8</ele>
        <time>2021-03-10T07:48:54Z</time>
      </trkpt>
      <trkpt lat="45.10439" lon="6.08457">
        <ele>2082.8</ele>
        <time>2021-03-10T07:48:55Z</time>
      </trkpt>
      <trkpt lat="45.10439" lon="6.08458">
        <ele>2082.8</ele>
        <time>2021-03-10T07:48:56Z</time>
      </trkpt>
      <trkpt lat="45.10441" lon="6.08461">
        <ele>2083.2</ele>
        <time>2021-03-10T07:48:57Z</time>
      </trkpt>
      <trkpt lat="45.10441" lon="6.08462">
        <ele>2083.2</ele>
        <time>2021-03-10T07:48:58Z</time>
      </trkpt>
      <trkpt lat="45.10441" lon="6.08463">
        <ele>2083.1</ele>
        <time>2021-03-10T07:48:59Z</time>
      </trkpt>
      <trkpt lat="45.10442" lon="6.08464">
        <ele>2083.1</ele>
        <time>2021-03-10T07:49:00Z</time>
      </trkpt>
      <trkpt lat="45.10442" lon="6.08465">
        <ele>2083.1</ele>
        <time>2021-03-10T07:49:01Z</time>
      </trkpt>
      <trkpt lat="45.10442" lon="6.08466">
        <ele>2083.1</ele>
        <time>2021-03-10T07:49:02Z</time>
      </trkpt>
      <trkpt lat="45.10443" lon="6.08468">
        <ele>2083.5</ele>
        <time>2021-03-10T07:49:03Z</time>
      </trkpt>
      <trkpt lat="45.10443" lon="6.08469">
        <ele>2083.5</ele>
        <time>2021-03-10T07:49:04Z</time>
      </trkpt>
      <trkpt lat="45.10443" lon="6.0847">
        <ele>2083.5</ele>
        <time>2021-03-10T07:49:05Z</time>
      </trkpt>
      <trkpt lat="45.10444" lon="6.08472">
        <ele>2083.5</ele>
        <time>2021-03-10T07:49:06Z</time>
      </trkpt>
      <trkpt lat="45.10444" lon="6.08473">
        <ele>2083.5</ele>
        <time>2021-03-10T07:49:07Z</time>
      </trkpt>
      <trkpt lat="45.10444" lon="6.08474">
        <ele>2083.5</ele>
        <time>2021-03-10T07:49:08Z</time>
      </trkpt>
      <trkpt lat="45.10444" lon="6.08475">
        <ele>2083.5</ele>
        <time>2021-03-10T07:49:09Z</time>
      </trkpt>
      <trkpt lat="45.10444" lon="6.08476">
        <ele>2083.5</ele>
        <time>2021-03-10T07:49:10Z</time>
      </trkpt>
      <trkpt lat="45.10444" lon="6.08478">
        <ele>2083.5</ele>
        <time>2021-03-10T07:49:11Z</time>
      </trkpt>
      <trkpt lat="45.10444" lon="6.0848">
        <ele>2083.5</ele>
        <time>2021-03-10T07:49:12Z</time>
      </trkpt>
      <trkpt lat="45.10444" lon="6.08481">
        <ele>2083.5</ele>
        <time>2021-03-10T07:49:13Z</time>
      </trkpt>
      <trkpt lat="45.10444" lon="6.08482">
        <ele>2083.5</ele>
        <time>2021-03-10T07:49:14Z</time>
      </trkpt>
      <trkpt lat="45.10444" lon="6.08484">
        <ele>2083.5</ele>
        <time>2021-03-10T07:49:15Z</time>
      </trkpt>
      <trkpt lat="45.10444" lon="6.08485">
        <ele>2083.5</ele>
        <time>2021-03-10T07:49:16Z</time>
      </trkpt>
      <trkpt lat="45.10444" lon="6.08486">
        <ele>2083.5</ele>
        <time>2021-03-10T07:49:17Z</time>
      </trkpt>
      <trkpt lat="45.10444" lon="6.08487">
        <ele>2083.5</ele>
        <time>2021-03-10T07:49:18Z</time>
      </trkpt>
      <trkpt lat="45.10444" lon="6.08488">
        <ele>2083.5</ele>
        <time>2021-03-10T07:49:19Z</time>
      </trkpt>
      <trkpt lat="45.10444" lon="6.08489">
        <ele>2083.5</ele>
        <time>2021-03-10T07:49:20Z</time>
      </trkpt>
      <trkpt lat="45.10444" lon="6.0849">
        <ele>2083.5</ele>
        <time>2021-03-10T07:49:21Z</time>
      </trkpt>
      <trkpt lat="45.10444" lon="6.08492">
        <ele>2083.5</ele>
        <time>2021-03-10T07:49:22Z</time>
      </trkpt>
      <trkpt lat="45.10444" lon="6.08494">
        <ele>2083.6</ele>
        <time>2021-03-10T07:49:23Z</time>
      </trkpt>
      <trkpt lat="45.10443" lon="6.08495">
        <ele>2083.6</ele>
        <time>2021-03-10T07:49:24Z</time>
      </trkpt>
      <trkpt lat="45.10443" lon="6.08497">
        <ele>2083.6</ele>
        <time>2021-03-10T07:49:25Z</time>
      </trkpt>
      <trkpt lat="45.10443" lon="6.08498">
        <ele>2083.6</ele>
        <time>2021-03-10T07:49:26Z</time>
      </trkpt>
      <trkpt lat="45.10442" lon="6.085">
        <ele>2083.3</ele>
        <time>2021-03-10T07:49:27Z</time>
      </trkpt>
      <trkpt lat="45.10442" lon="6.08501">
        <ele>2083.4</ele>
        <time>2021-03-10T07:49:28Z</time>
      </trkpt>
      <trkpt lat="45.10442" lon="6.08503">
        <ele>2083.4</ele>
        <time>2021-03-10T07:49:29Z</time>
      </trkpt>
      <trkpt lat="45.10441" lon="6.08504">
        <ele>2083.4</ele>
        <time>2021-03-10T07:49:30Z</time>
      </trkpt>
      <trkpt lat="45.10441" lon="6.08506">
        <ele>2083.5</ele>
        <time>2021-03-10T07:49:31Z</time>
      </trkpt>
      <trkpt lat="45.10441" lon="6.08507">
        <ele>2083.5</ele>
        <time>2021-03-10T07:49:32Z</time>
      </trkpt>
      <trkpt lat="45.10441" lon="6.08509">
        <ele>2083.5</ele>
        <time>2021-03-10T07:49:33Z</time>
      </trkpt>
      <trkpt lat="45.10441" lon="6.0851">
        <ele>2083.7</ele>
        <time>2021-03-10T07:49:34Z</time>
      </trkpt>
      <trkpt lat="45.10441" lon="6.08512">
        <ele>2083.7</ele>
        <time>2021-03-10T07:49:35Z</time>
      </trkpt>
      <trkpt lat="45.10441" lon="6.08514">
        <ele>2083.9</ele>
        <time>2021-03-10T07:49:36Z</time>
      </trkpt>
      <trkpt lat="45.10441" lon="6.08516">
        <ele>2083.9</ele>
        <time>2021-03-10T07:49:37Z</time>
      </trkpt>
      <trkpt lat="45.10441" lon="6.08517">
        <ele>2083.9</ele>
        <time>2021-03-10T07:49:38Z</time>
      </trkpt>
      <trkpt lat="45.10442" lon="6.08519">
        <ele>2084.1</ele>
        <time>2021-03-10T07:49:39Z</time>
      </trkpt>
      <trkpt lat="45.10443" lon="6.08522">
        <ele>2084.1</ele>
        <time>2021-03-10T07:49:40Z</time>
      </trkpt>
      <trkpt lat="45.10443" lon="6.08523">
        <ele>2084.8</ele>
        <time>2021-03-10T07:49:41Z</time>
      </trkpt>
      <trkpt lat="45.10443" lon="6.08524">
        <ele>2084.8</ele>
        <time>2021-03-10T07:49:42Z</time>
      </trkpt>
      <trkpt lat="45.10444" lon="6.08525">
        <ele>2084.8</ele>
        <time>2021-03-10T07:49:43Z</time>
      </trkpt>
      <trkpt lat="45.10444" lon="6.08526">
        <ele>2084.8</ele>
        <time>2021-03-10T07:49:44Z</time>
      </trkpt>
      <trkpt lat="45.10444" lon="6.08527">
        <ele>2085.1</ele>
        <time>2021-03-10T07:49:45Z</time>
      </trkpt>
      <trkpt lat="45.10445" lon="6.08528">
        <ele>2085.1</ele>
        <time>2021-03-10T07:49:46Z</time>
      </trkpt>
      <trkpt lat="45.10445" lon="6.0853">
        <ele>2085.1</ele>
        <time>2021-03-10T07:49:47Z</time>
      </trkpt>
      <trkpt lat="45.10445" lon="6.08531">
        <ele>2085.3</ele>
        <time>2021-03-10T07:49:48Z</time>
      </trkpt>
      <trkpt lat="45.10446" lon="6.08533">
        <ele>2085.7</ele>
        <time>2021-03-10T07:49:49Z</time>
      </trkpt>
      <trkpt lat="45.10446" lon="6.08534">
        <ele>2085.7</ele>
        <time>2021-03-10T07:49:50Z</time>
      </trkpt>
      <trkpt lat="45.10447" lon="6.08536">
        <ele>2086</ele>
        <time>2021-03-10T07:49:51Z</time>
      </trkpt>
      <trkpt lat="45.10447" lon="6.08537">
        <ele>2086</ele>
        <time>2021-03-10T07:49:52Z</time>
      </trkpt>
      <trkpt lat="45.10448" lon="6.08538">
        <ele>2086</ele>
        <time>2021-03-10T07:49:53Z</time>
      </trkpt>
      <trkpt lat="45.10449" lon="6.08539">
        <ele>2086</ele>
        <time>2021-03-10T07:49:54Z</time>
      </trkpt>
      <trkpt lat="45.10449" lon="6.08541">
        <ele>2086.7</ele>
        <time>2021-03-10T07:49:55Z</time>
      </trkpt>
      <trkpt lat="45.1045" lon="6.08543">
        <ele>2086.7</ele>
        <time>2021-03-10T07:49:56Z</time>
      </trkpt>
      <trkpt lat="45.10451" lon="6.08544">
        <ele>2087</ele>
        <time>2021-03-10T07:49:57Z</time>
      </trkpt>
      <trkpt lat="45.10451" lon="6.08545">
        <ele>2087</ele>
        <time>2021-03-10T07:49:58Z</time>
      </trkpt>
      <trkpt lat="45.10452" lon="6.08546">
        <ele>2087.3</ele>
        <time>2021-03-10T07:49:59Z</time>
      </trkpt>
      <trkpt lat="45.10452" lon="6.08547">
        <ele>2087.3</ele>
        <time>2021-03-10T07:50:00Z</time>
      </trkpt>
      <trkpt lat="45.10453" lon="6.08548">
        <ele>2087.7</ele>
        <time>2021-03-10T07:50:01Z</time>
      </trkpt>
      <trkpt lat="45.10453" lon="6.08549">
        <ele>2087.7</ele>
        <time>2021-03-10T07:50:02Z</time>
      </trkpt>
      <trkpt lat="45.10454" lon="6.08551">
        <ele>2087.7</ele>
        <time>2021-03-10T07:50:03Z</time>
      </trkpt>
      <trkpt lat="45.10455" lon="6.08552">
        <ele>2088.3</ele>
        <time>2021-03-10T07:50:04Z</time>
      </trkpt>
      <trkpt lat="45.10456" lon="6.08553">
        <ele>2088.6</ele>
        <time>2021-03-10T07:50:05Z</time>
      </trkpt>
      <trkpt lat="45.10457" lon="6.08554">
        <ele>2088.6</ele>
        <time>2021-03-10T07:50:06Z</time>
      </trkpt>
      <trkpt lat="45.10457" lon="6.08555">
        <ele>2088.6</ele>
        <time>2021-03-10T07:50:07Z</time>
      </trkpt>
      <trkpt lat="45.10458" lon="6.08557">
        <ele>2088.9</ele>
        <time>2021-03-10T07:50:08Z</time>
      </trkpt>
      <trkpt lat="45.10459" lon="6.08558">
        <ele>2089.3</ele>
        <time>2021-03-10T07:50:09Z</time>
      </trkpt>
      <trkpt lat="45.10459" lon="6.08559">
        <ele>2089.3</ele>
        <time>2021-03-10T07:50:10Z</time>
      </trkpt>
      <trkpt lat="45.1046" lon="6.0856">
        <ele>2089.3</ele>
        <time>2021-03-10T07:50:11Z</time>
      </trkpt>
      <trkpt lat="45.1046" lon="6.08561">
        <ele>2089.7</ele>
        <time>2021-03-10T07:50:12Z</time>
      </trkpt>
      <trkpt lat="45.10461" lon="6.08562">
        <ele>2090</ele>
        <time>2021-03-10T07:50:13Z</time>
      </trkpt>
      <trkpt lat="45.10462" lon="6.08564">
        <ele>2090</ele>
        <time>2021-03-10T07:50:14Z</time>
      </trkpt>
      <trkpt lat="45.10463" lon="6.08565">
        <ele>2090</ele>
        <time>2021-03-10T07:50:15Z</time>
      </trkpt>
      <trkpt lat="45.10464" lon="6.08566">
        <ele>2090.4</ele>
        <time>2021-03-10T07:50:16Z</time>
      </trkpt>
      <trkpt lat="45.10464" lon="6.08567">
        <ele>2090.7</ele>
        <time>2021-03-10T07:50:17Z</time>
      </trkpt>
      <trkpt lat="45.10465" lon="6.08568">
        <ele>2090.7</ele>
        <time>2021-03-10T07:50:18Z</time>
      </trkpt>
      <trkpt lat="45.10466" lon="6.08569">
        <ele>2090.7</ele>
        <time>2021-03-10T07:50:19Z</time>
      </trkpt>
      <trkpt lat="45.10467" lon="6.0857">
        <ele>2091.1</ele>
        <time>2021-03-10T07:50:20Z</time>
      </trkpt>
      <trkpt lat="45.10468" lon="6.08571">
        <ele>2091.4</ele>
        <time>2021-03-10T07:50:21Z</time>
      </trkpt>
      <trkpt lat="45.10468" lon="6.08573">
        <ele>2091.4</ele>
        <time>2021-03-10T07:50:22Z</time>
      </trkpt>
      <trkpt lat="45.10469" lon="6.08574">
        <ele>2091.4</ele>
        <time>2021-03-10T07:50:23Z</time>
      </trkpt>
      <trkpt lat="45.1047" lon="6.08575">
        <ele>2092.2</ele>
        <time>2021-03-10T07:50:24Z</time>
      </trkpt>
      <trkpt lat="45.10471" lon="6.08576">
        <ele>2092.2</ele>
        <time>2021-03-10T07:50:25Z</time>
      </trkpt>
      <trkpt lat="45.10472" lon="6.08577">
        <ele>2092.2</ele>
        <time>2021-03-10T07:50:26Z</time>
      </trkpt>
      <trkpt lat="45.10472" lon="6.08577">
        <ele>2092.2</ele>
        <time>2021-03-10T07:50:27Z</time>
      </trkpt>
      <trkpt lat="45.10473" lon="6.08578">
        <ele>2092.6</ele>
        <time>2021-03-10T07:50:28Z</time>
      </trkpt>
      <trkpt lat="45.10474" lon="6.08579">
        <ele>2092.9</ele>
        <time>2021-03-10T07:50:29Z</time>
      </trkpt>
      <trkpt lat="45.10474" lon="6.0858">
        <ele>2092.9</ele>
        <time>2021-03-10T07:50:30Z</time>
      </trkpt>
      <trkpt lat="45.10475" lon="6.08581">
        <ele>2092.9</ele>
        <time>2021-03-10T07:50:31Z</time>
      </trkpt>
      <trkpt lat="45.10475" lon="6.08582">
        <ele>2092.9</ele>
        <time>2021-03-10T07:50:32Z</time>
      </trkpt>
      <trkpt lat="45.10476" lon="6.08583">
        <ele>2093.3</ele>
        <time>2021-03-10T07:50:33Z</time>
      </trkpt>
      <trkpt lat="45.10476" lon="6.08584">
        <ele>2093.7</ele>
        <time>2021-03-10T07:50:34Z</time>
      </trkpt>
      <trkpt lat="45.10477" lon="6.08586">
        <ele>2093.7</ele>
        <time>2021-03-10T07:50:35Z</time>
      </trkpt>
      <trkpt lat="45.10478" lon="6.08588">
        <ele>2094.1</ele>
        <time>2021-03-10T07:50:36Z</time>
      </trkpt>
      <trkpt lat="45.10478" lon="6.08589">
        <ele>2094.1</ele>
        <time>2021-03-10T07:50:37Z</time>
      </trkpt>
      <trkpt lat="45.10478" lon="6.08589">
        <ele>2094.1</ele>
        <time>2021-03-10T07:50:38Z</time>
      </trkpt>
      <trkpt lat="45.10478" lon="6.0859">
        <ele>2094.1</ele>
        <time>2021-03-10T07:50:39Z</time>
      </trkpt>
      <trkpt lat="45.10479" lon="6.08591">
        <ele>2094.9</ele>
        <time>2021-03-10T07:50:40Z</time>
      </trkpt>
      <trkpt lat="45.1048" lon="6.08592">
        <ele>2094.9</ele>
        <time>2021-03-10T07:50:41Z</time>
      </trkpt>
      <trkpt lat="45.1048" lon="6.08593">
        <ele>2094.9</ele>
        <time>2021-03-10T07:50:42Z</time>
      </trkpt>
      <trkpt lat="45.10481" lon="6.08594">
        <ele>2094.9</ele>
        <time>2021-03-10T07:50:43Z</time>
      </trkpt>
      <trkpt lat="45.10482" lon="6.08595">
        <ele>2094.9</ele>
        <time>2021-03-10T07:50:44Z</time>
      </trkpt>
      <trkpt lat="45.10482" lon="6.08596">
        <ele>2095.7</ele>
        <time>2021-03-10T07:50:45Z</time>
      </trkpt>
      <trkpt lat="45.10483" lon="6.08597">
        <ele>2095.7</ele>
        <time>2021-03-10T07:50:46Z</time>
      </trkpt>
      <trkpt lat="45.10483" lon="6.08599">
        <ele>2095.7</ele>
        <time>2021-03-10T07:50:47Z</time>
      </trkpt>
      <trkpt lat="45.10484" lon="6.086">
        <ele>2096.2</ele>
        <time>2021-03-10T07:50:48Z</time>
      </trkpt>
      <trkpt lat="45.10485" lon="6.08602">
        <ele>2096.2</ele>
        <time>2021-03-10T07:50:49Z</time>
      </trkpt>
      <trkpt lat="45.10485" lon="6.08603">
        <ele>2096.2</ele>
        <time>2021-03-10T07:50:50Z</time>
      </trkpt>
      <trkpt lat="45.10485" lon="6.08604">
        <ele>2097</ele>
        <time>2021-03-10T07:50:51Z</time>
      </trkpt>
      <trkpt lat="45.10486" lon="6.08606">
        <ele>2097</ele>
        <time>2021-03-10T07:50:52Z</time>
      </trkpt>
      <trkpt lat="45.10486" lon="6.08607">
        <ele>2097</ele>
        <time>2021-03-10T07:50:53Z</time>
      </trkpt>
      <trkpt lat="45.10487" lon="6.08609">
        <ele>2097.5</ele>
        <time>2021-03-10T07:50:54Z</time>
      </trkpt>
      <trkpt lat="45.10488" lon="6.08611">
        <ele>2097.8</ele>
        <time>2021-03-10T07:50:55Z</time>
      </trkpt>
      <trkpt lat="45.10489" lon="6.08612">
        <ele>2097.8</ele>
        <time>2021-03-10T07:50:56Z</time>
      </trkpt>
      <trkpt lat="45.10489" lon="6.08613">
        <ele>2098.3</ele>
        <time>2021-03-10T07:50:57Z</time>
      </trkpt>
      <trkpt lat="45.1049" lon="6.08614">
        <ele>2098.3</ele>
        <time>2021-03-10T07:50:58Z</time>
      </trkpt>
      <trkpt lat="45.10491" lon="6.08615">
        <ele>2098.3</ele>
        <time>2021-03-10T07:50:59Z</time>
      </trkpt>
      <trkpt lat="45.10492" lon="6.08616">
        <ele>2098.6</ele>
        <time>2021-03-10T07:51:00Z</time>
      </trkpt>
      <trkpt lat="45.10492" lon="6.08617">
        <ele>2098.6</ele>
        <time>2021-03-10T07:51:01Z</time>
      </trkpt>
      <trkpt lat="45.10493" lon="6.08618">
        <ele>2099</ele>
        <time>2021-03-10T07:51:02Z</time>
      </trkpt>
      <trkpt lat="45.10494" lon="6.08619">
        <ele>2099</ele>
        <time>2021-03-10T07:51:03Z</time>
      </trkpt>
      <trkpt lat="45.10494" lon="6.0862">
        <ele>2099.3</ele>
        <time>2021-03-10T07:51:04Z</time>
      </trkpt>
      <trkpt lat="45.10495" lon="6.08621">
        <ele>2099.3</ele>
        <time>2021-03-10T07:51:05Z</time>
      </trkpt>
      <trkpt lat="45.10495" lon="6.08621">
        <ele>2099.7</ele>
        <time>2021-03-10T07:51:06Z</time>
      </trkpt>
      <trkpt lat="45.10496" lon="6.08622">
        <ele>2099.7</ele>
        <time>2021-03-10T07:51:07Z</time>
      </trkpt>
      <trkpt lat="45.10496" lon="6.08623">
        <ele>2099.7</ele>
        <time>2021-03-10T07:51:08Z</time>
      </trkpt>
      <trkpt lat="45.10497" lon="6.08625">
        <ele>2099.7</ele>
        <time>2021-03-10T07:51:09Z</time>
      </trkpt>
      <trkpt lat="45.10497" lon="6.08626">
        <ele>2100.4</ele>
        <time>2021-03-10T07:51:10Z</time>
      </trkpt>
      <trkpt lat="45.10498" lon="6.08627">
        <ele>2100.4</ele>
        <time>2021-03-10T07:51:11Z</time>
      </trkpt>
      <trkpt lat="45.10498" lon="6.08628">
        <ele>2100.4</ele>
        <time>2021-03-10T07:51:12Z</time>
      </trkpt>
      <trkpt lat="45.10499" lon="6.08629">
        <ele>2100.4</ele>
        <time>2021-03-10T07:51:13Z</time>
      </trkpt>
      <trkpt lat="45.10499" lon="6.0863">
        <ele>2100.8</ele>
        <time>2021-03-10T07:51:14Z</time>
      </trkpt>
      <trkpt lat="45.105" lon="6.08631">
        <ele>2101.1</ele>
        <time>2021-03-10T07:51:15Z</time>
      </trkpt>
      <trkpt lat="45.10501" lon="6.08632">
        <ele>2101.1</ele>
        <time>2021-03-10T07:51:16Z</time>
      </trkpt>
      <trkpt lat="45.10501" lon="6.08633">
        <ele>2101.1</ele>
        <time>2021-03-10T07:51:17Z</time>
      </trkpt>
      <trkpt lat="45.10502" lon="6.08634">
        <ele>2101.6</ele>
        <time>2021-03-10T07:51:18Z</time>
      </trkpt>
      <trkpt lat="45.10502" lon="6.08635">
        <ele>2101.6</ele>
        <time>2021-03-10T07:51:19Z</time>
      </trkpt>
      <trkpt lat="45.10503" lon="6.08636">
        <ele>2101.8</ele>
        <time>2021-03-10T07:51:20Z</time>
      </trkpt>
      <trkpt lat="45.10504" lon="6.08637">
        <ele>2101.8</ele>
        <time>2021-03-10T07:51:21Z</time>
      </trkpt>
      <trkpt lat="45.10504" lon="6.08639">
        <ele>2102.3</ele>
        <time>2021-03-10T07:51:22Z</time>
      </trkpt>
      <trkpt lat="45.10505" lon="6.0864">
        <ele>2102.3</ele>
        <time>2021-03-10T07:51:23Z</time>
      </trkpt>
      <trkpt lat="45.10506" lon="6.08641">
        <ele>2102.3</ele>
        <time>2021-03-10T07:51:24Z</time>
      </trkpt>
      <trkpt lat="45.10506" lon="6.08642">
        <ele>2102.5</ele>
        <time>2021-03-10T07:51:25Z</time>
      </trkpt>
      <trkpt lat="45.10507" lon="6.08643">
        <ele>2103.3</ele>
        <time>2021-03-10T07:51:26Z</time>
      </trkpt>
      <trkpt lat="45.10508" lon="6.08644">
        <ele>2103.3</ele>
        <time>2021-03-10T07:51:27Z</time>
      </trkpt>
      <trkpt lat="45.10508" lon="6.08645">
        <ele>2103.3</ele>
        <time>2021-03-10T07:51:28Z</time>
      </trkpt>
      <trkpt lat="45.10509" lon="6.08647">
        <ele>2103.3</ele>
        <time>2021-03-10T07:51:29Z</time>
      </trkpt>
      <trkpt lat="45.10509" lon="6.08648">
        <ele>2104</ele>
        <time>2021-03-10T07:51:30Z</time>
      </trkpt>
      <trkpt lat="45.1051" lon="6.08649">
        <ele>2104</ele>
        <time>2021-03-10T07:51:31Z</time>
      </trkpt>
      <trkpt lat="45.10511" lon="6.08649">
        <ele>2104</ele>
        <time>2021-03-10T07:51:32Z</time>
      </trkpt>
      <trkpt lat="45.10511" lon="6.0865">
        <ele>2104</ele>
        <time>2021-03-10T07:51:33Z</time>
      </trkpt>
      <trkpt lat="45.10512" lon="6.08651">
        <ele>2104.5</ele>
        <time>2021-03-10T07:51:34Z</time>
      </trkpt>
      <trkpt lat="45.10513" lon="6.08652">
        <ele>2104.7</ele>
        <time>2021-03-10T07:51:35Z</time>
      </trkpt>
      <trkpt lat="45.10513" lon="6.08653">
        <ele>2104.7</ele>
        <time>2021-03-10T07:51:36Z</time>
      </trkpt>
      <trkpt lat="45.10514" lon="6.08654">
        <ele>2104.7</ele>
        <time>2021-03-10T07:51:37Z</time>
      </trkpt>
      <trkpt lat="45.10515" lon="6.08655">
        <ele>2104.7</ele>
        <time>2021-03-10T07:51:38Z</time>
      </trkpt>
      <trkpt lat="45.10515" lon="6.08656">
        <ele>2105.2</ele>
        <time>2021-03-10T07:51:39Z</time>
      </trkpt>
      <trkpt lat="45.10516" lon="6.08657">
        <ele>2105.3</ele>
        <time>2021-03-10T07:51:40Z</time>
      </trkpt>
      <trkpt lat="45.10516" lon="6.08658">
        <ele>2105.3</ele>
        <time>2021-03-10T07:51:41Z</time>
      </trkpt>
      <trkpt lat="45.10517" lon="6.08659">
        <ele>2105.3</ele>
        <time>2021-03-10T07:51:42Z</time>
      </trkpt>
      <trkpt lat="45.10517" lon="6.0866">
        <ele>2105.3</ele>
        <time>2021-03-10T07:51:43Z</time>
      </trkpt>
      <trkpt lat="45.10518" lon="6.08661">
        <ele>2105.8</ele>
        <time>2021-03-10T07:51:44Z</time>
      </trkpt>
      <trkpt lat="45.10518" lon="6.08661">
        <ele>2105.8</ele>
        <time>2021-03-10T07:51:45Z</time>
      </trkpt>
      <trkpt lat="45.10519" lon="6.08662">
        <ele>2105.9</ele>
        <time>2021-03-10T07:51:46Z</time>
      </trkpt>
      <trkpt lat="45.10519" lon="6.08663">
        <ele>2105.9</ele>
        <time>2021-03-10T07:51:47Z</time>
      </trkpt>
      <trkpt lat="45.10519" lon="6.08664">
        <ele>2105.9</ele>
        <time>2021-03-10T07:51:48Z</time>
      </trkpt>
      <trkpt lat="45.1052" lon="6.08665">
        <ele>2106.4</ele>
        <time>2021-03-10T07:51:49Z</time>
      </trkpt>
      <trkpt lat="45.1052" lon="6.08666">
        <ele>2106.4</ele>
        <time>2021-03-10T07:51:50Z</time>
      </trkpt>
      <trkpt lat="45.10521" lon="6.08667">
        <ele>2106.4</ele>
        <time>2021-03-10T07:51:51Z</time>
      </trkpt>
      <trkpt lat="45.10521" lon="6.08668">
        <ele>2106.4</ele>
        <time>2021-03-10T07:51:52Z</time>
      </trkpt>
      <trkpt lat="45.10522" lon="6.08669">
        <ele>2107</ele>
        <time>2021-03-10T07:51:53Z</time>
      </trkpt>
      <trkpt lat="45.10522" lon="6.0867">
        <ele>2107</ele>
        <time>2021-03-10T07:51:54Z</time>
      </trkpt>
      <trkpt lat="45.10523" lon="6.08671">
        <ele>2107</ele>
        <time>2021-03-10T07:51:55Z</time>
      </trkpt>
      <trkpt lat="45.10523" lon="6.08672">
        <ele>2107</ele>
        <time>2021-03-10T07:51:56Z</time>
      </trkpt>
      <trkpt lat="45.10524" lon="6.08673">
        <ele>2107.6</ele>
        <time>2021-03-10T07:51:57Z</time>
      </trkpt>
      <trkpt lat="45.10524" lon="6.08674">
        <ele>2107.6</ele>
        <time>2021-03-10T07:51:58Z</time>
      </trkpt>
      <trkpt lat="45.10525" lon="6.08675">
        <ele>2107.6</ele>
        <time>2021-03-10T07:51:59Z</time>
      </trkpt>
      <trkpt lat="45.10525" lon="6.08676">
        <ele>2107.6</ele>
        <time>2021-03-10T07:52:00Z</time>
      </trkpt>
      <trkpt lat="45.10526" lon="6.08677">
        <ele>2108.2</ele>
        <time>2021-03-10T07:52:01Z</time>
      </trkpt>
      <trkpt lat="45.10526" lon="6.08678">
        <ele>2108.2</ele>
        <time>2021-03-10T07:52:02Z</time>
      </trkpt>
      <trkpt lat="45.10527" lon="6.08679">
        <ele>2108.2</ele>
        <time>2021-03-10T07:52:03Z</time>
      </trkpt>
      <trkpt lat="45.10527" lon="6.0868">
        <ele>2108.2</ele>
        <time>2021-03-10T07:52:04Z</time>
      </trkpt>
      <trkpt lat="45.10528" lon="6.08681">
        <ele>2108.8</ele>
        <time>2021-03-10T07:52:05Z</time>
      </trkpt>
      <trkpt lat="45.10528" lon="6.08682">
        <ele>2108.8</ele>
        <time>2021-03-10T07:52:06Z</time>
      </trkpt>
      <trkpt lat="45.10529" lon="6.08683">
        <ele>2108.8</ele>
        <time>2021-03-10T07:52:07Z</time>
      </trkpt>
      <trkpt lat="45.10529" lon="6.08685">
        <ele>2108.8</ele>
        <time>2021-03-10T07:52:08Z</time>
      </trkpt>
      <trkpt lat="45.10529" lon="6.08686">
        <ele>2109.4</ele>
        <time>2021-03-10T07:52:09Z</time>
      </trkpt>
      <trkpt lat="45.10529" lon="6.08687">
        <ele>2109.4</ele>
        <time>2021-03-10T07:52:10Z</time>
      </trkpt>
      <trkpt lat="45.1053" lon="6.08688">
        <ele>2109.4</ele>
        <time>2021-03-10T07:52:11Z</time>
      </trkpt>
      <trkpt lat="45.1053" lon="6.0869">
        <ele>2109.4</ele>
        <time>2021-03-10T07:52:12Z</time>
      </trkpt>
      <trkpt lat="45.10531" lon="6.08691">
        <ele>2109.9</ele>
        <time>2021-03-10T07:52:13Z</time>
      </trkpt>
      <trkpt lat="45.10531" lon="6.08692">
        <ele>2109.9</ele>
        <time>2021-03-10T07:52:14Z</time>
      </trkpt>
      <trkpt lat="45.10531" lon="6.08693">
        <ele>2109.9</ele>
        <time>2021-03-10T07:52:15Z</time>
      </trkpt>
      <trkpt lat="45.10532" lon="6.08694">
        <ele>2109.9</ele>
        <time>2021-03-10T07:52:16Z</time>
      </trkpt>
      <trkpt lat="45.10532" lon="6.08695">
        <ele>2110.4</ele>
        <time>2021-03-10T07:52:17Z</time>
      </trkpt>
      <trkpt lat="45.10533" lon="6.08696">
        <ele>2110.4</ele>
        <time>2021-03-10T07:52:18Z</time>
      </trkpt>
      <trkpt lat="45.10533" lon="6.08697">
        <ele>2110.4</ele>
        <time>2021-03-10T07:52:19Z</time>
      </trkpt>
      <trkpt lat="45.10534" lon="6.08698">
        <ele>2110.4</ele>
        <time>2021-03-10T07:52:20Z</time>
      </trkpt>
      <trkpt lat="45.10535" lon="6.08699">
        <ele>2110.9</ele>
        <time>2021-03-10T07:52:21Z</time>
      </trkpt>
      <trkpt lat="45.10535" lon="6.087">
        <ele>2110.9</ele>
        <time>2021-03-10T07:52:22Z</time>
      </trkpt>
      <trkpt lat="45.10535" lon="6.08701">
        <ele>2110.9</ele>
        <time>2021-03-10T07:52:23Z</time>
      </trkpt>
      <trkpt lat="45.10536" lon="6.08702">
        <ele>2110.9</ele>
        <time>2021-03-10T07:52:24Z</time>
      </trkpt>
      <trkpt lat="45.10536" lon="6.08703">
        <ele>2111.3</ele>
        <time>2021-03-10T07:52:25Z</time>
      </trkpt>
      <trkpt lat="45.10537" lon="6.08704">
        <ele>2111.2</ele>
        <time>2021-03-10T07:52:26Z</time>
      </trkpt>
      <trkpt lat="45.10537" lon="6.08704">
        <ele>2111.2</ele>
        <time>2021-03-10T07:52:27Z</time>
      </trkpt>
      <trkpt lat="45.10537" lon="6.08705">
        <ele>2111.2</ele>
        <time>2021-03-10T07:52:28Z</time>
      </trkpt>
      <trkpt lat="45.10537" lon="6.08706">
        <ele>2111.2</ele>
        <time>2021-03-10T07:52:29Z</time>
      </trkpt>
      <trkpt lat="45.10537" lon="6.08707">
        <ele>2111.6</ele>
        <time>2021-03-10T07:52:30Z</time>
      </trkpt>
      <trkpt lat="45.10538" lon="6.08708">
        <ele>2111.6</ele>
        <time>2021-03-10T07:52:31Z</time>
      </trkpt>
      <trkpt lat="45.10538" lon="6.08709">
        <ele>2111.6</ele>
        <time>2021-03-10T07:52:32Z</time>
      </trkpt>
      <trkpt lat="45.10538" lon="6.0871">
        <ele>2111.6</ele>
        <time>2021-03-10T07:52:33Z</time>
      </trkpt>
      <trkpt lat="45.10539" lon="6.08711">
        <ele>2111.6</ele>
        <time>2021-03-10T07:52:34Z</time>
      </trkpt>
      <trkpt lat="45.10539" lon="6.08712">
        <ele>2112</ele>
        <time>2021-03-10T07:52:35Z</time>
      </trkpt>
      <trkpt lat="45.10539" lon="6.08713">
        <ele>2112</ele>
        <time>2021-03-10T07:52:36Z</time>
      </trkpt>
      <trkpt lat="45.1054" lon="6.08714">
        <ele>2111.9</ele>
        <time>2021-03-10T07:52:37Z</time>
      </trkpt>
      <trkpt lat="45.1054" lon="6.08715">
        <ele>2111.9</ele>
        <time>2021-03-10T07:52:38Z</time>
      </trkpt>
      <trkpt lat="45.1054" lon="6.08717">
        <ele>2112.3</ele>
        <time>2021-03-10T07:52:39Z</time>
      </trkpt>
      <trkpt lat="45.10541" lon="6.08718">
        <ele>2112.3</ele>
        <time>2021-03-10T07:52:40Z</time>
      </trkpt>
      <trkpt lat="45.10541" lon="6.08719">
        <ele>2112.3</ele>
        <time>2021-03-10T07:52:41Z</time>
      </trkpt>
      <trkpt lat="45.10541" lon="6.0872">
        <ele>2112.7</ele>
        <time>2021-03-10T07:52:42Z</time>
      </trkpt>
      <trkpt lat="45.10541" lon="6.08721">
        <ele>2112.7</ele>
        <time>2021-03-10T07:52:43Z</time>
      </trkpt>
      <trkpt lat="45.10541" lon="6.08722">
        <ele>2112.7</ele>
        <time>2021-03-10T07:52:44Z</time>
      </trkpt>
      <trkpt lat="45.1054" lon="6.08723">
        <ele>2112.7</ele>
        <time>2021-03-10T07:52:45Z</time>
      </trkpt>
      <trkpt lat="45.10539" lon="6.08724">
        <ele>2112.8</ele>
        <time>2021-03-10T07:52:46Z</time>
      </trkpt>
      <trkpt lat="45.10539" lon="6.08725">
        <ele>2113.2</ele>
        <time>2021-03-10T07:52:47Z</time>
      </trkpt>
      <trkpt lat="45.10538" lon="6.08725">
        <ele>2113.2</ele>
        <time>2021-03-10T07:52:48Z</time>
      </trkpt>
      <trkpt lat="45.10538" lon="6.08726">
        <ele>2113.2</ele>
        <time>2021-03-10T07:52:49Z</time>
      </trkpt>
      <trkpt lat="45.10537" lon="6.08727">
        <ele>2113.2</ele>
        <time>2021-03-10T07:52:50Z</time>
      </trkpt>
      <trkpt lat="45.10536" lon="6.08728">
        <ele>2113.3</ele>
        <time>2021-03-10T07:52:51Z</time>
      </trkpt>
      <trkpt lat="45.10536" lon="6.08729">
        <ele>2113.7</ele>
        <time>2021-03-10T07:52:52Z</time>
      </trkpt>
      <trkpt lat="45.10536" lon="6.0873">
        <ele>2113.7</ele>
        <time>2021-03-10T07:52:53Z</time>
      </trkpt>
      <trkpt lat="45.10535" lon="6.08731">
        <ele>2113.7</ele>
        <time>2021-03-10T07:52:54Z</time>
      </trkpt>
      <trkpt lat="45.10535" lon="6.08732">
        <ele>2113.7</ele>
        <time>2021-03-10T07:52:55Z</time>
      </trkpt>
      <trkpt lat="45.10534" lon="6.08733">
        <ele>2114.1</ele>
        <time>2021-03-10T07:52:56Z</time>
      </trkpt>
      <trkpt lat="45.10534" lon="6.08734">
        <ele>2114.1</ele>
        <time>2021-03-10T07:52:57Z</time>
      </trkpt>
      <trkpt lat="45.10534" lon="6.08735">
        <ele>2114.1</ele>
        <time>2021-03-10T07:52:58Z</time>
      </trkpt>
      <trkpt lat="45.10533" lon="6.08736">
        <ele>2114.2</ele>
        <time>2021-03-10T07:52:59Z</time>
      </trkpt>
      <trkpt lat="45.10533" lon="6.08737">
        <ele>2114.2</ele>
        <time>2021-03-10T07:53:00Z</time>
      </trkpt>
      <trkpt lat="45.10533" lon="6.08738">
        <ele>2114.6</ele>
        <time>2021-03-10T07:53:01Z</time>
      </trkpt>
      <trkpt lat="45.10533" lon="6.08739">
        <ele>2114.6</ele>
        <time>2021-03-10T07:53:02Z</time>
      </trkpt>
      <trkpt lat="45.10533" lon="6.0874">
        <ele>2114.6</ele>
        <time>2021-03-10T07:53:03Z</time>
      </trkpt>
      <trkpt lat="45.10532" lon="6.08741">
        <ele>2114.6</ele>
        <time>2021-03-10T07:53:04Z</time>
      </trkpt>
      <trkpt lat="45.10532" lon="6.08742">
        <ele>2115</ele>
        <time>2021-03-10T07:53:05Z</time>
      </trkpt>
      <trkpt lat="45.10532" lon="6.08744">
        <ele>2115</ele>
        <time>2021-03-10T07:53:06Z</time>
      </trkpt>
      <trkpt lat="45.10532" lon="6.08745">
        <ele>2115</ele>
        <time>2021-03-10T07:53:07Z</time>
      </trkpt>
      <trkpt lat="45.10532" lon="6.08747">
        <ele>2115.5</ele>
        <time>2021-03-10T07:53:08Z</time>
      </trkpt>
      <trkpt lat="45.10532" lon="6.08748">
        <ele>2115.5</ele>
        <time>2021-03-10T07:53:09Z</time>
      </trkpt>
      <trkpt lat="45.10531" lon="6.08749">
        <ele>2115.5</ele>
        <time>2021-03-10T07:53:10Z</time>
      </trkpt>
      <trkpt lat="45.10531" lon="6.08751">
        <ele>2115.9</ele>
        <time>2021-03-10T07:53:11Z</time>
      </trkpt>
      <trkpt lat="45.10531" lon="6.08752">
        <ele>2115.9</ele>
        <time>2021-03-10T07:53:12Z</time>
      </trkpt>
      <trkpt lat="45.1053" lon="6.08753">
        <ele>2116</ele>
        <time>2021-03-10T07:53:13Z</time>
      </trkpt>
      <trkpt lat="45.1053" lon="6.08753">
        <ele>2116</ele>
        <time>2021-03-10T07:53:14Z</time>
      </trkpt>
      <trkpt lat="45.1053" lon="6.08754">
        <ele>2116</ele>
        <time>2021-03-10T07:53:15Z</time>
      </trkpt>
      <trkpt lat="45.1053" lon="6.08755">
        <ele>2116.5</ele>
        <time>2021-03-10T07:53:16Z</time>
      </trkpt>
      <trkpt lat="45.10529" lon="6.08756">
        <ele>2116.5</ele>
        <time>2021-03-10T07:53:17Z</time>
      </trkpt>
      <trkpt lat="45.10529" lon="6.08757">
        <ele>2116.5</ele>
        <time>2021-03-10T07:53:18Z</time>
      </trkpt>
      <trkpt lat="45.10529" lon="6.08758">
        <ele>2116.5</ele>
        <time>2021-03-10T07:53:19Z</time>
      </trkpt>
      <trkpt lat="45.10529" lon="6.08759">
        <ele>2116.9</ele>
        <time>2021-03-10T07:53:20Z</time>
      </trkpt>
      <trkpt lat="45.10528" lon="6.0876">
        <ele>2116.9</ele>
        <time>2021-03-10T07:53:21Z</time>
      </trkpt>
      <trkpt lat="45.10528" lon="6.08761">
        <ele>2116.9</ele>
        <time>2021-03-10T07:53:22Z</time>
      </trkpt>
      <trkpt lat="45.10528" lon="6.08762">
        <ele>2116.9</ele>
        <time>2021-03-10T07:53:23Z</time>
      </trkpt>
      <trkpt lat="45.10527" lon="6.08763">
        <ele>2117.5</ele>
        <time>2021-03-10T07:53:24Z</time>
      </trkpt>
      <trkpt lat="45.10527" lon="6.08764">
        <ele>2117.5</ele>
        <time>2021-03-10T07:53:25Z</time>
      </trkpt>
      <trkpt lat="45.10526" lon="6.08766">
        <ele>2117.5</ele>
        <time>2021-03-10T07:53:26Z</time>
      </trkpt>
      <trkpt lat="45.10526" lon="6.08766">
        <ele>2117.5</ele>
        <time>2021-03-10T07:53:27Z</time>
      </trkpt>
      <trkpt lat="45.10526" lon="6.08767">
        <ele>2118</ele>
        <time>2021-03-10T07:53:28Z</time>
      </trkpt>
      <trkpt lat="45.10525" lon="6.08768">
        <ele>2118</ele>
        <time>2021-03-10T07:53:29Z</time>
      </trkpt>
      <trkpt lat="45.10525" lon="6.08769">
        <ele>2118</ele>
        <time>2021-03-10T07:53:30Z</time>
      </trkpt>
      <trkpt lat="45.10524" lon="6.0877">
        <ele>2118.1</ele>
        <time>2021-03-10T07:53:31Z</time>
      </trkpt>
      <trkpt lat="45.10524" lon="6.08771">
        <ele>2118.1</ele>
        <time>2021-03-10T07:53:32Z</time>
      </trkpt>
      <trkpt lat="45.10523" lon="6.08771">
        <ele>2118.1</ele>
        <time>2021-03-10T07:53:33Z</time>
      </trkpt>
      <trkpt lat="45.10523" lon="6.08772">
        <ele>2118.7</ele>
        <time>2021-03-10T07:53:34Z</time>
      </trkpt>
      <trkpt lat="45.10522" lon="6.08773">
        <ele>2118.7</ele>
        <time>2021-03-10T07:53:35Z</time>
      </trkpt>
      <trkpt lat="45.10522" lon="6.08774">
        <ele>2118.7</ele>
        <time>2021-03-10T07:53:36Z</time>
      </trkpt>
      <trkpt lat="45.10521" lon="6.08775">
        <ele>2118.7</ele>
        <time>2021-03-10T07:53:37Z</time>
      </trkpt>
      <trkpt lat="45.10521" lon="6.08776">
        <ele>2119.4</ele>
        <time>2021-03-10T07:53:38Z</time>
      </trkpt>
      <trkpt lat="45.10521" lon="6.08776">
        <ele>2119.4</ele>
        <time>2021-03-10T07:53:39Z</time>
      </trkpt>
      <trkpt lat="45.1052" lon="6.08777">
        <ele>2119.4</ele>
        <time>2021-03-10T07:53:40Z</time>
      </trkpt>
      <trkpt lat="45.1052" lon="6.08778">
        <ele>2119.4</ele>
        <time>2021-03-10T07:53:41Z</time>
      </trkpt>
      <trkpt lat="45.1052" lon="6.08779">
        <ele>2119.4</ele>
        <time>2021-03-10T07:53:42Z</time>
      </trkpt>
      <trkpt lat="45.1052" lon="6.0878">
        <ele>2120</ele>
        <time>2021-03-10T07:53:43Z</time>
      </trkpt>
      <trkpt lat="45.10519" lon="6.08782">
        <ele>2120</ele>
        <time>2021-03-10T07:53:44Z</time>
      </trkpt>
      <trkpt lat="45.10519" lon="6.08783">
        <ele>2120</ele>
        <time>2021-03-10T07:53:45Z</time>
      </trkpt>
      <trkpt lat="45.10519" lon="6.08784">
        <ele>2120.6</ele>
        <time>2021-03-10T07:53:46Z</time>
      </trkpt>
      <trkpt lat="45.10519" lon="6.08785">
        <ele>2120.6</ele>
        <time>2021-03-10T07:53:47Z</time>
      </trkpt>
      <trkpt lat="45.10519" lon="6.08787">
        <ele>2120.6</ele>
        <time>2021-03-10T07:53:48Z</time>
      </trkpt>
      <trkpt lat="45.10518" lon="6.08788">
        <ele>2120.6</ele>
        <time>2021-03-10T07:53:49Z</time>
      </trkpt>
      <trkpt lat="45.10518" lon="6.08789">
        <ele>2121.4</ele>
        <time>2021-03-10T07:53:50Z</time>
      </trkpt>
      <trkpt lat="45.10518" lon="6.0879">
        <ele>2121.4</ele>
        <time>2021-03-10T07:53:51Z</time>
      </trkpt>
      <trkpt lat="45.10518" lon="6.08791">
        <ele>2121.4</ele>
        <time>2021-03-10T07:53:52Z</time>
      </trkpt>
      <trkpt lat="45.10518" lon="6.08792">
        <ele>2121.4</ele>
        <time>2021-03-10T07:53:53Z</time>
      </trkpt>
      <trkpt lat="45.10518" lon="6.08794">
        <ele>2121.9</ele>
        <time>2021-03-10T07:53:54Z</time>
      </trkpt>
      <trkpt lat="45.10518" lon="6.08795">
        <ele>2121.9</ele>
        <time>2021-03-10T07:53:55Z</time>
      </trkpt>
      <trkpt lat="45.10517" lon="6.08796">
        <ele>2121.9</ele>
        <time>2021-03-10T07:53:56Z</time>
      </trkpt>
      <trkpt lat="45.10517" lon="6.08797">
        <ele>2121.9</ele>
        <time>2021-03-10T07:53:57Z</time>
      </trkpt>
      <trkpt lat="45.10517" lon="6.08798">
        <ele>2122.4</ele>
        <time>2021-03-10T07:53:58Z</time>
      </trkpt>
      <trkpt lat="45.10516" lon="6.08799">
        <ele>2122.4</ele>
        <time>2021-03-10T07:53:59Z</time>
      </trkpt>
      <trkpt lat="45.10516" lon="6.088">
        <ele>2122.4</ele>
        <time>2021-03-10T07:54:00Z</time>
      </trkpt>
      <trkpt lat="45.10516" lon="6.08801">
        <ele>2122.4</ele>
        <time>2021-03-10T07:54:01Z</time>
      </trkpt>
      <trkpt lat="45.10515" lon="6.08802">
        <ele>2122.9</ele>
        <time>2021-03-10T07:54:02Z</time>
      </trkpt>
      <trkpt lat="45.10515" lon="6.08803">
        <ele>2123.2</ele>
        <time>2021-03-10T07:54:03Z</time>
      </trkpt>
      <trkpt lat="45.10515" lon="6.08804">
        <ele>2123.2</ele>
        <time>2021-03-10T07:54:04Z</time>
      </trkpt>
      <trkpt lat="45.10515" lon="6.08805">
        <ele>2123.2</ele>
        <time>2021-03-10T07:54:05Z</time>
      </trkpt>
      <trkpt lat="45.10515" lon="6.08806">
        <ele>2123.8</ele>
        <time>2021-03-10T07:54:06Z</time>
      </trkpt>
      <trkpt lat="45.10514" lon="6.08807">
        <ele>2123.8</ele>
        <time>2021-03-10T07:54:07Z</time>
      </trkpt>
      <trkpt lat="45.10514" lon="6.08809">
        <ele>2123.8</ele>
        <time>2021-03-10T07:54:08Z</time>
      </trkpt>
      <trkpt lat="45.10514" lon="6.0881">
        <ele>2123.8</ele>
        <time>2021-03-10T07:54:09Z</time>
      </trkpt>
      <trkpt lat="45.10514" lon="6.08811">
        <ele>2124.3</ele>
        <time>2021-03-10T07:54:10Z</time>
      </trkpt>
      <trkpt lat="45.10514" lon="6.08812">
        <ele>2124.3</ele>
        <time>2021-03-10T07:54:11Z</time>
      </trkpt>
      <trkpt lat="45.10514" lon="6.08813">
        <ele>2124.3</ele>
        <time>2021-03-10T07:54:12Z</time>
      </trkpt>
      <trkpt lat="45.10513" lon="6.08814">
        <ele>2124.3</ele>
        <time>2021-03-10T07:54:13Z</time>
      </trkpt>
      <trkpt lat="45.10513" lon="6.08815">
        <ele>2124.8</ele>
        <time>2021-03-10T07:54:14Z</time>
      </trkpt>
      <trkpt lat="45.10512" lon="6.08816">
        <ele>2124.8</ele>
        <time>2021-03-10T07:54:15Z</time>
      </trkpt>
      <trkpt lat="45.10512" lon="6.08816">
        <ele>2125.1</ele>
        <time>2021-03-10T07:54:16Z</time>
      </trkpt>
      <trkpt lat="45.10511" lon="6.08817">
        <ele>2125.1</ele>
        <time>2021-03-10T07:54:17Z</time>
      </trkpt>
      <trkpt lat="45.10511" lon="6.08818">
        <ele>2125.1</ele>
        <time>2021-03-10T07:54:18Z</time>
      </trkpt>
      <trkpt lat="45.1051" lon="6.08819">
        <ele>2125.1</ele>
        <time>2021-03-10T07:54:19Z</time>
      </trkpt>
      <trkpt lat="45.1051" lon="6.08819">
        <ele>2125.7</ele>
        <time>2021-03-10T07:54:20Z</time>
      </trkpt>
      <trkpt lat="45.10509" lon="6.0882">
        <ele>2125.7</ele>
        <time>2021-03-10T07:54:21Z</time>
      </trkpt>
      <trkpt lat="45.10509" lon="6.08821">
        <ele>2126</ele>
        <time>2021-03-10T07:54:22Z</time>
      </trkpt>
      <trkpt lat="45.10509" lon="6.08821">
        <ele>2126</ele>
        <time>2021-03-10T07:54:23Z</time>
      </trkpt>
      <trkpt lat="45.10508" lon="6.08822">
        <ele>2126</ele>
        <time>2021-03-10T07:54:24Z</time>
      </trkpt>
      <trkpt lat="45.10508" lon="6.08823">
        <ele>2126</ele>
        <time>2021-03-10T07:54:25Z</time>
      </trkpt>
      <trkpt lat="45.10507" lon="6.08824">
        <ele>2126.6</ele>
        <time>2021-03-10T07:54:26Z</time>
      </trkpt>
      <trkpt lat="45.10507" lon="6.08825">
        <ele>2126.6</ele>
        <time>2021-03-10T07:54:27Z</time>
      </trkpt>
      <trkpt lat="45.10506" lon="6.08826">
        <ele>2126.6</ele>
        <time>2021-03-10T07:54:28Z</time>
      </trkpt>
      <trkpt lat="45.10506" lon="6.08827">
        <ele>2126.9</ele>
        <time>2021-03-10T07:54:29Z</time>
      </trkpt>
      <trkpt lat="45.10506" lon="6.08828">
        <ele>2127.6</ele>
        <time>2021-03-10T07:54:30Z</time>
      </trkpt>
      <trkpt lat="45.10506" lon="6.08829">
        <ele>2127.6</ele>
        <time>2021-03-10T07:54:31Z</time>
      </trkpt>
      <trkpt lat="45.10506" lon="6.0883">
        <ele>2127.6</ele>
        <time>2021-03-10T07:54:32Z</time>
      </trkpt>
      <trkpt lat="45.10505" lon="6.08831">
        <ele>2127.6</ele>
        <time>2021-03-10T07:54:33Z</time>
      </trkpt>
      <trkpt lat="45.10505" lon="6.08833">
        <ele>2128.2</ele>
        <time>2021-03-10T07:54:34Z</time>
      </trkpt>
      <trkpt lat="45.10505" lon="6.08834">
        <ele>2128.2</ele>
        <time>2021-03-10T07:54:35Z</time>
      </trkpt>
      <trkpt lat="45.10505" lon="6.08835">
        <ele>2128.2</ele>
        <time>2021-03-10T07:54:36Z</time>
      </trkpt>
      <trkpt lat="45.10505" lon="6.08837">
        <ele>2128.9</ele>
        <time>2021-03-10T07:54:37Z</time>
      </trkpt>
      <trkpt lat="45.10505" lon="6.08838">
        <ele>2128.9</ele>
        <time>2021-03-10T07:54:38Z</time>
      </trkpt>
      <trkpt lat="45.10505" lon="6.08839">
        <ele>2128.9</ele>
        <time>2021-03-10T07:54:39Z</time>
      </trkpt>
      <trkpt lat="45.10505" lon="6.0884">
        <ele>2129.6</ele>
        <time>2021-03-10T07:54:40Z</time>
      </trkpt>
      <trkpt lat="45.10505" lon="6.08841">
        <ele>2129.6</ele>
        <time>2021-03-10T07:54:41Z</time>
      </trkpt>
      <trkpt lat="45.10505" lon="6.08843">
        <ele>2129.6</ele>
        <time>2021-03-10T07:54:42Z</time>
      </trkpt>
      <trkpt lat="45.10505" lon="6.08844">
        <ele>2129.6</ele>
        <time>2021-03-10T07:54:43Z</time>
      </trkpt>
      <trkpt lat="45.10505" lon="6.08845">
        <ele>2130.2</ele>
        <time>2021-03-10T07:54:44Z</time>
      </trkpt>
      <trkpt lat="45.10505" lon="6.08848">
        <ele>2130.2</ele>
        <time>2021-03-10T07:54:45Z</time>
      </trkpt>
      <trkpt lat="45.10505" lon="6.08849">
        <ele>2130.2</ele>
        <time>2021-03-10T07:54:46Z</time>
      </trkpt>
      <trkpt lat="45.10505" lon="6.0885">
        <ele>2130.9</ele>
        <time>2021-03-10T07:54:47Z</time>
      </trkpt>
      <trkpt lat="45.10505" lon="6.0885">
        <ele>2130.9</ele>
        <time>2021-03-10T07:54:48Z</time>
      </trkpt>
      <trkpt lat="45.10505" lon="6.08852">
        <ele>2130.9</ele>
        <time>2021-03-10T07:54:49Z</time>
      </trkpt>
      <trkpt lat="45.10505" lon="6.08853">
        <ele>2131.6</ele>
        <time>2021-03-10T07:54:50Z</time>
      </trkpt>
      <trkpt lat="45.10505" lon="6.08855">
        <ele>2131.6</ele>
        <time>2021-03-10T07:54:51Z</time>
      </trkpt>
      <trkpt lat="45.10505" lon="6.08856">
        <ele>2131.6</ele>
        <time>2021-03-10T07:54:52Z</time>
      </trkpt>
      <trkpt lat="45.10505" lon="6.08857">
        <ele>2131.6</ele>
        <time>2021-03-10T07:54:53Z</time>
      </trkpt>
      <trkpt lat="45.10505" lon="6.08858">
        <ele>2132.4</ele>
        <time>2021-03-10T07:54:54Z</time>
      </trkpt>
      <trkpt lat="45.10505" lon="6.08859">
        <ele>2132.4</ele>
        <time>2021-03-10T07:54:55Z</time>
      </trkpt>
      <trkpt lat="45.10504" lon="6.0886">
        <ele>2132.4</ele>
        <time>2021-03-10T07:54:56Z</time>
      </trkpt>
      <trkpt lat="45.10504" lon="6.08861">
        <ele>2132.4</ele>
        <time>2021-03-10T07:54:57Z</time>
      </trkpt>
      <trkpt lat="45.10504" lon="6.08863">
        <ele>2133.2</ele>
        <time>2021-03-10T07:54:58Z</time>
      </trkpt>
      <trkpt lat="45.10504" lon="6.08864">
        <ele>2133.2</ele>
        <time>2021-03-10T07:54:59Z</time>
      </trkpt>
      <trkpt lat="45.10504" lon="6.08865">
        <ele>2133.2</ele>
        <time>2021-03-10T07:55:00Z</time>
      </trkpt>
      <trkpt lat="45.10504" lon="6.08866">
        <ele>2134.1</ele>
        <time>2021-03-10T07:55:01Z</time>
      </trkpt>
      <trkpt lat="45.10504" lon="6.08867">
        <ele>2134.1</ele>
        <time>2021-03-10T07:55:02Z</time>
      </trkpt>
      <trkpt lat="45.10504" lon="6.08869">
        <ele>2134.1</ele>
        <time>2021-03-10T07:55:03Z</time>
      </trkpt>
      <trkpt lat="45.10503" lon="6.0887">
        <ele>2135</ele>
        <time>2021-03-10T07:55:04Z</time>
      </trkpt>
      <trkpt lat="45.10503" lon="6.08872">
        <ele>2135</ele>
        <time>2021-03-10T07:55:05Z</time>
      </trkpt>
      <trkpt lat="45.10503" lon="6.08873">
        <ele>2135.2</ele>
        <time>2021-03-10T07:55:06Z</time>
      </trkpt>
      <trkpt lat="45.10503" lon="6.08874">
        <ele>2135.2</ele>
        <time>2021-03-10T07:55:07Z</time>
      </trkpt>
      <trkpt lat="45.10503" lon="6.08875">
        <ele>2136.1</ele>
        <time>2021-03-10T07:55:08Z</time>
      </trkpt>
      <trkpt lat="45.10502" lon="6.08876">
        <ele>2136.1</ele>
        <time>2021-03-10T07:55:09Z</time>
      </trkpt>
      <trkpt lat="45.10502" lon="6.08877">
        <ele>2136.1</ele>
        <time>2021-03-10T07:55:10Z</time>
      </trkpt>
      <trkpt lat="45.10502" lon="6.08879">
        <ele>2137.1</ele>
        <time>2021-03-10T07:55:11Z</time>
      </trkpt>
      <trkpt lat="45.10502" lon="6.0888">
        <ele>2137.1</ele>
        <time>2021-03-10T07:55:12Z</time>
      </trkpt>
      <trkpt lat="45.10502" lon="6.08881">
        <ele>2137.1</ele>
        <time>2021-03-10T07:55:13Z</time>
      </trkpt>
      <trkpt lat="45.10502" lon="6.08882">
        <ele>2137.1</ele>
        <time>2021-03-10T07:55:14Z</time>
      </trkpt>
      <trkpt lat="45.10502" lon="6.08883">
        <ele>2138</ele>
        <time>2021-03-10T07:55:15Z</time>
      </trkpt>
      <trkpt lat="45.10502" lon="6.08884">
        <ele>2138</ele>
        <time>2021-03-10T07:55:16Z</time>
      </trkpt>
      <trkpt lat="45.10502" lon="6.08885">
        <ele>2138</ele>
        <time>2021-03-10T07:55:17Z</time>
      </trkpt>
      <trkpt lat="45.10503" lon="6.08886">
        <ele>2138</ele>
        <time>2021-03-10T07:55:18Z</time>
      </trkpt>
      <trkpt lat="45.10503" lon="6.08888">
        <ele>2138.9</ele>
        <time>2021-03-10T07:55:19Z</time>
      </trkpt>
      <trkpt lat="45.10503" lon="6.08889">
        <ele>2138.9</ele>
        <time>2021-03-10T07:55:20Z</time>
      </trkpt>
      <trkpt lat="45.10503" lon="6.0889">
        <ele>2138.9</ele>
        <time>2021-03-10T07:55:21Z</time>
      </trkpt>
      <trkpt lat="45.10503" lon="6.08891">
        <ele>2138.9</ele>
        <time>2021-03-10T07:55:22Z</time>
      </trkpt>
      <trkpt lat="45.10503" lon="6.08892">
        <ele>2139.9</ele>
        <time>2021-03-10T07:55:23Z</time>
      </trkpt>
      <trkpt lat="45.10503" lon="6.08894">
        <ele>2139.9</ele>
        <time>2021-03-10T07:55:24Z</time>
      </trkpt>
      <trkpt lat="45.10502" lon="6.08895">
        <ele>2139.9</ele>
        <time>2021-03-10T07:55:25Z</time>
      </trkpt>
      <trkpt lat="45.10502" lon="6.08897">
        <ele>2140.8</ele>
        <time>2021-03-10T07:55:26Z</time>
      </trkpt>
      <trkpt lat="45.10502" lon="6.08898">
        <ele>2140.8</ele>
        <time>2021-03-10T07:55:27Z</time>
      </trkpt>
      <trkpt lat="45.10502" lon="6.08899">
        <ele>2140.8</ele>
        <time>2021-03-10T07:55:28Z</time>
      </trkpt>
      <trkpt lat="45.10502" lon="6.089">
        <ele>2141.7</ele>
        <time>2021-03-10T07:55:29Z</time>
      </trkpt>
      <trkpt lat="45.10502" lon="6.08902">
        <ele>2141.7</ele>
        <time>2021-03-10T07:55:30Z</time>
      </trkpt>
      <trkpt lat="45.10502" lon="6.08903">
        <ele>2141.7</ele>
        <time>2021-03-10T07:55:31Z</time>
      </trkpt>
      <trkpt lat="45.10502" lon="6.08904">
        <ele>2141.7</ele>
        <time>2021-03-10T07:55:32Z</time>
      </trkpt>
      <trkpt lat="45.10502" lon="6.08906">
        <ele>2142.7</ele>
        <time>2021-03-10T07:55:33Z</time>
      </trkpt>
      <trkpt lat="45.10502" lon="6.08907">
        <ele>2142.7</ele>
        <time>2021-03-10T07:55:34Z</time>
      </trkpt>
      <trkpt lat="45.10502" lon="6.08908">
        <ele>2142.7</ele>
        <time>2021-03-10T07:55:35Z</time>
      </trkpt>
      <trkpt lat="45.10502" lon="6.08909">
        <ele>2143.8</ele>
        <time>2021-03-10T07:55:36Z</time>
      </trkpt>
      <trkpt lat="45.10502" lon="6.0891">
        <ele>2143.8</ele>
        <time>2021-03-10T07:55:37Z</time>
      </trkpt>
      <trkpt lat="45.10502" lon="6.08912">
        <ele>2143.8</ele>
        <time>2021-03-10T07:55:38Z</time>
      </trkpt>
      <trkpt lat="45.10502" lon="6.08913">
        <ele>2144.9</ele>
        <time>2021-03-10T07:55:39Z</time>
      </trkpt>
      <trkpt lat="45.10501" lon="6.08915">
        <ele>2144.9</ele>
        <time>2021-03-10T07:55:40Z</time>
      </trkpt>
      <trkpt lat="45.10501" lon="6.08916">
        <ele>2144.9</ele>
        <time>2021-03-10T07:55:41Z</time>
      </trkpt>
      <trkpt lat="45.10501" lon="6.08917">
        <ele>2144.9</ele>
        <time>2021-03-10T07:55:42Z</time>
      </trkpt>
      <trkpt lat="45.10501" lon="6.08918">
        <ele>2146.1</ele>
        <time>2021-03-10T07:55:43Z</time>
      </trkpt>
      <trkpt lat="45.10501" lon="6.0892">
        <ele>2146.1</ele>
        <time>2021-03-10T07:55:44Z</time>
      </trkpt>
      <trkpt lat="45.10501" lon="6.08921">
        <ele>2146.1</ele>
        <time>2021-03-10T07:55:45Z</time>
      </trkpt>
      <trkpt lat="45.105" lon="6.08922">
        <ele>2147.3</ele>
        <time>2021-03-10T07:55:46Z</time>
      </trkpt>
      <trkpt lat="45.105" lon="6.08923">
        <ele>2147.3</ele>
        <time>2021-03-10T07:55:47Z</time>
      </trkpt>
      <trkpt lat="45.105" lon="6.08925">
        <ele>2147.3</ele>
        <time>2021-03-10T07:55:48Z</time>
      </trkpt>
      <trkpt lat="45.105" lon="6.08926">
        <ele>2147.3</ele>
        <time>2021-03-10T07:55:49Z</time>
      </trkpt>
      <trkpt lat="45.10501" lon="6.08927">
        <ele>2148.4</ele>
        <time>2021-03-10T07:55:50Z</time>
      </trkpt>
      <trkpt lat="45.10501" lon="6.08928">
        <ele>2148.4</ele>
        <time>2021-03-10T07:55:51Z</time>
      </trkpt>
      <trkpt lat="45.10501" lon="6.08929">
        <ele>2148.4</ele>
        <time>2021-03-10T07:55:52Z</time>
      </trkpt>
      <trkpt lat="45.10501" lon="6.0893">
        <ele>2148.4</ele>
        <time>2021-03-10T07:55:53Z</time>
      </trkpt>
      <trkpt lat="45.10501" lon="6.08931">
        <ele>2149.6</ele>
        <time>2021-03-10T07:55:54Z</time>
      </trkpt>
      <trkpt lat="45.10502" lon="6.08932">
        <ele>2149.6</ele>
        <time>2021-03-10T07:55:55Z</time>
      </trkpt>
      <trkpt lat="45.10502" lon="6.08933">
        <ele>2149.6</ele>
        <time>2021-03-10T07:55:56Z</time>
      </trkpt>
      <trkpt lat="45.10502" lon="6.08934">
        <ele>2149.6</ele>
        <time>2021-03-10T07:55:57Z</time>
      </trkpt>
      <trkpt lat="45.10502" lon="6.08935">
        <ele>2150.8</ele>
        <time>2021-03-10T07:55:58Z</time>
      </trkpt>
      <trkpt lat="45.10501" lon="6.08936">
        <ele>2150.8</ele>
        <time>2021-03-10T07:55:59Z</time>
      </trkpt>
      <trkpt lat="45.10501" lon="6.08936">
        <ele>2150.8</ele>
        <time>2021-03-10T07:56:00Z</time>
      </trkpt>
      <trkpt lat="45.10501" lon="6.08937">
        <ele>2150.8</ele>
        <time>2021-03-10T07:56:01Z</time>
      </trkpt>
      <trkpt lat="45.105" lon="6.08938">
        <ele>2150.8</ele>
        <time>2021-03-10T07:56:02Z</time>
      </trkpt>
      <trkpt lat="45.105" lon="6.08939">
        <ele>2150.7</ele>
        <time>2021-03-10T07:56:03Z</time>
      </trkpt>
      <trkpt lat="45.10499" lon="6.0894">
        <ele>2151.8</ele>
        <time>2021-03-10T07:56:04Z</time>
      </trkpt>
      <trkpt lat="45.10499" lon="6.0894">
        <ele>2151.8</ele>
        <time>2021-03-10T07:56:05Z</time>
      </trkpt>
      <trkpt lat="45.10498" lon="6.08941">
        <ele>2151.8</ele>
        <time>2021-03-10T07:56:06Z</time>
      </trkpt>
      <trkpt lat="45.10498" lon="6.08942">
        <ele>2151.8</ele>
        <time>2021-03-10T07:56:07Z</time>
      </trkpt>
      <trkpt lat="45.10497" lon="6.08943">
        <ele>2153</ele>
        <time>2021-03-10T07:56:08Z</time>
      </trkpt>
      <trkpt lat="45.10497" lon="6.08944">
        <ele>2152.9</ele>
        <time>2021-03-10T07:56:09Z</time>
      </trkpt>
      <trkpt lat="45.10496" lon="6.08945">
        <ele>2152.9</ele>
        <time>2021-03-10T07:56:10Z</time>
      </trkpt>
      <trkpt lat="45.10496" lon="6.08946">
        <ele>2152.9</ele>
        <time>2021-03-10T07:56:11Z</time>
      </trkpt>
      <trkpt lat="45.10496" lon="6.08947">
        <ele>2152.9</ele>
        <time>2021-03-10T07:56:12Z</time>
      </trkpt>
      <trkpt lat="45.10495" lon="6.08948">
        <ele>2154.1</ele>
        <time>2021-03-10T07:56:13Z</time>
      </trkpt>
      <trkpt lat="45.10495" lon="6.08949">
        <ele>2154.1</ele>
        <time>2021-03-10T07:56:14Z</time>
      </trkpt>
      <trkpt lat="45.10495" lon="6.08949">
        <ele>2154.1</ele>
        <time>2021-03-10T07:56:15Z</time>
      </trkpt>
      <trkpt lat="45.10494" lon="6.0895">
        <ele>2154.1</ele>
        <time>2021-03-10T07:56:16Z</time>
      </trkpt>
      <trkpt lat="45.10494" lon="6.08951">
        <ele>2153.9</ele>
        <time>2021-03-10T07:56:17Z</time>
      </trkpt>
      <trkpt lat="45.10494" lon="6.08952">
        <ele>2155.1</ele>
        <time>2021-03-10T07:56:18Z</time>
      </trkpt>
      <trkpt lat="45.10493" lon="6.08953">
        <ele>2155.1</ele>
        <time>2021-03-10T07:56:19Z</time>
      </trkpt>
      <trkpt lat="45.10493" lon="6.08954">
        <ele>2155.1</ele>
        <time>2021-03-10T07:56:20Z</time>
      </trkpt>
      <trkpt lat="45.10492" lon="6.08955">
        <ele>2155.1</ele>
        <time>2021-03-10T07:56:21Z</time>
      </trkpt>
      <trkpt lat="45.10492" lon="6.08956">
        <ele>2155.1</ele>
        <time>2021-03-10T07:56:22Z</time>
      </trkpt>
      <trkpt lat="45.10492" lon="6.08956">
        <ele>2156.4</ele>
        <time>2021-03-10T07:56:23Z</time>
      </trkpt>
      <trkpt lat="45.10491" lon="6.08957">
        <ele>2156.4</ele>
        <time>2021-03-10T07:56:24Z</time>
      </trkpt>
      <trkpt lat="45.10491" lon="6.08958">
        <ele>2156.4</ele>
        <time>2021-03-10T07:56:25Z</time>
      </trkpt>
      <trkpt lat="45.10491" lon="6.08959">
        <ele>2156.1</ele>
        <time>2021-03-10T07:56:26Z</time>
      </trkpt>
      <trkpt lat="45.1049" lon="6.0896">
        <ele>2156.1</ele>
        <time>2021-03-10T07:56:27Z</time>
      </trkpt>
      <trkpt lat="45.1049" lon="6.08961">
        <ele>2157.4</ele>
        <time>2021-03-10T07:56:28Z</time>
      </trkpt>
      <trkpt lat="45.10489" lon="6.08962">
        <ele>2157.4</ele>
        <time>2021-03-10T07:56:29Z</time>
      </trkpt>
      <trkpt lat="45.10489" lon="6.08963">
        <ele>2157.4</ele>
        <time>2021-03-10T07:56:30Z</time>
      </trkpt>
      <trkpt lat="45.10489" lon="6.08964">
        <ele>2157.4</ele>
        <time>2021-03-10T07:56:31Z</time>
      </trkpt>
      <trkpt lat="45.10488" lon="6.08965">
        <ele>2158.7</ele>
        <time>2021-03-10T07:56:32Z</time>
      </trkpt>
      <trkpt lat="45.10488" lon="6.08965">
        <ele>2158.4</ele>
        <time>2021-03-10T07:56:33Z</time>
      </trkpt>
      <trkpt lat="45.10488" lon="6.08966">
        <ele>2158.4</ele>
        <time>2021-03-10T07:56:34Z</time>
      </trkpt>
      <trkpt lat="45.10487" lon="6.08967">
        <ele>2158.4</ele>
        <time>2021-03-10T07:56:35Z</time>
      </trkpt>
      <trkpt lat="45.10487" lon="6.08967">
        <ele>2158.4</ele>
        <time>2021-03-10T07:56:36Z</time>
      </trkpt>
      <trkpt lat="45.10487" lon="6.08968">
        <ele>2158.4</ele>
        <time>2021-03-10T07:56:37Z</time>
      </trkpt>
      <trkpt lat="45.10487" lon="6.08969">
        <ele>2159.7</ele>
        <time>2021-03-10T07:56:38Z</time>
      </trkpt>
      <trkpt lat="45.10486" lon="6.0897">
        <ele>2159.7</ele>
        <time>2021-03-10T07:56:39Z</time>
      </trkpt>
      <trkpt lat="45.10486" lon="6.08971">
        <ele>2159.7</ele>
        <time>2021-03-10T07:56:40Z</time>
      </trkpt>
      <trkpt lat="45.10485" lon="6.08972">
        <ele>2159.7</ele>
        <time>2021-03-10T07:56:41Z</time>
      </trkpt>
      <trkpt lat="45.10485" lon="6.08973">
        <ele>2159.7</ele>
        <time>2021-03-10T07:56:42Z</time>
      </trkpt>
      <trkpt lat="45.10485" lon="6.08974">
        <ele>2160.7</ele>
        <time>2021-03-10T07:56:43Z</time>
      </trkpt>
      <trkpt lat="45.10485" lon="6.08974">
        <ele>2160.7</ele>
        <time>2021-03-10T07:56:44Z</time>
      </trkpt>
      <trkpt lat="45.10484" lon="6.08975">
        <ele>2160.7</ele>
        <time>2021-03-10T07:56:45Z</time>
      </trkpt>
      <trkpt lat="45.10484" lon="6.08976">
        <ele>2160.7</ele>
        <time>2021-03-10T07:56:46Z</time>
      </trkpt>
      <trkpt lat="45.10484" lon="6.08977">
        <ele>2160.7</ele>
        <time>2021-03-10T07:56:47Z</time>
      </trkpt>
      <trkpt lat="45.10483" lon="6.08978">
        <ele>2161.9</ele>
        <time>2021-03-10T07:56:48Z</time>
      </trkpt>
      <trkpt lat="45.10483" lon="6.08978">
        <ele>2161.9</ele>
        <time>2021-03-10T07:56:49Z</time>
      </trkpt>
      <trkpt lat="45.10483" lon="6.08979">
        <ele>2161.9</ele>
        <time>2021-03-10T07:56:50Z</time>
      </trkpt>
      <trkpt lat="45.10482" lon="6.08981">
        <ele>2161.9</ele>
        <time>2021-03-10T07:56:51Z</time>
      </trkpt>
      <trkpt lat="45.10482" lon="6.08982">
        <ele>2163</ele>
        <time>2021-03-10T07:56:52Z</time>
      </trkpt>
      <trkpt lat="45.10482" lon="6.08983">
        <ele>2162.7</ele>
        <time>2021-03-10T07:56:53Z</time>
      </trkpt>
      <trkpt lat="45.10481" lon="6.08984">
        <ele>2162.7</ele>
        <time>2021-03-10T07:56:54Z</time>
      </trkpt>
      <trkpt lat="45.10481" lon="6.08985">
        <ele>2162.7</ele>
        <time>2021-03-10T07:56:55Z</time>
      </trkpt>
      <trkpt lat="45.10481" lon="6.08986">
        <ele>2162.7</ele>
        <time>2021-03-10T07:56:56Z</time>
      </trkpt>
      <trkpt lat="45.1048" lon="6.08987">
        <ele>2163.8</ele>
        <time>2021-03-10T07:56:57Z</time>
      </trkpt>
      <trkpt lat="45.1048" lon="6.08988">
        <ele>2163.8</ele>
        <time>2021-03-10T07:56:58Z</time>
      </trkpt>
      <trkpt lat="45.10479" lon="6.08989">
        <ele>2163.8</ele>
        <time>2021-03-10T07:56:59Z</time>
      </trkpt>
      <trkpt lat="45.10479" lon="6.0899">
        <ele>2163.8</ele>
        <time>2021-03-10T07:57:00Z</time>
      </trkpt>
      <trkpt lat="45.10478" lon="6.08991">
        <ele>2164.6</ele>
        <time>2021-03-10T07:57:01Z</time>
      </trkpt>
      <trkpt lat="45.10478" lon="6.08992">
        <ele>2164.6</ele>
        <time>2021-03-10T07:57:02Z</time>
      </trkpt>
      <trkpt lat="45.10478" lon="6.08993">
        <ele>2164.6</ele>
        <time>2021-03-10T07:57:03Z</time>
      </trkpt>
      <trkpt lat="45.10477" lon="6.08994">
        <ele>2164.6</ele>
        <time>2021-03-10T07:57:04Z</time>
      </trkpt>
      <trkpt lat="45.10476" lon="6.08995">
        <ele>2165.7</ele>
        <time>2021-03-10T07:57:05Z</time>
      </trkpt>
      <trkpt lat="45.10476" lon="6.08996">
        <ele>2165.7</ele>
        <time>2021-03-10T07:57:06Z</time>
      </trkpt>
      <trkpt lat="45.10476" lon="6.08997">
        <ele>2165.3</ele>
        <time>2021-03-10T07:57:07Z</time>
      </trkpt>
      <trkpt lat="45.10475" lon="6.08998">
        <ele>2165.3</ele>
        <time>2021-03-10T07:57:08Z</time>
      </trkpt>
      <trkpt lat="45.10475" lon="6.08999">
        <ele>2165.3</ele>
        <time>2021-03-10T07:57:09Z</time>
      </trkpt>
      <trkpt lat="45.10474" lon="6.09">
        <ele>2166.5</ele>
        <time>2021-03-10T07:57:10Z</time>
      </trkpt>
      <trkpt lat="45.10474" lon="6.09001">
        <ele>2166.5</ele>
        <time>2021-03-10T07:57:11Z</time>
      </trkpt>
      <trkpt lat="45.10473" lon="6.09002">
        <ele>2166.5</ele>
        <time>2021-03-10T07:57:12Z</time>
      </trkpt>
      <trkpt lat="45.10472" lon="6.09002">
        <ele>2166.1</ele>
        <time>2021-03-10T07:57:13Z</time>
      </trkpt>
      <trkpt lat="45.10472" lon="6.09003">
        <ele>2167.3</ele>
        <time>2021-03-10T07:57:14Z</time>
      </trkpt>
      <trkpt lat="45.10471" lon="6.09004">
        <ele>2167.3</ele>
        <time>2021-03-10T07:57:15Z</time>
      </trkpt>
      <trkpt lat="45.10471" lon="6.09005">
        <ele>2167.3</ele>
        <time>2021-03-10T07:57:16Z</time>
      </trkpt>
      <trkpt lat="45.1047" lon="6.09006">
        <ele>2167.3</ele>
        <time>2021-03-10T07:57:17Z</time>
      </trkpt>
      <trkpt lat="45.10469" lon="6.09007">
        <ele>2166.8</ele>
        <time>2021-03-10T07:57:18Z</time>
      </trkpt>
      <trkpt lat="45.10469" lon="6.09007">
        <ele>2168</ele>
        <time>2021-03-10T07:57:19Z</time>
      </trkpt>
      <trkpt lat="45.10468" lon="6.09008">
        <ele>2168</ele>
        <time>2021-03-10T07:57:20Z</time>
      </trkpt>
      <trkpt lat="45.10468" lon="6.09009">
        <ele>2168</ele>
        <time>2021-03-10T07:57:21Z</time>
      </trkpt>
      <trkpt lat="45.10467" lon="6.0901">
        <ele>2168</ele>
        <time>2021-03-10T07:57:22Z</time>
      </trkpt>
      <trkpt lat="45.10467" lon="6.09011">
        <ele>2168</ele>
        <time>2021-03-10T07:57:23Z</time>
      </trkpt>
      <trkpt lat="45.10466" lon="6.09011">
        <ele>2167.6</ele>
        <time>2021-03-10T07:57:24Z</time>
      </trkpt>
      <trkpt lat="45.10466" lon="6.09012">
        <ele>2168.7</ele>
        <time>2021-03-10T07:57:25Z</time>
      </trkpt>
      <trkpt lat="45.10465" lon="6.09013">
        <ele>2168.7</ele>
        <time>2021-03-10T07:57:26Z</time>
      </trkpt>
      <trkpt lat="45.10465" lon="6.09014">
        <ele>2168.7</ele>
        <time>2021-03-10T07:57:27Z</time>
      </trkpt>
      <trkpt lat="45.10464" lon="6.09014">
        <ele>2168.2</ele>
        <time>2021-03-10T07:57:28Z</time>
      </trkpt>
      <trkpt lat="45.10463" lon="6.09015">
        <ele>2168.2</ele>
        <time>2021-03-10T07:57:29Z</time>
      </trkpt>
      <trkpt lat="45.10463" lon="6.09016">
        <ele>2168.2</ele>
        <time>2021-03-10T07:57:30Z</time>
      </trkpt>
      <trkpt lat="45.10462" lon="6.09017">
        <ele>2169.3</ele>
        <time>2021-03-10T07:57:31Z</time>
      </trkpt>
      <trkpt lat="45.10462" lon="6.09017">
        <ele>2169.3</ele>
        <time>2021-03-10T07:57:32Z</time>
      </trkpt>
      <trkpt lat="45.10461" lon="6.09018">
        <ele>2169.3</ele>
        <time>2021-03-10T07:57:33Z</time>
      </trkpt>
      <trkpt lat="45.10461" lon="6.09019">
        <ele>2168.8</ele>
        <time>2021-03-10T07:57:34Z</time>
      </trkpt>
      <trkpt lat="45.1046" lon="6.0902">
        <ele>2168.8</ele>
        <time>2021-03-10T07:57:35Z</time>
      </trkpt>
      <trkpt lat="45.1046" lon="6.0902">
        <ele>2169.8</ele>
        <time>2021-03-10T07:57:36Z</time>
      </trkpt>
      <trkpt lat="45.10459" lon="6.09021">
        <ele>2169.8</ele>
        <time>2021-03-10T07:57:37Z</time>
      </trkpt>
      <trkpt lat="45.10459" lon="6.09022">
        <ele>2169.8</ele>
        <time>2021-03-10T07:57:38Z</time>
      </trkpt>
      <trkpt lat="45.10458" lon="6.09023">
        <ele>2169.8</ele>
        <time>2021-03-10T07:57:39Z</time>
      </trkpt>
      <trkpt lat="45.10458" lon="6.09023">
        <ele>2169.8</ele>
        <time>2021-03-10T07:57:40Z</time>
      </trkpt>
      <trkpt lat="45.10457" lon="6.09024">
        <ele>2169.3</ele>
        <time>2021-03-10T07:57:41Z</time>
      </trkpt>
      <trkpt lat="45.10457" lon="6.09024">
        <ele>2169.3</ele>
        <time>2021-03-10T07:57:42Z</time>
      </trkpt>
      <trkpt lat="45.10456" lon="6.09025">
        <ele>2170.3</ele>
        <time>2021-03-10T07:57:43Z</time>
      </trkpt>
      <trkpt lat="45.10455" lon="6.09026">
        <ele>2170.3</ele>
        <time>2021-03-10T07:57:44Z</time>
      </trkpt>
      <trkpt lat="45.10455" lon="6.09027">
        <ele>2169.5</ele>
        <time>2021-03-10T07:57:45Z</time>
      </trkpt>
      <trkpt lat="45.10454" lon="6.09028">
        <ele>2169.5</ele>
        <time>2021-03-10T07:57:46Z</time>
      </trkpt>
      <trkpt lat="45.10453" lon="6.09028">
        <ele>2169.5</ele>
        <time>2021-03-10T07:57:47Z</time>
      </trkpt>
      <trkpt lat="45.10453" lon="6.09029">
        <ele>2170.5</ele>
        <time>2021-03-10T07:57:48Z</time>
      </trkpt>
      <trkpt lat="45.10453" lon="6.0903">
        <ele>2170.5</ele>
        <time>2021-03-10T07:57:49Z</time>
      </trkpt>
      <trkpt lat="45.10454" lon="6.09031">
        <ele>2170.5</ele>
        <time>2021-03-10T07:57:50Z</time>
      </trkpt>
      <trkpt lat="45.10454" lon="6.09032">
        <ele>2170.5</ele>
        <time>2021-03-10T07:57:51Z</time>
      </trkpt>
      <trkpt lat="45.10455" lon="6.09033">
        <ele>2171.2</ele>
        <time>2021-03-10T07:57:52Z</time>
      </trkpt>
      <trkpt lat="45.10456" lon="6.09033">
        <ele>2171.2</ele>
        <time>2021-03-10T07:57:53Z</time>
      </trkpt>
      <trkpt lat="45.10457" lon="6.09033">
        <ele>2172.1</ele>
        <time>2021-03-10T07:57:54Z</time>
      </trkpt>
      <trkpt lat="45.10457" lon="6.09034">
        <ele>2172.1</ele>
        <time>2021-03-10T07:57:55Z</time>
      </trkpt>
      <trkpt lat="45.10458" lon="6.09034">
        <ele>2172.6</ele>
        <time>2021-03-10T07:57:56Z</time>
      </trkpt>
      <trkpt lat="45.10459" lon="6.09034">
        <ele>2172.6</ele>
        <time>2021-03-10T07:57:57Z</time>
      </trkpt>
      <trkpt lat="45.1046" lon="6.09035">
        <ele>2172.6</ele>
        <time>2021-03-10T07:57:58Z</time>
      </trkpt>
      <trkpt lat="45.10461" lon="6.09035">
        <ele>2172.6</ele>
        <time>2021-03-10T07:57:59Z</time>
      </trkpt>
      <trkpt lat="45.10461" lon="6.09036">
        <ele>2173</ele>
        <time>2021-03-10T07:58:00Z</time>
      </trkpt>
      <trkpt lat="45.10462" lon="6.09036">
        <ele>2173</ele>
        <time>2021-03-10T07:58:01Z</time>
      </trkpt>
      <trkpt lat="45.10463" lon="6.09037">
        <ele>2173</ele>
        <time>2021-03-10T07:58:02Z</time>
      </trkpt>
      <trkpt lat="45.10463" lon="6.09037">
        <ele>2173</ele>
        <time>2021-03-10T07:58:03Z</time>
      </trkpt>
      <trkpt lat="45.10464" lon="6.09038">
        <ele>2174.5</ele>
        <time>2021-03-10T07:58:04Z</time>
      </trkpt>
      <trkpt lat="45.10465" lon="6.09038">
        <ele>2174.5</ele>
        <time>2021-03-10T07:58:05Z</time>
      </trkpt>
      <trkpt lat="45.10465" lon="6.09039">
        <ele>2174.5</ele>
        <time>2021-03-10T07:58:06Z</time>
      </trkpt>
      <trkpt lat="45.10466" lon="6.09039">
        <ele>2174.5</ele>
        <time>2021-03-10T07:58:07Z</time>
      </trkpt>
      <trkpt lat="45.10467" lon="6.0904">
        <ele>2175</ele>
        <time>2021-03-10T07:58:08Z</time>
      </trkpt>
      <trkpt lat="45.10468" lon="6.0904">
        <ele>2175</ele>
        <time>2021-03-10T07:58:09Z</time>
      </trkpt>
      <trkpt lat="45.10469" lon="6.0904">
        <ele>2175</ele>
        <time>2021-03-10T07:58:10Z</time>
      </trkpt>
      <trkpt lat="45.10469" lon="6.09041">
        <ele>2175</ele>
        <time>2021-03-10T07:58:11Z</time>
      </trkpt>
      <trkpt lat="45.1047" lon="6.09041">
        <ele>2175.5</ele>
        <time>2021-03-10T07:58:12Z</time>
      </trkpt>
      <trkpt lat="45.10471" lon="6.09041">
        <ele>2175.5</ele>
        <time>2021-03-10T07:58:13Z</time>
      </trkpt>
      <trkpt lat="45.10471" lon="6.09042">
        <ele>2176.5</ele>
        <time>2021-03-10T07:58:14Z</time>
      </trkpt>
      <trkpt lat="45.10472" lon="6.09042">
        <ele>2176.5</ele>
        <time>2021-03-10T07:58:15Z</time>
      </trkpt>
      <trkpt lat="45.10472" lon="6.09042">
        <ele>2176.5</ele>
        <time>2021-03-10T07:58:16Z</time>
      </trkpt>
      <trkpt lat="45.10473" lon="6.09043">
        <ele>2177</ele>
        <time>2021-03-10T07:58:17Z</time>
      </trkpt>
      <trkpt lat="45.10474" lon="6.09043">
        <ele>2177</ele>
        <time>2021-03-10T07:58:18Z</time>
      </trkpt>
      <trkpt lat="45.10474" lon="6.09043">
        <ele>2177</ele>
        <time>2021-03-10T07:58:19Z</time>
      </trkpt>
      <trkpt lat="45.10476" lon="6.09044">
        <ele>2177</ele>
        <time>2021-03-10T07:58:20Z</time>
      </trkpt>
      <trkpt lat="45.10477" lon="6.09045">
        <ele>2177.5</ele>
        <time>2021-03-10T07:58:21Z</time>
      </trkpt>
      <trkpt lat="45.10477" lon="6.09045">
        <ele>2177.5</ele>
        <time>2021-03-10T07:58:22Z</time>
      </trkpt>
      <trkpt lat="45.10478" lon="6.09046">
        <ele>2177.5</ele>
        <time>2021-03-10T07:58:23Z</time>
      </trkpt>
      <trkpt lat="45.10479" lon="6.09046">
        <ele>2177.9</ele>
        <time>2021-03-10T07:58:24Z</time>
      </trkpt>
      <trkpt lat="45.1048" lon="6.09046">
        <ele>2179</ele>
        <time>2021-03-10T07:58:25Z</time>
      </trkpt>
      <trkpt lat="45.1048" lon="6.09047">
        <ele>2179</ele>
        <time>2021-03-10T07:58:26Z</time>
      </trkpt>
      <trkpt lat="45.10481" lon="6.09047">
        <ele>2179</ele>
        <time>2021-03-10T07:58:27Z</time>
      </trkpt>
      <trkpt lat="45.10482" lon="6.09047">
        <ele>2179.4</ele>
        <time>2021-03-10T07:58:28Z</time>
      </trkpt>
      <trkpt lat="45.10483" lon="6.09047">
        <ele>2179.4</ele>
        <time>2021-03-10T07:58:29Z</time>
      </trkpt>
      <trkpt lat="45.10484" lon="6.09047">
        <ele>2179.4</ele>
        <time>2021-03-10T07:58:30Z</time>
      </trkpt>
      <trkpt lat="45.10485" lon="6.09047">
        <ele>2179.8</ele>
        <time>2021-03-10T07:58:31Z</time>
      </trkpt>
      <trkpt lat="45.10486" lon="6.09048">
        <ele>2179.8</ele>
        <time>2021-03-10T07:58:32Z</time>
      </trkpt>
      <trkpt lat="45.10487" lon="6.09048">
        <ele>2179.8</ele>
        <time>2021-03-10T07:58:33Z</time>
      </trkpt>
      <trkpt lat="45.10487" lon="6.09048">
        <ele>2179.8</ele>
        <time>2021-03-10T07:58:34Z</time>
      </trkpt>
      <trkpt lat="45.10488" lon="6.09048">
        <ele>2180.2</ele>
        <time>2021-03-10T07:58:35Z</time>
      </trkpt>
      <trkpt lat="45.10489" lon="6.09049">
        <ele>2180.2</ele>
        <time>2021-03-10T07:58:36Z</time>
      </trkpt>
      <trkpt lat="45.1049" lon="6.09049">
        <ele>2180.2</ele>
        <time>2021-03-10T07:58:37Z</time>
      </trkpt>
      <trkpt lat="45.10491" lon="6.09049">
        <ele>2180.2</ele>
        <time>2021-03-10T07:58:38Z</time>
      </trkpt>
      <trkpt lat="45.10491" lon="6.0905">
        <ele>2180.6</ele>
        <time>2021-03-10T07:58:39Z</time>
      </trkpt>
      <trkpt lat="45.10492" lon="6.0905">
        <ele>2180.6</ele>
        <time>2021-03-10T07:58:40Z</time>
      </trkpt>
      <trkpt lat="45.10493" lon="6.0905">
        <ele>2180.6</ele>
        <time>2021-03-10T07:58:41Z</time>
      </trkpt>
      <trkpt lat="45.10493" lon="6.09051">
        <ele>2181.7</ele>
        <time>2021-03-10T07:58:42Z</time>
      </trkpt>
      <trkpt lat="45.10494" lon="6.09051">
        <ele>2181.7</ele>
        <time>2021-03-10T07:58:43Z</time>
      </trkpt>
      <trkpt lat="45.10494" lon="6.09051">
        <ele>2182</ele>
        <time>2021-03-10T07:58:44Z</time>
      </trkpt>
      <trkpt lat="45.10495" lon="6.09051">
        <ele>2182</ele>
        <time>2021-03-10T07:58:45Z</time>
      </trkpt>
      <trkpt lat="45.10496" lon="6.09051">
        <ele>2182</ele>
        <time>2021-03-10T07:58:46Z</time>
      </trkpt>
      <trkpt lat="45.10496" lon="6.09051">
        <ele>2182</ele>
        <time>2021-03-10T07:58:47Z</time>
      </trkpt>
      <trkpt lat="45.10497" lon="6.09052">
        <ele>2182</ele>
        <time>2021-03-10T07:58:48Z</time>
      </trkpt>
      <trkpt lat="45.10498" lon="6.09052">
        <ele>2182.4</ele>
        <time>2021-03-10T07:58:49Z</time>
      </trkpt>
      <trkpt lat="45.10498" lon="6.09052">
        <ele>2182.4</ele>
        <time>2021-03-10T07:58:50Z</time>
      </trkpt>
      <trkpt lat="45.10499" lon="6.09052">
        <ele>2182.4</ele>
        <time>2021-03-10T07:58:51Z</time>
      </trkpt>
      <trkpt lat="45.105" lon="6.09052">
        <ele>2182.4</ele>
        <time>2021-03-10T07:58:52Z</time>
      </trkpt>
      <trkpt lat="45.10501" lon="6.09052">
        <ele>2182.7</ele>
        <time>2021-03-10T07:58:53Z</time>
      </trkpt>
      <trkpt lat="45.10502" lon="6.09053">
        <ele>2182.7</ele>
        <time>2021-03-10T07:58:54Z</time>
      </trkpt>
      <trkpt lat="45.10502" lon="6.09053">
        <ele>2182.7</ele>
        <time>2021-03-10T07:58:55Z</time>
      </trkpt>
      <trkpt lat="45.10503" lon="6.09053">
        <ele>2182.7</ele>
        <time>2021-03-10T07:58:56Z</time>
      </trkpt>
      <trkpt lat="45.10504" lon="6.09054">
        <ele>2183</ele>
        <time>2021-03-10T07:58:57Z</time>
      </trkpt>
      <trkpt lat="45.10504" lon="6.09054">
        <ele>2183</ele>
        <time>2021-03-10T07:58:58Z</time>
      </trkpt>
      <trkpt lat="45.10505" lon="6.09055">
        <ele>2183</ele>
        <time>2021-03-10T07:58:59Z</time>
      </trkpt>
      <trkpt lat="45.10505" lon="6.09055">
        <ele>2184.2</ele>
        <time>2021-03-10T07:59:00Z</time>
      </trkpt>
      <trkpt lat="45.10506" lon="6.09055">
        <ele>2184.2</ele>
        <time>2021-03-10T07:59:01Z</time>
      </trkpt>
      <trkpt lat="45.10507" lon="6.09056">
        <ele>2184.5</ele>
        <time>2021-03-10T07:59:02Z</time>
      </trkpt>
      <trkpt lat="45.10507" lon="6.09056">
        <ele>2184.5</ele>
        <time>2021-03-10T07:59:03Z</time>
      </trkpt>
      <trkpt lat="45.10508" lon="6.09056">
        <ele>2184.5</ele>
        <time>2021-03-10T07:59:04Z</time>
      </trkpt>
      <trkpt lat="45.10509" lon="6.09056">
        <ele>2184.5</ele>
        <time>2021-03-10T07:59:05Z</time>
      </trkpt>
      <trkpt lat="45.10509" lon="6.09056">
        <ele>2184.5</ele>
        <time>2021-03-10T07:59:06Z</time>
      </trkpt>
      <trkpt lat="45.1051" lon="6.09056">
        <ele>2184.8</ele>
        <time>2021-03-10T07:59:07Z</time>
      </trkpt>
      <trkpt lat="45.10511" lon="6.09056">
        <ele>2184.8</ele>
        <time>2021-03-10T07:59:08Z</time>
      </trkpt>
      <trkpt lat="45.10511" lon="6.09056">
        <ele>2184.8</ele>
        <time>2021-03-10T07:59:09Z</time>
      </trkpt>
      <trkpt lat="45.10512" lon="6.09056">
        <ele>2185</ele>
        <time>2021-03-10T07:59:10Z</time>
      </trkpt>
      <trkpt lat="45.10513" lon="6.09056">
        <ele>2185</ele>
        <time>2021-03-10T07:59:11Z</time>
      </trkpt>
      <trkpt lat="45.10514" lon="6.09057">
        <ele>2185</ele>
        <time>2021-03-10T07:59:12Z</time>
      </trkpt>
      <trkpt lat="45.10515" lon="6.09057">
        <ele>2185</ele>
        <time>2021-03-10T07:59:13Z</time>
      </trkpt>
      <trkpt lat="45.10515" lon="6.09057">
        <ele>2185.2</ele>
        <time>2021-03-10T07:59:14Z</time>
      </trkpt>
      <trkpt lat="45.10516" lon="6.09057">
        <ele>2185.2</ele>
        <time>2021-03-10T07:59:15Z</time>
      </trkpt>
      <trkpt lat="45.10517" lon="6.09057">
        <ele>2185.2</ele>
        <time>2021-03-10T07:59:16Z</time>
      </trkpt>
      <trkpt lat="45.10518" lon="6.09057">
        <ele>2185.2</ele>
        <time>2021-03-10T07:59:17Z</time>
      </trkpt>
      <trkpt lat="45.10519" lon="6.09058">
        <ele>2185.4</ele>
        <time>2021-03-10T07:59:18Z</time>
      </trkpt>
      <trkpt lat="45.1052" lon="6.09058">
        <ele>2185.4</ele>
        <time>2021-03-10T07:59:19Z</time>
      </trkpt>
      <trkpt lat="45.10521" lon="6.09058">
        <ele>2185.4</ele>
        <time>2021-03-10T07:59:20Z</time>
      </trkpt>
      <trkpt lat="45.10522" lon="6.09059">
        <ele>2186.8</ele>
        <time>2021-03-10T07:59:21Z</time>
      </trkpt>
      <trkpt lat="45.10523" lon="6.09059">
        <ele>2186.8</ele>
        <time>2021-03-10T07:59:22Z</time>
      </trkpt>
      <trkpt lat="45.10524" lon="6.0906">
        <ele>2186.8</ele>
        <time>2021-03-10T07:59:23Z</time>
      </trkpt>
      <trkpt lat="45.10525" lon="6.0906">
        <ele>2187</ele>
        <time>2021-03-10T07:59:24Z</time>
      </trkpt>
      <trkpt lat="45.10525" lon="6.0906">
        <ele>2187</ele>
        <time>2021-03-10T07:59:25Z</time>
      </trkpt>
      <trkpt lat="45.10526" lon="6.0906">
        <ele>2187</ele>
        <time>2021-03-10T07:59:26Z</time>
      </trkpt>
      <trkpt lat="45.10527" lon="6.09059">
        <ele>2187</ele>
        <time>2021-03-10T07:59:27Z</time>
      </trkpt>
      <trkpt lat="45.10528" lon="6.09059">
        <ele>2187.2</ele>
        <time>2021-03-10T07:59:28Z</time>
      </trkpt>
      <trkpt lat="45.10529" lon="6.09059">
        <ele>2187.2</ele>
        <time>2021-03-10T07:59:29Z</time>
      </trkpt>
      <trkpt lat="45.1053" lon="6.09059">
        <ele>2187.2</ele>
        <time>2021-03-10T07:59:30Z</time>
      </trkpt>
      <trkpt lat="45.10531" lon="6.09059">
        <ele>2187.4</ele>
        <time>2021-03-10T07:59:31Z</time>
      </trkpt>
      <trkpt lat="45.10532" lon="6.0906">
        <ele>2187.4</ele>
        <time>2021-03-10T07:59:32Z</time>
      </trkpt>
      <trkpt lat="45.10533" lon="6.0906">
        <ele>2187.4</ele>
        <time>2021-03-10T07:59:33Z</time>
      </trkpt>
      <trkpt lat="45.10533" lon="6.09059">
        <ele>2187.6</ele>
        <time>2021-03-10T07:59:34Z</time>
      </trkpt>
      <trkpt lat="45.10534" lon="6.0906">
        <ele>2187.6</ele>
        <time>2021-03-10T07:59:35Z</time>
      </trkpt>
      <trkpt lat="45.10535" lon="6.0906">
        <ele>2187.6</ele>
        <time>2021-03-10T07:59:36Z</time>
      </trkpt>
      <trkpt lat="45.10535" lon="6.0906">
        <ele>2187.6</ele>
        <time>2021-03-10T07:59:37Z</time>
      </trkpt>
      <trkpt lat="45.10536" lon="6.0906">
        <ele>2187.6</ele>
        <time>2021-03-10T07:59:38Z</time>
      </trkpt>
      <trkpt lat="45.10537" lon="6.0906">
        <ele>2187.7</ele>
        <time>2021-03-10T07:59:39Z</time>
      </trkpt>
      <trkpt lat="45.10538" lon="6.0906">
        <ele>2187.7</ele>
        <time>2021-03-10T07:59:40Z</time>
      </trkpt>
      <trkpt lat="45.10539" lon="6.09061">
        <ele>2187.7</ele>
        <time>2021-03-10T07:59:41Z</time>
      </trkpt>
      <trkpt lat="45.10539" lon="6.09061">
        <ele>2187.7</ele>
        <time>2021-03-10T07:59:42Z</time>
      </trkpt>
      <trkpt lat="45.1054" lon="6.09061">
        <ele>2187.7</ele>
        <time>2021-03-10T07:59:43Z</time>
      </trkpt>
      <trkpt lat="45.10541" lon="6.09061">
        <ele>2187.7</ele>
        <time>2021-03-10T07:59:44Z</time>
      </trkpt>
      <trkpt lat="45.10542" lon="6.09061">
        <ele>2187.7</ele>
        <time>2021-03-10T07:59:45Z</time>
      </trkpt>
      <trkpt lat="45.10542" lon="6.09061">
        <ele>2187.7</ele>
        <time>2021-03-10T07:59:46Z</time>
      </trkpt>
      <trkpt lat="45.10543" lon="6.09061">
        <ele>2187.8</ele>
        <time>2021-03-10T07:59:47Z</time>
      </trkpt>
      <trkpt lat="45.10544" lon="6.09061">
        <ele>2187.8</ele>
        <time>2021-03-10T07:59:48Z</time>
      </trkpt>
      <trkpt lat="45.10545" lon="6.09061">
        <ele>2187.8</ele>
        <time>2021-03-10T07:59:49Z</time>
      </trkpt>
      <trkpt lat="45.10546" lon="6.09061">
        <ele>2187.9</ele>
        <time>2021-03-10T07:59:50Z</time>
      </trkpt>
      <trkpt lat="45.10546" lon="6.09062">
        <ele>2187.9</ele>
        <time>2021-03-10T07:59:51Z</time>
      </trkpt>
      <trkpt lat="45.10547" lon="6.09062">
        <ele>2187.9</ele>
        <time>2021-03-10T07:59:52Z</time>
      </trkpt>
      <trkpt lat="45.10547" lon="6.09063">
        <ele>2187.9</ele>
        <time>2021-03-10T07:59:53Z</time>
      </trkpt>
      <trkpt lat="45.10547" lon="6.09064">
        <ele>2189</ele>
        <time>2021-03-10T07:59:54Z</time>
      </trkpt>
      <trkpt lat="45.10547" lon="6.09065">
        <ele>2189</ele>
        <time>2021-03-10T07:59:55Z</time>
      </trkpt>
      <trkpt lat="45.10547" lon="6.09067">
        <ele>2189</ele>
        <time>2021-03-10T07:59:56Z</time>
      </trkpt>
      <trkpt lat="45.10547" lon="6.09068">
        <ele>2190.1</ele>
        <time>2021-03-10T07:59:57Z</time>
      </trkpt>
      <trkpt lat="45.10547" lon="6.09069">
        <ele>2190.1</ele>
        <time>2021-03-10T07:59:58Z</time>
      </trkpt>
      <trkpt lat="45.10548" lon="6.0907">
        <ele>2190.1</ele>
        <time>2021-03-10T07:59:59Z</time>
      </trkpt>
      <trkpt lat="45.10548" lon="6.09071">
        <ele>2190.1</ele>
        <time>2021-03-10T08:00:00Z</time>
      </trkpt>
      <trkpt lat="45.10548" lon="6.09072">
        <ele>2191.2</ele>
        <time>2021-03-10T08:00:01Z</time>
      </trkpt>
      <trkpt lat="45.10549" lon="6.09073">
        <ele>2191.2</ele>
        <time>2021-03-10T08:00:02Z</time>
      </trkpt>
      <trkpt lat="45.10549" lon="6.09074">
        <ele>2191.3</ele>
        <time>2021-03-10T08:00:03Z</time>
      </trkpt>
      <trkpt lat="45.10549" lon="6.09075">
        <ele>2191.3</ele>
        <time>2021-03-10T08:00:04Z</time>
      </trkpt>
      <trkpt lat="45.10549" lon="6.09076">
        <ele>2191.3</ele>
        <time>2021-03-10T08:00:05Z</time>
      </trkpt>
      <trkpt lat="45.10549" lon="6.09077">
        <ele>2192.4</ele>
        <time>2021-03-10T08:00:06Z</time>
      </trkpt>
      <trkpt lat="45.10549" lon="6.09078">
        <ele>2192.4</ele>
        <time>2021-03-10T08:00:07Z</time>
      </trkpt>
      <trkpt lat="45.10549" lon="6.09079">
        <ele>2192.4</ele>
        <time>2021-03-10T08:00:08Z</time>
      </trkpt>
      <trkpt lat="45.1055" lon="6.0908">
        <ele>2192.4</ele>
        <time>2021-03-10T08:00:09Z</time>
      </trkpt>
      <trkpt lat="45.1055" lon="6.09081">
        <ele>2193.6</ele>
        <time>2021-03-10T08:00:10Z</time>
      </trkpt>
      <trkpt lat="45.10551" lon="6.09082">
        <ele>2193.6</ele>
        <time>2021-03-10T08:00:11Z</time>
      </trkpt>
      <trkpt lat="45.10551" lon="6.09083">
        <ele>2193.6</ele>
        <time>2021-03-10T08:00:12Z</time>
      </trkpt>
      <trkpt lat="45.10551" lon="6.09083">
        <ele>2193.6</ele>
        <time>2021-03-10T08:00:13Z</time>
      </trkpt>
      <trkpt lat="45.10551" lon="6.09084">
        <ele>2193.6</ele>
        <time>2021-03-10T08:00:14Z</time>
      </trkpt>
      <trkpt lat="45.10552" lon="6.09085">
        <ele>2194.9</ele>
        <time>2021-03-10T08:00:15Z</time>
      </trkpt>
      <trkpt lat="45.10552" lon="6.09086">
        <ele>2194.9</ele>
        <time>2021-03-10T08:00:16Z</time>
      </trkpt>
      <trkpt lat="45.10552" lon="6.09087">
        <ele>2194.9</ele>
        <time>2021-03-10T08:00:17Z</time>
      </trkpt>
      <trkpt lat="45.10552" lon="6.09088">
        <ele>2194.9</ele>
        <time>2021-03-10T08:00:18Z</time>
      </trkpt>
      <trkpt lat="45.10552" lon="6.09089">
        <ele>2196.2</ele>
        <time>2021-03-10T08:00:19Z</time>
      </trkpt>
      <trkpt lat="45.10552" lon="6.0909">
        <ele>2196.2</ele>
        <time>2021-03-10T08:00:20Z</time>
      </trkpt>
      <trkpt lat="45.10552" lon="6.09091">
        <ele>2196.2</ele>
        <time>2021-03-10T08:00:21Z</time>
      </trkpt>
      <trkpt lat="45.10553" lon="6.09092">
        <ele>2196.2</ele>
        <time>2021-03-10T08:00:22Z</time>
      </trkpt>
      <trkpt lat="45.10553" lon="6.09093">
        <ele>2197.6</ele>
        <time>2021-03-10T08:00:23Z</time>
      </trkpt>
      <trkpt lat="45.10553" lon="6.09094">
        <ele>2197.6</ele>
        <time>2021-03-10T08:00:24Z</time>
      </trkpt>
      <trkpt lat="45.10553" lon="6.09095">
        <ele>2197.6</ele>
        <time>2021-03-10T08:00:25Z</time>
      </trkpt>
      <trkpt lat="45.10553" lon="6.09096">
        <ele>2197.6</ele>
        <time>2021-03-10T08:00:26Z</time>
      </trkpt>
      <trkpt lat="45.10553" lon="6.09097">
        <ele>2197.6</ele>
        <time>2021-03-10T08:00:27Z</time>
      </trkpt>
      <trkpt lat="45.10554" lon="6.09098">
        <ele>2198.9</ele>
        <time>2021-03-10T08:00:28Z</time>
      </trkpt>
      <trkpt lat="45.10554" lon="6.09099">
        <ele>2198.9</ele>
        <time>2021-03-10T08:00:29Z</time>
      </trkpt>
      <trkpt lat="45.10554" lon="6.091">
        <ele>2198.9</ele>
        <time>2021-03-10T08:00:30Z</time>
      </trkpt>
      <trkpt lat="45.10554" lon="6.09101">
        <ele>2198.9</ele>
        <time>2021-03-10T08:00:31Z</time>
      </trkpt>
      <trkpt lat="45.10555" lon="6.09102">
        <ele>2200.5</ele>
        <time>2021-03-10T08:00:32Z</time>
      </trkpt>
      <trkpt lat="45.10556" lon="6.09103">
        <ele>2200.5</ele>
        <time>2021-03-10T08:00:33Z</time>
      </trkpt>
      <trkpt lat="45.10557" lon="6.09103">
        <ele>2200.5</ele>
        <time>2021-03-10T08:00:34Z</time>
      </trkpt>
      <trkpt lat="45.10558" lon="6.09103">
        <ele>2200.7</ele>
        <time>2021-03-10T08:00:35Z</time>
      </trkpt>
      <trkpt lat="45.10559" lon="6.09104">
        <ele>2200.7</ele>
        <time>2021-03-10T08:00:36Z</time>
      </trkpt>
      <trkpt lat="45.1056" lon="6.09104">
        <ele>2200.7</ele>
        <time>2021-03-10T08:00:37Z</time>
      </trkpt>
      <trkpt lat="45.10561" lon="6.09104">
        <ele>2200.7</ele>
        <time>2021-03-10T08:00:38Z</time>
      </trkpt>
      <trkpt lat="45.10561" lon="6.09104">
        <ele>2200.9</ele>
        <time>2021-03-10T08:00:39Z</time>
      </trkpt>
      <trkpt lat="45.10562" lon="6.09105">
        <ele>2200.9</ele>
        <time>2021-03-10T08:00:40Z</time>
      </trkpt>
      <trkpt lat="45.10563" lon="6.09105">
        <ele>2200.9</ele>
        <time>2021-03-10T08:00:41Z</time>
      </trkpt>
      <trkpt lat="45.10564" lon="6.09106">
        <ele>2200.9</ele>
        <time>2021-03-10T08:00:42Z</time>
      </trkpt>
      <trkpt lat="45.10564" lon="6.09106">
        <ele>2201.1</ele>
        <time>2021-03-10T08:00:43Z</time>
      </trkpt>
      <trkpt lat="45.10565" lon="6.09106">
        <ele>2202.5</ele>
        <time>2021-03-10T08:00:44Z</time>
      </trkpt>
      <trkpt lat="45.10566" lon="6.09107">
        <ele>2202.5</ele>
        <time>2021-03-10T08:00:45Z</time>
      </trkpt>
      <trkpt lat="45.10567" lon="6.09107">
        <ele>2202.5</ele>
        <time>2021-03-10T08:00:46Z</time>
      </trkpt>
      <trkpt lat="45.10567" lon="6.09107">
        <ele>2202.7</ele>
        <time>2021-03-10T08:00:47Z</time>
      </trkpt>
      <trkpt lat="45.10568" lon="6.09107">
        <ele>2202.7</ele>
        <time>2021-03-10T08:00:48Z</time>
      </trkpt>
      <trkpt lat="45.10569" lon="6.09107">
        <ele>2202.7</ele>
        <time>2021-03-10T08:00:49Z</time>
      </trkpt>
      <trkpt lat="45.10569" lon="6.09107">
        <ele>2202.7</ele>
        <time>2021-03-10T08:00:50Z</time>
      </trkpt>
      <trkpt lat="45.1057" lon="6.09107">
        <ele>2203</ele>
        <time>2021-03-10T08:00:51Z</time>
      </trkpt>
      <trkpt lat="45.10571" lon="6.09107">
        <ele>2203</ele>
        <time>2021-03-10T08:00:52Z</time>
      </trkpt>
      <trkpt lat="45.10572" lon="6.09108">
        <ele>2203</ele>
        <time>2021-03-10T08:00:53Z</time>
      </trkpt>
      <trkpt lat="45.10573" lon="6.09108">
        <ele>2203</ele>
        <time>2021-03-10T08:00:54Z</time>
      </trkpt>
      <trkpt lat="45.10573" lon="6.09108">
        <ele>2203.2</ele>
        <time>2021-03-10T08:00:55Z</time>
      </trkpt>
      <trkpt lat="45.10574" lon="6.09108">
        <ele>2203.2</ele>
        <time>2021-03-10T08:00:56Z</time>
      </trkpt>
      <trkpt lat="45.10575" lon="6.09109">
        <ele>2203.2</ele>
        <time>2021-03-10T08:00:57Z</time>
      </trkpt>
      <trkpt lat="45.10576" lon="6.09109">
        <ele>2203.2</ele>
        <time>2021-03-10T08:00:58Z</time>
      </trkpt>
      <trkpt lat="45.10576" lon="6.0911">
        <ele>2203.5</ele>
        <time>2021-03-10T08:00:59Z</time>
      </trkpt>
      <trkpt lat="45.10577" lon="6.0911">
        <ele>2203.5</ele>
        <time>2021-03-10T08:01:00Z</time>
      </trkpt>
      <trkpt lat="45.10577" lon="6.09111">
        <ele>2205</ele>
        <time>2021-03-10T08:01:01Z</time>
      </trkpt>
      <trkpt lat="45.10578" lon="6.09111">
        <ele>2205</ele>
        <time>2021-03-10T08:01:02Z</time>
      </trkpt>
      <trkpt lat="45.10579" lon="6.09112">
        <ele>2205</ele>
        <time>2021-03-10T08:01:03Z</time>
      </trkpt>
      <trkpt lat="45.1058" lon="6.09113">
        <ele>2205.3</ele>
        <time>2021-03-10T08:01:04Z</time>
      </trkpt>
      <trkpt lat="45.10581" lon="6.09113">
        <ele>2205.3</ele>
        <time>2021-03-10T08:01:05Z</time>
      </trkpt>
      <trkpt lat="45.10581" lon="6.09114">
        <ele>2205.3</ele>
        <time>2021-03-10T08:01:06Z</time>
      </trkpt>
      <trkpt lat="45.10582" lon="6.09114">
        <ele>2205.7</ele>
        <time>2021-03-10T08:01:07Z</time>
      </trkpt>
      <trkpt lat="45.10583" lon="6.09115">
        <ele>2207.1</ele>
        <time>2021-03-10T08:01:08Z</time>
      </trkpt>
      <trkpt lat="45.10583" lon="6.09115">
        <ele>2207.1</ele>
        <time>2021-03-10T08:01:09Z</time>
      </trkpt>
      <trkpt lat="45.10584" lon="6.09116">
        <ele>2207.1</ele>
        <time>2021-03-10T08:01:10Z</time>
      </trkpt>
      <trkpt lat="45.10585" lon="6.09117">
        <ele>2207.1</ele>
        <time>2021-03-10T08:01:11Z</time>
      </trkpt>
      <trkpt lat="45.10585" lon="6.09117">
        <ele>2207.5</ele>
        <time>2021-03-10T08:01:12Z</time>
      </trkpt>
      <trkpt lat="45.10586" lon="6.09118">
        <ele>2207.5</ele>
        <time>2021-03-10T08:01:13Z</time>
      </trkpt>
      <trkpt lat="45.10586" lon="6.09119">
        <ele>2207.5</ele>
        <time>2021-03-10T08:01:14Z</time>
      </trkpt>
      <trkpt lat="45.10587" lon="6.0912">
        <ele>2208.9</ele>
        <time>2021-03-10T08:01:15Z</time>
      </trkpt>
      <trkpt lat="45.10587" lon="6.0912">
        <ele>2208.9</ele>
        <time>2021-03-10T08:01:16Z</time>
      </trkpt>
      <trkpt lat="45.10587" lon="6.09122">
        <ele>2208.9</ele>
        <time>2021-03-10T08:01:17Z</time>
      </trkpt>
      <trkpt lat="45.10588" lon="6.09123">
        <ele>2209.4</ele>
        <time>2021-03-10T08:01:18Z</time>
      </trkpt>
      <trkpt lat="45.10589" lon="6.09124">
        <ele>2210.7</ele>
        <time>2021-03-10T08:01:19Z</time>
      </trkpt>
      <trkpt lat="45.10589" lon="6.09124">
        <ele>2210.7</ele>
        <time>2021-03-10T08:01:20Z</time>
      </trkpt>
      <trkpt lat="45.10589" lon="6.09125">
        <ele>2210.7</ele>
        <time>2021-03-10T08:01:21Z</time>
      </trkpt>
      <trkpt lat="45.1059" lon="6.09126">
        <ele>2210.7</ele>
        <time>2021-03-10T08:01:22Z</time>
      </trkpt>
      <trkpt lat="45.10591" lon="6.09127">
        <ele>2210.7</ele>
        <time>2021-03-10T08:01:23Z</time>
      </trkpt>
      <trkpt lat="45.10591" lon="6.09128">
        <ele>2212.4</ele>
        <time>2021-03-10T08:01:24Z</time>
      </trkpt>
      <trkpt lat="45.10592" lon="6.09129">
        <ele>2212.4</ele>
        <time>2021-03-10T08:01:25Z</time>
      </trkpt>
      <trkpt lat="45.10592" lon="6.0913">
        <ele>2212.4</ele>
        <time>2021-03-10T08:01:26Z</time>
      </trkpt>
      <trkpt lat="45.10592" lon="6.0913">
        <ele>2212.4</ele>
        <time>2021-03-10T08:01:27Z</time>
      </trkpt>
      <trkpt lat="45.10593" lon="6.09131">
        <ele>2212.4</ele>
        <time>2021-03-10T08:01:28Z</time>
      </trkpt>
      <trkpt lat="45.10593" lon="6.09132">
        <ele>2213.7</ele>
        <time>2021-03-10T08:01:29Z</time>
      </trkpt>
      <trkpt lat="45.10594" lon="6.09133">
        <ele>2213.7</ele>
        <time>2021-03-10T08:01:30Z</time>
      </trkpt>
      <trkpt lat="45.10594" lon="6.09134">
        <ele>2213.7</ele>
        <time>2021-03-10T08:01:31Z</time>
      </trkpt>
      <trkpt lat="45.10594" lon="6.09135">
        <ele>2214.1</ele>
        <time>2021-03-10T08:01:32Z</time>
      </trkpt>
      <trkpt lat="45.10594" lon="6.09136">
        <ele>2214.1</ele>
        <time>2021-03-10T08:01:33Z</time>
      </trkpt>
      <trkpt lat="45.10595" lon="6.09137">
        <ele>2215.4</ele>
        <time>2021-03-10T08:01:34Z</time>
      </trkpt>
      <trkpt lat="45.10595" lon="6.09138">
        <ele>2215.4</ele>
        <time>2021-03-10T08:01:35Z</time>
      </trkpt>
      <trkpt lat="45.10596" lon="6.09139">
        <ele>2215.4</ele>
        <time>2021-03-10T08:01:36Z</time>
      </trkpt>
      <trkpt lat="45.10596" lon="6.0914">
        <ele>2215.4</ele>
        <time>2021-03-10T08:01:37Z</time>
      </trkpt>
      <trkpt lat="45.10597" lon="6.0914">
        <ele>2215.4</ele>
        <time>2021-03-10T08:01:38Z</time>
      </trkpt>
      <trkpt lat="45.10597" lon="6.09141">
        <ele>2216.6</ele>
        <time>2021-03-10T08:01:39Z</time>
      </trkpt>
      <trkpt lat="45.10597" lon="6.09142">
        <ele>2216.9</ele>
        <time>2021-03-10T08:01:40Z</time>
      </trkpt>
      <trkpt lat="45.10598" lon="6.09143">
        <ele>2216.9</ele>
        <time>2021-03-10T08:01:41Z</time>
      </trkpt>
      <trkpt lat="45.10598" lon="6.09143">
        <ele>2216.9</ele>
        <time>2021-03-10T08:01:42Z</time>
      </trkpt>
      <trkpt lat="45.10598" lon="6.09144">
        <ele>2216.9</ele>
        <time>2021-03-10T08:01:43Z</time>
      </trkpt>
      <trkpt lat="45.10599" lon="6.09145">
        <ele>2218.1</ele>
        <time>2021-03-10T08:01:44Z</time>
      </trkpt>
      <trkpt lat="45.106" lon="6.09146">
        <ele>2218.1</ele>
        <time>2021-03-10T08:01:45Z</time>
      </trkpt>
      <trkpt lat="45.106" lon="6.09146">
        <ele>2218.4</ele>
        <time>2021-03-10T08:01:46Z</time>
      </trkpt>
      <trkpt lat="45.10601" lon="6.09147">
        <ele>2218.4</ele>
        <time>2021-03-10T08:01:47Z</time>
      </trkpt>
      <trkpt lat="45.10601" lon="6.09148">
        <ele>2218.4</ele>
        <time>2021-03-10T08:01:48Z</time>
      </trkpt>
      <trkpt lat="45.10602" lon="6.09149">
        <ele>2219.4</ele>
        <time>2021-03-10T08:01:49Z</time>
      </trkpt>
      <trkpt lat="45.10602" lon="6.0915">
        <ele>2219.4</ele>
        <time>2021-03-10T08:01:50Z</time>
      </trkpt>
      <trkpt lat="45.10603" lon="6.09151">
        <ele>2219.4</ele>
        <time>2021-03-10T08:01:51Z</time>
      </trkpt>
      <trkpt lat="45.10603" lon="6.09152">
        <ele>2219.7</ele>
        <time>2021-03-10T08:01:52Z</time>
      </trkpt>
      <trkpt lat="45.10604" lon="6.09153">
        <ele>2219.7</ele>
        <time>2021-03-10T08:01:53Z</time>
      </trkpt>
      <trkpt lat="45.10604" lon="6.09154">
        <ele>2220.7</ele>
        <time>2021-03-10T08:01:54Z</time>
      </trkpt>
      <trkpt lat="45.10604" lon="6.09155">
        <ele>2220.7</ele>
        <time>2021-03-10T08:01:55Z</time>
      </trkpt>
      <trkpt lat="45.10605" lon="6.09156">
        <ele>2220.7</ele>
        <time>2021-03-10T08:01:56Z</time>
      </trkpt>
      <trkpt lat="45.10605" lon="6.09157">
        <ele>2220.7</ele>
        <time>2021-03-10T08:01:57Z</time>
      </trkpt>
      <trkpt lat="45.10605" lon="6.09158">
        <ele>2221.6</ele>
        <time>2021-03-10T08:01:58Z</time>
      </trkpt>
      <trkpt lat="45.10606" lon="6.09159">
        <ele>2221.6</ele>
        <time>2021-03-10T08:01:59Z</time>
      </trkpt>
      <trkpt lat="45.10606" lon="6.09161">
        <ele>2222</ele>
        <time>2021-03-10T08:02:00Z</time>
      </trkpt>
      <trkpt lat="45.10607" lon="6.09162">
        <ele>2222</ele>
        <time>2021-03-10T08:02:01Z</time>
      </trkpt>
      <trkpt lat="45.10608" lon="6.09163">
        <ele>2222.8</ele>
        <time>2021-03-10T08:02:02Z</time>
      </trkpt>
      <trkpt lat="45.10608" lon="6.09164">
        <ele>2222.8</ele>
        <time>2021-03-10T08:02:03Z</time>
      </trkpt>
      <trkpt lat="45.10609" lon="6.09165">
        <ele>2222.8</ele>
        <time>2021-03-10T08:02:04Z</time>
      </trkpt>
      <trkpt lat="45.10609" lon="6.09165">
        <ele>2223.1</ele>
        <time>2021-03-10T08:02:05Z</time>
      </trkpt>
      <trkpt lat="45.1061" lon="6.09166">
        <ele>2223.9</ele>
        <time>2021-03-10T08:02:06Z</time>
      </trkpt>
      <trkpt lat="45.10611" lon="6.09167">
        <ele>2223.9</ele>
        <time>2021-03-10T08:02:07Z</time>
      </trkpt>
      <trkpt lat="45.10611" lon="6.09168">
        <ele>2223.9</ele>
        <time>2021-03-10T08:02:08Z</time>
      </trkpt>
      <trkpt lat="45.10612" lon="6.09169">
        <ele>2223.9</ele>
        <time>2021-03-10T08:02:09Z</time>
      </trkpt>
      <trkpt lat="45.10613" lon="6.09171">
        <ele>2225</ele>
        <time>2021-03-10T08:02:10Z</time>
      </trkpt>
      <trkpt lat="45.10613" lon="6.09172">
        <ele>2225</ele>
        <time>2021-03-10T08:02:11Z</time>
      </trkpt>
      <trkpt lat="45.10614" lon="6.09172">
        <ele>2225.1</ele>
        <time>2021-03-10T08:02:12Z</time>
      </trkpt>
      <trkpt lat="45.10614" lon="6.09173">
        <ele>2225.1</ele>
        <time>2021-03-10T08:02:13Z</time>
      </trkpt>
      <trkpt lat="45.10615" lon="6.09174">
        <ele>2225.1</ele>
        <time>2021-03-10T08:02:14Z</time>
      </trkpt>
      <trkpt lat="45.10616" lon="6.09175">
        <ele>2225.5</ele>
        <time>2021-03-10T08:02:15Z</time>
      </trkpt>
      <trkpt lat="45.10617" lon="6.09175">
        <ele>2226.2</ele>
        <time>2021-03-10T08:02:16Z</time>
      </trkpt>
      <trkpt lat="45.10617" lon="6.09176">
        <ele>2226.2</ele>
        <time>2021-03-10T08:02:17Z</time>
      </trkpt>
      <trkpt lat="45.10618" lon="6.09177">
        <ele>2226.2</ele>
        <time>2021-03-10T08:02:18Z</time>
      </trkpt>
      <trkpt lat="45.10619" lon="6.09178">
        <ele>2226.5</ele>
        <time>2021-03-10T08:02:19Z</time>
      </trkpt>
      <trkpt lat="45.10619" lon="6.09179">
        <ele>2226.5</ele>
        <time>2021-03-10T08:02:20Z</time>
      </trkpt>
      <trkpt lat="45.1062" lon="6.0918">
        <ele>2227.3</ele>
        <time>2021-03-10T08:02:21Z</time>
      </trkpt>
      <trkpt lat="45.1062" lon="6.09181">
        <ele>2227.3</ele>
        <time>2021-03-10T08:02:22Z</time>
      </trkpt>
      <trkpt lat="45.1062" lon="6.09182">
        <ele>2227.3</ele>
        <time>2021-03-10T08:02:23Z</time>
      </trkpt>
      <trkpt lat="45.1062" lon="6.09183">
        <ele>2227.3</ele>
        <time>2021-03-10T08:02:24Z</time>
      </trkpt>
      <trkpt lat="45.1062" lon="6.09184">
        <ele>2228</ele>
        <time>2021-03-10T08:02:25Z</time>
      </trkpt>
      <trkpt lat="45.10621" lon="6.09185">
        <ele>2228.1</ele>
        <time>2021-03-10T08:02:26Z</time>
      </trkpt>
      <trkpt lat="45.10621" lon="6.09186">
        <ele>2228.1</ele>
        <time>2021-03-10T08:02:27Z</time>
      </trkpt>
      <trkpt lat="45.10621" lon="6.09187">
        <ele>2228.1</ele>
        <time>2021-03-10T08:02:28Z</time>
      </trkpt>
      <trkpt lat="45.10621" lon="6.09188">
        <ele>2228.9</ele>
        <time>2021-03-10T08:02:29Z</time>
      </trkpt>
      <trkpt lat="45.10622" lon="6.09189">
        <ele>2229.2</ele>
        <time>2021-03-10T08:02:30Z</time>
      </trkpt>
      <trkpt lat="45.10622" lon="6.0919">
        <ele>2229.2</ele>
        <time>2021-03-10T08:02:31Z</time>
      </trkpt>
      <trkpt lat="45.10622" lon="6.09191">
        <ele>2229.2</ele>
        <time>2021-03-10T08:02:32Z</time>
      </trkpt>
      <trkpt lat="45.10623" lon="6.09192">
        <ele>2230</ele>
        <time>2021-03-10T08:02:33Z</time>
      </trkpt>
      <trkpt lat="45.10624" lon="6.09193">
        <ele>2230</ele>
        <time>2021-03-10T08:02:34Z</time>
      </trkpt>
      <trkpt lat="45.10625" lon="6.09194">
        <ele>2230.3</ele>
        <time>2021-03-10T08:02:35Z</time>
      </trkpt>
      <trkpt lat="45.10625" lon="6.09195">
        <ele>2230.3</ele>
        <time>2021-03-10T08:02:36Z</time>
      </trkpt>
      <trkpt lat="45.10626" lon="6.09196">
        <ele>2231</ele>
        <time>2021-03-10T08:02:37Z</time>
      </trkpt>
      <trkpt lat="45.10626" lon="6.09198">
        <ele>2231</ele>
        <time>2021-03-10T08:02:38Z</time>
      </trkpt>
      <trkpt lat="45.10627" lon="6.09199">
        <ele>2231</ele>
        <time>2021-03-10T08:02:39Z</time>
      </trkpt>
      <trkpt lat="45.10628" lon="6.092">
        <ele>2231.4</ele>
        <time>2021-03-10T08:02:40Z</time>
      </trkpt>
      <trkpt lat="45.10629" lon="6.09201">
        <ele>2232.2</ele>
        <time>2021-03-10T08:02:41Z</time>
      </trkpt>
      <trkpt lat="45.10629" lon="6.09203">
        <ele>2232.2</ele>
        <time>2021-03-10T08:02:42Z</time>
      </trkpt>
      <trkpt lat="45.1063" lon="6.09204">
        <ele>2232.2</ele>
        <time>2021-03-10T08:02:43Z</time>
      </trkpt>
      <trkpt lat="45.1063" lon="6.09205">
        <ele>2232.2</ele>
        <time>2021-03-10T08:02:44Z</time>
      </trkpt>
      <trkpt lat="45.10631" lon="6.09205">
        <ele>2233.2</ele>
        <time>2021-03-10T08:02:45Z</time>
      </trkpt>
      <trkpt lat="45.10631" lon="6.09206">
        <ele>2233.2</ele>
        <time>2021-03-10T08:02:46Z</time>
      </trkpt>
      <trkpt lat="45.10632" lon="6.09207">
        <ele>2233.2</ele>
        <time>2021-03-10T08:02:47Z</time>
      </trkpt>
      <trkpt lat="45.10633" lon="6.09208">
        <ele>2233.2</ele>
        <time>2021-03-10T08:02:48Z</time>
      </trkpt>
      <trkpt lat="45.10633" lon="6.09209">
        <ele>2233.2</ele>
        <time>2021-03-10T08:02:49Z</time>
      </trkpt>
      <trkpt lat="45.10634" lon="6.0921">
        <ele>2234.3</ele>
        <time>2021-03-10T08:02:50Z</time>
      </trkpt>
      <trkpt lat="45.10634" lon="6.09211">
        <ele>2234.3</ele>
        <time>2021-03-10T08:02:51Z</time>
      </trkpt>
      <trkpt lat="45.10634" lon="6.09212">
        <ele>2234.3</ele>
        <time>2021-03-10T08:02:52Z</time>
      </trkpt>
      <trkpt lat="45.10635" lon="6.09213">
        <ele>2234.3</ele>
        <time>2021-03-10T08:02:53Z</time>
      </trkpt>
      <trkpt lat="45.10635" lon="6.09214">
        <ele>2235</ele>
        <time>2021-03-10T08:02:54Z</time>
      </trkpt>
      <trkpt lat="45.10635" lon="6.09214">
        <ele>2235.1</ele>
        <time>2021-03-10T08:02:55Z</time>
      </trkpt>
      <trkpt lat="45.10636" lon="6.09215">
        <ele>2235.1</ele>
        <time>2021-03-10T08:02:56Z</time>
      </trkpt>
      <trkpt lat="45.10636" lon="6.09217">
        <ele>2235.1</ele>
        <time>2021-03-10T08:02:57Z</time>
      </trkpt>
      <trkpt lat="45.10637" lon="6.09218">
        <ele>2235.6</ele>
        <time>2021-03-10T08:02:58Z</time>
      </trkpt>
      <trkpt lat="45.10637" lon="6.09219">
        <ele>2236.3</ele>
        <time>2021-03-10T08:02:59Z</time>
      </trkpt>
      <trkpt lat="45.10638" lon="6.0922">
        <ele>2236.3</ele>
        <time>2021-03-10T08:03:00Z</time>
      </trkpt>
      <trkpt lat="45.10638" lon="6.09221">
        <ele>2236.3</ele>
        <time>2021-03-10T08:03:01Z</time>
      </trkpt>
      <trkpt lat="45.10639" lon="6.09221">
        <ele>2236.3</ele>
        <time>2021-03-10T08:03:02Z</time>
      </trkpt>
      <trkpt lat="45.1064" lon="6.09222">
        <ele>2237.6</ele>
        <time>2021-03-10T08:03:03Z</time>
      </trkpt>
      <trkpt lat="45.10641" lon="6.09223">
        <ele>2237.6</ele>
        <time>2021-03-10T08:03:04Z</time>
      </trkpt>
      <trkpt lat="45.10641" lon="6.09223">
        <ele>2237.6</ele>
        <time>2021-03-10T08:03:05Z</time>
      </trkpt>
      <trkpt lat="45.10642" lon="6.09224">
        <ele>2237.6</ele>
        <time>2021-03-10T08:03:06Z</time>
      </trkpt>
      <trkpt lat="45.10643" lon="6.09225">
        <ele>2238</ele>
        <time>2021-03-10T08:03:07Z</time>
      </trkpt>
      <trkpt lat="45.10643" lon="6.09225">
        <ele>2238</ele>
        <time>2021-03-10T08:03:08Z</time>
      </trkpt>
      <trkpt lat="45.10644" lon="6.09226">
        <ele>2238.1</ele>
        <time>2021-03-10T08:03:09Z</time>
      </trkpt>
      <trkpt lat="45.10645" lon="6.09227">
        <ele>2239</ele>
        <time>2021-03-10T08:03:10Z</time>
      </trkpt>
      <trkpt lat="45.10646" lon="6.09228">
        <ele>2239.4</ele>
        <time>2021-03-10T08:03:11Z</time>
      </trkpt>
      <trkpt lat="45.10647" lon="6.09229">
        <ele>2239.4</ele>
        <time>2021-03-10T08:03:12Z</time>
      </trkpt>
      <trkpt lat="45.10648" lon="6.0923">
        <ele>2239.4</ele>
        <time>2021-03-10T08:03:13Z</time>
      </trkpt>
      <trkpt lat="45.10649" lon="6.09231">
        <ele>2240.7</ele>
        <time>2021-03-10T08:03:14Z</time>
      </trkpt>
      <trkpt lat="45.10649" lon="6.09232">
        <ele>2240.7</ele>
        <time>2021-03-10T08:03:15Z</time>
      </trkpt>
      <trkpt lat="45.1065" lon="6.09232">
        <ele>2240.7</ele>
        <time>2021-03-10T08:03:16Z</time>
      </trkpt>
      <trkpt lat="45.10651" lon="6.09233">
        <ele>2240.7</ele>
        <time>2021-03-10T08:03:17Z</time>
      </trkpt>
      <trkpt lat="45.10651" lon="6.09234">
        <ele>2240.7</ele>
        <time>2021-03-10T08:03:18Z</time>
      </trkpt>
      <trkpt lat="45.10652" lon="6.09235">
        <ele>2241.1</ele>
        <time>2021-03-10T08:03:19Z</time>
      </trkpt>
      <trkpt lat="45.10653" lon="6.09235">
        <ele>2241.9</ele>
        <time>2021-03-10T08:03:20Z</time>
      </trkpt>
      <trkpt lat="45.10653" lon="6.09236">
        <ele>2241.9</ele>
        <time>2021-03-10T08:03:21Z</time>
      </trkpt>
      <trkpt lat="45.10654" lon="6.09237">
        <ele>2241.9</ele>
        <time>2021-03-10T08:03:22Z</time>
      </trkpt>
      <trkpt lat="45.10654" lon="6.09238">
        <ele>2242</ele>
        <time>2021-03-10T08:03:23Z</time>
      </trkpt>
      <trkpt lat="45.10654" lon="6.09239">
        <ele>2242</ele>
        <time>2021-03-10T08:03:24Z</time>
      </trkpt>
      <trkpt lat="45.10655" lon="6.0924">
        <ele>2243.2</ele>
        <time>2021-03-10T08:03:25Z</time>
      </trkpt>
      <trkpt lat="45.10656" lon="6.09241">
        <ele>2243.2</ele>
        <time>2021-03-10T08:03:26Z</time>
      </trkpt>
      <trkpt lat="45.10656" lon="6.09242">
        <ele>2243.2</ele>
        <time>2021-03-10T08:03:27Z</time>
      </trkpt>
      <trkpt lat="45.10657" lon="6.09243">
        <ele>2243.2</ele>
        <time>2021-03-10T08:03:28Z</time>
      </trkpt>
      <trkpt lat="45.10658" lon="6.09244">
        <ele>2244.4</ele>
        <time>2021-03-10T08:03:29Z</time>
      </trkpt>
      <trkpt lat="45.10658" lon="6.09245">
        <ele>2244.4</ele>
        <time>2021-03-10T08:03:30Z</time>
      </trkpt>
      <trkpt lat="45.10658" lon="6.09246">
        <ele>2244.4</ele>
        <time>2021-03-10T08:03:31Z</time>
      </trkpt>
      <trkpt lat="45.10659" lon="6.09247">
        <ele>2244.4</ele>
        <time>2021-03-10T08:03:32Z</time>
      </trkpt>
      <trkpt lat="45.10659" lon="6.09248">
        <ele>2245.1</ele>
        <time>2021-03-10T08:03:33Z</time>
      </trkpt>
      <trkpt lat="45.1066" lon="6.09249">
        <ele>2245.1</ele>
        <time>2021-03-10T08:03:34Z</time>
      </trkpt>
      <trkpt lat="45.1066" lon="6.0925">
        <ele>2245.1</ele>
        <time>2021-03-10T08:03:35Z</time>
      </trkpt>
      <trkpt lat="45.10661" lon="6.09252">
        <ele>2245.6</ele>
        <time>2021-03-10T08:03:36Z</time>
      </trkpt>
      <trkpt lat="45.10661" lon="6.09253">
        <ele>2246.2</ele>
        <time>2021-03-10T08:03:37Z</time>
      </trkpt>
      <trkpt lat="45.10662" lon="6.09254">
        <ele>2246.2</ele>
        <time>2021-03-10T08:03:38Z</time>
      </trkpt>
      <trkpt lat="45.10662" lon="6.09254">
        <ele>2246.2</ele>
        <time>2021-03-10T08:03:39Z</time>
      </trkpt>
      <trkpt lat="45.10662" lon="6.09255">
        <ele>2246.2</ele>
        <time>2021-03-10T08:03:40Z</time>
      </trkpt>
      <trkpt lat="45.10663" lon="6.09256">
        <ele>2246.2</ele>
        <time>2021-03-10T08:03:41Z</time>
      </trkpt>
      <trkpt lat="45.10663" lon="6.09257">
        <ele>2246.9</ele>
        <time>2021-03-10T08:03:42Z</time>
      </trkpt>
      <trkpt lat="45.10664" lon="6.09258">
        <ele>2246.9</ele>
        <time>2021-03-10T08:03:43Z</time>
      </trkpt>
      <trkpt lat="45.10664" lon="6.09259">
        <ele>2247.3</ele>
        <time>2021-03-10T08:03:44Z</time>
      </trkpt>
      <trkpt lat="45.10664" lon="6.0926">
        <ele>2247.3</ele>
        <time>2021-03-10T08:03:45Z</time>
      </trkpt>
      <trkpt lat="45.10665" lon="6.09261">
        <ele>2248</ele>
        <time>2021-03-10T08:03:46Z</time>
      </trkpt>
      <trkpt lat="45.10665" lon="6.09262">
        <ele>2248</ele>
        <time>2021-03-10T08:03:47Z</time>
      </trkpt>
      <trkpt lat="45.10665" lon="6.09263">
        <ele>2248</ele>
        <time>2021-03-10T08:03:48Z</time>
      </trkpt>
      <trkpt lat="45.10666" lon="6.09264">
        <ele>2248</ele>
        <time>2021-03-10T08:03:49Z</time>
      </trkpt>
      <trkpt lat="45.10666" lon="6.09264">
        <ele>2248</ele>
        <time>2021-03-10T08:03:50Z</time>
      </trkpt>
      <trkpt lat="45.10666" lon="6.09266">
        <ele>2248.6</ele>
        <time>2021-03-10T08:03:51Z</time>
      </trkpt>
      <trkpt lat="45.10666" lon="6.09267">
        <ele>2248.6</ele>
        <time>2021-03-10T08:03:52Z</time>
      </trkpt>
      <trkpt lat="45.10667" lon="6.09267">
        <ele>2249.1</ele>
        <time>2021-03-10T08:03:53Z</time>
      </trkpt>
      <trkpt lat="45.10667" lon="6.09268">
        <ele>2249.1</ele>
        <time>2021-03-10T08:03:54Z</time>
      </trkpt>
      <trkpt lat="45.10667" lon="6.09269">
        <ele>2249.1</ele>
        <time>2021-03-10T08:03:55Z</time>
      </trkpt>
      <trkpt lat="45.10668" lon="6.0927">
        <ele>2249.8</ele>
        <time>2021-03-10T08:03:56Z</time>
      </trkpt>
      <trkpt lat="45.10668" lon="6.09271">
        <ele>2249.8</ele>
        <time>2021-03-10T08:03:57Z</time>
      </trkpt>
      <trkpt lat="45.10668" lon="6.09272">
        <ele>2249.8</ele>
        <time>2021-03-10T08:03:58Z</time>
      </trkpt>
      <trkpt lat="45.10668" lon="6.09273">
        <ele>2249.8</ele>
        <time>2021-03-10T08:03:59Z</time>
      </trkpt>
      <trkpt lat="45.10668" lon="6.09275">
        <ele>2250.6</ele>
        <time>2021-03-10T08:04:00Z</time>
      </trkpt>
      <trkpt lat="45.10668" lon="6.09276">
        <ele>2250.6</ele>
        <time>2021-03-10T08:04:01Z</time>
      </trkpt>
      <trkpt lat="45.10667" lon="6.09277">
        <ele>2250.6</ele>
        <time>2021-03-10T08:04:02Z</time>
      </trkpt>
      <trkpt lat="45.10667" lon="6.09277">
        <ele>2250.6</ele>
        <time>2021-03-10T08:04:03Z</time>
      </trkpt>
      <trkpt lat="45.10668" lon="6.09278">
        <ele>2251.4</ele>
        <time>2021-03-10T08:04:04Z</time>
      </trkpt>
      <trkpt lat="45.10668" lon="6.09279">
        <ele>2251.4</ele>
        <time>2021-03-10T08:04:05Z</time>
      </trkpt>
      <trkpt lat="45.10669" lon="6.0928">
        <ele>2251.4</ele>
        <time>2021-03-10T08:04:06Z</time>
      </trkpt>
      <trkpt lat="45.1067" lon="6.0928">
        <ele>2251.9</ele>
        <time>2021-03-10T08:04:07Z</time>
      </trkpt>
      <trkpt lat="45.10671" lon="6.0928">
        <ele>2251.9</ele>
        <time>2021-03-10T08:04:08Z</time>
      </trkpt>
      <trkpt lat="45.10671" lon="6.09281">
        <ele>2251.9</ele>
        <time>2021-03-10T08:04:09Z</time>
      </trkpt>
      <trkpt lat="45.10671" lon="6.09281">
        <ele>2251.9</ele>
        <time>2021-03-10T08:04:10Z</time>
      </trkpt>
      <trkpt lat="45.10672" lon="6.09282">
        <ele>2251.9</ele>
        <time>2021-03-10T08:04:11Z</time>
      </trkpt>
      <trkpt lat="45.10673" lon="6.09283">
        <ele>2252.7</ele>
        <time>2021-03-10T08:04:12Z</time>
      </trkpt>
      <trkpt lat="45.10674" lon="6.09283">
        <ele>2253.2</ele>
        <time>2021-03-10T08:04:13Z</time>
      </trkpt>
      <trkpt lat="45.10674" lon="6.09283">
        <ele>2253.2</ele>
        <time>2021-03-10T08:04:14Z</time>
      </trkpt>
      <trkpt lat="45.10675" lon="6.09283">
        <ele>2253.2</ele>
        <time>2021-03-10T08:04:15Z</time>
      </trkpt>
      <trkpt lat="45.10676" lon="6.09284">
        <ele>2253.7</ele>
        <time>2021-03-10T08:04:16Z</time>
      </trkpt>
      <trkpt lat="45.10677" lon="6.09284">
        <ele>2253.7</ele>
        <time>2021-03-10T08:04:17Z</time>
      </trkpt>
      <trkpt lat="45.10678" lon="6.09284">
        <ele>2253.7</ele>
        <time>2021-03-10T08:04:18Z</time>
      </trkpt>
      <trkpt lat="45.10679" lon="6.09284">
        <ele>2254.2</ele>
        <time>2021-03-10T08:04:19Z</time>
      </trkpt>
      <trkpt lat="45.1068" lon="6.09284">
        <ele>2254.2</ele>
        <time>2021-03-10T08:04:20Z</time>
      </trkpt>
      <trkpt lat="45.1068" lon="6.09284">
        <ele>2254.2</ele>
        <time>2021-03-10T08:04:21Z</time>
      </trkpt>
      <trkpt lat="45.10681" lon="6.09284">
        <ele>2254.2</ele>
        <time>2021-03-10T08:04:22Z</time>
      </trkpt>
      <trkpt lat="45.10682" lon="6.09284">
        <ele>2254.2</ele>
        <time>2021-03-10T08:04:23Z</time>
      </trkpt>
      <trkpt lat="45.10682" lon="6.09284">
        <ele>2254.6</ele>
        <time>2021-03-10T08:04:24Z</time>
      </trkpt>
      <trkpt lat="45.10683" lon="6.09285">
        <ele>2254.6</ele>
        <time>2021-03-10T08:04:25Z</time>
      </trkpt>
      <trkpt lat="45.10684" lon="6.09285">
        <ele>2254.6</ele>
        <time>2021-03-10T08:04:26Z</time>
      </trkpt>
      <trkpt lat="45.10685" lon="6.09286">
        <ele>2254.6</ele>
        <time>2021-03-10T08:04:27Z</time>
      </trkpt>
      <trkpt lat="45.10685" lon="6.09286">
        <ele>2255</ele>
        <time>2021-03-10T08:04:28Z</time>
      </trkpt>
      <trkpt lat="45.10686" lon="6.09286">
        <ele>2255</ele>
        <time>2021-03-10T08:04:29Z</time>
      </trkpt>
      <trkpt lat="45.10687" lon="6.09286">
        <ele>2255</ele>
        <time>2021-03-10T08:04:30Z</time>
      </trkpt>
      <trkpt lat="45.10687" lon="6.09286">
        <ele>2255</ele>
        <time>2021-03-10T08:04:31Z</time>
      </trkpt>
      <trkpt lat="45.10688" lon="6.09286">
        <ele>2255</ele>
        <time>2021-03-10T08:04:32Z</time>
      </trkpt>
      <trkpt lat="45.10688" lon="6.09286">
        <ele>2255.5</ele>
        <time>2021-03-10T08:04:33Z</time>
      </trkpt>
      <trkpt lat="45.10689" lon="6.09287">
        <ele>2256.3</ele>
        <time>2021-03-10T08:04:34Z</time>
      </trkpt>
      <trkpt lat="45.10689" lon="6.09288">
        <ele>2256.3</ele>
        <time>2021-03-10T08:04:35Z</time>
      </trkpt>
      <trkpt lat="45.10689" lon="6.09289">
        <ele>2256.3</ele>
        <time>2021-03-10T08:04:36Z</time>
      </trkpt>
      <trkpt lat="45.10689" lon="6.0929">
        <ele>2256.3</ele>
        <time>2021-03-10T08:04:37Z</time>
      </trkpt>
      <trkpt lat="45.10689" lon="6.09291">
        <ele>2257.1</ele>
        <time>2021-03-10T08:04:38Z</time>
      </trkpt>
      <trkpt lat="45.10689" lon="6.09292">
        <ele>2257.1</ele>
        <time>2021-03-10T08:04:39Z</time>
      </trkpt>
      <trkpt lat="45.10689" lon="6.09293">
        <ele>2257.1</ele>
        <time>2021-03-10T08:04:40Z</time>
      </trkpt>
      <trkpt lat="45.1069" lon="6.09294">
        <ele>2257.1</ele>
        <time>2021-03-10T08:04:41Z</time>
      </trkpt>
      <trkpt lat="45.1069" lon="6.09295">
        <ele>2257.8</ele>
        <time>2021-03-10T08:04:42Z</time>
      </trkpt>
      <trkpt lat="45.1069" lon="6.09296">
        <ele>2257.8</ele>
        <time>2021-03-10T08:04:43Z</time>
      </trkpt>
      <trkpt lat="45.1069" lon="6.09297">
        <ele>2257.8</ele>
        <time>2021-03-10T08:04:44Z</time>
      </trkpt>
      <trkpt lat="45.10691" lon="6.09298">
        <ele>2257.8</ele>
        <time>2021-03-10T08:04:45Z</time>
      </trkpt>
      <trkpt lat="45.10691" lon="6.09299">
        <ele>2259</ele>
        <time>2021-03-10T08:04:46Z</time>
      </trkpt>
      <trkpt lat="45.10691" lon="6.09301">
        <ele>2259</ele>
        <time>2021-03-10T08:04:47Z</time>
      </trkpt>
      <trkpt lat="45.10691" lon="6.09301">
        <ele>2259</ele>
        <time>2021-03-10T08:04:48Z</time>
      </trkpt>
      <trkpt lat="45.10692" lon="6.09302">
        <ele>2259</ele>
        <time>2021-03-10T08:04:49Z</time>
      </trkpt>
      <trkpt lat="45.10692" lon="6.09303">
        <ele>2259</ele>
        <time>2021-03-10T08:04:50Z</time>
      </trkpt>
      <trkpt lat="45.10692" lon="6.09304">
        <ele>2259.8</ele>
        <time>2021-03-10T08:04:51Z</time>
      </trkpt>
      <trkpt lat="45.10692" lon="6.09305">
        <ele>2259.8</ele>
        <time>2021-03-10T08:04:52Z</time>
      </trkpt>
      <trkpt lat="45.10692" lon="6.09306">
        <ele>2259.8</ele>
        <time>2021-03-10T08:04:53Z</time>
      </trkpt>
      <trkpt lat="45.10692" lon="6.09307">
        <ele>2259.8</ele>
        <time>2021-03-10T08:04:54Z</time>
      </trkpt>
      <trkpt lat="45.10692" lon="6.09308">
        <ele>2260.6</ele>
        <time>2021-03-10T08:04:55Z</time>
      </trkpt>
      <trkpt lat="45.10692" lon="6.09309">
        <ele>2260.6</ele>
        <time>2021-03-10T08:04:56Z</time>
      </trkpt>
      <trkpt lat="45.10692" lon="6.0931">
        <ele>2260.6</ele>
        <time>2021-03-10T08:04:57Z</time>
      </trkpt>
      <trkpt lat="45.10692" lon="6.09311">
        <ele>2260.6</ele>
        <time>2021-03-10T08:04:58Z</time>
      </trkpt>
      <trkpt lat="45.10692" lon="6.09312">
        <ele>2260.6</ele>
        <time>2021-03-10T08:04:59Z</time>
      </trkpt>
      <trkpt lat="45.10692" lon="6.09312">
        <ele>2261.4</ele>
        <time>2021-03-10T08:05:00Z</time>
      </trkpt>
      <trkpt lat="45.10693" lon="6.09313">
        <ele>2261.4</ele>
        <time>2021-03-10T08:05:01Z</time>
      </trkpt>
      <trkpt lat="45.10694" lon="6.09313">
        <ele>2261.4</ele>
        <time>2021-03-10T08:05:02Z</time>
      </trkpt>
      <trkpt lat="45.10694" lon="6.09313">
        <ele>2262</ele>
        <time>2021-03-10T08:05:03Z</time>
      </trkpt>
      <trkpt lat="45.10695" lon="6.09313">
        <ele>2262</ele>
        <time>2021-03-10T08:05:04Z</time>
      </trkpt>
      <trkpt lat="45.10696" lon="6.09313">
        <ele>2262</ele>
        <time>2021-03-10T08:05:05Z</time>
      </trkpt>
      <trkpt lat="45.10697" lon="6.09314">
        <ele>2262</ele>
        <time>2021-03-10T08:05:06Z</time>
      </trkpt>
      <trkpt lat="45.10697" lon="6.09314">
        <ele>2262.6</ele>
        <time>2021-03-10T08:05:07Z</time>
      </trkpt>
      <trkpt lat="45.10698" lon="6.09314">
        <ele>2262.6</ele>
        <time>2021-03-10T08:05:08Z</time>
      </trkpt>
      <trkpt lat="45.10699" lon="6.09314">
        <ele>2262.6</ele>
        <time>2021-03-10T08:05:09Z</time>
      </trkpt>
      <trkpt lat="45.10699" lon="6.09315">
        <ele>2262.6</ele>
        <time>2021-03-10T08:05:10Z</time>
      </trkpt>
      <trkpt lat="45.107" lon="6.09315">
        <ele>2263.1</ele>
        <time>2021-03-10T08:05:11Z</time>
      </trkpt>
      <trkpt lat="45.10701" lon="6.09315">
        <ele>2263.1</ele>
        <time>2021-03-10T08:05:12Z</time>
      </trkpt>
      <trkpt lat="45.10702" lon="6.09315">
        <ele>2263.1</ele>
        <time>2021-03-10T08:05:13Z</time>
      </trkpt>
      <trkpt lat="45.10703" lon="6.09315">
        <ele>2263.1</ele>
        <time>2021-03-10T08:05:14Z</time>
      </trkpt>
      <trkpt lat="45.10703" lon="6.09315">
        <ele>2263.6</ele>
        <time>2021-03-10T08:05:15Z</time>
      </trkpt>
      <trkpt lat="45.10704" lon="6.09315">
        <ele>2263.6</ele>
        <time>2021-03-10T08:05:16Z</time>
      </trkpt>
      <trkpt lat="45.10705" lon="6.09315">
        <ele>2263.6</ele>
        <time>2021-03-10T08:05:17Z</time>
      </trkpt>
      <trkpt lat="45.10706" lon="6.09316">
        <ele>2263.6</ele>
        <time>2021-03-10T08:05:18Z</time>
      </trkpt>
      <trkpt lat="45.10707" lon="6.09316">
        <ele>2264.1</ele>
        <time>2021-03-10T08:05:19Z</time>
      </trkpt>
      <trkpt lat="45.10707" lon="6.09316">
        <ele>2264.1</ele>
        <time>2021-03-10T08:05:20Z</time>
      </trkpt>
      <trkpt lat="45.10708" lon="6.09316">
        <ele>2264.1</ele>
        <time>2021-03-10T08:05:21Z</time>
      </trkpt>
      <trkpt lat="45.10709" lon="6.09316">
        <ele>2264.1</ele>
        <time>2021-03-10T08:05:22Z</time>
      </trkpt>
      <trkpt lat="45.10709" lon="6.09316">
        <ele>2264.6</ele>
        <time>2021-03-10T08:05:23Z</time>
      </trkpt>
      <trkpt lat="45.1071" lon="6.09317">
        <ele>2265.6</ele>
        <time>2021-03-10T08:05:24Z</time>
      </trkpt>
      <trkpt lat="45.10711" lon="6.09317">
        <ele>2265.6</ele>
        <time>2021-03-10T08:05:25Z</time>
      </trkpt>
      <trkpt lat="45.10711" lon="6.09318">
        <ele>2265.6</ele>
        <time>2021-03-10T08:05:26Z</time>
      </trkpt>
      <trkpt lat="45.10712" lon="6.09319">
        <ele>2265.6</ele>
        <time>2021-03-10T08:05:27Z</time>
      </trkpt>
      <trkpt lat="45.10712" lon="6.0932">
        <ele>2265.6</ele>
        <time>2021-03-10T08:05:28Z</time>
      </trkpt>
      <trkpt lat="45.10712" lon="6.09322">
        <ele>2267.2</ele>
        <time>2021-03-10T08:05:29Z</time>
      </trkpt>
      <trkpt lat="45.10713" lon="6.09323">
        <ele>2267.2</ele>
        <time>2021-03-10T08:05:30Z</time>
      </trkpt>
      <trkpt lat="45.10713" lon="6.09324">
        <ele>2267.2</ele>
        <time>2021-03-10T08:05:31Z</time>
      </trkpt>
      <trkpt lat="45.10713" lon="6.09324">
        <ele>2267.2</ele>
        <time>2021-03-10T08:05:32Z</time>
      </trkpt>
      <trkpt lat="45.10713" lon="6.09325">
        <ele>2268.2</ele>
        <time>2021-03-10T08:05:33Z</time>
      </trkpt>
      <trkpt lat="45.10713" lon="6.09326">
        <ele>2268.2</ele>
        <time>2021-03-10T08:05:34Z</time>
      </trkpt>
      <trkpt lat="45.10713" lon="6.09327">
        <ele>2268.2</ele>
        <time>2021-03-10T08:05:35Z</time>
      </trkpt>
      <trkpt lat="45.10714" lon="6.09327">
        <ele>2268.2</ele>
        <time>2021-03-10T08:05:36Z</time>
      </trkpt>
      <trkpt lat="45.10714" lon="6.09328">
        <ele>2268.2</ele>
        <time>2021-03-10T08:05:37Z</time>
      </trkpt>
      <trkpt lat="45.10714" lon="6.09329">
        <ele>2268.2</ele>
        <time>2021-03-10T08:05:38Z</time>
      </trkpt>
      <trkpt lat="45.10714" lon="6.0933">
        <ele>2269.3</ele>
        <time>2021-03-10T08:05:39Z</time>
      </trkpt>
      <trkpt lat="45.10715" lon="6.09331">
        <ele>2269.3</ele>
        <time>2021-03-10T08:05:40Z</time>
      </trkpt>
      <trkpt lat="45.10715" lon="6.09331">
        <ele>2269.9</ele>
        <time>2021-03-10T08:05:41Z</time>
      </trkpt>
      <trkpt lat="45.10716" lon="6.09332">
        <ele>2269.9</ele>
        <time>2021-03-10T08:05:42Z</time>
      </trkpt>
      <trkpt lat="45.10717" lon="6.09333">
        <ele>2269.9</ele>
        <time>2021-03-10T08:05:43Z</time>
      </trkpt>
      <trkpt lat="45.10717" lon="6.09334">
        <ele>2270.8</ele>
        <time>2021-03-10T08:05:44Z</time>
      </trkpt>
      <trkpt lat="45.10718" lon="6.09334">
        <ele>2270.8</ele>
        <time>2021-03-10T08:05:45Z</time>
      </trkpt>
      <trkpt lat="45.10719" lon="6.09335">
        <ele>2271.5</ele>
        <time>2021-03-10T08:05:46Z</time>
      </trkpt>
      <trkpt lat="45.1072" lon="6.09335">
        <ele>2271.5</ele>
        <time>2021-03-10T08:05:47Z</time>
      </trkpt>
      <trkpt lat="45.10721" lon="6.09335">
        <ele>2271.5</ele>
        <time>2021-03-10T08:05:48Z</time>
      </trkpt>
      <trkpt lat="45.10722" lon="6.09335">
        <ele>2272.1</ele>
        <time>2021-03-10T08:05:49Z</time>
      </trkpt>
      <trkpt lat="45.10723" lon="6.09335">
        <ele>2272.1</ele>
        <time>2021-03-10T08:05:50Z</time>
      </trkpt>
      <trkpt lat="45.10724" lon="6.09335">
        <ele>2272.1</ele>
        <time>2021-03-10T08:05:51Z</time>
      </trkpt>
      <trkpt lat="45.10725" lon="6.09335">
        <ele>2272.7</ele>
        <time>2021-03-10T08:05:52Z</time>
      </trkpt>
      <trkpt lat="45.10725" lon="6.09335">
        <ele>2272.7</ele>
        <time>2021-03-10T08:05:53Z</time>
      </trkpt>
      <trkpt lat="45.10726" lon="6.09335">
        <ele>2272.7</ele>
        <time>2021-03-10T08:05:54Z</time>
      </trkpt>
      <trkpt lat="45.10727" lon="6.09335">
        <ele>2272.7</ele>
        <time>2021-03-10T08:05:55Z</time>
      </trkpt>
      <trkpt lat="45.10727" lon="6.09336">
        <ele>2273.2</ele>
        <time>2021-03-10T08:05:56Z</time>
      </trkpt>
      <trkpt lat="45.10728" lon="6.09336">
        <ele>2273.2</ele>
        <time>2021-03-10T08:05:57Z</time>
      </trkpt>
      <trkpt lat="45.10729" lon="6.09336">
        <ele>2273.2</ele>
        <time>2021-03-10T08:05:58Z</time>
      </trkpt>
      <trkpt lat="45.10729" lon="6.09335">
        <ele>2273.2</ele>
        <time>2021-03-10T08:05:59Z</time>
      </trkpt>
      <trkpt lat="45.1073" lon="6.09335">
        <ele>2273.2</ele>
        <time>2021-03-10T08:06:00Z</time>
      </trkpt>
      <trkpt lat="45.10731" lon="6.09335">
        <ele>2273.7</ele>
        <time>2021-03-10T08:06:01Z</time>
      </trkpt>
      <trkpt lat="45.10731" lon="6.09335">
        <ele>2273.7</ele>
        <time>2021-03-10T08:06:02Z</time>
      </trkpt>
      <trkpt lat="45.10732" lon="6.09336">
        <ele>2273.7</ele>
        <time>2021-03-10T08:06:03Z</time>
      </trkpt>
      <trkpt lat="45.10733" lon="6.09336">
        <ele>2273.7</ele>
        <time>2021-03-10T08:06:04Z</time>
      </trkpt>
      <trkpt lat="45.10734" lon="6.09336">
        <ele>2274.1</ele>
        <time>2021-03-10T08:06:05Z</time>
      </trkpt>
      <trkpt lat="45.10734" lon="6.09337">
        <ele>2274.1</ele>
        <time>2021-03-10T08:06:06Z</time>
      </trkpt>
      <trkpt lat="45.10735" lon="6.09338">
        <ele>2274.1</ele>
        <time>2021-03-10T08:06:07Z</time>
      </trkpt>
      <trkpt lat="45.10735" lon="6.09339">
        <ele>2275.1</ele>
        <time>2021-03-10T08:06:08Z</time>
      </trkpt>
      <trkpt lat="45.10736" lon="6.0934">
        <ele>2275.1</ele>
        <time>2021-03-10T08:06:09Z</time>
      </trkpt>
      <trkpt lat="45.10736" lon="6.09341">
        <ele>2275.1</ele>
        <time>2021-03-10T08:06:10Z</time>
      </trkpt>
      <trkpt lat="45.10736" lon="6.09342">
        <ele>2275.1</ele>
        <time>2021-03-10T08:06:11Z</time>
      </trkpt>
      <trkpt lat="45.10737" lon="6.09343">
        <ele>2276.5</ele>
        <time>2021-03-10T08:06:12Z</time>
      </trkpt>
      <trkpt lat="45.10737" lon="6.09345">
        <ele>2276.5</ele>
        <time>2021-03-10T08:06:13Z</time>
      </trkpt>
      <trkpt lat="45.10737" lon="6.09345">
        <ele>2276.5</ele>
        <time>2021-03-10T08:06:14Z</time>
      </trkpt>
      <trkpt lat="45.10738" lon="6.09347">
        <ele>2277.3</ele>
        <time>2021-03-10T08:06:15Z</time>
      </trkpt>
      <trkpt lat="45.10738" lon="6.09348">
        <ele>2277.3</ele>
        <time>2021-03-10T08:06:16Z</time>
      </trkpt>
      <trkpt lat="45.10739" lon="6.09349">
        <ele>2277.3</ele>
        <time>2021-03-10T08:06:17Z</time>
      </trkpt>
      <trkpt lat="45.10739" lon="6.0935">
        <ele>2277.3</ele>
        <time>2021-03-10T08:06:18Z</time>
      </trkpt>
      <trkpt lat="45.1074" lon="6.09352">
        <ele>2278.6</ele>
        <time>2021-03-10T08:06:19Z</time>
      </trkpt>
      <trkpt lat="45.1074" lon="6.09353">
        <ele>2278.6</ele>
        <time>2021-03-10T08:06:20Z</time>
      </trkpt>
      <trkpt lat="45.1074" lon="6.09354">
        <ele>2278.6</ele>
        <time>2021-03-10T08:06:21Z</time>
      </trkpt>
      <trkpt lat="45.1074" lon="6.09355">
        <ele>2278.6</ele>
        <time>2021-03-10T08:06:22Z</time>
      </trkpt>
      <trkpt lat="45.10741" lon="6.09356">
        <ele>2279.5</ele>
        <time>2021-03-10T08:06:23Z</time>
      </trkpt>
      <trkpt lat="45.10741" lon="6.09356">
        <ele>2279.5</ele>
        <time>2021-03-10T08:06:24Z</time>
      </trkpt>
      <trkpt lat="45.10742" lon="6.09357">
        <ele>2279.5</ele>
        <time>2021-03-10T08:06:25Z</time>
      </trkpt>
      <trkpt lat="45.10743" lon="6.09357">
        <ele>2279.9</ele>
        <time>2021-03-10T08:06:26Z</time>
      </trkpt>
      <trkpt lat="45.10743" lon="6.09358">
        <ele>2279.9</ele>
        <time>2021-03-10T08:06:27Z</time>
      </trkpt>
      <trkpt lat="45.10744" lon="6.09358">
        <ele>2279.9</ele>
        <time>2021-03-10T08:06:28Z</time>
      </trkpt>
      <trkpt lat="45.10745" lon="6.09358">
        <ele>2279.9</ele>
        <time>2021-03-10T08:06:29Z</time>
      </trkpt>
      <trkpt lat="45.10745" lon="6.09358">
        <ele>2279.9</ele>
        <time>2021-03-10T08:06:30Z</time>
      </trkpt>
      <trkpt lat="45.10745" lon="6.09358">
        <ele>2279.9</ele>
        <time>2021-03-10T08:06:31Z</time>
      </trkpt>
      <trkpt lat="45.10745" lon="6.09358">
        <ele>2279.9</ele>
        <time>2021-03-10T08:06:32Z</time>
      </trkpt>
      <trkpt lat="45.10746" lon="6.09358">
        <ele>2280.4</ele>
        <time>2021-03-10T08:06:33Z</time>
      </trkpt>
      <trkpt lat="45.10747" lon="6.09358">
        <ele>2280.4</ele>
        <time>2021-03-10T08:06:34Z</time>
      </trkpt>
      <trkpt lat="45.10747" lon="6.09359">
        <ele>2280.4</ele>
        <time>2021-03-10T08:06:35Z</time>
      </trkpt>
      <trkpt lat="45.10747" lon="6.09359">
        <ele>2280.4</ele>
        <time>2021-03-10T08:06:36Z</time>
      </trkpt>
      <trkpt lat="45.10748" lon="6.09359">
        <ele>2280.4</ele>
        <time>2021-03-10T08:06:37Z</time>
      </trkpt>
      <trkpt lat="45.10749" lon="6.09359">
        <ele>2280.8</ele>
        <time>2021-03-10T08:06:38Z</time>
      </trkpt>
      <trkpt lat="45.1075" lon="6.09359">
        <ele>2280.8</ele>
        <time>2021-03-10T08:06:39Z</time>
      </trkpt>
      <trkpt lat="45.10751" lon="6.09359">
        <ele>2280.8</ele>
        <time>2021-03-10T08:06:40Z</time>
      </trkpt>
      <trkpt lat="45.10752" lon="6.09359">
        <ele>2281.3</ele>
        <time>2021-03-10T08:06:41Z</time>
      </trkpt>
      <trkpt lat="45.10753" lon="6.09359">
        <ele>2281.3</ele>
        <time>2021-03-10T08:06:42Z</time>
      </trkpt>
      <trkpt lat="45.10754" lon="6.09358">
        <ele>2281.3</ele>
        <time>2021-03-10T08:06:43Z</time>
      </trkpt>
      <trkpt lat="45.10754" lon="6.09359">
        <ele>2281.3</ele>
        <time>2021-03-10T08:06:44Z</time>
      </trkpt>
      <trkpt lat="45.10755" lon="6.09359">
        <ele>2281.7</ele>
        <time>2021-03-10T08:06:45Z</time>
      </trkpt>
      <trkpt lat="45.10756" lon="6.09359">
        <ele>2282.6</ele>
        <time>2021-03-10T08:06:46Z</time>
      </trkpt>
      <trkpt lat="45.10756" lon="6.0936">
        <ele>2282.6</ele>
        <time>2021-03-10T08:06:47Z</time>
      </trkpt>
      <trkpt lat="45.10757" lon="6.09361">
        <ele>2282.6</ele>
        <time>2021-03-10T08:06:48Z</time>
      </trkpt>
      <trkpt lat="45.10757" lon="6.09362">
        <ele>2282.6</ele>
        <time>2021-03-10T08:06:49Z</time>
      </trkpt>
      <trkpt lat="45.10757" lon="6.09363">
        <ele>2282.6</ele>
        <time>2021-03-10T08:06:50Z</time>
      </trkpt>
      <trkpt lat="45.10757" lon="6.09364">
        <ele>2283.5</ele>
        <time>2021-03-10T08:06:51Z</time>
      </trkpt>
      <trkpt lat="45.10758" lon="6.09365">
        <ele>2284</ele>
        <time>2021-03-10T08:06:52Z</time>
      </trkpt>
      <trkpt lat="45.10758" lon="6.09365">
        <ele>2284</ele>
        <time>2021-03-10T08:06:53Z</time>
      </trkpt>
      <trkpt lat="45.10759" lon="6.09367">
        <ele>2284</ele>
        <time>2021-03-10T08:06:54Z</time>
      </trkpt>
      <trkpt lat="45.10759" lon="6.09368">
        <ele>2284</ele>
        <time>2021-03-10T08:06:55Z</time>
      </trkpt>
      <trkpt lat="45.1076" lon="6.09368">
        <ele>2284.9</ele>
        <time>2021-03-10T08:06:56Z</time>
      </trkpt>
      <trkpt lat="45.10761" lon="6.09369">
        <ele>2284.9</ele>
        <time>2021-03-10T08:06:57Z</time>
      </trkpt>
      <trkpt lat="45.10761" lon="6.09369">
        <ele>2285.3</ele>
        <time>2021-03-10T08:06:58Z</time>
      </trkpt>
      <trkpt lat="45.10762" lon="6.0937">
        <ele>2285.3</ele>
        <time>2021-03-10T08:06:59Z</time>
      </trkpt>
      <trkpt lat="45.10762" lon="6.09371">
        <ele>2285.3</ele>
        <time>2021-03-10T08:07:00Z</time>
      </trkpt>
      <trkpt lat="45.10762" lon="6.09371">
        <ele>2285.3</ele>
        <time>2021-03-10T08:07:01Z</time>
      </trkpt>
      <trkpt lat="45.10763" lon="6.09372">
        <ele>2285.3</ele>
        <time>2021-03-10T08:07:02Z</time>
      </trkpt>
      <trkpt lat="45.10763" lon="6.09373">
        <ele>2286.2</ele>
        <time>2021-03-10T08:07:03Z</time>
      </trkpt>
      <trkpt lat="45.10763" lon="6.09374">
        <ele>2286.2</ele>
        <time>2021-03-10T08:07:04Z</time>
      </trkpt>
      <trkpt lat="45.10763" lon="6.09376">
        <ele>2286.2</ele>
        <time>2021-03-10T08:07:05Z</time>
      </trkpt>
      <trkpt lat="45.10762" lon="6.09377">
        <ele>2287.1</ele>
        <time>2021-03-10T08:07:06Z</time>
      </trkpt>
      <trkpt lat="45.10762" lon="6.09377">
        <ele>2287.1</ele>
        <time>2021-03-10T08:07:07Z</time>
      </trkpt>
      <trkpt lat="45.10762" lon="6.09378">
        <ele>2287.1</ele>
        <time>2021-03-10T08:07:08Z</time>
      </trkpt>
      <trkpt lat="45.10762" lon="6.09379">
        <ele>2287.1</ele>
        <time>2021-03-10T08:07:09Z</time>
      </trkpt>
      <trkpt lat="45.10762" lon="6.0938">
        <ele>2287.1</ele>
        <time>2021-03-10T08:07:10Z</time>
      </trkpt>
      <trkpt lat="45.10762" lon="6.09381">
        <ele>2287.1</ele>
        <time>2021-03-10T08:07:11Z</time>
      </trkpt>
      <trkpt lat="45.10762" lon="6.09382">
        <ele>2287.9</ele>
        <time>2021-03-10T08:07:12Z</time>
      </trkpt>
      <trkpt lat="45.10763" lon="6.09382">
        <ele>2287.9</ele>
        <time>2021-03-10T08:07:13Z</time>
      </trkpt>
      <trkpt lat="45.10763" lon="6.09383">
        <ele>2287.9</ele>
        <time>2021-03-10T08:07:14Z</time>
      </trkpt>
      <trkpt lat="45.10764" lon="6.09384">
        <ele>2288.4</ele>
        <time>2021-03-10T08:07:15Z</time>
      </trkpt>
      <trkpt lat="45.10765" lon="6.09384">
        <ele>2288.4</ele>
        <time>2021-03-10T08:07:16Z</time>
      </trkpt>
      <trkpt lat="45.10766" lon="6.09384">
        <ele>2288.4</ele>
        <time>2021-03-10T08:07:17Z</time>
      </trkpt>
      <trkpt lat="45.10767" lon="6.09384">
        <ele>2288.4</ele>
        <time>2021-03-10T08:07:18Z</time>
      </trkpt>
      <trkpt lat="45.10768" lon="6.09384">
        <ele>2288.8</ele>
        <time>2021-03-10T08:07:19Z</time>
      </trkpt>
      <trkpt lat="45.10768" lon="6.09383">
        <ele>2288.8</ele>
        <time>2021-03-10T08:07:20Z</time>
      </trkpt>
      <trkpt lat="45.10769" lon="6.09383">
        <ele>2288.8</ele>
        <time>2021-03-10T08:07:21Z</time>
      </trkpt>
      <trkpt lat="45.10769" lon="6.09383">
        <ele>2288.8</ele>
        <time>2021-03-10T08:07:22Z</time>
      </trkpt>
      <trkpt lat="45.1077" lon="6.09383">
        <ele>2289.3</ele>
        <time>2021-03-10T08:07:23Z</time>
      </trkpt>
      <trkpt lat="45.1077" lon="6.09383">
        <ele>2289.3</ele>
        <time>2021-03-10T08:07:24Z</time>
      </trkpt>
      <trkpt lat="45.10771" lon="6.09384">
        <ele>2289.3</ele>
        <time>2021-03-10T08:07:25Z</time>
      </trkpt>
      <trkpt lat="45.10771" lon="6.09384">
        <ele>2289.3</ele>
        <time>2021-03-10T08:07:26Z</time>
      </trkpt>
      <trkpt lat="45.10772" lon="6.09384">
        <ele>2289.3</ele>
        <time>2021-03-10T08:07:27Z</time>
      </trkpt>
      <trkpt lat="45.10772" lon="6.09384">
        <ele>2289.3</ele>
        <time>2021-03-10T08:07:28Z</time>
      </trkpt>
      <trkpt lat="45.10773" lon="6.09384">
        <ele>2289.8</ele>
        <time>2021-03-10T08:07:29Z</time>
      </trkpt>
      <trkpt lat="45.10774" lon="6.09384">
        <ele>2289.8</ele>
        <time>2021-03-10T08:07:30Z</time>
      </trkpt>
      <trkpt lat="45.10774" lon="6.09385">
        <ele>2289.8</ele>
        <time>2021-03-10T08:07:31Z</time>
      </trkpt>
      <trkpt lat="45.10775" lon="6.09385">
        <ele>2289.8</ele>
        <time>2021-03-10T08:07:32Z</time>
      </trkpt>
      <trkpt lat="45.10775" lon="6.09385">
        <ele>2289.8</ele>
        <time>2021-03-10T08:07:33Z</time>
      </trkpt>
      <trkpt lat="45.10776" lon="6.09385">
        <ele>2290.2</ele>
        <time>2021-03-10T08:07:34Z</time>
      </trkpt>
      <trkpt lat="45.10776" lon="6.09385">
        <ele>2290.2</ele>
        <time>2021-03-10T08:07:35Z</time>
      </trkpt>
      <trkpt lat="45.10777" lon="6.09385">
        <ele>2290.2</ele>
        <time>2021-03-10T08:07:36Z</time>
      </trkpt>
      <trkpt lat="45.10778" lon="6.09385">
        <ele>2290.2</ele>
        <time>2021-03-10T08:07:37Z</time>
      </trkpt>
      <trkpt lat="45.10779" lon="6.09385">
        <ele>2291.1</ele>
        <time>2021-03-10T08:07:38Z</time>
      </trkpt>
      <trkpt lat="45.10779" lon="6.09385">
        <ele>2291.5</ele>
        <time>2021-03-10T08:07:39Z</time>
      </trkpt>
      <trkpt lat="45.1078" lon="6.09386">
        <ele>2291.5</ele>
        <time>2021-03-10T08:07:40Z</time>
      </trkpt>
      <trkpt lat="45.1078" lon="6.09386">
        <ele>2291.5</ele>
        <time>2021-03-10T08:07:41Z</time>
      </trkpt>
      <trkpt lat="45.1078" lon="6.09387">
        <ele>2291.5</ele>
        <time>2021-03-10T08:07:42Z</time>
      </trkpt>
      <trkpt lat="45.10781" lon="6.09388">
        <ele>2291.5</ele>
        <time>2021-03-10T08:07:43Z</time>
      </trkpt>
      <trkpt lat="45.10781" lon="6.09389">
        <ele>2291.5</ele>
        <time>2021-03-10T08:07:44Z</time>
      </trkpt>
      <trkpt lat="45.10781" lon="6.0939">
        <ele>2292.3</ele>
        <time>2021-03-10T08:07:45Z</time>
      </trkpt>
      <trkpt lat="45.10781" lon="6.09391">
        <ele>2292.3</ele>
        <time>2021-03-10T08:07:46Z</time>
      </trkpt>
      <trkpt lat="45.10781" lon="6.09392">
        <ele>2292.3</ele>
        <time>2021-03-10T08:07:47Z</time>
      </trkpt>
      <trkpt lat="45.10782" lon="6.09393">
        <ele>2292.3</ele>
        <time>2021-03-10T08:07:48Z</time>
      </trkpt>
      <trkpt lat="45.10782" lon="6.09394">
        <ele>2293.1</ele>
        <time>2021-03-10T08:07:49Z</time>
      </trkpt>
      <trkpt lat="45.10782" lon="6.09394">
        <ele>2293.6</ele>
        <time>2021-03-10T08:07:50Z</time>
      </trkpt>
      <trkpt lat="45.10782" lon="6.09395">
        <ele>2293.6</ele>
        <time>2021-03-10T08:07:51Z</time>
      </trkpt>
      <trkpt lat="45.10782" lon="6.09396">
        <ele>2293.6</ele>
        <time>2021-03-10T08:07:52Z</time>
      </trkpt>
      <trkpt lat="45.10783" lon="6.09397">
        <ele>2293.6</ele>
        <time>2021-03-10T08:07:53Z</time>
      </trkpt>
      <trkpt lat="45.10783" lon="6.09398">
        <ele>2293.6</ele>
        <time>2021-03-10T08:07:54Z</time>
      </trkpt>
      <trkpt lat="45.10783" lon="6.09399">
        <ele>2294.4</ele>
        <time>2021-03-10T08:07:55Z</time>
      </trkpt>
      <trkpt lat="45.10783" lon="6.09399">
        <ele>2294.4</ele>
        <time>2021-03-10T08:07:56Z</time>
      </trkpt>
      <trkpt lat="45.10783" lon="6.094">
        <ele>2294.4</ele>
        <time>2021-03-10T08:07:57Z</time>
      </trkpt>
      <trkpt lat="45.10783" lon="6.09401">
        <ele>2294.4</ele>
        <time>2021-03-10T08:07:58Z</time>
      </trkpt>
      <trkpt lat="45.10783" lon="6.09401">
        <ele>2294.4</ele>
        <time>2021-03-10T08:07:59Z</time>
      </trkpt>
      <trkpt lat="45.10783" lon="6.09402">
        <ele>2294.4</ele>
        <time>2021-03-10T08:08:00Z</time>
      </trkpt>
      <trkpt lat="45.10783" lon="6.09403">
        <ele>2295.2</ele>
        <time>2021-03-10T08:08:01Z</time>
      </trkpt>
      <trkpt lat="45.10783" lon="6.09404">
        <ele>2295.2</ele>
        <time>2021-03-10T08:08:02Z</time>
      </trkpt>
      <trkpt lat="45.10783" lon="6.09406">
        <ele>2295.2</ele>
        <time>2021-03-10T08:08:03Z</time>
      </trkpt>
      <trkpt lat="45.10782" lon="6.09407">
        <ele>2296</ele>
        <time>2021-03-10T08:08:04Z</time>
      </trkpt>
      <trkpt lat="45.10782" lon="6.09408">
        <ele>2296</ele>
        <time>2021-03-10T08:08:05Z</time>
      </trkpt>
      <trkpt lat="45.10782" lon="6.09409">
        <ele>2296</ele>
        <time>2021-03-10T08:08:06Z</time>
      </trkpt>
      <trkpt lat="45.10783" lon="6.0941">
        <ele>2296</ele>
        <time>2021-03-10T08:08:07Z</time>
      </trkpt>
      <trkpt lat="45.10783" lon="6.0941">
        <ele>2296</ele>
        <time>2021-03-10T08:08:08Z</time>
      </trkpt>
      <trkpt lat="45.10784" lon="6.09411">
        <ele>2296.8</ele>
        <time>2021-03-10T08:08:09Z</time>
      </trkpt>
      <trkpt lat="45.10784" lon="6.09412">
        <ele>2296.8</ele>
        <time>2021-03-10T08:08:10Z</time>
      </trkpt>
      <trkpt lat="45.10785" lon="6.09412">
        <ele>2296.8</ele>
        <time>2021-03-10T08:08:11Z</time>
      </trkpt>
      <trkpt lat="45.10785" lon="6.09412">
        <ele>2297.1</ele>
        <time>2021-03-10T08:08:12Z</time>
      </trkpt>
      <trkpt lat="45.10786" lon="6.09412">
        <ele>2297.1</ele>
        <time>2021-03-10T08:08:13Z</time>
      </trkpt>
      <trkpt lat="45.10786" lon="6.09412">
        <ele>2297.1</ele>
        <time>2021-03-10T08:08:14Z</time>
      </trkpt>
      <trkpt lat="45.10787" lon="6.09412">
        <ele>2297.1</ele>
        <time>2021-03-10T08:08:15Z</time>
      </trkpt>
      <trkpt lat="45.10788" lon="6.09413">
        <ele>2297.1</ele>
        <time>2021-03-10T08:08:16Z</time>
      </trkpt>
      <trkpt lat="45.10788" lon="6.09413">
        <ele>2297.4</ele>
        <time>2021-03-10T08:08:17Z</time>
      </trkpt>
      <trkpt lat="45.10789" lon="6.09413">
        <ele>2297.4</ele>
        <time>2021-03-10T08:08:18Z</time>
      </trkpt>
      <trkpt lat="45.1079" lon="6.09413">
        <ele>2297.4</ele>
        <time>2021-03-10T08:08:19Z</time>
      </trkpt>
      <trkpt lat="45.1079" lon="6.09413">
        <ele>2297.4</ele>
        <time>2021-03-10T08:08:20Z</time>
      </trkpt>
      <trkpt lat="45.10791" lon="6.09414">
        <ele>2297.7</ele>
        <time>2021-03-10T08:08:21Z</time>
      </trkpt>
      <trkpt lat="45.10792" lon="6.09414">
        <ele>2297.7</ele>
        <time>2021-03-10T08:08:22Z</time>
      </trkpt>
      <trkpt lat="45.10792" lon="6.09414">
        <ele>2297.7</ele>
        <time>2021-03-10T08:08:23Z</time>
      </trkpt>
      <trkpt lat="45.10793" lon="6.09414">
        <ele>2297.7</ele>
        <time>2021-03-10T08:08:24Z</time>
      </trkpt>
      <trkpt lat="45.10794" lon="6.09414">
        <ele>2297.7</ele>
        <time>2021-03-10T08:08:25Z</time>
      </trkpt>
      <trkpt lat="45.10794" lon="6.09414">
        <ele>2297.9</ele>
        <time>2021-03-10T08:08:26Z</time>
      </trkpt>
      <trkpt lat="45.10795" lon="6.09414">
        <ele>2297.9</ele>
        <time>2021-03-10T08:08:27Z</time>
      </trkpt>
      <trkpt lat="45.10796" lon="6.09414">
        <ele>2297.9</ele>
        <time>2021-03-10T08:08:28Z</time>
      </trkpt>
      <trkpt lat="45.10796" lon="6.09415">
        <ele>2297.9</ele>
        <time>2021-03-10T08:08:29Z</time>
      </trkpt>
      <trkpt lat="45.10797" lon="6.09415">
        <ele>2297.9</ele>
        <time>2021-03-10T08:08:30Z</time>
      </trkpt>
      <trkpt lat="45.10797" lon="6.09415">
        <ele>2298.1</ele>
        <time>2021-03-10T08:08:31Z</time>
      </trkpt>
      <trkpt lat="45.10798" lon="6.09415">
        <ele>2298.1</ele>
        <time>2021-03-10T08:08:32Z</time>
      </trkpt>
      <trkpt lat="45.10798" lon="6.09415">
        <ele>2298.1</ele>
        <time>2021-03-10T08:08:33Z</time>
      </trkpt>
      <trkpt lat="45.10799" lon="6.09415">
        <ele>2299</ele>
        <time>2021-03-10T08:08:34Z</time>
      </trkpt>
      <trkpt lat="45.108" lon="6.09415">
        <ele>2299.1</ele>
        <time>2021-03-10T08:08:35Z</time>
      </trkpt>
      <trkpt lat="45.10801" lon="6.09416">
        <ele>2299.1</ele>
        <time>2021-03-10T08:08:36Z</time>
      </trkpt>
      <trkpt lat="45.10802" lon="6.09417">
        <ele>2299.1</ele>
        <time>2021-03-10T08:08:37Z</time>
      </trkpt>
      <trkpt lat="45.10802" lon="6.09417">
        <ele>2299.1</ele>
        <time>2021-03-10T08:08:38Z</time>
      </trkpt>
      <trkpt lat="45.10802" lon="6.09418">
        <ele>2299.1</ele>
        <time>2021-03-10T08:08:39Z</time>
      </trkpt>
      <trkpt lat="45.10803" lon="6.09419">
        <ele>2299.1</ele>
        <time>2021-03-10T08:08:40Z</time>
      </trkpt>
      <trkpt lat="45.10803" lon="6.09419">
        <ele>2299.9</ele>
        <time>2021-03-10T08:08:41Z</time>
      </trkpt>
      <trkpt lat="45.10803" lon="6.0942">
        <ele>2300.1</ele>
        <time>2021-03-10T08:08:42Z</time>
      </trkpt>
      <trkpt lat="45.10803" lon="6.09421">
        <ele>2300.1</ele>
        <time>2021-03-10T08:08:43Z</time>
      </trkpt>
      <trkpt lat="45.10804" lon="6.09422">
        <ele>2300.1</ele>
        <time>2021-03-10T08:08:44Z</time>
      </trkpt>
      <trkpt lat="45.10804" lon="6.09423">
        <ele>2300.1</ele>
        <time>2021-03-10T08:08:45Z</time>
      </trkpt>
      <trkpt lat="45.10805" lon="6.09424">
        <ele>2300.1</ele>
        <time>2021-03-10T08:08:46Z</time>
      </trkpt>
      <trkpt lat="45.10805" lon="6.09425">
        <ele>2300.9</ele>
        <time>2021-03-10T08:08:47Z</time>
      </trkpt>
      <trkpt lat="45.10805" lon="6.09426">
        <ele>2300.9</ele>
        <time>2021-03-10T08:08:48Z</time>
      </trkpt>
      <trkpt lat="45.10806" lon="6.09427">
        <ele>2300.9</ele>
        <time>2021-03-10T08:08:49Z</time>
      </trkpt>
      <trkpt lat="45.10806" lon="6.09429">
        <ele>2301.6</ele>
        <time>2021-03-10T08:08:50Z</time>
      </trkpt>
      <trkpt lat="45.10806" lon="6.0943">
        <ele>2301.6</ele>
        <time>2021-03-10T08:08:51Z</time>
      </trkpt>
      <trkpt lat="45.10806" lon="6.09431">
        <ele>2301.7</ele>
        <time>2021-03-10T08:08:52Z</time>
      </trkpt>
      <trkpt lat="45.10807" lon="6.09433">
        <ele>2302.4</ele>
        <time>2021-03-10T08:08:53Z</time>
      </trkpt>
      <trkpt lat="45.10807" lon="6.09435">
        <ele>2302.4</ele>
        <time>2021-03-10T08:08:54Z</time>
      </trkpt>
      <trkpt lat="45.10808" lon="6.09436">
        <ele>2302.4</ele>
        <time>2021-03-10T08:08:55Z</time>
      </trkpt>
      <trkpt lat="45.10808" lon="6.09437">
        <ele>2303.1</ele>
        <time>2021-03-10T08:08:56Z</time>
      </trkpt>
      <trkpt lat="45.10809" lon="6.09438">
        <ele>2303.1</ele>
        <time>2021-03-10T08:08:57Z</time>
      </trkpt>
      <trkpt lat="45.10809" lon="6.09439">
        <ele>2303.1</ele>
        <time>2021-03-10T08:08:58Z</time>
      </trkpt>
      <trkpt lat="45.10809" lon="6.0944">
        <ele>2303.2</ele>
        <time>2021-03-10T08:08:59Z</time>
      </trkpt>
      <trkpt lat="45.10809" lon="6.09441">
        <ele>2303.9</ele>
        <time>2021-03-10T08:09:00Z</time>
      </trkpt>
      <trkpt lat="45.1081" lon="6.09442">
        <ele>2303.9</ele>
        <time>2021-03-10T08:09:01Z</time>
      </trkpt>
      <trkpt lat="45.1081" lon="6.09443">
        <ele>2303.9</ele>
        <time>2021-03-10T08:09:02Z</time>
      </trkpt>
      <trkpt lat="45.10811" lon="6.09444">
        <ele>2303.9</ele>
        <time>2021-03-10T08:09:03Z</time>
      </trkpt>
      <trkpt lat="45.10811" lon="6.09445">
        <ele>2304.6</ele>
        <time>2021-03-10T08:09:04Z</time>
      </trkpt>
      <trkpt lat="45.10811" lon="6.09446">
        <ele>2304.6</ele>
        <time>2021-03-10T08:09:05Z</time>
      </trkpt>
      <trkpt lat="45.10811" lon="6.09447">
        <ele>2304.6</ele>
        <time>2021-03-10T08:09:06Z</time>
      </trkpt>
      <trkpt lat="45.10812" lon="6.09448">
        <ele>2304.6</ele>
        <time>2021-03-10T08:09:07Z</time>
      </trkpt>
      <trkpt lat="45.10812" lon="6.09449">
        <ele>2304.6</ele>
        <time>2021-03-10T08:09:08Z</time>
      </trkpt>
      <trkpt lat="45.10812" lon="6.0945">
        <ele>2305.3</ele>
        <time>2021-03-10T08:09:09Z</time>
      </trkpt>
      <trkpt lat="45.10812" lon="6.09451">
        <ele>2305.4</ele>
        <time>2021-03-10T08:09:10Z</time>
      </trkpt>
      <trkpt lat="45.10813" lon="6.09452">
        <ele>2305.4</ele>
        <time>2021-03-10T08:09:11Z</time>
      </trkpt>
      <trkpt lat="45.10813" lon="6.09454">
        <ele>2305.4</ele>
        <time>2021-03-10T08:09:12Z</time>
      </trkpt>
      <trkpt lat="45.10814" lon="6.09455">
        <ele>2306.1</ele>
        <time>2021-03-10T08:09:13Z</time>
      </trkpt>
      <trkpt lat="45.10814" lon="6.09455">
        <ele>2306.1</ele>
        <time>2021-03-10T08:09:14Z</time>
      </trkpt>
      <trkpt lat="45.10814" lon="6.09456">
        <ele>2306.1</ele>
        <time>2021-03-10T08:09:15Z</time>
      </trkpt>
      <trkpt lat="45.10815" lon="6.09457">
        <ele>2306.1</ele>
        <time>2021-03-10T08:09:16Z</time>
      </trkpt>
      <trkpt lat="45.10815" lon="6.09458">
        <ele>2307</ele>
        <time>2021-03-10T08:09:17Z</time>
      </trkpt>
      <trkpt lat="45.10816" lon="6.09459">
        <ele>2307</ele>
        <time>2021-03-10T08:09:18Z</time>
      </trkpt>
      <trkpt lat="45.10817" lon="6.0946">
        <ele>2307</ele>
        <time>2021-03-10T08:09:19Z</time>
      </trkpt>
      <trkpt lat="45.10817" lon="6.09461">
        <ele>2307</ele>
        <time>2021-03-10T08:09:20Z</time>
      </trkpt>
      <trkpt lat="45.10818" lon="6.09462">
        <ele>2307</ele>
        <time>2021-03-10T08:09:21Z</time>
      </trkpt>
      <trkpt lat="45.10819" lon="6.09463">
        <ele>2307.8</ele>
        <time>2021-03-10T08:09:22Z</time>
      </trkpt>
      <trkpt lat="45.10819" lon="6.09463">
        <ele>2307.8</ele>
        <time>2021-03-10T08:09:23Z</time>
      </trkpt>
      <trkpt lat="45.1082" lon="6.09464">
        <ele>2307.8</ele>
        <time>2021-03-10T08:09:24Z</time>
      </trkpt>
      <trkpt lat="45.1082" lon="6.09465">
        <ele>2307.8</ele>
        <time>2021-03-10T08:09:25Z</time>
      </trkpt>
      <trkpt lat="45.10821" lon="6.09465">
        <ele>2307.8</ele>
        <time>2021-03-10T08:09:26Z</time>
      </trkpt>
      <trkpt lat="45.10821" lon="6.09466">
        <ele>2307.9</ele>
        <time>2021-03-10T08:09:27Z</time>
      </trkpt>
      <trkpt lat="45.10822" lon="6.09467">
        <ele>2308.7</ele>
        <time>2021-03-10T08:09:28Z</time>
      </trkpt>
      <trkpt lat="45.10822" lon="6.09469">
        <ele>2308.7</ele>
        <time>2021-03-10T08:09:29Z</time>
      </trkpt>
      <trkpt lat="45.10822" lon="6.0947">
        <ele>2308.7</ele>
        <time>2021-03-10T08:09:30Z</time>
      </trkpt>
      <trkpt lat="45.10823" lon="6.0947">
        <ele>2308.7</ele>
        <time>2021-03-10T08:09:31Z</time>
      </trkpt>
      <trkpt lat="45.10824" lon="6.09471">
        <ele>2309.4</ele>
        <time>2021-03-10T08:09:32Z</time>
      </trkpt>
      <trkpt lat="45.10824" lon="6.09472">
        <ele>2309.4</ele>
        <time>2021-03-10T08:09:33Z</time>
      </trkpt>
      <trkpt lat="45.10825" lon="6.09473">
        <ele>2309.6</ele>
        <time>2021-03-10T08:09:34Z</time>
      </trkpt>
      <trkpt lat="45.10825" lon="6.09473">
        <ele>2309.6</ele>
        <time>2021-03-10T08:09:35Z</time>
      </trkpt>
      <trkpt lat="45.10826" lon="6.09474">
        <ele>2309.6</ele>
        <time>2021-03-10T08:09:36Z</time>
      </trkpt>
      <trkpt lat="45.10826" lon="6.09475">
        <ele>2310.3</ele>
        <time>2021-03-10T08:09:37Z</time>
      </trkpt>
      <trkpt lat="45.10827" lon="6.09476">
        <ele>2310.3</ele>
        <time>2021-03-10T08:09:38Z</time>
      </trkpt>
      <trkpt lat="45.10827" lon="6.09477">
        <ele>2310.3</ele>
        <time>2021-03-10T08:09:39Z</time>
      </trkpt>
      <trkpt lat="45.10827" lon="6.09478">
        <ele>2310.3</ele>
        <time>2021-03-10T08:09:40Z</time>
      </trkpt>
      <trkpt lat="45.10827" lon="6.09479">
        <ele>2310.3</ele>
        <time>2021-03-10T08:09:41Z</time>
      </trkpt>
      <trkpt lat="45.10827" lon="6.0948">
        <ele>2311.2</ele>
        <time>2021-03-10T08:09:42Z</time>
      </trkpt>
      <trkpt lat="45.10828" lon="6.09481">
        <ele>2311.2</ele>
        <time>2021-03-10T08:09:43Z</time>
      </trkpt>
      <trkpt lat="45.10828" lon="6.09482">
        <ele>2311.2</ele>
        <time>2021-03-10T08:09:44Z</time>
      </trkpt>
      <trkpt lat="45.10829" lon="6.09483">
        <ele>2311.2</ele>
        <time>2021-03-10T08:09:45Z</time>
      </trkpt>
      <trkpt lat="45.10829" lon="6.09484">
        <ele>2311.9</ele>
        <time>2021-03-10T08:09:46Z</time>
      </trkpt>
      <trkpt lat="45.10829" lon="6.09486">
        <ele>2311.9</ele>
        <time>2021-03-10T08:09:47Z</time>
      </trkpt>
      <trkpt lat="45.10829" lon="6.09487">
        <ele>2311.9</ele>
        <time>2021-03-10T08:09:48Z</time>
      </trkpt>
      <trkpt lat="45.10829" lon="6.09489">
        <ele>2312.7</ele>
        <time>2021-03-10T08:09:49Z</time>
      </trkpt>
      <trkpt lat="45.10829" lon="6.0949">
        <ele>2312.7</ele>
        <time>2021-03-10T08:09:50Z</time>
      </trkpt>
      <trkpt lat="45.10828" lon="6.09491">
        <ele>2312.7</ele>
        <time>2021-03-10T08:09:51Z</time>
      </trkpt>
      <trkpt lat="45.10828" lon="6.09493">
        <ele>2313.5</ele>
        <time>2021-03-10T08:09:52Z</time>
      </trkpt>
      <trkpt lat="45.10828" lon="6.09494">
        <ele>2313.5</ele>
        <time>2021-03-10T08:09:53Z</time>
      </trkpt>
      <trkpt lat="45.10828" lon="6.09495">
        <ele>2313.5</ele>
        <time>2021-03-10T08:09:54Z</time>
      </trkpt>
      <trkpt lat="45.10828" lon="6.09495">
        <ele>2313.5</ele>
        <time>2021-03-10T08:09:55Z</time>
      </trkpt>
      <trkpt lat="45.10828" lon="6.09496">
        <ele>2313.5</ele>
        <time>2021-03-10T08:09:56Z</time>
      </trkpt>
      <trkpt lat="45.10828" lon="6.09498">
        <ele>2314.3</ele>
        <time>2021-03-10T08:09:57Z</time>
      </trkpt>
      <trkpt lat="45.10828" lon="6.09499">
        <ele>2314.3</ele>
        <time>2021-03-10T08:09:58Z</time>
      </trkpt>
      <trkpt lat="45.10828" lon="6.09501">
        <ele>2314.3</ele>
        <time>2021-03-10T08:09:59Z</time>
      </trkpt>
      <trkpt lat="45.10827" lon="6.09502">
        <ele>2315.2</ele>
        <time>2021-03-10T08:10:00Z</time>
      </trkpt>
      <trkpt lat="45.10827" lon="6.09503">
        <ele>2315.2</ele>
        <time>2021-03-10T08:10:01Z</time>
      </trkpt>
      <trkpt lat="45.10827" lon="6.09504">
        <ele>2314.9</ele>
        <time>2021-03-10T08:10:02Z</time>
      </trkpt>
      <trkpt lat="45.10827" lon="6.09505">
        <ele>2314.9</ele>
        <time>2021-03-10T08:10:03Z</time>
      </trkpt>
      <trkpt lat="45.10827" lon="6.09506">
        <ele>2315.8</ele>
        <time>2021-03-10T08:10:04Z</time>
      </trkpt>
      <trkpt lat="45.10827" lon="6.09507">
        <ele>2315.8</ele>
        <time>2021-03-10T08:10:05Z</time>
      </trkpt>
      <trkpt lat="45.10827" lon="6.09507">
        <ele>2315.8</ele>
        <time>2021-03-10T08:10:06Z</time>
      </trkpt>
      <trkpt lat="45.10827" lon="6.09508">
        <ele>2315.8</ele>
        <time>2021-03-10T08:10:07Z</time>
      </trkpt>
      <trkpt lat="45.10827" lon="6.09508">
        <ele>2315.8</ele>
        <time>2021-03-10T08:10:08Z</time>
      </trkpt>
      <trkpt lat="45.10827" lon="6.09509">
        <ele>2315.8</ele>
        <time>2021-03-10T08:10:09Z</time>
      </trkpt>
      <trkpt lat="45.10827" lon="6.09509">
        <ele>2315.8</ele>
        <time>2021-03-10T08:10:10Z</time>
      </trkpt>
      <trkpt lat="45.10826" lon="6.0951">
        <ele>2316.6</ele>
        <time>2021-03-10T08:10:11Z</time>
      </trkpt>
      <trkpt lat="45.10826" lon="6.09511">
        <ele>2316.6</ele>
        <time>2021-03-10T08:10:12Z</time>
      </trkpt>
      <trkpt lat="45.10826" lon="6.09513">
        <ele>2316.6</ele>
        <time>2021-03-10T08:10:13Z</time>
      </trkpt>
      <trkpt lat="45.10826" lon="6.09514">
        <ele>2316.6</ele>
        <time>2021-03-10T08:10:14Z</time>
      </trkpt>
      <trkpt lat="45.10826" lon="6.09515">
        <ele>2317.4</ele>
        <time>2021-03-10T08:10:15Z</time>
      </trkpt>
      <trkpt lat="45.10826" lon="6.09516">
        <ele>2317.4</ele>
        <time>2021-03-10T08:10:16Z</time>
      </trkpt>
      <trkpt lat="45.10827" lon="6.09517">
        <ele>2317.4</ele>
        <time>2021-03-10T08:10:17Z</time>
      </trkpt>
      <trkpt lat="45.10827" lon="6.09518">
        <ele>2317.7</ele>
        <time>2021-03-10T08:10:18Z</time>
      </trkpt>
      <trkpt lat="45.10828" lon="6.09519">
        <ele>2318.4</ele>
        <time>2021-03-10T08:10:19Z</time>
      </trkpt>
      <trkpt lat="45.10828" lon="6.0952">
        <ele>2318.4</ele>
        <time>2021-03-10T08:10:20Z</time>
      </trkpt>
      <trkpt lat="45.10828" lon="6.0952">
        <ele>2318.4</ele>
        <time>2021-03-10T08:10:21Z</time>
      </trkpt>
      <trkpt lat="45.10829" lon="6.09521">
        <ele>2318.4</ele>
        <time>2021-03-10T08:10:22Z</time>
      </trkpt>
      <trkpt lat="45.10829" lon="6.09522">
        <ele>2318.4</ele>
        <time>2021-03-10T08:10:23Z</time>
      </trkpt>
      <trkpt lat="45.1083" lon="6.09523">
        <ele>2319.2</ele>
        <time>2021-03-10T08:10:24Z</time>
      </trkpt>
      <trkpt lat="45.10831" lon="6.09523">
        <ele>2319.5</ele>
        <time>2021-03-10T08:10:25Z</time>
      </trkpt>
      <trkpt lat="45.10831" lon="6.09524">
        <ele>2319.5</ele>
        <time>2021-03-10T08:10:26Z</time>
      </trkpt>
      <trkpt lat="45.10832" lon="6.09525">
        <ele>2319.5</ele>
        <time>2021-03-10T08:10:27Z</time>
      </trkpt>
      <trkpt lat="45.10832" lon="6.09525">
        <ele>2319.5</ele>
        <time>2021-03-10T08:10:28Z</time>
      </trkpt>
      <trkpt lat="45.10833" lon="6.09526">
        <ele>2319.5</ele>
        <time>2021-03-10T08:10:29Z</time>
      </trkpt>
      <trkpt lat="45.10833" lon="6.09526">
        <ele>2319.5</ele>
        <time>2021-03-10T08:10:30Z</time>
      </trkpt>
      <trkpt lat="45.10833" lon="6.09527">
        <ele>2319.8</ele>
        <time>2021-03-10T08:10:31Z</time>
      </trkpt>
      <trkpt lat="45.10834" lon="6.09527">
        <ele>2320.5</ele>
        <time>2021-03-10T08:10:32Z</time>
      </trkpt>
      <trkpt lat="45.10834" lon="6.09528">
        <ele>2320.5</ele>
        <time>2021-03-10T08:10:33Z</time>
      </trkpt>
      <trkpt lat="45.10834" lon="6.09528">
        <ele>2320.5</ele>
        <time>2021-03-10T08:10:34Z</time>
      </trkpt>
      <trkpt lat="45.10835" lon="6.09528">
        <ele>2320.5</ele>
        <time>2021-03-10T08:10:35Z</time>
      </trkpt>
      <trkpt lat="45.10835" lon="6.09529">
        <ele>2320.5</ele>
        <time>2021-03-10T08:10:36Z</time>
      </trkpt>
      <trkpt lat="45.10836" lon="6.09529">
        <ele>2320.5</ele>
        <time>2021-03-10T08:10:37Z</time>
      </trkpt>
      <trkpt lat="45.10836" lon="6.0953">
        <ele>2320.9</ele>
        <time>2021-03-10T08:10:38Z</time>
      </trkpt>
      <trkpt lat="45.10837" lon="6.0953">
        <ele>2320.9</ele>
        <time>2021-03-10T08:10:39Z</time>
      </trkpt>
      <trkpt lat="45.10838" lon="6.0953">
        <ele>2320.9</ele>
        <time>2021-03-10T08:10:40Z</time>
      </trkpt>
      <trkpt lat="45.10838" lon="6.09531">
        <ele>2320.9</ele>
        <time>2021-03-10T08:10:41Z</time>
      </trkpt>
      <trkpt lat="45.10839" lon="6.09531">
        <ele>2321.6</ele>
        <time>2021-03-10T08:10:42Z</time>
      </trkpt>
      <trkpt lat="45.1084" lon="6.09532">
        <ele>2321.9</ele>
        <time>2021-03-10T08:10:43Z</time>
      </trkpt>
      <trkpt lat="45.1084" lon="6.09532">
        <ele>2321.9</ele>
        <time>2021-03-10T08:10:44Z</time>
      </trkpt>
      <trkpt lat="45.1084" lon="6.09533">
        <ele>2321.9</ele>
        <time>2021-03-10T08:10:45Z</time>
      </trkpt>
      <trkpt lat="45.10841" lon="6.09533">
        <ele>2321.9</ele>
        <time>2021-03-10T08:10:46Z</time>
      </trkpt>
      <trkpt lat="45.10841" lon="6.09534">
        <ele>2321.9</ele>
        <time>2021-03-10T08:10:47Z</time>
      </trkpt>
      <trkpt lat="45.10841" lon="6.09535">
        <ele>2322.7</ele>
        <time>2021-03-10T08:10:48Z</time>
      </trkpt>
      <trkpt lat="45.10841" lon="6.09536">
        <ele>2322.7</ele>
        <time>2021-03-10T08:10:49Z</time>
      </trkpt>
      <trkpt lat="45.10841" lon="6.09537">
        <ele>2322.7</ele>
        <time>2021-03-10T08:10:50Z</time>
      </trkpt>
      <trkpt lat="45.10841" lon="6.09538">
        <ele>2322.7</ele>
        <time>2021-03-10T08:10:51Z</time>
      </trkpt>
      <trkpt lat="45.10841" lon="6.09539">
        <ele>2322.7</ele>
        <time>2021-03-10T08:10:52Z</time>
      </trkpt>
      <trkpt lat="45.10841" lon="6.0954">
        <ele>2323.5</ele>
        <time>2021-03-10T08:10:53Z</time>
      </trkpt>
      <trkpt lat="45.10841" lon="6.09541">
        <ele>2323.5</ele>
        <time>2021-03-10T08:10:54Z</time>
      </trkpt>
      <trkpt lat="45.10841" lon="6.09542">
        <ele>2323.5</ele>
        <time>2021-03-10T08:10:55Z</time>
      </trkpt>
      <trkpt lat="45.10841" lon="6.09543">
        <ele>2323.5</ele>
        <time>2021-03-10T08:10:56Z</time>
      </trkpt>
      <trkpt lat="45.1084" lon="6.09544">
        <ele>2324.3</ele>
        <time>2021-03-10T08:10:57Z</time>
      </trkpt>
      <trkpt lat="45.1084" lon="6.09545">
        <ele>2324.3</ele>
        <time>2021-03-10T08:10:58Z</time>
      </trkpt>
      <trkpt lat="45.1084" lon="6.09546">
        <ele>2324.3</ele>
        <time>2021-03-10T08:10:59Z</time>
      </trkpt>
      <trkpt lat="45.1084" lon="6.09547">
        <ele>2324.3</ele>
        <time>2021-03-10T08:11:00Z</time>
      </trkpt>
      <trkpt lat="45.1084" lon="6.09548">
        <ele>2325</ele>
        <time>2021-03-10T08:11:01Z</time>
      </trkpt>
      <trkpt lat="45.1084" lon="6.09549">
        <ele>2325</ele>
        <time>2021-03-10T08:11:02Z</time>
      </trkpt>
      <trkpt lat="45.10839" lon="6.09551">
        <ele>2324.7</ele>
        <time>2021-03-10T08:11:03Z</time>
      </trkpt>
      <trkpt lat="45.10839" lon="6.09552">
        <ele>2324.7</ele>
        <time>2021-03-10T08:11:04Z</time>
      </trkpt>
      <trkpt lat="45.10839" lon="6.09553">
        <ele>2325.5</ele>
        <time>2021-03-10T08:11:05Z</time>
      </trkpt>
      <trkpt lat="45.10839" lon="6.09554">
        <ele>2325.5</ele>
        <time>2021-03-10T08:11:06Z</time>
      </trkpt>
      <trkpt lat="45.10838" lon="6.09555">
        <ele>2325.5</ele>
        <time>2021-03-10T08:11:07Z</time>
      </trkpt>
      <trkpt lat="45.10838" lon="6.09556">
        <ele>2325.5</ele>
        <time>2021-03-10T08:11:08Z</time>
      </trkpt>
      <trkpt lat="45.10838" lon="6.09557">
        <ele>2326.3</ele>
        <time>2021-03-10T08:11:09Z</time>
      </trkpt>
      <trkpt lat="45.10839" lon="6.09558">
        <ele>2326.3</ele>
        <time>2021-03-10T08:11:10Z</time>
      </trkpt>
      <trkpt lat="45.10838" lon="6.09559">
        <ele>2326.3</ele>
        <time>2021-03-10T08:11:11Z</time>
      </trkpt>
      <trkpt lat="45.10838" lon="6.09559">
        <ele>2326.3</ele>
        <time>2021-03-10T08:11:12Z</time>
      </trkpt>
      <trkpt lat="45.10838" lon="6.0956">
        <ele>2326.3</ele>
        <time>2021-03-10T08:11:13Z</time>
      </trkpt>
      <trkpt lat="45.10838" lon="6.09561">
        <ele>2327</ele>
        <time>2021-03-10T08:11:14Z</time>
      </trkpt>
      <trkpt lat="45.10838" lon="6.09562">
        <ele>2327</ele>
        <time>2021-03-10T08:11:15Z</time>
      </trkpt>
      <trkpt lat="45.10838" lon="6.09564">
        <ele>2327</ele>
        <time>2021-03-10T08:11:16Z</time>
      </trkpt>
      <trkpt lat="45.10838" lon="6.09565">
        <ele>2327</ele>
        <time>2021-03-10T08:11:17Z</time>
      </trkpt>
      <trkpt lat="45.10838" lon="6.09566">
        <ele>2327.7</ele>
        <time>2021-03-10T08:11:18Z</time>
      </trkpt>
      <trkpt lat="45.10839" lon="6.09567">
        <ele>2327.7</ele>
        <time>2021-03-10T08:11:19Z</time>
      </trkpt>
      <trkpt lat="45.10839" lon="6.09567">
        <ele>2327.7</ele>
        <time>2021-03-10T08:11:20Z</time>
      </trkpt>
      <trkpt lat="45.1084" lon="6.09569">
        <ele>2328</ele>
        <time>2021-03-10T08:11:21Z</time>
      </trkpt>
      <trkpt lat="45.1084" lon="6.0957">
        <ele>2328</ele>
        <time>2021-03-10T08:11:22Z</time>
      </trkpt>
      <trkpt lat="45.1084" lon="6.09571">
        <ele>2328.7</ele>
        <time>2021-03-10T08:11:23Z</time>
      </trkpt>
      <trkpt lat="45.10841" lon="6.09572">
        <ele>2328.7</ele>
        <time>2021-03-10T08:11:24Z</time>
      </trkpt>
      <trkpt lat="45.10841" lon="6.09573">
        <ele>2328.7</ele>
        <time>2021-03-10T08:11:25Z</time>
      </trkpt>
      <trkpt lat="45.10841" lon="6.09573">
        <ele>2328.7</ele>
        <time>2021-03-10T08:11:26Z</time>
      </trkpt>
      <trkpt lat="45.10842" lon="6.09574">
        <ele>2329.4</ele>
        <time>2021-03-10T08:11:27Z</time>
      </trkpt>
      <trkpt lat="45.10842" lon="6.09576">
        <ele>2329.4</ele>
        <time>2021-03-10T08:11:28Z</time>
      </trkpt>
      <trkpt lat="45.10842" lon="6.09577">
        <ele>2329.4</ele>
        <time>2021-03-10T08:11:29Z</time>
      </trkpt>
      <trkpt lat="45.10842" lon="6.09578">
        <ele>2329.4</ele>
        <time>2021-03-10T08:11:30Z</time>
      </trkpt>
      <trkpt lat="45.10842" lon="6.09578">
        <ele>2330.4</ele>
        <time>2021-03-10T08:11:31Z</time>
      </trkpt>
      <trkpt lat="45.10843" lon="6.09579">
        <ele>2330.4</ele>
        <time>2021-03-10T08:11:32Z</time>
      </trkpt>
      <trkpt lat="45.10843" lon="6.0958">
        <ele>2330.4</ele>
        <time>2021-03-10T08:11:33Z</time>
      </trkpt>
      <trkpt lat="45.10843" lon="6.0958">
        <ele>2330.4</ele>
        <time>2021-03-10T08:11:34Z</time>
      </trkpt>
      <trkpt lat="45.10843" lon="6.09581">
        <ele>2330.4</ele>
        <time>2021-03-10T08:11:35Z</time>
      </trkpt>
      <trkpt lat="45.10844" lon="6.09583">
        <ele>2331.2</ele>
        <time>2021-03-10T08:11:36Z</time>
      </trkpt>
      <trkpt lat="45.10844" lon="6.09583">
        <ele>2331.2</ele>
        <time>2021-03-10T08:11:37Z</time>
      </trkpt>
      <trkpt lat="45.10845" lon="6.09584">
        <ele>2331.2</ele>
        <time>2021-03-10T08:11:38Z</time>
      </trkpt>
      <trkpt lat="45.10845" lon="6.09585">
        <ele>2331.2</ele>
        <time>2021-03-10T08:11:39Z</time>
      </trkpt>
      <trkpt lat="45.10845" lon="6.09586">
        <ele>2331.2</ele>
        <time>2021-03-10T08:11:40Z</time>
      </trkpt>
      <trkpt lat="45.10846" lon="6.09587">
        <ele>2332.3</ele>
        <time>2021-03-10T08:11:41Z</time>
      </trkpt>
      <trkpt lat="45.10846" lon="6.09588">
        <ele>2332.3</ele>
        <time>2021-03-10T08:11:42Z</time>
      </trkpt>
      <trkpt lat="45.10846" lon="6.09589">
        <ele>2332.3</ele>
        <time>2021-03-10T08:11:43Z</time>
      </trkpt>
      <trkpt lat="45.10847" lon="6.0959">
        <ele>2332.3</ele>
        <time>2021-03-10T08:11:44Z</time>
      </trkpt>
      <trkpt lat="45.10847" lon="6.0959">
        <ele>2332.3</ele>
        <time>2021-03-10T08:11:45Z</time>
      </trkpt>
      <trkpt lat="45.10847" lon="6.09591">
        <ele>2333.1</ele>
        <time>2021-03-10T08:11:46Z</time>
      </trkpt>
      <trkpt lat="45.10848" lon="6.09592">
        <ele>2333.1</ele>
        <time>2021-03-10T08:11:47Z</time>
      </trkpt>
      <trkpt lat="45.10848" lon="6.09593">
        <ele>2333.1</ele>
        <time>2021-03-10T08:11:48Z</time>
      </trkpt>
      <trkpt lat="45.10848" lon="6.09594">
        <ele>2333.1</ele>
        <time>2021-03-10T08:11:49Z</time>
      </trkpt>
      <trkpt lat="45.10849" lon="6.09595">
        <ele>2333.4</ele>
        <time>2021-03-10T08:11:50Z</time>
      </trkpt>
      <trkpt lat="45.10849" lon="6.09596">
        <ele>2334.2</ele>
        <time>2021-03-10T08:11:51Z</time>
      </trkpt>
      <trkpt lat="45.1085" lon="6.09596">
        <ele>2334.2</ele>
        <time>2021-03-10T08:11:52Z</time>
      </trkpt>
      <trkpt lat="45.1085" lon="6.09597">
        <ele>2334.2</ele>
        <time>2021-03-10T08:11:53Z</time>
      </trkpt>
      <trkpt lat="45.10851" lon="6.09598">
        <ele>2334.2</ele>
        <time>2021-03-10T08:11:54Z</time>
      </trkpt>
      <trkpt lat="45.10851" lon="6.09599">
        <ele>2334.2</ele>
        <time>2021-03-10T08:11:55Z</time>
      </trkpt>
      <trkpt lat="45.10852" lon="6.096">
        <ele>2335.2</ele>
        <time>2021-03-10T08:11:56Z</time>
      </trkpt>
      <trkpt lat="45.10852" lon="6.09601">
        <ele>2335.2</ele>
        <time>2021-03-10T08:11:57Z</time>
      </trkpt>
      <trkpt lat="45.10852" lon="6.09602">
        <ele>2335.2</ele>
        <time>2021-03-10T08:11:58Z</time>
      </trkpt>
      <trkpt lat="45.10852" lon="6.09603">
        <ele>2335.2</ele>
        <time>2021-03-10T08:11:59Z</time>
      </trkpt>
      <trkpt lat="45.10851" lon="6.09604">
        <ele>2334.9</ele>
        <time>2021-03-10T08:12:00Z</time>
      </trkpt>
      <trkpt lat="45.10851" lon="6.09604">
        <ele>2335.5</ele>
        <time>2021-03-10T08:12:01Z</time>
      </trkpt>
      <trkpt lat="45.10851" lon="6.09605">
        <ele>2335.5</ele>
        <time>2021-03-10T08:12:02Z</time>
      </trkpt>
      <trkpt lat="45.1085" lon="6.09606">
        <ele>2335.5</ele>
        <time>2021-03-10T08:12:03Z</time>
      </trkpt>
      <trkpt lat="45.1085" lon="6.09607">
        <ele>2335.5</ele>
        <time>2021-03-10T08:12:04Z</time>
      </trkpt>
      <trkpt lat="45.10849" lon="6.09608">
        <ele>2335.5</ele>
        <time>2021-03-10T08:12:05Z</time>
      </trkpt>
      <trkpt lat="45.10849" lon="6.09608">
        <ele>2336.2</ele>
        <time>2021-03-10T08:12:06Z</time>
      </trkpt>
      <trkpt lat="45.10848" lon="6.09609">
        <ele>2335.9</ele>
        <time>2021-03-10T08:12:07Z</time>
      </trkpt>
      <trkpt lat="45.10848" lon="6.0961">
        <ele>2335.9</ele>
        <time>2021-03-10T08:12:08Z</time>
      </trkpt>
      <trkpt lat="45.10847" lon="6.0961">
        <ele>2335.9</ele>
        <time>2021-03-10T08:12:09Z</time>
      </trkpt>
      <trkpt lat="45.10847" lon="6.09611">
        <ele>2335.9</ele>
        <time>2021-03-10T08:12:10Z</time>
      </trkpt>
      <trkpt lat="45.10846" lon="6.09612">
        <ele>2335.9</ele>
        <time>2021-03-10T08:12:11Z</time>
      </trkpt>
      <trkpt lat="45.10846" lon="6.09613">
        <ele>2336.5</ele>
        <time>2021-03-10T08:12:12Z</time>
      </trkpt>
      <trkpt lat="45.10845" lon="6.09614">
        <ele>2336.2</ele>
        <time>2021-03-10T08:12:13Z</time>
      </trkpt>
      <trkpt lat="45.10845" lon="6.09615">
        <ele>2336.2</ele>
        <time>2021-03-10T08:12:14Z</time>
      </trkpt>
      <trkpt lat="45.10845" lon="6.09616">
        <ele>2336.2</ele>
        <time>2021-03-10T08:12:15Z</time>
      </trkpt>
      <trkpt lat="45.10845" lon="6.09617">
        <ele>2336.5</ele>
        <time>2021-03-10T08:12:16Z</time>
      </trkpt>
      <trkpt lat="45.10846" lon="6.09618">
        <ele>2337.1</ele>
        <time>2021-03-10T08:12:17Z</time>
      </trkpt>
      <trkpt lat="45.10846" lon="6.09619">
        <ele>2337.1</ele>
        <time>2021-03-10T08:12:18Z</time>
      </trkpt>
      <trkpt lat="45.10847" lon="6.0962">
        <ele>2337.1</ele>
        <time>2021-03-10T08:12:19Z</time>
      </trkpt>
      <trkpt lat="45.10847" lon="6.0962">
        <ele>2337.1</ele>
        <time>2021-03-10T08:12:20Z</time>
      </trkpt>
      <trkpt lat="45.10848" lon="6.09621">
        <ele>2337.7</ele>
        <time>2021-03-10T08:12:21Z</time>
      </trkpt>
      <trkpt lat="45.10848" lon="6.09622">
        <ele>2337.9</ele>
        <time>2021-03-10T08:12:22Z</time>
      </trkpt>
      <trkpt lat="45.10849" lon="6.09623">
        <ele>2337.9</ele>
        <time>2021-03-10T08:12:23Z</time>
      </trkpt>
      <trkpt lat="45.1085" lon="6.09624">
        <ele>2337.9</ele>
        <time>2021-03-10T08:12:24Z</time>
      </trkpt>
      <trkpt lat="45.1085" lon="6.09625">
        <ele>2337.9</ele>
        <time>2021-03-10T08:12:25Z</time>
      </trkpt>
      <trkpt lat="45.10851" lon="6.09626">
        <ele>2338.5</ele>
        <time>2021-03-10T08:12:26Z</time>
      </trkpt>
      <trkpt lat="45.10851" lon="6.09627">
        <ele>2338.5</ele>
        <time>2021-03-10T08:12:27Z</time>
      </trkpt>
      <trkpt lat="45.10851" lon="6.09628">
        <ele>2338.5</ele>
        <time>2021-03-10T08:12:28Z</time>
      </trkpt>
      <trkpt lat="45.10851" lon="6.09629">
        <ele>2338.5</ele>
        <time>2021-03-10T08:12:29Z</time>
      </trkpt>
      <trkpt lat="45.10852" lon="6.0963">
        <ele>2339.4</ele>
        <time>2021-03-10T08:12:30Z</time>
      </trkpt>
      <trkpt lat="45.10852" lon="6.09631">
        <ele>2339.4</ele>
        <time>2021-03-10T08:12:31Z</time>
      </trkpt>
      <trkpt lat="45.10853" lon="6.09632">
        <ele>2339.4</ele>
        <time>2021-03-10T08:12:32Z</time>
      </trkpt>
      <trkpt lat="45.10853" lon="6.09632">
        <ele>2339.4</ele>
        <time>2021-03-10T08:12:33Z</time>
      </trkpt>
      <trkpt lat="45.10854" lon="6.09633">
        <ele>2339.4</ele>
        <time>2021-03-10T08:12:34Z</time>
      </trkpt>
      <trkpt lat="45.10854" lon="6.09634">
        <ele>2339.4</ele>
        <time>2021-03-10T08:12:35Z</time>
      </trkpt>
      <trkpt lat="45.10855" lon="6.09635">
        <ele>2340.3</ele>
        <time>2021-03-10T08:12:36Z</time>
      </trkpt>
      <trkpt lat="45.10855" lon="6.09635">
        <ele>2340.3</ele>
        <time>2021-03-10T08:12:37Z</time>
      </trkpt>
      <trkpt lat="45.10856" lon="6.09636">
        <ele>2340.3</ele>
        <time>2021-03-10T08:12:38Z</time>
      </trkpt>
      <trkpt lat="45.10856" lon="6.09636">
        <ele>2340.3</ele>
        <time>2021-03-10T08:12:39Z</time>
      </trkpt>
      <trkpt lat="45.10856" lon="6.09637">
        <ele>2340.3</ele>
        <time>2021-03-10T08:12:40Z</time>
      </trkpt>
      <trkpt lat="45.10857" lon="6.09638">
        <ele>2340.3</ele>
        <time>2021-03-10T08:12:41Z</time>
      </trkpt>
      <trkpt lat="45.10857" lon="6.09639">
        <ele>2340.9</ele>
        <time>2021-03-10T08:12:42Z</time>
      </trkpt>
      <trkpt lat="45.10858" lon="6.0964">
        <ele>2341.2</ele>
        <time>2021-03-10T08:12:43Z</time>
      </trkpt>
      <trkpt lat="45.10858" lon="6.0964">
        <ele>2341.2</ele>
        <time>2021-03-10T08:12:44Z</time>
      </trkpt>
      <trkpt lat="45.10859" lon="6.09641">
        <ele>2341.2</ele>
        <time>2021-03-10T08:12:45Z</time>
      </trkpt>
      <trkpt lat="45.10859" lon="6.09642">
        <ele>2341.2</ele>
        <time>2021-03-10T08:12:46Z</time>
      </trkpt>
      <trkpt lat="45.10858" lon="6.09643">
        <ele>2341.8</ele>
        <time>2021-03-10T08:12:47Z</time>
      </trkpt>
      <trkpt lat="45.10858" lon="6.09644">
        <ele>2341.8</ele>
        <time>2021-03-10T08:12:48Z</time>
      </trkpt>
      <trkpt lat="45.10858" lon="6.09646">
        <ele>2341.8</ele>
        <time>2021-03-10T08:12:49Z</time>
      </trkpt>
      <trkpt lat="45.10857" lon="6.09646">
        <ele>2341.5</ele>
        <time>2021-03-10T08:12:50Z</time>
      </trkpt>
      <trkpt lat="45.10857" lon="6.09647">
        <ele>2342.1</ele>
        <time>2021-03-10T08:12:51Z</time>
      </trkpt>
      <trkpt lat="45.10857" lon="6.09647">
        <ele>2342.1</ele>
        <time>2021-03-10T08:12:52Z</time>
      </trkpt>
      <trkpt lat="45.10857" lon="6.09647">
        <ele>2342.1</ele>
        <time>2021-03-10T08:12:53Z</time>
      </trkpt>
      <trkpt lat="45.10857" lon="6.09648">
        <ele>2342.1</ele>
        <time>2021-03-10T08:12:54Z</time>
      </trkpt>
      <trkpt lat="45.10858" lon="6.09648">
        <ele>2342.4</ele>
        <time>2021-03-10T08:12:55Z</time>
      </trkpt>
      <trkpt lat="45.10858" lon="6.09648">
        <ele>2342.4</ele>
        <time>2021-03-10T08:12:56Z</time>
      </trkpt>
      <trkpt lat="45.10859" lon="6.09648">
        <ele>2342.4</ele>
        <time>2021-03-10T08:12:57Z</time>
      </trkpt>
      <trkpt lat="45.10859" lon="6.09648">
        <ele>2342.4</ele>
        <time>2021-03-10T08:12:58Z</time>
      </trkpt>
      <trkpt lat="45.10858" lon="6.09649">
        <ele>2342.4</ele>
        <time>2021-03-10T08:12:59Z</time>
      </trkpt>
      <trkpt lat="45.10858" lon="6.0965">
        <ele>2342.4</ele>
        <time>2021-03-10T08:13:00Z</time>
      </trkpt>
      <trkpt lat="45.10858" lon="6.09651">
        <ele>2343</ele>
        <time>2021-03-10T08:13:01Z</time>
      </trkpt>
      <trkpt lat="45.10857" lon="6.09652">
        <ele>2342.7</ele>
        <time>2021-03-10T08:13:02Z</time>
      </trkpt>
      <trkpt lat="45.10857" lon="6.09652">
        <ele>2342.7</ele>
        <time>2021-03-10T08:13:03Z</time>
      </trkpt>
      <trkpt lat="45.10857" lon="6.09653">
        <ele>2342.7</ele>
        <time>2021-03-10T08:13:04Z</time>
      </trkpt>
      <trkpt lat="45.10856" lon="6.09653">
        <ele>2342.7</ele>
        <time>2021-03-10T08:13:05Z</time>
      </trkpt>
      <trkpt lat="45.10856" lon="6.09654">
        <ele>2342.7</ele>
        <time>2021-03-10T08:13:06Z</time>
      </trkpt>
      <trkpt lat="45.10856" lon="6.09655">
        <ele>2342.7</ele>
        <time>2021-03-10T08:13:07Z</time>
      </trkpt>
      <trkpt lat="45.10855" lon="6.09656">
        <ele>2343.3</ele>
        <time>2021-03-10T08:13:08Z</time>
      </trkpt>
      <trkpt lat="45.10854" lon="6.09657">
        <ele>2343.1</ele>
        <time>2021-03-10T08:13:09Z</time>
      </trkpt>
      <trkpt lat="45.10854" lon="6.09658">
        <ele>2343.1</ele>
        <time>2021-03-10T08:13:10Z</time>
      </trkpt>
      <trkpt lat="45.10853" lon="6.09659">
        <ele>2343.1</ele>
        <time>2021-03-10T08:13:11Z</time>
      </trkpt>
      <trkpt lat="45.10852" lon="6.0966">
        <ele>2343.6</ele>
        <time>2021-03-10T08:13:12Z</time>
      </trkpt>
      <trkpt lat="45.10852" lon="6.09661">
        <ele>2343.6</ele>
        <time>2021-03-10T08:13:13Z</time>
      </trkpt>
      <trkpt lat="45.10852" lon="6.09662">
        <ele>2343.6</ele>
        <time>2021-03-10T08:13:14Z</time>
      </trkpt>
      <trkpt lat="45.10851" lon="6.09662">
        <ele>2343.4</ele>
        <time>2021-03-10T08:13:15Z</time>
      </trkpt>
      <trkpt lat="45.10851" lon="6.09663">
        <ele>2343.4</ele>
        <time>2021-03-10T08:13:16Z</time>
      </trkpt>
      <trkpt lat="45.10851" lon="6.09664">
        <ele>2343.4</ele>
        <time>2021-03-10T08:13:17Z</time>
      </trkpt>
      <trkpt lat="45.1085" lon="6.09665">
        <ele>2344</ele>
        <time>2021-03-10T08:13:18Z</time>
      </trkpt>
      <trkpt lat="45.1085" lon="6.09665">
        <ele>2344</ele>
        <time>2021-03-10T08:13:19Z</time>
      </trkpt>
      <trkpt lat="45.10849" lon="6.09666">
        <ele>2344</ele>
        <time>2021-03-10T08:13:20Z</time>
      </trkpt>
      <trkpt lat="45.10849" lon="6.09667">
        <ele>2344</ele>
        <time>2021-03-10T08:13:21Z</time>
      </trkpt>
      <trkpt lat="45.10849" lon="6.09667">
        <ele>2344</ele>
        <time>2021-03-10T08:13:22Z</time>
      </trkpt>
      <trkpt lat="45.10848" lon="6.09668">
        <ele>2343.7</ele>
        <time>2021-03-10T08:13:23Z</time>
      </trkpt>
      <trkpt lat="45.10848" lon="6.09668">
        <ele>2343.7</ele>
        <time>2021-03-10T08:13:24Z</time>
      </trkpt>
      <trkpt lat="45.10846" lon="6.0967">
        <ele>2344.3</ele>
        <time>2021-03-10T08:13:27Z</time>
      </trkpt>
      <trkpt lat="45.10846" lon="6.09671">
        <ele>2344.3</ele>
        <time>2021-03-10T08:13:28Z</time>
      </trkpt>
      <trkpt lat="45.10846" lon="6.09672">
        <ele>2344.3</ele>
        <time>2021-03-10T08:13:29Z</time>
      </trkpt>
      <trkpt lat="45.10845" lon="6.09673">
        <ele>2344.3</ele>
        <time>2021-03-10T08:13:30Z</time>
      </trkpt>
      <trkpt lat="45.10845" lon="6.09673">
        <ele>2344.9</ele>
        <time>2021-03-10T08:13:31Z</time>
      </trkpt>
      <trkpt lat="45.10845" lon="6.09675">
        <ele>2344.9</ele>
        <time>2021-03-10T08:13:32Z</time>
      </trkpt>
      <trkpt lat="45.10846" lon="6.09676">
        <ele>2344.9</ele>
        <time>2021-03-10T08:13:33Z</time>
      </trkpt>
      <trkpt lat="45.10846" lon="6.09677">
        <ele>2345.5</ele>
        <time>2021-03-10T08:13:34Z</time>
      </trkpt>
      <trkpt lat="45.10846" lon="6.09678">
        <ele>2345.5</ele>
        <time>2021-03-10T08:13:35Z</time>
      </trkpt>
      <trkpt lat="45.10847" lon="6.09679">
        <ele>2345.5</ele>
        <time>2021-03-10T08:13:36Z</time>
      </trkpt>
      <trkpt lat="45.10847" lon="6.0968">
        <ele>2345.5</ele>
        <time>2021-03-10T08:13:37Z</time>
      </trkpt>
      <trkpt lat="45.10848" lon="6.0968">
        <ele>2345.5</ele>
        <time>2021-03-10T08:13:38Z</time>
      </trkpt>
      <trkpt lat="45.10849" lon="6.09681">
        <ele>2345.8</ele>
        <time>2021-03-10T08:13:39Z</time>
      </trkpt>
      <trkpt lat="45.10849" lon="6.09682">
        <ele>2346.4</ele>
        <time>2021-03-10T08:13:40Z</time>
      </trkpt>
      <trkpt lat="45.10849" lon="6.09683">
        <ele>2346.4</ele>
        <time>2021-03-10T08:13:41Z</time>
      </trkpt>
      <trkpt lat="45.1085" lon="6.09683">
        <ele>2346.4</ele>
        <time>2021-03-10T08:13:42Z</time>
      </trkpt>
      <trkpt lat="45.1085" lon="6.09684">
        <ele>2346.4</ele>
        <time>2021-03-10T08:13:43Z</time>
      </trkpt>
      <trkpt lat="45.1085" lon="6.09684">
        <ele>2346.4</ele>
        <time>2021-03-10T08:13:44Z</time>
      </trkpt>
      <trkpt lat="45.10851" lon="6.09685">
        <ele>2346.4</ele>
        <time>2021-03-10T08:13:45Z</time>
      </trkpt>
      <trkpt lat="45.10851" lon="6.09685">
        <ele>2346.4</ele>
        <time>2021-03-10T08:13:46Z</time>
      </trkpt>
      <trkpt lat="45.10852" lon="6.09686">
        <ele>2347.3</ele>
        <time>2021-03-10T08:13:47Z</time>
      </trkpt>
      <trkpt lat="45.10852" lon="6.09687">
        <ele>2347.3</ele>
        <time>2021-03-10T08:13:48Z</time>
      </trkpt>
      <trkpt lat="45.10853" lon="6.09687">
        <ele>2347.3</ele>
        <time>2021-03-10T08:13:49Z</time>
      </trkpt>
      <trkpt lat="45.10853" lon="6.09688">
        <ele>2347.3</ele>
        <time>2021-03-10T08:13:50Z</time>
      </trkpt>
      <trkpt lat="45.10854" lon="6.09689">
        <ele>2347.3</ele>
        <time>2021-03-10T08:13:51Z</time>
      </trkpt>
      <trkpt lat="45.10854" lon="6.09689">
        <ele>2347.3</ele>
        <time>2021-03-10T08:13:52Z</time>
      </trkpt>
      <trkpt lat="45.10855" lon="6.0969">
        <ele>2347.5</ele>
        <time>2021-03-10T08:13:53Z</time>
      </trkpt>
      <trkpt lat="45.10855" lon="6.0969">
        <ele>2348.1</ele>
        <time>2021-03-10T08:13:54Z</time>
      </trkpt>
      <trkpt lat="45.10856" lon="6.09691">
        <ele>2348.1</ele>
        <time>2021-03-10T08:13:55Z</time>
      </trkpt>
      <trkpt lat="45.10857" lon="6.09691">
        <ele>2348.1</ele>
        <time>2021-03-10T08:13:56Z</time>
      </trkpt>
      <trkpt lat="45.10857" lon="6.09692">
        <ele>2348.1</ele>
        <time>2021-03-10T08:13:57Z</time>
      </trkpt>
      <trkpt lat="45.10858" lon="6.09692">
        <ele>2348.4</ele>
        <time>2021-03-10T08:13:58Z</time>
      </trkpt>
      <trkpt lat="45.10859" lon="6.09693">
        <ele>2348.4</ele>
        <time>2021-03-10T08:13:59Z</time>
      </trkpt>
      <trkpt lat="45.10859" lon="6.09693">
        <ele>2348.4</ele>
        <time>2021-03-10T08:14:00Z</time>
      </trkpt>
      <trkpt lat="45.1086" lon="6.09694">
        <ele>2348.4</ele>
        <time>2021-03-10T08:14:01Z</time>
      </trkpt>
      <trkpt lat="45.10861" lon="6.09694">
        <ele>2349.2</ele>
        <time>2021-03-10T08:14:02Z</time>
      </trkpt>
      <trkpt lat="45.10862" lon="6.09695">
        <ele>2349.2</ele>
        <time>2021-03-10T08:14:03Z</time>
      </trkpt>
      <trkpt lat="45.10862" lon="6.09695">
        <ele>2349.2</ele>
        <time>2021-03-10T08:14:04Z</time>
      </trkpt>
      <trkpt lat="45.10863" lon="6.09696">
        <ele>2349.2</ele>
        <time>2021-03-10T08:14:05Z</time>
      </trkpt>
      <trkpt lat="45.10864" lon="6.09696">
        <ele>2349.5</ele>
        <time>2021-03-10T08:14:06Z</time>
      </trkpt>
      <trkpt lat="45.10865" lon="6.09696">
        <ele>2349.5</ele>
        <time>2021-03-10T08:14:07Z</time>
      </trkpt>
      <trkpt lat="45.10865" lon="6.09696">
        <ele>2349.5</ele>
        <time>2021-03-10T08:14:08Z</time>
      </trkpt>
      <trkpt lat="45.10866" lon="6.09697">
        <ele>2349.5</ele>
        <time>2021-03-10T08:14:09Z</time>
      </trkpt>
      <trkpt lat="45.10867" lon="6.09697">
        <ele>2349.5</ele>
        <time>2021-03-10T08:14:10Z</time>
      </trkpt>
      <trkpt lat="45.10867" lon="6.09697">
        <ele>2349.8</ele>
        <time>2021-03-10T08:14:11Z</time>
      </trkpt>
      <trkpt lat="45.10868" lon="6.09697">
        <ele>2349.8</ele>
        <time>2021-03-10T08:14:12Z</time>
      </trkpt>
      <trkpt lat="45.10869" lon="6.09697">
        <ele>2349.8</ele>
        <time>2021-03-10T08:14:13Z</time>
      </trkpt>
      <trkpt lat="45.1087" lon="6.09698">
        <ele>2350</ele>
        <time>2021-03-10T08:14:14Z</time>
      </trkpt>
      <trkpt lat="45.1087" lon="6.09698">
        <ele>2350</ele>
        <time>2021-03-10T08:14:15Z</time>
      </trkpt>
      <trkpt lat="45.10871" lon="6.09698">
        <ele>2350</ele>
        <time>2021-03-10T08:14:16Z</time>
      </trkpt>
      <trkpt lat="45.10872" lon="6.09698">
        <ele>2350</ele>
        <time>2021-03-10T08:14:17Z</time>
      </trkpt>
      <trkpt lat="45.10873" lon="6.09698">
        <ele>2350</ele>
        <time>2021-03-10T08:14:18Z</time>
      </trkpt>
      <trkpt lat="45.10873" lon="6.09698">
        <ele>2350.8</ele>
        <time>2021-03-10T08:14:19Z</time>
      </trkpt>
      <trkpt lat="45.10874" lon="6.09699">
        <ele>2350.8</ele>
        <time>2021-03-10T08:14:20Z</time>
      </trkpt>
      <trkpt lat="45.10875" lon="6.09699">
        <ele>2350.8</ele>
        <time>2021-03-10T08:14:21Z</time>
      </trkpt>
      <trkpt lat="45.10876" lon="6.097">
        <ele>2351</ele>
        <time>2021-03-10T08:14:22Z</time>
      </trkpt>
      <trkpt lat="45.10877" lon="6.097">
        <ele>2351</ele>
        <time>2021-03-10T08:14:23Z</time>
      </trkpt>
      <trkpt lat="45.10878" lon="6.09701">
        <ele>2351</ele>
        <time>2021-03-10T08:14:24Z</time>
      </trkpt>
      <trkpt lat="45.10878" lon="6.09701">
        <ele>2351</ele>
        <time>2021-03-10T08:14:25Z</time>
      </trkpt>
      <trkpt lat="45.10879" lon="6.09702">
        <ele>2351.3</ele>
        <time>2021-03-10T08:14:26Z</time>
      </trkpt>
      <trkpt lat="45.1088" lon="6.09702">
        <ele>2351.3</ele>
        <time>2021-03-10T08:14:27Z</time>
      </trkpt>
      <trkpt lat="45.1088" lon="6.09703">
        <ele>2351.3</ele>
        <time>2021-03-10T08:14:28Z</time>
      </trkpt>
      <trkpt lat="45.10881" lon="6.09703">
        <ele>2351.8</ele>
        <time>2021-03-10T08:14:29Z</time>
      </trkpt>
      <trkpt lat="45.10882" lon="6.09704">
        <ele>2351.8</ele>
        <time>2021-03-10T08:14:30Z</time>
      </trkpt>
      <trkpt lat="45.10882" lon="6.09704">
        <ele>2352.1</ele>
        <time>2021-03-10T08:14:31Z</time>
      </trkpt>
      <trkpt lat="45.10883" lon="6.09705">
        <ele>2352.1</ele>
        <time>2021-03-10T08:14:32Z</time>
      </trkpt>
      <trkpt lat="45.10884" lon="6.09705">
        <ele>2352.1</ele>
        <time>2021-03-10T08:14:33Z</time>
      </trkpt>
      <trkpt lat="45.10884" lon="6.09706">
        <ele>2352.1</ele>
        <time>2021-03-10T08:14:34Z</time>
      </trkpt>
      <trkpt lat="45.10885" lon="6.09706">
        <ele>2352.4</ele>
        <time>2021-03-10T08:14:35Z</time>
      </trkpt>
      <trkpt lat="45.10885" lon="6.09707">
        <ele>2352.4</ele>
        <time>2021-03-10T08:14:36Z</time>
      </trkpt>
      <trkpt lat="45.10886" lon="6.09707">
        <ele>2352.8</ele>
        <time>2021-03-10T08:14:37Z</time>
      </trkpt>
      <trkpt lat="45.10887" lon="6.09708">
        <ele>2352.8</ele>
        <time>2021-03-10T08:14:38Z</time>
      </trkpt>
      <trkpt lat="45.10887" lon="6.09708">
        <ele>2352.8</ele>
        <time>2021-03-10T08:14:39Z</time>
      </trkpt>
      <trkpt lat="45.10888" lon="6.09709">
        <ele>2353.2</ele>
        <time>2021-03-10T08:14:40Z</time>
      </trkpt>
      <trkpt lat="45.10889" lon="6.09709">
        <ele>2353.2</ele>
        <time>2021-03-10T08:14:41Z</time>
      </trkpt>
      <trkpt lat="45.10889" lon="6.0971">
        <ele>2353.2</ele>
        <time>2021-03-10T08:14:42Z</time>
      </trkpt>
      <trkpt lat="45.1089" lon="6.09711">
        <ele>2353.2</ele>
        <time>2021-03-10T08:14:43Z</time>
      </trkpt>
      <trkpt lat="45.10891" lon="6.09711">
        <ele>2353.7</ele>
        <time>2021-03-10T08:14:44Z</time>
      </trkpt>
      <trkpt lat="45.10891" lon="6.09712">
        <ele>2354</ele>
        <time>2021-03-10T08:14:45Z</time>
      </trkpt>
      <trkpt lat="45.10891" lon="6.09712">
        <ele>2354</ele>
        <time>2021-03-10T08:14:46Z</time>
      </trkpt>
      <trkpt lat="45.10892" lon="6.09713">
        <ele>2354</ele>
        <time>2021-03-10T08:14:47Z</time>
      </trkpt>
      <trkpt lat="45.10892" lon="6.09714">
        <ele>2354</ele>
        <time>2021-03-10T08:14:48Z</time>
      </trkpt>
      <trkpt lat="45.10893" lon="6.09714">
        <ele>2354</ele>
        <time>2021-03-10T08:14:49Z</time>
      </trkpt>
      <trkpt lat="45.10893" lon="6.09715">
        <ele>2354</ele>
        <time>2021-03-10T08:14:50Z</time>
      </trkpt>
      <trkpt lat="45.10894" lon="6.09716">
        <ele>2354.5</ele>
        <time>2021-03-10T08:14:51Z</time>
      </trkpt>
      <trkpt lat="45.10894" lon="6.09717">
        <ele>2354.9</ele>
        <time>2021-03-10T08:14:52Z</time>
      </trkpt>
      <trkpt lat="45.10895" lon="6.09718">
        <ele>2354.9</ele>
        <time>2021-03-10T08:14:53Z</time>
      </trkpt>
      <trkpt lat="45.10895" lon="6.0972">
        <ele>2354.9</ele>
        <time>2021-03-10T08:14:54Z</time>
      </trkpt>
      <trkpt lat="45.10896" lon="6.09721">
        <ele>2355.5</ele>
        <time>2021-03-10T08:14:55Z</time>
      </trkpt>
      <trkpt lat="45.10896" lon="6.09722">
        <ele>2355.5</ele>
        <time>2021-03-10T08:14:56Z</time>
      </trkpt>
      <trkpt lat="45.10896" lon="6.09723">
        <ele>2355.5</ele>
        <time>2021-03-10T08:14:57Z</time>
      </trkpt>
      <trkpt lat="45.10897" lon="6.09724">
        <ele>2356</ele>
        <time>2021-03-10T08:14:58Z</time>
      </trkpt>
      <trkpt lat="45.10898" lon="6.09725">
        <ele>2356.4</ele>
        <time>2021-03-10T08:14:59Z</time>
      </trkpt>
      <trkpt lat="45.10899" lon="6.09726">
        <ele>2356.4</ele>
        <time>2021-03-10T08:15:00Z</time>
      </trkpt>
      <trkpt lat="45.10899" lon="6.09728">
        <ele>2356.4</ele>
        <time>2021-03-10T08:15:01Z</time>
      </trkpt>
      <trkpt lat="45.109" lon="6.09729">
        <ele>2357.3</ele>
        <time>2021-03-10T08:15:02Z</time>
      </trkpt>
      <trkpt lat="45.10901" lon="6.0973">
        <ele>2357.3</ele>
        <time>2021-03-10T08:15:03Z</time>
      </trkpt>
      <trkpt lat="45.10901" lon="6.0973">
        <ele>2357.3</ele>
        <time>2021-03-10T08:15:04Z</time>
      </trkpt>
      <trkpt lat="45.10902" lon="6.09731">
        <ele>2357.3</ele>
        <time>2021-03-10T08:15:05Z</time>
      </trkpt>
      <trkpt lat="45.10902" lon="6.09732">
        <ele>2357.3</ele>
        <time>2021-03-10T08:15:06Z</time>
      </trkpt>
      <trkpt lat="45.10903" lon="6.09733">
        <ele>2357.7</ele>
        <time>2021-03-10T08:15:07Z</time>
      </trkpt>
      <trkpt lat="45.10904" lon="6.09733">
        <ele>2358.2</ele>
        <time>2021-03-10T08:15:08Z</time>
      </trkpt>
      <trkpt lat="45.10905" lon="6.09734">
        <ele>2358.2</ele>
        <time>2021-03-10T08:15:09Z</time>
      </trkpt>
      <trkpt lat="45.10906" lon="6.09735">
        <ele>2358.2</ele>
        <time>2021-03-10T08:15:10Z</time>
      </trkpt>
      <trkpt lat="45.10907" lon="6.09736">
        <ele>2358.6</ele>
        <time>2021-03-10T08:15:11Z</time>
      </trkpt>
      <trkpt lat="45.10907" lon="6.09736">
        <ele>2358.6</ele>
        <time>2021-03-10T08:15:12Z</time>
      </trkpt>
      <trkpt lat="45.10908" lon="6.09737">
        <ele>2358.6</ele>
        <time>2021-03-10T08:15:13Z</time>
      </trkpt>
      <trkpt lat="45.10908" lon="6.09738">
        <ele>2359.1</ele>
        <time>2021-03-10T08:15:14Z</time>
      </trkpt>
      <trkpt lat="45.10909" lon="6.09738">
        <ele>2359.5</ele>
        <time>2021-03-10T08:15:15Z</time>
      </trkpt>
      <trkpt lat="45.1091" lon="6.09739">
        <ele>2359.5</ele>
        <time>2021-03-10T08:15:16Z</time>
      </trkpt>
      <trkpt lat="45.10911" lon="6.0974">
        <ele>2359.5</ele>
        <time>2021-03-10T08:15:17Z</time>
      </trkpt>
      <trkpt lat="45.10912" lon="6.0974">
        <ele>2359.5</ele>
        <time>2021-03-10T08:15:18Z</time>
      </trkpt>
      <trkpt lat="45.10913" lon="6.09741">
        <ele>2360</ele>
        <time>2021-03-10T08:15:19Z</time>
      </trkpt>
      <trkpt lat="45.10914" lon="6.09742">
        <ele>2360.7</ele>
        <time>2021-03-10T08:15:20Z</time>
      </trkpt>
      <trkpt lat="45.10915" lon="6.09742">
        <ele>2360.7</ele>
        <time>2021-03-10T08:15:21Z</time>
      </trkpt>
      <trkpt lat="45.10916" lon="6.09743">
        <ele>2361.2</ele>
        <time>2021-03-10T08:15:22Z</time>
      </trkpt>
      <trkpt lat="45.10917" lon="6.09744">
        <ele>2361.2</ele>
        <time>2021-03-10T08:15:23Z</time>
      </trkpt>
      <trkpt lat="45.10918" lon="6.09744">
        <ele>2361.2</ele>
        <time>2021-03-10T08:15:24Z</time>
      </trkpt>
      <trkpt lat="45.10919" lon="6.09745">
        <ele>2361.6</ele>
        <time>2021-03-10T08:15:25Z</time>
      </trkpt>
      <trkpt lat="45.10919" lon="6.09746">
        <ele>2362.1</ele>
        <time>2021-03-10T08:15:26Z</time>
      </trkpt>
      <trkpt lat="45.1092" lon="6.09746">
        <ele>2362.1</ele>
        <time>2021-03-10T08:15:27Z</time>
      </trkpt>
      <trkpt lat="45.10921" lon="6.09747">
        <ele>2362.2</ele>
        <time>2021-03-10T08:15:28Z</time>
      </trkpt>
      <trkpt lat="45.10922" lon="6.09747">
        <ele>2362.2</ele>
        <time>2021-03-10T08:15:29Z</time>
      </trkpt>
      <trkpt lat="45.10922" lon="6.09748">
        <ele>2362.3</ele>
        <time>2021-03-10T08:15:30Z</time>
      </trkpt>
      <trkpt lat="45.10923" lon="6.09748">
        <ele>2362.4</ele>
        <time>2021-03-10T08:15:31Z</time>
      </trkpt>
      <trkpt lat="45.10924" lon="6.09749">
        <ele>2362.4</ele>
        <time>2021-03-10T08:15:32Z</time>
      </trkpt>
      <trkpt lat="45.10925" lon="6.0975">
        <ele>2362.5</ele>
        <time>2021-03-10T08:15:33Z</time>
      </trkpt>
      <trkpt lat="45.10926" lon="6.0975">
        <ele>2362.6</ele>
        <time>2021-03-10T08:15:34Z</time>
      </trkpt>
      <trkpt lat="45.10926" lon="6.09751">
        <ele>2362.6</ele>
        <time>2021-03-10T08:15:35Z</time>
      </trkpt>
      <trkpt lat="45.10927" lon="6.09751">
        <ele>2362.6</ele>
        <time>2021-03-10T08:15:36Z</time>
      </trkpt>
      <trkpt lat="45.10928" lon="6.09752">
        <ele>2362.7</ele>
        <time>2021-03-10T08:15:37Z</time>
      </trkpt>
      <trkpt lat="45.10929" lon="6.09752">
        <ele>2362.8</ele>
        <time>2021-03-10T08:15:38Z</time>
      </trkpt>
      <trkpt lat="45.10929" lon="6.09753">
        <ele>2362.8</ele>
        <time>2021-03-10T08:15:39Z</time>
      </trkpt>
      <trkpt lat="45.1093" lon="6.09753">
        <ele>2362.9</ele>
        <time>2021-03-10T08:15:40Z</time>
      </trkpt>
      <trkpt lat="45.10931" lon="6.09754">
        <ele>2362.9</ele>
        <time>2021-03-10T08:15:41Z</time>
      </trkpt>
      <trkpt lat="45.10932" lon="6.09755">
        <ele>2363</ele>
        <time>2021-03-10T08:15:42Z</time>
      </trkpt>
      <trkpt lat="45.10933" lon="6.09755">
        <ele>2363.1</ele>
        <time>2021-03-10T08:15:43Z</time>
      </trkpt>
      <trkpt lat="45.10933" lon="6.09756">
        <ele>2363.1</ele>
        <time>2021-03-10T08:15:44Z</time>
      </trkpt>
      <trkpt lat="45.10934" lon="6.09756">
        <ele>2363.2</ele>
        <time>2021-03-10T08:15:45Z</time>
      </trkpt>
      <trkpt lat="45.10935" lon="6.09757">
        <ele>2363.2</ele>
        <time>2021-03-10T08:15:46Z</time>
      </trkpt>
      <trkpt lat="45.10936" lon="6.09758">
        <ele>2363.3</ele>
        <time>2021-03-10T08:15:47Z</time>
      </trkpt>
      <trkpt lat="45.10936" lon="6.09758">
        <ele>2363.3</ele>
        <time>2021-03-10T08:15:48Z</time>
      </trkpt>
      <trkpt lat="45.10937" lon="6.09759">
        <ele>2363.4</ele>
        <time>2021-03-10T08:15:49Z</time>
      </trkpt>
      <trkpt lat="45.10938" lon="6.0976">
        <ele>2363.5</ele>
        <time>2021-03-10T08:15:50Z</time>
      </trkpt>
      <trkpt lat="45.10939" lon="6.09761">
        <ele>2363.5</ele>
        <time>2021-03-10T08:15:51Z</time>
      </trkpt>
      <trkpt lat="45.10939" lon="6.09761">
        <ele>2363.6</ele>
        <time>2021-03-10T08:15:52Z</time>
      </trkpt>
      <trkpt lat="45.1094" lon="6.09762">
        <ele>2363.6</ele>
        <time>2021-03-10T08:15:53Z</time>
      </trkpt>
      <trkpt lat="45.10941" lon="6.09762">
        <ele>2363.7</ele>
        <time>2021-03-10T08:15:54Z</time>
      </trkpt>
      <trkpt lat="45.10941" lon="6.09763">
        <ele>2363.7</ele>
        <time>2021-03-10T08:15:55Z</time>
      </trkpt>
      <trkpt lat="45.10942" lon="6.09764">
        <ele>2363.8</ele>
        <time>2021-03-10T08:15:56Z</time>
      </trkpt>
      <trkpt lat="45.10943" lon="6.09764">
        <ele>2363.8</ele>
        <time>2021-03-10T08:15:57Z</time>
      </trkpt>
      <trkpt lat="45.10943" lon="6.09764">
        <ele>2363.9</ele>
        <time>2021-03-10T08:15:58Z</time>
      </trkpt>
      <trkpt lat="45.10944" lon="6.09765">
        <ele>2364</ele>
        <time>2021-03-10T08:15:59Z</time>
      </trkpt>
      <trkpt lat="45.10945" lon="6.09765">
        <ele>2364</ele>
        <time>2021-03-10T08:16:00Z</time>
      </trkpt>
      <trkpt lat="45.10946" lon="6.09765">
        <ele>2364.1</ele>
        <time>2021-03-10T08:16:01Z</time>
      </trkpt>
      <trkpt lat="45.10948" lon="6.09766">
        <ele>2364.2</ele>
        <time>2021-03-10T08:16:02Z</time>
      </trkpt>
      <trkpt lat="45.10949" lon="6.09767">
        <ele>2364.3</ele>
        <time>2021-03-10T08:16:03Z</time>
      </trkpt>
      <trkpt lat="45.10949" lon="6.09767">
        <ele>2364.3</ele>
        <time>2021-03-10T08:16:04Z</time>
      </trkpt>
      <trkpt lat="45.1095" lon="6.09767">
        <ele>2364.4</ele>
        <time>2021-03-10T08:16:05Z</time>
      </trkpt>
      <trkpt lat="45.10951" lon="6.09768">
        <ele>2364.4</ele>
        <time>2021-03-10T08:16:06Z</time>
      </trkpt>
      <trkpt lat="45.10951" lon="6.09768">
        <ele>2364.5</ele>
        <time>2021-03-10T08:16:07Z</time>
      </trkpt>
      <trkpt lat="45.10952" lon="6.09769">
        <ele>2364.5</ele>
        <time>2021-03-10T08:16:08Z</time>
      </trkpt>
      <trkpt lat="45.10953" lon="6.0977">
        <ele>2364.6</ele>
        <time>2021-03-10T08:16:09Z</time>
      </trkpt>
      <trkpt lat="45.10954" lon="6.0977">
        <ele>2364.7</ele>
        <time>2021-03-10T08:16:10Z</time>
      </trkpt>
      <trkpt lat="45.10955" lon="6.09771">
        <ele>2364.8</ele>
        <time>2021-03-10T08:16:11Z</time>
      </trkpt>
      <trkpt lat="45.10956" lon="6.09772">
        <ele>2364.9</ele>
        <time>2021-03-10T08:16:12Z</time>
      </trkpt>
      <trkpt lat="45.10958" lon="6.09773">
        <ele>2364.9</ele>
        <time>2021-03-10T08:16:13Z</time>
      </trkpt>
      <trkpt lat="45.10958" lon="6.09774">
        <ele>2365</ele>
        <time>2021-03-10T08:16:14Z</time>
      </trkpt>
      <trkpt lat="45.10959" lon="6.09774">
        <ele>2365.1</ele>
        <time>2021-03-10T08:16:15Z</time>
      </trkpt>
      <trkpt lat="45.1096" lon="6.09775">
        <ele>2365.2</ele>
        <time>2021-03-10T08:16:16Z</time>
      </trkpt>
      <trkpt lat="45.10961" lon="6.09776">
        <ele>2365.2</ele>
        <time>2021-03-10T08:16:17Z</time>
      </trkpt>
      <trkpt lat="45.10962" lon="6.09777">
        <ele>2365.3</ele>
        <time>2021-03-10T08:16:18Z</time>
      </trkpt>
      <trkpt lat="45.10964" lon="6.09777">
        <ele>2365.4</ele>
        <time>2021-03-10T08:16:19Z</time>
      </trkpt>
      <trkpt lat="45.10964" lon="6.09778">
        <ele>2365.5</ele>
        <time>2021-03-10T08:16:20Z</time>
      </trkpt>
      <trkpt lat="45.10965" lon="6.09778">
        <ele>2365.5</ele>
        <time>2021-03-10T08:16:21Z</time>
      </trkpt>
      <trkpt lat="45.10966" lon="6.09779">
        <ele>2365.6</ele>
        <time>2021-03-10T08:16:22Z</time>
      </trkpt>
      <trkpt lat="45.10966" lon="6.0978">
        <ele>2365.7</ele>
        <time>2021-03-10T08:16:23Z</time>
      </trkpt>
      <trkpt lat="45.10967" lon="6.0978">
        <ele>2365.7</ele>
        <time>2021-03-10T08:16:24Z</time>
      </trkpt>
      <trkpt lat="45.10968" lon="6.09781">
        <ele>2365.8</ele>
        <time>2021-03-10T08:16:25Z</time>
      </trkpt>
      <trkpt lat="45.10969" lon="6.09782">
        <ele>2365.9</ele>
        <time>2021-03-10T08:16:26Z</time>
      </trkpt>
      <trkpt lat="45.1097" lon="6.09782">
        <ele>2365.9</ele>
        <time>2021-03-10T08:16:27Z</time>
      </trkpt>
      <trkpt lat="45.10971" lon="6.09783">
        <ele>2366</ele>
        <time>2021-03-10T08:16:28Z</time>
      </trkpt>
      <trkpt lat="45.10971" lon="6.09784">
        <ele>2366</ele>
        <time>2021-03-10T08:16:29Z</time>
      </trkpt>
      <trkpt lat="45.10972" lon="6.09784">
        <ele>2366.1</ele>
        <time>2021-03-10T08:16:30Z</time>
      </trkpt>
      <trkpt lat="45.10973" lon="6.09785">
        <ele>2366.2</ele>
        <time>2021-03-10T08:16:31Z</time>
      </trkpt>
      <trkpt lat="45.10974" lon="6.09785">
        <ele>2366.3</ele>
        <time>2021-03-10T08:16:32Z</time>
      </trkpt>
      <trkpt lat="45.10974" lon="6.09786">
        <ele>2366.3</ele>
        <time>2021-03-10T08:16:33Z</time>
      </trkpt>
      <trkpt lat="45.10975" lon="6.09786">
        <ele>2366.4</ele>
        <time>2021-03-10T08:16:34Z</time>
      </trkpt>
      <trkpt lat="45.10976" lon="6.09787">
        <ele>2366.5</ele>
        <time>2021-03-10T08:16:35Z</time>
      </trkpt>
      <trkpt lat="45.10976" lon="6.09788">
        <ele>2366.5</ele>
        <time>2021-03-10T08:16:36Z</time>
      </trkpt>
      <trkpt lat="45.10977" lon="6.09788">
        <ele>2366.6</ele>
        <time>2021-03-10T08:16:37Z</time>
      </trkpt>
      <trkpt lat="45.10978" lon="6.09789">
        <ele>2366.7</ele>
        <time>2021-03-10T08:16:38Z</time>
      </trkpt>
      <trkpt lat="45.10978" lon="6.09789">
        <ele>2366.7</ele>
        <time>2021-03-10T08:16:39Z</time>
      </trkpt>
      <trkpt lat="45.10978" lon="6.09789">
        <ele>2366.7</ele>
        <time>2021-03-10T08:16:40Z</time>
      </trkpt>
      <trkpt lat="45.10978" lon="6.09789">
        <ele>2366.7</ele>
        <time>2021-03-10T08:16:41Z</time>
      </trkpt>
      <trkpt lat="45.10978" lon="6.09789">
        <ele>2366.7</ele>
        <time>2021-03-10T08:16:42Z</time>
      </trkpt>
      <trkpt lat="45.10978" lon="6.09789">
        <ele>2366.7</ele>
        <time>2021-03-10T08:16:43Z</time>
      </trkpt>
      <trkpt lat="45.10978" lon="6.09789">
        <ele>2366.7</ele>
        <time>2021-03-10T08:16:44Z</time>
      </trkpt>
      <trkpt lat="45.10978" lon="6.09789">
        <ele>2366.7</ele>
        <time>2021-03-10T08:16:45Z</time>
      </trkpt>
      <trkpt lat="45.10978" lon="6.09789">
        <ele>2366.7</ele>
        <time>2021-03-10T08:16:46Z</time>
      </trkpt>
      <trkpt lat="45.10978" lon="6.09789">
        <ele>2366.7</ele>
        <time>2021-03-10T08:16:47Z</time>
      </trkpt>
      <trkpt lat="45.10978" lon="6.09789">
        <ele>2366.7</ele>
        <time>2021-03-10T08:16:48Z</time>
      </trkpt>
      <trkpt lat="45.10979" lon="6.0979">
        <ele>2366.8</ele>
        <time>2021-03-10T08:16:54Z</time>
      </trkpt>
      <trkpt lat="45.1098" lon="6.0979">
        <ele>2366.9</ele>
        <time>2021-03-10T08:16:55Z</time>
      </trkpt>
      <trkpt lat="45.10982" lon="6.09791">
        <ele>2367</ele>
        <time>2021-03-10T08:16:56Z</time>
      </trkpt>
      <trkpt lat="45.10983" lon="6.09791">
        <ele>2367.1</ele>
        <time>2021-03-10T08:16:57Z</time>
      </trkpt>
      <trkpt lat="45.10984" lon="6.09792">
        <ele>2367.2</ele>
        <time>2021-03-10T08:16:58Z</time>
      </trkpt>
      <trkpt lat="45.10984" lon="6.09792">
        <ele>2367.3</ele>
        <time>2021-03-10T08:16:59Z</time>
      </trkpt>
      <trkpt lat="45.10985" lon="6.09792">
        <ele>2367.4</ele>
        <time>2021-03-10T08:17:00Z</time>
      </trkpt>
      <trkpt lat="45.10986" lon="6.09793">
        <ele>2367.4</ele>
        <time>2021-03-10T08:17:01Z</time>
      </trkpt>
      <trkpt lat="45.10987" lon="6.09793">
        <ele>2367.5</ele>
        <time>2021-03-10T08:17:02Z</time>
      </trkpt>
      <trkpt lat="45.10988" lon="6.09794">
        <ele>2367.6</ele>
        <time>2021-03-10T08:17:03Z</time>
      </trkpt>
      <trkpt lat="45.10989" lon="6.09794">
        <ele>2367.7</ele>
        <time>2021-03-10T08:17:04Z</time>
      </trkpt>
      <trkpt lat="45.10989" lon="6.09794">
        <ele>2367.8</ele>
        <time>2021-03-10T08:17:05Z</time>
      </trkpt>
      <trkpt lat="45.1099" lon="6.09795">
        <ele>2367.8</ele>
        <time>2021-03-10T08:17:06Z</time>
      </trkpt>
      <trkpt lat="45.10991" lon="6.09795">
        <ele>2367.9</ele>
        <time>2021-03-10T08:17:07Z</time>
      </trkpt>
      <trkpt lat="45.10992" lon="6.09795">
        <ele>2367.9</ele>
        <time>2021-03-10T08:17:08Z</time>
      </trkpt>
      <trkpt lat="45.10992" lon="6.09795">
        <ele>2368</ele>
        <time>2021-03-10T08:17:09Z</time>
      </trkpt>
      <trkpt lat="45.10993" lon="6.09795">
        <ele>2368</ele>
        <time>2021-03-10T08:17:10Z</time>
      </trkpt>
      <trkpt lat="45.10993" lon="6.09795">
        <ele>2368.1</ele>
        <time>2021-03-10T08:17:11Z</time>
      </trkpt>
      <trkpt lat="45.10994" lon="6.09795">
        <ele>2368.2</ele>
        <time>2021-03-10T08:17:12Z</time>
      </trkpt>
      <trkpt lat="45.10995" lon="6.09796">
        <ele>2368.3</ele>
        <time>2021-03-10T08:17:13Z</time>
      </trkpt>
      <trkpt lat="45.10996" lon="6.09796">
        <ele>2368.4</ele>
        <time>2021-03-10T08:17:14Z</time>
      </trkpt>
      <trkpt lat="45.10997" lon="6.09796">
        <ele>2368.4</ele>
        <time>2021-03-10T08:17:15Z</time>
      </trkpt>
      <trkpt lat="45.10998" lon="6.09797">
        <ele>2368.5</ele>
        <time>2021-03-10T08:17:16Z</time>
      </trkpt>
      <trkpt lat="45.10998" lon="6.09797">
        <ele>2368.6</ele>
        <time>2021-03-10T08:17:17Z</time>
      </trkpt>
      <trkpt lat="45.10999" lon="6.09797">
        <ele>2368.6</ele>
        <time>2021-03-10T08:17:18Z</time>
      </trkpt>
      <trkpt lat="45.11" lon="6.09798">
        <ele>2368.7</ele>
        <time>2021-03-10T08:17:19Z</time>
      </trkpt>
      <trkpt lat="45.11001" lon="6.09798">
        <ele>2368.8</ele>
        <time>2021-03-10T08:17:20Z</time>
      </trkpt>
      <trkpt lat="45.11002" lon="6.09799">
        <ele>2368.9</ele>
        <time>2021-03-10T08:17:21Z</time>
      </trkpt>
      <trkpt lat="45.11003" lon="6.09799">
        <ele>2369</ele>
        <time>2021-03-10T08:17:22Z</time>
      </trkpt>
      <trkpt lat="45.11004" lon="6.098">
        <ele>2369.1</ele>
        <time>2021-03-10T08:17:23Z</time>
      </trkpt>
      <trkpt lat="45.11005" lon="6.098">
        <ele>2369.2</ele>
        <time>2021-03-10T08:17:24Z</time>
      </trkpt>
      <trkpt lat="45.11006" lon="6.09801">
        <ele>2369.3</ele>
        <time>2021-03-10T08:17:25Z</time>
      </trkpt>
      <trkpt lat="45.11007" lon="6.09801">
        <ele>2369.4</ele>
        <time>2021-03-10T08:17:26Z</time>
      </trkpt>
      <trkpt lat="45.11008" lon="6.09802">
        <ele>2369.4</ele>
        <time>2021-03-10T08:17:27Z</time>
      </trkpt>
      <trkpt lat="45.11009" lon="6.09802">
        <ele>2369.5</ele>
        <time>2021-03-10T08:17:28Z</time>
      </trkpt>
      <trkpt lat="45.1101" lon="6.09803">
        <ele>2369.6</ele>
        <time>2021-03-10T08:17:29Z</time>
      </trkpt>
      <trkpt lat="45.1101" lon="6.09803">
        <ele>2369.7</ele>
        <time>2021-03-10T08:17:30Z</time>
      </trkpt>
      <trkpt lat="45.11012" lon="6.09804">
        <ele>2369.8</ele>
        <time>2021-03-10T08:17:31Z</time>
      </trkpt>
      <trkpt lat="45.11013" lon="6.09804">
        <ele>2369.9</ele>
        <time>2021-03-10T08:17:32Z</time>
      </trkpt>
      <trkpt lat="45.11014" lon="6.09804">
        <ele>2370</ele>
        <time>2021-03-10T08:17:33Z</time>
      </trkpt>
      <trkpt lat="45.11014" lon="6.09804">
        <ele>2370.1</ele>
        <time>2021-03-10T08:17:34Z</time>
      </trkpt>
      <trkpt lat="45.11015" lon="6.09804">
        <ele>2370.1</ele>
        <time>2021-03-10T08:17:35Z</time>
      </trkpt>
      <trkpt lat="45.11016" lon="6.09804">
        <ele>2370.2</ele>
        <time>2021-03-10T08:17:36Z</time>
      </trkpt>
      <trkpt lat="45.11016" lon="6.09804">
        <ele>2370.2</ele>
        <time>2021-03-10T08:17:37Z</time>
      </trkpt>
      <trkpt lat="45.11017" lon="6.09804">
        <ele>2370.3</ele>
        <time>2021-03-10T08:17:38Z</time>
      </trkpt>
      <trkpt lat="45.11017" lon="6.09804">
        <ele>2370.3</ele>
        <time>2021-03-10T08:17:39Z</time>
      </trkpt>
      <trkpt lat="45.11018" lon="6.09805">
        <ele>2370.4</ele>
        <time>2021-03-10T08:17:40Z</time>
      </trkpt>
      <trkpt lat="45.11019" lon="6.09805">
        <ele>2370.5</ele>
        <time>2021-03-10T08:17:41Z</time>
      </trkpt>
      <trkpt lat="45.1102" lon="6.09805">
        <ele>2370.6</ele>
        <time>2021-03-10T08:17:42Z</time>
      </trkpt>
      <trkpt lat="45.11021" lon="6.09806">
        <ele>2370.7</ele>
        <time>2021-03-10T08:17:43Z</time>
      </trkpt>
      <trkpt lat="45.11022" lon="6.09807">
        <ele>2370.8</ele>
        <time>2021-03-10T08:17:44Z</time>
      </trkpt>
      <trkpt lat="45.11023" lon="6.09807">
        <ele>2370.9</ele>
        <time>2021-03-10T08:17:45Z</time>
      </trkpt>
      <trkpt lat="45.11024" lon="6.09808">
        <ele>2371</ele>
        <time>2021-03-10T08:17:46Z</time>
      </trkpt>
      <trkpt lat="45.11025" lon="6.09808">
        <ele>2371</ele>
        <time>2021-03-10T08:17:47Z</time>
      </trkpt>
      <trkpt lat="45.11027" lon="6.09809">
        <ele>2371.2</ele>
        <time>2021-03-10T08:17:48Z</time>
      </trkpt>
      <trkpt lat="45.11028" lon="6.09809">
        <ele>2371.3</ele>
        <time>2021-03-10T08:17:49Z</time>
      </trkpt>
      <trkpt lat="45.11029" lon="6.0981">
        <ele>2371.4</ele>
        <time>2021-03-10T08:17:50Z</time>
      </trkpt>
      <trkpt lat="45.11031" lon="6.09811">
        <ele>2371.5</ele>
        <time>2021-03-10T08:17:51Z</time>
      </trkpt>
      <trkpt lat="45.11032" lon="6.09811">
        <ele>2371.6</ele>
        <time>2021-03-10T08:17:52Z</time>
      </trkpt>
      <trkpt lat="45.11033" lon="6.09811">
        <ele>2371.7</ele>
        <time>2021-03-10T08:17:53Z</time>
      </trkpt>
      <trkpt lat="45.11034" lon="6.09812">
        <ele>2371.8</ele>
        <time>2021-03-10T08:17:54Z</time>
      </trkpt>
      <trkpt lat="45.11035" lon="6.09813">
        <ele>2371.9</ele>
        <time>2021-03-10T08:17:55Z</time>
      </trkpt>
      <trkpt lat="45.11035" lon="6.09813">
        <ele>2371.9</ele>
        <time>2021-03-10T08:17:56Z</time>
      </trkpt>
      <trkpt lat="45.11036" lon="6.09814">
        <ele>2372</ele>
        <time>2021-03-10T08:17:57Z</time>
      </trkpt>
      <trkpt lat="45.11037" lon="6.09814">
        <ele>2372</ele>
        <time>2021-03-10T08:17:58Z</time>
      </trkpt>
      <trkpt lat="45.11037" lon="6.09814">
        <ele>2372.1</ele>
        <time>2021-03-10T08:17:59Z</time>
      </trkpt>
      <trkpt lat="45.11039" lon="6.09814">
        <ele>2372.2</ele>
        <time>2021-03-10T08:18:00Z</time>
      </trkpt>
      <trkpt lat="45.1104" lon="6.09815">
        <ele>2372.4</ele>
        <time>2021-03-10T08:18:01Z</time>
      </trkpt>
      <trkpt lat="45.11042" lon="6.09815">
        <ele>2372.5</ele>
        <time>2021-03-10T08:18:02Z</time>
      </trkpt>
      <trkpt lat="45.11043" lon="6.09816">
        <ele>2372.6</ele>
        <time>2021-03-10T08:18:03Z</time>
      </trkpt>
      <trkpt lat="45.11044" lon="6.09816">
        <ele>2372.7</ele>
        <time>2021-03-10T08:18:04Z</time>
      </trkpt>
      <trkpt lat="45.11045" lon="6.09817">
        <ele>2372.8</ele>
        <time>2021-03-10T08:18:05Z</time>
      </trkpt>
      <trkpt lat="45.11046" lon="6.09817">
        <ele>2372.9</ele>
        <time>2021-03-10T08:18:06Z</time>
      </trkpt>
      <trkpt lat="45.11047" lon="6.09817">
        <ele>2372.9</ele>
        <time>2021-03-10T08:18:07Z</time>
      </trkpt>
      <trkpt lat="45.11047" lon="6.09818">
        <ele>2373</ele>
        <time>2021-03-10T08:18:08Z</time>
      </trkpt>
      <trkpt lat="45.11048" lon="6.09818">
        <ele>2373.1</ele>
        <time>2021-03-10T08:18:09Z</time>
      </trkpt>
      <trkpt lat="45.11048" lon="6.09818">
        <ele>2373.1</ele>
        <time>2021-03-10T08:18:10Z</time>
      </trkpt>
      <trkpt lat="45.11049" lon="6.09819">
        <ele>2373.2</ele>
        <time>2021-03-10T08:18:11Z</time>
      </trkpt>
      <trkpt lat="45.11049" lon="6.09819">
        <ele>2373.2</ele>
        <time>2021-03-10T08:18:12Z</time>
      </trkpt>
      <trkpt lat="45.1105" lon="6.09819">
        <ele>2373.3</ele>
        <time>2021-03-10T08:18:13Z</time>
      </trkpt>
      <trkpt lat="45.11051" lon="6.0982">
        <ele>2373.4</ele>
        <time>2021-03-10T08:18:14Z</time>
      </trkpt>
      <trkpt lat="45.11052" lon="6.0982">
        <ele>2373.5</ele>
        <time>2021-03-10T08:18:15Z</time>
      </trkpt>
      <trkpt lat="45.11053" lon="6.09821">
        <ele>2373.6</ele>
        <time>2021-03-10T08:18:16Z</time>
      </trkpt>
      <trkpt lat="45.11054" lon="6.09821">
        <ele>2373.7</ele>
        <time>2021-03-10T08:18:17Z</time>
      </trkpt>
      <trkpt lat="45.11055" lon="6.09821">
        <ele>2373.8</ele>
        <time>2021-03-10T08:18:18Z</time>
      </trkpt>
      <trkpt lat="45.11056" lon="6.09822">
        <ele>2373.8</ele>
        <time>2021-03-10T08:18:19Z</time>
      </trkpt>
      <trkpt lat="45.11057" lon="6.09822">
        <ele>2373.9</ele>
        <time>2021-03-10T08:18:20Z</time>
      </trkpt>
      <trkpt lat="45.11057" lon="6.09822">
        <ele>2374</ele>
        <time>2021-03-10T08:18:21Z</time>
      </trkpt>
      <trkpt lat="45.11058" lon="6.09823">
        <ele>2374</ele>
        <time>2021-03-10T08:18:22Z</time>
      </trkpt>
      <trkpt lat="45.11059" lon="6.09823">
        <ele>2374.1</ele>
        <time>2021-03-10T08:18:23Z</time>
      </trkpt>
      <trkpt lat="45.1106" lon="6.09824">
        <ele>2374.2</ele>
        <time>2021-03-10T08:18:24Z</time>
      </trkpt>
      <trkpt lat="45.11061" lon="6.09824">
        <ele>2374.3</ele>
        <time>2021-03-10T08:18:25Z</time>
      </trkpt>
      <trkpt lat="45.11061" lon="6.09825">
        <ele>2374.4</ele>
        <time>2021-03-10T08:18:26Z</time>
      </trkpt>
      <trkpt lat="45.11062" lon="6.09825">
        <ele>2374.4</ele>
        <time>2021-03-10T08:18:27Z</time>
      </trkpt>
      <trkpt lat="45.11063" lon="6.09826">
        <ele>2374.5</ele>
        <time>2021-03-10T08:18:28Z</time>
      </trkpt>
      <trkpt lat="45.11065" lon="6.09826">
        <ele>2374.6</ele>
        <time>2021-03-10T08:18:29Z</time>
      </trkpt>
      <trkpt lat="45.11065" lon="6.09826">
        <ele>2374.7</ele>
        <time>2021-03-10T08:18:30Z</time>
      </trkpt>
      <trkpt lat="45.11066" lon="6.09827">
        <ele>2374.8</ele>
        <time>2021-03-10T08:18:31Z</time>
      </trkpt>
      <trkpt lat="45.11067" lon="6.09828">
        <ele>2374.9</ele>
        <time>2021-03-10T08:18:32Z</time>
      </trkpt>
      <trkpt lat="45.11068" lon="6.09828">
        <ele>2375</ele>
        <time>2021-03-10T08:18:33Z</time>
      </trkpt>
      <trkpt lat="45.11069" lon="6.09829">
        <ele>2375.1</ele>
        <time>2021-03-10T08:18:34Z</time>
      </trkpt>
      <trkpt lat="45.1107" lon="6.09829">
        <ele>2375.2</ele>
        <time>2021-03-10T08:18:35Z</time>
      </trkpt>
      <trkpt lat="45.11071" lon="6.0983">
        <ele>2375.3</ele>
        <time>2021-03-10T08:18:36Z</time>
      </trkpt>
      <trkpt lat="45.11072" lon="6.0983">
        <ele>2375.4</ele>
        <time>2021-03-10T08:18:37Z</time>
      </trkpt>
      <trkpt lat="45.11074" lon="6.09831">
        <ele>2375.5</ele>
        <time>2021-03-10T08:18:38Z</time>
      </trkpt>
      <trkpt lat="45.11074" lon="6.09831">
        <ele>2375.6</ele>
        <time>2021-03-10T08:18:39Z</time>
      </trkpt>
      <trkpt lat="45.11075" lon="6.09832">
        <ele>2375.7</ele>
        <time>2021-03-10T08:18:40Z</time>
      </trkpt>
      <trkpt lat="45.11075" lon="6.09832">
        <ele>2375.8</ele>
        <time>2021-03-10T08:18:41Z</time>
      </trkpt>
      <trkpt lat="45.11076" lon="6.09833">
        <ele>2375.8</ele>
        <time>2021-03-10T08:18:42Z</time>
      </trkpt>
      <trkpt lat="45.11077" lon="6.09833">
        <ele>2375.9</ele>
        <time>2021-03-10T08:18:43Z</time>
      </trkpt>
      <trkpt lat="45.11078" lon="6.09834">
        <ele>2376</ele>
        <time>2021-03-10T08:18:44Z</time>
      </trkpt>
      <trkpt lat="45.11079" lon="6.09834">
        <ele>2376.1</ele>
        <time>2021-03-10T08:18:45Z</time>
      </trkpt>
      <trkpt lat="45.11079" lon="6.09835">
        <ele>2376.2</ele>
        <time>2021-03-10T08:18:46Z</time>
      </trkpt>
      <trkpt lat="45.1108" lon="6.09835">
        <ele>2376.3</ele>
        <time>2021-03-10T08:18:47Z</time>
      </trkpt>
      <trkpt lat="45.11081" lon="6.09835">
        <ele>2376.4</ele>
        <time>2021-03-10T08:18:48Z</time>
      </trkpt>
      <trkpt lat="45.11082" lon="6.09836">
        <ele>2376.5</ele>
        <time>2021-03-10T08:18:49Z</time>
      </trkpt>
      <trkpt lat="45.11083" lon="6.09836">
        <ele>2376.6</ele>
        <time>2021-03-10T08:18:50Z</time>
      </trkpt>
      <trkpt lat="45.11084" lon="6.09836">
        <ele>2376.7</ele>
        <time>2021-03-10T08:18:51Z</time>
      </trkpt>
      <trkpt lat="45.11085" lon="6.09836">
        <ele>2376.8</ele>
        <time>2021-03-10T08:18:52Z</time>
      </trkpt>
      <trkpt lat="45.11086" lon="6.09836">
        <ele>2376.9</ele>
        <time>2021-03-10T08:18:53Z</time>
      </trkpt>
      <trkpt lat="45.11087" lon="6.09836">
        <ele>2377</ele>
        <time>2021-03-10T08:18:54Z</time>
      </trkpt>
      <trkpt lat="45.11088" lon="6.09836">
        <ele>2377.1</ele>
        <time>2021-03-10T08:18:55Z</time>
      </trkpt>
      <trkpt lat="45.11089" lon="6.09836">
        <ele>2377.2</ele>
        <time>2021-03-10T08:18:56Z</time>
      </trkpt>
      <trkpt lat="45.1109" lon="6.09836">
        <ele>2377.2</ele>
        <time>2021-03-10T08:18:57Z</time>
      </trkpt>
      <trkpt lat="45.1109" lon="6.09836">
        <ele>2377.3</ele>
        <time>2021-03-10T08:18:58Z</time>
      </trkpt>
      <trkpt lat="45.11091" lon="6.09837">
        <ele>2377.4</ele>
        <time>2021-03-10T08:18:59Z</time>
      </trkpt>
      <trkpt lat="45.11092" lon="6.09837">
        <ele>2377.5</ele>
        <time>2021-03-10T08:19:00Z</time>
      </trkpt>
      <trkpt lat="45.11093" lon="6.09837">
        <ele>2377.6</ele>
        <time>2021-03-10T08:19:01Z</time>
      </trkpt>
      <trkpt lat="45.11094" lon="6.09837">
        <ele>2377.7</ele>
        <time>2021-03-10T08:19:02Z</time>
      </trkpt>
      <trkpt lat="45.11095" lon="6.09838">
        <ele>2377.8</ele>
        <time>2021-03-10T08:19:03Z</time>
      </trkpt>
      <trkpt lat="45.11096" lon="6.09838">
        <ele>2377.9</ele>
        <time>2021-03-10T08:19:04Z</time>
      </trkpt>
      <trkpt lat="45.11096" lon="6.09838">
        <ele>2377.9</ele>
        <time>2021-03-10T08:19:05Z</time>
      </trkpt>
      <trkpt lat="45.11097" lon="6.09838">
        <ele>2378</ele>
        <time>2021-03-10T08:19:06Z</time>
      </trkpt>
      <trkpt lat="45.11098" lon="6.09839">
        <ele>2378.1</ele>
        <time>2021-03-10T08:19:07Z</time>
      </trkpt>
      <trkpt lat="45.11099" lon="6.0984">
        <ele>2378.2</ele>
        <time>2021-03-10T08:19:08Z</time>
      </trkpt>
      <trkpt lat="45.111" lon="6.0984">
        <ele>2378.3</ele>
        <time>2021-03-10T08:19:09Z</time>
      </trkpt>
      <trkpt lat="45.11101" lon="6.0984">
        <ele>2378.4</ele>
        <time>2021-03-10T08:19:10Z</time>
      </trkpt>
      <trkpt lat="45.11101" lon="6.09841">
        <ele>2378.5</ele>
        <time>2021-03-10T08:19:11Z</time>
      </trkpt>
      <trkpt lat="45.11102" lon="6.09841">
        <ele>2378.6</ele>
        <time>2021-03-10T08:19:12Z</time>
      </trkpt>
      <trkpt lat="45.11103" lon="6.09842">
        <ele>2378.7</ele>
        <time>2021-03-10T08:19:13Z</time>
      </trkpt>
      <trkpt lat="45.11104" lon="6.09842">
        <ele>2378.8</ele>
        <time>2021-03-10T08:19:14Z</time>
      </trkpt>
      <trkpt lat="45.11105" lon="6.09842">
        <ele>2378.9</ele>
        <time>2021-03-10T08:19:15Z</time>
      </trkpt>
      <trkpt lat="45.11106" lon="6.09843">
        <ele>2379</ele>
        <time>2021-03-10T08:19:16Z</time>
      </trkpt>
      <trkpt lat="45.11107" lon="6.09843">
        <ele>2379.1</ele>
        <time>2021-03-10T08:19:17Z</time>
      </trkpt>
      <trkpt lat="45.11108" lon="6.09844">
        <ele>2379.2</ele>
        <time>2021-03-10T08:19:18Z</time>
      </trkpt>
      <trkpt lat="45.11109" lon="6.09844">
        <ele>2379.3</ele>
        <time>2021-03-10T08:19:19Z</time>
      </trkpt>
      <trkpt lat="45.1111" lon="6.09845">
        <ele>2379.4</ele>
        <time>2021-03-10T08:19:20Z</time>
      </trkpt>
      <trkpt lat="45.11111" lon="6.09845">
        <ele>2379.5</ele>
        <time>2021-03-10T08:19:21Z</time>
      </trkpt>
      <trkpt lat="45.11111" lon="6.09846">
        <ele>2379.6</ele>
        <time>2021-03-10T08:19:22Z</time>
      </trkpt>
      <trkpt lat="45.11112" lon="6.09846">
        <ele>2379.6</ele>
        <time>2021-03-10T08:19:23Z</time>
      </trkpt>
      <trkpt lat="45.11112" lon="6.09847">
        <ele>2379.8</ele>
        <time>2021-03-10T08:19:24Z</time>
      </trkpt>
      <trkpt lat="45.11113" lon="6.09848">
        <ele>2379.8</ele>
        <time>2021-03-10T08:19:25Z</time>
      </trkpt>
      <trkpt lat="45.11114" lon="6.09848">
        <ele>2379.9</ele>
        <time>2021-03-10T08:19:26Z</time>
      </trkpt>
      <trkpt lat="45.11115" lon="6.09849">
        <ele>2380</ele>
        <time>2021-03-10T08:19:27Z</time>
      </trkpt>
      <trkpt lat="45.11116" lon="6.0985">
        <ele>2380.1</ele>
        <time>2021-03-10T08:19:28Z</time>
      </trkpt>
      <trkpt lat="45.11117" lon="6.0985">
        <ele>2380.3</ele>
        <time>2021-03-10T08:19:29Z</time>
      </trkpt>
      <trkpt lat="45.11118" lon="6.09851">
        <ele>2380.4</ele>
        <time>2021-03-10T08:19:30Z</time>
      </trkpt>
      <trkpt lat="45.11119" lon="6.09851">
        <ele>2380.5</ele>
        <time>2021-03-10T08:19:31Z</time>
      </trkpt>
      <trkpt lat="45.1112" lon="6.09852">
        <ele>2380.6</ele>
        <time>2021-03-10T08:19:32Z</time>
      </trkpt>
      <trkpt lat="45.1112" lon="6.09852">
        <ele>2380.7</ele>
        <time>2021-03-10T08:19:33Z</time>
      </trkpt>
      <trkpt lat="45.11121" lon="6.09853">
        <ele>2380.8</ele>
        <time>2021-03-10T08:19:34Z</time>
      </trkpt>
      <trkpt lat="45.11122" lon="6.09853">
        <ele>2380.9</ele>
        <time>2021-03-10T08:19:35Z</time>
      </trkpt>
      <trkpt lat="45.11123" lon="6.09854">
        <ele>2381</ele>
        <time>2021-03-10T08:19:36Z</time>
      </trkpt>
      <trkpt lat="45.11124" lon="6.09854">
        <ele>2381.1</ele>
        <time>2021-03-10T08:19:37Z</time>
      </trkpt>
      <trkpt lat="45.11125" lon="6.09855">
        <ele>2381.3</ele>
        <time>2021-03-10T08:19:38Z</time>
      </trkpt>
      <trkpt lat="45.11126" lon="6.09855">
        <ele>2381.4</ele>
        <time>2021-03-10T08:19:39Z</time>
      </trkpt>
      <trkpt lat="45.11127" lon="6.09856">
        <ele>2381.5</ele>
        <time>2021-03-10T08:19:40Z</time>
      </trkpt>
      <trkpt lat="45.11128" lon="6.09856">
        <ele>2381.6</ele>
        <time>2021-03-10T08:19:41Z</time>
      </trkpt>
      <trkpt lat="45.11129" lon="6.09857">
        <ele>2381.8</ele>
        <time>2021-03-10T08:19:42Z</time>
      </trkpt>
      <trkpt lat="45.1113" lon="6.09858">
        <ele>2381.9</ele>
        <time>2021-03-10T08:19:43Z</time>
      </trkpt>
      <trkpt lat="45.11131" lon="6.09858">
        <ele>2382</ele>
        <time>2021-03-10T08:19:44Z</time>
      </trkpt>
      <trkpt lat="45.11132" lon="6.09859">
        <ele>2382.1</ele>
        <time>2021-03-10T08:19:45Z</time>
      </trkpt>
      <trkpt lat="45.11133" lon="6.09859">
        <ele>2382.2</ele>
        <time>2021-03-10T08:19:46Z</time>
      </trkpt>
      <trkpt lat="45.11134" lon="6.09859">
        <ele>2382.3</ele>
        <time>2021-03-10T08:19:47Z</time>
      </trkpt>
      <trkpt lat="45.11135" lon="6.0986">
        <ele>2382.4</ele>
        <time>2021-03-10T08:19:48Z</time>
      </trkpt>
      <trkpt lat="45.11136" lon="6.0986">
        <ele>2382.5</ele>
        <time>2021-03-10T08:19:49Z</time>
      </trkpt>
      <trkpt lat="45.11137" lon="6.09861">
        <ele>2382.7</ele>
        <time>2021-03-10T08:19:50Z</time>
      </trkpt>
      <trkpt lat="45.11138" lon="6.09861">
        <ele>2382.8</ele>
        <time>2021-03-10T08:19:51Z</time>
      </trkpt>
      <trkpt lat="45.11139" lon="6.09861">
        <ele>2382.9</ele>
        <time>2021-03-10T08:19:52Z</time>
      </trkpt>
      <trkpt lat="45.11139" lon="6.09862">
        <ele>2383</ele>
        <time>2021-03-10T08:19:53Z</time>
      </trkpt>
      <trkpt lat="45.1114" lon="6.09862">
        <ele>2383.1</ele>
        <time>2021-03-10T08:19:54Z</time>
      </trkpt>
      <trkpt lat="45.11141" lon="6.09863">
        <ele>2383.2</ele>
        <time>2021-03-10T08:19:55Z</time>
      </trkpt>
      <trkpt lat="45.11142" lon="6.09863">
        <ele>2383.3</ele>
        <time>2021-03-10T08:19:56Z</time>
      </trkpt>
      <trkpt lat="45.11143" lon="6.09864">
        <ele>2383.5</ele>
        <time>2021-03-10T08:19:57Z</time>
      </trkpt>
      <trkpt lat="45.11144" lon="6.09864">
        <ele>2383.6</ele>
        <time>2021-03-10T08:19:58Z</time>
      </trkpt>
      <trkpt lat="45.11146" lon="6.09865">
        <ele>2383.8</ele>
        <time>2021-03-10T08:19:59Z</time>
      </trkpt>
      <trkpt lat="45.11146" lon="6.09866">
        <ele>2383.9</ele>
        <time>2021-03-10T08:20:00Z</time>
      </trkpt>
      <trkpt lat="45.11147" lon="6.09866">
        <ele>2384</ele>
        <time>2021-03-10T08:20:01Z</time>
      </trkpt>
      <trkpt lat="45.11148" lon="6.09867">
        <ele>2384.1</ele>
        <time>2021-03-10T08:20:02Z</time>
      </trkpt>
      <trkpt lat="45.11149" lon="6.09867">
        <ele>2384.2</ele>
        <time>2021-03-10T08:20:03Z</time>
      </trkpt>
      <trkpt lat="45.1115" lon="6.09868">
        <ele>2384.3</ele>
        <time>2021-03-10T08:20:04Z</time>
      </trkpt>
      <trkpt lat="45.11151" lon="6.09868">
        <ele>2384.4</ele>
        <time>2021-03-10T08:20:05Z</time>
      </trkpt>
      <trkpt lat="45.11151" lon="6.09868">
        <ele>2384.5</ele>
        <time>2021-03-10T08:20:06Z</time>
      </trkpt>
      <trkpt lat="45.11153" lon="6.09869">
        <ele>2384.7</ele>
        <time>2021-03-10T08:20:07Z</time>
      </trkpt>
      <trkpt lat="45.11154" lon="6.09869">
        <ele>2384.8</ele>
        <time>2021-03-10T08:20:08Z</time>
      </trkpt>
      <trkpt lat="45.11154" lon="6.0987">
        <ele>2384.8</ele>
        <time>2021-03-10T08:20:09Z</time>
      </trkpt>
      <trkpt lat="45.11155" lon="6.0987">
        <ele>2384.9</ele>
        <time>2021-03-10T08:20:10Z</time>
      </trkpt>
      <trkpt lat="45.11156" lon="6.09871">
        <ele>2385</ele>
        <time>2021-03-10T08:20:11Z</time>
      </trkpt>
      <trkpt lat="45.11157" lon="6.09871">
        <ele>2385.1</ele>
        <time>2021-03-10T08:20:12Z</time>
      </trkpt>
      <trkpt lat="45.11157" lon="6.09871">
        <ele>2385.2</ele>
        <time>2021-03-10T08:20:13Z</time>
      </trkpt>
      <trkpt lat="45.11158" lon="6.09872">
        <ele>2385.3</ele>
        <time>2021-03-10T08:20:14Z</time>
      </trkpt>
      <trkpt lat="45.11159" lon="6.09872">
        <ele>2385.4</ele>
        <time>2021-03-10T08:20:15Z</time>
      </trkpt>
      <trkpt lat="45.1116" lon="6.09872">
        <ele>2385.5</ele>
        <time>2021-03-10T08:20:16Z</time>
      </trkpt>
      <trkpt lat="45.11161" lon="6.09873">
        <ele>2385.6</ele>
        <time>2021-03-10T08:20:17Z</time>
      </trkpt>
      <trkpt lat="45.11161" lon="6.09873">
        <ele>2385.7</ele>
        <time>2021-03-10T08:20:18Z</time>
      </trkpt>
      <trkpt lat="45.11162" lon="6.09873">
        <ele>2385.8</ele>
        <time>2021-03-10T08:20:19Z</time>
      </trkpt>
      <trkpt lat="45.11163" lon="6.09874">
        <ele>2385.9</ele>
        <time>2021-03-10T08:20:20Z</time>
      </trkpt>
      <trkpt lat="45.11165" lon="6.09875">
        <ele>2386.1</ele>
        <time>2021-03-10T08:20:21Z</time>
      </trkpt>
      <trkpt lat="45.11166" lon="6.09875">
        <ele>2386.2</ele>
        <time>2021-03-10T08:20:22Z</time>
      </trkpt>
      <trkpt lat="45.11166" lon="6.09875">
        <ele>2386.3</ele>
        <time>2021-03-10T08:20:23Z</time>
      </trkpt>
      <trkpt lat="45.11167" lon="6.09876">
        <ele>2386.4</ele>
        <time>2021-03-10T08:20:24Z</time>
      </trkpt>
      <trkpt lat="45.11168" lon="6.09876">
        <ele>2386.5</ele>
        <time>2021-03-10T08:20:25Z</time>
      </trkpt>
      <trkpt lat="45.11169" lon="6.09876">
        <ele>2386.6</ele>
        <time>2021-03-10T08:20:26Z</time>
      </trkpt>
      <trkpt lat="45.1117" lon="6.09876">
        <ele>2386.7</ele>
        <time>2021-03-10T08:20:27Z</time>
      </trkpt>
      <trkpt lat="45.11171" lon="6.09877">
        <ele>2386.9</ele>
        <time>2021-03-10T08:20:28Z</time>
      </trkpt>
      <trkpt lat="45.11172" lon="6.09877">
        <ele>2387</ele>
        <time>2021-03-10T08:20:29Z</time>
      </trkpt>
      <trkpt lat="45.11173" lon="6.09878">
        <ele>2387.1</ele>
        <time>2021-03-10T08:20:30Z</time>
      </trkpt>
      <trkpt lat="45.11174" lon="6.09878">
        <ele>2387.2</ele>
        <time>2021-03-10T08:20:31Z</time>
      </trkpt>
      <trkpt lat="45.11174" lon="6.09878">
        <ele>2387.3</ele>
        <time>2021-03-10T08:20:32Z</time>
      </trkpt>
      <trkpt lat="45.11175" lon="6.09879">
        <ele>2387.4</ele>
        <time>2021-03-10T08:20:33Z</time>
      </trkpt>
      <trkpt lat="45.11176" lon="6.09879">
        <ele>2387.5</ele>
        <time>2021-03-10T08:20:34Z</time>
      </trkpt>
      <trkpt lat="45.11177" lon="6.09879">
        <ele>2387.6</ele>
        <time>2021-03-10T08:20:35Z</time>
      </trkpt>
      <trkpt lat="45.11178" lon="6.0988">
        <ele>2387.7</ele>
        <time>2021-03-10T08:20:36Z</time>
      </trkpt>
      <trkpt lat="45.11178" lon="6.0988">
        <ele>2387.7</ele>
        <time>2021-03-10T08:20:37Z</time>
      </trkpt>
      <trkpt lat="45.11179" lon="6.0988">
        <ele>2387.8</ele>
        <time>2021-03-10T08:20:38Z</time>
      </trkpt>
      <trkpt lat="45.1118" lon="6.0988">
        <ele>2387.9</ele>
        <time>2021-03-10T08:20:39Z</time>
      </trkpt>
      <trkpt lat="45.11181" lon="6.0988">
        <ele>2388.1</ele>
        <time>2021-03-10T08:20:40Z</time>
      </trkpt>
      <trkpt lat="45.11182" lon="6.09881">
        <ele>2388.2</ele>
        <time>2021-03-10T08:20:41Z</time>
      </trkpt>
      <trkpt lat="45.11183" lon="6.09881">
        <ele>2388.3</ele>
        <time>2021-03-10T08:20:42Z</time>
      </trkpt>
      <trkpt lat="45.11184" lon="6.09881">
        <ele>2388.4</ele>
        <time>2021-03-10T08:20:43Z</time>
      </trkpt>
      <trkpt lat="45.11185" lon="6.09881">
        <ele>2388.5</ele>
        <time>2021-03-10T08:20:44Z</time>
      </trkpt>
      <trkpt lat="45.11185" lon="6.09881">
        <ele>2388.6</ele>
        <time>2021-03-10T08:20:45Z</time>
      </trkpt>
      <trkpt lat="45.11186" lon="6.09882">
        <ele>2388.7</ele>
        <time>2021-03-10T08:20:46Z</time>
      </trkpt>
      <trkpt lat="45.11187" lon="6.09882">
        <ele>2388.8</ele>
        <time>2021-03-10T08:20:47Z</time>
      </trkpt>
      <trkpt lat="45.11188" lon="6.09882">
        <ele>2388.9</ele>
        <time>2021-03-10T08:20:48Z</time>
      </trkpt>
      <trkpt lat="45.11189" lon="6.09882">
        <ele>2389</ele>
        <time>2021-03-10T08:20:49Z</time>
      </trkpt>
      <trkpt lat="45.1119" lon="6.09883">
        <ele>2389.1</ele>
        <time>2021-03-10T08:20:50Z</time>
      </trkpt>
      <trkpt lat="45.1119" lon="6.09883">
        <ele>2389.2</ele>
        <time>2021-03-10T08:20:51Z</time>
      </trkpt>
      <trkpt lat="45.11191" lon="6.09883">
        <ele>2389.3</ele>
        <time>2021-03-10T08:20:52Z</time>
      </trkpt>
      <trkpt lat="45.11192" lon="6.09883">
        <ele>2389.4</ele>
        <time>2021-03-10T08:20:53Z</time>
      </trkpt>
      <trkpt lat="45.11193" lon="6.09884">
        <ele>2389.5</ele>
        <time>2021-03-10T08:20:54Z</time>
      </trkpt>
      <trkpt lat="45.11194" lon="6.09884">
        <ele>2389.6</ele>
        <time>2021-03-10T08:20:55Z</time>
      </trkpt>
      <trkpt lat="45.11195" lon="6.09885">
        <ele>2389.8</ele>
        <time>2021-03-10T08:20:56Z</time>
      </trkpt>
      <trkpt lat="45.11196" lon="6.09885">
        <ele>2389.9</ele>
        <time>2021-03-10T08:20:57Z</time>
      </trkpt>
      <trkpt lat="45.11197" lon="6.09886">
        <ele>2390</ele>
        <time>2021-03-10T08:20:58Z</time>
      </trkpt>
      <trkpt lat="45.11198" lon="6.09886">
        <ele>2390.1</ele>
        <time>2021-03-10T08:20:59Z</time>
      </trkpt>
      <trkpt lat="45.11199" lon="6.09886">
        <ele>2390.3</ele>
        <time>2021-03-10T08:21:00Z</time>
      </trkpt>
      <trkpt lat="45.112" lon="6.09887">
        <ele>2390.4</ele>
        <time>2021-03-10T08:21:01Z</time>
      </trkpt>
      <trkpt lat="45.11201" lon="6.09887">
        <ele>2390.5</ele>
        <time>2021-03-10T08:21:02Z</time>
      </trkpt>
      <trkpt lat="45.11201" lon="6.09888">
        <ele>2390.6</ele>
        <time>2021-03-10T08:21:03Z</time>
      </trkpt>
      <trkpt lat="45.11202" lon="6.09888">
        <ele>2390.6</ele>
        <time>2021-03-10T08:21:04Z</time>
      </trkpt>
      <trkpt lat="45.11203" lon="6.09888">
        <ele>2390.7</ele>
        <time>2021-03-10T08:21:05Z</time>
      </trkpt>
      <trkpt lat="45.11204" lon="6.09888">
        <ele>2390.8</ele>
        <time>2021-03-10T08:21:06Z</time>
      </trkpt>
      <trkpt lat="45.11204" lon="6.09889">
        <ele>2390.9</ele>
        <time>2021-03-10T08:21:07Z</time>
      </trkpt>
      <trkpt lat="45.11205" lon="6.09889">
        <ele>2391</ele>
        <time>2021-03-10T08:21:08Z</time>
      </trkpt>
      <trkpt lat="45.11206" lon="6.0989">
        <ele>2391.1</ele>
        <time>2021-03-10T08:21:09Z</time>
      </trkpt>
      <trkpt lat="45.11206" lon="6.0989">
        <ele>2391.2</ele>
        <time>2021-03-10T08:21:10Z</time>
      </trkpt>
      <trkpt lat="45.11207" lon="6.09891">
        <ele>2391.3</ele>
        <time>2021-03-10T08:21:11Z</time>
      </trkpt>
      <trkpt lat="45.11208" lon="6.09891">
        <ele>2391.4</ele>
        <time>2021-03-10T08:21:12Z</time>
      </trkpt>
      <trkpt lat="45.11209" lon="6.09891">
        <ele>2391.5</ele>
        <time>2021-03-10T08:21:13Z</time>
      </trkpt>
      <trkpt lat="45.11209" lon="6.09891">
        <ele>2391.5</ele>
        <time>2021-03-10T08:21:14Z</time>
      </trkpt>
      <trkpt lat="45.1121" lon="6.09892">
        <ele>2391.6</ele>
        <time>2021-03-10T08:21:15Z</time>
      </trkpt>
      <trkpt lat="45.11211" lon="6.09892">
        <ele>2391.7</ele>
        <time>2021-03-10T08:21:16Z</time>
      </trkpt>
      <trkpt lat="45.11211" lon="6.09892">
        <ele>2391.8</ele>
        <time>2021-03-10T08:21:17Z</time>
      </trkpt>
      <trkpt lat="45.11212" lon="6.09892">
        <ele>2391.8</ele>
        <time>2021-03-10T08:21:18Z</time>
      </trkpt>
      <trkpt lat="45.11213" lon="6.09892">
        <ele>2391.9</ele>
        <time>2021-03-10T08:21:19Z</time>
      </trkpt>
      <trkpt lat="45.11213" lon="6.09893">
        <ele>2392</ele>
        <time>2021-03-10T08:21:20Z</time>
      </trkpt>
      <trkpt lat="45.11214" lon="6.09893">
        <ele>2392</ele>
        <time>2021-03-10T08:21:21Z</time>
      </trkpt>
      <trkpt lat="45.11214" lon="6.09893">
        <ele>2392.1</ele>
        <time>2021-03-10T08:21:22Z</time>
      </trkpt>
      <trkpt lat="45.11215" lon="6.09893">
        <ele>2392.1</ele>
        <time>2021-03-10T08:21:23Z</time>
      </trkpt>
      <trkpt lat="45.11215" lon="6.09893">
        <ele>2392.2</ele>
        <time>2021-03-10T08:21:24Z</time>
      </trkpt>
      <trkpt lat="45.11216" lon="6.09893">
        <ele>2392.3</ele>
        <time>2021-03-10T08:21:25Z</time>
      </trkpt>
      <trkpt lat="45.11217" lon="6.09894">
        <ele>2392.4</ele>
        <time>2021-03-10T08:21:26Z</time>
      </trkpt>
      <trkpt lat="45.11218" lon="6.09894">
        <ele>2392.5</ele>
        <time>2021-03-10T08:21:27Z</time>
      </trkpt>
      <trkpt lat="45.11219" lon="6.09894">
        <ele>2392.6</ele>
        <time>2021-03-10T08:21:28Z</time>
      </trkpt>
      <trkpt lat="45.1122" lon="6.09895">
        <ele>2392.7</ele>
        <time>2021-03-10T08:21:29Z</time>
      </trkpt>
      <trkpt lat="45.1122" lon="6.09895">
        <ele>2392.8</ele>
        <time>2021-03-10T08:21:30Z</time>
      </trkpt>
      <trkpt lat="45.11221" lon="6.09896">
        <ele>2392.9</ele>
        <time>2021-03-10T08:21:31Z</time>
      </trkpt>
      <trkpt lat="45.11222" lon="6.09896">
        <ele>2393</ele>
        <time>2021-03-10T08:21:32Z</time>
      </trkpt>
      <trkpt lat="45.11222" lon="6.09896">
        <ele>2393</ele>
        <time>2021-03-10T08:21:33Z</time>
      </trkpt>
      <trkpt lat="45.11223" lon="6.09897">
        <ele>2393.1</ele>
        <time>2021-03-10T08:21:34Z</time>
      </trkpt>
      <trkpt lat="45.11223" lon="6.09897">
        <ele>2393.2</ele>
        <time>2021-03-10T08:21:35Z</time>
      </trkpt>
      <trkpt lat="45.11224" lon="6.09897">
        <ele>2393.2</ele>
        <time>2021-03-10T08:21:36Z</time>
      </trkpt>
      <trkpt lat="45.11225" lon="6.09897">
        <ele>2393.4</ele>
        <time>2021-03-10T08:21:37Z</time>
      </trkpt>
      <trkpt lat="45.11226" lon="6.09898">
        <ele>2393.5</ele>
        <time>2021-03-10T08:21:38Z</time>
      </trkpt>
      <trkpt lat="45.11227" lon="6.09898">
        <ele>2393.6</ele>
        <time>2021-03-10T08:21:39Z</time>
      </trkpt>
      <trkpt lat="45.11227" lon="6.09898">
        <ele>2393.6</ele>
        <time>2021-03-10T08:21:40Z</time>
      </trkpt>
      <trkpt lat="45.11228" lon="6.09899">
        <ele>2393.7</ele>
        <time>2021-03-10T08:21:41Z</time>
      </trkpt>
      <trkpt lat="45.11229" lon="6.09899">
        <ele>2393.8</ele>
        <time>2021-03-10T08:21:42Z</time>
      </trkpt>
      <trkpt lat="45.1123" lon="6.099">
        <ele>2394</ele>
        <time>2021-03-10T08:21:43Z</time>
      </trkpt>
      <trkpt lat="45.11231" lon="6.099">
        <ele>2394.1</ele>
        <time>2021-03-10T08:21:44Z</time>
      </trkpt>
      <trkpt lat="45.11231" lon="6.099">
        <ele>2394.2</ele>
        <time>2021-03-10T08:21:45Z</time>
      </trkpt>
      <trkpt lat="45.11232" lon="6.099">
        <ele>2394.2</ele>
        <time>2021-03-10T08:21:46Z</time>
      </trkpt>
      <trkpt lat="45.11233" lon="6.09901">
        <ele>2394.3</ele>
        <time>2021-03-10T08:21:47Z</time>
      </trkpt>
      <trkpt lat="45.11234" lon="6.09901">
        <ele>2394.4</ele>
        <time>2021-03-10T08:21:48Z</time>
      </trkpt>
      <trkpt lat="45.11234" lon="6.09902">
        <ele>2394.5</ele>
        <time>2021-03-10T08:21:49Z</time>
      </trkpt>
      <trkpt lat="45.11235" lon="6.09902">
        <ele>2394.5</ele>
        <time>2021-03-10T08:21:50Z</time>
      </trkpt>
      <trkpt lat="45.11236" lon="6.09903">
        <ele>2394.5</ele>
        <time>2021-03-10T08:21:51Z</time>
      </trkpt>
      <trkpt lat="45.11237" lon="6.09903">
        <ele>2394.8</ele>
        <time>2021-03-10T08:21:52Z</time>
      </trkpt>
      <trkpt lat="45.11237" lon="6.09903">
        <ele>2394.8</ele>
        <time>2021-03-10T08:21:53Z</time>
      </trkpt>
      <trkpt lat="45.11238" lon="6.09904">
        <ele>2394.8</ele>
        <time>2021-03-10T08:21:54Z</time>
      </trkpt>
      <trkpt lat="45.11239" lon="6.09904">
        <ele>2395.1</ele>
        <time>2021-03-10T08:21:55Z</time>
      </trkpt>
      <trkpt lat="45.11241" lon="6.09904">
        <ele>2396.5</ele>
        <time>2021-03-10T08:21:56Z</time>
      </trkpt>
      <trkpt lat="45.11241" lon="6.09905">
        <ele>2396.5</ele>
        <time>2021-03-10T08:21:57Z</time>
      </trkpt>
      <trkpt lat="45.11242" lon="6.09905">
        <ele>2396.8</ele>
        <time>2021-03-10T08:21:58Z</time>
      </trkpt>
      <trkpt lat="45.11243" lon="6.09905">
        <ele>2396.8</ele>
        <time>2021-03-10T08:21:59Z</time>
      </trkpt>
      <trkpt lat="45.11244" lon="6.09905">
        <ele>2396.8</ele>
        <time>2021-03-10T08:22:00Z</time>
      </trkpt>
      <trkpt lat="45.11245" lon="6.09906">
        <ele>2396.8</ele>
        <time>2021-03-10T08:22:01Z</time>
      </trkpt>
      <trkpt lat="45.11246" lon="6.09906">
        <ele>2397.2</ele>
        <time>2021-03-10T08:22:02Z</time>
      </trkpt>
      <trkpt lat="45.11247" lon="6.09906">
        <ele>2397.2</ele>
        <time>2021-03-10T08:22:03Z</time>
      </trkpt>
      <trkpt lat="45.11247" lon="6.09907">
        <ele>2397.2</ele>
        <time>2021-03-10T08:22:04Z</time>
      </trkpt>
      <trkpt lat="45.11248" lon="6.09907">
        <ele>2397.2</ele>
        <time>2021-03-10T08:22:05Z</time>
      </trkpt>
      <trkpt lat="45.11248" lon="6.09907">
        <ele>2397.6</ele>
        <time>2021-03-10T08:22:06Z</time>
      </trkpt>
      <trkpt lat="45.11249" lon="6.09907">
        <ele>2397.6</ele>
        <time>2021-03-10T08:22:07Z</time>
      </trkpt>
      <trkpt lat="45.1125" lon="6.09907">
        <ele>2397.6</ele>
        <time>2021-03-10T08:22:08Z</time>
      </trkpt>
      <trkpt lat="45.1125" lon="6.09908">
        <ele>2397.6</ele>
        <time>2021-03-10T08:22:09Z</time>
      </trkpt>
      <trkpt lat="45.11251" lon="6.09908">
        <ele>2397.6</ele>
        <time>2021-03-10T08:22:10Z</time>
      </trkpt>
      <trkpt lat="45.11252" lon="6.09908">
        <ele>2398</ele>
        <time>2021-03-10T08:22:11Z</time>
      </trkpt>
      <trkpt lat="45.11252" lon="6.09908">
        <ele>2398</ele>
        <time>2021-03-10T08:22:12Z</time>
      </trkpt>
      <trkpt lat="45.11253" lon="6.09908">
        <ele>2398</ele>
        <time>2021-03-10T08:22:13Z</time>
      </trkpt>
      <trkpt lat="45.11254" lon="6.09908">
        <ele>2398</ele>
        <time>2021-03-10T08:22:14Z</time>
      </trkpt>
      <trkpt lat="45.11255" lon="6.09909">
        <ele>2399.9</ele>
        <time>2021-03-10T08:22:15Z</time>
      </trkpt>
      <trkpt lat="45.11256" lon="6.09909">
        <ele>2399.9</ele>
        <time>2021-03-10T08:22:16Z</time>
      </trkpt>
      <trkpt lat="45.11257" lon="6.09909">
        <ele>2399.9</ele>
        <time>2021-03-10T08:22:17Z</time>
      </trkpt>
      <trkpt lat="45.11258" lon="6.09909">
        <ele>2400.3</ele>
        <time>2021-03-10T08:22:18Z</time>
      </trkpt>
      <trkpt lat="45.11259" lon="6.09909">
        <ele>2400.3</ele>
        <time>2021-03-10T08:22:19Z</time>
      </trkpt>
      <trkpt lat="45.1126" lon="6.0991">
        <ele>2400.3</ele>
        <time>2021-03-10T08:22:20Z</time>
      </trkpt>
      <trkpt lat="45.11261" lon="6.0991">
        <ele>2400.7</ele>
        <time>2021-03-10T08:22:21Z</time>
      </trkpt>
      <trkpt lat="45.11262" lon="6.09911">
        <ele>2400.7</ele>
        <time>2021-03-10T08:22:22Z</time>
      </trkpt>
      <trkpt lat="45.11263" lon="6.09911">
        <ele>2400.7</ele>
        <time>2021-03-10T08:22:23Z</time>
      </trkpt>
      <trkpt lat="45.11264" lon="6.09911">
        <ele>2401.1</ele>
        <time>2021-03-10T08:22:24Z</time>
      </trkpt>
      <trkpt lat="45.11265" lon="6.09911">
        <ele>2401.1</ele>
        <time>2021-03-10T08:22:25Z</time>
      </trkpt>
      <trkpt lat="45.11265" lon="6.09911">
        <ele>2401.1</ele>
        <time>2021-03-10T08:22:26Z</time>
      </trkpt>
      <trkpt lat="45.11266" lon="6.09912">
        <ele>2401.1</ele>
        <time>2021-03-10T08:22:27Z</time>
      </trkpt>
      <trkpt lat="45.11267" lon="6.09912">
        <ele>2401.4</ele>
        <time>2021-03-10T08:22:28Z</time>
      </trkpt>
      <trkpt lat="45.11268" lon="6.09912">
        <ele>2401.4</ele>
        <time>2021-03-10T08:22:29Z</time>
      </trkpt>
      <trkpt lat="45.11269" lon="6.09912">
        <ele>2401.4</ele>
        <time>2021-03-10T08:22:30Z</time>
      </trkpt>
      <trkpt lat="45.1127" lon="6.09912">
        <ele>2401.8</ele>
        <time>2021-03-10T08:22:31Z</time>
      </trkpt>
      <trkpt lat="45.11271" lon="6.09913">
        <ele>2401.8</ele>
        <time>2021-03-10T08:22:32Z</time>
      </trkpt>
      <trkpt lat="45.11271" lon="6.09913">
        <ele>2403.3</ele>
        <time>2021-03-10T08:22:33Z</time>
      </trkpt>
      <trkpt lat="45.11272" lon="6.09913">
        <ele>2403.3</ele>
        <time>2021-03-10T08:22:34Z</time>
      </trkpt>
      <trkpt lat="45.11273" lon="6.09914">
        <ele>2403.8</ele>
        <time>2021-03-10T08:22:35Z</time>
      </trkpt>
      <trkpt lat="45.11274" lon="6.09914">
        <ele>2403.8</ele>
        <time>2021-03-10T08:22:36Z</time>
      </trkpt>
      <trkpt lat="45.11275" lon="6.09915">
        <ele>2403.8</ele>
        <time>2021-03-10T08:22:37Z</time>
      </trkpt>
      <trkpt lat="45.11275" lon="6.09915">
        <ele>2403.8</ele>
        <time>2021-03-10T08:22:38Z</time>
      </trkpt>
      <trkpt lat="45.11276" lon="6.09915">
        <ele>2404.3</ele>
        <time>2021-03-10T08:22:39Z</time>
      </trkpt>
      <trkpt lat="45.11277" lon="6.09916">
        <ele>2404.3</ele>
        <time>2021-03-10T08:22:40Z</time>
      </trkpt>
      <trkpt lat="45.11277" lon="6.09916">
        <ele>2404.3</ele>
        <time>2021-03-10T08:22:41Z</time>
      </trkpt>
      <trkpt lat="45.11278" lon="6.09917">
        <ele>2404.3</ele>
        <time>2021-03-10T08:22:42Z</time>
      </trkpt>
      <trkpt lat="45.11279" lon="6.09917">
        <ele>2404.8</ele>
        <time>2021-03-10T08:22:43Z</time>
      </trkpt>
      <trkpt lat="45.11279" lon="6.09917">
        <ele>2404.8</ele>
        <time>2021-03-10T08:22:44Z</time>
      </trkpt>
      <trkpt lat="45.1128" lon="6.09917">
        <ele>2404.8</ele>
        <time>2021-03-10T08:22:45Z</time>
      </trkpt>
      <trkpt lat="45.11281" lon="6.09917">
        <ele>2406.2</ele>
        <time>2021-03-10T08:22:46Z</time>
      </trkpt>
      <trkpt lat="45.11282" lon="6.09918">
        <ele>2406.8</ele>
        <time>2021-03-10T08:22:47Z</time>
      </trkpt>
      <trkpt lat="45.11283" lon="6.09918">
        <ele>2406.8</ele>
        <time>2021-03-10T08:22:48Z</time>
      </trkpt>
      <trkpt lat="45.11283" lon="6.09918">
        <ele>2406.8</ele>
        <time>2021-03-10T08:22:49Z</time>
      </trkpt>
      <trkpt lat="45.11284" lon="6.09918">
        <ele>2406.8</ele>
        <time>2021-03-10T08:22:50Z</time>
      </trkpt>
      <trkpt lat="45.11285" lon="6.09919">
        <ele>2407.3</ele>
        <time>2021-03-10T08:22:51Z</time>
      </trkpt>
      <trkpt lat="45.11286" lon="6.09919">
        <ele>2407.3</ele>
        <time>2021-03-10T08:22:52Z</time>
      </trkpt>
      <trkpt lat="45.11286" lon="6.09919">
        <ele>2407.3</ele>
        <time>2021-03-10T08:22:53Z</time>
      </trkpt>
      <trkpt lat="45.11287" lon="6.0992">
        <ele>2407.3</ele>
        <time>2021-03-10T08:22:54Z</time>
      </trkpt>
      <trkpt lat="45.11288" lon="6.0992">
        <ele>2407.3</ele>
        <time>2021-03-10T08:22:55Z</time>
      </trkpt>
      <trkpt lat="45.11288" lon="6.0992">
        <ele>2407.7</ele>
        <time>2021-03-10T08:22:56Z</time>
      </trkpt>
      <trkpt lat="45.11289" lon="6.09921">
        <ele>2407.8</ele>
        <time>2021-03-10T08:22:57Z</time>
      </trkpt>
      <trkpt lat="45.11289" lon="6.09921">
        <ele>2407.8</ele>
        <time>2021-03-10T08:22:58Z</time>
      </trkpt>
      <trkpt lat="45.1129" lon="6.09922">
        <ele>2409.3</ele>
        <time>2021-03-10T08:22:59Z</time>
      </trkpt>
      <trkpt lat="45.11291" lon="6.09922">
        <ele>2409.8</ele>
        <time>2021-03-10T08:23:00Z</time>
      </trkpt>
      <trkpt lat="45.11292" lon="6.09923">
        <ele>2409.8</ele>
        <time>2021-03-10T08:23:01Z</time>
      </trkpt>
      <trkpt lat="45.11293" lon="6.09923">
        <ele>2409.8</ele>
        <time>2021-03-10T08:23:02Z</time>
      </trkpt>
      <trkpt lat="45.11294" lon="6.09923">
        <ele>2409.8</ele>
        <time>2021-03-10T08:23:03Z</time>
      </trkpt>
      <trkpt lat="45.11294" lon="6.09923">
        <ele>2410.4</ele>
        <time>2021-03-10T08:23:04Z</time>
      </trkpt>
      <trkpt lat="45.11295" lon="6.09924">
        <ele>2410.4</ele>
        <time>2021-03-10T08:23:05Z</time>
      </trkpt>
      <trkpt lat="45.11296" lon="6.09924">
        <ele>2410.4</ele>
        <time>2021-03-10T08:23:06Z</time>
      </trkpt>
      <trkpt lat="45.11296" lon="6.09924">
        <ele>2410.4</ele>
        <time>2021-03-10T08:23:07Z</time>
      </trkpt>
      <trkpt lat="45.11297" lon="6.09925">
        <ele>2411</ele>
        <time>2021-03-10T08:23:08Z</time>
      </trkpt>
      <trkpt lat="45.11298" lon="6.09925">
        <ele>2411</ele>
        <time>2021-03-10T08:23:09Z</time>
      </trkpt>
      <trkpt lat="45.11298" lon="6.09925">
        <ele>2411.1</ele>
        <time>2021-03-10T08:23:10Z</time>
      </trkpt>
      <trkpt lat="45.11299" lon="6.09926">
        <ele>2411.1</ele>
        <time>2021-03-10T08:23:11Z</time>
      </trkpt>
      <trkpt lat="45.113" lon="6.09926">
        <ele>2412.5</ele>
        <time>2021-03-10T08:23:12Z</time>
      </trkpt>
      <trkpt lat="45.113" lon="6.09926">
        <ele>2413.1</ele>
        <time>2021-03-10T08:23:13Z</time>
      </trkpt>
      <trkpt lat="45.11301" lon="6.09927">
        <ele>2413.1</ele>
        <time>2021-03-10T08:23:14Z</time>
      </trkpt>
      <trkpt lat="45.11302" lon="6.09927">
        <ele>2413.1</ele>
        <time>2021-03-10T08:23:15Z</time>
      </trkpt>
      <trkpt lat="45.11302" lon="6.09927">
        <ele>2413.2</ele>
        <time>2021-03-10T08:23:16Z</time>
      </trkpt>
      <trkpt lat="45.11303" lon="6.09928">
        <ele>2413.8</ele>
        <time>2021-03-10T08:23:17Z</time>
      </trkpt>
      <trkpt lat="45.11304" lon="6.09928">
        <ele>2413.8</ele>
        <time>2021-03-10T08:23:18Z</time>
      </trkpt>
      <trkpt lat="45.11305" lon="6.09929">
        <ele>2413.8</ele>
        <time>2021-03-10T08:23:19Z</time>
      </trkpt>
      <trkpt lat="45.11305" lon="6.09929">
        <ele>2413.8</ele>
        <time>2021-03-10T08:23:20Z</time>
      </trkpt>
      <trkpt lat="45.11306" lon="6.0993">
        <ele>2414.4</ele>
        <time>2021-03-10T08:23:21Z</time>
      </trkpt>
      <trkpt lat="45.11307" lon="6.0993">
        <ele>2415.9</ele>
        <time>2021-03-10T08:23:22Z</time>
      </trkpt>
      <trkpt lat="45.11307" lon="6.0993">
        <ele>2415.9</ele>
        <time>2021-03-10T08:23:23Z</time>
      </trkpt>
      <trkpt lat="45.11308" lon="6.09931">
        <ele>2415.9</ele>
        <time>2021-03-10T08:23:24Z</time>
      </trkpt>
      <trkpt lat="45.11309" lon="6.09931">
        <ele>2416</ele>
        <time>2021-03-10T08:23:25Z</time>
      </trkpt>
      <trkpt lat="45.11309" lon="6.09931">
        <ele>2416.5</ele>
        <time>2021-03-10T08:23:26Z</time>
      </trkpt>
      <trkpt lat="45.1131" lon="6.09932">
        <ele>2416.5</ele>
        <time>2021-03-10T08:23:27Z</time>
      </trkpt>
      <trkpt lat="45.11311" lon="6.09932">
        <ele>2416.6</ele>
        <time>2021-03-10T08:23:28Z</time>
      </trkpt>
      <trkpt lat="45.11311" lon="6.09932">
        <ele>2416.6</ele>
        <time>2021-03-10T08:23:29Z</time>
      </trkpt>
      <trkpt lat="45.11312" lon="6.09932">
        <ele>2417.1</ele>
        <time>2021-03-10T08:23:30Z</time>
      </trkpt>
      <trkpt lat="45.11313" lon="6.09933">
        <ele>2417.1</ele>
        <time>2021-03-10T08:23:31Z</time>
      </trkpt>
      <trkpt lat="45.11313" lon="6.09933">
        <ele>2417.2</ele>
        <time>2021-03-10T08:23:32Z</time>
      </trkpt>
      <trkpt lat="45.11314" lon="6.09933">
        <ele>2417.2</ele>
        <time>2021-03-10T08:23:33Z</time>
      </trkpt>
      <trkpt lat="45.11315" lon="6.09934">
        <ele>2417.6</ele>
        <time>2021-03-10T08:23:34Z</time>
      </trkpt>
      <trkpt lat="45.11316" lon="6.09935">
        <ele>2419.1</ele>
        <time>2021-03-10T08:23:35Z</time>
      </trkpt>
      <trkpt lat="45.11316" lon="6.09935">
        <ele>2419.2</ele>
        <time>2021-03-10T08:23:36Z</time>
      </trkpt>
      <trkpt lat="45.11317" lon="6.09935">
        <ele>2419.2</ele>
        <time>2021-03-10T08:23:37Z</time>
      </trkpt>
      <trkpt lat="45.11318" lon="6.09936">
        <ele>2419.2</ele>
        <time>2021-03-10T08:23:38Z</time>
      </trkpt>
      <trkpt lat="45.11318" lon="6.09936">
        <ele>2419.6</ele>
        <time>2021-03-10T08:23:39Z</time>
      </trkpt>
      <trkpt lat="45.11319" lon="6.09936">
        <ele>2419.7</ele>
        <time>2021-03-10T08:23:40Z</time>
      </trkpt>
      <trkpt lat="45.1132" lon="6.09937">
        <ele>2419.7</ele>
        <time>2021-03-10T08:23:41Z</time>
      </trkpt>
      <trkpt lat="45.1132" lon="6.09937">
        <ele>2419.8</ele>
        <time>2021-03-10T08:23:42Z</time>
      </trkpt>
      <trkpt lat="45.11321" lon="6.09937">
        <ele>2420.2</ele>
        <time>2021-03-10T08:23:43Z</time>
      </trkpt>
      <trkpt lat="45.11322" lon="6.09938">
        <ele>2420.2</ele>
        <time>2021-03-10T08:23:44Z</time>
      </trkpt>
      <trkpt lat="45.11322" lon="6.09938">
        <ele>2420.2</ele>
        <time>2021-03-10T08:23:45Z</time>
      </trkpt>
      <trkpt lat="45.11322" lon="6.09938">
        <ele>2420.2</ele>
        <time>2021-03-10T08:23:46Z</time>
      </trkpt>
      <trkpt lat="45.11323" lon="6.09938">
        <ele>2420.2</ele>
        <time>2021-03-10T08:23:47Z</time>
      </trkpt>
      <trkpt lat="45.11324" lon="6.09939">
        <ele>2421.8</ele>
        <time>2021-03-10T08:23:48Z</time>
      </trkpt>
      <trkpt lat="45.11325" lon="6.09939">
        <ele>2422.3</ele>
        <time>2021-03-10T08:23:49Z</time>
      </trkpt>
      <trkpt lat="45.11326" lon="6.0994">
        <ele>2422.3</ele>
        <time>2021-03-10T08:23:50Z</time>
      </trkpt>
      <trkpt lat="45.11327" lon="6.0994">
        <ele>2422.3</ele>
        <time>2021-03-10T08:23:51Z</time>
      </trkpt>
      <trkpt lat="45.11328" lon="6.0994">
        <ele>2422.7</ele>
        <time>2021-03-10T08:23:52Z</time>
      </trkpt>
      <trkpt lat="45.11328" lon="6.09941">
        <ele>2422.7</ele>
        <time>2021-03-10T08:23:53Z</time>
      </trkpt>
      <trkpt lat="45.11329" lon="6.09941">
        <ele>2422.7</ele>
        <time>2021-03-10T08:23:54Z</time>
      </trkpt>
      <trkpt lat="45.1133" lon="6.09942">
        <ele>2423</ele>
        <time>2021-03-10T08:23:55Z</time>
      </trkpt>
      <trkpt lat="45.11331" lon="6.09942">
        <ele>2423.1</ele>
        <time>2021-03-10T08:23:56Z</time>
      </trkpt>
      <trkpt lat="45.11332" lon="6.09942">
        <ele>2423.2</ele>
        <time>2021-03-10T08:23:57Z</time>
      </trkpt>
      <trkpt lat="45.11333" lon="6.09943">
        <ele>2423.2</ele>
        <time>2021-03-10T08:23:58Z</time>
      </trkpt>
      <trkpt lat="45.11333" lon="6.09943">
        <ele>2425.1</ele>
        <time>2021-03-10T08:23:59Z</time>
      </trkpt>
      <trkpt lat="45.11334" lon="6.09944">
        <ele>2425.1</ele>
        <time>2021-03-10T08:24:00Z</time>
      </trkpt>
      <trkpt lat="45.11335" lon="6.09945">
        <ele>2425.1</ele>
        <time>2021-03-10T08:24:01Z</time>
      </trkpt>
      <trkpt lat="45.11336" lon="6.09945">
        <ele>2425.1</ele>
        <time>2021-03-10T08:24:02Z</time>
      </trkpt>
      <trkpt lat="45.11337" lon="6.09945">
        <ele>2425.5</ele>
        <time>2021-03-10T08:24:03Z</time>
      </trkpt>
      <trkpt lat="45.11338" lon="6.09946">
        <ele>2425.5</ele>
        <time>2021-03-10T08:24:04Z</time>
      </trkpt>
      <trkpt lat="45.11338" lon="6.09946">
        <ele>2425.5</ele>
        <time>2021-03-10T08:24:05Z</time>
      </trkpt>
      <trkpt lat="45.11339" lon="6.09946">
        <ele>2425.8</ele>
        <time>2021-03-10T08:24:06Z</time>
      </trkpt>
      <trkpt lat="45.1134" lon="6.09946">
        <ele>2425.8</ele>
        <time>2021-03-10T08:24:07Z</time>
      </trkpt>
      <trkpt lat="45.11341" lon="6.09946">
        <ele>2425.8</ele>
        <time>2021-03-10T08:24:08Z</time>
      </trkpt>
      <trkpt lat="45.11341" lon="6.09946">
        <ele>2425.8</ele>
        <time>2021-03-10T08:24:09Z</time>
      </trkpt>
      <trkpt lat="45.11342" lon="6.09946">
        <ele>2426.1</ele>
        <time>2021-03-10T08:24:10Z</time>
      </trkpt>
      <trkpt lat="45.11343" lon="6.09947">
        <ele>2426.1</ele>
        <time>2021-03-10T08:24:11Z</time>
      </trkpt>
      <trkpt lat="45.11344" lon="6.09947">
        <ele>2426.1</ele>
        <time>2021-03-10T08:24:12Z</time>
      </trkpt>
      <trkpt lat="45.11345" lon="6.09947">
        <ele>2427.7</ele>
        <time>2021-03-10T08:24:13Z</time>
      </trkpt>
      <trkpt lat="45.11346" lon="6.09948">
        <ele>2428</ele>
        <time>2021-03-10T08:24:14Z</time>
      </trkpt>
      <trkpt lat="45.11346" lon="6.09948">
        <ele>2428</ele>
        <time>2021-03-10T08:24:15Z</time>
      </trkpt>
      <trkpt lat="45.11347" lon="6.09949">
        <ele>2428</ele>
        <time>2021-03-10T08:24:16Z</time>
      </trkpt>
      <trkpt lat="45.11348" lon="6.09949">
        <ele>2428</ele>
        <time>2021-03-10T08:24:17Z</time>
      </trkpt>
      <trkpt lat="45.11348" lon="6.09949">
        <ele>2428</ele>
        <time>2021-03-10T08:24:18Z</time>
      </trkpt>
      <trkpt lat="45.11349" lon="6.0995">
        <ele>2428.2</ele>
        <time>2021-03-10T08:24:19Z</time>
      </trkpt>
      <trkpt lat="45.11349" lon="6.0995">
        <ele>2428.3</ele>
        <time>2021-03-10T08:24:20Z</time>
      </trkpt>
      <trkpt lat="45.1135" lon="6.09951">
        <ele>2428.3</ele>
        <time>2021-03-10T08:24:21Z</time>
      </trkpt>
      <trkpt lat="45.11351" lon="6.09951">
        <ele>2428.3</ele>
        <time>2021-03-10T08:24:22Z</time>
      </trkpt>
      <trkpt lat="45.11351" lon="6.09952">
        <ele>2430.2</ele>
        <time>2021-03-10T08:24:23Z</time>
      </trkpt>
      <trkpt lat="45.11352" lon="6.09953">
        <ele>2430.2</ele>
        <time>2021-03-10T08:24:24Z</time>
      </trkpt>
      <trkpt lat="45.11353" lon="6.09953">
        <ele>2430.2</ele>
        <time>2021-03-10T08:24:25Z</time>
      </trkpt>
      <trkpt lat="45.11354" lon="6.09953">
        <ele>2430.2</ele>
        <time>2021-03-10T08:24:26Z</time>
      </trkpt>
      <trkpt lat="45.11354" lon="6.09953">
        <ele>2430.5</ele>
        <time>2021-03-10T08:24:27Z</time>
      </trkpt>
      <trkpt lat="45.11355" lon="6.09954">
        <ele>2430.5</ele>
        <time>2021-03-10T08:24:28Z</time>
      </trkpt>
      <trkpt lat="45.11356" lon="6.09954">
        <ele>2430.5</ele>
        <time>2021-03-10T08:24:29Z</time>
      </trkpt>
      <trkpt lat="45.11356" lon="6.09954">
        <ele>2430.5</ele>
        <time>2021-03-10T08:24:30Z</time>
      </trkpt>
      <trkpt lat="45.11357" lon="6.09955">
        <ele>2430.5</ele>
        <time>2021-03-10T08:24:31Z</time>
      </trkpt>
      <trkpt lat="45.11358" lon="6.09955">
        <ele>2430.8</ele>
        <time>2021-03-10T08:24:32Z</time>
      </trkpt>
      <trkpt lat="45.11359" lon="6.09955">
        <ele>2430.8</ele>
        <time>2021-03-10T08:24:33Z</time>
      </trkpt>
      <trkpt lat="45.1136" lon="6.09956">
        <ele>2432.5</ele>
        <time>2021-03-10T08:24:34Z</time>
      </trkpt>
      <trkpt lat="45.1136" lon="6.09956">
        <ele>2432.8</ele>
        <time>2021-03-10T08:24:35Z</time>
      </trkpt>
      <trkpt lat="45.11361" lon="6.09957">
        <ele>2432.9</ele>
        <time>2021-03-10T08:24:36Z</time>
      </trkpt>
      <trkpt lat="45.11362" lon="6.09957">
        <ele>2432.9</ele>
        <time>2021-03-10T08:24:37Z</time>
      </trkpt>
      <trkpt lat="45.11363" lon="6.09958">
        <ele>2432.9</ele>
        <time>2021-03-10T08:24:38Z</time>
      </trkpt>
      <trkpt lat="45.11364" lon="6.09959">
        <ele>2433.2</ele>
        <time>2021-03-10T08:24:39Z</time>
      </trkpt>
      <trkpt lat="45.11364" lon="6.09959">
        <ele>2433.3</ele>
        <time>2021-03-10T08:24:40Z</time>
      </trkpt>
      <trkpt lat="45.11365" lon="6.0996">
        <ele>2433.3</ele>
        <time>2021-03-10T08:24:41Z</time>
      </trkpt>
      <trkpt lat="45.11365" lon="6.0996">
        <ele>2433.3</ele>
        <time>2021-03-10T08:24:42Z</time>
      </trkpt>
      <trkpt lat="45.11366" lon="6.0996">
        <ele>2434.9</ele>
        <time>2021-03-10T08:24:43Z</time>
      </trkpt>
      <trkpt lat="45.11367" lon="6.09961">
        <ele>2435.3</ele>
        <time>2021-03-10T08:24:44Z</time>
      </trkpt>
      <trkpt lat="45.11368" lon="6.09962">
        <ele>2435.3</ele>
        <time>2021-03-10T08:24:45Z</time>
      </trkpt>
      <trkpt lat="45.11368" lon="6.09962">
        <ele>2435.3</ele>
        <time>2021-03-10T08:24:46Z</time>
      </trkpt>
      <trkpt lat="45.11369" lon="6.09963">
        <ele>2435.3</ele>
        <time>2021-03-10T08:24:47Z</time>
      </trkpt>
      <trkpt lat="45.1137" lon="6.09963">
        <ele>2435.6</ele>
        <time>2021-03-10T08:24:48Z</time>
      </trkpt>
      <trkpt lat="45.1137" lon="6.09964">
        <ele>2435.6</ele>
        <time>2021-03-10T08:24:49Z</time>
      </trkpt>
      <trkpt lat="45.11371" lon="6.09964">
        <ele>2435.6</ele>
        <time>2021-03-10T08:24:50Z</time>
      </trkpt>
      <trkpt lat="45.11372" lon="6.09965">
        <ele>2437.2</ele>
        <time>2021-03-10T08:24:51Z</time>
      </trkpt>
      <trkpt lat="45.11373" lon="6.09965">
        <ele>2437.5</ele>
        <time>2021-03-10T08:24:52Z</time>
      </trkpt>
      <trkpt lat="45.11373" lon="6.09966">
        <ele>2437.5</ele>
        <time>2021-03-10T08:24:53Z</time>
      </trkpt>
      <trkpt lat="45.11374" lon="6.09966">
        <ele>2437.5</ele>
        <time>2021-03-10T08:24:54Z</time>
      </trkpt>
      <trkpt lat="45.11375" lon="6.09967">
        <ele>2437.5</ele>
        <time>2021-03-10T08:24:55Z</time>
      </trkpt>
      <trkpt lat="45.11376" lon="6.09967">
        <ele>2437.8</ele>
        <time>2021-03-10T08:24:56Z</time>
      </trkpt>
      <trkpt lat="45.11376" lon="6.09967">
        <ele>2437.8</ele>
        <time>2021-03-10T08:24:57Z</time>
      </trkpt>
      <trkpt lat="45.11377" lon="6.09968">
        <ele>2437.8</ele>
        <time>2021-03-10T08:24:58Z</time>
      </trkpt>
      <trkpt lat="45.11378" lon="6.09968">
        <ele>2437.8</ele>
        <time>2021-03-10T08:24:59Z</time>
      </trkpt>
      <trkpt lat="45.11379" lon="6.09968">
        <ele>2438</ele>
        <time>2021-03-10T08:25:00Z</time>
      </trkpt>
      <trkpt lat="45.1138" lon="6.09969">
        <ele>2438</ele>
        <time>2021-03-10T08:25:01Z</time>
      </trkpt>
      <trkpt lat="45.1138" lon="6.09969">
        <ele>2439.6</ele>
        <time>2021-03-10T08:25:02Z</time>
      </trkpt>
      <trkpt lat="45.11381" lon="6.0997">
        <ele>2439.6</ele>
        <time>2021-03-10T08:25:03Z</time>
      </trkpt>
      <trkpt lat="45.11382" lon="6.09971">
        <ele>2439.8</ele>
        <time>2021-03-10T08:25:04Z</time>
      </trkpt>
      <trkpt lat="45.11383" lon="6.09972">
        <ele>2439.8</ele>
        <time>2021-03-10T08:25:05Z</time>
      </trkpt>
      <trkpt lat="45.11383" lon="6.09972">
        <ele>2439.8</ele>
        <time>2021-03-10T08:25:06Z</time>
      </trkpt>
      <trkpt lat="45.11384" lon="6.09973">
        <ele>2441.3</ele>
        <time>2021-03-10T08:25:07Z</time>
      </trkpt>
      <trkpt lat="45.11385" lon="6.09974">
        <ele>2441.5</ele>
        <time>2021-03-10T08:25:08Z</time>
      </trkpt>
      <trkpt lat="45.11385" lon="6.09975">
        <ele>2441.6</ele>
        <time>2021-03-10T08:25:09Z</time>
      </trkpt>
      <trkpt lat="45.11386" lon="6.09975">
        <ele>2441.6</ele>
        <time>2021-03-10T08:25:10Z</time>
      </trkpt>
      <trkpt lat="45.11386" lon="6.09976">
        <ele>2441.6</ele>
        <time>2021-03-10T08:25:11Z</time>
      </trkpt>
      <trkpt lat="45.11387" lon="6.09976">
        <ele>2441.6</ele>
        <time>2021-03-10T08:25:12Z</time>
      </trkpt>
      <trkpt lat="45.11388" lon="6.09977">
        <ele>2441.8</ele>
        <time>2021-03-10T08:25:13Z</time>
      </trkpt>
      <trkpt lat="45.11388" lon="6.09977">
        <ele>2441.8</ele>
        <time>2021-03-10T08:25:14Z</time>
      </trkpt>
      <trkpt lat="45.11389" lon="6.09978">
        <ele>2443.3</ele>
        <time>2021-03-10T08:25:15Z</time>
      </trkpt>
      <trkpt lat="45.1139" lon="6.09979">
        <ele>2443.3</ele>
        <time>2021-03-10T08:25:16Z</time>
      </trkpt>
      <trkpt lat="45.1139" lon="6.09979">
        <ele>2443.3</ele>
        <time>2021-03-10T08:25:17Z</time>
      </trkpt>
      <trkpt lat="45.11391" lon="6.0998">
        <ele>2443.5</ele>
        <time>2021-03-10T08:25:18Z</time>
      </trkpt>
      <trkpt lat="45.11391" lon="6.0998">
        <ele>2443.5</ele>
        <time>2021-03-10T08:25:19Z</time>
      </trkpt>
      <trkpt lat="45.11392" lon="6.0998">
        <ele>2443.5</ele>
        <time>2021-03-10T08:25:20Z</time>
      </trkpt>
      <trkpt lat="45.11393" lon="6.09981">
        <ele>2443.5</ele>
        <time>2021-03-10T08:25:21Z</time>
      </trkpt>
      <trkpt lat="45.11394" lon="6.09981">
        <ele>2443.7</ele>
        <time>2021-03-10T08:25:22Z</time>
      </trkpt>
      <trkpt lat="45.11394" lon="6.09982">
        <ele>2443.7</ele>
        <time>2021-03-10T08:25:23Z</time>
      </trkpt>
      <trkpt lat="45.11395" lon="6.09982">
        <ele>2445.1</ele>
        <time>2021-03-10T08:25:24Z</time>
      </trkpt>
      <trkpt lat="45.11395" lon="6.09983">
        <ele>2445.1</ele>
        <time>2021-03-10T08:25:25Z</time>
      </trkpt>
      <trkpt lat="45.11396" lon="6.09983">
        <ele>2445.1</ele>
        <time>2021-03-10T08:25:26Z</time>
      </trkpt>
      <trkpt lat="45.11397" lon="6.09984">
        <ele>2445.3</ele>
        <time>2021-03-10T08:25:27Z</time>
      </trkpt>
      <trkpt lat="45.11397" lon="6.09984">
        <ele>2445.3</ele>
        <time>2021-03-10T08:25:28Z</time>
      </trkpt>
      <trkpt lat="45.11398" lon="6.09984">
        <ele>2445.3</ele>
        <time>2021-03-10T08:25:29Z</time>
      </trkpt>
      <trkpt lat="45.11399" lon="6.09985">
        <ele>2445.3</ele>
        <time>2021-03-10T08:25:30Z</time>
      </trkpt>
      <trkpt lat="45.11399" lon="6.09985">
        <ele>2445.3</ele>
        <time>2021-03-10T08:25:31Z</time>
      </trkpt>
      <trkpt lat="45.114" lon="6.09985">
        <ele>2445.5</ele>
        <time>2021-03-10T08:25:32Z</time>
      </trkpt>
      <trkpt lat="45.11401" lon="6.09986">
        <ele>2445.5</ele>
        <time>2021-03-10T08:25:33Z</time>
      </trkpt>
      <trkpt lat="45.11401" lon="6.09986">
        <ele>2446.8</ele>
        <time>2021-03-10T08:25:34Z</time>
      </trkpt>
      <trkpt lat="45.11402" lon="6.09987">
        <ele>2446.9</ele>
        <time>2021-03-10T08:25:35Z</time>
      </trkpt>
      <trkpt lat="45.11402" lon="6.09987">
        <ele>2446.9</ele>
        <time>2021-03-10T08:25:36Z</time>
      </trkpt>
      <trkpt lat="45.11403" lon="6.09988">
        <ele>2447</ele>
        <time>2021-03-10T08:25:37Z</time>
      </trkpt>
      <trkpt lat="45.11403" lon="6.09988">
        <ele>2447</ele>
        <time>2021-03-10T08:25:38Z</time>
      </trkpt>
      <trkpt lat="45.11404" lon="6.09989">
        <ele>2447.1</ele>
        <time>2021-03-10T08:25:39Z</time>
      </trkpt>
      <trkpt lat="45.11404" lon="6.0999">
        <ele>2447.1</ele>
        <time>2021-03-10T08:25:40Z</time>
      </trkpt>
      <trkpt lat="45.11405" lon="6.0999">
        <ele>2447.1</ele>
        <time>2021-03-10T08:25:41Z</time>
      </trkpt>
      <trkpt lat="45.11405" lon="6.09991">
        <ele>2448.5</ele>
        <time>2021-03-10T08:25:42Z</time>
      </trkpt>
      <trkpt lat="45.11406" lon="6.09992">
        <ele>2448.7</ele>
        <time>2021-03-10T08:25:43Z</time>
      </trkpt>
      <trkpt lat="45.11406" lon="6.09992">
        <ele>2448.7</ele>
        <time>2021-03-10T08:25:44Z</time>
      </trkpt>
      <trkpt lat="45.11406" lon="6.09992">
        <ele>2448.7</ele>
        <time>2021-03-10T08:25:45Z</time>
      </trkpt>
      <trkpt lat="45.11407" lon="6.09993">
        <ele>2448.7</ele>
        <time>2021-03-10T08:25:46Z</time>
      </trkpt>
      <trkpt lat="45.11408" lon="6.09993">
        <ele>2448.7</ele>
        <time>2021-03-10T08:25:47Z</time>
      </trkpt>
      <trkpt lat="45.11408" lon="6.09993">
        <ele>2448.7</ele>
        <time>2021-03-10T08:25:48Z</time>
      </trkpt>
      <trkpt lat="45.11409" lon="6.09993">
        <ele>2449</ele>
        <time>2021-03-10T08:25:49Z</time>
      </trkpt>
      <trkpt lat="45.1141" lon="6.09993">
        <ele>2449</ele>
        <time>2021-03-10T08:25:50Z</time>
      </trkpt>
      <trkpt lat="45.11411" lon="6.09993">
        <ele>2449</ele>
        <time>2021-03-10T08:25:51Z</time>
      </trkpt>
      <trkpt lat="45.11412" lon="6.09992">
        <ele>2449</ele>
        <time>2021-03-10T08:25:52Z</time>
      </trkpt>
      <trkpt lat="45.11412" lon="6.09992">
        <ele>2449.2</ele>
        <time>2021-03-10T08:25:53Z</time>
      </trkpt>
      <trkpt lat="45.11413" lon="6.09992">
        <ele>2449.3</ele>
        <time>2021-03-10T08:25:54Z</time>
      </trkpt>
      <trkpt lat="45.11414" lon="6.09993">
        <ele>2449.3</ele>
        <time>2021-03-10T08:25:55Z</time>
      </trkpt>
      <trkpt lat="45.11414" lon="6.09993">
        <ele>2449.3</ele>
        <time>2021-03-10T08:25:56Z</time>
      </trkpt>
      <trkpt lat="45.11415" lon="6.09994">
        <ele>2449.5</ele>
        <time>2021-03-10T08:25:57Z</time>
      </trkpt>
      <trkpt lat="45.11415" lon="6.09996">
        <ele>2451</ele>
        <time>2021-03-10T08:25:58Z</time>
      </trkpt>
      <trkpt lat="45.11416" lon="6.09997">
        <ele>2451</ele>
        <time>2021-03-10T08:25:59Z</time>
      </trkpt>
      <trkpt lat="45.11416" lon="6.09998">
        <ele>2451</ele>
        <time>2021-03-10T08:26:00Z</time>
      </trkpt>
      <trkpt lat="45.11416" lon="6.09999">
        <ele>2451</ele>
        <time>2021-03-10T08:26:01Z</time>
      </trkpt>
      <trkpt lat="45.11417" lon="6.09999">
        <ele>2452.4</ele>
        <time>2021-03-10T08:26:02Z</time>
      </trkpt>
      <trkpt lat="45.11417" lon="6.1">
        <ele>2452.4</ele>
        <time>2021-03-10T08:26:03Z</time>
      </trkpt>
      <trkpt lat="45.11417" lon="6.10002">
        <ele>2452.5</ele>
        <time>2021-03-10T08:26:04Z</time>
      </trkpt>
      <trkpt lat="45.11417" lon="6.10003">
        <ele>2453.8</ele>
        <time>2021-03-10T08:26:05Z</time>
      </trkpt>
      <trkpt lat="45.11417" lon="6.10004">
        <ele>2453.8</ele>
        <time>2021-03-10T08:26:06Z</time>
      </trkpt>
      <trkpt lat="45.11417" lon="6.10005">
        <ele>2453.8</ele>
        <time>2021-03-10T08:26:07Z</time>
      </trkpt>
      <trkpt lat="45.11418" lon="6.10006">
        <ele>2453.8</ele>
        <time>2021-03-10T08:26:08Z</time>
      </trkpt>
      <trkpt lat="45.11418" lon="6.10006">
        <ele>2453.9</ele>
        <time>2021-03-10T08:26:09Z</time>
      </trkpt>
      <trkpt lat="45.11418" lon="6.10007">
        <ele>2455.4</ele>
        <time>2021-03-10T08:26:10Z</time>
      </trkpt>
      <trkpt lat="45.11419" lon="6.10009">
        <ele>2455.4</ele>
        <time>2021-03-10T08:26:11Z</time>
      </trkpt>
      <trkpt lat="45.11419" lon="6.1001">
        <ele>2455.4</ele>
        <time>2021-03-10T08:26:12Z</time>
      </trkpt>
      <trkpt lat="45.1142" lon="6.10011">
        <ele>2455.4</ele>
        <time>2021-03-10T08:26:13Z</time>
      </trkpt>
      <trkpt lat="45.1142" lon="6.10012">
        <ele>2456.6</ele>
        <time>2021-03-10T08:26:14Z</time>
      </trkpt>
      <trkpt lat="45.1142" lon="6.10014">
        <ele>2456.6</ele>
        <time>2021-03-10T08:26:15Z</time>
      </trkpt>
      <trkpt lat="45.1142" lon="6.10015">
        <ele>2456.6</ele>
        <time>2021-03-10T08:26:16Z</time>
      </trkpt>
      <trkpt lat="45.1142" lon="6.10017">
        <ele>2457.7</ele>
        <time>2021-03-10T08:26:17Z</time>
      </trkpt>
      <trkpt lat="45.1142" lon="6.10018">
        <ele>2457.7</ele>
        <time>2021-03-10T08:26:18Z</time>
      </trkpt>
      <trkpt lat="45.1142" lon="6.10019">
        <ele>2457.7</ele>
        <time>2021-03-10T08:26:19Z</time>
      </trkpt>
      <trkpt lat="45.1142" lon="6.10021">
        <ele>2458.8</ele>
        <time>2021-03-10T08:26:20Z</time>
      </trkpt>
      <trkpt lat="45.1142" lon="6.10022">
        <ele>2458.8</ele>
        <time>2021-03-10T08:26:21Z</time>
      </trkpt>
      <trkpt lat="45.1142" lon="6.10023">
        <ele>2458.8</ele>
        <time>2021-03-10T08:26:22Z</time>
      </trkpt>
      <trkpt lat="45.1142" lon="6.10024">
        <ele>2458.8</ele>
        <time>2021-03-10T08:26:23Z</time>
      </trkpt>
      <trkpt lat="45.11421" lon="6.10024">
        <ele>2458.9</ele>
        <time>2021-03-10T08:26:24Z</time>
      </trkpt>
      <trkpt lat="45.11421" lon="6.10024">
        <ele>2459.1</ele>
        <time>2021-03-10T08:26:25Z</time>
      </trkpt>
      <trkpt lat="45.11421" lon="6.10024">
        <ele>2459.1</ele>
        <time>2021-03-10T08:26:26Z</time>
      </trkpt>
      <trkpt lat="45.11422" lon="6.10024">
        <ele>2459.1</ele>
        <time>2021-03-10T08:26:27Z</time>
      </trkpt>
      <trkpt lat="45.11423" lon="6.10024">
        <ele>2459.2</ele>
        <time>2021-03-10T08:26:28Z</time>
      </trkpt>
      <trkpt lat="45.11423" lon="6.10023">
        <ele>2459.2</ele>
        <time>2021-03-10T08:26:29Z</time>
      </trkpt>
      <trkpt lat="45.11423" lon="6.10023">
        <ele>2459.2</ele>
        <time>2021-03-10T08:26:30Z</time>
      </trkpt>
      <trkpt lat="45.11424" lon="6.10023">
        <ele>2459.2</ele>
        <time>2021-03-10T08:26:31Z</time>
      </trkpt>
      <trkpt lat="45.11424" lon="6.10023">
        <ele>2459.4</ele>
        <time>2021-03-10T08:26:32Z</time>
      </trkpt>
      <trkpt lat="45.11424" lon="6.10023">
        <ele>2459.5</ele>
        <time>2021-03-10T08:26:33Z</time>
      </trkpt>
      <trkpt lat="45.11425" lon="6.10022">
        <ele>2459.5</ele>
        <time>2021-03-10T08:26:34Z</time>
      </trkpt>
      <trkpt lat="45.11425" lon="6.10022">
        <ele>2459.5</ele>
        <time>2021-03-10T08:26:35Z</time>
      </trkpt>
      <trkpt lat="45.11426" lon="6.10022">
        <ele>2459.5</ele>
        <time>2021-03-10T08:26:36Z</time>
      </trkpt>
      <trkpt lat="45.11427" lon="6.10022">
        <ele>2459.5</ele>
        <time>2021-03-10T08:26:37Z</time>
      </trkpt>
      <trkpt lat="45.11427" lon="6.10022">
        <ele>2459.7</ele>
        <time>2021-03-10T08:26:38Z</time>
      </trkpt>
      <trkpt lat="45.11428" lon="6.10022">
        <ele>2459.8</ele>
        <time>2021-03-10T08:26:39Z</time>
      </trkpt>
      <trkpt lat="45.11428" lon="6.10022">
        <ele>2459.8</ele>
        <time>2021-03-10T08:26:40Z</time>
      </trkpt>
      <trkpt lat="45.11428" lon="6.10022">
        <ele>2459.8</ele>
        <time>2021-03-10T08:26:41Z</time>
      </trkpt>
      <trkpt lat="45.11429" lon="6.10022">
        <ele>2459.8</ele>
        <time>2021-03-10T08:26:42Z</time>
      </trkpt>
      <trkpt lat="45.1143" lon="6.10022">
        <ele>2459.8</ele>
        <time>2021-03-10T08:26:43Z</time>
      </trkpt>
      <trkpt lat="45.1143" lon="6.10023">
        <ele>2460</ele>
        <time>2021-03-10T08:26:44Z</time>
      </trkpt>
      <trkpt lat="45.11431" lon="6.10023">
        <ele>2460</ele>
        <time>2021-03-10T08:26:45Z</time>
      </trkpt>
      <trkpt lat="45.11432" lon="6.10023">
        <ele>2460.1</ele>
        <time>2021-03-10T08:26:46Z</time>
      </trkpt>
      <trkpt lat="45.11433" lon="6.10023">
        <ele>2460.1</ele>
        <time>2021-03-10T08:26:47Z</time>
      </trkpt>
      <trkpt lat="45.11433" lon="6.10023">
        <ele>2460.3</ele>
        <time>2021-03-10T08:26:48Z</time>
      </trkpt>
      <trkpt lat="45.11434" lon="6.10023">
        <ele>2460.3</ele>
        <time>2021-03-10T08:26:49Z</time>
      </trkpt>
      <trkpt lat="45.11435" lon="6.10023">
        <ele>2460.3</ele>
        <time>2021-03-10T08:26:50Z</time>
      </trkpt>
      <trkpt lat="45.11436" lon="6.10023">
        <ele>2460.3</ele>
        <time>2021-03-10T08:26:51Z</time>
      </trkpt>
      <trkpt lat="45.11437" lon="6.10023">
        <ele>2460.5</ele>
        <time>2021-03-10T08:26:52Z</time>
      </trkpt>
      <trkpt lat="45.11437" lon="6.10024">
        <ele>2460.5</ele>
        <time>2021-03-10T08:26:53Z</time>
      </trkpt>
      <trkpt lat="45.11438" lon="6.10025">
        <ele>2461.5</ele>
        <time>2021-03-10T08:26:54Z</time>
      </trkpt>
      <trkpt lat="45.11438" lon="6.10026">
        <ele>2461.5</ele>
        <time>2021-03-10T08:26:55Z</time>
      </trkpt>
      <trkpt lat="45.11438" lon="6.10027">
        <ele>2461.6</ele>
        <time>2021-03-10T08:26:56Z</time>
      </trkpt>
      <trkpt lat="45.11439" lon="6.10027">
        <ele>2461.6</ele>
        <time>2021-03-10T08:26:57Z</time>
      </trkpt>
      <trkpt lat="45.11439" lon="6.10028">
        <ele>2461.7</ele>
        <time>2021-03-10T08:26:58Z</time>
      </trkpt>
      <trkpt lat="45.1144" lon="6.10029">
        <ele>2461.7</ele>
        <time>2021-03-10T08:26:59Z</time>
      </trkpt>
      <trkpt lat="45.1144" lon="6.10029">
        <ele>2462.8</ele>
        <time>2021-03-10T08:27:00Z</time>
      </trkpt>
      <trkpt lat="45.1144" lon="6.1003">
        <ele>2462.8</ele>
        <time>2021-03-10T08:27:01Z</time>
      </trkpt>
      <trkpt lat="45.1144" lon="6.10031">
        <ele>2462.8</ele>
        <time>2021-03-10T08:27:02Z</time>
      </trkpt>
      <trkpt lat="45.11441" lon="6.10033">
        <ele>2462.8</ele>
        <time>2021-03-10T08:27:03Z</time>
      </trkpt>
      <trkpt lat="45.11441" lon="6.10034">
        <ele>2463.9</ele>
        <time>2021-03-10T08:27:04Z</time>
      </trkpt>
      <trkpt lat="45.11441" lon="6.10035">
        <ele>2463.9</ele>
        <time>2021-03-10T08:27:05Z</time>
      </trkpt>
      <trkpt lat="45.11441" lon="6.10036">
        <ele>2463.9</ele>
        <time>2021-03-10T08:27:06Z</time>
      </trkpt>
      <trkpt lat="45.11441" lon="6.10037">
        <ele>2464</ele>
        <time>2021-03-10T08:27:07Z</time>
      </trkpt>
      <trkpt lat="45.11441" lon="6.10038">
        <ele>2465</ele>
        <time>2021-03-10T08:27:08Z</time>
      </trkpt>
      <trkpt lat="45.11441" lon="6.10039">
        <ele>2465</ele>
        <time>2021-03-10T08:27:09Z</time>
      </trkpt>
      <trkpt lat="45.11441" lon="6.1004">
        <ele>2465.1</ele>
        <time>2021-03-10T08:27:10Z</time>
      </trkpt>
      <trkpt lat="45.11441" lon="6.10041">
        <ele>2465.1</ele>
        <time>2021-03-10T08:27:11Z</time>
      </trkpt>
      <trkpt lat="45.11441" lon="6.10042">
        <ele>2466.1</ele>
        <time>2021-03-10T08:27:12Z</time>
      </trkpt>
      <trkpt lat="45.11441" lon="6.10043">
        <ele>2466.1</ele>
        <time>2021-03-10T08:27:13Z</time>
      </trkpt>
      <trkpt lat="45.11441" lon="6.10044">
        <ele>2466.2</ele>
        <time>2021-03-10T08:27:14Z</time>
      </trkpt>
      <trkpt lat="45.11441" lon="6.10045">
        <ele>2466.2</ele>
        <time>2021-03-10T08:27:15Z</time>
      </trkpt>
      <trkpt lat="45.11441" lon="6.10046">
        <ele>2466.2</ele>
        <time>2021-03-10T08:27:16Z</time>
      </trkpt>
      <trkpt lat="45.11441" lon="6.10046">
        <ele>2467.2</ele>
        <time>2021-03-10T08:27:17Z</time>
      </trkpt>
      <trkpt lat="45.11441" lon="6.10047">
        <ele>2467.3</ele>
        <time>2021-03-10T08:27:18Z</time>
      </trkpt>
      <trkpt lat="45.11441" lon="6.10048">
        <ele>2467.3</ele>
        <time>2021-03-10T08:27:19Z</time>
      </trkpt>
      <trkpt lat="45.11441" lon="6.10049">
        <ele>2467.3</ele>
        <time>2021-03-10T08:27:20Z</time>
      </trkpt>
      <trkpt lat="45.11441" lon="6.1005">
        <ele>2468.3</ele>
        <time>2021-03-10T08:27:21Z</time>
      </trkpt>
      <trkpt lat="45.11441" lon="6.10052">
        <ele>2468.3</ele>
        <time>2021-03-10T08:27:22Z</time>
      </trkpt>
      <trkpt lat="45.11441" lon="6.10053">
        <ele>2468.3</ele>
        <time>2021-03-10T08:27:23Z</time>
      </trkpt>
      <trkpt lat="45.11441" lon="6.10054">
        <ele>2468.3</ele>
        <time>2021-03-10T08:27:24Z</time>
      </trkpt>
      <trkpt lat="45.11441" lon="6.10055">
        <ele>2469.3</ele>
        <time>2021-03-10T08:27:25Z</time>
      </trkpt>
      <trkpt lat="45.11441" lon="6.10056">
        <ele>2469.3</ele>
        <time>2021-03-10T08:27:26Z</time>
      </trkpt>
      <trkpt lat="45.11441" lon="6.10056">
        <ele>2469.4</ele>
        <time>2021-03-10T08:27:27Z</time>
      </trkpt>
      <trkpt lat="45.11441" lon="6.10057">
        <ele>2469.4</ele>
        <time>2021-03-10T08:27:28Z</time>
      </trkpt>
      <trkpt lat="45.11441" lon="6.10058">
        <ele>2469.4</ele>
        <time>2021-03-10T08:27:29Z</time>
      </trkpt>
      <trkpt lat="45.11442" lon="6.10058">
        <ele>2469.4</ele>
        <time>2021-03-10T08:27:30Z</time>
      </trkpt>
      <trkpt lat="45.11442" lon="6.10058">
        <ele>2469.6</ele>
        <time>2021-03-10T08:27:31Z</time>
      </trkpt>
      <trkpt lat="45.11443" lon="6.10058">
        <ele>2469.6</ele>
        <time>2021-03-10T08:27:32Z</time>
      </trkpt>
      <trkpt lat="45.11443" lon="6.10058">
        <ele>2469.7</ele>
        <time>2021-03-10T08:27:33Z</time>
      </trkpt>
      <trkpt lat="45.11444" lon="6.10058">
        <ele>2469.7</ele>
        <time>2021-03-10T08:27:34Z</time>
      </trkpt>
      <trkpt lat="45.11445" lon="6.10058">
        <ele>2469.7</ele>
        <time>2021-03-10T08:27:35Z</time>
      </trkpt>
      <trkpt lat="45.11445" lon="6.10058">
        <ele>2469.9</ele>
        <time>2021-03-10T08:27:36Z</time>
      </trkpt>
      <trkpt lat="45.11446" lon="6.10058">
        <ele>2469.9</ele>
        <time>2021-03-10T08:27:37Z</time>
      </trkpt>
      <trkpt lat="45.11446" lon="6.10057">
        <ele>2469.9</ele>
        <time>2021-03-10T08:27:38Z</time>
      </trkpt>
      <trkpt lat="45.11446" lon="6.10057">
        <ele>2470</ele>
        <time>2021-03-10T08:27:39Z</time>
      </trkpt>
      <trkpt lat="45.11447" lon="6.10057">
        <ele>2470</ele>
        <time>2021-03-10T08:27:40Z</time>
      </trkpt>
      <trkpt lat="45.11447" lon="6.10057">
        <ele>2470</ele>
        <time>2021-03-10T08:27:41Z</time>
      </trkpt>
      <trkpt lat="45.11447" lon="6.10057">
        <ele>2470</ele>
        <time>2021-03-10T08:27:42Z</time>
      </trkpt>
      <trkpt lat="45.11456" lon="6.10055">
        <ele>2470.7</ele>
        <time>2021-03-10T08:28:00Z</time>
      </trkpt>
      <trkpt lat="45.11457" lon="6.10055">
        <ele>2470.7</ele>
        <time>2021-03-10T08:28:01Z</time>
      </trkpt>
      <trkpt lat="45.11458" lon="6.10056">
        <ele>2471</ele>
        <time>2021-03-10T08:28:02Z</time>
      </trkpt>
      <trkpt lat="45.11458" lon="6.10056">
        <ele>2471</ele>
        <time>2021-03-10T08:28:03Z</time>
      </trkpt>
      <trkpt lat="45.11459" lon="6.10057">
        <ele>2471</ele>
        <time>2021-03-10T08:28:04Z</time>
      </trkpt>
      <trkpt lat="45.11459" lon="6.10058">
        <ele>2471</ele>
        <time>2021-03-10T08:28:05Z</time>
      </trkpt>
      <trkpt lat="45.11459" lon="6.1006">
        <ele>2472</ele>
        <time>2021-03-10T08:28:06Z</time>
      </trkpt>
      <trkpt lat="45.1146" lon="6.10061">
        <ele>2472</ele>
        <time>2021-03-10T08:28:07Z</time>
      </trkpt>
      <trkpt lat="45.1146" lon="6.10062">
        <ele>2472</ele>
        <time>2021-03-10T08:28:08Z</time>
      </trkpt>
      <trkpt lat="45.1146" lon="6.10064">
        <ele>2473</ele>
        <time>2021-03-10T08:28:09Z</time>
      </trkpt>
      <trkpt lat="45.1146" lon="6.10064">
        <ele>2473</ele>
        <time>2021-03-10T08:28:10Z</time>
      </trkpt>
      <trkpt lat="45.1146" lon="6.10065">
        <ele>2473.3</ele>
        <time>2021-03-10T08:28:11Z</time>
      </trkpt>
      <trkpt lat="45.1146" lon="6.10066">
        <ele>2473.3</ele>
        <time>2021-03-10T08:28:12Z</time>
      </trkpt>
      <trkpt lat="45.1146" lon="6.10067">
        <ele>2473</ele>
        <time>2021-03-10T08:28:13Z</time>
      </trkpt>
      <trkpt lat="45.1146" lon="6.10068">
        <ele>2474</ele>
        <time>2021-03-10T08:28:14Z</time>
      </trkpt>
      <trkpt lat="45.1146" lon="6.10068">
        <ele>2474.3</ele>
        <time>2021-03-10T08:28:15Z</time>
      </trkpt>
      <trkpt lat="45.11461" lon="6.10069">
        <ele>2474.3</ele>
        <time>2021-03-10T08:28:16Z</time>
      </trkpt>
      <trkpt lat="45.11461" lon="6.1007">
        <ele>2474.3</ele>
        <time>2021-03-10T08:28:17Z</time>
      </trkpt>
      <trkpt lat="45.11461" lon="6.10071">
        <ele>2474.3</ele>
        <time>2021-03-10T08:28:18Z</time>
      </trkpt>
      <trkpt lat="45.11461" lon="6.10071">
        <ele>2474.3</ele>
        <time>2021-03-10T08:28:19Z</time>
      </trkpt>
      <trkpt lat="45.11461" lon="6.10072">
        <ele>2475.3</ele>
        <time>2021-03-10T08:28:20Z</time>
      </trkpt>
      <trkpt lat="45.11461" lon="6.10073">
        <ele>2475.3</ele>
        <time>2021-03-10T08:28:21Z</time>
      </trkpt>
      <trkpt lat="45.11461" lon="6.10074">
        <ele>2475.3</ele>
        <time>2021-03-10T08:28:22Z</time>
      </trkpt>
      <trkpt lat="45.11461" lon="6.10075">
        <ele>2475.3</ele>
        <time>2021-03-10T08:28:23Z</time>
      </trkpt>
      <trkpt lat="45.11461" lon="6.10075">
        <ele>2475.3</ele>
        <time>2021-03-10T08:28:24Z</time>
      </trkpt>
      <trkpt lat="45.11461" lon="6.10076">
        <ele>2476.4</ele>
        <time>2021-03-10T08:28:25Z</time>
      </trkpt>
      <trkpt lat="45.11461" lon="6.10077">
        <ele>2476.4</ele>
        <time>2021-03-10T08:28:26Z</time>
      </trkpt>
      <trkpt lat="45.11461" lon="6.1008">
        <ele>2476.4</ele>
        <time>2021-03-10T08:28:27Z</time>
      </trkpt>
      <trkpt lat="45.11461" lon="6.10081">
        <ele>2477.4</ele>
        <time>2021-03-10T08:28:28Z</time>
      </trkpt>
      <trkpt lat="45.11461" lon="6.10082">
        <ele>2477.4</ele>
        <time>2021-03-10T08:28:29Z</time>
      </trkpt>
      <trkpt lat="45.11461" lon="6.10083">
        <ele>2477.5</ele>
        <time>2021-03-10T08:28:30Z</time>
      </trkpt>
      <trkpt lat="45.11461" lon="6.10084">
        <ele>2477.5</ele>
        <time>2021-03-10T08:28:31Z</time>
      </trkpt>
      <trkpt lat="45.1146" lon="6.10086">
        <ele>2478.3</ele>
        <time>2021-03-10T08:28:32Z</time>
      </trkpt>
      <trkpt lat="45.1146" lon="6.10087">
        <ele>2478.3</ele>
        <time>2021-03-10T08:28:33Z</time>
      </trkpt>
      <trkpt lat="45.1146" lon="6.10088">
        <ele>2478.3</ele>
        <time>2021-03-10T08:28:34Z</time>
      </trkpt>
      <trkpt lat="45.1146" lon="6.10089">
        <ele>2478.6</ele>
        <time>2021-03-10T08:28:35Z</time>
      </trkpt>
      <trkpt lat="45.11461" lon="6.10089">
        <ele>2478.6</ele>
        <time>2021-03-10T08:28:36Z</time>
      </trkpt>
      <trkpt lat="45.11461" lon="6.10088">
        <ele>2478.6</ele>
        <time>2021-03-10T08:28:37Z</time>
      </trkpt>
      <trkpt lat="45.11462" lon="6.10088">
        <ele>2478.6</ele>
        <time>2021-03-10T08:28:38Z</time>
      </trkpt>
      <trkpt lat="45.11463" lon="6.10088">
        <ele>2478.6</ele>
        <time>2021-03-10T08:28:39Z</time>
      </trkpt>
      <trkpt lat="45.11463" lon="6.10087">
        <ele>2479</ele>
        <time>2021-03-10T08:28:40Z</time>
      </trkpt>
      <trkpt lat="45.11464" lon="6.10087">
        <ele>2479</ele>
        <time>2021-03-10T08:28:41Z</time>
      </trkpt>
      <trkpt lat="45.11465" lon="6.10087">
        <ele>2479</ele>
        <time>2021-03-10T08:28:42Z</time>
      </trkpt>
      <trkpt lat="45.11465" lon="6.10087">
        <ele>2479</ele>
        <time>2021-03-10T08:28:43Z</time>
      </trkpt>
      <trkpt lat="45.11466" lon="6.10087">
        <ele>2479</ele>
        <time>2021-03-10T08:28:44Z</time>
      </trkpt>
      <trkpt lat="45.11466" lon="6.10087">
        <ele>2479.3</ele>
        <time>2021-03-10T08:28:45Z</time>
      </trkpt>
      <trkpt lat="45.11467" lon="6.10087">
        <ele>2479.4</ele>
        <time>2021-03-10T08:28:46Z</time>
      </trkpt>
      <trkpt lat="45.11467" lon="6.10086">
        <ele>2479.4</ele>
        <time>2021-03-10T08:28:47Z</time>
      </trkpt>
      <trkpt lat="45.11468" lon="6.10086">
        <ele>2479.4</ele>
        <time>2021-03-10T08:28:48Z</time>
      </trkpt>
      <trkpt lat="45.11468" lon="6.10086">
        <ele>2479.4</ele>
        <time>2021-03-10T08:28:49Z</time>
      </trkpt>
      <trkpt lat="45.11469" lon="6.10086">
        <ele>2479.4</ele>
        <time>2021-03-10T08:28:50Z</time>
      </trkpt>
      <trkpt lat="45.1147" lon="6.10086">
        <ele>2479.8</ele>
        <time>2021-03-10T08:28:51Z</time>
      </trkpt>
      <trkpt lat="45.1147" lon="6.10086">
        <ele>2479.8</ele>
        <time>2021-03-10T08:28:52Z</time>
      </trkpt>
      <trkpt lat="45.11471" lon="6.10086">
        <ele>2479.8</ele>
        <time>2021-03-10T08:28:53Z</time>
      </trkpt>
      <trkpt lat="45.11472" lon="6.10086">
        <ele>2479.8</ele>
        <time>2021-03-10T08:28:54Z</time>
      </trkpt>
      <trkpt lat="45.11473" lon="6.10086">
        <ele>2480.2</ele>
        <time>2021-03-10T08:28:55Z</time>
      </trkpt>
      <trkpt lat="45.11474" lon="6.10085">
        <ele>2480.2</ele>
        <time>2021-03-10T08:28:56Z</time>
      </trkpt>
      <trkpt lat="45.11474" lon="6.10086">
        <ele>2480.2</ele>
        <time>2021-03-10T08:28:57Z</time>
      </trkpt>
      <trkpt lat="45.11475" lon="6.10086">
        <ele>2480.2</ele>
        <time>2021-03-10T08:28:58Z</time>
      </trkpt>
      <trkpt lat="45.11476" lon="6.10086">
        <ele>2480.6</ele>
        <time>2021-03-10T08:28:59Z</time>
      </trkpt>
      <trkpt lat="45.11476" lon="6.10086">
        <ele>2480.6</ele>
        <time>2021-03-10T08:29:00Z</time>
      </trkpt>
      <trkpt lat="45.11476" lon="6.10085">
        <ele>2480.6</ele>
        <time>2021-03-10T08:29:01Z</time>
      </trkpt>
      <trkpt lat="45.11477" lon="6.10085">
        <ele>2480.6</ele>
        <time>2021-03-10T08:29:02Z</time>
      </trkpt>
      <trkpt lat="45.11477" lon="6.10085">
        <ele>2480.7</ele>
        <time>2021-03-10T08:29:03Z</time>
      </trkpt>
      <trkpt lat="45.11478" lon="6.10085">
        <ele>2480.7</ele>
        <time>2021-03-10T08:29:04Z</time>
      </trkpt>
      <trkpt lat="45.11479" lon="6.10085">
        <ele>2481</ele>
        <time>2021-03-10T08:29:05Z</time>
      </trkpt>
      <trkpt lat="45.11481" lon="6.10085">
        <ele>2480.2</ele>
        <time>2021-03-10T08:29:08Z</time>
      </trkpt>
      <trkpt lat="45.11482" lon="6.10084">
        <ele>2480.3</ele>
        <time>2021-03-10T08:29:09Z</time>
      </trkpt>
      <trkpt lat="45.11483" lon="6.10084">
        <ele>2480.3</ele>
        <time>2021-03-10T08:29:10Z</time>
      </trkpt>
      <trkpt lat="45.11484" lon="6.10085">
        <ele>2481.4</ele>
        <time>2021-03-10T08:29:11Z</time>
      </trkpt>
      <trkpt lat="45.11484" lon="6.10085">
        <ele>2481.4</ele>
        <time>2021-03-10T08:29:12Z</time>
      </trkpt>
      <trkpt lat="45.11485" lon="6.10086">
        <ele>2481.7</ele>
        <time>2021-03-10T08:29:13Z</time>
      </trkpt>
      <trkpt lat="45.11485" lon="6.10086">
        <ele>2481.7</ele>
        <time>2021-03-10T08:29:14Z</time>
      </trkpt>
      <trkpt lat="45.11485" lon="6.10087">
        <ele>2481.7</ele>
        <time>2021-03-10T08:29:15Z</time>
      </trkpt>
      <trkpt lat="45.11486" lon="6.10088">
        <ele>2481.7</ele>
        <time>2021-03-10T08:29:16Z</time>
      </trkpt>
      <trkpt lat="45.11486" lon="6.10089">
        <ele>2482.8</ele>
        <time>2021-03-10T08:29:17Z</time>
      </trkpt>
      <trkpt lat="45.11486" lon="6.1009">
        <ele>2482.8</ele>
        <time>2021-03-10T08:29:18Z</time>
      </trkpt>
      <trkpt lat="45.11487" lon="6.10091">
        <ele>2482.8</ele>
        <time>2021-03-10T08:29:19Z</time>
      </trkpt>
      <trkpt lat="45.11487" lon="6.10092">
        <ele>2482.8</ele>
        <time>2021-03-10T08:29:20Z</time>
      </trkpt>
      <trkpt lat="45.11487" lon="6.10092">
        <ele>2482.8</ele>
        <time>2021-03-10T08:29:21Z</time>
      </trkpt>
      <trkpt lat="45.11487" lon="6.10093">
        <ele>2482.9</ele>
        <time>2021-03-10T08:29:22Z</time>
      </trkpt>
      <trkpt lat="45.11487" lon="6.10093">
        <ele>2483.9</ele>
        <time>2021-03-10T08:29:23Z</time>
      </trkpt>
      <trkpt lat="45.11487" lon="6.10093">
        <ele>2483.9</ele>
        <time>2021-03-10T08:29:24Z</time>
      </trkpt>
      <trkpt lat="45.11487" lon="6.10095">
        <ele>2483.9</ele>
        <time>2021-03-10T08:29:25Z</time>
      </trkpt>
      <trkpt lat="45.11487" lon="6.10096">
        <ele>2483.9</ele>
        <time>2021-03-10T08:29:26Z</time>
      </trkpt>
      <trkpt lat="45.11487" lon="6.10097">
        <ele>2483.9</ele>
        <time>2021-03-10T08:29:27Z</time>
      </trkpt>
      <trkpt lat="45.11487" lon="6.10098">
        <ele>2484.9</ele>
        <time>2021-03-10T08:29:28Z</time>
      </trkpt>
      <trkpt lat="45.11487" lon="6.10099">
        <ele>2484.9</ele>
        <time>2021-03-10T08:29:29Z</time>
      </trkpt>
      <trkpt lat="45.11487" lon="6.10101">
        <ele>2484.9</ele>
        <time>2021-03-10T08:29:30Z</time>
      </trkpt>
      <trkpt lat="45.11487" lon="6.10102">
        <ele>2485.9</ele>
        <time>2021-03-10T08:29:31Z</time>
      </trkpt>
      <trkpt lat="45.11487" lon="6.10104">
        <ele>2485.9</ele>
        <time>2021-03-10T08:29:32Z</time>
      </trkpt>
      <trkpt lat="45.11487" lon="6.10104">
        <ele>2485.9</ele>
        <time>2021-03-10T08:29:33Z</time>
      </trkpt>
      <trkpt lat="45.11487" lon="6.10105">
        <ele>2485.9</ele>
        <time>2021-03-10T08:29:34Z</time>
      </trkpt>
      <trkpt lat="45.11487" lon="6.10106">
        <ele>2485.9</ele>
        <time>2021-03-10T08:29:35Z</time>
      </trkpt>
      <trkpt lat="45.11487" lon="6.10106">
        <ele>2486.8</ele>
        <time>2021-03-10T08:29:36Z</time>
      </trkpt>
      <trkpt lat="45.11487" lon="6.10107">
        <ele>2486.9</ele>
        <time>2021-03-10T08:29:37Z</time>
      </trkpt>
      <trkpt lat="45.11487" lon="6.10108">
        <ele>2486.9</ele>
        <time>2021-03-10T08:29:38Z</time>
      </trkpt>
      <trkpt lat="45.11487" lon="6.10109">
        <ele>2486.9</ele>
        <time>2021-03-10T08:29:39Z</time>
      </trkpt>
      <trkpt lat="45.11487" lon="6.1011">
        <ele>2487.8</ele>
        <time>2021-03-10T08:29:40Z</time>
      </trkpt>
      <trkpt lat="45.11486" lon="6.10112">
        <ele>2487.8</ele>
        <time>2021-03-10T08:29:41Z</time>
      </trkpt>
      <trkpt lat="45.11486" lon="6.10113">
        <ele>2487.8</ele>
        <time>2021-03-10T08:29:42Z</time>
      </trkpt>
      <trkpt lat="45.11486" lon="6.10114">
        <ele>2487.9</ele>
        <time>2021-03-10T08:29:43Z</time>
      </trkpt>
      <trkpt lat="45.11486" lon="6.10115">
        <ele>2487.9</ele>
        <time>2021-03-10T08:29:44Z</time>
      </trkpt>
      <trkpt lat="45.11485" lon="6.10115">
        <ele>2488.8</ele>
        <time>2021-03-10T08:29:45Z</time>
      </trkpt>
      <trkpt lat="45.11485" lon="6.10116">
        <ele>2488.8</ele>
        <time>2021-03-10T08:29:46Z</time>
      </trkpt>
      <trkpt lat="45.11485" lon="6.10117">
        <ele>2488.8</ele>
        <time>2021-03-10T08:29:47Z</time>
      </trkpt>
      <trkpt lat="45.11485" lon="6.10117">
        <ele>2488.8</ele>
        <time>2021-03-10T08:29:48Z</time>
      </trkpt>
      <trkpt lat="45.11485" lon="6.10118">
        <ele>2488.9</ele>
        <time>2021-03-10T08:29:49Z</time>
      </trkpt>
      <trkpt lat="45.11485" lon="6.10119">
        <ele>2489.8</ele>
        <time>2021-03-10T08:29:50Z</time>
      </trkpt>
      <trkpt lat="45.11479" lon="6.10139">
        <ele>2493.3</ele>
        <time>2021-03-10T08:30:14Z</time>
      </trkpt>
      <trkpt lat="45.11479" lon="6.1014">
        <ele>2493.3</ele>
        <time>2021-03-10T08:30:15Z</time>
      </trkpt>
      <trkpt lat="45.11478" lon="6.10141">
        <ele>2494</ele>
        <time>2021-03-10T08:30:16Z</time>
      </trkpt>
      <trkpt lat="45.11478" lon="6.10141">
        <ele>2494.1</ele>
        <time>2021-03-10T08:30:17Z</time>
      </trkpt>
      <trkpt lat="45.11478" lon="6.10142">
        <ele>2494.1</ele>
        <time>2021-03-10T08:30:18Z</time>
      </trkpt>
      <trkpt lat="45.11477" lon="6.10142">
        <ele>2494.1</ele>
        <time>2021-03-10T08:30:19Z</time>
      </trkpt>
      <trkpt lat="45.11477" lon="6.10143">
        <ele>2494.1</ele>
        <time>2021-03-10T08:30:20Z</time>
      </trkpt>
      <trkpt lat="45.11477" lon="6.10143">
        <ele>2494.1</ele>
        <time>2021-03-10T08:30:21Z</time>
      </trkpt>
      <trkpt lat="45.11477" lon="6.10144">
        <ele>2494.1</ele>
        <time>2021-03-10T08:30:22Z</time>
      </trkpt>
      <trkpt lat="45.11478" lon="6.10145">
        <ele>2495.1</ele>
        <time>2021-03-10T08:30:23Z</time>
      </trkpt>
      <trkpt lat="45.11478" lon="6.10145">
        <ele>2495.1</ele>
        <time>2021-03-10T08:30:24Z</time>
      </trkpt>
      <trkpt lat="45.11479" lon="6.10146">
        <ele>2495.5</ele>
        <time>2021-03-10T08:30:25Z</time>
      </trkpt>
      <trkpt lat="45.11479" lon="6.10146">
        <ele>2495.5</ele>
        <time>2021-03-10T08:30:26Z</time>
      </trkpt>
      <trkpt lat="45.11479" lon="6.10147">
        <ele>2495.5</ele>
        <time>2021-03-10T08:30:27Z</time>
      </trkpt>
      <trkpt lat="45.1148" lon="6.10147">
        <ele>2495.5</ele>
        <time>2021-03-10T08:30:28Z</time>
      </trkpt>
      <trkpt lat="45.1148" lon="6.10148">
        <ele>2495.5</ele>
        <time>2021-03-10T08:30:29Z</time>
      </trkpt>
      <trkpt lat="45.11481" lon="6.10148">
        <ele>2495.5</ele>
        <time>2021-03-10T08:30:30Z</time>
      </trkpt>
      <trkpt lat="45.11481" lon="6.10148">
        <ele>2495.6</ele>
        <time>2021-03-10T08:30:31Z</time>
      </trkpt>
      <trkpt lat="45.11481" lon="6.10148">
        <ele>2495.6</ele>
        <time>2021-03-10T08:30:32Z</time>
      </trkpt>
      <trkpt lat="45.11481" lon="6.10148">
        <ele>2495.6</ele>
        <time>2021-03-10T08:30:33Z</time>
      </trkpt>
      <trkpt lat="45.11481" lon="6.1015">
        <ele>2496.8</ele>
        <time>2021-03-10T08:30:34Z</time>
      </trkpt>
      <trkpt lat="45.11486" lon="6.10153">
        <ele>2497.1</ele>
        <time>2021-03-10T08:30:45Z</time>
      </trkpt>
      <trkpt lat="45.11486" lon="6.10153">
        <ele>2498</ele>
        <time>2021-03-10T08:30:46Z</time>
      </trkpt>
      <trkpt lat="45.11487" lon="6.10154">
        <ele>2498</ele>
        <time>2021-03-10T08:30:47Z</time>
      </trkpt>
      <trkpt lat="45.11487" lon="6.10154">
        <ele>2498.1</ele>
        <time>2021-03-10T08:30:48Z</time>
      </trkpt>
      <trkpt lat="45.11487" lon="6.10154">
        <ele>2498.1</ele>
        <time>2021-03-10T08:30:49Z</time>
      </trkpt>
      <trkpt lat="45.11488" lon="6.10155">
        <ele>2498.3</ele>
        <time>2021-03-10T08:30:50Z</time>
      </trkpt>
      <trkpt lat="45.11488" lon="6.10155">
        <ele>2498.4</ele>
        <time>2021-03-10T08:30:51Z</time>
      </trkpt>
      <trkpt lat="45.11489" lon="6.10156">
        <ele>2498.4</ele>
        <time>2021-03-10T08:30:52Z</time>
      </trkpt>
      <trkpt lat="45.11489" lon="6.10156">
        <ele>2498.4</ele>
        <time>2021-03-10T08:30:53Z</time>
      </trkpt>
      <trkpt lat="45.1149" lon="6.10157">
        <ele>2498.4</ele>
        <time>2021-03-10T08:30:54Z</time>
      </trkpt>
      <trkpt lat="45.11491" lon="6.10157">
        <ele>2498.7</ele>
        <time>2021-03-10T08:30:55Z</time>
      </trkpt>
      <trkpt lat="45.11492" lon="6.10158">
        <ele>2499.6</ele>
        <time>2021-03-10T08:30:56Z</time>
      </trkpt>
      <trkpt lat="45.11493" lon="6.10158">
        <ele>2499.6</ele>
        <time>2021-03-10T08:30:57Z</time>
      </trkpt>
      <trkpt lat="45.11494" lon="6.10158">
        <ele>2499.9</ele>
        <time>2021-03-10T08:30:58Z</time>
      </trkpt>
      <trkpt lat="45.11495" lon="6.10158">
        <ele>2499.9</ele>
        <time>2021-03-10T08:30:59Z</time>
      </trkpt>
      <trkpt lat="45.11496" lon="6.10158">
        <ele>2499.9</ele>
        <time>2021-03-10T08:31:00Z</time>
      </trkpt>
      <trkpt lat="45.11496" lon="6.10159">
        <ele>2500</ele>
        <time>2021-03-10T08:31:01Z</time>
      </trkpt>
      <trkpt lat="45.11497" lon="6.10159">
        <ele>2500</ele>
        <time>2021-03-10T08:31:02Z</time>
      </trkpt>
      <trkpt lat="45.11497" lon="6.10159">
        <ele>2500.3</ele>
        <time>2021-03-10T08:31:03Z</time>
      </trkpt>
      <trkpt lat="45.11497" lon="6.10159">
        <ele>2500.3</ele>
        <time>2021-03-10T08:31:04Z</time>
      </trkpt>
      <trkpt lat="45.11498" lon="6.10159">
        <ele>2500.3</ele>
        <time>2021-03-10T08:31:05Z</time>
      </trkpt>
      <trkpt lat="45.11498" lon="6.1016">
        <ele>2500.3</ele>
        <time>2021-03-10T08:31:06Z</time>
      </trkpt>
      <trkpt lat="45.11499" lon="6.1016">
        <ele>2500.3</ele>
        <time>2021-03-10T08:31:07Z</time>
      </trkpt>
      <trkpt lat="45.11499" lon="6.1016">
        <ele>2500.4</ele>
        <time>2021-03-10T08:31:08Z</time>
      </trkpt>
      <trkpt lat="45.11499" lon="6.1016">
        <ele>2500.4</ele>
        <time>2021-03-10T08:31:09Z</time>
      </trkpt>
      <trkpt lat="45.115" lon="6.1016">
        <ele>2500.7</ele>
        <time>2021-03-10T08:31:10Z</time>
      </trkpt>
      <trkpt lat="45.115" lon="6.10161">
        <ele>2500.7</ele>
        <time>2021-03-10T08:31:11Z</time>
      </trkpt>
      <trkpt lat="45.11501" lon="6.10161">
        <ele>2500.7</ele>
        <time>2021-03-10T08:31:12Z</time>
      </trkpt>
      <trkpt lat="45.11501" lon="6.10161">
        <ele>2500.7</ele>
        <time>2021-03-10T08:31:13Z</time>
      </trkpt>
      <trkpt lat="45.11502" lon="6.10161">
        <ele>2500.7</ele>
        <time>2021-03-10T08:31:14Z</time>
      </trkpt>
      <trkpt lat="45.11503" lon="6.10161">
        <ele>2501.1</ele>
        <time>2021-03-10T08:31:15Z</time>
      </trkpt>
      <trkpt lat="45.11503" lon="6.10161">
        <ele>2501.1</ele>
        <time>2021-03-10T08:31:16Z</time>
      </trkpt>
      <trkpt lat="45.11504" lon="6.10161">
        <ele>2501.1</ele>
        <time>2021-03-10T08:31:17Z</time>
      </trkpt>
      <trkpt lat="45.11505" lon="6.10161">
        <ele>2501.1</ele>
        <time>2021-03-10T08:31:18Z</time>
      </trkpt>
      <trkpt lat="45.11505" lon="6.10161">
        <ele>2501.1</ele>
        <time>2021-03-10T08:31:19Z</time>
      </trkpt>
      <trkpt lat="45.11506" lon="6.10161">
        <ele>2501.4</ele>
        <time>2021-03-10T08:31:20Z</time>
      </trkpt>
      <trkpt lat="45.11506" lon="6.10162">
        <ele>2501.5</ele>
        <time>2021-03-10T08:31:21Z</time>
      </trkpt>
      <trkpt lat="45.11507" lon="6.10162">
        <ele>2501.5</ele>
        <time>2021-03-10T08:31:22Z</time>
      </trkpt>
      <trkpt lat="45.11507" lon="6.10162">
        <ele>2502.4</ele>
        <time>2021-03-10T08:31:23Z</time>
      </trkpt>
      <trkpt lat="45.11507" lon="6.10162">
        <ele>2502.4</ele>
        <time>2021-03-10T08:31:24Z</time>
      </trkpt>
      <trkpt lat="45.11507" lon="6.10162">
        <ele>2502.4</ele>
        <time>2021-03-10T08:31:25Z</time>
      </trkpt>
      <trkpt lat="45.11508" lon="6.10162">
        <ele>2502.4</ele>
        <time>2021-03-10T08:31:26Z</time>
      </trkpt>
      <trkpt lat="45.11508" lon="6.10162">
        <ele>2502.4</ele>
        <time>2021-03-10T08:31:27Z</time>
      </trkpt>
      <trkpt lat="45.11509" lon="6.10162">
        <ele>2502.7</ele>
        <time>2021-03-10T08:31:28Z</time>
      </trkpt>
      <trkpt lat="45.1151" lon="6.10162">
        <ele>2502.8</ele>
        <time>2021-03-10T08:31:29Z</time>
      </trkpt>
      <trkpt lat="45.11513" lon="6.10161">
        <ele>2502.3</ele>
        <time>2021-03-10T08:31:34Z</time>
      </trkpt>
      <trkpt lat="45.11514" lon="6.10161">
        <ele>2502.3</ele>
        <time>2021-03-10T08:31:35Z</time>
      </trkpt>
      <trkpt lat="45.11514" lon="6.10161">
        <ele>2502.3</ele>
        <time>2021-03-10T08:31:36Z</time>
      </trkpt>
      <trkpt lat="45.11515" lon="6.10161">
        <ele>2502.7</ele>
        <time>2021-03-10T08:31:37Z</time>
      </trkpt>
      <trkpt lat="45.11516" lon="6.10161">
        <ele>2502.7</ele>
        <time>2021-03-10T08:31:38Z</time>
      </trkpt>
      <trkpt lat="45.11517" lon="6.10161">
        <ele>2502.7</ele>
        <time>2021-03-10T08:31:39Z</time>
      </trkpt>
      <trkpt lat="45.11518" lon="6.1016">
        <ele>2502.7</ele>
        <time>2021-03-10T08:31:40Z</time>
      </trkpt>
      <trkpt lat="45.11518" lon="6.1016">
        <ele>2503.2</ele>
        <time>2021-03-10T08:31:41Z</time>
      </trkpt>
      <trkpt lat="45.11519" lon="6.1016">
        <ele>2503.2</ele>
        <time>2021-03-10T08:31:42Z</time>
      </trkpt>
      <trkpt lat="45.1152" lon="6.1016">
        <ele>2503.2</ele>
        <time>2021-03-10T08:31:43Z</time>
      </trkpt>
      <trkpt lat="45.11521" lon="6.1016">
        <ele>2503.2</ele>
        <time>2021-03-10T08:31:44Z</time>
      </trkpt>
      <trkpt lat="45.11521" lon="6.1016">
        <ele>2503.6</ele>
        <time>2021-03-10T08:31:45Z</time>
      </trkpt>
      <trkpt lat="45.11522" lon="6.1016">
        <ele>2503.7</ele>
        <time>2021-03-10T08:31:46Z</time>
      </trkpt>
      <trkpt lat="45.11522" lon="6.1016">
        <ele>2503.7</ele>
        <time>2021-03-10T08:31:47Z</time>
      </trkpt>
      <trkpt lat="45.11522" lon="6.1016">
        <ele>2503.7</ele>
        <time>2021-03-10T08:31:48Z</time>
      </trkpt>
      <trkpt lat="45.11522" lon="6.10161">
        <ele>2503.7</ele>
        <time>2021-03-10T08:31:49Z</time>
      </trkpt>
      <trkpt lat="45.11523" lon="6.10162">
        <ele>2503.7</ele>
        <time>2021-03-10T08:31:50Z</time>
      </trkpt>
      <trkpt lat="45.11523" lon="6.10163">
        <ele>2504.6</ele>
        <time>2021-03-10T08:31:51Z</time>
      </trkpt>
      <trkpt lat="45.11523" lon="6.10164">
        <ele>2504.6</ele>
        <time>2021-03-10T08:31:52Z</time>
      </trkpt>
      <trkpt lat="45.11523" lon="6.10164">
        <ele>2504.6</ele>
        <time>2021-03-10T08:31:53Z</time>
      </trkpt>
      <trkpt lat="45.11524" lon="6.10166">
        <ele>2504.6</ele>
        <time>2021-03-10T08:31:54Z</time>
      </trkpt>
      <trkpt lat="45.11524" lon="6.10167">
        <ele>2505.9</ele>
        <time>2021-03-10T08:31:55Z</time>
      </trkpt>
      <trkpt lat="45.11524" lon="6.10168">
        <ele>2506</ele>
        <time>2021-03-10T08:31:56Z</time>
      </trkpt>
      <trkpt lat="45.11524" lon="6.10169">
        <ele>2506</ele>
        <time>2021-03-10T08:31:57Z</time>
      </trkpt>
      <trkpt lat="45.11524" lon="6.1017">
        <ele>2506</ele>
        <time>2021-03-10T08:31:58Z</time>
      </trkpt>
      <trkpt lat="45.11524" lon="6.10171">
        <ele>2506.9</ele>
        <time>2021-03-10T08:31:59Z</time>
      </trkpt>
      <trkpt lat="45.11524" lon="6.10172">
        <ele>2506.9</ele>
        <time>2021-03-10T08:32:00Z</time>
      </trkpt>
      <trkpt lat="45.11524" lon="6.10173">
        <ele>2506.9</ele>
        <time>2021-03-10T08:32:01Z</time>
      </trkpt>
      <trkpt lat="45.11525" lon="6.10174">
        <ele>2506.9</ele>
        <time>2021-03-10T08:32:02Z</time>
      </trkpt>
      <trkpt lat="45.11525" lon="6.10175">
        <ele>2507.8</ele>
        <time>2021-03-10T08:32:03Z</time>
      </trkpt>
      <trkpt lat="45.11525" lon="6.10176">
        <ele>2507.8</ele>
        <time>2021-03-10T08:32:04Z</time>
      </trkpt>
      <trkpt lat="45.11525" lon="6.10177">
        <ele>2507.8</ele>
        <time>2021-03-10T08:32:05Z</time>
      </trkpt>
      <trkpt lat="45.11525" lon="6.10178">
        <ele>2507.8</ele>
        <time>2021-03-10T08:32:06Z</time>
      </trkpt>
      <trkpt lat="45.11525" lon="6.10179">
        <ele>2508.7</ele>
        <time>2021-03-10T08:32:07Z</time>
      </trkpt>
      <trkpt lat="45.11525" lon="6.1018">
        <ele>2508.7</ele>
        <time>2021-03-10T08:32:08Z</time>
      </trkpt>
      <trkpt lat="45.11525" lon="6.10181">
        <ele>2508.8</ele>
        <time>2021-03-10T08:32:09Z</time>
      </trkpt>
      <trkpt lat="45.11525" lon="6.10181">
        <ele>2508.8</ele>
        <time>2021-03-10T08:32:10Z</time>
      </trkpt>
      <trkpt lat="45.11525" lon="6.10182">
        <ele>2508.8</ele>
        <time>2021-03-10T08:32:11Z</time>
      </trkpt>
      <trkpt lat="45.11525" lon="6.10183">
        <ele>2508.8</ele>
        <time>2021-03-10T08:32:12Z</time>
      </trkpt>
      <trkpt lat="45.11525" lon="6.10184">
        <ele>2509.7</ele>
        <time>2021-03-10T08:32:13Z</time>
      </trkpt>
      <trkpt lat="45.11525" lon="6.10184">
        <ele>2509.7</ele>
        <time>2021-03-10T08:32:14Z</time>
      </trkpt>
      <trkpt lat="45.11525" lon="6.10185">
        <ele>2509.7</ele>
        <time>2021-03-10T08:32:15Z</time>
      </trkpt>
      <trkpt lat="45.11524" lon="6.10186">
        <ele>2509.7</ele>
        <time>2021-03-10T08:32:16Z</time>
      </trkpt>
      <trkpt lat="45.11524" lon="6.10187">
        <ele>2509.7</ele>
        <time>2021-03-10T08:32:17Z</time>
      </trkpt>
      <trkpt lat="45.11524" lon="6.10188">
        <ele>2510.6</ele>
        <time>2021-03-10T08:32:18Z</time>
      </trkpt>
      <trkpt lat="45.11524" lon="6.10188">
        <ele>2510.6</ele>
        <time>2021-03-10T08:32:19Z</time>
      </trkpt>
      <trkpt lat="45.11524" lon="6.10189">
        <ele>2510.6</ele>
        <time>2021-03-10T08:32:20Z</time>
      </trkpt>
      <trkpt lat="45.11525" lon="6.1019">
        <ele>2510.6</ele>
        <time>2021-03-10T08:32:21Z</time>
      </trkpt>
      <trkpt lat="45.11524" lon="6.1019">
        <ele>2510.6</ele>
        <time>2021-03-10T08:32:22Z</time>
      </trkpt>
      <trkpt lat="45.11525" lon="6.10191">
        <ele>2510.6</ele>
        <time>2021-03-10T08:32:23Z</time>
      </trkpt>
      <trkpt lat="45.11525" lon="6.10192">
        <ele>2510.7</ele>
        <time>2021-03-10T08:32:24Z</time>
      </trkpt>
      <trkpt lat="45.11524" lon="6.10192">
        <ele>2511.5</ele>
        <time>2021-03-10T08:32:25Z</time>
      </trkpt>
      <trkpt lat="45.11524" lon="6.10193">
        <ele>2511.5</ele>
        <time>2021-03-10T08:32:26Z</time>
      </trkpt>
      <trkpt lat="45.11524" lon="6.10194">
        <ele>2511.5</ele>
        <time>2021-03-10T08:32:27Z</time>
      </trkpt>
      <trkpt lat="45.11525" lon="6.10195">
        <ele>2511.6</ele>
        <time>2021-03-10T08:32:28Z</time>
      </trkpt>
      <trkpt lat="45.11525" lon="6.10195">
        <ele>2511.6</ele>
        <time>2021-03-10T08:32:29Z</time>
      </trkpt>
      <trkpt lat="45.11525" lon="6.10196">
        <ele>2511.6</ele>
        <time>2021-03-10T08:32:30Z</time>
      </trkpt>
      <trkpt lat="45.11526" lon="6.10196">
        <ele>2511.6</ele>
        <time>2021-03-10T08:32:31Z</time>
      </trkpt>
      <trkpt lat="45.11526" lon="6.10197">
        <ele>2512.5</ele>
        <time>2021-03-10T08:32:32Z</time>
      </trkpt>
      <trkpt lat="45.11526" lon="6.10197">
        <ele>2512.5</ele>
        <time>2021-03-10T08:32:33Z</time>
      </trkpt>
      <trkpt lat="45.11526" lon="6.10197">
        <ele>2512.5</ele>
        <time>2021-03-10T08:32:34Z</time>
      </trkpt>
      <trkpt lat="45.11527" lon="6.10198">
        <ele>2513</ele>
        <time>2021-03-10T08:32:35Z</time>
      </trkpt>
      <trkpt lat="45.11527" lon="6.10198">
        <ele>2513</ele>
        <time>2021-03-10T08:32:36Z</time>
      </trkpt>
      <trkpt lat="45.11528" lon="6.10198">
        <ele>2513</ele>
        <time>2021-03-10T08:32:37Z</time>
      </trkpt>
      <trkpt lat="45.11528" lon="6.10199">
        <ele>2513</ele>
        <time>2021-03-10T08:32:38Z</time>
      </trkpt>
      <trkpt lat="45.11529" lon="6.10199">
        <ele>2513</ele>
        <time>2021-03-10T08:32:39Z</time>
      </trkpt>
      <trkpt lat="45.11529" lon="6.10199">
        <ele>2513</ele>
        <time>2021-03-10T08:32:40Z</time>
      </trkpt>
      <trkpt lat="45.11529" lon="6.10199">
        <ele>2513</ele>
        <time>2021-03-10T08:32:41Z</time>
      </trkpt>
      <trkpt lat="45.1153" lon="6.10199">
        <ele>2513.1</ele>
        <time>2021-03-10T08:32:42Z</time>
      </trkpt>
      <trkpt lat="45.1153" lon="6.10199">
        <ele>2513.6</ele>
        <time>2021-03-10T08:32:43Z</time>
      </trkpt>
      <trkpt lat="45.11531" lon="6.10199">
        <ele>2513.6</ele>
        <time>2021-03-10T08:32:44Z</time>
      </trkpt>
      <trkpt lat="45.11532" lon="6.10199">
        <ele>2513.6</ele>
        <time>2021-03-10T08:32:45Z</time>
      </trkpt>
      <trkpt lat="45.11532" lon="6.102">
        <ele>2513.6</ele>
        <time>2021-03-10T08:32:46Z</time>
      </trkpt>
      <trkpt lat="45.11533" lon="6.102">
        <ele>2513.6</ele>
        <time>2021-03-10T08:32:47Z</time>
      </trkpt>
      <trkpt lat="45.11533" lon="6.102">
        <ele>2514.1</ele>
        <time>2021-03-10T08:32:48Z</time>
      </trkpt>
      <trkpt lat="45.11534" lon="6.102">
        <ele>2514.1</ele>
        <time>2021-03-10T08:32:49Z</time>
      </trkpt>
      <trkpt lat="45.11534" lon="6.102">
        <ele>2514.2</ele>
        <time>2021-03-10T08:32:50Z</time>
      </trkpt>
      <trkpt lat="45.11535" lon="6.102">
        <ele>2514.2</ele>
        <time>2021-03-10T08:32:51Z</time>
      </trkpt>
      <trkpt lat="45.11535" lon="6.102">
        <ele>2514.2</ele>
        <time>2021-03-10T08:32:52Z</time>
      </trkpt>
      <trkpt lat="45.11536" lon="6.102">
        <ele>2514.2</ele>
        <time>2021-03-10T08:32:53Z</time>
      </trkpt>
      <trkpt lat="45.11536" lon="6.102">
        <ele>2514.7</ele>
        <time>2021-03-10T08:32:54Z</time>
      </trkpt>
      <trkpt lat="45.11537" lon="6.102">
        <ele>2514.7</ele>
        <time>2021-03-10T08:32:55Z</time>
      </trkpt>
      <trkpt lat="45.11537" lon="6.102">
        <ele>2514.7</ele>
        <time>2021-03-10T08:32:56Z</time>
      </trkpt>
      <trkpt lat="45.11538" lon="6.10201">
        <ele>2515.6</ele>
        <time>2021-03-10T08:32:57Z</time>
      </trkpt>
      <trkpt lat="45.11539" lon="6.10201">
        <ele>2515.6</ele>
        <time>2021-03-10T08:32:58Z</time>
      </trkpt>
      <trkpt lat="45.11539" lon="6.10201">
        <ele>2516.1</ele>
        <time>2021-03-10T08:32:59Z</time>
      </trkpt>
      <trkpt lat="45.1154" lon="6.10201">
        <ele>2516.1</ele>
        <time>2021-03-10T08:33:00Z</time>
      </trkpt>
      <trkpt lat="45.1154" lon="6.10201">
        <ele>2516.1</ele>
        <time>2021-03-10T08:33:01Z</time>
      </trkpt>
      <trkpt lat="45.11541" lon="6.10201">
        <ele>2516.1</ele>
        <time>2021-03-10T08:33:02Z</time>
      </trkpt>
      <trkpt lat="45.11541" lon="6.10201">
        <ele>2516.1</ele>
        <time>2021-03-10T08:33:03Z</time>
      </trkpt>
      <trkpt lat="45.11542" lon="6.10201">
        <ele>2516.1</ele>
        <time>2021-03-10T08:33:04Z</time>
      </trkpt>
      <trkpt lat="45.11543" lon="6.10201">
        <ele>2516.6</ele>
        <time>2021-03-10T08:33:05Z</time>
      </trkpt>
      <trkpt lat="45.11543" lon="6.10201">
        <ele>2516.6</ele>
        <time>2021-03-10T08:33:06Z</time>
      </trkpt>
      <trkpt lat="45.11544" lon="6.10201">
        <ele>2516.6</ele>
        <time>2021-03-10T08:33:07Z</time>
      </trkpt>
      <trkpt lat="45.11545" lon="6.10201">
        <ele>2516.6</ele>
        <time>2021-03-10T08:33:08Z</time>
      </trkpt>
      <trkpt lat="45.11546" lon="6.10202">
        <ele>2517.1</ele>
        <time>2021-03-10T08:33:09Z</time>
      </trkpt>
      <trkpt lat="45.11546" lon="6.10202">
        <ele>2517.1</ele>
        <time>2021-03-10T08:33:10Z</time>
      </trkpt>
      <trkpt lat="45.11547" lon="6.10202">
        <ele>2517.1</ele>
        <time>2021-03-10T08:33:11Z</time>
      </trkpt>
      <trkpt lat="45.11548" lon="6.10202">
        <ele>2517.1</ele>
        <time>2021-03-10T08:33:12Z</time>
      </trkpt>
      <trkpt lat="45.11548" lon="6.10202">
        <ele>2517.6</ele>
        <time>2021-03-10T08:33:13Z</time>
      </trkpt>
      <trkpt lat="45.11549" lon="6.10201">
        <ele>2517.6</ele>
        <time>2021-03-10T08:33:14Z</time>
      </trkpt>
      <trkpt lat="45.1155" lon="6.10201">
        <ele>2517.6</ele>
        <time>2021-03-10T08:33:15Z</time>
      </trkpt>
      <trkpt lat="45.1155" lon="6.10201">
        <ele>2517.6</ele>
        <time>2021-03-10T08:33:16Z</time>
      </trkpt>
      <trkpt lat="45.11551" lon="6.102">
        <ele>2517.2</ele>
        <time>2021-03-10T08:33:17Z</time>
      </trkpt>
      <trkpt lat="45.11552" lon="6.102">
        <ele>2517.2</ele>
        <time>2021-03-10T08:33:18Z</time>
      </trkpt>
      <trkpt lat="45.11553" lon="6.102">
        <ele>2517.3</ele>
        <time>2021-03-10T08:33:19Z</time>
      </trkpt>
      <trkpt lat="45.11553" lon="6.10199">
        <ele>2517.3</ele>
        <time>2021-03-10T08:33:20Z</time>
      </trkpt>
      <trkpt lat="45.11554" lon="6.10199">
        <ele>2517.8</ele>
        <time>2021-03-10T08:33:21Z</time>
      </trkpt>
      <trkpt lat="45.11555" lon="6.10198">
        <ele>2517.8</ele>
        <time>2021-03-10T08:33:22Z</time>
      </trkpt>
      <trkpt lat="45.11556" lon="6.10198">
        <ele>2517.8</ele>
        <time>2021-03-10T08:33:23Z</time>
      </trkpt>
      <trkpt lat="45.11557" lon="6.10198">
        <ele>2517.8</ele>
        <time>2021-03-10T08:33:24Z</time>
      </trkpt>
      <trkpt lat="45.11557" lon="6.10199">
        <ele>2517.8</ele>
        <time>2021-03-10T08:33:25Z</time>
      </trkpt>
      <trkpt lat="45.11557" lon="6.102">
        <ele>2518.4</ele>
        <time>2021-03-10T08:33:26Z</time>
      </trkpt>
      <trkpt lat="45.11558" lon="6.10201">
        <ele>2519.3</ele>
        <time>2021-03-10T08:33:27Z</time>
      </trkpt>
      <trkpt lat="45.11558" lon="6.10202">
        <ele>2519.3</ele>
        <time>2021-03-10T08:33:28Z</time>
      </trkpt>
      <trkpt lat="45.11559" lon="6.10203">
        <ele>2519.4</ele>
        <time>2021-03-10T08:33:29Z</time>
      </trkpt>
      <trkpt lat="45.11559" lon="6.10204">
        <ele>2519.4</ele>
        <time>2021-03-10T08:33:30Z</time>
      </trkpt>
      <trkpt lat="45.11559" lon="6.10205">
        <ele>2520.4</ele>
        <time>2021-03-10T08:33:31Z</time>
      </trkpt>
      <trkpt lat="45.11559" lon="6.10205">
        <ele>2520.4</ele>
        <time>2021-03-10T08:33:32Z</time>
      </trkpt>
      <trkpt lat="45.11559" lon="6.10206">
        <ele>2520.4</ele>
        <time>2021-03-10T08:33:33Z</time>
      </trkpt>
      <trkpt lat="45.11559" lon="6.10207">
        <ele>2520.4</ele>
        <time>2021-03-10T08:33:34Z</time>
      </trkpt>
      <trkpt lat="45.11559" lon="6.10208">
        <ele>2520.4</ele>
        <time>2021-03-10T08:33:35Z</time>
      </trkpt>
      <trkpt lat="45.11559" lon="6.10209">
        <ele>2520.4</ele>
        <time>2021-03-10T08:33:36Z</time>
      </trkpt>
      <trkpt lat="45.11559" lon="6.1021">
        <ele>2521.4</ele>
        <time>2021-03-10T08:33:37Z</time>
      </trkpt>
      <trkpt lat="45.11559" lon="6.1021">
        <ele>2521.4</ele>
        <time>2021-03-10T08:33:38Z</time>
      </trkpt>
      <trkpt lat="45.11559" lon="6.10211">
        <ele>2521.4</ele>
        <time>2021-03-10T08:33:39Z</time>
      </trkpt>
      <trkpt lat="45.11559" lon="6.10211">
        <ele>2521.5</ele>
        <time>2021-03-10T08:33:40Z</time>
      </trkpt>
      <trkpt lat="45.1156" lon="6.10212">
        <ele>2521.5</ele>
        <time>2021-03-10T08:33:41Z</time>
      </trkpt>
      <trkpt lat="45.1156" lon="6.10213">
        <ele>2521.5</ele>
        <time>2021-03-10T08:33:42Z</time>
      </trkpt>
      <trkpt lat="45.1156" lon="6.10214">
        <ele>2522.5</ele>
        <time>2021-03-10T08:33:43Z</time>
      </trkpt>
      <trkpt lat="45.1156" lon="6.10215">
        <ele>2522.5</ele>
        <time>2021-03-10T08:33:44Z</time>
      </trkpt>
      <trkpt lat="45.1156" lon="6.10215">
        <ele>2522.5</ele>
        <time>2021-03-10T08:33:45Z</time>
      </trkpt>
      <trkpt lat="45.1156" lon="6.10216">
        <ele>2522.6</ele>
        <time>2021-03-10T08:33:46Z</time>
      </trkpt>
      <trkpt lat="45.11559" lon="6.10217">
        <ele>2522.6</ele>
        <time>2021-03-10T08:33:47Z</time>
      </trkpt>
      <trkpt lat="45.11559" lon="6.10218">
        <ele>2523.6</ele>
        <time>2021-03-10T08:33:48Z</time>
      </trkpt>
      <trkpt lat="45.11559" lon="6.10219">
        <ele>2523.6</ele>
        <time>2021-03-10T08:33:49Z</time>
      </trkpt>
      <trkpt lat="45.11559" lon="6.1022">
        <ele>2523.7</ele>
        <time>2021-03-10T08:33:50Z</time>
      </trkpt>
      <trkpt lat="45.11559" lon="6.10221">
        <ele>2523.7</ele>
        <time>2021-03-10T08:33:51Z</time>
      </trkpt>
      <trkpt lat="45.11559" lon="6.10222">
        <ele>2524.7</ele>
        <time>2021-03-10T08:33:52Z</time>
      </trkpt>
      <trkpt lat="45.11559" lon="6.10223">
        <ele>2524.7</ele>
        <time>2021-03-10T08:33:53Z</time>
      </trkpt>
      <trkpt lat="45.11559" lon="6.10224">
        <ele>2524.8</ele>
        <time>2021-03-10T08:33:54Z</time>
      </trkpt>
      <trkpt lat="45.11559" lon="6.10225">
        <ele>2524.8</ele>
        <time>2021-03-10T08:33:55Z</time>
      </trkpt>
      <trkpt lat="45.11559" lon="6.10226">
        <ele>2524.8</ele>
        <time>2021-03-10T08:33:56Z</time>
      </trkpt>
      <trkpt lat="45.11559" lon="6.10227">
        <ele>2525.8</ele>
        <time>2021-03-10T08:33:57Z</time>
      </trkpt>
      <trkpt lat="45.11559" lon="6.10227">
        <ele>2525.8</ele>
        <time>2021-03-10T08:33:58Z</time>
      </trkpt>
      <trkpt lat="45.11559" lon="6.10227">
        <ele>2525.8</ele>
        <time>2021-03-10T08:33:59Z</time>
      </trkpt>
      <trkpt lat="45.11559" lon="6.10227">
        <ele>2525.8</ele>
        <time>2021-03-10T08:34:00Z</time>
      </trkpt>
      <trkpt lat="45.11559" lon="6.10228">
        <ele>2525.9</ele>
        <time>2021-03-10T08:34:01Z</time>
      </trkpt>
      <trkpt lat="45.11558" lon="6.10229">
        <ele>2525.9</ele>
        <time>2021-03-10T08:34:02Z</time>
      </trkpt>
      <trkpt lat="45.11558" lon="6.10229">
        <ele>2525.9</ele>
        <time>2021-03-10T08:34:03Z</time>
      </trkpt>
      <trkpt lat="45.11557" lon="6.1023">
        <ele>2525.9</ele>
        <time>2021-03-10T08:34:04Z</time>
      </trkpt>
      <trkpt lat="45.11557" lon="6.1023">
        <ele>2525.3</ele>
        <time>2021-03-10T08:34:05Z</time>
      </trkpt>
      <trkpt lat="45.11557" lon="6.1023">
        <ele>2525.3</ele>
        <time>2021-03-10T08:34:06Z</time>
      </trkpt>
      <trkpt lat="45.11556" lon="6.1023">
        <ele>2525.4</ele>
        <time>2021-03-10T08:34:07Z</time>
      </trkpt>
      <trkpt lat="45.11556" lon="6.1023">
        <ele>2525.4</ele>
        <time>2021-03-10T08:34:08Z</time>
      </trkpt>
      <trkpt lat="45.11555" lon="6.10231">
        <ele>2526.3</ele>
        <time>2021-03-10T08:34:09Z</time>
      </trkpt>
      <trkpt lat="45.11555" lon="6.10231">
        <ele>2526.4</ele>
        <time>2021-03-10T08:34:10Z</time>
      </trkpt>
      <trkpt lat="45.11554" lon="6.10231">
        <ele>2526.4</ele>
        <time>2021-03-10T08:34:11Z</time>
      </trkpt>
      <trkpt lat="45.11554" lon="6.10231">
        <ele>2525.8</ele>
        <time>2021-03-10T08:34:12Z</time>
      </trkpt>
      <trkpt lat="45.11553" lon="6.10232">
        <ele>2525.8</ele>
        <time>2021-03-10T08:34:13Z</time>
      </trkpt>
      <trkpt lat="45.11552" lon="6.10232">
        <ele>2525.8</ele>
        <time>2021-03-10T08:34:14Z</time>
      </trkpt>
      <trkpt lat="45.11552" lon="6.10232">
        <ele>2525.9</ele>
        <time>2021-03-10T08:34:15Z</time>
      </trkpt>
      <trkpt lat="45.11551" lon="6.10232">
        <ele>2525.3</ele>
        <time>2021-03-10T08:34:16Z</time>
      </trkpt>
      <trkpt lat="45.1155" lon="6.10233">
        <ele>2525.3</ele>
        <time>2021-03-10T08:34:17Z</time>
      </trkpt>
      <trkpt lat="45.1155" lon="6.10233">
        <ele>2525.4</ele>
        <time>2021-03-10T08:34:18Z</time>
      </trkpt>
      <trkpt lat="45.11549" lon="6.10233">
        <ele>2525.4</ele>
        <time>2021-03-10T08:34:19Z</time>
      </trkpt>
      <trkpt lat="45.11548" lon="6.10233">
        <ele>2524.9</ele>
        <time>2021-03-10T08:34:20Z</time>
      </trkpt>
      <trkpt lat="45.11547" lon="6.10233">
        <ele>2524.9</ele>
        <time>2021-03-10T08:34:21Z</time>
      </trkpt>
      <trkpt lat="45.11547" lon="6.10233">
        <ele>2524.9</ele>
        <time>2021-03-10T08:34:22Z</time>
      </trkpt>
      <trkpt lat="45.11546" lon="6.10233">
        <ele>2524.9</ele>
        <time>2021-03-10T08:34:23Z</time>
      </trkpt>
      <trkpt lat="45.11545" lon="6.10233">
        <ele>2525</ele>
        <time>2021-03-10T08:34:24Z</time>
      </trkpt>
      <trkpt lat="45.11544" lon="6.10233">
        <ele>2524.5</ele>
        <time>2021-03-10T08:34:25Z</time>
      </trkpt>
      <trkpt lat="45.11544" lon="6.10233">
        <ele>2524.5</ele>
        <time>2021-03-10T08:34:26Z</time>
      </trkpt>
      <trkpt lat="45.11543" lon="6.10233">
        <ele>2524.5</ele>
        <time>2021-03-10T08:34:27Z</time>
      </trkpt>
      <trkpt lat="45.11543" lon="6.10234">
        <ele>2524.5</ele>
        <time>2021-03-10T08:34:28Z</time>
      </trkpt>
      <trkpt lat="45.11542" lon="6.10234">
        <ele>2524.1</ele>
        <time>2021-03-10T08:34:29Z</time>
      </trkpt>
      <trkpt lat="45.11541" lon="6.10235">
        <ele>2524.1</ele>
        <time>2021-03-10T08:34:30Z</time>
      </trkpt>
      <trkpt lat="45.11541" lon="6.10235">
        <ele>2525</ele>
        <time>2021-03-10T08:34:31Z</time>
      </trkpt>
      <trkpt lat="45.1154" lon="6.10236">
        <ele>2525</ele>
        <time>2021-03-10T08:34:32Z</time>
      </trkpt>
      <trkpt lat="45.1154" lon="6.10236">
        <ele>2525.1</ele>
        <time>2021-03-10T08:34:33Z</time>
      </trkpt>
      <trkpt lat="45.1154" lon="6.10237">
        <ele>2525.1</ele>
        <time>2021-03-10T08:34:34Z</time>
      </trkpt>
      <trkpt lat="45.11539" lon="6.10238">
        <ele>2525.1</ele>
        <time>2021-03-10T08:34:35Z</time>
      </trkpt>
      <trkpt lat="45.1154" lon="6.10239">
        <ele>2526</ele>
        <time>2021-03-10T08:34:36Z</time>
      </trkpt>
      <trkpt lat="45.1154" lon="6.10241">
        <ele>2526</ele>
        <time>2021-03-10T08:34:37Z</time>
      </trkpt>
      <trkpt lat="45.1154" lon="6.10242">
        <ele>2526</ele>
        <time>2021-03-10T08:34:38Z</time>
      </trkpt>
      <trkpt lat="45.1154" lon="6.10243">
        <ele>2526.8</ele>
        <time>2021-03-10T08:34:39Z</time>
      </trkpt>
      <trkpt lat="45.11541" lon="6.10244">
        <ele>2526.8</ele>
        <time>2021-03-10T08:34:40Z</time>
      </trkpt>
      <trkpt lat="45.11541" lon="6.10245">
        <ele>2526.9</ele>
        <time>2021-03-10T08:34:41Z</time>
      </trkpt>
      <trkpt lat="45.11541" lon="6.10246">
        <ele>2526.9</ele>
        <time>2021-03-10T08:34:42Z</time>
      </trkpt>
      <trkpt lat="45.11541" lon="6.10247">
        <ele>2526.9</ele>
        <time>2021-03-10T08:34:43Z</time>
      </trkpt>
      <trkpt lat="45.11542" lon="6.10248">
        <ele>2527.7</ele>
        <time>2021-03-10T08:34:44Z</time>
      </trkpt>
      <trkpt lat="45.11542" lon="6.10249">
        <ele>2528.2</ele>
        <time>2021-03-10T08:34:45Z</time>
      </trkpt>
      <trkpt lat="45.11542" lon="6.10249">
        <ele>2528.2</ele>
        <time>2021-03-10T08:34:46Z</time>
      </trkpt>
      <trkpt lat="45.11543" lon="6.1025">
        <ele>2528.2</ele>
        <time>2021-03-10T08:34:47Z</time>
      </trkpt>
      <trkpt lat="45.11543" lon="6.1025">
        <ele>2528.2</ele>
        <time>2021-03-10T08:34:48Z</time>
      </trkpt>
      <trkpt lat="45.11543" lon="6.10251">
        <ele>2528.2</ele>
        <time>2021-03-10T08:34:49Z</time>
      </trkpt>
      <trkpt lat="45.11544" lon="6.10252">
        <ele>2528.3</ele>
        <time>2021-03-10T08:34:50Z</time>
      </trkpt>
      <trkpt lat="45.11545" lon="6.10253">
        <ele>2529.1</ele>
        <time>2021-03-10T08:34:51Z</time>
      </trkpt>
      <trkpt lat="45.11545" lon="6.10253">
        <ele>2529.6</ele>
        <time>2021-03-10T08:34:52Z</time>
      </trkpt>
      <trkpt lat="45.11546" lon="6.10254">
        <ele>2529.6</ele>
        <time>2021-03-10T08:34:53Z</time>
      </trkpt>
      <trkpt lat="45.11546" lon="6.10254">
        <ele>2529.6</ele>
        <time>2021-03-10T08:34:54Z</time>
      </trkpt>
      <trkpt lat="45.11547" lon="6.10255">
        <ele>2529.6</ele>
        <time>2021-03-10T08:34:55Z</time>
      </trkpt>
      <trkpt lat="45.11547" lon="6.10255">
        <ele>2529.6</ele>
        <time>2021-03-10T08:34:56Z</time>
      </trkpt>
      <trkpt lat="45.11548" lon="6.10256">
        <ele>2529.6</ele>
        <time>2021-03-10T08:34:57Z</time>
      </trkpt>
      <trkpt lat="45.11548" lon="6.10257">
        <ele>2530.5</ele>
        <time>2021-03-10T08:34:58Z</time>
      </trkpt>
      <trkpt lat="45.11548" lon="6.10257">
        <ele>2531</ele>
        <time>2021-03-10T08:34:59Z</time>
      </trkpt>
      <trkpt lat="45.11549" lon="6.10258">
        <ele>2531</ele>
        <time>2021-03-10T08:35:00Z</time>
      </trkpt>
      <trkpt lat="45.11549" lon="6.10259">
        <ele>2531</ele>
        <time>2021-03-10T08:35:01Z</time>
      </trkpt>
      <trkpt lat="45.1155" lon="6.10259">
        <ele>2531</ele>
        <time>2021-03-10T08:35:02Z</time>
      </trkpt>
      <trkpt lat="45.1155" lon="6.1026">
        <ele>2531.1</ele>
        <time>2021-03-10T08:35:03Z</time>
      </trkpt>
      <trkpt lat="45.11551" lon="6.1026">
        <ele>2531.1</ele>
        <time>2021-03-10T08:35:04Z</time>
      </trkpt>
      <trkpt lat="45.11551" lon="6.10261">
        <ele>2531.9</ele>
        <time>2021-03-10T08:35:05Z</time>
      </trkpt>
      <trkpt lat="45.11551" lon="6.10261">
        <ele>2531.9</ele>
        <time>2021-03-10T08:35:06Z</time>
      </trkpt>
      <trkpt lat="45.11551" lon="6.10262">
        <ele>2531.9</ele>
        <time>2021-03-10T08:35:07Z</time>
      </trkpt>
      <trkpt lat="45.11551" lon="6.10262">
        <ele>2532.5</ele>
        <time>2021-03-10T08:35:08Z</time>
      </trkpt>
      <trkpt lat="45.11552" lon="6.10262">
        <ele>2532.6</ele>
        <time>2021-03-10T08:35:09Z</time>
      </trkpt>
      <trkpt lat="45.11552" lon="6.10263">
        <ele>2532.6</ele>
        <time>2021-03-10T08:35:10Z</time>
      </trkpt>
      <trkpt lat="45.11552" lon="6.10263">
        <ele>2532.6</ele>
        <time>2021-03-10T08:35:11Z</time>
      </trkpt>
      <trkpt lat="45.11553" lon="6.10263">
        <ele>2532.6</ele>
        <time>2021-03-10T08:35:12Z</time>
      </trkpt>
      <trkpt lat="45.11553" lon="6.10263">
        <ele>2532.6</ele>
        <time>2021-03-10T08:35:13Z</time>
      </trkpt>
      <trkpt lat="45.11553" lon="6.10263">
        <ele>2532.6</ele>
        <time>2021-03-10T08:35:14Z</time>
      </trkpt>
      <trkpt lat="45.11553" lon="6.10263">
        <ele>2532.6</ele>
        <time>2021-03-10T08:35:15Z</time>
      </trkpt>
      <trkpt lat="45.11553" lon="6.10264">
        <ele>2532.6</ele>
        <time>2021-03-10T08:35:16Z</time>
      </trkpt>
      <trkpt lat="45.11553" lon="6.10264">
        <ele>2532.7</ele>
        <time>2021-03-10T08:35:17Z</time>
      </trkpt>
      <trkpt lat="45.1155" lon="6.10271">
        <ele>2533.7</ele>
        <time>2021-03-10T08:35:31Z</time>
      </trkpt>
      <trkpt lat="45.11549" lon="6.10272">
        <ele>2533.7</ele>
        <time>2021-03-10T08:35:32Z</time>
      </trkpt>
      <trkpt lat="45.11549" lon="6.10272">
        <ele>2533.7</ele>
        <time>2021-03-10T08:35:33Z</time>
      </trkpt>
      <trkpt lat="45.11549" lon="6.10272">
        <ele>2533.7</ele>
        <time>2021-03-10T08:35:34Z</time>
      </trkpt>
      <trkpt lat="45.11549" lon="6.10273">
        <ele>2533.8</ele>
        <time>2021-03-10T08:35:35Z</time>
      </trkpt>
      <trkpt lat="45.11548" lon="6.10273">
        <ele>2533.8</ele>
        <time>2021-03-10T08:35:36Z</time>
      </trkpt>
      <trkpt lat="45.11548" lon="6.10273">
        <ele>2533.8</ele>
        <time>2021-03-10T08:35:37Z</time>
      </trkpt>
      <trkpt lat="45.11548" lon="6.10274">
        <ele>2534</ele>
        <time>2021-03-10T08:35:38Z</time>
      </trkpt>
      <trkpt lat="45.11547" lon="6.10274">
        <ele>2534</ele>
        <time>2021-03-10T08:35:39Z</time>
      </trkpt>
      <trkpt lat="45.11547" lon="6.10274">
        <ele>2534</ele>
        <time>2021-03-10T08:35:40Z</time>
      </trkpt>
      <trkpt lat="45.11547" lon="6.10275">
        <ele>2534</ele>
        <time>2021-03-10T08:35:41Z</time>
      </trkpt>
      <trkpt lat="45.11546" lon="6.10275">
        <ele>2534.1</ele>
        <time>2021-03-10T08:35:42Z</time>
      </trkpt>
      <trkpt lat="45.11546" lon="6.10276">
        <ele>2534.1</ele>
        <time>2021-03-10T08:35:43Z</time>
      </trkpt>
      <trkpt lat="45.11545" lon="6.10277">
        <ele>2534.1</ele>
        <time>2021-03-10T08:35:44Z</time>
      </trkpt>
      <trkpt lat="45.11545" lon="6.10278">
        <ele>2534.3</ele>
        <time>2021-03-10T08:35:45Z</time>
      </trkpt>
      <trkpt lat="45.11544" lon="6.10279">
        <ele>2534.3</ele>
        <time>2021-03-10T08:35:46Z</time>
      </trkpt>
      <trkpt lat="45.11544" lon="6.1028">
        <ele>2534.3</ele>
        <time>2021-03-10T08:35:47Z</time>
      </trkpt>
      <trkpt lat="45.11543" lon="6.10281">
        <ele>2534.3</ele>
        <time>2021-03-10T08:35:48Z</time>
      </trkpt>
      <trkpt lat="45.11543" lon="6.10282">
        <ele>2534.3</ele>
        <time>2021-03-10T08:35:49Z</time>
      </trkpt>
      <trkpt lat="45.11542" lon="6.10283">
        <ele>2535</ele>
        <time>2021-03-10T08:35:50Z</time>
      </trkpt>
      <trkpt lat="45.11542" lon="6.10283">
        <ele>2534.5</ele>
        <time>2021-03-10T08:35:51Z</time>
      </trkpt>
      <trkpt lat="45.11542" lon="6.10284">
        <ele>2534.5</ele>
        <time>2021-03-10T08:35:52Z</time>
      </trkpt>
      <trkpt lat="45.11541" lon="6.10284">
        <ele>2534.5</ele>
        <time>2021-03-10T08:35:53Z</time>
      </trkpt>
      <trkpt lat="45.11541" lon="6.10285">
        <ele>2534.5</ele>
        <time>2021-03-10T08:35:54Z</time>
      </trkpt>
      <trkpt lat="45.1154" lon="6.10286">
        <ele>2534.5</ele>
        <time>2021-03-10T08:35:55Z</time>
      </trkpt>
      <trkpt lat="45.1154" lon="6.10286">
        <ele>2534.5</ele>
        <time>2021-03-10T08:35:56Z</time>
      </trkpt>
      <trkpt lat="45.11539" lon="6.10287">
        <ele>2535.2</ele>
        <time>2021-03-10T08:35:57Z</time>
      </trkpt>
      <trkpt lat="45.11539" lon="6.10287">
        <ele>2534.6</ele>
        <time>2021-03-10T08:35:58Z</time>
      </trkpt>
      <trkpt lat="45.11538" lon="6.10288">
        <ele>2534.6</ele>
        <time>2021-03-10T08:35:59Z</time>
      </trkpt>
      <trkpt lat="45.11538" lon="6.10288">
        <ele>2534.6</ele>
        <time>2021-03-10T08:36:00Z</time>
      </trkpt>
      <trkpt lat="45.11537" lon="6.10289">
        <ele>2534.7</ele>
        <time>2021-03-10T08:36:01Z</time>
      </trkpt>
      <trkpt lat="45.11536" lon="6.10289">
        <ele>2534.7</ele>
        <time>2021-03-10T08:36:02Z</time>
      </trkpt>
      <trkpt lat="45.11536" lon="6.10289">
        <ele>2534.1</ele>
        <time>2021-03-10T08:36:03Z</time>
      </trkpt>
      <trkpt lat="45.11535" lon="6.1029">
        <ele>2534.1</ele>
        <time>2021-03-10T08:36:04Z</time>
      </trkpt>
      <trkpt lat="45.11534" lon="6.1029">
        <ele>2534.1</ele>
        <time>2021-03-10T08:36:05Z</time>
      </trkpt>
      <trkpt lat="45.11534" lon="6.10291">
        <ele>2534.7</ele>
        <time>2021-03-10T08:36:06Z</time>
      </trkpt>
      <trkpt lat="45.11533" lon="6.10291">
        <ele>2534.7</ele>
        <time>2021-03-10T08:36:07Z</time>
      </trkpt>
      <trkpt lat="45.11533" lon="6.10292">
        <ele>2534.2</ele>
        <time>2021-03-10T08:36:08Z</time>
      </trkpt>
      <trkpt lat="45.11533" lon="6.10292">
        <ele>2534.2</ele>
        <time>2021-03-10T08:36:09Z</time>
      </trkpt>
      <trkpt lat="45.11532" lon="6.10293">
        <ele>2534.2</ele>
        <time>2021-03-10T08:36:10Z</time>
      </trkpt>
      <trkpt lat="45.11532" lon="6.10294">
        <ele>2534.2</ele>
        <time>2021-03-10T08:36:11Z</time>
      </trkpt>
      <trkpt lat="45.11532" lon="6.10295">
        <ele>2534.8</ele>
        <time>2021-03-10T08:36:12Z</time>
      </trkpt>
      <trkpt lat="45.11532" lon="6.10296">
        <ele>2534.8</ele>
        <time>2021-03-10T08:36:13Z</time>
      </trkpt>
      <trkpt lat="45.11533" lon="6.10297">
        <ele>2534.8</ele>
        <time>2021-03-10T08:36:14Z</time>
      </trkpt>
      <trkpt lat="45.11533" lon="6.10298">
        <ele>2534.8</ele>
        <time>2021-03-10T08:36:15Z</time>
      </trkpt>
      <trkpt lat="45.11533" lon="6.10299">
        <ele>2535.5</ele>
        <time>2021-03-10T08:36:16Z</time>
      </trkpt>
      <trkpt lat="45.11533" lon="6.10301">
        <ele>2536.1</ele>
        <time>2021-03-10T08:36:17Z</time>
      </trkpt>
      <trkpt lat="45.11533" lon="6.10302">
        <ele>2536.1</ele>
        <time>2021-03-10T08:36:18Z</time>
      </trkpt>
      <trkpt lat="45.11533" lon="6.10303">
        <ele>2536.1</ele>
        <time>2021-03-10T08:36:19Z</time>
      </trkpt>
      <trkpt lat="45.11534" lon="6.10304">
        <ele>2536.8</ele>
        <time>2021-03-10T08:36:20Z</time>
      </trkpt>
      <trkpt lat="45.11534" lon="6.10305">
        <ele>2536.8</ele>
        <time>2021-03-10T08:36:21Z</time>
      </trkpt>
      <trkpt lat="45.11534" lon="6.10306">
        <ele>2536.8</ele>
        <time>2021-03-10T08:36:22Z</time>
      </trkpt>
      <trkpt lat="45.11534" lon="6.10307">
        <ele>2536.8</ele>
        <time>2021-03-10T08:36:23Z</time>
      </trkpt>
      <trkpt lat="45.11535" lon="6.10308">
        <ele>2536.8</ele>
        <time>2021-03-10T08:36:24Z</time>
      </trkpt>
      <trkpt lat="45.11535" lon="6.10309">
        <ele>2537.5</ele>
        <time>2021-03-10T08:36:25Z</time>
      </trkpt>
      <trkpt lat="45.11536" lon="6.10309">
        <ele>2537.5</ele>
        <time>2021-03-10T08:36:26Z</time>
      </trkpt>
      <trkpt lat="45.11536" lon="6.1031">
        <ele>2538.1</ele>
        <time>2021-03-10T08:36:27Z</time>
      </trkpt>
      <trkpt lat="45.11536" lon="6.10311">
        <ele>2538.1</ele>
        <time>2021-03-10T08:36:28Z</time>
      </trkpt>
      <trkpt lat="45.11537" lon="6.10312">
        <ele>2538.1</ele>
        <time>2021-03-10T08:36:29Z</time>
      </trkpt>
      <trkpt lat="45.11537" lon="6.10313">
        <ele>2538.8</ele>
        <time>2021-03-10T08:36:30Z</time>
      </trkpt>
      <trkpt lat="45.11538" lon="6.10313">
        <ele>2538.8</ele>
        <time>2021-03-10T08:36:31Z</time>
      </trkpt>
      <trkpt lat="45.11538" lon="6.10314">
        <ele>2538.8</ele>
        <time>2021-03-10T08:36:32Z</time>
      </trkpt>
      <trkpt lat="45.11539" lon="6.10315">
        <ele>2538.8</ele>
        <time>2021-03-10T08:36:33Z</time>
      </trkpt>
      <trkpt lat="45.11539" lon="6.10316">
        <ele>2539.4</ele>
        <time>2021-03-10T08:36:34Z</time>
      </trkpt>
      <trkpt lat="45.1154" lon="6.10317">
        <ele>2540.1</ele>
        <time>2021-03-10T08:36:35Z</time>
      </trkpt>
      <trkpt lat="45.11541" lon="6.10318">
        <ele>2540.1</ele>
        <time>2021-03-10T08:36:36Z</time>
      </trkpt>
      <trkpt lat="45.11541" lon="6.10319">
        <ele>2540.1</ele>
        <time>2021-03-10T08:36:37Z</time>
      </trkpt>
      <trkpt lat="45.11542" lon="6.1032">
        <ele>2540.1</ele>
        <time>2021-03-10T08:36:38Z</time>
      </trkpt>
      <trkpt lat="45.11543" lon="6.1032">
        <ele>2540.7</ele>
        <time>2021-03-10T08:36:39Z</time>
      </trkpt>
      <trkpt lat="45.11543" lon="6.10321">
        <ele>2541.3</ele>
        <time>2021-03-10T08:36:40Z</time>
      </trkpt>
      <trkpt lat="45.11544" lon="6.10322">
        <ele>2541.3</ele>
        <time>2021-03-10T08:36:41Z</time>
      </trkpt>
      <trkpt lat="45.11544" lon="6.10322">
        <ele>2541.4</ele>
        <time>2021-03-10T08:36:42Z</time>
      </trkpt>
      <trkpt lat="45.11545" lon="6.10323">
        <ele>2541.4</ele>
        <time>2021-03-10T08:36:43Z</time>
      </trkpt>
      <trkpt lat="45.11545" lon="6.10324">
        <ele>2542</ele>
        <time>2021-03-10T08:36:44Z</time>
      </trkpt>
      <trkpt lat="45.11546" lon="6.10324">
        <ele>2542</ele>
        <time>2021-03-10T08:36:45Z</time>
      </trkpt>
      <trkpt lat="45.11546" lon="6.10325">
        <ele>2542.6</ele>
        <time>2021-03-10T08:36:46Z</time>
      </trkpt>
      <trkpt lat="45.11547" lon="6.10326">
        <ele>2542.6</ele>
        <time>2021-03-10T08:36:47Z</time>
      </trkpt>
      <trkpt lat="45.11548" lon="6.10327">
        <ele>2542.6</ele>
        <time>2021-03-10T08:36:48Z</time>
      </trkpt>
      <trkpt lat="45.11548" lon="6.10328">
        <ele>2543.3</ele>
        <time>2021-03-10T08:36:49Z</time>
      </trkpt>
      <trkpt lat="45.11549" lon="6.10328">
        <ele>2543.3</ele>
        <time>2021-03-10T08:36:50Z</time>
      </trkpt>
      <trkpt lat="45.11549" lon="6.10329">
        <ele>2543.3</ele>
        <time>2021-03-10T08:36:51Z</time>
      </trkpt>
      <trkpt lat="45.1155" lon="6.1033">
        <ele>2543.9</ele>
        <time>2021-03-10T08:36:52Z</time>
      </trkpt>
      <trkpt lat="45.11551" lon="6.10331">
        <ele>2543.9</ele>
        <time>2021-03-10T08:36:53Z</time>
      </trkpt>
      <trkpt lat="45.11551" lon="6.10331">
        <ele>2544.7</ele>
        <time>2021-03-10T08:36:54Z</time>
      </trkpt>
      <trkpt lat="45.11552" lon="6.10332">
        <ele>2544.7</ele>
        <time>2021-03-10T08:36:55Z</time>
      </trkpt>
      <trkpt lat="45.11552" lon="6.10332">
        <ele>2544.7</ele>
        <time>2021-03-10T08:36:56Z</time>
      </trkpt>
      <trkpt lat="45.11553" lon="6.10332">
        <ele>2544.7</ele>
        <time>2021-03-10T08:36:57Z</time>
      </trkpt>
      <trkpt lat="45.11554" lon="6.10333">
        <ele>2544.7</ele>
        <time>2021-03-10T08:36:58Z</time>
      </trkpt>
      <trkpt lat="45.11555" lon="6.10333">
        <ele>2545.5</ele>
        <time>2021-03-10T08:36:59Z</time>
      </trkpt>
      <trkpt lat="45.11555" lon="6.10333">
        <ele>2545.5</ele>
        <time>2021-03-10T08:37:00Z</time>
      </trkpt>
      <trkpt lat="45.11555" lon="6.10333">
        <ele>2545.6</ele>
        <time>2021-03-10T08:37:01Z</time>
      </trkpt>
      <trkpt lat="45.11556" lon="6.10333">
        <ele>2545.6</ele>
        <time>2021-03-10T08:37:02Z</time>
      </trkpt>
      <trkpt lat="45.11556" lon="6.10333">
        <ele>2545.6</ele>
        <time>2021-03-10T08:37:03Z</time>
      </trkpt>
      <trkpt lat="45.11557" lon="6.10333">
        <ele>2545.6</ele>
        <time>2021-03-10T08:37:04Z</time>
      </trkpt>
      <trkpt lat="45.11557" lon="6.10334">
        <ele>2546.2</ele>
        <time>2021-03-10T08:37:05Z</time>
      </trkpt>
      <trkpt lat="45.11558" lon="6.10334">
        <ele>2547.1</ele>
        <time>2021-03-10T08:37:06Z</time>
      </trkpt>
      <trkpt lat="45.11558" lon="6.10334">
        <ele>2547.1</ele>
        <time>2021-03-10T08:37:07Z</time>
      </trkpt>
      <trkpt lat="45.11558" lon="6.10335">
        <ele>2547.1</ele>
        <time>2021-03-10T08:37:08Z</time>
      </trkpt>
      <trkpt lat="45.11559" lon="6.10335">
        <ele>2547.1</ele>
        <time>2021-03-10T08:37:09Z</time>
      </trkpt>
      <trkpt lat="45.11559" lon="6.10335">
        <ele>2547.1</ele>
        <time>2021-03-10T08:37:10Z</time>
      </trkpt>
      <trkpt lat="45.1156" lon="6.10336">
        <ele>2547.1</ele>
        <time>2021-03-10T08:37:11Z</time>
      </trkpt>
      <trkpt lat="45.1156" lon="6.10336">
        <ele>2547.1</ele>
        <time>2021-03-10T08:37:12Z</time>
      </trkpt>
      <trkpt lat="45.1156" lon="6.10336">
        <ele>2547.1</ele>
        <time>2021-03-10T08:37:13Z</time>
      </trkpt>
      <trkpt lat="45.1156" lon="6.10336">
        <ele>2548</ele>
        <time>2021-03-10T08:37:14Z</time>
      </trkpt>
      <trkpt lat="45.11561" lon="6.10336">
        <ele>2548</ele>
        <time>2021-03-10T08:37:15Z</time>
      </trkpt>
      <trkpt lat="45.11562" lon="6.10336">
        <ele>2548</ele>
        <time>2021-03-10T08:37:16Z</time>
      </trkpt>
      <trkpt lat="45.11562" lon="6.10337">
        <ele>2548.1</ele>
        <time>2021-03-10T08:37:17Z</time>
      </trkpt>
      <trkpt lat="45.11563" lon="6.10338">
        <ele>2548.1</ele>
        <time>2021-03-10T08:37:18Z</time>
      </trkpt>
      <trkpt lat="45.11563" lon="6.10338">
        <ele>2548.7</ele>
        <time>2021-03-10T08:37:19Z</time>
      </trkpt>
      <trkpt lat="45.11563" lon="6.10338">
        <ele>2549.5</ele>
        <time>2021-03-10T08:37:20Z</time>
      </trkpt>
      <trkpt lat="45.11564" lon="6.10338">
        <ele>2549.5</ele>
        <time>2021-03-10T08:37:21Z</time>
      </trkpt>
      <trkpt lat="45.11565" lon="6.10338">
        <ele>2549.5</ele>
        <time>2021-03-10T08:37:22Z</time>
      </trkpt>
      <trkpt lat="45.11565" lon="6.10338">
        <ele>2549.5</ele>
        <time>2021-03-10T08:37:23Z</time>
      </trkpt>
      <trkpt lat="45.11566" lon="6.10338">
        <ele>2549.6</ele>
        <time>2021-03-10T08:37:24Z</time>
      </trkpt>
      <trkpt lat="45.11567" lon="6.10338">
        <ele>2550.4</ele>
        <time>2021-03-10T08:37:25Z</time>
      </trkpt>
      <trkpt lat="45.11567" lon="6.10339">
        <ele>2550.4</ele>
        <time>2021-03-10T08:37:26Z</time>
      </trkpt>
      <trkpt lat="45.11568" lon="6.10339">
        <ele>2550.4</ele>
        <time>2021-03-10T08:37:27Z</time>
      </trkpt>
      <trkpt lat="45.11569" lon="6.10339">
        <ele>2550.4</ele>
        <time>2021-03-10T08:37:28Z</time>
      </trkpt>
      <trkpt lat="45.1157" lon="6.10339">
        <ele>2551.2</ele>
        <time>2021-03-10T08:37:29Z</time>
      </trkpt>
      <trkpt lat="45.1157" lon="6.10339">
        <ele>2551.2</ele>
        <time>2021-03-10T08:37:30Z</time>
      </trkpt>
      <trkpt lat="45.11571" lon="6.10339">
        <ele>2551.3</ele>
        <time>2021-03-10T08:37:31Z</time>
      </trkpt>
      <trkpt lat="45.11571" lon="6.10339">
        <ele>2551.3</ele>
        <time>2021-03-10T08:37:32Z</time>
      </trkpt>
      <trkpt lat="45.11572" lon="6.10339">
        <ele>2551.3</ele>
        <time>2021-03-10T08:37:33Z</time>
      </trkpt>
      <trkpt lat="45.11573" lon="6.10339">
        <ele>2552.1</ele>
        <time>2021-03-10T08:37:34Z</time>
      </trkpt>
      <trkpt lat="45.11573" lon="6.10339">
        <ele>2552.2</ele>
        <time>2021-03-10T08:37:35Z</time>
      </trkpt>
      <trkpt lat="45.11574" lon="6.10339">
        <ele>2552.2</ele>
        <time>2021-03-10T08:37:36Z</time>
      </trkpt>
      <trkpt lat="45.11574" lon="6.10339">
        <ele>2552.2</ele>
        <time>2021-03-10T08:37:37Z</time>
      </trkpt>
      <trkpt lat="45.11574" lon="6.10339">
        <ele>2552.2</ele>
        <time>2021-03-10T08:37:38Z</time>
      </trkpt>
      <trkpt lat="45.11575" lon="6.10339">
        <ele>2552.2</ele>
        <time>2021-03-10T08:37:39Z</time>
      </trkpt>
      <trkpt lat="45.11576" lon="6.10338">
        <ele>2553.1</ele>
        <time>2021-03-10T08:37:40Z</time>
      </trkpt>
      <trkpt lat="45.11576" lon="6.10338">
        <ele>2553.2</ele>
        <time>2021-03-10T08:37:41Z</time>
      </trkpt>
      <trkpt lat="45.11577" lon="6.10338">
        <ele>2552.6</ele>
        <time>2021-03-10T08:37:42Z</time>
      </trkpt>
      <trkpt lat="45.11577" lon="6.10338">
        <ele>2553.2</ele>
        <time>2021-03-10T08:37:43Z</time>
      </trkpt>
      <trkpt lat="45.11578" lon="6.10339">
        <ele>2553.2</ele>
        <time>2021-03-10T08:37:44Z</time>
      </trkpt>
      <trkpt lat="45.11578" lon="6.1034">
        <ele>2554.2</ele>
        <time>2021-03-10T08:37:45Z</time>
      </trkpt>
      <trkpt lat="45.11579" lon="6.10341">
        <ele>2554.2</ele>
        <time>2021-03-10T08:37:46Z</time>
      </trkpt>
      <trkpt lat="45.11579" lon="6.10342">
        <ele>2554.4</ele>
        <time>2021-03-10T08:37:47Z</time>
      </trkpt>
      <trkpt lat="45.1158" lon="6.10343">
        <ele>2554.6</ele>
        <time>2021-03-10T08:37:48Z</time>
      </trkpt>
      <trkpt lat="45.1158" lon="6.10344">
        <ele>2554.8</ele>
        <time>2021-03-10T08:37:49Z</time>
      </trkpt>
      <trkpt lat="45.11581" lon="6.10346">
        <ele>2555.1</ele>
        <time>2021-03-10T08:37:50Z</time>
      </trkpt>
      <trkpt lat="45.11581" lon="6.10347">
        <ele>2555.3</ele>
        <time>2021-03-10T08:37:51Z</time>
      </trkpt>
      <trkpt lat="45.11581" lon="6.10348">
        <ele>2555.5</ele>
        <time>2021-03-10T08:37:52Z</time>
      </trkpt>
      <trkpt lat="45.11581" lon="6.10349">
        <ele>2555.6</ele>
        <time>2021-03-10T08:37:53Z</time>
      </trkpt>
      <trkpt lat="45.11581" lon="6.10351">
        <ele>2555.8</ele>
        <time>2021-03-10T08:37:54Z</time>
      </trkpt>
      <trkpt lat="45.11581" lon="6.10352">
        <ele>2556</ele>
        <time>2021-03-10T08:37:55Z</time>
      </trkpt>
      <trkpt lat="45.11581" lon="6.10353">
        <ele>2556.2</ele>
        <time>2021-03-10T08:37:56Z</time>
      </trkpt>
      <trkpt lat="45.11581" lon="6.10355">
        <ele>2556.4</ele>
        <time>2021-03-10T08:37:57Z</time>
      </trkpt>
      <trkpt lat="45.11581" lon="6.10356">
        <ele>2556.6</ele>
        <time>2021-03-10T08:37:58Z</time>
      </trkpt>
      <trkpt lat="45.11581" lon="6.10356">
        <ele>2556.7</ele>
        <time>2021-03-10T08:37:59Z</time>
      </trkpt>
      <trkpt lat="45.11581" lon="6.10357">
        <ele>2556.8</ele>
        <time>2021-03-10T08:38:00Z</time>
      </trkpt>
      <trkpt lat="45.11581" lon="6.10358">
        <ele>2556.9</ele>
        <time>2021-03-10T08:38:01Z</time>
      </trkpt>
      <trkpt lat="45.11581" lon="6.10359">
        <ele>2557.1</ele>
        <time>2021-03-10T08:38:02Z</time>
      </trkpt>
      <trkpt lat="45.11581" lon="6.1036">
        <ele>2557.2</ele>
        <time>2021-03-10T08:38:03Z</time>
      </trkpt>
      <trkpt lat="45.11581" lon="6.1036">
        <ele>2557.3</ele>
        <time>2021-03-10T08:38:04Z</time>
      </trkpt>
      <trkpt lat="45.11581" lon="6.10361">
        <ele>2557.4</ele>
        <time>2021-03-10T08:38:05Z</time>
      </trkpt>
      <trkpt lat="45.11581" lon="6.10362">
        <ele>2557.5</ele>
        <time>2021-03-10T08:38:06Z</time>
      </trkpt>
      <trkpt lat="45.11581" lon="6.10362">
        <ele>2557.6</ele>
        <time>2021-03-10T08:38:07Z</time>
      </trkpt>
      <trkpt lat="45.11581" lon="6.10363">
        <ele>2557.7</ele>
        <time>2021-03-10T08:38:08Z</time>
      </trkpt>
      <trkpt lat="45.1158" lon="6.10364">
        <ele>2557.8</ele>
        <time>2021-03-10T08:38:09Z</time>
      </trkpt>
      <trkpt lat="45.1158" lon="6.10365">
        <ele>2558</ele>
        <time>2021-03-10T08:38:10Z</time>
      </trkpt>
      <trkpt lat="45.1158" lon="6.10365">
        <ele>2558.1</ele>
        <time>2021-03-10T08:38:11Z</time>
      </trkpt>
      <trkpt lat="45.1158" lon="6.10366">
        <ele>2558.2</ele>
        <time>2021-03-10T08:38:12Z</time>
      </trkpt>
      <trkpt lat="45.1158" lon="6.10367">
        <ele>2558.3</ele>
        <time>2021-03-10T08:38:13Z</time>
      </trkpt>
      <trkpt lat="45.1158" lon="6.10368">
        <ele>2558.4</ele>
        <time>2021-03-10T08:38:14Z</time>
      </trkpt>
      <trkpt lat="45.1158" lon="6.10369">
        <ele>2558.6</ele>
        <time>2021-03-10T08:38:15Z</time>
      </trkpt>
      <trkpt lat="45.1158" lon="6.1037">
        <ele>2558.7</ele>
        <time>2021-03-10T08:38:16Z</time>
      </trkpt>
      <trkpt lat="45.1158" lon="6.10371">
        <ele>2558.9</ele>
        <time>2021-03-10T08:38:17Z</time>
      </trkpt>
      <trkpt lat="45.1158" lon="6.10372">
        <ele>2559</ele>
        <time>2021-03-10T08:38:18Z</time>
      </trkpt>
      <trkpt lat="45.1158" lon="6.10373">
        <ele>2559.2</ele>
        <time>2021-03-10T08:38:19Z</time>
      </trkpt>
      <trkpt lat="45.11581" lon="6.10374">
        <ele>2559.3</ele>
        <time>2021-03-10T08:38:20Z</time>
      </trkpt>
      <trkpt lat="45.11581" lon="6.10375">
        <ele>2559.5</ele>
        <time>2021-03-10T08:38:21Z</time>
      </trkpt>
      <trkpt lat="45.11581" lon="6.10376">
        <ele>2559.6</ele>
        <time>2021-03-10T08:38:22Z</time>
      </trkpt>
      <trkpt lat="45.11582" lon="6.10377">
        <ele>2559.7</ele>
        <time>2021-03-10T08:38:23Z</time>
      </trkpt>
      <trkpt lat="45.11582" lon="6.10377">
        <ele>2559.8</ele>
        <time>2021-03-10T08:38:24Z</time>
      </trkpt>
      <trkpt lat="45.11582" lon="6.10378">
        <ele>2559.9</ele>
        <time>2021-03-10T08:38:25Z</time>
      </trkpt>
      <trkpt lat="45.11583" lon="6.10378">
        <ele>2560</ele>
        <time>2021-03-10T08:38:26Z</time>
      </trkpt>
      <trkpt lat="45.11584" lon="6.10378">
        <ele>2560.1</ele>
        <time>2021-03-10T08:38:27Z</time>
      </trkpt>
      <trkpt lat="45.11584" lon="6.10378">
        <ele>2560.3</ele>
        <time>2021-03-10T08:38:28Z</time>
      </trkpt>
      <trkpt lat="45.11585" lon="6.10377">
        <ele>2560.4</ele>
        <time>2021-03-10T08:38:29Z</time>
      </trkpt>
      <trkpt lat="45.11586" lon="6.10377">
        <ele>2560.5</ele>
        <time>2021-03-10T08:38:30Z</time>
      </trkpt>
      <trkpt lat="45.11586" lon="6.10377">
        <ele>2560.6</ele>
        <time>2021-03-10T08:38:31Z</time>
      </trkpt>
      <trkpt lat="45.11587" lon="6.10376">
        <ele>2560.8</ele>
        <time>2021-03-10T08:38:32Z</time>
      </trkpt>
      <trkpt lat="45.11588" lon="6.10376">
        <ele>2560.9</ele>
        <time>2021-03-10T08:38:33Z</time>
      </trkpt>
      <trkpt lat="45.11588" lon="6.10376">
        <ele>2561</ele>
        <time>2021-03-10T08:38:34Z</time>
      </trkpt>
      <trkpt lat="45.11589" lon="6.10377">
        <ele>2561.1</ele>
        <time>2021-03-10T08:38:35Z</time>
      </trkpt>
      <trkpt lat="45.11589" lon="6.10377">
        <ele>2561.2</ele>
        <time>2021-03-10T08:38:36Z</time>
      </trkpt>
      <trkpt lat="45.1159" lon="6.10378">
        <ele>2561.4</ele>
        <time>2021-03-10T08:38:37Z</time>
      </trkpt>
      <trkpt lat="45.1159" lon="6.10379">
        <ele>2561.5</ele>
        <time>2021-03-10T08:38:38Z</time>
      </trkpt>
      <trkpt lat="45.11591" lon="6.1038">
        <ele>2561.7</ele>
        <time>2021-03-10T08:38:39Z</time>
      </trkpt>
      <trkpt lat="45.11591" lon="6.10382">
        <ele>2561.9</ele>
        <time>2021-03-10T08:38:40Z</time>
      </trkpt>
      <trkpt lat="45.11591" lon="6.10383">
        <ele>2562</ele>
        <time>2021-03-10T08:38:41Z</time>
      </trkpt>
      <trkpt lat="45.11592" lon="6.10383">
        <ele>2562.1</ele>
        <time>2021-03-10T08:38:42Z</time>
      </trkpt>
      <trkpt lat="45.11592" lon="6.10384">
        <ele>2562.2</ele>
        <time>2021-03-10T08:38:43Z</time>
      </trkpt>
      <trkpt lat="45.11593" lon="6.10385">
        <ele>2562.4</ele>
        <time>2021-03-10T08:38:44Z</time>
      </trkpt>
      <trkpt lat="45.11593" lon="6.10386">
        <ele>2562.5</ele>
        <time>2021-03-10T08:38:45Z</time>
      </trkpt>
      <trkpt lat="45.11594" lon="6.10387">
        <ele>2562.6</ele>
        <time>2021-03-10T08:38:46Z</time>
      </trkpt>
      <trkpt lat="45.11594" lon="6.10387">
        <ele>2562.7</ele>
        <time>2021-03-10T08:38:47Z</time>
      </trkpt>
      <trkpt lat="45.11595" lon="6.10388">
        <ele>2562.8</ele>
        <time>2021-03-10T08:38:48Z</time>
      </trkpt>
      <trkpt lat="45.11595" lon="6.10389">
        <ele>2562.9</ele>
        <time>2021-03-10T08:38:49Z</time>
      </trkpt>
      <trkpt lat="45.11595" lon="6.1039">
        <ele>2562.9</ele>
        <time>2021-03-10T08:38:50Z</time>
      </trkpt>
      <trkpt lat="45.11595" lon="6.1039">
        <ele>2563</ele>
        <time>2021-03-10T08:38:51Z</time>
      </trkpt>
      <trkpt lat="45.11596" lon="6.10391">
        <ele>2563.1</ele>
        <time>2021-03-10T08:38:52Z</time>
      </trkpt>
      <trkpt lat="45.11596" lon="6.10392">
        <ele>2563.2</ele>
        <time>2021-03-10T08:38:53Z</time>
      </trkpt>
      <trkpt lat="45.11596" lon="6.10392">
        <ele>2563.3</ele>
        <time>2021-03-10T08:38:54Z</time>
      </trkpt>
      <trkpt lat="45.11596" lon="6.10393">
        <ele>2563.3</ele>
        <time>2021-03-10T08:38:55Z</time>
      </trkpt>
      <trkpt lat="45.11597" lon="6.10394">
        <ele>2563.4</ele>
        <time>2021-03-10T08:38:56Z</time>
      </trkpt>
      <trkpt lat="45.11597" lon="6.10394">
        <ele>2563.5</ele>
        <time>2021-03-10T08:38:57Z</time>
      </trkpt>
      <trkpt lat="45.11597" lon="6.10395">
        <ele>2563.6</ele>
        <time>2021-03-10T08:38:58Z</time>
      </trkpt>
      <trkpt lat="45.11597" lon="6.10396">
        <ele>2563.7</ele>
        <time>2021-03-10T08:38:59Z</time>
      </trkpt>
      <trkpt lat="45.11598" lon="6.10397">
        <ele>2563.8</ele>
        <time>2021-03-10T08:39:00Z</time>
      </trkpt>
      <trkpt lat="45.11598" lon="6.10398">
        <ele>2563.9</ele>
        <time>2021-03-10T08:39:01Z</time>
      </trkpt>
      <trkpt lat="45.11598" lon="6.10399">
        <ele>2564</ele>
        <time>2021-03-10T08:39:02Z</time>
      </trkpt>
      <trkpt lat="45.11598" lon="6.104">
        <ele>2564.1</ele>
        <time>2021-03-10T08:39:03Z</time>
      </trkpt>
      <trkpt lat="45.11599" lon="6.10401">
        <ele>2564.2</ele>
        <time>2021-03-10T08:39:04Z</time>
      </trkpt>
      <trkpt lat="45.11599" lon="6.10401">
        <ele>2564.2</ele>
        <time>2021-03-10T08:39:05Z</time>
      </trkpt>
      <trkpt lat="45.11599" lon="6.10402">
        <ele>2564.3</ele>
        <time>2021-03-10T08:39:06Z</time>
      </trkpt>
      <trkpt lat="45.11599" lon="6.10403">
        <ele>2564.4</ele>
        <time>2021-03-10T08:39:07Z</time>
      </trkpt>
      <trkpt lat="45.11599" lon="6.10404">
        <ele>2564.5</ele>
        <time>2021-03-10T08:39:08Z</time>
      </trkpt>
      <trkpt lat="45.116" lon="6.10405">
        <ele>2564.5</ele>
        <time>2021-03-10T08:39:09Z</time>
      </trkpt>
      <trkpt lat="45.116" lon="6.10405">
        <ele>2564.7</ele>
        <time>2021-03-10T08:39:10Z</time>
      </trkpt>
      <trkpt lat="45.11601" lon="6.10406">
        <ele>2564.8</ele>
        <time>2021-03-10T08:39:11Z</time>
      </trkpt>
      <trkpt lat="45.11601" lon="6.10406">
        <ele>2564.9</ele>
        <time>2021-03-10T08:39:12Z</time>
      </trkpt>
      <trkpt lat="45.11601" lon="6.10407">
        <ele>2565</ele>
        <time>2021-03-10T08:39:13Z</time>
      </trkpt>
      <trkpt lat="45.11602" lon="6.10408">
        <ele>2565.2</ele>
        <time>2021-03-10T08:39:14Z</time>
      </trkpt>
      <trkpt lat="45.11602" lon="6.10408">
        <ele>2565.3</ele>
        <time>2021-03-10T08:39:15Z</time>
      </trkpt>
      <trkpt lat="45.11602" lon="6.10408">
        <ele>2565.4</ele>
        <time>2021-03-10T08:39:16Z</time>
      </trkpt>
      <trkpt lat="45.11603" lon="6.10409">
        <ele>2565.5</ele>
        <time>2021-03-10T08:39:17Z</time>
      </trkpt>
      <trkpt lat="45.11603" lon="6.10409">
        <ele>2565.5</ele>
        <time>2021-03-10T08:39:18Z</time>
      </trkpt>
      <trkpt lat="45.11603" lon="6.10409">
        <ele>2565.6</ele>
        <time>2021-03-10T08:39:19Z</time>
      </trkpt>
      <trkpt lat="45.11604" lon="6.10409">
        <ele>2565.7</ele>
        <time>2021-03-10T08:39:20Z</time>
      </trkpt>
      <trkpt lat="45.11604" lon="6.1041">
        <ele>2565.8</ele>
        <time>2021-03-10T08:39:21Z</time>
      </trkpt>
      <trkpt lat="45.11605" lon="6.10411">
        <ele>2566</ele>
        <time>2021-03-10T08:39:22Z</time>
      </trkpt>
      <trkpt lat="45.11605" lon="6.10411">
        <ele>2566.1</ele>
        <time>2021-03-10T08:39:23Z</time>
      </trkpt>
      <trkpt lat="45.11606" lon="6.10412">
        <ele>2566.3</ele>
        <time>2021-03-10T08:39:24Z</time>
      </trkpt>
      <trkpt lat="45.11606" lon="6.10412">
        <ele>2566.4</ele>
        <time>2021-03-10T08:39:25Z</time>
      </trkpt>
      <trkpt lat="45.11607" lon="6.10413">
        <ele>2566.5</ele>
        <time>2021-03-10T08:39:26Z</time>
      </trkpt>
      <trkpt lat="45.11607" lon="6.10413">
        <ele>2566.6</ele>
        <time>2021-03-10T08:39:27Z</time>
      </trkpt>
      <trkpt lat="45.11607" lon="6.10413">
        <ele>2566.7</ele>
        <time>2021-03-10T08:39:28Z</time>
      </trkpt>
      <trkpt lat="45.11608" lon="6.10414">
        <ele>2566.9</ele>
        <time>2021-03-10T08:39:29Z</time>
      </trkpt>
      <trkpt lat="45.11609" lon="6.10414">
        <ele>2567</ele>
        <time>2021-03-10T08:39:30Z</time>
      </trkpt>
      <trkpt lat="45.11609" lon="6.10414">
        <ele>2567.2</ele>
        <time>2021-03-10T08:39:31Z</time>
      </trkpt>
      <trkpt lat="45.1161" lon="6.10414">
        <ele>2567.3</ele>
        <time>2021-03-10T08:39:32Z</time>
      </trkpt>
      <trkpt lat="45.11611" lon="6.10414">
        <ele>2567.4</ele>
        <time>2021-03-10T08:39:33Z</time>
      </trkpt>
      <trkpt lat="45.11611" lon="6.10414">
        <ele>2567.6</ele>
        <time>2021-03-10T08:39:34Z</time>
      </trkpt>
      <trkpt lat="45.11612" lon="6.10414">
        <ele>2567.7</ele>
        <time>2021-03-10T08:39:35Z</time>
      </trkpt>
      <trkpt lat="45.11613" lon="6.10414">
        <ele>2567.9</ele>
        <time>2021-03-10T08:39:36Z</time>
      </trkpt>
      <trkpt lat="45.11613" lon="6.10414">
        <ele>2568</ele>
        <time>2021-03-10T08:39:37Z</time>
      </trkpt>
      <trkpt lat="45.11614" lon="6.10413">
        <ele>2568.1</ele>
        <time>2021-03-10T08:39:38Z</time>
      </trkpt>
      <trkpt lat="45.11614" lon="6.10413">
        <ele>2568.3</ele>
        <time>2021-03-10T08:39:39Z</time>
      </trkpt>
      <trkpt lat="45.11615" lon="6.10413">
        <ele>2568.4</ele>
        <time>2021-03-10T08:39:40Z</time>
      </trkpt>
      <trkpt lat="45.11615" lon="6.10413">
        <ele>2568.5</ele>
        <time>2021-03-10T08:39:41Z</time>
      </trkpt>
      <trkpt lat="45.11616" lon="6.10413">
        <ele>2568.7</ele>
        <time>2021-03-10T08:39:42Z</time>
      </trkpt>
      <trkpt lat="45.11617" lon="6.10412">
        <ele>2568.9</ele>
        <time>2021-03-10T08:39:43Z</time>
      </trkpt>
      <trkpt lat="45.11618" lon="6.10412">
        <ele>2569.1</ele>
        <time>2021-03-10T08:39:44Z</time>
      </trkpt>
      <trkpt lat="45.11619" lon="6.10412">
        <ele>2569.4</ele>
        <time>2021-03-10T08:39:45Z</time>
      </trkpt>
      <trkpt lat="45.1162" lon="6.10412">
        <ele>2569.5</ele>
        <time>2021-03-10T08:39:46Z</time>
      </trkpt>
      <trkpt lat="45.11621" lon="6.10413">
        <ele>2569.7</ele>
        <time>2021-03-10T08:39:47Z</time>
      </trkpt>
      <trkpt lat="45.11621" lon="6.10413">
        <ele>2569.8</ele>
        <time>2021-03-10T08:39:48Z</time>
      </trkpt>
      <trkpt lat="45.11622" lon="6.10413">
        <ele>2569.9</ele>
        <time>2021-03-10T08:39:49Z</time>
      </trkpt>
      <trkpt lat="45.11622" lon="6.10413">
        <ele>2570.1</ele>
        <time>2021-03-10T08:39:50Z</time>
      </trkpt>
      <trkpt lat="45.11623" lon="6.10414">
        <ele>2570.2</ele>
        <time>2021-03-10T08:39:51Z</time>
      </trkpt>
      <trkpt lat="45.11624" lon="6.10414">
        <ele>2570.3</ele>
        <time>2021-03-10T08:39:52Z</time>
      </trkpt>
      <trkpt lat="45.11624" lon="6.10414">
        <ele>2570.4</ele>
        <time>2021-03-10T08:39:53Z</time>
      </trkpt>
      <trkpt lat="45.11624" lon="6.10414">
        <ele>2570.5</ele>
        <time>2021-03-10T08:39:54Z</time>
      </trkpt>
      <trkpt lat="45.11625" lon="6.10414">
        <ele>2570.6</ele>
        <time>2021-03-10T08:39:55Z</time>
      </trkpt>
      <trkpt lat="45.11626" lon="6.10414">
        <ele>2570.8</ele>
        <time>2021-03-10T08:39:56Z</time>
      </trkpt>
      <trkpt lat="45.11626" lon="6.10414">
        <ele>2570.9</ele>
        <time>2021-03-10T08:39:57Z</time>
      </trkpt>
      <trkpt lat="45.11627" lon="6.10414">
        <ele>2571.1</ele>
        <time>2021-03-10T08:39:58Z</time>
      </trkpt>
      <trkpt lat="45.11628" lon="6.10415">
        <ele>2571.2</ele>
        <time>2021-03-10T08:39:59Z</time>
      </trkpt>
      <trkpt lat="45.11628" lon="6.10415">
        <ele>2571.4</ele>
        <time>2021-03-10T08:40:00Z</time>
      </trkpt>
      <trkpt lat="45.11629" lon="6.10415">
        <ele>2571.5</ele>
        <time>2021-03-10T08:40:01Z</time>
      </trkpt>
      <trkpt lat="45.11629" lon="6.10415">
        <ele>2571.6</ele>
        <time>2021-03-10T08:40:02Z</time>
      </trkpt>
      <trkpt lat="45.1163" lon="6.10415">
        <ele>2571.8</ele>
        <time>2021-03-10T08:40:03Z</time>
      </trkpt>
      <trkpt lat="45.11631" lon="6.10415">
        <ele>2571.9</ele>
        <time>2021-03-10T08:40:04Z</time>
      </trkpt>
      <trkpt lat="45.11632" lon="6.10416">
        <ele>2572.1</ele>
        <time>2021-03-10T08:40:05Z</time>
      </trkpt>
      <trkpt lat="45.11632" lon="6.10416">
        <ele>2572.2</ele>
        <time>2021-03-10T08:40:06Z</time>
      </trkpt>
      <trkpt lat="45.11633" lon="6.10416">
        <ele>2572.4</ele>
        <time>2021-03-10T08:40:07Z</time>
      </trkpt>
      <trkpt lat="45.11634" lon="6.10416">
        <ele>2572.6</ele>
        <time>2021-03-10T08:40:08Z</time>
      </trkpt>
      <trkpt lat="45.11634" lon="6.10417">
        <ele>2572.7</ele>
        <time>2021-03-10T08:40:09Z</time>
      </trkpt>
      <trkpt lat="45.11635" lon="6.10417">
        <ele>2572.9</ele>
        <time>2021-03-10T08:40:10Z</time>
      </trkpt>
      <trkpt lat="45.11636" lon="6.10418">
        <ele>2573.1</ele>
        <time>2021-03-10T08:40:11Z</time>
      </trkpt>
      <trkpt lat="45.11637" lon="6.10418">
        <ele>2573.3</ele>
        <time>2021-03-10T08:40:12Z</time>
      </trkpt>
      <trkpt lat="45.11638" lon="6.10419">
        <ele>2573.5</ele>
        <time>2021-03-10T08:40:13Z</time>
      </trkpt>
      <trkpt lat="45.11639" lon="6.10419">
        <ele>2573.7</ele>
        <time>2021-03-10T08:40:14Z</time>
      </trkpt>
      <trkpt lat="45.11639" lon="6.1042">
        <ele>2573.9</ele>
        <time>2021-03-10T08:40:15Z</time>
      </trkpt>
      <trkpt lat="45.1164" lon="6.1042">
        <ele>2574</ele>
        <time>2021-03-10T08:40:16Z</time>
      </trkpt>
      <trkpt lat="45.1164" lon="6.10421">
        <ele>2574.1</ele>
        <time>2021-03-10T08:40:17Z</time>
      </trkpt>
      <trkpt lat="45.1164" lon="6.10422">
        <ele>2574.3</ele>
        <time>2021-03-10T08:40:18Z</time>
      </trkpt>
      <trkpt lat="45.11641" lon="6.10423">
        <ele>2574.4</ele>
        <time>2021-03-10T08:40:19Z</time>
      </trkpt>
      <trkpt lat="45.11641" lon="6.10423">
        <ele>2574.6</ele>
        <time>2021-03-10T08:40:20Z</time>
      </trkpt>
      <trkpt lat="45.11642" lon="6.10424">
        <ele>2574.8</ele>
        <time>2021-03-10T08:40:21Z</time>
      </trkpt>
      <trkpt lat="45.11642" lon="6.10425">
        <ele>2574.9</ele>
        <time>2021-03-10T08:40:22Z</time>
      </trkpt>
      <trkpt lat="45.11643" lon="6.10425">
        <ele>2575</ele>
        <time>2021-03-10T08:40:23Z</time>
      </trkpt>
      <trkpt lat="45.11643" lon="6.10426">
        <ele>2575.2</ele>
        <time>2021-03-10T08:40:24Z</time>
      </trkpt>
      <trkpt lat="45.11643" lon="6.10426">
        <ele>2575.3</ele>
        <time>2021-03-10T08:40:25Z</time>
      </trkpt>
      <trkpt lat="45.11644" lon="6.10427">
        <ele>2575.5</ele>
        <time>2021-03-10T08:40:26Z</time>
      </trkpt>
      <trkpt lat="45.11644" lon="6.10428">
        <ele>2575.7</ele>
        <time>2021-03-10T08:40:27Z</time>
      </trkpt>
      <trkpt lat="45.11645" lon="6.10429">
        <ele>2575.9</ele>
        <time>2021-03-10T08:40:28Z</time>
      </trkpt>
      <trkpt lat="45.11646" lon="6.1043">
        <ele>2576.2</ele>
        <time>2021-03-10T08:40:29Z</time>
      </trkpt>
      <trkpt lat="45.11647" lon="6.10431">
        <ele>2576.5</ele>
        <time>2021-03-10T08:40:30Z</time>
      </trkpt>
      <trkpt lat="45.11647" lon="6.10431">
        <ele>2576.7</ele>
        <time>2021-03-10T08:40:31Z</time>
      </trkpt>
      <trkpt lat="45.11648" lon="6.10432">
        <ele>2576.9</ele>
        <time>2021-03-10T08:40:32Z</time>
      </trkpt>
      <trkpt lat="45.11648" lon="6.10433">
        <ele>2577</ele>
        <time>2021-03-10T08:40:33Z</time>
      </trkpt>
      <trkpt lat="45.11649" lon="6.10433">
        <ele>2577.2</ele>
        <time>2021-03-10T08:40:34Z</time>
      </trkpt>
      <trkpt lat="45.11649" lon="6.10434">
        <ele>2577.4</ele>
        <time>2021-03-10T08:40:35Z</time>
      </trkpt>
      <trkpt lat="45.1165" lon="6.10434">
        <ele>2577.5</ele>
        <time>2021-03-10T08:40:36Z</time>
      </trkpt>
      <trkpt lat="45.1165" lon="6.10435">
        <ele>2577.7</ele>
        <time>2021-03-10T08:40:37Z</time>
      </trkpt>
      <trkpt lat="45.11651" lon="6.10435">
        <ele>2577.8</ele>
        <time>2021-03-10T08:40:38Z</time>
      </trkpt>
      <trkpt lat="45.11651" lon="6.10435">
        <ele>2577.9</ele>
        <time>2021-03-10T08:40:39Z</time>
      </trkpt>
      <trkpt lat="45.11651" lon="6.10435">
        <ele>2578</ele>
        <time>2021-03-10T08:40:40Z</time>
      </trkpt>
      <trkpt lat="45.11652" lon="6.10434">
        <ele>2578.2</ele>
        <time>2021-03-10T08:40:41Z</time>
      </trkpt>
      <trkpt lat="45.11653" lon="6.10433">
        <ele>2578.4</ele>
        <time>2021-03-10T08:40:42Z</time>
      </trkpt>
      <trkpt lat="45.11653" lon="6.10433">
        <ele>2578.6</ele>
        <time>2021-03-10T08:40:43Z</time>
      </trkpt>
      <trkpt lat="45.11654" lon="6.10432">
        <ele>2578.8</ele>
        <time>2021-03-10T08:40:44Z</time>
      </trkpt>
      <trkpt lat="45.11654" lon="6.10432">
        <ele>2579</ele>
        <time>2021-03-10T08:40:45Z</time>
      </trkpt>
      <trkpt lat="45.11655" lon="6.10431">
        <ele>2579.2</ele>
        <time>2021-03-10T08:40:46Z</time>
      </trkpt>
      <trkpt lat="45.11655" lon="6.1043">
        <ele>2579.4</ele>
        <time>2021-03-10T08:40:47Z</time>
      </trkpt>
      <trkpt lat="45.11656" lon="6.1043">
        <ele>2579.6</ele>
        <time>2021-03-10T08:40:48Z</time>
      </trkpt>
      <trkpt lat="45.11657" lon="6.10429">
        <ele>2579.8</ele>
        <time>2021-03-10T08:40:49Z</time>
      </trkpt>
      <trkpt lat="45.11657" lon="6.10429">
        <ele>2580</ele>
        <time>2021-03-10T08:40:50Z</time>
      </trkpt>
      <trkpt lat="45.11658" lon="6.10428">
        <ele>2580.2</ele>
        <time>2021-03-10T08:40:51Z</time>
      </trkpt>
      <trkpt lat="45.11659" lon="6.10428">
        <ele>2580.4</ele>
        <time>2021-03-10T08:40:52Z</time>
      </trkpt>
      <trkpt lat="45.11659" lon="6.10428">
        <ele>2580.5</ele>
        <time>2021-03-10T08:40:53Z</time>
      </trkpt>
      <trkpt lat="45.1166" lon="6.10428">
        <ele>2580.7</ele>
        <time>2021-03-10T08:40:54Z</time>
      </trkpt>
      <trkpt lat="45.1166" lon="6.10427">
        <ele>2580.9</ele>
        <time>2021-03-10T08:40:55Z</time>
      </trkpt>
      <trkpt lat="45.11661" lon="6.10427">
        <ele>2581</ele>
        <time>2021-03-10T08:40:56Z</time>
      </trkpt>
      <trkpt lat="45.11662" lon="6.10427">
        <ele>2581.2</ele>
        <time>2021-03-10T08:40:57Z</time>
      </trkpt>
      <trkpt lat="45.11662" lon="6.10427">
        <ele>2581.4</ele>
        <time>2021-03-10T08:40:58Z</time>
      </trkpt>
      <trkpt lat="45.11663" lon="6.10427">
        <ele>2581.6</ele>
        <time>2021-03-10T08:40:59Z</time>
      </trkpt>
      <trkpt lat="45.11664" lon="6.10427">
        <ele>2581.8</ele>
        <time>2021-03-10T08:41:00Z</time>
      </trkpt>
      <trkpt lat="45.11665" lon="6.10426">
        <ele>2582</ele>
        <time>2021-03-10T08:41:01Z</time>
      </trkpt>
      <trkpt lat="45.11666" lon="6.10426">
        <ele>2582.2</ele>
        <time>2021-03-10T08:41:02Z</time>
      </trkpt>
      <trkpt lat="45.11666" lon="6.10426">
        <ele>2582.3</ele>
        <time>2021-03-10T08:41:03Z</time>
      </trkpt>
      <trkpt lat="45.11667" lon="6.10426">
        <ele>2582.5</ele>
        <time>2021-03-10T08:41:04Z</time>
      </trkpt>
      <trkpt lat="45.11668" lon="6.10425">
        <ele>2582.7</ele>
        <time>2021-03-10T08:41:05Z</time>
      </trkpt>
      <trkpt lat="45.11668" lon="6.10425">
        <ele>2582.9</ele>
        <time>2021-03-10T08:41:06Z</time>
      </trkpt>
      <trkpt lat="45.11669" lon="6.10425">
        <ele>2583</ele>
        <time>2021-03-10T08:41:07Z</time>
      </trkpt>
      <trkpt lat="45.11669" lon="6.10424">
        <ele>2583.1</ele>
        <time>2021-03-10T08:41:08Z</time>
      </trkpt>
      <trkpt lat="45.1167" lon="6.10424">
        <ele>2583.3</ele>
        <time>2021-03-10T08:41:09Z</time>
      </trkpt>
      <trkpt lat="45.1167" lon="6.10424">
        <ele>2583.4</ele>
        <time>2021-03-10T08:41:10Z</time>
      </trkpt>
      <trkpt lat="45.11671" lon="6.10424">
        <ele>2583.5</ele>
        <time>2021-03-10T08:41:11Z</time>
      </trkpt>
      <trkpt lat="45.11672" lon="6.10423">
        <ele>2583.7</ele>
        <time>2021-03-10T08:41:12Z</time>
      </trkpt>
      <trkpt lat="45.11672" lon="6.10423">
        <ele>2583.8</ele>
        <time>2021-03-10T08:41:13Z</time>
      </trkpt>
      <trkpt lat="45.11673" lon="6.10423">
        <ele>2583.9</ele>
        <time>2021-03-10T08:41:14Z</time>
      </trkpt>
      <trkpt lat="45.11674" lon="6.10423">
        <ele>2584</ele>
        <time>2021-03-10T08:41:15Z</time>
      </trkpt>
      <trkpt lat="45.11674" lon="6.10422">
        <ele>2584.1</ele>
        <time>2021-03-10T08:41:16Z</time>
      </trkpt>
      <trkpt lat="45.11675" lon="6.10422">
        <ele>2584.2</ele>
        <time>2021-03-10T08:41:17Z</time>
      </trkpt>
      <trkpt lat="45.11675" lon="6.10422">
        <ele>2584.3</ele>
        <time>2021-03-10T08:41:18Z</time>
      </trkpt>
      <trkpt lat="45.11676" lon="6.10422">
        <ele>2584.4</ele>
        <time>2021-03-10T08:41:19Z</time>
      </trkpt>
      <trkpt lat="45.11677" lon="6.10422">
        <ele>2584.6</ele>
        <time>2021-03-10T08:41:20Z</time>
      </trkpt>
      <trkpt lat="45.11678" lon="6.10422">
        <ele>2584.7</ele>
        <time>2021-03-10T08:41:21Z</time>
      </trkpt>
      <trkpt lat="45.11679" lon="6.10422">
        <ele>2584.9</ele>
        <time>2021-03-10T08:41:22Z</time>
      </trkpt>
      <trkpt lat="45.1168" lon="6.10423">
        <ele>2585.1</ele>
        <time>2021-03-10T08:41:23Z</time>
      </trkpt>
      <trkpt lat="45.1168" lon="6.10423">
        <ele>2585.1</ele>
        <time>2021-03-10T08:41:24Z</time>
      </trkpt>
      <trkpt lat="45.11681" lon="6.10423">
        <ele>2585.3</ele>
        <time>2021-03-10T08:41:25Z</time>
      </trkpt>
      <trkpt lat="45.11682" lon="6.10423">
        <ele>2585.4</ele>
        <time>2021-03-10T08:41:26Z</time>
      </trkpt>
      <trkpt lat="45.11682" lon="6.10423">
        <ele>2585.5</ele>
        <time>2021-03-10T08:41:27Z</time>
      </trkpt>
      <trkpt lat="45.11683" lon="6.10423">
        <ele>2585.6</ele>
        <time>2021-03-10T08:41:28Z</time>
      </trkpt>
      <trkpt lat="45.11683" lon="6.10423">
        <ele>2585.6</ele>
        <time>2021-03-10T08:41:29Z</time>
      </trkpt>
      <trkpt lat="45.11684" lon="6.10424">
        <ele>2585.7</ele>
        <time>2021-03-10T08:41:30Z</time>
      </trkpt>
      <trkpt lat="45.11684" lon="6.10424">
        <ele>2585.8</ele>
        <time>2021-03-10T08:41:31Z</time>
      </trkpt>
      <trkpt lat="45.11685" lon="6.10424">
        <ele>2585.9</ele>
        <time>2021-03-10T08:41:32Z</time>
      </trkpt>
      <trkpt lat="45.11685" lon="6.10424">
        <ele>2586</ele>
        <time>2021-03-10T08:41:33Z</time>
      </trkpt>
      <trkpt lat="45.11685" lon="6.10424">
        <ele>2586</ele>
        <time>2021-03-10T08:41:34Z</time>
      </trkpt>
      <trkpt lat="45.11686" lon="6.10424">
        <ele>2586.1</ele>
        <time>2021-03-10T08:41:35Z</time>
      </trkpt>
      <trkpt lat="45.11686" lon="6.10424">
        <ele>2586.2</ele>
        <time>2021-03-10T08:41:36Z</time>
      </trkpt>
      <trkpt lat="45.11687" lon="6.10424">
        <ele>2586.3</ele>
        <time>2021-03-10T08:41:37Z</time>
      </trkpt>
      <trkpt lat="45.11688" lon="6.10424">
        <ele>2586.4</ele>
        <time>2021-03-10T08:41:38Z</time>
      </trkpt>
      <trkpt lat="45.11689" lon="6.10425">
        <ele>2586.5</ele>
        <time>2021-03-10T08:41:39Z</time>
      </trkpt>
      <trkpt lat="45.11689" lon="6.10425">
        <ele>2586.6</ele>
        <time>2021-03-10T08:41:40Z</time>
      </trkpt>
      <trkpt lat="45.1169" lon="6.10425">
        <ele>2586.7</ele>
        <time>2021-03-10T08:41:41Z</time>
      </trkpt>
      <trkpt lat="45.11691" lon="6.10425">
        <ele>2586.8</ele>
        <time>2021-03-10T08:41:42Z</time>
      </trkpt>
      <trkpt lat="45.11691" lon="6.10425">
        <ele>2587</ele>
        <time>2021-03-10T08:41:43Z</time>
      </trkpt>
      <trkpt lat="45.11692" lon="6.10425">
        <ele>2587.1</ele>
        <time>2021-03-10T08:41:44Z</time>
      </trkpt>
      <trkpt lat="45.11693" lon="6.10426">
        <ele>2587.2</ele>
        <time>2021-03-10T08:41:45Z</time>
      </trkpt>
      <trkpt lat="45.11694" lon="6.10426">
        <ele>2587.4</ele>
        <time>2021-03-10T08:41:46Z</time>
      </trkpt>
      <trkpt lat="45.11695" lon="6.10426">
        <ele>2587.5</ele>
        <time>2021-03-10T08:41:47Z</time>
      </trkpt>
      <trkpt lat="45.11696" lon="6.10426">
        <ele>2587.6</ele>
        <time>2021-03-10T08:41:48Z</time>
      </trkpt>
      <trkpt lat="45.11697" lon="6.10427">
        <ele>2587.7</ele>
        <time>2021-03-10T08:41:49Z</time>
      </trkpt>
      <trkpt lat="45.11697" lon="6.10427">
        <ele>2587.8</ele>
        <time>2021-03-10T08:41:50Z</time>
      </trkpt>
      <trkpt lat="45.11698" lon="6.10427">
        <ele>2587.9</ele>
        <time>2021-03-10T08:41:51Z</time>
      </trkpt>
      <trkpt lat="45.11699" lon="6.10428">
        <ele>2588.1</ele>
        <time>2021-03-10T08:41:52Z</time>
      </trkpt>
      <trkpt lat="45.117" lon="6.10429">
        <ele>2588.2</ele>
        <time>2021-03-10T08:41:53Z</time>
      </trkpt>
      <trkpt lat="45.11701" lon="6.10429">
        <ele>2588.4</ele>
        <time>2021-03-10T08:41:54Z</time>
      </trkpt>
      <trkpt lat="45.11702" lon="6.1043">
        <ele>2588.5</ele>
        <time>2021-03-10T08:41:55Z</time>
      </trkpt>
      <trkpt lat="45.11702" lon="6.1043">
        <ele>2588.6</ele>
        <time>2021-03-10T08:41:56Z</time>
      </trkpt>
      <trkpt lat="45.11703" lon="6.10431">
        <ele>2588.7</ele>
        <time>2021-03-10T08:41:57Z</time>
      </trkpt>
      <trkpt lat="45.11704" lon="6.10431">
        <ele>2588.8</ele>
        <time>2021-03-10T08:41:58Z</time>
      </trkpt>
      <trkpt lat="45.11705" lon="6.10432">
        <ele>2589</ele>
        <time>2021-03-10T08:41:59Z</time>
      </trkpt>
      <trkpt lat="45.11706" lon="6.10432">
        <ele>2589.1</ele>
        <time>2021-03-10T08:42:00Z</time>
      </trkpt>
      <trkpt lat="45.11707" lon="6.10433">
        <ele>2589.2</ele>
        <time>2021-03-10T08:42:01Z</time>
      </trkpt>
      <trkpt lat="45.11708" lon="6.10433">
        <ele>2589.4</ele>
        <time>2021-03-10T08:42:02Z</time>
      </trkpt>
      <trkpt lat="45.11708" lon="6.10434">
        <ele>2589.5</ele>
        <time>2021-03-10T08:42:03Z</time>
      </trkpt>
      <trkpt lat="45.11709" lon="6.10434">
        <ele>2589.6</ele>
        <time>2021-03-10T08:42:04Z</time>
      </trkpt>
      <trkpt lat="45.1171" lon="6.10435">
        <ele>2589.7</ele>
        <time>2021-03-10T08:42:05Z</time>
      </trkpt>
      <trkpt lat="45.11711" lon="6.10435">
        <ele>2589.8</ele>
        <time>2021-03-10T08:42:06Z</time>
      </trkpt>
      <trkpt lat="45.11711" lon="6.10435">
        <ele>2589.9</ele>
        <time>2021-03-10T08:42:07Z</time>
      </trkpt>
      <trkpt lat="45.11712" lon="6.10435">
        <ele>2590</ele>
        <time>2021-03-10T08:42:08Z</time>
      </trkpt>
      <trkpt lat="45.11713" lon="6.10435">
        <ele>2590.2</ele>
        <time>2021-03-10T08:42:09Z</time>
      </trkpt>
      <trkpt lat="45.11714" lon="6.10435">
        <ele>2590.3</ele>
        <time>2021-03-10T08:42:10Z</time>
      </trkpt>
      <trkpt lat="45.11714" lon="6.10436">
        <ele>2590.4</ele>
        <time>2021-03-10T08:42:11Z</time>
      </trkpt>
      <trkpt lat="45.11715" lon="6.10436">
        <ele>2590.5</ele>
        <time>2021-03-10T08:42:12Z</time>
      </trkpt>
      <trkpt lat="45.11716" lon="6.10436">
        <ele>2590.7</ele>
        <time>2021-03-10T08:42:13Z</time>
      </trkpt>
      <trkpt lat="45.11717" lon="6.10436">
        <ele>2590.8</ele>
        <time>2021-03-10T08:42:14Z</time>
      </trkpt>
      <trkpt lat="45.11717" lon="6.10437">
        <ele>2590.9</ele>
        <time>2021-03-10T08:42:15Z</time>
      </trkpt>
      <trkpt lat="45.11718" lon="6.10437">
        <ele>2591</ele>
        <time>2021-03-10T08:42:16Z</time>
      </trkpt>
      <trkpt lat="45.11719" lon="6.10437">
        <ele>2591.1</ele>
        <time>2021-03-10T08:42:17Z</time>
      </trkpt>
      <trkpt lat="45.11719" lon="6.10438">
        <ele>2591.2</ele>
        <time>2021-03-10T08:42:18Z</time>
      </trkpt>
      <trkpt lat="45.1172" lon="6.10438">
        <ele>2591.3</ele>
        <time>2021-03-10T08:42:19Z</time>
      </trkpt>
      <trkpt lat="45.1172" lon="6.10439">
        <ele>2591.5</ele>
        <time>2021-03-10T08:42:20Z</time>
      </trkpt>
      <trkpt lat="45.11721" lon="6.10439">
        <ele>2591.6</ele>
        <time>2021-03-10T08:42:21Z</time>
      </trkpt>
      <trkpt lat="45.11721" lon="6.10439">
        <ele>2591.7</ele>
        <time>2021-03-10T08:42:22Z</time>
      </trkpt>
      <trkpt lat="45.11722" lon="6.1044">
        <ele>2591.8</ele>
        <time>2021-03-10T08:42:23Z</time>
      </trkpt>
      <trkpt lat="45.11723" lon="6.10441">
        <ele>2592</ele>
        <time>2021-03-10T08:42:24Z</time>
      </trkpt>
      <trkpt lat="45.11724" lon="6.10441">
        <ele>2592.1</ele>
        <time>2021-03-10T08:42:25Z</time>
      </trkpt>
      <trkpt lat="45.11724" lon="6.10442">
        <ele>2592.2</ele>
        <time>2021-03-10T08:42:26Z</time>
      </trkpt>
      <trkpt lat="45.11725" lon="6.10442">
        <ele>2592.4</ele>
        <time>2021-03-10T08:42:27Z</time>
      </trkpt>
      <trkpt lat="45.11726" lon="6.10443">
        <ele>2592.6</ele>
        <time>2021-03-10T08:42:28Z</time>
      </trkpt>
      <trkpt lat="45.11727" lon="6.10443">
        <ele>2592.8</ele>
        <time>2021-03-10T08:42:29Z</time>
      </trkpt>
      <trkpt lat="45.11728" lon="6.10444">
        <ele>2592.9</ele>
        <time>2021-03-10T08:42:30Z</time>
      </trkpt>
      <trkpt lat="45.11728" lon="6.10445">
        <ele>2593.1</ele>
        <time>2021-03-10T08:42:31Z</time>
      </trkpt>
      <trkpt lat="45.11729" lon="6.10445">
        <ele>2593.3</ele>
        <time>2021-03-10T08:42:32Z</time>
      </trkpt>
      <trkpt lat="45.1173" lon="6.10446">
        <ele>2593.5</ele>
        <time>2021-03-10T08:42:33Z</time>
      </trkpt>
      <trkpt lat="45.11731" lon="6.10447">
        <ele>2593.7</ele>
        <time>2021-03-10T08:42:34Z</time>
      </trkpt>
      <trkpt lat="45.11732" lon="6.10448">
        <ele>2593.9</ele>
        <time>2021-03-10T08:42:35Z</time>
      </trkpt>
      <trkpt lat="45.11733" lon="6.10448">
        <ele>2594.1</ele>
        <time>2021-03-10T08:42:36Z</time>
      </trkpt>
      <trkpt lat="45.11733" lon="6.10449">
        <ele>2594.3</ele>
        <time>2021-03-10T08:42:37Z</time>
      </trkpt>
      <trkpt lat="45.11734" lon="6.10449">
        <ele>2594.4</ele>
        <time>2021-03-10T08:42:38Z</time>
      </trkpt>
      <trkpt lat="45.11735" lon="6.10449">
        <ele>2594.5</ele>
        <time>2021-03-10T08:42:39Z</time>
      </trkpt>
      <trkpt lat="45.11735" lon="6.10448">
        <ele>2594.7</ele>
        <time>2021-03-10T08:42:40Z</time>
      </trkpt>
      <trkpt lat="45.11736" lon="6.10448">
        <ele>2594.8</ele>
        <time>2021-03-10T08:42:41Z</time>
      </trkpt>
      <trkpt lat="45.11736" lon="6.10447">
        <ele>2595</ele>
        <time>2021-03-10T08:42:42Z</time>
      </trkpt>
      <trkpt lat="45.11737" lon="6.10446">
        <ele>2595.1</ele>
        <time>2021-03-10T08:42:43Z</time>
      </trkpt>
      <trkpt lat="45.11737" lon="6.10445">
        <ele>2595.3</ele>
        <time>2021-03-10T08:42:44Z</time>
      </trkpt>
      <trkpt lat="45.11738" lon="6.10445">
        <ele>2595.5</ele>
        <time>2021-03-10T08:42:45Z</time>
      </trkpt>
      <trkpt lat="45.11739" lon="6.10444">
        <ele>2595.7</ele>
        <time>2021-03-10T08:42:46Z</time>
      </trkpt>
      <trkpt lat="45.1174" lon="6.10443">
        <ele>2595.9</ele>
        <time>2021-03-10T08:42:47Z</time>
      </trkpt>
      <trkpt lat="45.1174" lon="6.10442">
        <ele>2596.1</ele>
        <time>2021-03-10T08:42:48Z</time>
      </trkpt>
      <trkpt lat="45.11741" lon="6.10441">
        <ele>2596.3</ele>
        <time>2021-03-10T08:42:49Z</time>
      </trkpt>
      <trkpt lat="45.11742" lon="6.1044">
        <ele>2596.5</ele>
        <time>2021-03-10T08:42:50Z</time>
      </trkpt>
      <trkpt lat="45.11742" lon="6.1044">
        <ele>2596.7</ele>
        <time>2021-03-10T08:42:51Z</time>
      </trkpt>
      <trkpt lat="45.11743" lon="6.10439">
        <ele>2596.8</ele>
        <time>2021-03-10T08:42:52Z</time>
      </trkpt>
      <trkpt lat="45.11743" lon="6.10438">
        <ele>2597</ele>
        <time>2021-03-10T08:42:53Z</time>
      </trkpt>
      <trkpt lat="45.11744" lon="6.10438">
        <ele>2597.1</ele>
        <time>2021-03-10T08:42:54Z</time>
      </trkpt>
      <trkpt lat="45.11745" lon="6.10437">
        <ele>2597.3</ele>
        <time>2021-03-10T08:42:55Z</time>
      </trkpt>
      <trkpt lat="45.11745" lon="6.10436">
        <ele>2597.5</ele>
        <time>2021-03-10T08:42:56Z</time>
      </trkpt>
      <trkpt lat="45.11746" lon="6.10436">
        <ele>2597.7</ele>
        <time>2021-03-10T08:42:57Z</time>
      </trkpt>
      <trkpt lat="45.11747" lon="6.10435">
        <ele>2597.9</ele>
        <time>2021-03-10T08:42:58Z</time>
      </trkpt>
      <trkpt lat="45.11748" lon="6.10434">
        <ele>2598.1</ele>
        <time>2021-03-10T08:42:59Z</time>
      </trkpt>
      <trkpt lat="45.11748" lon="6.10434">
        <ele>2598.3</ele>
        <time>2021-03-10T08:43:00Z</time>
      </trkpt>
      <trkpt lat="45.11749" lon="6.10433">
        <ele>2598.4</ele>
        <time>2021-03-10T08:43:01Z</time>
      </trkpt>
      <trkpt lat="45.1175" lon="6.10433">
        <ele>2598.6</ele>
        <time>2021-03-10T08:43:02Z</time>
      </trkpt>
      <trkpt lat="45.1175" lon="6.10432">
        <ele>2598.8</ele>
        <time>2021-03-10T08:43:03Z</time>
      </trkpt>
      <trkpt lat="45.11751" lon="6.10432">
        <ele>2599</ele>
        <time>2021-03-10T08:43:04Z</time>
      </trkpt>
      <trkpt lat="45.11752" lon="6.10432">
        <ele>2599.1</ele>
        <time>2021-03-10T08:43:05Z</time>
      </trkpt>
      <trkpt lat="45.11753" lon="6.10431">
        <ele>2599.3</ele>
        <time>2021-03-10T08:43:06Z</time>
      </trkpt>
      <trkpt lat="45.11754" lon="6.10431">
        <ele>2599.5</ele>
        <time>2021-03-10T08:43:07Z</time>
      </trkpt>
      <trkpt lat="45.11754" lon="6.1043">
        <ele>2599.7</ele>
        <time>2021-03-10T08:43:08Z</time>
      </trkpt>
      <trkpt lat="45.11755" lon="6.1043">
        <ele>2599.8</ele>
        <time>2021-03-10T08:43:09Z</time>
      </trkpt>
      <trkpt lat="45.11756" lon="6.10429">
        <ele>2600</ele>
        <time>2021-03-10T08:43:10Z</time>
      </trkpt>
      <trkpt lat="45.11756" lon="6.10429">
        <ele>2600.2</ele>
        <time>2021-03-10T08:43:11Z</time>
      </trkpt>
      <trkpt lat="45.11757" lon="6.10428">
        <ele>2600.3</ele>
        <time>2021-03-10T08:43:12Z</time>
      </trkpt>
      <trkpt lat="45.11758" lon="6.10428">
        <ele>2600.5</ele>
        <time>2021-03-10T08:43:13Z</time>
      </trkpt>
      <trkpt lat="45.11758" lon="6.10427">
        <ele>2600.7</ele>
        <time>2021-03-10T08:43:14Z</time>
      </trkpt>
      <trkpt lat="45.11759" lon="6.10427">
        <ele>2600.9</ele>
        <time>2021-03-10T08:43:15Z</time>
      </trkpt>
      <trkpt lat="45.1176" lon="6.10426">
        <ele>2601</ele>
        <time>2021-03-10T08:43:16Z</time>
      </trkpt>
      <trkpt lat="45.1176" lon="6.10426">
        <ele>2601.2</ele>
        <time>2021-03-10T08:43:17Z</time>
      </trkpt>
      <trkpt lat="45.11761" lon="6.10425">
        <ele>2601.4</ele>
        <time>2021-03-10T08:43:18Z</time>
      </trkpt>
      <trkpt lat="45.11762" lon="6.10425">
        <ele>2601.5</ele>
        <time>2021-03-10T08:43:19Z</time>
      </trkpt>
      <trkpt lat="45.11762" lon="6.10425">
        <ele>2601.6</ele>
        <time>2021-03-10T08:43:20Z</time>
      </trkpt>
      <trkpt lat="45.11763" lon="6.10425">
        <ele>2601.8</ele>
        <time>2021-03-10T08:43:21Z</time>
      </trkpt>
      <trkpt lat="45.11764" lon="6.10426">
        <ele>2602</ele>
        <time>2021-03-10T08:43:22Z</time>
      </trkpt>
      <trkpt lat="45.11764" lon="6.10427">
        <ele>2602.2</ele>
        <time>2021-03-10T08:43:23Z</time>
      </trkpt>
      <trkpt lat="45.11765" lon="6.10428">
        <ele>2602.4</ele>
        <time>2021-03-10T08:43:24Z</time>
      </trkpt>
      <trkpt lat="45.11766" lon="6.10428">
        <ele>2602.6</ele>
        <time>2021-03-10T08:43:25Z</time>
      </trkpt>
      <trkpt lat="45.11767" lon="6.1043">
        <ele>2602.9</ele>
        <time>2021-03-10T08:43:26Z</time>
      </trkpt>
      <trkpt lat="45.11768" lon="6.10431">
        <ele>2603</ele>
        <time>2021-03-10T08:43:27Z</time>
      </trkpt>
      <trkpt lat="45.11768" lon="6.10431">
        <ele>2603.2</ele>
        <time>2021-03-10T08:43:28Z</time>
      </trkpt>
      <trkpt lat="45.11768" lon="6.10432">
        <ele>2603.3</ele>
        <time>2021-03-10T08:43:29Z</time>
      </trkpt>
      <trkpt lat="45.11769" lon="6.10433">
        <ele>2603.5</ele>
        <time>2021-03-10T08:43:30Z</time>
      </trkpt>
      <trkpt lat="45.1177" lon="6.10434">
        <ele>2603.7</ele>
        <time>2021-03-10T08:43:31Z</time>
      </trkpt>
      <trkpt lat="45.11771" lon="6.10435">
        <ele>2603.9</ele>
        <time>2021-03-10T08:43:32Z</time>
      </trkpt>
      <trkpt lat="45.11771" lon="6.10436">
        <ele>2604</ele>
        <time>2021-03-10T08:43:33Z</time>
      </trkpt>
      <trkpt lat="45.11772" lon="6.10436">
        <ele>2604.2</ele>
        <time>2021-03-10T08:43:34Z</time>
      </trkpt>
      <trkpt lat="45.11773" lon="6.10437">
        <ele>2604.3</ele>
        <time>2021-03-10T08:43:35Z</time>
      </trkpt>
      <trkpt lat="45.11773" lon="6.10437">
        <ele>2604.4</ele>
        <time>2021-03-10T08:43:36Z</time>
      </trkpt>
      <trkpt lat="45.11774" lon="6.10438">
        <ele>2604.6</ele>
        <time>2021-03-10T08:43:37Z</time>
      </trkpt>
      <trkpt lat="45.11775" lon="6.10439">
        <ele>2604.8</ele>
        <time>2021-03-10T08:43:38Z</time>
      </trkpt>
      <trkpt lat="45.11776" lon="6.10439">
        <ele>2604.9</ele>
        <time>2021-03-10T08:43:39Z</time>
      </trkpt>
      <trkpt lat="45.11776" lon="6.1044">
        <ele>2605</ele>
        <time>2021-03-10T08:43:40Z</time>
      </trkpt>
      <trkpt lat="45.11777" lon="6.1044">
        <ele>2605.1</ele>
        <time>2021-03-10T08:43:41Z</time>
      </trkpt>
      <trkpt lat="45.11777" lon="6.1044">
        <ele>2605.2</ele>
        <time>2021-03-10T08:43:42Z</time>
      </trkpt>
      <trkpt lat="45.11778" lon="6.1044">
        <ele>2605.4</ele>
        <time>2021-03-10T08:43:43Z</time>
      </trkpt>
      <trkpt lat="45.11779" lon="6.1044">
        <ele>2605.4</ele>
        <time>2021-03-10T08:43:44Z</time>
      </trkpt>
      <trkpt lat="45.11779" lon="6.1044">
        <ele>2605.5</ele>
        <time>2021-03-10T08:43:45Z</time>
      </trkpt>
      <trkpt lat="45.1178" lon="6.1044">
        <ele>2605.6</ele>
        <time>2021-03-10T08:43:46Z</time>
      </trkpt>
      <trkpt lat="45.1178" lon="6.1044">
        <ele>2605.7</ele>
        <time>2021-03-10T08:43:47Z</time>
      </trkpt>
      <trkpt lat="45.1178" lon="6.1044">
        <ele>2605.7</ele>
        <time>2021-03-10T08:43:48Z</time>
      </trkpt>
      <trkpt lat="45.11781" lon="6.1044">
        <ele>2605.8</ele>
        <time>2021-03-10T08:43:49Z</time>
      </trkpt>
      <trkpt lat="45.11782" lon="6.1044">
        <ele>2605.9</ele>
        <time>2021-03-10T08:43:50Z</time>
      </trkpt>
      <trkpt lat="45.11782" lon="6.1044">
        <ele>2606</ele>
        <time>2021-03-10T08:43:51Z</time>
      </trkpt>
      <trkpt lat="45.11783" lon="6.10441">
        <ele>2606.2</ele>
        <time>2021-03-10T08:43:52Z</time>
      </trkpt>
      <trkpt lat="45.11784" lon="6.10441">
        <ele>2606.4</ele>
        <time>2021-03-10T08:43:53Z</time>
      </trkpt>
      <trkpt lat="45.11785" lon="6.10441">
        <ele>2606.5</ele>
        <time>2021-03-10T08:43:54Z</time>
      </trkpt>
      <trkpt lat="45.11786" lon="6.10442">
        <ele>2606.5</ele>
        <time>2021-03-10T08:43:55Z</time>
      </trkpt>
      <trkpt lat="45.11786" lon="6.10442">
        <ele>2606.6</ele>
        <time>2021-03-10T08:43:56Z</time>
      </trkpt>
      <trkpt lat="45.11787" lon="6.10442">
        <ele>2606.7</ele>
        <time>2021-03-10T08:43:57Z</time>
      </trkpt>
      <trkpt lat="45.11787" lon="6.10442">
        <ele>2606.8</ele>
        <time>2021-03-10T08:43:58Z</time>
      </trkpt>
      <trkpt lat="45.11788" lon="6.10442">
        <ele>2606.9</ele>
        <time>2021-03-10T08:43:59Z</time>
      </trkpt>
      <trkpt lat="45.11789" lon="6.10442">
        <ele>2607</ele>
        <time>2021-03-10T08:44:00Z</time>
      </trkpt>
      <trkpt lat="45.11789" lon="6.10443">
        <ele>2607.1</ele>
        <time>2021-03-10T08:44:01Z</time>
      </trkpt>
      <trkpt lat="45.1179" lon="6.10443">
        <ele>2607.2</ele>
        <time>2021-03-10T08:44:02Z</time>
      </trkpt>
      <trkpt lat="45.11791" lon="6.10443">
        <ele>2607.4</ele>
        <time>2021-03-10T08:44:03Z</time>
      </trkpt>
      <trkpt lat="45.11792" lon="6.10444">
        <ele>2607.5</ele>
        <time>2021-03-10T08:44:04Z</time>
      </trkpt>
      <trkpt lat="45.11793" lon="6.10445">
        <ele>2607.7</ele>
        <time>2021-03-10T08:44:05Z</time>
      </trkpt>
      <trkpt lat="45.11794" lon="6.10445">
        <ele>2607.8</ele>
        <time>2021-03-10T08:44:06Z</time>
      </trkpt>
      <trkpt lat="45.11795" lon="6.10445">
        <ele>2607.9</ele>
        <time>2021-03-10T08:44:07Z</time>
      </trkpt>
      <trkpt lat="45.11795" lon="6.10445">
        <ele>2608</ele>
        <time>2021-03-10T08:44:08Z</time>
      </trkpt>
      <trkpt lat="45.11796" lon="6.10445">
        <ele>2608</ele>
        <time>2021-03-10T08:44:09Z</time>
      </trkpt>
      <trkpt lat="45.11796" lon="6.10445">
        <ele>2608.1</ele>
        <time>2021-03-10T08:44:10Z</time>
      </trkpt>
      <trkpt lat="45.11797" lon="6.10445">
        <ele>2608.2</ele>
        <time>2021-03-10T08:44:11Z</time>
      </trkpt>
      <trkpt lat="45.11798" lon="6.10446">
        <ele>2608.3</ele>
        <time>2021-03-10T08:44:12Z</time>
      </trkpt>
      <trkpt lat="45.11798" lon="6.10446">
        <ele>2608.4</ele>
        <time>2021-03-10T08:44:13Z</time>
      </trkpt>
      <trkpt lat="45.11799" lon="6.10446">
        <ele>2608.4</ele>
        <time>2021-03-10T08:44:14Z</time>
      </trkpt>
      <trkpt lat="45.11799" lon="6.10447">
        <ele>2608.5</ele>
        <time>2021-03-10T08:44:15Z</time>
      </trkpt>
      <trkpt lat="45.118" lon="6.10447">
        <ele>2608.6</ele>
        <time>2021-03-10T08:44:16Z</time>
      </trkpt>
      <trkpt lat="45.11801" lon="6.10447">
        <ele>2608.7</ele>
        <time>2021-03-10T08:44:17Z</time>
      </trkpt>
      <trkpt lat="45.11802" lon="6.10447">
        <ele>2608.9</ele>
        <time>2021-03-10T08:44:18Z</time>
      </trkpt>
      <trkpt lat="45.11803" lon="6.10447">
        <ele>2609</ele>
        <time>2021-03-10T08:44:19Z</time>
      </trkpt>
      <trkpt lat="45.11803" lon="6.10447">
        <ele>2609.1</ele>
        <time>2021-03-10T08:44:20Z</time>
      </trkpt>
      <trkpt lat="45.11804" lon="6.10447">
        <ele>2609.2</ele>
        <time>2021-03-10T08:44:21Z</time>
      </trkpt>
      <trkpt lat="45.11805" lon="6.10447">
        <ele>2609.3</ele>
        <time>2021-03-10T08:44:22Z</time>
      </trkpt>
      <trkpt lat="45.11806" lon="6.10446">
        <ele>2609.4</ele>
        <time>2021-03-10T08:44:23Z</time>
      </trkpt>
      <trkpt lat="45.11807" lon="6.10446">
        <ele>2609.5</ele>
        <time>2021-03-10T08:44:24Z</time>
      </trkpt>
      <trkpt lat="45.11808" lon="6.10446">
        <ele>2609.6</ele>
        <time>2021-03-10T08:44:25Z</time>
      </trkpt>
      <trkpt lat="45.11809" lon="6.10446">
        <ele>2609.7</ele>
        <time>2021-03-10T08:44:26Z</time>
      </trkpt>
      <trkpt lat="45.11809" lon="6.10446">
        <ele>2609.8</ele>
        <time>2021-03-10T08:44:27Z</time>
      </trkpt>
      <trkpt lat="45.1181" lon="6.10446">
        <ele>2609.9</ele>
        <time>2021-03-10T08:44:28Z</time>
      </trkpt>
      <trkpt lat="45.11811" lon="6.10446">
        <ele>2610</ele>
        <time>2021-03-10T08:44:29Z</time>
      </trkpt>
      <trkpt lat="45.11812" lon="6.10446">
        <ele>2610.1</ele>
        <time>2021-03-10T08:44:30Z</time>
      </trkpt>
      <trkpt lat="45.11812" lon="6.10446">
        <ele>2610.2</ele>
        <time>2021-03-10T08:44:31Z</time>
      </trkpt>
      <trkpt lat="45.11813" lon="6.10446">
        <ele>2610.3</ele>
        <time>2021-03-10T08:44:32Z</time>
      </trkpt>
      <trkpt lat="45.11814" lon="6.10446">
        <ele>2610.4</ele>
        <time>2021-03-10T08:44:33Z</time>
      </trkpt>
      <trkpt lat="45.11815" lon="6.10446">
        <ele>2610.5</ele>
        <time>2021-03-10T08:44:34Z</time>
      </trkpt>
      <trkpt lat="45.11816" lon="6.10446">
        <ele>2610.6</ele>
        <time>2021-03-10T08:44:35Z</time>
      </trkpt>
      <trkpt lat="45.11817" lon="6.10446">
        <ele>2610.7</ele>
        <time>2021-03-10T08:44:36Z</time>
      </trkpt>
      <trkpt lat="45.11818" lon="6.10447">
        <ele>2610.8</ele>
        <time>2021-03-10T08:44:37Z</time>
      </trkpt>
      <trkpt lat="45.11819" lon="6.10448">
        <ele>2610.9</ele>
        <time>2021-03-10T08:44:38Z</time>
      </trkpt>
      <trkpt lat="45.11819" lon="6.10448">
        <ele>2611</ele>
        <time>2021-03-10T08:44:39Z</time>
      </trkpt>
      <trkpt lat="45.1182" lon="6.10449">
        <ele>2611.1</ele>
        <time>2021-03-10T08:44:40Z</time>
      </trkpt>
      <trkpt lat="45.11821" lon="6.10449">
        <ele>2611.2</ele>
        <time>2021-03-10T08:44:41Z</time>
      </trkpt>
      <trkpt lat="45.11822" lon="6.10449">
        <ele>2611.3</ele>
        <time>2021-03-10T08:44:42Z</time>
      </trkpt>
      <trkpt lat="45.11823" lon="6.1045">
        <ele>2611.4</ele>
        <time>2021-03-10T08:44:43Z</time>
      </trkpt>
      <trkpt lat="45.11824" lon="6.1045">
        <ele>2611.5</ele>
        <time>2021-03-10T08:44:44Z</time>
      </trkpt>
      <trkpt lat="45.11825" lon="6.1045">
        <ele>2611.6</ele>
        <time>2021-03-10T08:44:45Z</time>
      </trkpt>
      <trkpt lat="45.11825" lon="6.1045">
        <ele>2611.7</ele>
        <time>2021-03-10T08:44:46Z</time>
      </trkpt>
      <trkpt lat="45.11826" lon="6.1045">
        <ele>2611.8</ele>
        <time>2021-03-10T08:44:47Z</time>
      </trkpt>
      <trkpt lat="45.11827" lon="6.1045">
        <ele>2611.8</ele>
        <time>2021-03-10T08:44:48Z</time>
      </trkpt>
      <trkpt lat="45.11828" lon="6.1045">
        <ele>2611.9</ele>
        <time>2021-03-10T08:44:49Z</time>
      </trkpt>
      <trkpt lat="45.11829" lon="6.10451">
        <ele>2612</ele>
        <time>2021-03-10T08:44:50Z</time>
      </trkpt>
      <trkpt lat="45.11829" lon="6.10451">
        <ele>2612.1</ele>
        <time>2021-03-10T08:44:51Z</time>
      </trkpt>
      <trkpt lat="45.1183" lon="6.10451">
        <ele>2612.2</ele>
        <time>2021-03-10T08:44:52Z</time>
      </trkpt>
      <trkpt lat="45.11831" lon="6.10451">
        <ele>2612.2</ele>
        <time>2021-03-10T08:44:53Z</time>
      </trkpt>
      <trkpt lat="45.11831" lon="6.10451">
        <ele>2612.3</ele>
        <time>2021-03-10T08:44:54Z</time>
      </trkpt>
      <trkpt lat="45.11832" lon="6.10451">
        <ele>2612.4</ele>
        <time>2021-03-10T08:44:55Z</time>
      </trkpt>
      <trkpt lat="45.11833" lon="6.10451">
        <ele>2612.4</ele>
        <time>2021-03-10T08:44:56Z</time>
      </trkpt>
      <trkpt lat="45.11833" lon="6.10451">
        <ele>2612.5</ele>
        <time>2021-03-10T08:44:57Z</time>
      </trkpt>
      <trkpt lat="45.11834" lon="6.10451">
        <ele>2612.6</ele>
        <time>2021-03-10T08:44:58Z</time>
      </trkpt>
      <trkpt lat="45.11834" lon="6.10451">
        <ele>2612.6</ele>
        <time>2021-03-10T08:44:59Z</time>
      </trkpt>
      <trkpt lat="45.11835" lon="6.10452">
        <ele>2612.7</ele>
        <time>2021-03-10T08:45:00Z</time>
      </trkpt>
      <trkpt lat="45.11836" lon="6.10452">
        <ele>2612.8</ele>
        <time>2021-03-10T08:45:01Z</time>
      </trkpt>
      <trkpt lat="45.11836" lon="6.10452">
        <ele>2612.9</ele>
        <time>2021-03-10T08:45:02Z</time>
      </trkpt>
      <trkpt lat="45.11837" lon="6.10453">
        <ele>2613</ele>
        <time>2021-03-10T08:45:03Z</time>
      </trkpt>
      <trkpt lat="45.11838" lon="6.10453">
        <ele>2613</ele>
        <time>2021-03-10T08:45:04Z</time>
      </trkpt>
      <trkpt lat="45.11838" lon="6.10453">
        <ele>2613</ele>
        <time>2021-03-10T08:45:05Z</time>
      </trkpt>
      <trkpt lat="45.11838" lon="6.10454">
        <ele>2613.1</ele>
        <time>2021-03-10T08:45:06Z</time>
      </trkpt>
      <trkpt lat="45.11839" lon="6.10454">
        <ele>2613.2</ele>
        <time>2021-03-10T08:45:07Z</time>
      </trkpt>
      <trkpt lat="45.1184" lon="6.10455">
        <ele>2613.3</ele>
        <time>2021-03-10T08:45:08Z</time>
      </trkpt>
      <trkpt lat="45.11841" lon="6.10455">
        <ele>2613.4</ele>
        <time>2021-03-10T08:45:09Z</time>
      </trkpt>
      <trkpt lat="45.11842" lon="6.10455">
        <ele>2615.2</ele>
        <time>2021-03-10T08:45:10Z</time>
      </trkpt>
      <trkpt lat="45.11843" lon="6.10456">
        <ele>2615.3</ele>
        <time>2021-03-10T08:45:11Z</time>
      </trkpt>
      <trkpt lat="45.11844" lon="6.10456">
        <ele>2615.4</ele>
        <time>2021-03-10T08:45:12Z</time>
      </trkpt>
      <trkpt lat="45.11844" lon="6.10456">
        <ele>2615.5</ele>
        <time>2021-03-10T08:45:13Z</time>
      </trkpt>
      <trkpt lat="45.11845" lon="6.10456">
        <ele>2615.7</ele>
        <time>2021-03-10T08:45:14Z</time>
      </trkpt>
      <trkpt lat="45.11846" lon="6.10457">
        <ele>2615.8</ele>
        <time>2021-03-10T08:45:15Z</time>
      </trkpt>
      <trkpt lat="45.11847" lon="6.10457">
        <ele>2615.9</ele>
        <time>2021-03-10T08:45:16Z</time>
      </trkpt>
      <trkpt lat="45.11848" lon="6.10457">
        <ele>2616</ele>
        <time>2021-03-10T08:45:17Z</time>
      </trkpt>
      <trkpt lat="45.11848" lon="6.10457">
        <ele>2616.1</ele>
        <time>2021-03-10T08:45:18Z</time>
      </trkpt>
      <trkpt lat="45.11849" lon="6.10457">
        <ele>2616.2</ele>
        <time>2021-03-10T08:45:19Z</time>
      </trkpt>
      <trkpt lat="45.1185" lon="6.10457">
        <ele>2616.4</ele>
        <time>2021-03-10T08:45:20Z</time>
      </trkpt>
      <trkpt lat="45.11851" lon="6.10458">
        <ele>2616.5</ele>
        <time>2021-03-10T08:45:21Z</time>
      </trkpt>
      <trkpt lat="45.11852" lon="6.10458">
        <ele>2616.6</ele>
        <time>2021-03-10T08:45:22Z</time>
      </trkpt>
      <trkpt lat="45.11853" lon="6.10459">
        <ele>2616.8</ele>
        <time>2021-03-10T08:45:23Z</time>
      </trkpt>
      <trkpt lat="45.11854" lon="6.1046">
        <ele>2616.9</ele>
        <time>2021-03-10T08:45:24Z</time>
      </trkpt>
      <trkpt lat="45.11855" lon="6.1046">
        <ele>2617.1</ele>
        <time>2021-03-10T08:45:25Z</time>
      </trkpt>
      <trkpt lat="45.11855" lon="6.1046">
        <ele>2617.2</ele>
        <time>2021-03-10T08:45:26Z</time>
      </trkpt>
      <trkpt lat="45.11856" lon="6.10461">
        <ele>2617.4</ele>
        <time>2021-03-10T08:45:27Z</time>
      </trkpt>
      <trkpt lat="45.11857" lon="6.10461">
        <ele>2617.5</ele>
        <time>2021-03-10T08:45:28Z</time>
      </trkpt>
      <trkpt lat="45.11858" lon="6.10461">
        <ele>2617.6</ele>
        <time>2021-03-10T08:45:29Z</time>
      </trkpt>
      <trkpt lat="45.11859" lon="6.10461">
        <ele>2617.8</ele>
        <time>2021-03-10T08:45:30Z</time>
      </trkpt>
      <trkpt lat="45.1186" lon="6.10462">
        <ele>2617.9</ele>
        <time>2021-03-10T08:45:31Z</time>
      </trkpt>
      <trkpt lat="45.11861" lon="6.10462">
        <ele>2618.1</ele>
        <time>2021-03-10T08:45:32Z</time>
      </trkpt>
      <trkpt lat="45.11862" lon="6.10463">
        <ele>2618.2</ele>
        <time>2021-03-10T08:45:33Z</time>
      </trkpt>
      <trkpt lat="45.11863" lon="6.10463">
        <ele>2618.4</ele>
        <time>2021-03-10T08:45:34Z</time>
      </trkpt>
      <trkpt lat="45.11864" lon="6.10464">
        <ele>2618.6</ele>
        <time>2021-03-10T08:45:35Z</time>
      </trkpt>
      <trkpt lat="45.11865" lon="6.10464">
        <ele>2618.7</ele>
        <time>2021-03-10T08:45:36Z</time>
      </trkpt>
      <trkpt lat="45.11866" lon="6.10465">
        <ele>2618.9</ele>
        <time>2021-03-10T08:45:37Z</time>
      </trkpt>
      <trkpt lat="45.11867" lon="6.10465">
        <ele>2619</ele>
        <time>2021-03-10T08:45:38Z</time>
      </trkpt>
      <trkpt lat="45.11868" lon="6.10466">
        <ele>2619.1</ele>
        <time>2021-03-10T08:45:39Z</time>
      </trkpt>
      <trkpt lat="45.11869" lon="6.10466">
        <ele>2619.3</ele>
        <time>2021-03-10T08:45:40Z</time>
      </trkpt>
      <trkpt lat="45.11869" lon="6.10467">
        <ele>2619.4</ele>
        <time>2021-03-10T08:45:41Z</time>
      </trkpt>
      <trkpt lat="45.1187" lon="6.10467">
        <ele>2619.6</ele>
        <time>2021-03-10T08:45:42Z</time>
      </trkpt>
      <trkpt lat="45.11871" lon="6.10468">
        <ele>2619.7</ele>
        <time>2021-03-10T08:45:43Z</time>
      </trkpt>
      <trkpt lat="45.11872" lon="6.10468">
        <ele>2619.8</ele>
        <time>2021-03-10T08:45:44Z</time>
      </trkpt>
      <trkpt lat="45.11873" lon="6.10468">
        <ele>2619.9</ele>
        <time>2021-03-10T08:45:45Z</time>
      </trkpt>
      <trkpt lat="45.11874" lon="6.10469">
        <ele>2620.1</ele>
        <time>2021-03-10T08:45:46Z</time>
      </trkpt>
      <trkpt lat="45.11875" lon="6.10469">
        <ele>2620.2</ele>
        <time>2021-03-10T08:45:47Z</time>
      </trkpt>
      <trkpt lat="45.11875" lon="6.10469">
        <ele>2620.3</ele>
        <time>2021-03-10T08:45:48Z</time>
      </trkpt>
      <trkpt lat="45.11876" lon="6.1047">
        <ele>2620.4</ele>
        <time>2021-03-10T08:45:49Z</time>
      </trkpt>
      <trkpt lat="45.11877" lon="6.1047">
        <ele>2620.5</ele>
        <time>2021-03-10T08:45:50Z</time>
      </trkpt>
      <trkpt lat="45.11878" lon="6.10471">
        <ele>2620.6</ele>
        <time>2021-03-10T08:45:51Z</time>
      </trkpt>
      <trkpt lat="45.11878" lon="6.10471">
        <ele>2620.7</ele>
        <time>2021-03-10T08:45:52Z</time>
      </trkpt>
      <trkpt lat="45.11878" lon="6.10471">
        <ele>2620.8</ele>
        <time>2021-03-10T08:45:53Z</time>
      </trkpt>
      <trkpt lat="45.11879" lon="6.10471">
        <ele>2620.8</ele>
        <time>2021-03-10T08:45:54Z</time>
      </trkpt>
      <trkpt lat="45.1188" lon="6.10472">
        <ele>2620.9</ele>
        <time>2021-03-10T08:45:55Z</time>
      </trkpt>
      <trkpt lat="45.1188" lon="6.10472">
        <ele>2621</ele>
        <time>2021-03-10T08:45:56Z</time>
      </trkpt>
      <trkpt lat="45.11881" lon="6.10473">
        <ele>2621.2</ele>
        <time>2021-03-10T08:45:57Z</time>
      </trkpt>
      <trkpt lat="45.11882" lon="6.10474">
        <ele>2621.3</ele>
        <time>2021-03-10T08:45:58Z</time>
      </trkpt>
      <trkpt lat="45.11883" lon="6.10474">
        <ele>2621.4</ele>
        <time>2021-03-10T08:45:59Z</time>
      </trkpt>
      <trkpt lat="45.11884" lon="6.10474">
        <ele>2621.5</ele>
        <time>2021-03-10T08:46:00Z</time>
      </trkpt>
      <trkpt lat="45.11884" lon="6.10475">
        <ele>2621.6</ele>
        <time>2021-03-10T08:46:01Z</time>
      </trkpt>
      <trkpt lat="45.11885" lon="6.10475">
        <ele>2621.7</ele>
        <time>2021-03-10T08:46:02Z</time>
      </trkpt>
      <trkpt lat="45.11886" lon="6.10475">
        <ele>2621.8</ele>
        <time>2021-03-10T08:46:03Z</time>
      </trkpt>
      <trkpt lat="45.11887" lon="6.10476">
        <ele>2621.9</ele>
        <time>2021-03-10T08:46:04Z</time>
      </trkpt>
      <trkpt lat="45.11888" lon="6.10476">
        <ele>2622.1</ele>
        <time>2021-03-10T08:46:05Z</time>
      </trkpt>
      <trkpt lat="45.11888" lon="6.10477">
        <ele>2622.2</ele>
        <time>2021-03-10T08:46:06Z</time>
      </trkpt>
      <trkpt lat="45.11889" lon="6.10477">
        <ele>2622.3</ele>
        <time>2021-03-10T08:46:07Z</time>
      </trkpt>
      <trkpt lat="45.1189" lon="6.10477">
        <ele>2622.4</ele>
        <time>2021-03-10T08:46:08Z</time>
      </trkpt>
      <trkpt lat="45.11891" lon="6.10477">
        <ele>2622.5</ele>
        <time>2021-03-10T08:46:09Z</time>
      </trkpt>
      <trkpt lat="45.11891" lon="6.10477">
        <ele>2622.6</ele>
        <time>2021-03-10T08:46:10Z</time>
      </trkpt>
      <trkpt lat="45.11892" lon="6.10478">
        <ele>2622.6</ele>
        <time>2021-03-10T08:46:11Z</time>
      </trkpt>
      <trkpt lat="45.11893" lon="6.10478">
        <ele>2622.7</ele>
        <time>2021-03-10T08:46:12Z</time>
      </trkpt>
      <trkpt lat="45.11894" lon="6.10478">
        <ele>2622.8</ele>
        <time>2021-03-10T08:46:13Z</time>
      </trkpt>
      <trkpt lat="45.11895" lon="6.10479">
        <ele>2623</ele>
        <time>2021-03-10T08:46:14Z</time>
      </trkpt>
      <trkpt lat="45.11896" lon="6.10479">
        <ele>2623.1</ele>
        <time>2021-03-10T08:46:15Z</time>
      </trkpt>
      <trkpt lat="45.11896" lon="6.1048">
        <ele>2623.2</ele>
        <time>2021-03-10T08:46:16Z</time>
      </trkpt>
      <trkpt lat="45.11897" lon="6.1048">
        <ele>2623.4</ele>
        <time>2021-03-10T08:46:17Z</time>
      </trkpt>
      <trkpt lat="45.11898" lon="6.10481">
        <ele>2623.5</ele>
        <time>2021-03-10T08:46:18Z</time>
      </trkpt>
      <trkpt lat="45.11899" lon="6.10481">
        <ele>2623.6</ele>
        <time>2021-03-10T08:46:19Z</time>
      </trkpt>
      <trkpt lat="45.119" lon="6.10482">
        <ele>2623.7</ele>
        <time>2021-03-10T08:46:20Z</time>
      </trkpt>
      <trkpt lat="45.11901" lon="6.10482">
        <ele>2623.8</ele>
        <time>2021-03-10T08:46:21Z</time>
      </trkpt>
      <trkpt lat="45.11902" lon="6.10483">
        <ele>2624</ele>
        <time>2021-03-10T08:46:22Z</time>
      </trkpt>
      <trkpt lat="45.11902" lon="6.10484">
        <ele>2624.1</ele>
        <time>2021-03-10T08:46:23Z</time>
      </trkpt>
      <trkpt lat="45.11903" lon="6.10485">
        <ele>2624.2</ele>
        <time>2021-03-10T08:46:24Z</time>
      </trkpt>
      <trkpt lat="45.11904" lon="6.10485">
        <ele>2624.3</ele>
        <time>2021-03-10T08:46:25Z</time>
      </trkpt>
      <trkpt lat="45.11904" lon="6.10485">
        <ele>2624.4</ele>
        <time>2021-03-10T08:46:26Z</time>
      </trkpt>
      <trkpt lat="45.11905" lon="6.10486">
        <ele>2624.5</ele>
        <time>2021-03-10T08:46:27Z</time>
      </trkpt>
      <trkpt lat="45.11906" lon="6.10487">
        <ele>2624.6</ele>
        <time>2021-03-10T08:46:28Z</time>
      </trkpt>
      <trkpt lat="45.11907" lon="6.10488">
        <ele>2624.7</ele>
        <time>2021-03-10T08:46:29Z</time>
      </trkpt>
      <trkpt lat="45.11907" lon="6.10488">
        <ele>2624.9</ele>
        <time>2021-03-10T08:46:30Z</time>
      </trkpt>
      <trkpt lat="45.11908" lon="6.10489">
        <ele>2625</ele>
        <time>2021-03-10T08:46:31Z</time>
      </trkpt>
      <trkpt lat="45.11909" lon="6.1049">
        <ele>2625.1</ele>
        <time>2021-03-10T08:46:32Z</time>
      </trkpt>
      <trkpt lat="45.1191" lon="6.10491">
        <ele>2625.2</ele>
        <time>2021-03-10T08:46:33Z</time>
      </trkpt>
      <trkpt lat="45.11911" lon="6.10491">
        <ele>2625.3</ele>
        <time>2021-03-10T08:46:34Z</time>
      </trkpt>
      <trkpt lat="45.11911" lon="6.10491">
        <ele>2625.4</ele>
        <time>2021-03-10T08:46:35Z</time>
      </trkpt>
      <trkpt lat="45.11912" lon="6.10492">
        <ele>2625.5</ele>
        <time>2021-03-10T08:46:36Z</time>
      </trkpt>
      <trkpt lat="45.11913" lon="6.10492">
        <ele>2625.6</ele>
        <time>2021-03-10T08:46:37Z</time>
      </trkpt>
      <trkpt lat="45.11913" lon="6.10492">
        <ele>2625.7</ele>
        <time>2021-03-10T08:46:38Z</time>
      </trkpt>
      <trkpt lat="45.11914" lon="6.10493">
        <ele>2625.8</ele>
        <time>2021-03-10T08:46:39Z</time>
      </trkpt>
      <trkpt lat="45.11915" lon="6.10494">
        <ele>2625.9</ele>
        <time>2021-03-10T08:46:40Z</time>
      </trkpt>
      <trkpt lat="45.11915" lon="6.10494">
        <ele>2626</ele>
        <time>2021-03-10T08:46:41Z</time>
      </trkpt>
      <trkpt lat="45.11916" lon="6.10495">
        <ele>2626.1</ele>
        <time>2021-03-10T08:46:42Z</time>
      </trkpt>
      <trkpt lat="45.11917" lon="6.10496">
        <ele>2626.3</ele>
        <time>2021-03-10T08:46:43Z</time>
      </trkpt>
      <trkpt lat="45.11918" lon="6.10497">
        <ele>2626.4</ele>
        <time>2021-03-10T08:46:44Z</time>
      </trkpt>
      <trkpt lat="45.11918" lon="6.10498">
        <ele>2626.5</ele>
        <time>2021-03-10T08:46:45Z</time>
      </trkpt>
      <trkpt lat="45.11919" lon="6.10498">
        <ele>2626.6</ele>
        <time>2021-03-10T08:46:46Z</time>
      </trkpt>
      <trkpt lat="45.1192" lon="6.10499">
        <ele>2626.7</ele>
        <time>2021-03-10T08:46:47Z</time>
      </trkpt>
      <trkpt lat="45.11921" lon="6.105">
        <ele>2626.8</ele>
        <time>2021-03-10T08:46:48Z</time>
      </trkpt>
      <trkpt lat="45.11922" lon="6.10501">
        <ele>2627</ele>
        <time>2021-03-10T08:46:49Z</time>
      </trkpt>
      <trkpt lat="45.11922" lon="6.10501">
        <ele>2627.1</ele>
        <time>2021-03-10T08:46:50Z</time>
      </trkpt>
      <trkpt lat="45.11923" lon="6.10502">
        <ele>2627.2</ele>
        <time>2021-03-10T08:46:51Z</time>
      </trkpt>
      <trkpt lat="45.11924" lon="6.10503">
        <ele>2627.3</ele>
        <time>2021-03-10T08:46:52Z</time>
      </trkpt>
      <trkpt lat="45.11925" lon="6.10503">
        <ele>2627.4</ele>
        <time>2021-03-10T08:46:53Z</time>
      </trkpt>
      <trkpt lat="45.11926" lon="6.10503">
        <ele>2627.5</ele>
        <time>2021-03-10T08:46:54Z</time>
      </trkpt>
      <trkpt lat="45.11926" lon="6.10504">
        <ele>2627.6</ele>
        <time>2021-03-10T08:46:55Z</time>
      </trkpt>
      <trkpt lat="45.11927" lon="6.10504">
        <ele>2627.7</ele>
        <time>2021-03-10T08:46:56Z</time>
      </trkpt>
      <trkpt lat="45.11928" lon="6.10505">
        <ele>2627.8</ele>
        <time>2021-03-10T08:46:57Z</time>
      </trkpt>
      <trkpt lat="45.11929" lon="6.10505">
        <ele>2627.9</ele>
        <time>2021-03-10T08:46:58Z</time>
      </trkpt>
      <trkpt lat="45.11929" lon="6.10505">
        <ele>2628</ele>
        <time>2021-03-10T08:46:59Z</time>
      </trkpt>
      <trkpt lat="45.1193" lon="6.10506">
        <ele>2628.1</ele>
        <time>2021-03-10T08:47:00Z</time>
      </trkpt>
      <trkpt lat="45.11931" lon="6.10506">
        <ele>2628.2</ele>
        <time>2021-03-10T08:47:01Z</time>
      </trkpt>
      <trkpt lat="45.11932" lon="6.10506">
        <ele>2628.3</ele>
        <time>2021-03-10T08:47:02Z</time>
      </trkpt>
      <trkpt lat="45.11933" lon="6.10507">
        <ele>2628.4</ele>
        <time>2021-03-10T08:47:03Z</time>
      </trkpt>
      <trkpt lat="45.11934" lon="6.10507">
        <ele>2628.5</ele>
        <time>2021-03-10T08:47:04Z</time>
      </trkpt>
      <trkpt lat="45.11934" lon="6.10507">
        <ele>2628.6</ele>
        <time>2021-03-10T08:47:05Z</time>
      </trkpt>
      <trkpt lat="45.11935" lon="6.10507">
        <ele>2628.7</ele>
        <time>2021-03-10T08:47:06Z</time>
      </trkpt>
      <trkpt lat="45.11936" lon="6.10507">
        <ele>2628.8</ele>
        <time>2021-03-10T08:47:07Z</time>
      </trkpt>
      <trkpt lat="45.11936" lon="6.10508">
        <ele>2628.9</ele>
        <time>2021-03-10T08:47:08Z</time>
      </trkpt>
      <trkpt lat="45.11937" lon="6.10508">
        <ele>2628.9</ele>
        <time>2021-03-10T08:47:09Z</time>
      </trkpt>
      <trkpt lat="45.11938" lon="6.10508">
        <ele>2629.1</ele>
        <time>2021-03-10T08:47:10Z</time>
      </trkpt>
      <trkpt lat="45.11939" lon="6.10508">
        <ele>2629.1</ele>
        <time>2021-03-10T08:47:11Z</time>
      </trkpt>
      <trkpt lat="45.11939" lon="6.10508">
        <ele>2629.2</ele>
        <time>2021-03-10T08:47:12Z</time>
      </trkpt>
      <trkpt lat="45.1194" lon="6.10508">
        <ele>2629.3</ele>
        <time>2021-03-10T08:47:13Z</time>
      </trkpt>
      <trkpt lat="45.11941" lon="6.10508">
        <ele>2629.4</ele>
        <time>2021-03-10T08:47:14Z</time>
      </trkpt>
      <trkpt lat="45.11942" lon="6.10508">
        <ele>2629.5</ele>
        <time>2021-03-10T08:47:15Z</time>
      </trkpt>
      <trkpt lat="45.11942" lon="6.10509">
        <ele>2629.5</ele>
        <time>2021-03-10T08:47:16Z</time>
      </trkpt>
      <trkpt lat="45.11943" lon="6.10509">
        <ele>2629.6</ele>
        <time>2021-03-10T08:47:17Z</time>
      </trkpt>
      <trkpt lat="45.11944" lon="6.10509">
        <ele>2629.7</ele>
        <time>2021-03-10T08:47:18Z</time>
      </trkpt>
      <trkpt lat="45.11945" lon="6.10509">
        <ele>2629.8</ele>
        <time>2021-03-10T08:47:19Z</time>
      </trkpt>
      <trkpt lat="45.11945" lon="6.10509">
        <ele>2629.9</ele>
        <time>2021-03-10T08:47:20Z</time>
      </trkpt>
      <trkpt lat="45.11946" lon="6.10509">
        <ele>2629.9</ele>
        <time>2021-03-10T08:47:21Z</time>
      </trkpt>
      <trkpt lat="45.11947" lon="6.10509">
        <ele>2630</ele>
        <time>2021-03-10T08:47:22Z</time>
      </trkpt>
      <trkpt lat="45.11948" lon="6.10509">
        <ele>2630.1</ele>
        <time>2021-03-10T08:47:23Z</time>
      </trkpt>
      <trkpt lat="45.11949" lon="6.10509">
        <ele>2630.2</ele>
        <time>2021-03-10T08:47:24Z</time>
      </trkpt>
      <trkpt lat="45.1195" lon="6.10509">
        <ele>2630.3</ele>
        <time>2021-03-10T08:47:25Z</time>
      </trkpt>
      <trkpt lat="45.11951" lon="6.10508">
        <ele>2630.4</ele>
        <time>2021-03-10T08:47:26Z</time>
      </trkpt>
      <trkpt lat="45.11952" lon="6.10508">
        <ele>2630.4</ele>
        <time>2021-03-10T08:47:27Z</time>
      </trkpt>
      <trkpt lat="45.11952" lon="6.10508">
        <ele>2630.5</ele>
        <time>2021-03-10T08:47:28Z</time>
      </trkpt>
      <trkpt lat="45.11953" lon="6.10508">
        <ele>2630.6</ele>
        <time>2021-03-10T08:47:29Z</time>
      </trkpt>
      <trkpt lat="45.11954" lon="6.10508">
        <ele>2630.7</ele>
        <time>2021-03-10T08:47:30Z</time>
      </trkpt>
      <trkpt lat="45.11955" lon="6.10508">
        <ele>2630.8</ele>
        <time>2021-03-10T08:47:31Z</time>
      </trkpt>
      <trkpt lat="45.11956" lon="6.10508">
        <ele>2630.9</ele>
        <time>2021-03-10T08:47:32Z</time>
      </trkpt>
      <trkpt lat="45.11957" lon="6.10508">
        <ele>2630.9</ele>
        <time>2021-03-10T08:47:33Z</time>
      </trkpt>
      <trkpt lat="45.11957" lon="6.10509">
        <ele>2631</ele>
        <time>2021-03-10T08:47:34Z</time>
      </trkpt>
      <trkpt lat="45.11958" lon="6.10509">
        <ele>2631.1</ele>
        <time>2021-03-10T08:47:35Z</time>
      </trkpt>
      <trkpt lat="45.11959" lon="6.1051">
        <ele>2631.2</ele>
        <time>2021-03-10T08:47:36Z</time>
      </trkpt>
      <trkpt lat="45.1196" lon="6.1051">
        <ele>2631.3</ele>
        <time>2021-03-10T08:47:37Z</time>
      </trkpt>
      <trkpt lat="45.11961" lon="6.10511">
        <ele>2631.4</ele>
        <time>2021-03-10T08:47:38Z</time>
      </trkpt>
      <trkpt lat="45.11962" lon="6.10511">
        <ele>2631.4</ele>
        <time>2021-03-10T08:47:39Z</time>
      </trkpt>
      <trkpt lat="45.11963" lon="6.10511">
        <ele>2631.5</ele>
        <time>2021-03-10T08:47:40Z</time>
      </trkpt>
      <trkpt lat="45.11964" lon="6.10512">
        <ele>2631.6</ele>
        <time>2021-03-10T08:47:41Z</time>
      </trkpt>
      <trkpt lat="45.11965" lon="6.10512">
        <ele>2631.7</ele>
        <time>2021-03-10T08:47:42Z</time>
      </trkpt>
      <trkpt lat="45.11966" lon="6.10513">
        <ele>2631.8</ele>
        <time>2021-03-10T08:47:43Z</time>
      </trkpt>
      <trkpt lat="45.11966" lon="6.10513">
        <ele>2631.9</ele>
        <time>2021-03-10T08:47:44Z</time>
      </trkpt>
      <trkpt lat="45.11967" lon="6.10514">
        <ele>2632</ele>
        <time>2021-03-10T08:47:45Z</time>
      </trkpt>
      <trkpt lat="45.11968" lon="6.10514">
        <ele>2632.1</ele>
        <time>2021-03-10T08:47:46Z</time>
      </trkpt>
      <trkpt lat="45.11969" lon="6.10515">
        <ele>2632.2</ele>
        <time>2021-03-10T08:47:47Z</time>
      </trkpt>
      <trkpt lat="45.1197" lon="6.10515">
        <ele>2632.3</ele>
        <time>2021-03-10T08:47:48Z</time>
      </trkpt>
      <trkpt lat="45.11971" lon="6.10515">
        <ele>2632.4</ele>
        <time>2021-03-10T08:47:49Z</time>
      </trkpt>
      <trkpt lat="45.11972" lon="6.10516">
        <ele>2632.4</ele>
        <time>2021-03-10T08:47:50Z</time>
      </trkpt>
      <trkpt lat="45.11972" lon="6.10516">
        <ele>2632.5</ele>
        <time>2021-03-10T08:47:51Z</time>
      </trkpt>
      <trkpt lat="45.11973" lon="6.10517">
        <ele>2632.6</ele>
        <time>2021-03-10T08:47:52Z</time>
      </trkpt>
      <trkpt lat="45.11974" lon="6.10517">
        <ele>2632.7</ele>
        <time>2021-03-10T08:47:53Z</time>
      </trkpt>
      <trkpt lat="45.11975" lon="6.10517">
        <ele>2632.8</ele>
        <time>2021-03-10T08:47:54Z</time>
      </trkpt>
      <trkpt lat="45.11976" lon="6.10517">
        <ele>2632.9</ele>
        <time>2021-03-10T08:47:55Z</time>
      </trkpt>
      <trkpt lat="45.11977" lon="6.10517">
        <ele>2633</ele>
        <time>2021-03-10T08:47:56Z</time>
      </trkpt>
      <trkpt lat="45.11978" lon="6.10518">
        <ele>2633.1</ele>
        <time>2021-03-10T08:47:57Z</time>
      </trkpt>
      <trkpt lat="45.11979" lon="6.10518">
        <ele>2633.2</ele>
        <time>2021-03-10T08:47:58Z</time>
      </trkpt>
      <trkpt lat="45.1198" lon="6.10519">
        <ele>2633.3</ele>
        <time>2021-03-10T08:47:59Z</time>
      </trkpt>
      <trkpt lat="45.11981" lon="6.10519">
        <ele>2633.4</ele>
        <time>2021-03-10T08:48:00Z</time>
      </trkpt>
      <trkpt lat="45.11982" lon="6.10519">
        <ele>2633.4</ele>
        <time>2021-03-10T08:48:01Z</time>
      </trkpt>
      <trkpt lat="45.11983" lon="6.10519">
        <ele>2633.5</ele>
        <time>2021-03-10T08:48:02Z</time>
      </trkpt>
      <trkpt lat="45.11983" lon="6.10519">
        <ele>2633.6</ele>
        <time>2021-03-10T08:48:03Z</time>
      </trkpt>
      <trkpt lat="45.11984" lon="6.10519">
        <ele>2633.7</ele>
        <time>2021-03-10T08:48:04Z</time>
      </trkpt>
      <trkpt lat="45.11985" lon="6.1052">
        <ele>2633.8</ele>
        <time>2021-03-10T08:48:05Z</time>
      </trkpt>
      <trkpt lat="45.11986" lon="6.1052">
        <ele>2633.9</ele>
        <time>2021-03-10T08:48:06Z</time>
      </trkpt>
      <trkpt lat="45.11987" lon="6.1052">
        <ele>2634</ele>
        <time>2021-03-10T08:48:07Z</time>
      </trkpt>
      <trkpt lat="45.11988" lon="6.1052">
        <ele>2634.1</ele>
        <time>2021-03-10T08:48:08Z</time>
      </trkpt>
      <trkpt lat="45.11989" lon="6.1052">
        <ele>2634.2</ele>
        <time>2021-03-10T08:48:09Z</time>
      </trkpt>
      <trkpt lat="45.1199" lon="6.10521">
        <ele>2634.2</ele>
        <time>2021-03-10T08:48:10Z</time>
      </trkpt>
      <trkpt lat="45.11991" lon="6.10521">
        <ele>2634.3</ele>
        <time>2021-03-10T08:48:11Z</time>
      </trkpt>
      <trkpt lat="45.11992" lon="6.10522">
        <ele>2634.4</ele>
        <time>2021-03-10T08:48:12Z</time>
      </trkpt>
      <trkpt lat="45.11992" lon="6.10522">
        <ele>2634.5</ele>
        <time>2021-03-10T08:48:13Z</time>
      </trkpt>
      <trkpt lat="45.11993" lon="6.10523">
        <ele>2634.6</ele>
        <time>2021-03-10T08:48:14Z</time>
      </trkpt>
      <trkpt lat="45.11994" lon="6.10523">
        <ele>2634.7</ele>
        <time>2021-03-10T08:48:15Z</time>
      </trkpt>
      <trkpt lat="45.11995" lon="6.10524">
        <ele>2634.8</ele>
        <time>2021-03-10T08:48:16Z</time>
      </trkpt>
      <trkpt lat="45.11996" lon="6.10525">
        <ele>2634.9</ele>
        <time>2021-03-10T08:48:17Z</time>
      </trkpt>
      <trkpt lat="45.11997" lon="6.10525">
        <ele>2635</ele>
        <time>2021-03-10T08:48:18Z</time>
      </trkpt>
      <trkpt lat="45.11998" lon="6.10526">
        <ele>2635.1</ele>
        <time>2021-03-10T08:48:19Z</time>
      </trkpt>
      <trkpt lat="45.11999" lon="6.10527">
        <ele>2635.2</ele>
        <time>2021-03-10T08:48:20Z</time>
      </trkpt>
      <trkpt lat="45.12" lon="6.10528">
        <ele>2635.3</ele>
        <time>2021-03-10T08:48:21Z</time>
      </trkpt>
      <trkpt lat="45.12001" lon="6.10528">
        <ele>2635.4</ele>
        <time>2021-03-10T08:48:22Z</time>
      </trkpt>
      <trkpt lat="45.12002" lon="6.10528">
        <ele>2635.5</ele>
        <time>2021-03-10T08:48:23Z</time>
      </trkpt>
      <trkpt lat="45.12003" lon="6.10529">
        <ele>2635.6</ele>
        <time>2021-03-10T08:48:24Z</time>
      </trkpt>
      <trkpt lat="45.12004" lon="6.10529">
        <ele>2635.7</ele>
        <time>2021-03-10T08:48:25Z</time>
      </trkpt>
      <trkpt lat="45.12005" lon="6.1053">
        <ele>2635.8</ele>
        <time>2021-03-10T08:48:26Z</time>
      </trkpt>
      <trkpt lat="45.12006" lon="6.1053">
        <ele>2635.9</ele>
        <time>2021-03-10T08:48:27Z</time>
      </trkpt>
      <trkpt lat="45.12007" lon="6.1053">
        <ele>2636</ele>
        <time>2021-03-10T08:48:28Z</time>
      </trkpt>
      <trkpt lat="45.12008" lon="6.1053">
        <ele>2636.1</ele>
        <time>2021-03-10T08:48:29Z</time>
      </trkpt>
      <trkpt lat="45.12009" lon="6.1053">
        <ele>2636.2</ele>
        <time>2021-03-10T08:48:30Z</time>
      </trkpt>
      <trkpt lat="45.1201" lon="6.1053">
        <ele>2636.3</ele>
        <time>2021-03-10T08:48:31Z</time>
      </trkpt>
      <trkpt lat="45.12011" lon="6.1053">
        <ele>2636.3</ele>
        <time>2021-03-10T08:48:32Z</time>
      </trkpt>
      <trkpt lat="45.12011" lon="6.10531">
        <ele>2636.4</ele>
        <time>2021-03-10T08:48:33Z</time>
      </trkpt>
      <trkpt lat="45.12012" lon="6.10531">
        <ele>2636.5</ele>
        <time>2021-03-10T08:48:34Z</time>
      </trkpt>
      <trkpt lat="45.12013" lon="6.10531">
        <ele>2636.5</ele>
        <time>2021-03-10T08:48:35Z</time>
      </trkpt>
      <trkpt lat="45.12013" lon="6.10532">
        <ele>2636.6</ele>
        <time>2021-03-10T08:48:36Z</time>
      </trkpt>
      <trkpt lat="45.12014" lon="6.10532">
        <ele>2636.7</ele>
        <time>2021-03-10T08:48:37Z</time>
      </trkpt>
      <trkpt lat="45.12015" lon="6.10532">
        <ele>2636.8</ele>
        <time>2021-03-10T08:48:38Z</time>
      </trkpt>
      <trkpt lat="45.12016" lon="6.10533">
        <ele>2636.9</ele>
        <time>2021-03-10T08:48:39Z</time>
      </trkpt>
      <trkpt lat="45.12016" lon="6.10533">
        <ele>2636.9</ele>
        <time>2021-03-10T08:48:40Z</time>
      </trkpt>
      <trkpt lat="45.12017" lon="6.10533">
        <ele>2637</ele>
        <time>2021-03-10T08:48:41Z</time>
      </trkpt>
      <trkpt lat="45.12018" lon="6.10533">
        <ele>2637.1</ele>
        <time>2021-03-10T08:48:42Z</time>
      </trkpt>
      <trkpt lat="45.12018" lon="6.10534">
        <ele>2637.1</ele>
        <time>2021-03-10T08:48:43Z</time>
      </trkpt>
      <trkpt lat="45.12019" lon="6.10534">
        <ele>2637.2</ele>
        <time>2021-03-10T08:48:44Z</time>
      </trkpt>
      <trkpt lat="45.1202" lon="6.10534">
        <ele>2637.3</ele>
        <time>2021-03-10T08:48:45Z</time>
      </trkpt>
      <trkpt lat="45.1202" lon="6.10534">
        <ele>2637.3</ele>
        <time>2021-03-10T08:48:46Z</time>
      </trkpt>
      <trkpt lat="45.12021" lon="6.10535">
        <ele>2637.4</ele>
        <time>2021-03-10T08:48:47Z</time>
      </trkpt>
      <trkpt lat="45.12022" lon="6.10535">
        <ele>2637.5</ele>
        <time>2021-03-10T08:48:48Z</time>
      </trkpt>
      <trkpt lat="45.12022" lon="6.10535">
        <ele>2637.5</ele>
        <time>2021-03-10T08:48:49Z</time>
      </trkpt>
      <trkpt lat="45.12023" lon="6.10535">
        <ele>2637.6</ele>
        <time>2021-03-10T08:48:50Z</time>
      </trkpt>
      <trkpt lat="45.12024" lon="6.10536">
        <ele>2637.7</ele>
        <time>2021-03-10T08:48:51Z</time>
      </trkpt>
      <trkpt lat="45.12025" lon="6.10536">
        <ele>2637.8</ele>
        <time>2021-03-10T08:48:52Z</time>
      </trkpt>
      <trkpt lat="45.12025" lon="6.10536">
        <ele>2637.9</ele>
        <time>2021-03-10T08:48:53Z</time>
      </trkpt>
      <trkpt lat="45.12026" lon="6.10536">
        <ele>2637.9</ele>
        <time>2021-03-10T08:48:54Z</time>
      </trkpt>
      <trkpt lat="45.12027" lon="6.10537">
        <ele>2638</ele>
        <time>2021-03-10T08:48:55Z</time>
      </trkpt>
      <trkpt lat="45.12027" lon="6.10537">
        <ele>2638.1</ele>
        <time>2021-03-10T08:48:56Z</time>
      </trkpt>
      <trkpt lat="45.12028" lon="6.10537">
        <ele>2638.2</ele>
        <time>2021-03-10T08:48:57Z</time>
      </trkpt>
      <trkpt lat="45.12029" lon="6.10537">
        <ele>2638.2</ele>
        <time>2021-03-10T08:48:58Z</time>
      </trkpt>
      <trkpt lat="45.12029" lon="6.10538">
        <ele>2638.3</ele>
        <time>2021-03-10T08:48:59Z</time>
      </trkpt>
      <trkpt lat="45.1203" lon="6.10538">
        <ele>2638.3</ele>
        <time>2021-03-10T08:49:00Z</time>
      </trkpt>
      <trkpt lat="45.1203" lon="6.10537">
        <ele>2638.4</ele>
        <time>2021-03-10T08:49:01Z</time>
      </trkpt>
      <trkpt lat="45.12031" lon="6.10537">
        <ele>2638.4</ele>
        <time>2021-03-10T08:49:02Z</time>
      </trkpt>
      <trkpt lat="45.12032" lon="6.10538">
        <ele>2638.5</ele>
        <time>2021-03-10T08:49:03Z</time>
      </trkpt>
      <trkpt lat="45.12032" lon="6.10538">
        <ele>2638.6</ele>
        <time>2021-03-10T08:49:04Z</time>
      </trkpt>
      <trkpt lat="45.12033" lon="6.10538">
        <ele>2638.7</ele>
        <time>2021-03-10T08:49:05Z</time>
      </trkpt>
      <trkpt lat="45.12034" lon="6.10538">
        <ele>2638.8</ele>
        <time>2021-03-10T08:49:06Z</time>
      </trkpt>
      <trkpt lat="45.12035" lon="6.10538">
        <ele>2638.9</ele>
        <time>2021-03-10T08:49:07Z</time>
      </trkpt>
      <trkpt lat="45.12036" lon="6.10539">
        <ele>2639</ele>
        <time>2021-03-10T08:49:08Z</time>
      </trkpt>
      <trkpt lat="45.12037" lon="6.10539">
        <ele>2639.1</ele>
        <time>2021-03-10T08:49:09Z</time>
      </trkpt>
      <trkpt lat="45.12038" lon="6.10539">
        <ele>2639.1</ele>
        <time>2021-03-10T08:49:10Z</time>
      </trkpt>
      <trkpt lat="45.12038" lon="6.10539">
        <ele>2639.2</ele>
        <time>2021-03-10T08:49:11Z</time>
      </trkpt>
      <trkpt lat="45.12039" lon="6.10539">
        <ele>2639.3</ele>
        <time>2021-03-10T08:49:12Z</time>
      </trkpt>
      <trkpt lat="45.1204" lon="6.10539">
        <ele>2639.3</ele>
        <time>2021-03-10T08:49:13Z</time>
      </trkpt>
      <trkpt lat="45.1204" lon="6.10539">
        <ele>2639.4</ele>
        <time>2021-03-10T08:49:14Z</time>
      </trkpt>
      <trkpt lat="45.12041" lon="6.10539">
        <ele>2639.5</ele>
        <time>2021-03-10T08:49:15Z</time>
      </trkpt>
      <trkpt lat="45.12042" lon="6.10539">
        <ele>2639.6</ele>
        <time>2021-03-10T08:49:16Z</time>
      </trkpt>
      <trkpt lat="45.12043" lon="6.1054">
        <ele>2639.7</ele>
        <time>2021-03-10T08:49:17Z</time>
      </trkpt>
      <trkpt lat="45.12044" lon="6.1054">
        <ele>2639.8</ele>
        <time>2021-03-10T08:49:18Z</time>
      </trkpt>
      <trkpt lat="45.12046" lon="6.10541">
        <ele>2639.9</ele>
        <time>2021-03-10T08:49:19Z</time>
      </trkpt>
      <trkpt lat="45.12046" lon="6.10541">
        <ele>2640</ele>
        <time>2021-03-10T08:49:20Z</time>
      </trkpt>
      <trkpt lat="45.12047" lon="6.10542">
        <ele>2640.1</ele>
        <time>2021-03-10T08:49:21Z</time>
      </trkpt>
      <trkpt lat="45.12048" lon="6.10542">
        <ele>2640.1</ele>
        <time>2021-03-10T08:49:22Z</time>
      </trkpt>
      <trkpt lat="45.1205" lon="6.10543">
        <ele>2640.4</ele>
        <time>2021-03-10T08:49:23Z</time>
      </trkpt>
      <trkpt lat="45.12051" lon="6.10543">
        <ele>2640.4</ele>
        <time>2021-03-10T08:49:24Z</time>
      </trkpt>
      <trkpt lat="45.12051" lon="6.10543">
        <ele>2640.5</ele>
        <time>2021-03-10T08:49:25Z</time>
      </trkpt>
      <trkpt lat="45.12053" lon="6.10543">
        <ele>2640.7</ele>
        <time>2021-03-10T08:49:26Z</time>
      </trkpt>
      <trkpt lat="45.12055" lon="6.10543">
        <ele>2640.8</ele>
        <time>2021-03-10T08:49:27Z</time>
      </trkpt>
      <trkpt lat="45.12056" lon="6.10543">
        <ele>2640.9</ele>
        <time>2021-03-10T08:49:28Z</time>
      </trkpt>
      <trkpt lat="45.12056" lon="6.10543">
        <ele>2641</ele>
        <time>2021-03-10T08:49:29Z</time>
      </trkpt>
      <trkpt lat="45.12057" lon="6.10544">
        <ele>2641.1</ele>
        <time>2021-03-10T08:49:30Z</time>
      </trkpt>
      <trkpt lat="45.12058" lon="6.10545">
        <ele>2641.2</ele>
        <time>2021-03-10T08:49:31Z</time>
      </trkpt>
      <trkpt lat="45.12059" lon="6.10545">
        <ele>2641.3</ele>
        <time>2021-03-10T08:49:32Z</time>
      </trkpt>
      <trkpt lat="45.1206" lon="6.10546">
        <ele>2641.4</ele>
        <time>2021-03-10T08:49:33Z</time>
      </trkpt>
      <trkpt lat="45.12062" lon="6.10547">
        <ele>2641.6</ele>
        <time>2021-03-10T08:49:34Z</time>
      </trkpt>
      <trkpt lat="45.12063" lon="6.10548">
        <ele>2641.7</ele>
        <time>2021-03-10T08:49:35Z</time>
      </trkpt>
      <trkpt lat="45.12064" lon="6.10548">
        <ele>2641.7</ele>
        <time>2021-03-10T08:49:36Z</time>
      </trkpt>
      <trkpt lat="45.12066" lon="6.10549">
        <ele>2641.9</ele>
        <time>2021-03-10T08:49:37Z</time>
      </trkpt>
      <trkpt lat="45.12066" lon="6.1055">
        <ele>2642</ele>
        <time>2021-03-10T08:49:38Z</time>
      </trkpt>
      <trkpt lat="45.12067" lon="6.1055">
        <ele>2642.1</ele>
        <time>2021-03-10T08:49:39Z</time>
      </trkpt>
      <trkpt lat="45.12068" lon="6.1055">
        <ele>2642.2</ele>
        <time>2021-03-10T08:49:40Z</time>
      </trkpt>
      <trkpt lat="45.12069" lon="6.10551">
        <ele>2642.3</ele>
        <time>2021-03-10T08:49:41Z</time>
      </trkpt>
      <trkpt lat="45.1207" lon="6.10551">
        <ele>2642.4</ele>
        <time>2021-03-10T08:49:42Z</time>
      </trkpt>
      <trkpt lat="45.12071" lon="6.10552">
        <ele>2642.4</ele>
        <time>2021-03-10T08:49:43Z</time>
      </trkpt>
      <trkpt lat="45.12071" lon="6.10552">
        <ele>2642.5</ele>
        <time>2021-03-10T08:49:44Z</time>
      </trkpt>
      <trkpt lat="45.12072" lon="6.10553">
        <ele>2642.6</ele>
        <time>2021-03-10T08:49:45Z</time>
      </trkpt>
      <trkpt lat="45.12073" lon="6.10553">
        <ele>2642.6</ele>
        <time>2021-03-10T08:49:46Z</time>
      </trkpt>
      <trkpt lat="45.12073" lon="6.10554">
        <ele>2642.7</ele>
        <time>2021-03-10T08:49:47Z</time>
      </trkpt>
      <trkpt lat="45.12074" lon="6.10554">
        <ele>2642.8</ele>
        <time>2021-03-10T08:49:48Z</time>
      </trkpt>
      <trkpt lat="45.12075" lon="6.10555">
        <ele>2642.9</ele>
        <time>2021-03-10T08:49:49Z</time>
      </trkpt>
      <trkpt lat="45.12076" lon="6.10556">
        <ele>2643</ele>
        <time>2021-03-10T08:49:50Z</time>
      </trkpt>
      <trkpt lat="45.12076" lon="6.10557">
        <ele>2643</ele>
        <time>2021-03-10T08:49:51Z</time>
      </trkpt>
      <trkpt lat="45.12077" lon="6.10558">
        <ele>2643.2</ele>
        <time>2021-03-10T08:49:52Z</time>
      </trkpt>
      <trkpt lat="45.12078" lon="6.10559">
        <ele>2643.3</ele>
        <time>2021-03-10T08:49:53Z</time>
      </trkpt>
      <trkpt lat="45.12079" lon="6.1056">
        <ele>2643.4</ele>
        <time>2021-03-10T08:49:54Z</time>
      </trkpt>
      <trkpt lat="45.1208" lon="6.1056">
        <ele>2643.5</ele>
        <time>2021-03-10T08:49:55Z</time>
      </trkpt>
      <trkpt lat="45.12081" lon="6.10561">
        <ele>2643.6</ele>
        <time>2021-03-10T08:49:56Z</time>
      </trkpt>
      <trkpt lat="45.12082" lon="6.10562">
        <ele>2643.7</ele>
        <time>2021-03-10T08:49:57Z</time>
      </trkpt>
      <trkpt lat="45.12083" lon="6.10562">
        <ele>2643.8</ele>
        <time>2021-03-10T08:49:58Z</time>
      </trkpt>
      <trkpt lat="45.12084" lon="6.10563">
        <ele>2643.8</ele>
        <time>2021-03-10T08:49:59Z</time>
      </trkpt>
      <trkpt lat="45.12085" lon="6.10563">
        <ele>2643.9</ele>
        <time>2021-03-10T08:50:00Z</time>
      </trkpt>
      <trkpt lat="45.12086" lon="6.10564">
        <ele>2644</ele>
        <time>2021-03-10T08:50:01Z</time>
      </trkpt>
      <trkpt lat="45.12087" lon="6.10565">
        <ele>2644.1</ele>
        <time>2021-03-10T08:50:02Z</time>
      </trkpt>
      <trkpt lat="45.12087" lon="6.10565">
        <ele>2644.1</ele>
        <time>2021-03-10T08:50:03Z</time>
      </trkpt>
      <trkpt lat="45.12088" lon="6.10566">
        <ele>2644.2</ele>
        <time>2021-03-10T08:50:04Z</time>
      </trkpt>
      <trkpt lat="45.12089" lon="6.10567">
        <ele>2644.2</ele>
        <time>2021-03-10T08:50:05Z</time>
      </trkpt>
      <trkpt lat="45.12089" lon="6.10567">
        <ele>2644.3</ele>
        <time>2021-03-10T08:50:06Z</time>
      </trkpt>
      <trkpt lat="45.1209" lon="6.10568">
        <ele>2644.4</ele>
        <time>2021-03-10T08:50:07Z</time>
      </trkpt>
      <trkpt lat="45.1209" lon="6.10569">
        <ele>2644.4</ele>
        <time>2021-03-10T08:50:08Z</time>
      </trkpt>
      <trkpt lat="45.12091" lon="6.10569">
        <ele>2644.5</ele>
        <time>2021-03-10T08:50:09Z</time>
      </trkpt>
      <trkpt lat="45.12091" lon="6.10569">
        <ele>2644.5</ele>
        <time>2021-03-10T08:50:10Z</time>
      </trkpt>
      <trkpt lat="45.12092" lon="6.1057">
        <ele>2644.5</ele>
        <time>2021-03-10T08:50:11Z</time>
      </trkpt>
      <trkpt lat="45.12092" lon="6.1057">
        <ele>2644.6</ele>
        <time>2021-03-10T08:50:12Z</time>
      </trkpt>
      <trkpt lat="45.12093" lon="6.10571">
        <ele>2644.7</ele>
        <time>2021-03-10T08:50:13Z</time>
      </trkpt>
      <trkpt lat="45.12094" lon="6.10571">
        <ele>2644.7</ele>
        <time>2021-03-10T08:50:14Z</time>
      </trkpt>
      <trkpt lat="45.12095" lon="6.10572">
        <ele>2644.8</ele>
        <time>2021-03-10T08:50:15Z</time>
      </trkpt>
      <trkpt lat="45.12095" lon="6.10572">
        <ele>2644.8</ele>
        <time>2021-03-10T08:50:16Z</time>
      </trkpt>
      <trkpt lat="45.12096" lon="6.10573">
        <ele>2644.9</ele>
        <time>2021-03-10T08:50:17Z</time>
      </trkpt>
      <trkpt lat="45.12098" lon="6.10575">
        <ele>2645.1</ele>
        <time>2021-03-10T08:50:18Z</time>
      </trkpt>
      <trkpt lat="45.12099" lon="6.10576">
        <ele>2645.1</ele>
        <time>2021-03-10T08:50:19Z</time>
      </trkpt>
      <trkpt lat="45.12099" lon="6.10577">
        <ele>2645.2</ele>
        <time>2021-03-10T08:50:20Z</time>
      </trkpt>
      <trkpt lat="45.121" lon="6.10578">
        <ele>2645.3</ele>
        <time>2021-03-10T08:50:21Z</time>
      </trkpt>
      <trkpt lat="45.121" lon="6.10579">
        <ele>2645.3</ele>
        <time>2021-03-10T08:50:22Z</time>
      </trkpt>
      <trkpt lat="45.12101" lon="6.1058">
        <ele>2645.4</ele>
        <time>2021-03-10T08:50:23Z</time>
      </trkpt>
      <trkpt lat="45.12101" lon="6.1058">
        <ele>2645.4</ele>
        <time>2021-03-10T08:50:24Z</time>
      </trkpt>
      <trkpt lat="45.12102" lon="6.10581">
        <ele>2645.5</ele>
        <time>2021-03-10T08:50:25Z</time>
      </trkpt>
      <trkpt lat="45.12102" lon="6.10581">
        <ele>2645.5</ele>
        <time>2021-03-10T08:50:26Z</time>
      </trkpt>
      <trkpt lat="45.12103" lon="6.10582">
        <ele>2645.6</ele>
        <time>2021-03-10T08:50:27Z</time>
      </trkpt>
      <trkpt lat="45.12103" lon="6.10583">
        <ele>2645.6</ele>
        <time>2021-03-10T08:50:28Z</time>
      </trkpt>
      <trkpt lat="45.12104" lon="6.10584">
        <ele>2645.7</ele>
        <time>2021-03-10T08:50:29Z</time>
      </trkpt>
      <trkpt lat="45.12105" lon="6.10584">
        <ele>2645.7</ele>
        <time>2021-03-10T08:50:30Z</time>
      </trkpt>
      <trkpt lat="45.12105" lon="6.10585">
        <ele>2645.8</ele>
        <time>2021-03-10T08:50:31Z</time>
      </trkpt>
      <trkpt lat="45.12106" lon="6.10585">
        <ele>2645.9</ele>
        <time>2021-03-10T08:50:32Z</time>
      </trkpt>
      <trkpt lat="45.12107" lon="6.10586">
        <ele>2645.9</ele>
        <time>2021-03-10T08:50:33Z</time>
      </trkpt>
      <trkpt lat="45.12108" lon="6.10587">
        <ele>2646</ele>
        <time>2021-03-10T08:50:34Z</time>
      </trkpt>
      <trkpt lat="45.12109" lon="6.10588">
        <ele>2646.1</ele>
        <time>2021-03-10T08:50:35Z</time>
      </trkpt>
      <trkpt lat="45.1211" lon="6.10589">
        <ele>2646.2</ele>
        <time>2021-03-10T08:50:36Z</time>
      </trkpt>
      <trkpt lat="45.1211" lon="6.1059">
        <ele>2646.3</ele>
        <time>2021-03-10T08:50:37Z</time>
      </trkpt>
      <trkpt lat="45.12111" lon="6.10591">
        <ele>2646.3</ele>
        <time>2021-03-10T08:50:38Z</time>
      </trkpt>
      <trkpt lat="45.12113" lon="6.10593">
        <ele>2646.5</ele>
        <time>2021-03-10T08:50:39Z</time>
      </trkpt>
      <trkpt lat="45.12113" lon="6.10594">
        <ele>2646.5</ele>
        <time>2021-03-10T08:50:40Z</time>
      </trkpt>
      <trkpt lat="45.12114" lon="6.10594">
        <ele>2646.6</ele>
        <time>2021-03-10T08:50:41Z</time>
      </trkpt>
      <trkpt lat="45.12115" lon="6.10595">
        <ele>2646.7</ele>
        <time>2021-03-10T08:50:42Z</time>
      </trkpt>
      <trkpt lat="45.12116" lon="6.10596">
        <ele>2646.8</ele>
        <time>2021-03-10T08:50:43Z</time>
      </trkpt>
      <trkpt lat="45.12117" lon="6.10596">
        <ele>2646.8</ele>
        <time>2021-03-10T08:50:44Z</time>
      </trkpt>
      <trkpt lat="45.12118" lon="6.10596">
        <ele>2646.9</ele>
        <time>2021-03-10T08:50:45Z</time>
      </trkpt>
      <trkpt lat="45.12119" lon="6.10597">
        <ele>2647</ele>
        <time>2021-03-10T08:50:46Z</time>
      </trkpt>
      <trkpt lat="45.1212" lon="6.10597">
        <ele>2647.1</ele>
        <time>2021-03-10T08:50:47Z</time>
      </trkpt>
      <trkpt lat="45.12121" lon="6.10598">
        <ele>2647.1</ele>
        <time>2021-03-10T08:50:48Z</time>
      </trkpt>
      <trkpt lat="45.12122" lon="6.10599">
        <ele>2647.2</ele>
        <time>2021-03-10T08:50:49Z</time>
      </trkpt>
      <trkpt lat="45.12123" lon="6.10599">
        <ele>2647.3</ele>
        <time>2021-03-10T08:50:50Z</time>
      </trkpt>
      <trkpt lat="45.12124" lon="6.106">
        <ele>2647.4</ele>
        <time>2021-03-10T08:50:51Z</time>
      </trkpt>
      <trkpt lat="45.12124" lon="6.106">
        <ele>2647.4</ele>
        <time>2021-03-10T08:50:52Z</time>
      </trkpt>
      <trkpt lat="45.12125" lon="6.10601">
        <ele>2647.5</ele>
        <time>2021-03-10T08:50:53Z</time>
      </trkpt>
      <trkpt lat="45.12126" lon="6.10601">
        <ele>2647.6</ele>
        <time>2021-03-10T08:50:54Z</time>
      </trkpt>
      <trkpt lat="45.12126" lon="6.10602">
        <ele>2647.6</ele>
        <time>2021-03-10T08:50:55Z</time>
      </trkpt>
      <trkpt lat="45.12127" lon="6.10603">
        <ele>2647.7</ele>
        <time>2021-03-10T08:50:56Z</time>
      </trkpt>
      <trkpt lat="45.12128" lon="6.10604">
        <ele>2647.7</ele>
        <time>2021-03-10T08:50:57Z</time>
      </trkpt>
      <trkpt lat="45.12128" lon="6.10605">
        <ele>2647.8</ele>
        <time>2021-03-10T08:50:58Z</time>
      </trkpt>
      <trkpt lat="45.12129" lon="6.10606">
        <ele>2647.9</ele>
        <time>2021-03-10T08:50:59Z</time>
      </trkpt>
      <trkpt lat="45.1213" lon="6.10606">
        <ele>2647.9</ele>
        <time>2021-03-10T08:51:00Z</time>
      </trkpt>
      <trkpt lat="45.12131" lon="6.10607">
        <ele>2648</ele>
        <time>2021-03-10T08:51:01Z</time>
      </trkpt>
      <trkpt lat="45.12131" lon="6.10608">
        <ele>2648.1</ele>
        <time>2021-03-10T08:51:02Z</time>
      </trkpt>
      <trkpt lat="45.12132" lon="6.10608">
        <ele>2648.1</ele>
        <time>2021-03-10T08:51:03Z</time>
      </trkpt>
      <trkpt lat="45.12132" lon="6.10609">
        <ele>2648.1</ele>
        <time>2021-03-10T08:51:04Z</time>
      </trkpt>
      <trkpt lat="45.12132" lon="6.10609">
        <ele>2648.2</ele>
        <time>2021-03-10T08:51:05Z</time>
      </trkpt>
      <trkpt lat="45.12133" lon="6.1061">
        <ele>2648.2</ele>
        <time>2021-03-10T08:51:06Z</time>
      </trkpt>
      <trkpt lat="45.12134" lon="6.1061">
        <ele>2648.3</ele>
        <time>2021-03-10T08:51:07Z</time>
      </trkpt>
      <trkpt lat="45.12135" lon="6.10611">
        <ele>2648.3</ele>
        <time>2021-03-10T08:51:08Z</time>
      </trkpt>
      <trkpt lat="45.12135" lon="6.10611">
        <ele>2648.4</ele>
        <time>2021-03-10T08:51:09Z</time>
      </trkpt>
      <trkpt lat="45.12136" lon="6.10612">
        <ele>2648.5</ele>
        <time>2021-03-10T08:51:10Z</time>
      </trkpt>
      <trkpt lat="45.12137" lon="6.10612">
        <ele>2648.5</ele>
        <time>2021-03-10T08:51:11Z</time>
      </trkpt>
      <trkpt lat="45.12138" lon="6.10613">
        <ele>2648.6</ele>
        <time>2021-03-10T08:51:12Z</time>
      </trkpt>
      <trkpt lat="45.12139" lon="6.10614">
        <ele>2648.6</ele>
        <time>2021-03-10T08:51:13Z</time>
      </trkpt>
      <trkpt lat="45.12139" lon="6.10614">
        <ele>2648.7</ele>
        <time>2021-03-10T08:51:14Z</time>
      </trkpt>
      <trkpt lat="45.1214" lon="6.10615">
        <ele>2648.8</ele>
        <time>2021-03-10T08:51:15Z</time>
      </trkpt>
      <trkpt lat="45.12141" lon="6.10616">
        <ele>2648.8</ele>
        <time>2021-03-10T08:51:16Z</time>
      </trkpt>
      <trkpt lat="45.12142" lon="6.10616">
        <ele>2648.9</ele>
        <time>2021-03-10T08:51:17Z</time>
      </trkpt>
      <trkpt lat="45.12143" lon="6.10617">
        <ele>2648.9</ele>
        <time>2021-03-10T08:51:18Z</time>
      </trkpt>
      <trkpt lat="45.12144" lon="6.10618">
        <ele>2649</ele>
        <time>2021-03-10T08:51:19Z</time>
      </trkpt>
      <trkpt lat="45.12144" lon="6.10619">
        <ele>2649.1</ele>
        <time>2021-03-10T08:51:20Z</time>
      </trkpt>
      <trkpt lat="45.12145" lon="6.10619">
        <ele>2649.1</ele>
        <time>2021-03-10T08:51:21Z</time>
      </trkpt>
      <trkpt lat="45.12146" lon="6.1062">
        <ele>2649.2</ele>
        <time>2021-03-10T08:51:22Z</time>
      </trkpt>
      <trkpt lat="45.12146" lon="6.10621">
        <ele>2649.2</ele>
        <time>2021-03-10T08:51:23Z</time>
      </trkpt>
      <trkpt lat="45.12147" lon="6.10623">
        <ele>2649.3</ele>
        <time>2021-03-10T08:51:24Z</time>
      </trkpt>
      <trkpt lat="45.12148" lon="6.10624">
        <ele>2649.3</ele>
        <time>2021-03-10T08:51:25Z</time>
      </trkpt>
      <trkpt lat="45.12148" lon="6.10625">
        <ele>2649.4</ele>
        <time>2021-03-10T08:51:26Z</time>
      </trkpt>
      <trkpt lat="45.12149" lon="6.10625">
        <ele>2649.4</ele>
        <time>2021-03-10T08:51:27Z</time>
      </trkpt>
      <trkpt lat="45.12149" lon="6.10627">
        <ele>2649.4</ele>
        <time>2021-03-10T08:51:28Z</time>
      </trkpt>
      <trkpt lat="45.1215" lon="6.10628">
        <ele>2649.5</ele>
        <time>2021-03-10T08:51:29Z</time>
      </trkpt>
      <trkpt lat="45.1215" lon="6.10629">
        <ele>2649.5</ele>
        <time>2021-03-10T08:51:30Z</time>
      </trkpt>
      <trkpt lat="45.12151" lon="6.1063">
        <ele>2649.6</ele>
        <time>2021-03-10T08:51:31Z</time>
      </trkpt>
      <trkpt lat="45.12152" lon="6.10631">
        <ele>2649.6</ele>
        <time>2021-03-10T08:51:32Z</time>
      </trkpt>
      <trkpt lat="45.12152" lon="6.10632">
        <ele>2649.7</ele>
        <time>2021-03-10T08:51:33Z</time>
      </trkpt>
      <trkpt lat="45.12152" lon="6.10634">
        <ele>2649.7</ele>
        <time>2021-03-10T08:51:34Z</time>
      </trkpt>
      <trkpt lat="45.12153" lon="6.10635">
        <ele>2649.7</ele>
        <time>2021-03-10T08:51:35Z</time>
      </trkpt>
      <trkpt lat="45.12154" lon="6.10636">
        <ele>2649.8</ele>
        <time>2021-03-10T08:51:36Z</time>
      </trkpt>
      <trkpt lat="45.12154" lon="6.10638">
        <ele>2649.8</ele>
        <time>2021-03-10T08:51:37Z</time>
      </trkpt>
      <trkpt lat="45.12154" lon="6.10639">
        <ele>2649.9</ele>
        <time>2021-03-10T08:51:38Z</time>
      </trkpt>
      <trkpt lat="45.12155" lon="6.10641">
        <ele>2649.9</ele>
        <time>2021-03-10T08:51:39Z</time>
      </trkpt>
      <trkpt lat="45.12155" lon="6.10644">
        <ele>2650</ele>
        <time>2021-03-10T08:51:40Z</time>
      </trkpt>
      <trkpt lat="45.12156" lon="6.10645">
        <ele>2650</ele>
        <time>2021-03-10T08:51:41Z</time>
      </trkpt>
      <trkpt lat="45.12156" lon="6.10646">
        <ele>2650</ele>
        <time>2021-03-10T08:51:42Z</time>
      </trkpt>
      <trkpt lat="45.12156" lon="6.10648">
        <ele>2650</ele>
        <time>2021-03-10T08:51:43Z</time>
      </trkpt>
      <trkpt lat="45.12156" lon="6.10649">
        <ele>2650.1</ele>
        <time>2021-03-10T08:51:44Z</time>
      </trkpt>
      <trkpt lat="45.12157" lon="6.10651">
        <ele>2650.1</ele>
        <time>2021-03-10T08:51:45Z</time>
      </trkpt>
      <trkpt lat="45.12157" lon="6.10652">
        <ele>2650.1</ele>
        <time>2021-03-10T08:51:46Z</time>
      </trkpt>
      <trkpt lat="45.12157" lon="6.10654">
        <ele>2650.1</ele>
        <time>2021-03-10T08:51:47Z</time>
      </trkpt>
      <trkpt lat="45.12157" lon="6.10654">
        <ele>2650.1</ele>
        <time>2021-03-10T08:51:48Z</time>
      </trkpt>
      <trkpt lat="45.12157" lon="6.10656">
        <ele>2650.1</ele>
        <time>2021-03-10T08:51:49Z</time>
      </trkpt>
      <trkpt lat="45.12157" lon="6.10657">
        <ele>2650.2</ele>
        <time>2021-03-10T08:51:50Z</time>
      </trkpt>
      <trkpt lat="45.12157" lon="6.10658">
        <ele>2650.2</ele>
        <time>2021-03-10T08:51:51Z</time>
      </trkpt>
      <trkpt lat="45.12157" lon="6.10659">
        <ele>2650.2</ele>
        <time>2021-03-10T08:51:52Z</time>
      </trkpt>
      <trkpt lat="45.12157" lon="6.1066">
        <ele>2650.2</ele>
        <time>2021-03-10T08:51:53Z</time>
      </trkpt>
      <trkpt lat="45.12157" lon="6.10662">
        <ele>2650.2</ele>
        <time>2021-03-10T08:51:54Z</time>
      </trkpt>
      <trkpt lat="45.12157" lon="6.10663">
        <ele>2650.2</ele>
        <time>2021-03-10T08:51:55Z</time>
      </trkpt>
      <trkpt lat="45.12156" lon="6.10665">
        <ele>2650.3</ele>
        <time>2021-03-10T08:51:56Z</time>
      </trkpt>
      <trkpt lat="45.12156" lon="6.10667">
        <ele>2650.3</ele>
        <time>2021-03-10T08:51:57Z</time>
      </trkpt>
      <trkpt lat="45.12155" lon="6.10668">
        <ele>2650.3</ele>
        <time>2021-03-10T08:51:58Z</time>
      </trkpt>
      <trkpt lat="45.12155" lon="6.10668">
        <ele>2650.3</ele>
        <time>2021-03-10T08:51:59Z</time>
      </trkpt>
      <trkpt lat="45.12155" lon="6.10669">
        <ele>2650.3</ele>
        <time>2021-03-10T08:52:00Z</time>
      </trkpt>
      <trkpt lat="45.12155" lon="6.10669">
        <ele>2650.3</ele>
        <time>2021-03-10T08:52:01Z</time>
      </trkpt>
      <trkpt lat="45.12154" lon="6.10669">
        <ele>2650.3</ele>
        <time>2021-03-10T08:52:02Z</time>
      </trkpt>
      <trkpt lat="45.12154" lon="6.10669">
        <ele>2650.3</ele>
        <time>2021-03-10T08:52:03Z</time>
      </trkpt>
      <trkpt lat="45.12154" lon="6.1067">
        <ele>2650.3</ele>
        <time>2021-03-10T08:52:04Z</time>
      </trkpt>
      <trkpt lat="45.12154" lon="6.10671">
        <ele>2650.3</ele>
        <time>2021-03-10T08:52:05Z</time>
      </trkpt>
      <trkpt lat="45.12155" lon="6.10672">
        <ele>2650.3</ele>
        <time>2021-03-10T08:52:06Z</time>
      </trkpt>
      <trkpt lat="45.12155" lon="6.10673">
        <ele>2650.4</ele>
        <time>2021-03-10T08:52:07Z</time>
      </trkpt>
      <trkpt lat="45.12155" lon="6.10675">
        <ele>2650.4</ele>
        <time>2021-03-10T08:52:08Z</time>
      </trkpt>
      <trkpt lat="45.12155" lon="6.10676">
        <ele>2650.4</ele>
        <time>2021-03-10T08:52:09Z</time>
      </trkpt>
      <trkpt lat="45.12156" lon="6.10677">
        <ele>2650.4</ele>
        <time>2021-03-10T08:52:10Z</time>
      </trkpt>
      <trkpt lat="45.12156" lon="6.10678">
        <ele>2650.4</ele>
        <time>2021-03-10T08:52:11Z</time>
      </trkpt>
      <trkpt lat="45.12156" lon="6.10679">
        <ele>2650.4</ele>
        <time>2021-03-10T08:52:12Z</time>
      </trkpt>
      <trkpt lat="45.12157" lon="6.1068">
        <ele>2650.5</ele>
        <time>2021-03-10T08:52:13Z</time>
      </trkpt>
      <trkpt lat="45.12157" lon="6.10682">
        <ele>2650.5</ele>
        <time>2021-03-10T08:52:14Z</time>
      </trkpt>
      <trkpt lat="45.12157" lon="6.10683">
        <ele>2650.5</ele>
        <time>2021-03-10T08:52:15Z</time>
      </trkpt>
      <trkpt lat="45.12158" lon="6.10684">
        <ele>2650.5</ele>
        <time>2021-03-10T08:52:16Z</time>
      </trkpt>
      <trkpt lat="45.12158" lon="6.10685">
        <ele>2650.5</ele>
        <time>2021-03-10T08:52:17Z</time>
      </trkpt>
      <trkpt lat="45.12159" lon="6.10685">
        <ele>2650.5</ele>
        <time>2021-03-10T08:52:18Z</time>
      </trkpt>
      <trkpt lat="45.12159" lon="6.10686">
        <ele>2650.6</ele>
        <time>2021-03-10T08:52:19Z</time>
      </trkpt>
      <trkpt lat="45.1216" lon="6.10687">
        <ele>2650.6</ele>
        <time>2021-03-10T08:52:20Z</time>
      </trkpt>
      <trkpt lat="45.12161" lon="6.10688">
        <ele>2650.6</ele>
        <time>2021-03-10T08:52:21Z</time>
      </trkpt>
      <trkpt lat="45.12161" lon="6.10689">
        <ele>2650.6</ele>
        <time>2021-03-10T08:52:22Z</time>
      </trkpt>
      <trkpt lat="45.12162" lon="6.10689">
        <ele>2650.6</ele>
        <time>2021-03-10T08:52:23Z</time>
      </trkpt>
      <trkpt lat="45.12163" lon="6.1069">
        <ele>2650.7</ele>
        <time>2021-03-10T08:52:24Z</time>
      </trkpt>
      <trkpt lat="45.12163" lon="6.1069">
        <ele>2650.7</ele>
        <time>2021-03-10T08:52:25Z</time>
      </trkpt>
      <trkpt lat="45.12164" lon="6.1069">
        <ele>2650.7</ele>
        <time>2021-03-10T08:52:26Z</time>
      </trkpt>
      <trkpt lat="45.12165" lon="6.10691">
        <ele>2650.7</ele>
        <time>2021-03-10T08:52:27Z</time>
      </trkpt>
      <trkpt lat="45.12166" lon="6.10691">
        <ele>2650.8</ele>
        <time>2021-03-10T08:52:28Z</time>
      </trkpt>
      <trkpt lat="45.12167" lon="6.10692">
        <ele>2650.8</ele>
        <time>2021-03-10T08:52:29Z</time>
      </trkpt>
      <trkpt lat="45.12167" lon="6.10693">
        <ele>2650.8</ele>
        <time>2021-03-10T08:52:30Z</time>
      </trkpt>
      <trkpt lat="45.12168" lon="6.10694">
        <ele>2650.8</ele>
        <time>2021-03-10T08:52:31Z</time>
      </trkpt>
      <trkpt lat="45.12169" lon="6.10694">
        <ele>2650.9</ele>
        <time>2021-03-10T08:52:32Z</time>
      </trkpt>
      <trkpt lat="45.1217" lon="6.10695">
        <ele>2650.9</ele>
        <time>2021-03-10T08:52:33Z</time>
      </trkpt>
      <trkpt lat="45.1217" lon="6.10695">
        <ele>2650.9</ele>
        <time>2021-03-10T08:52:34Z</time>
      </trkpt>
      <trkpt lat="45.12171" lon="6.10695">
        <ele>2650.9</ele>
        <time>2021-03-10T08:52:35Z</time>
      </trkpt>
      <trkpt lat="45.12172" lon="6.10696">
        <ele>2650.9</ele>
        <time>2021-03-10T08:52:36Z</time>
      </trkpt>
      <trkpt lat="45.12173" lon="6.10696">
        <ele>2651</ele>
        <time>2021-03-10T08:52:37Z</time>
      </trkpt>
      <trkpt lat="45.12173" lon="6.10696">
        <ele>2651</ele>
        <time>2021-03-10T08:52:38Z</time>
      </trkpt>
      <trkpt lat="45.12174" lon="6.10697">
        <ele>2651</ele>
        <time>2021-03-10T08:52:39Z</time>
      </trkpt>
      <trkpt lat="45.12175" lon="6.10696">
        <ele>2651</ele>
        <time>2021-03-10T08:52:40Z</time>
      </trkpt>
      <trkpt lat="45.12176" lon="6.10696">
        <ele>2651.1</ele>
        <time>2021-03-10T08:52:41Z</time>
      </trkpt>
      <trkpt lat="45.12177" lon="6.10696">
        <ele>2651.1</ele>
        <time>2021-03-10T08:52:42Z</time>
      </trkpt>
      <trkpt lat="45.12178" lon="6.10696">
        <ele>2651.1</ele>
        <time>2021-03-10T08:52:43Z</time>
      </trkpt>
      <trkpt lat="45.12179" lon="6.10696">
        <ele>2651.1</ele>
        <time>2021-03-10T08:52:44Z</time>
      </trkpt>
      <trkpt lat="45.1218" lon="6.10696">
        <ele>2651.2</ele>
        <time>2021-03-10T08:52:45Z</time>
      </trkpt>
      <trkpt lat="45.12181" lon="6.10696">
        <ele>2651.2</ele>
        <time>2021-03-10T08:52:46Z</time>
      </trkpt>
      <trkpt lat="45.12182" lon="6.10697">
        <ele>2651.2</ele>
        <time>2021-03-10T08:52:47Z</time>
      </trkpt>
      <trkpt lat="45.12183" lon="6.10697">
        <ele>2651.2</ele>
        <time>2021-03-10T08:52:48Z</time>
      </trkpt>
      <trkpt lat="45.12184" lon="6.10697">
        <ele>2651.3</ele>
        <time>2021-03-10T08:52:49Z</time>
      </trkpt>
      <trkpt lat="45.12186" lon="6.10697">
        <ele>2651.3</ele>
        <time>2021-03-10T08:52:50Z</time>
      </trkpt>
      <trkpt lat="45.12187" lon="6.10697">
        <ele>2651.3</ele>
        <time>2021-03-10T08:52:51Z</time>
      </trkpt>
      <trkpt lat="45.12188" lon="6.10697">
        <ele>2651.4</ele>
        <time>2021-03-10T08:52:52Z</time>
      </trkpt>
      <trkpt lat="45.12189" lon="6.10697">
        <ele>2651.4</ele>
        <time>2021-03-10T08:52:53Z</time>
      </trkpt>
      <trkpt lat="45.1219" lon="6.10698">
        <ele>2651.4</ele>
        <time>2021-03-10T08:52:54Z</time>
      </trkpt>
      <trkpt lat="45.12191" lon="6.10698">
        <ele>2651.4</ele>
        <time>2021-03-10T08:52:55Z</time>
      </trkpt>
      <trkpt lat="45.12192" lon="6.10698">
        <ele>2651.5</ele>
        <time>2021-03-10T08:52:56Z</time>
      </trkpt>
      <trkpt lat="45.12193" lon="6.10699">
        <ele>2651.5</ele>
        <time>2021-03-10T08:52:57Z</time>
      </trkpt>
      <trkpt lat="45.12194" lon="6.10699">
        <ele>2651.5</ele>
        <time>2021-03-10T08:52:58Z</time>
      </trkpt>
      <trkpt lat="45.12195" lon="6.10699">
        <ele>2651.5</ele>
        <time>2021-03-10T08:52:59Z</time>
      </trkpt>
      <trkpt lat="45.12196" lon="6.10699">
        <ele>2651.6</ele>
        <time>2021-03-10T08:53:00Z</time>
      </trkpt>
      <trkpt lat="45.12197" lon="6.10699">
        <ele>2651.6</ele>
        <time>2021-03-10T08:53:01Z</time>
      </trkpt>
      <trkpt lat="45.12198" lon="6.107">
        <ele>2651.6</ele>
        <time>2021-03-10T08:53:02Z</time>
      </trkpt>
      <trkpt lat="45.12199" lon="6.107">
        <ele>2651.6</ele>
        <time>2021-03-10T08:53:03Z</time>
      </trkpt>
      <trkpt lat="45.12199" lon="6.10701">
        <ele>2651.6</ele>
        <time>2021-03-10T08:53:04Z</time>
      </trkpt>
      <trkpt lat="45.122" lon="6.10701">
        <ele>2651.7</ele>
        <time>2021-03-10T08:53:05Z</time>
      </trkpt>
      <trkpt lat="45.12201" lon="6.10701">
        <ele>2651.7</ele>
        <time>2021-03-10T08:53:06Z</time>
      </trkpt>
      <trkpt lat="45.12202" lon="6.10701">
        <ele>2651.7</ele>
        <time>2021-03-10T08:53:07Z</time>
      </trkpt>
      <trkpt lat="45.12203" lon="6.10701">
        <ele>2651.7</ele>
        <time>2021-03-10T08:53:08Z</time>
      </trkpt>
      <trkpt lat="45.12204" lon="6.10702">
        <ele>2651.8</ele>
        <time>2021-03-10T08:53:09Z</time>
      </trkpt>
      <trkpt lat="45.12205" lon="6.10702">
        <ele>2651.8</ele>
        <time>2021-03-10T08:53:10Z</time>
      </trkpt>
      <trkpt lat="45.12206" lon="6.10702">
        <ele>2651.8</ele>
        <time>2021-03-10T08:53:11Z</time>
      </trkpt>
      <trkpt lat="45.12207" lon="6.10702">
        <ele>2651.8</ele>
        <time>2021-03-10T08:53:12Z</time>
      </trkpt>
      <trkpt lat="45.12208" lon="6.10702">
        <ele>2651.9</ele>
        <time>2021-03-10T08:53:13Z</time>
      </trkpt>
      <trkpt lat="45.12209" lon="6.10702">
        <ele>2651.9</ele>
        <time>2021-03-10T08:53:14Z</time>
      </trkpt>
      <trkpt lat="45.1221" lon="6.10702">
        <ele>2651.9</ele>
        <time>2021-03-10T08:53:15Z</time>
      </trkpt>
      <trkpt lat="45.12211" lon="6.10702">
        <ele>2651.9</ele>
        <time>2021-03-10T08:53:16Z</time>
      </trkpt>
      <trkpt lat="45.12212" lon="6.10702">
        <ele>2652</ele>
        <time>2021-03-10T08:53:17Z</time>
      </trkpt>
      <trkpt lat="45.12213" lon="6.10702">
        <ele>2652</ele>
        <time>2021-03-10T08:53:18Z</time>
      </trkpt>
      <trkpt lat="45.12214" lon="6.10702">
        <ele>2652</ele>
        <time>2021-03-10T08:53:19Z</time>
      </trkpt>
      <trkpt lat="45.12215" lon="6.10702">
        <ele>2652.1</ele>
        <time>2021-03-10T08:53:20Z</time>
      </trkpt>
      <trkpt lat="45.12216" lon="6.10702">
        <ele>2652.1</ele>
        <time>2021-03-10T08:53:21Z</time>
      </trkpt>
      <trkpt lat="45.12217" lon="6.10702">
        <ele>2652.1</ele>
        <time>2021-03-10T08:53:22Z</time>
      </trkpt>
      <trkpt lat="45.12218" lon="6.10702">
        <ele>2652.2</ele>
        <time>2021-03-10T08:53:23Z</time>
      </trkpt>
      <trkpt lat="45.12219" lon="6.10702">
        <ele>2652.2</ele>
        <time>2021-03-10T08:53:24Z</time>
      </trkpt>
      <trkpt lat="45.1222" lon="6.10702">
        <ele>2652.2</ele>
        <time>2021-03-10T08:53:25Z</time>
      </trkpt>
      <trkpt lat="45.12221" lon="6.10702">
        <ele>2652.3</ele>
        <time>2021-03-10T08:53:26Z</time>
      </trkpt>
      <trkpt lat="45.12222" lon="6.10702">
        <ele>2652.3</ele>
        <time>2021-03-10T08:53:27Z</time>
      </trkpt>
      <trkpt lat="45.12224" lon="6.10703">
        <ele>2652.3</ele>
        <time>2021-03-10T08:53:28Z</time>
      </trkpt>
      <trkpt lat="45.12225" lon="6.10703">
        <ele>2652.4</ele>
        <time>2021-03-10T08:53:29Z</time>
      </trkpt>
      <trkpt lat="45.12227" lon="6.10704">
        <ele>2652.5</ele>
        <time>2021-03-10T08:53:30Z</time>
      </trkpt>
      <trkpt lat="45.12227" lon="6.10705">
        <ele>2652.5</ele>
        <time>2021-03-10T08:53:31Z</time>
      </trkpt>
      <trkpt lat="45.12228" lon="6.10705">
        <ele>2652.5</ele>
        <time>2021-03-10T08:53:32Z</time>
      </trkpt>
      <trkpt lat="45.12229" lon="6.10706">
        <ele>2652.6</ele>
        <time>2021-03-10T08:53:33Z</time>
      </trkpt>
      <trkpt lat="45.1223" lon="6.10706">
        <ele>2652.6</ele>
        <time>2021-03-10T08:53:34Z</time>
      </trkpt>
      <trkpt lat="45.12231" lon="6.10706">
        <ele>2652.6</ele>
        <time>2021-03-10T08:53:35Z</time>
      </trkpt>
      <trkpt lat="45.12231" lon="6.10707">
        <ele>2652.7</ele>
        <time>2021-03-10T08:53:36Z</time>
      </trkpt>
      <trkpt lat="45.12232" lon="6.10707">
        <ele>2652.7</ele>
        <time>2021-03-10T08:53:37Z</time>
      </trkpt>
      <trkpt lat="45.12233" lon="6.10707">
        <ele>2652.7</ele>
        <time>2021-03-10T08:53:38Z</time>
      </trkpt>
      <trkpt lat="45.12233" lon="6.10707">
        <ele>2652.7</ele>
        <time>2021-03-10T08:53:39Z</time>
      </trkpt>
      <trkpt lat="45.12234" lon="6.10707">
        <ele>2652.8</ele>
        <time>2021-03-10T08:53:40Z</time>
      </trkpt>
      <trkpt lat="45.12235" lon="6.10707">
        <ele>2652.8</ele>
        <time>2021-03-10T08:53:41Z</time>
      </trkpt>
      <trkpt lat="45.12236" lon="6.10707">
        <ele>2652.8</ele>
        <time>2021-03-10T08:53:42Z</time>
      </trkpt>
      <trkpt lat="45.12236" lon="6.10707">
        <ele>2652.9</ele>
        <time>2021-03-10T08:53:43Z</time>
      </trkpt>
      <trkpt lat="45.12237" lon="6.10707">
        <ele>2652.9</ele>
        <time>2021-03-10T08:53:44Z</time>
      </trkpt>
      <trkpt lat="45.12238" lon="6.10708">
        <ele>2652.9</ele>
        <time>2021-03-10T08:53:45Z</time>
      </trkpt>
      <trkpt lat="45.12238" lon="6.10709">
        <ele>2652.9</ele>
        <time>2021-03-10T08:53:46Z</time>
      </trkpt>
      <trkpt lat="45.12239" lon="6.10709">
        <ele>2653</ele>
        <time>2021-03-10T08:53:47Z</time>
      </trkpt>
      <trkpt lat="45.12239" lon="6.1071">
        <ele>2653</ele>
        <time>2021-03-10T08:53:48Z</time>
      </trkpt>
      <trkpt lat="45.1224" lon="6.1071">
        <ele>2653</ele>
        <time>2021-03-10T08:53:49Z</time>
      </trkpt>
      <trkpt lat="45.12241" lon="6.10711">
        <ele>2653.1</ele>
        <time>2021-03-10T08:53:50Z</time>
      </trkpt>
      <trkpt lat="45.12241" lon="6.10711">
        <ele>2653.1</ele>
        <time>2021-03-10T08:53:51Z</time>
      </trkpt>
      <trkpt lat="45.12242" lon="6.10712">
        <ele>2653.1</ele>
        <time>2021-03-10T08:53:52Z</time>
      </trkpt>
      <trkpt lat="45.12243" lon="6.10712">
        <ele>2653.1</ele>
        <time>2021-03-10T08:53:53Z</time>
      </trkpt>
      <trkpt lat="45.12244" lon="6.10713">
        <ele>2653.2</ele>
        <time>2021-03-10T08:53:54Z</time>
      </trkpt>
      <trkpt lat="45.12245" lon="6.10714">
        <ele>2653.2</ele>
        <time>2021-03-10T08:53:55Z</time>
      </trkpt>
      <trkpt lat="45.12246" lon="6.10714">
        <ele>2653.3</ele>
        <time>2021-03-10T08:53:56Z</time>
      </trkpt>
      <trkpt lat="45.12247" lon="6.10714">
        <ele>2653.3</ele>
        <time>2021-03-10T08:53:57Z</time>
      </trkpt>
      <trkpt lat="45.12248" lon="6.10714">
        <ele>2653.3</ele>
        <time>2021-03-10T08:53:58Z</time>
      </trkpt>
      <trkpt lat="45.12249" lon="6.10714">
        <ele>2653.4</ele>
        <time>2021-03-10T08:53:59Z</time>
      </trkpt>
      <trkpt lat="45.1225" lon="6.10714">
        <ele>2653.4</ele>
        <time>2021-03-10T08:54:00Z</time>
      </trkpt>
      <trkpt lat="45.12251" lon="6.10715">
        <ele>2653.5</ele>
        <time>2021-03-10T08:54:01Z</time>
      </trkpt>
      <trkpt lat="45.12252" lon="6.10715">
        <ele>2653.5</ele>
        <time>2021-03-10T08:54:02Z</time>
      </trkpt>
      <trkpt lat="45.12253" lon="6.10716">
        <ele>2653.6</ele>
        <time>2021-03-10T08:54:03Z</time>
      </trkpt>
      <trkpt lat="45.12254" lon="6.10716">
        <ele>2653.6</ele>
        <time>2021-03-10T08:54:04Z</time>
      </trkpt>
      <trkpt lat="45.12255" lon="6.10716">
        <ele>2653.7</ele>
        <time>2021-03-10T08:54:05Z</time>
      </trkpt>
      <trkpt lat="45.12256" lon="6.10717">
        <ele>2653.7</ele>
        <time>2021-03-10T08:54:06Z</time>
      </trkpt>
      <trkpt lat="45.12257" lon="6.10717">
        <ele>2653.9</ele>
        <time>2021-03-10T08:54:07Z</time>
      </trkpt>
      <trkpt lat="45.12259" lon="6.10717">
        <ele>2654</ele>
        <time>2021-03-10T08:54:08Z</time>
      </trkpt>
      <trkpt lat="45.12259" lon="6.10718">
        <ele>2654.2</ele>
        <time>2021-03-10T08:54:09Z</time>
      </trkpt>
      <trkpt lat="45.12261" lon="6.10718">
        <ele>2654.3</ele>
        <time>2021-03-10T08:54:10Z</time>
      </trkpt>
      <trkpt lat="45.12262" lon="6.10718">
        <ele>2654.4</ele>
        <time>2021-03-10T08:54:11Z</time>
      </trkpt>
      <trkpt lat="45.12262" lon="6.10719">
        <ele>2654.5</ele>
        <time>2021-03-10T08:54:12Z</time>
      </trkpt>
      <trkpt lat="45.12263" lon="6.10719">
        <ele>2654.7</ele>
        <time>2021-03-10T08:54:13Z</time>
      </trkpt>
      <trkpt lat="45.12265" lon="6.10719">
        <ele>2654.8</ele>
        <time>2021-03-10T08:54:14Z</time>
      </trkpt>
      <trkpt lat="45.12266" lon="6.10719">
        <ele>2654.9</ele>
        <time>2021-03-10T08:54:15Z</time>
      </trkpt>
      <trkpt lat="45.12266" lon="6.10719">
        <ele>2655.1</ele>
        <time>2021-03-10T08:54:16Z</time>
      </trkpt>
      <trkpt lat="45.12267" lon="6.10719">
        <ele>2655.2</ele>
        <time>2021-03-10T08:54:17Z</time>
      </trkpt>
      <trkpt lat="45.12268" lon="6.1072">
        <ele>2655.3</ele>
        <time>2021-03-10T08:54:18Z</time>
      </trkpt>
      <trkpt lat="45.12269" lon="6.1072">
        <ele>2655.4</ele>
        <time>2021-03-10T08:54:19Z</time>
      </trkpt>
      <trkpt lat="45.1227" lon="6.1072">
        <ele>2655.5</ele>
        <time>2021-03-10T08:54:20Z</time>
      </trkpt>
      <trkpt lat="45.12271" lon="6.10721">
        <ele>2655.6</ele>
        <time>2021-03-10T08:54:21Z</time>
      </trkpt>
      <trkpt lat="45.12271" lon="6.10721">
        <ele>2655.7</ele>
        <time>2021-03-10T08:54:22Z</time>
      </trkpt>
      <trkpt lat="45.12272" lon="6.10721">
        <ele>2655.8</ele>
        <time>2021-03-10T08:54:23Z</time>
      </trkpt>
      <trkpt lat="45.12273" lon="6.10722">
        <ele>2655.8</ele>
        <time>2021-03-10T08:54:24Z</time>
      </trkpt>
      <trkpt lat="45.12273" lon="6.10722">
        <ele>2655.9</ele>
        <time>2021-03-10T08:54:25Z</time>
      </trkpt>
      <trkpt lat="45.12274" lon="6.10723">
        <ele>2656.1</ele>
        <time>2021-03-10T08:54:26Z</time>
      </trkpt>
      <trkpt lat="45.12275" lon="6.10723">
        <ele>2656.2</ele>
        <time>2021-03-10T08:54:27Z</time>
      </trkpt>
      <trkpt lat="45.12276" lon="6.10723">
        <ele>2656.3</ele>
        <time>2021-03-10T08:54:28Z</time>
      </trkpt>
      <trkpt lat="45.12277" lon="6.10723">
        <ele>2656.3</ele>
        <time>2021-03-10T08:54:29Z</time>
      </trkpt>
      <trkpt lat="45.12278" lon="6.10724">
        <ele>2656.4</ele>
        <time>2021-03-10T08:54:30Z</time>
      </trkpt>
      <trkpt lat="45.12279" lon="6.10724">
        <ele>2656.6</ele>
        <time>2021-03-10T08:54:31Z</time>
      </trkpt>
      <trkpt lat="45.1228" lon="6.10724">
        <ele>2656.7</ele>
        <time>2021-03-10T08:54:32Z</time>
      </trkpt>
      <trkpt lat="45.1228" lon="6.10725">
        <ele>2656.8</ele>
        <time>2021-03-10T08:54:33Z</time>
      </trkpt>
      <trkpt lat="45.12281" lon="6.10725">
        <ele>2656.9</ele>
        <time>2021-03-10T08:54:34Z</time>
      </trkpt>
      <trkpt lat="45.12282" lon="6.10726">
        <ele>2657</ele>
        <time>2021-03-10T08:54:35Z</time>
      </trkpt>
      <trkpt lat="45.12283" lon="6.10727">
        <ele>2657.2</ele>
        <time>2021-03-10T08:54:36Z</time>
      </trkpt>
      <trkpt lat="45.12284" lon="6.10728">
        <ele>2657.3</ele>
        <time>2021-03-10T08:54:37Z</time>
      </trkpt>
      <trkpt lat="45.12285" lon="6.10728">
        <ele>2657.4</ele>
        <time>2021-03-10T08:54:38Z</time>
      </trkpt>
      <trkpt lat="45.12286" lon="6.10728">
        <ele>2657.5</ele>
        <time>2021-03-10T08:54:39Z</time>
      </trkpt>
      <trkpt lat="45.12287" lon="6.10729">
        <ele>2657.6</ele>
        <time>2021-03-10T08:54:40Z</time>
      </trkpt>
      <trkpt lat="45.12288" lon="6.10729">
        <ele>2657.7</ele>
        <time>2021-03-10T08:54:41Z</time>
      </trkpt>
      <trkpt lat="45.12289" lon="6.10729">
        <ele>2657.9</ele>
        <time>2021-03-10T08:54:42Z</time>
      </trkpt>
      <trkpt lat="45.1229" lon="6.10729">
        <ele>2657.9</ele>
        <time>2021-03-10T08:54:43Z</time>
      </trkpt>
      <trkpt lat="45.1229" lon="6.10729">
        <ele>2658</ele>
        <time>2021-03-10T08:54:44Z</time>
      </trkpt>
      <trkpt lat="45.12292" lon="6.10729">
        <ele>2658.2</ele>
        <time>2021-03-10T08:54:45Z</time>
      </trkpt>
      <trkpt lat="45.12293" lon="6.10729">
        <ele>2658.3</ele>
        <time>2021-03-10T08:54:46Z</time>
      </trkpt>
      <trkpt lat="45.12294" lon="6.10729">
        <ele>2658.5</ele>
        <time>2021-03-10T08:54:47Z</time>
      </trkpt>
      <trkpt lat="45.12295" lon="6.10729">
        <ele>2658.6</ele>
        <time>2021-03-10T08:54:48Z</time>
      </trkpt>
      <trkpt lat="45.12296" lon="6.10729">
        <ele>2658.6</ele>
        <time>2021-03-10T08:54:49Z</time>
      </trkpt>
      <trkpt lat="45.12296" lon="6.10729">
        <ele>2658.7</ele>
        <time>2021-03-10T08:54:50Z</time>
      </trkpt>
      <trkpt lat="45.12297" lon="6.10729">
        <ele>2658.8</ele>
        <time>2021-03-10T08:54:51Z</time>
      </trkpt>
      <trkpt lat="45.12298" lon="6.10729">
        <ele>2659</ele>
        <time>2021-03-10T08:54:52Z</time>
      </trkpt>
      <trkpt lat="45.12299" lon="6.1073">
        <ele>2659.1</ele>
        <time>2021-03-10T08:54:53Z</time>
      </trkpt>
      <trkpt lat="45.123" lon="6.1073">
        <ele>2659.2</ele>
        <time>2021-03-10T08:54:54Z</time>
      </trkpt>
      <trkpt lat="45.12301" lon="6.1073">
        <ele>2659.3</ele>
        <time>2021-03-10T08:54:55Z</time>
      </trkpt>
      <trkpt lat="45.12302" lon="6.10731">
        <ele>2659.5</ele>
        <time>2021-03-10T08:54:56Z</time>
      </trkpt>
      <trkpt lat="45.12303" lon="6.10731">
        <ele>2659.6</ele>
        <time>2021-03-10T08:54:57Z</time>
      </trkpt>
      <trkpt lat="45.12304" lon="6.10731">
        <ele>2659.7</ele>
        <time>2021-03-10T08:54:58Z</time>
      </trkpt>
      <trkpt lat="45.12305" lon="6.10732">
        <ele>2659.8</ele>
        <time>2021-03-10T08:54:59Z</time>
      </trkpt>
      <trkpt lat="45.12305" lon="6.10732">
        <ele>2659.9</ele>
        <time>2021-03-10T08:55:00Z</time>
      </trkpt>
      <trkpt lat="45.12306" lon="6.10732">
        <ele>2660</ele>
        <time>2021-03-10T08:55:01Z</time>
      </trkpt>
      <trkpt lat="45.12307" lon="6.10732">
        <ele>2660.2</ele>
        <time>2021-03-10T08:55:02Z</time>
      </trkpt>
      <trkpt lat="45.12308" lon="6.10733">
        <ele>2660.3</ele>
        <time>2021-03-10T08:55:03Z</time>
      </trkpt>
      <trkpt lat="45.12309" lon="6.10733">
        <ele>2660.4</ele>
        <time>2021-03-10T08:55:04Z</time>
      </trkpt>
      <trkpt lat="45.1231" lon="6.10734">
        <ele>2660.6</ele>
        <time>2021-03-10T08:55:05Z</time>
      </trkpt>
      <trkpt lat="45.12311" lon="6.10734">
        <ele>2660.7</ele>
        <time>2021-03-10T08:55:06Z</time>
      </trkpt>
      <trkpt lat="45.12311" lon="6.10735">
        <ele>2660.8</ele>
        <time>2021-03-10T08:55:07Z</time>
      </trkpt>
      <trkpt lat="45.12312" lon="6.10735">
        <ele>2660.9</ele>
        <time>2021-03-10T08:55:08Z</time>
      </trkpt>
      <trkpt lat="45.12313" lon="6.10735">
        <ele>2661</ele>
        <time>2021-03-10T08:55:09Z</time>
      </trkpt>
      <trkpt lat="45.12314" lon="6.10735">
        <ele>2661.1</ele>
        <time>2021-03-10T08:55:10Z</time>
      </trkpt>
      <trkpt lat="45.12315" lon="6.10735">
        <ele>2661.3</ele>
        <time>2021-03-10T08:55:11Z</time>
      </trkpt>
      <trkpt lat="45.12316" lon="6.10735">
        <ele>2661.4</ele>
        <time>2021-03-10T08:55:12Z</time>
      </trkpt>
      <trkpt lat="45.12316" lon="6.10736">
        <ele>2661.5</ele>
        <time>2021-03-10T08:55:13Z</time>
      </trkpt>
      <trkpt lat="45.12317" lon="6.10736">
        <ele>2661.6</ele>
        <time>2021-03-10T08:55:14Z</time>
      </trkpt>
      <trkpt lat="45.12318" lon="6.10736">
        <ele>2661.7</ele>
        <time>2021-03-10T08:55:15Z</time>
      </trkpt>
      <trkpt lat="45.12318" lon="6.10736">
        <ele>2661.8</ele>
        <time>2021-03-10T08:55:16Z</time>
      </trkpt>
      <trkpt lat="45.12319" lon="6.10736">
        <ele>2661.9</ele>
        <time>2021-03-10T08:55:17Z</time>
      </trkpt>
      <trkpt lat="45.12319" lon="6.10736">
        <ele>2662</ele>
        <time>2021-03-10T08:55:18Z</time>
      </trkpt>
      <trkpt lat="45.1232" lon="6.10737">
        <ele>2662</ele>
        <time>2021-03-10T08:55:19Z</time>
      </trkpt>
      <trkpt lat="45.12321" lon="6.10737">
        <ele>2662.2</ele>
        <time>2021-03-10T08:55:20Z</time>
      </trkpt>
      <trkpt lat="45.12321" lon="6.10737">
        <ele>2662.3</ele>
        <time>2021-03-10T08:55:21Z</time>
      </trkpt>
      <trkpt lat="45.12322" lon="6.10738">
        <ele>2662.4</ele>
        <time>2021-03-10T08:55:22Z</time>
      </trkpt>
      <trkpt lat="45.12323" lon="6.10739">
        <ele>2662.5</ele>
        <time>2021-03-10T08:55:23Z</time>
      </trkpt>
      <trkpt lat="45.12323" lon="6.10739">
        <ele>2662.6</ele>
        <time>2021-03-10T08:55:24Z</time>
      </trkpt>
      <trkpt lat="45.12324" lon="6.1074">
        <ele>2662.8</ele>
        <time>2021-03-10T08:55:25Z</time>
      </trkpt>
      <trkpt lat="45.12325" lon="6.1074">
        <ele>2662.9</ele>
        <time>2021-03-10T08:55:26Z</time>
      </trkpt>
      <trkpt lat="45.12325" lon="6.10741">
        <ele>2663</ele>
        <time>2021-03-10T08:55:27Z</time>
      </trkpt>
      <trkpt lat="45.12326" lon="6.10741">
        <ele>2663.1</ele>
        <time>2021-03-10T08:55:28Z</time>
      </trkpt>
      <trkpt lat="45.12327" lon="6.10742">
        <ele>2663.2</ele>
        <time>2021-03-10T08:55:29Z</time>
      </trkpt>
      <trkpt lat="45.12327" lon="6.10742">
        <ele>2663.3</ele>
        <time>2021-03-10T08:55:30Z</time>
      </trkpt>
      <trkpt lat="45.12328" lon="6.10742">
        <ele>2663.5</ele>
        <time>2021-03-10T08:55:31Z</time>
      </trkpt>
      <trkpt lat="45.12329" lon="6.10743">
        <ele>2663.7</ele>
        <time>2021-03-10T08:55:32Z</time>
      </trkpt>
      <trkpt lat="45.1233" lon="6.10743">
        <ele>2663.8</ele>
        <time>2021-03-10T08:55:33Z</time>
      </trkpt>
      <trkpt lat="45.12331" lon="6.10744">
        <ele>2664</ele>
        <time>2021-03-10T08:55:34Z</time>
      </trkpt>
      <trkpt lat="45.12332" lon="6.10744">
        <ele>2664.1</ele>
        <time>2021-03-10T08:55:35Z</time>
      </trkpt>
      <trkpt lat="45.12333" lon="6.10744">
        <ele>2664.3</ele>
        <time>2021-03-10T08:55:36Z</time>
      </trkpt>
      <trkpt lat="45.12334" lon="6.10745">
        <ele>2664.5</ele>
        <time>2021-03-10T08:55:37Z</time>
      </trkpt>
      <trkpt lat="45.12335" lon="6.10745">
        <ele>2664.6</ele>
        <time>2021-03-10T08:55:38Z</time>
      </trkpt>
      <trkpt lat="45.12336" lon="6.10746">
        <ele>2664.7</ele>
        <time>2021-03-10T08:55:39Z</time>
      </trkpt>
      <trkpt lat="45.12336" lon="6.10746">
        <ele>2664.8</ele>
        <time>2021-03-10T08:55:40Z</time>
      </trkpt>
      <trkpt lat="45.12337" lon="6.10746">
        <ele>2664.9</ele>
        <time>2021-03-10T08:55:41Z</time>
      </trkpt>
      <trkpt lat="45.12338" lon="6.10747">
        <ele>2665.1</ele>
        <time>2021-03-10T08:55:42Z</time>
      </trkpt>
      <trkpt lat="45.12339" lon="6.10747">
        <ele>2665.2</ele>
        <time>2021-03-10T08:55:43Z</time>
      </trkpt>
      <trkpt lat="45.12339" lon="6.10747">
        <ele>2665.4</ele>
        <time>2021-03-10T08:55:44Z</time>
      </trkpt>
      <trkpt lat="45.1234" lon="6.10747">
        <ele>2665.5</ele>
        <time>2021-03-10T08:55:45Z</time>
      </trkpt>
      <trkpt lat="45.12341" lon="6.10747">
        <ele>2665.6</ele>
        <time>2021-03-10T08:55:46Z</time>
      </trkpt>
      <trkpt lat="45.12342" lon="6.10747">
        <ele>2665.7</ele>
        <time>2021-03-10T08:55:47Z</time>
      </trkpt>
      <trkpt lat="45.12342" lon="6.10746">
        <ele>2665.8</ele>
        <time>2021-03-10T08:55:48Z</time>
      </trkpt>
      <trkpt lat="45.12343" lon="6.10746">
        <ele>2665.9</ele>
        <time>2021-03-10T08:55:49Z</time>
      </trkpt>
      <trkpt lat="45.12344" lon="6.10746">
        <ele>2666.1</ele>
        <time>2021-03-10T08:55:50Z</time>
      </trkpt>
      <trkpt lat="45.12344" lon="6.10746">
        <ele>2666.2</ele>
        <time>2021-03-10T08:55:51Z</time>
      </trkpt>
      <trkpt lat="45.12345" lon="6.10746">
        <ele>2666.4</ele>
        <time>2021-03-10T08:55:52Z</time>
      </trkpt>
      <trkpt lat="45.12346" lon="6.10745">
        <ele>2666.5</ele>
        <time>2021-03-10T08:55:53Z</time>
      </trkpt>
      <trkpt lat="45.12347" lon="6.10746">
        <ele>2666.6</ele>
        <time>2021-03-10T08:55:54Z</time>
      </trkpt>
      <trkpt lat="45.12348" lon="6.10746">
        <ele>2666.8</ele>
        <time>2021-03-10T08:55:55Z</time>
      </trkpt>
      <trkpt lat="45.12349" lon="6.10747">
        <ele>2666.9</ele>
        <time>2021-03-10T08:55:56Z</time>
      </trkpt>
      <trkpt lat="45.1235" lon="6.10748">
        <ele>2667.1</ele>
        <time>2021-03-10T08:55:57Z</time>
      </trkpt>
      <trkpt lat="45.12351" lon="6.10749">
        <ele>2667.3</ele>
        <time>2021-03-10T08:55:58Z</time>
      </trkpt>
      <trkpt lat="45.12351" lon="6.1075">
        <ele>2667.5</ele>
        <time>2021-03-10T08:55:59Z</time>
      </trkpt>
      <trkpt lat="45.12352" lon="6.1075">
        <ele>2667.6</ele>
        <time>2021-03-10T08:56:00Z</time>
      </trkpt>
      <trkpt lat="45.12353" lon="6.10751">
        <ele>2667.7</ele>
        <time>2021-03-10T08:56:01Z</time>
      </trkpt>
      <trkpt lat="45.12353" lon="6.10751">
        <ele>2667.8</ele>
        <time>2021-03-10T08:56:02Z</time>
      </trkpt>
      <trkpt lat="45.12354" lon="6.10752">
        <ele>2668</ele>
        <time>2021-03-10T08:56:03Z</time>
      </trkpt>
      <trkpt lat="45.12355" lon="6.10752">
        <ele>2668.1</ele>
        <time>2021-03-10T08:56:04Z</time>
      </trkpt>
      <trkpt lat="45.12356" lon="6.10753">
        <ele>2668.3</ele>
        <time>2021-03-10T08:56:05Z</time>
      </trkpt>
      <trkpt lat="45.12356" lon="6.10753">
        <ele>2668.4</ele>
        <time>2021-03-10T08:56:06Z</time>
      </trkpt>
      <trkpt lat="45.12357" lon="6.10753">
        <ele>2668.6</ele>
        <time>2021-03-10T08:56:07Z</time>
      </trkpt>
      <trkpt lat="45.12358" lon="6.10754">
        <ele>2668.7</ele>
        <time>2021-03-10T08:56:08Z</time>
      </trkpt>
      <trkpt lat="45.12359" lon="6.10754">
        <ele>2668.9</ele>
        <time>2021-03-10T08:56:09Z</time>
      </trkpt>
      <trkpt lat="45.1236" lon="6.10755">
        <ele>2669.1</ele>
        <time>2021-03-10T08:56:10Z</time>
      </trkpt>
      <trkpt lat="45.1236" lon="6.10755">
        <ele>2669.2</ele>
        <time>2021-03-10T08:56:11Z</time>
      </trkpt>
      <trkpt lat="45.12361" lon="6.10756">
        <ele>2669.4</ele>
        <time>2021-03-10T08:56:12Z</time>
      </trkpt>
      <trkpt lat="45.12362" lon="6.10757">
        <ele>2669.6</ele>
        <time>2021-03-10T08:56:13Z</time>
      </trkpt>
      <trkpt lat="45.12363" lon="6.10757">
        <ele>2669.7</ele>
        <time>2021-03-10T08:56:14Z</time>
      </trkpt>
      <trkpt lat="45.12364" lon="6.10757">
        <ele>2669.8</ele>
        <time>2021-03-10T08:56:15Z</time>
      </trkpt>
      <trkpt lat="45.12364" lon="6.10757">
        <ele>2669.9</ele>
        <time>2021-03-10T08:56:16Z</time>
      </trkpt>
      <trkpt lat="45.12365" lon="6.10756">
        <ele>2670.1</ele>
        <time>2021-03-10T08:56:17Z</time>
      </trkpt>
      <trkpt lat="45.12365" lon="6.10756">
        <ele>2670.2</ele>
        <time>2021-03-10T08:56:18Z</time>
      </trkpt>
      <trkpt lat="45.12366" lon="6.10756">
        <ele>2670.3</ele>
        <time>2021-03-10T08:56:19Z</time>
      </trkpt>
      <trkpt lat="45.12366" lon="6.10756">
        <ele>2670.4</ele>
        <time>2021-03-10T08:56:20Z</time>
      </trkpt>
      <trkpt lat="45.12367" lon="6.10757">
        <ele>2670.5</ele>
        <time>2021-03-10T08:56:21Z</time>
      </trkpt>
      <trkpt lat="45.12367" lon="6.10757">
        <ele>2670.6</ele>
        <time>2021-03-10T08:56:22Z</time>
      </trkpt>
      <trkpt lat="45.12368" lon="6.10757">
        <ele>2670.7</ele>
        <time>2021-03-10T08:56:23Z</time>
      </trkpt>
      <trkpt lat="45.12369" lon="6.10758">
        <ele>2670.9</ele>
        <time>2021-03-10T08:56:24Z</time>
      </trkpt>
      <trkpt lat="45.12369" lon="6.10758">
        <ele>2671</ele>
        <time>2021-03-10T08:56:25Z</time>
      </trkpt>
      <trkpt lat="45.1237" lon="6.10758">
        <ele>2671.1</ele>
        <time>2021-03-10T08:56:26Z</time>
      </trkpt>
      <trkpt lat="45.1237" lon="6.10758">
        <ele>2671.2</ele>
        <time>2021-03-10T08:56:27Z</time>
      </trkpt>
      <trkpt lat="45.12371" lon="6.10758">
        <ele>2671.4</ele>
        <time>2021-03-10T08:56:28Z</time>
      </trkpt>
      <trkpt lat="45.12372" lon="6.10758">
        <ele>2671.6</ele>
        <time>2021-03-10T08:56:29Z</time>
      </trkpt>
      <trkpt lat="45.12373" lon="6.10759">
        <ele>2671.7</ele>
        <time>2021-03-10T08:56:30Z</time>
      </trkpt>
      <trkpt lat="45.12374" lon="6.10759">
        <ele>2671.8</ele>
        <time>2021-03-10T08:56:31Z</time>
      </trkpt>
      <trkpt lat="45.12374" lon="6.10759">
        <ele>2672</ele>
        <time>2021-03-10T08:56:32Z</time>
      </trkpt>
      <trkpt lat="45.12375" lon="6.10759">
        <ele>2672.1</ele>
        <time>2021-03-10T08:56:33Z</time>
      </trkpt>
      <trkpt lat="45.12375" lon="6.10759">
        <ele>2672.2</ele>
        <time>2021-03-10T08:56:34Z</time>
      </trkpt>
      <trkpt lat="45.12376" lon="6.1076">
        <ele>2672.4</ele>
        <time>2021-03-10T08:56:35Z</time>
      </trkpt>
      <trkpt lat="45.12377" lon="6.10761">
        <ele>2672.6</ele>
        <time>2021-03-10T08:56:36Z</time>
      </trkpt>
      <trkpt lat="45.12378" lon="6.10762">
        <ele>2672.7</ele>
        <time>2021-03-10T08:56:37Z</time>
      </trkpt>
      <trkpt lat="45.12378" lon="6.10762">
        <ele>2672.9</ele>
        <time>2021-03-10T08:56:38Z</time>
      </trkpt>
      <trkpt lat="45.12379" lon="6.10763">
        <ele>2673.1</ele>
        <time>2021-03-10T08:56:39Z</time>
      </trkpt>
      <trkpt lat="45.1238" lon="6.10764">
        <ele>2673.3</ele>
        <time>2021-03-10T08:56:40Z</time>
      </trkpt>
      <trkpt lat="45.12381" lon="6.10765">
        <ele>2673.5</ele>
        <time>2021-03-10T08:56:41Z</time>
      </trkpt>
      <trkpt lat="45.12382" lon="6.10765">
        <ele>2673.7</ele>
        <time>2021-03-10T08:56:42Z</time>
      </trkpt>
      <trkpt lat="45.12383" lon="6.10766">
        <ele>2673.9</ele>
        <time>2021-03-10T08:56:43Z</time>
      </trkpt>
      <trkpt lat="45.12383" lon="6.10767">
        <ele>2674</ele>
        <time>2021-03-10T08:56:44Z</time>
      </trkpt>
      <trkpt lat="45.12384" lon="6.10767">
        <ele>2674.2</ele>
        <time>2021-03-10T08:56:45Z</time>
      </trkpt>
      <trkpt lat="45.12385" lon="6.10768">
        <ele>2674.4</ele>
        <time>2021-03-10T08:56:46Z</time>
      </trkpt>
      <trkpt lat="45.12386" lon="6.10768">
        <ele>2674.5</ele>
        <time>2021-03-10T08:56:47Z</time>
      </trkpt>
      <trkpt lat="45.12386" lon="6.10769">
        <ele>2674.6</ele>
        <time>2021-03-10T08:56:48Z</time>
      </trkpt>
      <trkpt lat="45.12387" lon="6.10769">
        <ele>2674.8</ele>
        <time>2021-03-10T08:56:49Z</time>
      </trkpt>
      <trkpt lat="45.12388" lon="6.1077">
        <ele>2675</ele>
        <time>2021-03-10T08:56:50Z</time>
      </trkpt>
      <trkpt lat="45.12389" lon="6.10771">
        <ele>2675.1</ele>
        <time>2021-03-10T08:56:51Z</time>
      </trkpt>
      <trkpt lat="45.12389" lon="6.10771">
        <ele>2675.3</ele>
        <time>2021-03-10T08:56:52Z</time>
      </trkpt>
      <trkpt lat="45.1239" lon="6.10772">
        <ele>2675.4</ele>
        <time>2021-03-10T08:56:53Z</time>
      </trkpt>
      <trkpt lat="45.1239" lon="6.10772">
        <ele>2675.5</ele>
        <time>2021-03-10T08:56:54Z</time>
      </trkpt>
      <trkpt lat="45.12391" lon="6.10772">
        <ele>2675.6</ele>
        <time>2021-03-10T08:56:55Z</time>
      </trkpt>
      <trkpt lat="45.12392" lon="6.10773">
        <ele>2675.8</ele>
        <time>2021-03-10T08:56:56Z</time>
      </trkpt>
      <trkpt lat="45.12392" lon="6.10773">
        <ele>2675.9</ele>
        <time>2021-03-10T08:56:57Z</time>
      </trkpt>
      <trkpt lat="45.12393" lon="6.10773">
        <ele>2676</ele>
        <time>2021-03-10T08:56:58Z</time>
      </trkpt>
      <trkpt lat="45.12394" lon="6.10773">
        <ele>2676.1</ele>
        <time>2021-03-10T08:56:59Z</time>
      </trkpt>
      <trkpt lat="45.12394" lon="6.10774">
        <ele>2676.3</ele>
        <time>2021-03-10T08:57:00Z</time>
      </trkpt>
      <trkpt lat="45.12396" lon="6.10774">
        <ele>2676.6</ele>
        <time>2021-03-10T08:57:01Z</time>
      </trkpt>
      <trkpt lat="45.12397" lon="6.10774">
        <ele>2676.7</ele>
        <time>2021-03-10T08:57:02Z</time>
      </trkpt>
      <trkpt lat="45.12397" lon="6.10775">
        <ele>2676.8</ele>
        <time>2021-03-10T08:57:03Z</time>
      </trkpt>
      <trkpt lat="45.12398" lon="6.10775">
        <ele>2676.9</ele>
        <time>2021-03-10T08:57:04Z</time>
      </trkpt>
      <trkpt lat="45.12399" lon="6.10776">
        <ele>2677.1</ele>
        <time>2021-03-10T08:57:05Z</time>
      </trkpt>
      <trkpt lat="45.124" lon="6.10776">
        <ele>2677.3</ele>
        <time>2021-03-10T08:57:06Z</time>
      </trkpt>
      <trkpt lat="45.124" lon="6.10776">
        <ele>2677.4</ele>
        <time>2021-03-10T08:57:07Z</time>
      </trkpt>
      <trkpt lat="45.12401" lon="6.10777">
        <ele>2677.6</ele>
        <time>2021-03-10T08:57:08Z</time>
      </trkpt>
      <trkpt lat="45.12402" lon="6.10777">
        <ele>2677.7</ele>
        <time>2021-03-10T08:57:09Z</time>
      </trkpt>
      <trkpt lat="45.12403" lon="6.10777">
        <ele>2677.8</ele>
        <time>2021-03-10T08:57:10Z</time>
      </trkpt>
      <trkpt lat="45.12403" lon="6.10777">
        <ele>2677.9</ele>
        <time>2021-03-10T08:57:11Z</time>
      </trkpt>
      <trkpt lat="45.12404" lon="6.10777">
        <ele>2678.1</ele>
        <time>2021-03-10T08:57:12Z</time>
      </trkpt>
      <trkpt lat="45.12405" lon="6.10777">
        <ele>2678.2</ele>
        <time>2021-03-10T08:57:13Z</time>
      </trkpt>
      <trkpt lat="45.12406" lon="6.10778">
        <ele>2678.4</ele>
        <time>2021-03-10T08:57:14Z</time>
      </trkpt>
      <trkpt lat="45.12407" lon="6.10778">
        <ele>2678.6</ele>
        <time>2021-03-10T08:57:15Z</time>
      </trkpt>
      <trkpt lat="45.12408" lon="6.10778">
        <ele>2678.7</ele>
        <time>2021-03-10T08:57:16Z</time>
      </trkpt>
      <trkpt lat="45.12408" lon="6.10779">
        <ele>2678.8</ele>
        <time>2021-03-10T08:57:17Z</time>
      </trkpt>
      <trkpt lat="45.12409" lon="6.10779">
        <ele>2678.9</ele>
        <time>2021-03-10T08:57:18Z</time>
      </trkpt>
      <trkpt lat="45.1241" lon="6.10779">
        <ele>2679.1</ele>
        <time>2021-03-10T08:57:19Z</time>
      </trkpt>
      <trkpt lat="45.12411" lon="6.10779">
        <ele>2679.2</ele>
        <time>2021-03-10T08:57:20Z</time>
      </trkpt>
      <trkpt lat="45.12411" lon="6.1078">
        <ele>2679.4</ele>
        <time>2021-03-10T08:57:21Z</time>
      </trkpt>
      <trkpt lat="45.12412" lon="6.1078">
        <ele>2679.5</ele>
        <time>2021-03-10T08:57:22Z</time>
      </trkpt>
      <trkpt lat="45.12413" lon="6.10781">
        <ele>2679.7</ele>
        <time>2021-03-10T08:57:23Z</time>
      </trkpt>
      <trkpt lat="45.12413" lon="6.10781">
        <ele>2679.8</ele>
        <time>2021-03-10T08:57:24Z</time>
      </trkpt>
      <trkpt lat="45.12414" lon="6.10782">
        <ele>2679.9</ele>
        <time>2021-03-10T08:57:25Z</time>
      </trkpt>
      <trkpt lat="45.12414" lon="6.10782">
        <ele>2680</ele>
        <time>2021-03-10T08:57:26Z</time>
      </trkpt>
      <trkpt lat="45.12415" lon="6.10783">
        <ele>2680.1</ele>
        <time>2021-03-10T08:57:27Z</time>
      </trkpt>
      <trkpt lat="45.12416" lon="6.10783">
        <ele>2680.3</ele>
        <time>2021-03-10T08:57:28Z</time>
      </trkpt>
      <trkpt lat="45.12417" lon="6.10784">
        <ele>2680.4</ele>
        <time>2021-03-10T08:57:29Z</time>
      </trkpt>
      <trkpt lat="45.12417" lon="6.10784">
        <ele>2680.6</ele>
        <time>2021-03-10T08:57:30Z</time>
      </trkpt>
      <trkpt lat="45.12418" lon="6.10785">
        <ele>2680.7</ele>
        <time>2021-03-10T08:57:31Z</time>
      </trkpt>
      <trkpt lat="45.12418" lon="6.10785">
        <ele>2680.8</ele>
        <time>2021-03-10T08:57:32Z</time>
      </trkpt>
      <trkpt lat="45.12419" lon="6.10786">
        <ele>2680.9</ele>
        <time>2021-03-10T08:57:33Z</time>
      </trkpt>
      <trkpt lat="45.12419" lon="6.10786">
        <ele>2681</ele>
        <time>2021-03-10T08:57:34Z</time>
      </trkpt>
      <trkpt lat="45.1242" lon="6.10786">
        <ele>2681.1</ele>
        <time>2021-03-10T08:57:35Z</time>
      </trkpt>
      <trkpt lat="45.12421" lon="6.10786">
        <ele>2681.2</ele>
        <time>2021-03-10T08:57:36Z</time>
      </trkpt>
      <trkpt lat="45.12421" lon="6.10787">
        <ele>2681.4</ele>
        <time>2021-03-10T08:57:37Z</time>
      </trkpt>
      <trkpt lat="45.12422" lon="6.10788">
        <ele>2681.5</ele>
        <time>2021-03-10T08:57:38Z</time>
      </trkpt>
      <trkpt lat="45.12422" lon="6.10788">
        <ele>2681.6</ele>
        <time>2021-03-10T08:57:39Z</time>
      </trkpt>
      <trkpt lat="45.12423" lon="6.10788">
        <ele>2681.7</ele>
        <time>2021-03-10T08:57:40Z</time>
      </trkpt>
      <trkpt lat="45.12424" lon="6.10789">
        <ele>2681.9</ele>
        <time>2021-03-10T08:57:41Z</time>
      </trkpt>
      <trkpt lat="45.12425" lon="6.10789">
        <ele>2682</ele>
        <time>2021-03-10T08:57:42Z</time>
      </trkpt>
      <trkpt lat="45.12425" lon="6.10789">
        <ele>2682.2</ele>
        <time>2021-03-10T08:57:43Z</time>
      </trkpt>
      <trkpt lat="45.12426" lon="6.10789">
        <ele>2682.3</ele>
        <time>2021-03-10T08:57:44Z</time>
      </trkpt>
      <trkpt lat="45.12427" lon="6.1079">
        <ele>2682.4</ele>
        <time>2021-03-10T08:57:45Z</time>
      </trkpt>
      <trkpt lat="45.12428" lon="6.1079">
        <ele>2682.6</ele>
        <time>2021-03-10T08:57:46Z</time>
      </trkpt>
      <trkpt lat="45.12428" lon="6.10791">
        <ele>2682.7</ele>
        <time>2021-03-10T08:57:47Z</time>
      </trkpt>
      <trkpt lat="45.12429" lon="6.10791">
        <ele>2682.8</ele>
        <time>2021-03-10T08:57:48Z</time>
      </trkpt>
      <trkpt lat="45.12429" lon="6.10792">
        <ele>2682.9</ele>
        <time>2021-03-10T08:57:49Z</time>
      </trkpt>
      <trkpt lat="45.1243" lon="6.10792">
        <ele>2683.1</ele>
        <time>2021-03-10T08:57:50Z</time>
      </trkpt>
      <trkpt lat="45.12431" lon="6.10793">
        <ele>2683.3</ele>
        <time>2021-03-10T08:57:51Z</time>
      </trkpt>
      <trkpt lat="45.12432" lon="6.10793">
        <ele>2683.5</ele>
        <time>2021-03-10T08:57:52Z</time>
      </trkpt>
      <trkpt lat="45.12433" lon="6.10794">
        <ele>2683.6</ele>
        <time>2021-03-10T08:57:53Z</time>
      </trkpt>
      <trkpt lat="45.12434" lon="6.10794">
        <ele>2683.8</ele>
        <time>2021-03-10T08:57:54Z</time>
      </trkpt>
      <trkpt lat="45.12434" lon="6.10794">
        <ele>2683.9</ele>
        <time>2021-03-10T08:57:55Z</time>
      </trkpt>
      <trkpt lat="45.12435" lon="6.10794">
        <ele>2684.1</ele>
        <time>2021-03-10T08:57:56Z</time>
      </trkpt>
      <trkpt lat="45.12436" lon="6.10794">
        <ele>2684.2</ele>
        <time>2021-03-10T08:57:57Z</time>
      </trkpt>
      <trkpt lat="45.12437" lon="6.10794">
        <ele>2684.3</ele>
        <time>2021-03-10T08:57:58Z</time>
      </trkpt>
      <trkpt lat="45.12437" lon="6.10794">
        <ele>2684.5</ele>
        <time>2021-03-10T08:57:59Z</time>
      </trkpt>
      <trkpt lat="45.12438" lon="6.10794">
        <ele>2684.6</ele>
        <time>2021-03-10T08:58:00Z</time>
      </trkpt>
      <trkpt lat="45.12439" lon="6.10794">
        <ele>2684.7</ele>
        <time>2021-03-10T08:58:01Z</time>
      </trkpt>
      <trkpt lat="45.12439" lon="6.10795">
        <ele>2684.8</ele>
        <time>2021-03-10T08:58:02Z</time>
      </trkpt>
      <trkpt lat="45.1244" lon="6.10795">
        <ele>2684.9</ele>
        <time>2021-03-10T08:58:03Z</time>
      </trkpt>
      <trkpt lat="45.1244" lon="6.10795">
        <ele>2685</ele>
        <time>2021-03-10T08:58:04Z</time>
      </trkpt>
      <trkpt lat="45.12441" lon="6.10796">
        <ele>2685.1</ele>
        <time>2021-03-10T08:58:05Z</time>
      </trkpt>
      <trkpt lat="45.12441" lon="6.10796">
        <ele>2685.2</ele>
        <time>2021-03-10T08:58:06Z</time>
      </trkpt>
      <trkpt lat="45.12442" lon="6.10796">
        <ele>2685.4</ele>
        <time>2021-03-10T08:58:07Z</time>
      </trkpt>
      <trkpt lat="45.12443" lon="6.10796">
        <ele>2685.5</ele>
        <time>2021-03-10T08:58:08Z</time>
      </trkpt>
      <trkpt lat="45.12444" lon="6.10797">
        <ele>2685.7</ele>
        <time>2021-03-10T08:58:09Z</time>
      </trkpt>
      <trkpt lat="45.12445" lon="6.10797">
        <ele>2685.9</ele>
        <time>2021-03-10T08:58:10Z</time>
      </trkpt>
      <trkpt lat="45.12446" lon="6.10797">
        <ele>2686</ele>
        <time>2021-03-10T08:58:11Z</time>
      </trkpt>
      <trkpt lat="45.12447" lon="6.10797">
        <ele>2686.1</ele>
        <time>2021-03-10T08:58:12Z</time>
      </trkpt>
      <trkpt lat="45.12447" lon="6.10797">
        <ele>2686.3</ele>
        <time>2021-03-10T08:58:13Z</time>
      </trkpt>
      <trkpt lat="45.12448" lon="6.10797">
        <ele>2686.4</ele>
        <time>2021-03-10T08:58:14Z</time>
      </trkpt>
      <trkpt lat="45.12449" lon="6.10798">
        <ele>2686.5</ele>
        <time>2021-03-10T08:58:15Z</time>
      </trkpt>
      <trkpt lat="45.12449" lon="6.10798">
        <ele>2686.5</ele>
        <time>2021-03-10T08:58:16Z</time>
      </trkpt>
      <trkpt lat="45.12449" lon="6.10798">
        <ele>2686.6</ele>
        <time>2021-03-10T08:58:17Z</time>
      </trkpt>
      <trkpt lat="45.1245" lon="6.10798">
        <ele>2686.7</ele>
        <time>2021-03-10T08:58:18Z</time>
      </trkpt>
      <trkpt lat="45.1245" lon="6.10798">
        <ele>2686.8</ele>
        <time>2021-03-10T08:58:19Z</time>
      </trkpt>
      <trkpt lat="45.12451" lon="6.10798">
        <ele>2686.9</ele>
        <time>2021-03-10T08:58:20Z</time>
      </trkpt>
      <trkpt lat="45.12451" lon="6.10798">
        <ele>2687</ele>
        <time>2021-03-10T08:58:21Z</time>
      </trkpt>
      <trkpt lat="45.12452" lon="6.10798">
        <ele>2687.1</ele>
        <time>2021-03-10T08:58:22Z</time>
      </trkpt>
      <trkpt lat="45.12453" lon="6.10797">
        <ele>2687.2</ele>
        <time>2021-03-10T08:58:23Z</time>
      </trkpt>
      <trkpt lat="45.12454" lon="6.10797">
        <ele>2687.4</ele>
        <time>2021-03-10T08:58:24Z</time>
      </trkpt>
      <trkpt lat="45.12454" lon="6.10797">
        <ele>2687.5</ele>
        <time>2021-03-10T08:58:25Z</time>
      </trkpt>
      <trkpt lat="45.12455" lon="6.10796">
        <ele>2687.6</ele>
        <time>2021-03-10T08:58:26Z</time>
      </trkpt>
      <trkpt lat="45.12456" lon="6.10796">
        <ele>2687.8</ele>
        <time>2021-03-10T08:58:27Z</time>
      </trkpt>
      <trkpt lat="45.12457" lon="6.10796">
        <ele>2687.9</ele>
        <time>2021-03-10T08:58:28Z</time>
      </trkpt>
      <trkpt lat="45.12458" lon="6.10796">
        <ele>2688.1</ele>
        <time>2021-03-10T08:58:29Z</time>
      </trkpt>
      <trkpt lat="45.12458" lon="6.10796">
        <ele>2688.1</ele>
        <time>2021-03-10T08:58:30Z</time>
      </trkpt>
      <trkpt lat="45.12459" lon="6.10797">
        <ele>2688.2</ele>
        <time>2021-03-10T08:58:31Z</time>
      </trkpt>
      <trkpt lat="45.1246" lon="6.10797">
        <ele>2688.4</ele>
        <time>2021-03-10T08:58:32Z</time>
      </trkpt>
      <trkpt lat="45.12461" lon="6.10798">
        <ele>2688.6</ele>
        <time>2021-03-10T08:58:33Z</time>
      </trkpt>
      <trkpt lat="45.12461" lon="6.10798">
        <ele>2688.7</ele>
        <time>2021-03-10T08:58:34Z</time>
      </trkpt>
      <trkpt lat="45.12462" lon="6.10798">
        <ele>2688.9</ele>
        <time>2021-03-10T08:58:35Z</time>
      </trkpt>
      <trkpt lat="45.12463" lon="6.10798">
        <ele>2689</ele>
        <time>2021-03-10T08:58:36Z</time>
      </trkpt>
      <trkpt lat="45.12464" lon="6.10798">
        <ele>2689.2</ele>
        <time>2021-03-10T08:58:37Z</time>
      </trkpt>
      <trkpt lat="45.12466" lon="6.10798">
        <ele>2689.4</ele>
        <time>2021-03-10T08:58:38Z</time>
      </trkpt>
      <trkpt lat="45.12467" lon="6.10798">
        <ele>2689.6</ele>
        <time>2021-03-10T08:58:39Z</time>
      </trkpt>
      <trkpt lat="45.12468" lon="6.10798">
        <ele>2689.8</ele>
        <time>2021-03-10T08:58:40Z</time>
      </trkpt>
      <trkpt lat="45.12468" lon="6.10798">
        <ele>2689.9</ele>
        <time>2021-03-10T08:58:41Z</time>
      </trkpt>
      <trkpt lat="45.12469" lon="6.10798">
        <ele>2690</ele>
        <time>2021-03-10T08:58:42Z</time>
      </trkpt>
      <trkpt lat="45.1247" lon="6.10798">
        <ele>2690.2</ele>
        <time>2021-03-10T08:58:43Z</time>
      </trkpt>
      <trkpt lat="45.12471" lon="6.10798">
        <ele>2690.3</ele>
        <time>2021-03-10T08:58:44Z</time>
      </trkpt>
      <trkpt lat="45.12472" lon="6.10798">
        <ele>2690.4</ele>
        <time>2021-03-10T08:58:45Z</time>
      </trkpt>
      <trkpt lat="45.12473" lon="6.10798">
        <ele>2690.6</ele>
        <time>2021-03-10T08:58:46Z</time>
      </trkpt>
      <trkpt lat="45.12473" lon="6.10798">
        <ele>2690.8</ele>
        <time>2021-03-10T08:58:47Z</time>
      </trkpt>
      <trkpt lat="45.12474" lon="6.10798">
        <ele>2690.9</ele>
        <time>2021-03-10T08:58:48Z</time>
      </trkpt>
      <trkpt lat="45.12475" lon="6.10798">
        <ele>2691.1</ele>
        <time>2021-03-10T08:58:49Z</time>
      </trkpt>
      <trkpt lat="45.12476" lon="6.10798">
        <ele>2691.2</ele>
        <time>2021-03-10T08:58:50Z</time>
      </trkpt>
      <trkpt lat="45.12477" lon="6.10798">
        <ele>2691.4</ele>
        <time>2021-03-10T08:58:51Z</time>
      </trkpt>
      <trkpt lat="45.12478" lon="6.10798">
        <ele>2691.5</ele>
        <time>2021-03-10T08:58:52Z</time>
      </trkpt>
      <trkpt lat="45.12478" lon="6.10798">
        <ele>2691.6</ele>
        <time>2021-03-10T08:58:53Z</time>
      </trkpt>
      <trkpt lat="45.12479" lon="6.10798">
        <ele>2691.7</ele>
        <time>2021-03-10T08:58:54Z</time>
      </trkpt>
      <trkpt lat="45.1248" lon="6.10798">
        <ele>2691.8</ele>
        <time>2021-03-10T08:58:55Z</time>
      </trkpt>
      <trkpt lat="45.1248" lon="6.10798">
        <ele>2692</ele>
        <time>2021-03-10T08:58:56Z</time>
      </trkpt>
      <trkpt lat="45.12481" lon="6.10798">
        <ele>2692</ele>
        <time>2021-03-10T08:58:57Z</time>
      </trkpt>
      <trkpt lat="45.12482" lon="6.10798">
        <ele>2692.2</ele>
        <time>2021-03-10T08:58:58Z</time>
      </trkpt>
      <trkpt lat="45.12482" lon="6.10798">
        <ele>2692.3</ele>
        <time>2021-03-10T08:58:59Z</time>
      </trkpt>
      <trkpt lat="45.12483" lon="6.10798">
        <ele>2692.5</ele>
        <time>2021-03-10T08:59:00Z</time>
      </trkpt>
      <trkpt lat="45.12484" lon="6.10798">
        <ele>2692.6</ele>
        <time>2021-03-10T08:59:01Z</time>
      </trkpt>
      <trkpt lat="45.12485" lon="6.10798">
        <ele>2692.8</ele>
        <time>2021-03-10T08:59:02Z</time>
      </trkpt>
      <trkpt lat="45.12486" lon="6.10799">
        <ele>2692.9</ele>
        <time>2021-03-10T08:59:03Z</time>
      </trkpt>
      <trkpt lat="45.12486" lon="6.10799">
        <ele>2693.1</ele>
        <time>2021-03-10T08:59:04Z</time>
      </trkpt>
      <trkpt lat="45.12487" lon="6.108">
        <ele>2693.3</ele>
        <time>2021-03-10T08:59:05Z</time>
      </trkpt>
      <trkpt lat="45.12488" lon="6.108">
        <ele>2693.4</ele>
        <time>2021-03-10T08:59:06Z</time>
      </trkpt>
      <trkpt lat="45.12489" lon="6.108">
        <ele>2693.6</ele>
        <time>2021-03-10T08:59:07Z</time>
      </trkpt>
      <trkpt lat="45.1249" lon="6.10799">
        <ele>2693.7</ele>
        <time>2021-03-10T08:59:08Z</time>
      </trkpt>
      <trkpt lat="45.12491" lon="6.10799">
        <ele>2693.9</ele>
        <time>2021-03-10T08:59:09Z</time>
      </trkpt>
      <trkpt lat="45.12492" lon="6.10799">
        <ele>2694.1</ele>
        <time>2021-03-10T08:59:10Z</time>
      </trkpt>
      <trkpt lat="45.12492" lon="6.10799">
        <ele>2694.2</ele>
        <time>2021-03-10T08:59:11Z</time>
      </trkpt>
      <trkpt lat="45.12493" lon="6.108">
        <ele>2694.4</ele>
        <time>2021-03-10T08:59:12Z</time>
      </trkpt>
      <trkpt lat="45.12494" lon="6.108">
        <ele>2694.6</ele>
        <time>2021-03-10T08:59:13Z</time>
      </trkpt>
      <trkpt lat="45.12495" lon="6.108">
        <ele>2694.7</ele>
        <time>2021-03-10T08:59:14Z</time>
      </trkpt>
      <trkpt lat="45.12496" lon="6.108">
        <ele>2694.9</ele>
        <time>2021-03-10T08:59:15Z</time>
      </trkpt>
      <trkpt lat="45.12497" lon="6.108">
        <ele>2695</ele>
        <time>2021-03-10T08:59:16Z</time>
      </trkpt>
      <trkpt lat="45.12497" lon="6.108">
        <ele>2695.1</ele>
        <time>2021-03-10T08:59:17Z</time>
      </trkpt>
      <trkpt lat="45.12498" lon="6.108">
        <ele>2695.3</ele>
        <time>2021-03-10T08:59:18Z</time>
      </trkpt>
      <trkpt lat="45.12499" lon="6.108">
        <ele>2695.5</ele>
        <time>2021-03-10T08:59:19Z</time>
      </trkpt>
      <trkpt lat="45.125" lon="6.108">
        <ele>2695.6</ele>
        <time>2021-03-10T08:59:20Z</time>
      </trkpt>
      <trkpt lat="45.12501" lon="6.108">
        <ele>2695.8</ele>
        <time>2021-03-10T08:59:21Z</time>
      </trkpt>
      <trkpt lat="45.12501" lon="6.108">
        <ele>2695.9</ele>
        <time>2021-03-10T08:59:22Z</time>
      </trkpt>
      <trkpt lat="45.12502" lon="6.108">
        <ele>2696.1</ele>
        <time>2021-03-10T08:59:23Z</time>
      </trkpt>
      <trkpt lat="45.12503" lon="6.10801">
        <ele>2696.2</ele>
        <time>2021-03-10T08:59:24Z</time>
      </trkpt>
      <trkpt lat="45.12503" lon="6.10801">
        <ele>2696.3</ele>
        <time>2021-03-10T08:59:25Z</time>
      </trkpt>
      <trkpt lat="45.12504" lon="6.10802">
        <ele>2696.5</ele>
        <time>2021-03-10T08:59:26Z</time>
      </trkpt>
      <trkpt lat="45.12505" lon="6.10802">
        <ele>2696.7</ele>
        <time>2021-03-10T08:59:27Z</time>
      </trkpt>
      <trkpt lat="45.12506" lon="6.10802">
        <ele>2696.9</ele>
        <time>2021-03-10T08:59:28Z</time>
      </trkpt>
      <trkpt lat="45.12507" lon="6.10802">
        <ele>2697.1</ele>
        <time>2021-03-10T08:59:29Z</time>
      </trkpt>
      <trkpt lat="45.12508" lon="6.10803">
        <ele>2697.3</ele>
        <time>2021-03-10T08:59:30Z</time>
      </trkpt>
      <trkpt lat="45.1251" lon="6.10803">
        <ele>2697.5</ele>
        <time>2021-03-10T08:59:31Z</time>
      </trkpt>
      <trkpt lat="45.12511" lon="6.10803">
        <ele>2697.7</ele>
        <time>2021-03-10T08:59:32Z</time>
      </trkpt>
      <trkpt lat="45.12512" lon="6.10803">
        <ele>2697.9</ele>
        <time>2021-03-10T08:59:33Z</time>
      </trkpt>
      <trkpt lat="45.12513" lon="6.10803">
        <ele>2698.2</ele>
        <time>2021-03-10T08:59:34Z</time>
      </trkpt>
      <trkpt lat="45.12514" lon="6.10804">
        <ele>2698.3</ele>
        <time>2021-03-10T08:59:35Z</time>
      </trkpt>
      <trkpt lat="45.12515" lon="6.10803">
        <ele>2698.5</ele>
        <time>2021-03-10T08:59:36Z</time>
      </trkpt>
      <trkpt lat="45.12515" lon="6.10804">
        <ele>2698.7</ele>
        <time>2021-03-10T08:59:37Z</time>
      </trkpt>
      <trkpt lat="45.12516" lon="6.10804">
        <ele>2698.9</ele>
        <time>2021-03-10T08:59:38Z</time>
      </trkpt>
      <trkpt lat="45.12517" lon="6.10804">
        <ele>2699</ele>
        <time>2021-03-10T08:59:39Z</time>
      </trkpt>
      <trkpt lat="45.12518" lon="6.10804">
        <ele>2699.2</ele>
        <time>2021-03-10T08:59:40Z</time>
      </trkpt>
      <trkpt lat="45.12519" lon="6.10805">
        <ele>2699.4</ele>
        <time>2021-03-10T08:59:41Z</time>
      </trkpt>
      <trkpt lat="45.12519" lon="6.10805">
        <ele>2699.5</ele>
        <time>2021-03-10T08:59:42Z</time>
      </trkpt>
      <trkpt lat="45.1252" lon="6.10805">
        <ele>2699.6</ele>
        <time>2021-03-10T08:59:43Z</time>
      </trkpt>
      <trkpt lat="45.12521" lon="6.10806">
        <ele>2699.8</ele>
        <time>2021-03-10T08:59:44Z</time>
      </trkpt>
      <trkpt lat="45.12522" lon="6.10806">
        <ele>2700</ele>
        <time>2021-03-10T08:59:45Z</time>
      </trkpt>
      <trkpt lat="45.12523" lon="6.10806">
        <ele>2700.2</ele>
        <time>2021-03-10T08:59:46Z</time>
      </trkpt>
      <trkpt lat="45.12524" lon="6.10806">
        <ele>2700.4</ele>
        <time>2021-03-10T08:59:47Z</time>
      </trkpt>
      <trkpt lat="45.12525" lon="6.10806">
        <ele>2700.6</ele>
        <time>2021-03-10T08:59:48Z</time>
      </trkpt>
      <trkpt lat="45.12526" lon="6.10807">
        <ele>2700.7</ele>
        <time>2021-03-10T08:59:49Z</time>
      </trkpt>
      <trkpt lat="45.12527" lon="6.10807">
        <ele>2700.9</ele>
        <time>2021-03-10T08:59:50Z</time>
      </trkpt>
      <trkpt lat="45.12528" lon="6.10808">
        <ele>2701.1</ele>
        <time>2021-03-10T08:59:51Z</time>
      </trkpt>
      <trkpt lat="45.12528" lon="6.10808">
        <ele>2701.2</ele>
        <time>2021-03-10T08:59:52Z</time>
      </trkpt>
      <trkpt lat="45.12529" lon="6.10808">
        <ele>2701.4</ele>
        <time>2021-03-10T08:59:53Z</time>
      </trkpt>
      <trkpt lat="45.1253" lon="6.10808">
        <ele>2701.5</ele>
        <time>2021-03-10T08:59:54Z</time>
      </trkpt>
      <trkpt lat="45.12531" lon="6.10808">
        <ele>2701.7</ele>
        <time>2021-03-10T08:59:55Z</time>
      </trkpt>
      <trkpt lat="45.12532" lon="6.10809">
        <ele>2701.9</ele>
        <time>2021-03-10T08:59:56Z</time>
      </trkpt>
      <trkpt lat="45.12532" lon="6.10809">
        <ele>2702</ele>
        <time>2021-03-10T08:59:57Z</time>
      </trkpt>
      <trkpt lat="45.12533" lon="6.10809">
        <ele>2702.2</ele>
        <time>2021-03-10T08:59:58Z</time>
      </trkpt>
      <trkpt lat="45.12534" lon="6.1081">
        <ele>2702.3</ele>
        <time>2021-03-10T08:59:59Z</time>
      </trkpt>
      <trkpt lat="45.12534" lon="6.1081">
        <ele>2702.4</ele>
        <time>2021-03-10T09:00:00Z</time>
      </trkpt>
      <trkpt lat="45.12535" lon="6.10811">
        <ele>2702.5</ele>
        <time>2021-03-10T09:00:01Z</time>
      </trkpt>
      <trkpt lat="45.12536" lon="6.10811">
        <ele>2702.7</ele>
        <time>2021-03-10T09:00:02Z</time>
      </trkpt>
      <trkpt lat="45.12537" lon="6.10811">
        <ele>2703.1</ele>
        <time>2021-03-10T09:00:03Z</time>
      </trkpt>
      <trkpt lat="45.12537" lon="6.10812">
        <ele>2703.1</ele>
        <time>2021-03-10T09:00:04Z</time>
      </trkpt>
      <trkpt lat="45.12538" lon="6.10812">
        <ele>2703.1</ele>
        <time>2021-03-10T09:00:05Z</time>
      </trkpt>
      <trkpt lat="45.12539" lon="6.10813">
        <ele>2703.1</ele>
        <time>2021-03-10T09:00:06Z</time>
      </trkpt>
      <trkpt lat="45.1254" lon="6.10814">
        <ele>2703.1</ele>
        <time>2021-03-10T09:00:07Z</time>
      </trkpt>
      <trkpt lat="45.1254" lon="6.10814">
        <ele>2703.1</ele>
        <time>2021-03-10T09:00:08Z</time>
      </trkpt>
      <trkpt lat="45.12541" lon="6.10815">
        <ele>2703.1</ele>
        <time>2021-03-10T09:00:09Z</time>
      </trkpt>
      <trkpt lat="45.12542" lon="6.10816">
        <ele>2703.1</ele>
        <time>2021-03-10T09:00:10Z</time>
      </trkpt>
      <trkpt lat="45.12543" lon="6.10817">
        <ele>2703.1</ele>
        <time>2021-03-10T09:00:11Z</time>
      </trkpt>
      <trkpt lat="45.12543" lon="6.10818">
        <ele>2703.1</ele>
        <time>2021-03-10T09:00:12Z</time>
      </trkpt>
      <trkpt lat="45.12544" lon="6.10819">
        <ele>2703.1</ele>
        <time>2021-03-10T09:00:13Z</time>
      </trkpt>
      <trkpt lat="45.12545" lon="6.1082">
        <ele>2703</ele>
        <time>2021-03-10T09:00:14Z</time>
      </trkpt>
      <trkpt lat="45.12545" lon="6.10821">
        <ele>2703</ele>
        <time>2021-03-10T09:00:15Z</time>
      </trkpt>
      <trkpt lat="45.12546" lon="6.10822">
        <ele>2703</ele>
        <time>2021-03-10T09:00:16Z</time>
      </trkpt>
      <trkpt lat="45.12547" lon="6.10822">
        <ele>2703</ele>
        <time>2021-03-10T09:00:17Z</time>
      </trkpt>
      <trkpt lat="45.12547" lon="6.10823">
        <ele>2703</ele>
        <time>2021-03-10T09:00:18Z</time>
      </trkpt>
      <trkpt lat="45.12548" lon="6.10824">
        <ele>2703</ele>
        <time>2021-03-10T09:00:19Z</time>
      </trkpt>
      <trkpt lat="45.12548" lon="6.10826">
        <ele>2703</ele>
        <time>2021-03-10T09:00:20Z</time>
      </trkpt>
      <trkpt lat="45.12549" lon="6.10827">
        <ele>2703</ele>
        <time>2021-03-10T09:00:21Z</time>
      </trkpt>
      <trkpt lat="45.12549" lon="6.10827">
        <ele>2703</ele>
        <time>2021-03-10T09:00:22Z</time>
      </trkpt>
      <trkpt lat="45.1255" lon="6.10828">
        <ele>2703</ele>
        <time>2021-03-10T09:00:23Z</time>
      </trkpt>
      <trkpt lat="45.12551" lon="6.10829">
        <ele>2703</ele>
        <time>2021-03-10T09:00:24Z</time>
      </trkpt>
      <trkpt lat="45.12551" lon="6.1083">
        <ele>2703</ele>
        <time>2021-03-10T09:00:25Z</time>
      </trkpt>
      <trkpt lat="45.12552" lon="6.10831">
        <ele>2703</ele>
        <time>2021-03-10T09:00:26Z</time>
      </trkpt>
      <trkpt lat="45.12553" lon="6.10832">
        <ele>2703</ele>
        <time>2021-03-10T09:00:27Z</time>
      </trkpt>
      <trkpt lat="45.12554" lon="6.10832">
        <ele>2703</ele>
        <time>2021-03-10T09:00:28Z</time>
      </trkpt>
      <trkpt lat="45.12554" lon="6.10833">
        <ele>2703</ele>
        <time>2021-03-10T09:00:29Z</time>
      </trkpt>
      <trkpt lat="45.12555" lon="6.10834">
        <ele>2703</ele>
        <time>2021-03-10T09:00:30Z</time>
      </trkpt>
      <trkpt lat="45.12555" lon="6.10835">
        <ele>2703</ele>
        <time>2021-03-10T09:00:31Z</time>
      </trkpt>
      <trkpt lat="45.12556" lon="6.10836">
        <ele>2703</ele>
        <time>2021-03-10T09:00:32Z</time>
      </trkpt>
      <trkpt lat="45.12556" lon="6.10836">
        <ele>2703</ele>
        <time>2021-03-10T09:00:33Z</time>
      </trkpt>
      <trkpt lat="45.12557" lon="6.10836">
        <ele>2703</ele>
        <time>2021-03-10T09:00:34Z</time>
      </trkpt>
      <trkpt lat="45.12557" lon="6.10837">
        <ele>2703</ele>
        <time>2021-03-10T09:00:35Z</time>
      </trkpt>
      <trkpt lat="45.12558" lon="6.10837">
        <ele>2703</ele>
        <time>2021-03-10T09:00:36Z</time>
      </trkpt>
      <trkpt lat="45.12559" lon="6.10838">
        <ele>2703</ele>
        <time>2021-03-10T09:00:37Z</time>
      </trkpt>
      <trkpt lat="45.1256" lon="6.10838">
        <ele>2703.1</ele>
        <time>2021-03-10T09:00:38Z</time>
      </trkpt>
      <trkpt lat="45.12561" lon="6.10839">
        <ele>2703.1</ele>
        <time>2021-03-10T09:00:39Z</time>
      </trkpt>
      <trkpt lat="45.12561" lon="6.1084">
        <ele>2703.1</ele>
        <time>2021-03-10T09:00:40Z</time>
      </trkpt>
      <trkpt lat="45.12562" lon="6.1084">
        <ele>2703.1</ele>
        <time>2021-03-10T09:00:41Z</time>
      </trkpt>
      <trkpt lat="45.12562" lon="6.10841">
        <ele>2703.2</ele>
        <time>2021-03-10T09:00:42Z</time>
      </trkpt>
      <trkpt lat="45.12563" lon="6.10842">
        <ele>2703.2</ele>
        <time>2021-03-10T09:00:43Z</time>
      </trkpt>
      <trkpt lat="45.12564" lon="6.10842">
        <ele>2703.2</ele>
        <time>2021-03-10T09:00:44Z</time>
      </trkpt>
      <trkpt lat="45.12564" lon="6.10843">
        <ele>2703.3</ele>
        <time>2021-03-10T09:00:45Z</time>
      </trkpt>
      <trkpt lat="45.12565" lon="6.10843">
        <ele>2703.3</ele>
        <time>2021-03-10T09:00:46Z</time>
      </trkpt>
      <trkpt lat="45.12566" lon="6.10844">
        <ele>2703.3</ele>
        <time>2021-03-10T09:00:47Z</time>
      </trkpt>
      <trkpt lat="45.12566" lon="6.10844">
        <ele>2703.4</ele>
        <time>2021-03-10T09:00:48Z</time>
      </trkpt>
      <trkpt lat="45.12567" lon="6.10845">
        <ele>2703.4</ele>
        <time>2021-03-10T09:00:49Z</time>
      </trkpt>
      <trkpt lat="45.12567" lon="6.10846">
        <ele>2703.5</ele>
        <time>2021-03-10T09:00:50Z</time>
      </trkpt>
      <trkpt lat="45.12568" lon="6.10847">
        <ele>2703.5</ele>
        <time>2021-03-10T09:00:51Z</time>
      </trkpt>
      <trkpt lat="45.12569" lon="6.10848">
        <ele>2703.6</ele>
        <time>2021-03-10T09:00:52Z</time>
      </trkpt>
      <trkpt lat="45.12569" lon="6.10849">
        <ele>2703.6</ele>
        <time>2021-03-10T09:00:53Z</time>
      </trkpt>
      <trkpt lat="45.1257" lon="6.1085">
        <ele>2703.7</ele>
        <time>2021-03-10T09:00:54Z</time>
      </trkpt>
      <trkpt lat="45.12571" lon="6.10852">
        <ele>2703.8</ele>
        <time>2021-03-10T09:00:55Z</time>
      </trkpt>
      <trkpt lat="45.12571" lon="6.10853">
        <ele>2703.9</ele>
        <time>2021-03-10T09:00:56Z</time>
      </trkpt>
      <trkpt lat="45.12572" lon="6.10854">
        <ele>2704</ele>
        <time>2021-03-10T09:00:57Z</time>
      </trkpt>
      <trkpt lat="45.12572" lon="6.10855">
        <ele>2704</ele>
        <time>2021-03-10T09:00:58Z</time>
      </trkpt>
      <trkpt lat="45.12573" lon="6.10856">
        <ele>2704.1</ele>
        <time>2021-03-10T09:00:59Z</time>
      </trkpt>
      <trkpt lat="45.12573" lon="6.10858">
        <ele>2704.2</ele>
        <time>2021-03-10T09:01:00Z</time>
      </trkpt>
      <trkpt lat="45.12574" lon="6.10858">
        <ele>2704.3</ele>
        <time>2021-03-10T09:01:01Z</time>
      </trkpt>
      <trkpt lat="45.12575" lon="6.10859">
        <ele>2704.4</ele>
        <time>2021-03-10T09:01:02Z</time>
      </trkpt>
      <trkpt lat="45.12576" lon="6.1086">
        <ele>2704.5</ele>
        <time>2021-03-10T09:01:03Z</time>
      </trkpt>
      <trkpt lat="45.12576" lon="6.10861">
        <ele>2704.6</ele>
        <time>2021-03-10T09:01:04Z</time>
      </trkpt>
      <trkpt lat="45.12577" lon="6.10861">
        <ele>2704.6</ele>
        <time>2021-03-10T09:01:05Z</time>
      </trkpt>
      <trkpt lat="45.12577" lon="6.10862">
        <ele>2704.7</ele>
        <time>2021-03-10T09:01:06Z</time>
      </trkpt>
      <trkpt lat="45.12578" lon="6.10863">
        <ele>2704.8</ele>
        <time>2021-03-10T09:01:07Z</time>
      </trkpt>
      <trkpt lat="45.12578" lon="6.10863">
        <ele>2704.9</ele>
        <time>2021-03-10T09:01:08Z</time>
      </trkpt>
      <trkpt lat="45.12579" lon="6.10864">
        <ele>2704.9</ele>
        <time>2021-03-10T09:01:09Z</time>
      </trkpt>
      <trkpt lat="45.12579" lon="6.10865">
        <ele>2705</ele>
        <time>2021-03-10T09:01:10Z</time>
      </trkpt>
      <trkpt lat="45.12579" lon="6.10865">
        <ele>2705</ele>
        <time>2021-03-10T09:01:11Z</time>
      </trkpt>
      <trkpt lat="45.1258" lon="6.10866">
        <ele>2705.1</ele>
        <time>2021-03-10T09:01:12Z</time>
      </trkpt>
      <trkpt lat="45.1258" lon="6.10867">
        <ele>2705.2</ele>
        <time>2021-03-10T09:01:13Z</time>
      </trkpt>
      <trkpt lat="45.12581" lon="6.10868">
        <ele>2705.3</ele>
        <time>2021-03-10T09:01:14Z</time>
      </trkpt>
      <trkpt lat="45.12581" lon="6.10869">
        <ele>2705.4</ele>
        <time>2021-03-10T09:01:15Z</time>
      </trkpt>
      <trkpt lat="45.12582" lon="6.1087">
        <ele>2705.5</ele>
        <time>2021-03-10T09:01:16Z</time>
      </trkpt>
      <trkpt lat="45.12582" lon="6.10871">
        <ele>2705.5</ele>
        <time>2021-03-10T09:01:17Z</time>
      </trkpt>
      <trkpt lat="45.12582" lon="6.10872">
        <ele>2705.6</ele>
        <time>2021-03-10T09:01:18Z</time>
      </trkpt>
      <trkpt lat="45.12583" lon="6.10873">
        <ele>2705.7</ele>
        <time>2021-03-10T09:01:19Z</time>
      </trkpt>
      <trkpt lat="45.12583" lon="6.10874">
        <ele>2705.8</ele>
        <time>2021-03-10T09:01:20Z</time>
      </trkpt>
      <trkpt lat="45.12584" lon="6.10874">
        <ele>2705.9</ele>
        <time>2021-03-10T09:01:21Z</time>
      </trkpt>
      <trkpt lat="45.12584" lon="6.10875">
        <ele>2705.9</ele>
        <time>2021-03-10T09:01:22Z</time>
      </trkpt>
      <trkpt lat="45.12584" lon="6.10876">
        <ele>2706</ele>
        <time>2021-03-10T09:01:23Z</time>
      </trkpt>
      <trkpt lat="45.12585" lon="6.10877">
        <ele>2706.1</ele>
        <time>2021-03-10T09:01:24Z</time>
      </trkpt>
      <trkpt lat="45.12585" lon="6.10877">
        <ele>2706.1</ele>
        <time>2021-03-10T09:01:25Z</time>
      </trkpt>
      <trkpt lat="45.12585" lon="6.10878">
        <ele>2706.2</ele>
        <time>2021-03-10T09:01:26Z</time>
      </trkpt>
      <trkpt lat="45.12586" lon="6.10879">
        <ele>2706.3</ele>
        <time>2021-03-10T09:01:27Z</time>
      </trkpt>
      <trkpt lat="45.12586" lon="6.10881">
        <ele>2706.4</ele>
        <time>2021-03-10T09:01:28Z</time>
      </trkpt>
      <trkpt lat="45.12587" lon="6.10881">
        <ele>2706.4</ele>
        <time>2021-03-10T09:01:29Z</time>
      </trkpt>
      <trkpt lat="45.12587" lon="6.10882">
        <ele>2706.5</ele>
        <time>2021-03-10T09:01:30Z</time>
      </trkpt>
      <trkpt lat="45.12588" lon="6.10883">
        <ele>2706.6</ele>
        <time>2021-03-10T09:01:31Z</time>
      </trkpt>
      <trkpt lat="45.12588" lon="6.10884">
        <ele>2706.6</ele>
        <time>2021-03-10T09:01:32Z</time>
      </trkpt>
      <trkpt lat="45.12588" lon="6.10885">
        <ele>2706.7</ele>
        <time>2021-03-10T09:01:33Z</time>
      </trkpt>
      <trkpt lat="45.12588" lon="6.10885">
        <ele>2706.7</ele>
        <time>2021-03-10T09:01:34Z</time>
      </trkpt>
      <trkpt lat="45.12589" lon="6.10886">
        <ele>2706.8</ele>
        <time>2021-03-10T09:01:35Z</time>
      </trkpt>
      <trkpt lat="45.12589" lon="6.10887">
        <ele>2706.8</ele>
        <time>2021-03-10T09:01:36Z</time>
      </trkpt>
      <trkpt lat="45.12589" lon="6.10888">
        <ele>2706.8</ele>
        <time>2021-03-10T09:01:37Z</time>
      </trkpt>
      <trkpt lat="45.1259" lon="6.10889">
        <ele>2706.9</ele>
        <time>2021-03-10T09:01:38Z</time>
      </trkpt>
      <trkpt lat="45.1259" lon="6.10889">
        <ele>2706.9</ele>
        <time>2021-03-10T09:01:39Z</time>
      </trkpt>
      <trkpt lat="45.12591" lon="6.1089">
        <ele>2707</ele>
        <time>2021-03-10T09:01:40Z</time>
      </trkpt>
      <trkpt lat="45.12591" lon="6.10891">
        <ele>2707</ele>
        <time>2021-03-10T09:01:41Z</time>
      </trkpt>
      <trkpt lat="45.12592" lon="6.10892">
        <ele>2707.1</ele>
        <time>2021-03-10T09:01:42Z</time>
      </trkpt>
      <trkpt lat="45.12592" lon="6.10893">
        <ele>2707.1</ele>
        <time>2021-03-10T09:01:43Z</time>
      </trkpt>
      <trkpt lat="45.12593" lon="6.10894">
        <ele>2707.2</ele>
        <time>2021-03-10T09:01:44Z</time>
      </trkpt>
      <trkpt lat="45.12593" lon="6.10895">
        <ele>2707.2</ele>
        <time>2021-03-10T09:01:45Z</time>
      </trkpt>
      <trkpt lat="45.12594" lon="6.10896">
        <ele>2707.2</ele>
        <time>2021-03-10T09:01:46Z</time>
      </trkpt>
      <trkpt lat="45.12595" lon="6.10897">
        <ele>2707.3</ele>
        <time>2021-03-10T09:01:47Z</time>
      </trkpt>
      <trkpt lat="45.12595" lon="6.10898">
        <ele>2707.3</ele>
        <time>2021-03-10T09:01:48Z</time>
      </trkpt>
      <trkpt lat="45.12596" lon="6.10899">
        <ele>2707.3</ele>
        <time>2021-03-10T09:01:49Z</time>
      </trkpt>
      <trkpt lat="45.12596" lon="6.109">
        <ele>2707.4</ele>
        <time>2021-03-10T09:01:50Z</time>
      </trkpt>
      <trkpt lat="45.12597" lon="6.10901">
        <ele>2707.4</ele>
        <time>2021-03-10T09:01:51Z</time>
      </trkpt>
      <trkpt lat="45.12598" lon="6.10902">
        <ele>2707.4</ele>
        <time>2021-03-10T09:01:52Z</time>
      </trkpt>
      <trkpt lat="45.12598" lon="6.10902">
        <ele>2707.4</ele>
        <time>2021-03-10T09:01:53Z</time>
      </trkpt>
      <trkpt lat="45.12599" lon="6.10903">
        <ele>2707.4</ele>
        <time>2021-03-10T09:01:54Z</time>
      </trkpt>
      <trkpt lat="45.12599" lon="6.10904">
        <ele>2707.5</ele>
        <time>2021-03-10T09:01:55Z</time>
      </trkpt>
      <trkpt lat="45.126" lon="6.10905">
        <ele>2707.5</ele>
        <time>2021-03-10T09:01:56Z</time>
      </trkpt>
      <trkpt lat="45.12601" lon="6.10906">
        <ele>2707.5</ele>
        <time>2021-03-10T09:01:57Z</time>
      </trkpt>
      <trkpt lat="45.12601" lon="6.10907">
        <ele>2707.5</ele>
        <time>2021-03-10T09:01:58Z</time>
      </trkpt>
      <trkpt lat="45.12602" lon="6.10907">
        <ele>2707.5</ele>
        <time>2021-03-10T09:01:59Z</time>
      </trkpt>
      <trkpt lat="45.12603" lon="6.10908">
        <ele>2707.5</ele>
        <time>2021-03-10T09:02:00Z</time>
      </trkpt>
      <trkpt lat="45.12603" lon="6.10909">
        <ele>2707.5</ele>
        <time>2021-03-10T09:02:01Z</time>
      </trkpt>
      <trkpt lat="45.12604" lon="6.1091">
        <ele>2707.5</ele>
        <time>2021-03-10T09:02:02Z</time>
      </trkpt>
      <trkpt lat="45.12605" lon="6.10911">
        <ele>2707.5</ele>
        <time>2021-03-10T09:02:03Z</time>
      </trkpt>
      <trkpt lat="45.12605" lon="6.10912">
        <ele>2707.6</ele>
        <time>2021-03-10T09:02:04Z</time>
      </trkpt>
      <trkpt lat="45.12606" lon="6.10913">
        <ele>2707.6</ele>
        <time>2021-03-10T09:02:05Z</time>
      </trkpt>
      <trkpt lat="45.12607" lon="6.10914">
        <ele>2707.6</ele>
        <time>2021-03-10T09:02:06Z</time>
      </trkpt>
      <trkpt lat="45.12607" lon="6.10915">
        <ele>2707.6</ele>
        <time>2021-03-10T09:02:07Z</time>
      </trkpt>
      <trkpt lat="45.12608" lon="6.10916">
        <ele>2707.6</ele>
        <time>2021-03-10T09:02:08Z</time>
      </trkpt>
      <trkpt lat="45.12608" lon="6.10917">
        <ele>2707.6</ele>
        <time>2021-03-10T09:02:09Z</time>
      </trkpt>
      <trkpt lat="45.12609" lon="6.10918">
        <ele>2707.6</ele>
        <time>2021-03-10T09:02:10Z</time>
      </trkpt>
      <trkpt lat="45.1261" lon="6.10919">
        <ele>2707.6</ele>
        <time>2021-03-10T09:02:11Z</time>
      </trkpt>
      <trkpt lat="45.1261" lon="6.1092">
        <ele>2707.6</ele>
        <time>2021-03-10T09:02:12Z</time>
      </trkpt>
      <trkpt lat="45.12611" lon="6.10921">
        <ele>2707.6</ele>
        <time>2021-03-10T09:02:13Z</time>
      </trkpt>
      <trkpt lat="45.12611" lon="6.10922">
        <ele>2707.6</ele>
        <time>2021-03-10T09:02:14Z</time>
      </trkpt>
      <trkpt lat="45.12612" lon="6.10922">
        <ele>2707.7</ele>
        <time>2021-03-10T09:02:15Z</time>
      </trkpt>
      <trkpt lat="45.12612" lon="6.10923">
        <ele>2707.7</ele>
        <time>2021-03-10T09:02:16Z</time>
      </trkpt>
      <trkpt lat="45.12612" lon="6.10924">
        <ele>2707.7</ele>
        <time>2021-03-10T09:02:17Z</time>
      </trkpt>
      <trkpt lat="45.12613" lon="6.10925">
        <ele>2707.7</ele>
        <time>2021-03-10T09:02:18Z</time>
      </trkpt>
      <trkpt lat="45.12613" lon="6.10926">
        <ele>2707.7</ele>
        <time>2021-03-10T09:02:19Z</time>
      </trkpt>
      <trkpt lat="45.12614" lon="6.10927">
        <ele>2707.7</ele>
        <time>2021-03-10T09:02:20Z</time>
      </trkpt>
      <trkpt lat="45.12614" lon="6.10928">
        <ele>2707.7</ele>
        <time>2021-03-10T09:02:21Z</time>
      </trkpt>
      <trkpt lat="45.12615" lon="6.10929">
        <ele>2707.7</ele>
        <time>2021-03-10T09:02:22Z</time>
      </trkpt>
      <trkpt lat="45.12616" lon="6.1093">
        <ele>2707.7</ele>
        <time>2021-03-10T09:02:23Z</time>
      </trkpt>
      <trkpt lat="45.12617" lon="6.10931">
        <ele>2707.7</ele>
        <time>2021-03-10T09:02:24Z</time>
      </trkpt>
      <trkpt lat="45.12617" lon="6.10932">
        <ele>2707.7</ele>
        <time>2021-03-10T09:02:25Z</time>
      </trkpt>
      <trkpt lat="45.12618" lon="6.10933">
        <ele>2707.7</ele>
        <time>2021-03-10T09:02:26Z</time>
      </trkpt>
      <trkpt lat="45.12618" lon="6.10934">
        <ele>2707.7</ele>
        <time>2021-03-10T09:02:27Z</time>
      </trkpt>
      <trkpt lat="45.12619" lon="6.10935">
        <ele>2707.7</ele>
        <time>2021-03-10T09:02:28Z</time>
      </trkpt>
      <trkpt lat="45.12619" lon="6.10936">
        <ele>2707.7</ele>
        <time>2021-03-10T09:02:29Z</time>
      </trkpt>
      <trkpt lat="45.1262" lon="6.10937">
        <ele>2707.7</ele>
        <time>2021-03-10T09:02:30Z</time>
      </trkpt>
      <trkpt lat="45.1262" lon="6.10938">
        <ele>2707.6</ele>
        <time>2021-03-10T09:02:31Z</time>
      </trkpt>
      <trkpt lat="45.12621" lon="6.10939">
        <ele>2707.6</ele>
        <time>2021-03-10T09:02:32Z</time>
      </trkpt>
      <trkpt lat="45.12622" lon="6.1094">
        <ele>2707.6</ele>
        <time>2021-03-10T09:02:33Z</time>
      </trkpt>
      <trkpt lat="45.12622" lon="6.10941">
        <ele>2707.6</ele>
        <time>2021-03-10T09:02:34Z</time>
      </trkpt>
      <trkpt lat="45.12623" lon="6.10941">
        <ele>2707.6</ele>
        <time>2021-03-10T09:02:35Z</time>
      </trkpt>
      <trkpt lat="45.12623" lon="6.10942">
        <ele>2707.6</ele>
        <time>2021-03-10T09:02:36Z</time>
      </trkpt>
      <trkpt lat="45.12624" lon="6.10942">
        <ele>2707.6</ele>
        <time>2021-03-10T09:02:37Z</time>
      </trkpt>
      <trkpt lat="45.12624" lon="6.10943">
        <ele>2707.7</ele>
        <time>2021-03-10T09:02:38Z</time>
      </trkpt>
      <trkpt lat="45.12625" lon="6.10944">
        <ele>2707.7</ele>
        <time>2021-03-10T09:02:39Z</time>
      </trkpt>
      <trkpt lat="45.12625" lon="6.10944">
        <ele>2707.7</ele>
        <time>2021-03-10T09:02:40Z</time>
      </trkpt>
      <trkpt lat="45.12626" lon="6.10945">
        <ele>2707.7</ele>
        <time>2021-03-10T09:02:41Z</time>
      </trkpt>
      <trkpt lat="45.12626" lon="6.10945">
        <ele>2707.7</ele>
        <time>2021-03-10T09:02:42Z</time>
      </trkpt>
      <trkpt lat="45.12627" lon="6.10946">
        <ele>2707.7</ele>
        <time>2021-03-10T09:02:43Z</time>
      </trkpt>
      <trkpt lat="45.12627" lon="6.10947">
        <ele>2707.7</ele>
        <time>2021-03-10T09:02:44Z</time>
      </trkpt>
      <trkpt lat="45.12628" lon="6.10948">
        <ele>2707.7</ele>
        <time>2021-03-10T09:02:45Z</time>
      </trkpt>
      <trkpt lat="45.12628" lon="6.10949">
        <ele>2707.7</ele>
        <time>2021-03-10T09:02:46Z</time>
      </trkpt>
      <trkpt lat="45.12629" lon="6.10949">
        <ele>2707.8</ele>
        <time>2021-03-10T09:02:47Z</time>
      </trkpt>
      <trkpt lat="45.12629" lon="6.1095">
        <ele>2707.8</ele>
        <time>2021-03-10T09:02:48Z</time>
      </trkpt>
      <trkpt lat="45.1263" lon="6.10951">
        <ele>2707.8</ele>
        <time>2021-03-10T09:02:49Z</time>
      </trkpt>
      <trkpt lat="45.12631" lon="6.10952">
        <ele>2707.8</ele>
        <time>2021-03-10T09:02:50Z</time>
      </trkpt>
      <trkpt lat="45.12631" lon="6.10952">
        <ele>2707.9</ele>
        <time>2021-03-10T09:02:51Z</time>
      </trkpt>
      <trkpt lat="45.12632" lon="6.10953">
        <ele>2707.9</ele>
        <time>2021-03-10T09:02:52Z</time>
      </trkpt>
      <trkpt lat="45.12633" lon="6.10954">
        <ele>2707.9</ele>
        <time>2021-03-10T09:02:53Z</time>
      </trkpt>
      <trkpt lat="45.12633" lon="6.10954">
        <ele>2708</ele>
        <time>2021-03-10T09:02:54Z</time>
      </trkpt>
      <trkpt lat="45.12634" lon="6.10954">
        <ele>2708</ele>
        <time>2021-03-10T09:02:55Z</time>
      </trkpt>
      <trkpt lat="45.12634" lon="6.10955">
        <ele>2708</ele>
        <time>2021-03-10T09:02:56Z</time>
      </trkpt>
      <trkpt lat="45.12635" lon="6.10955">
        <ele>2708.1</ele>
        <time>2021-03-10T09:02:57Z</time>
      </trkpt>
      <trkpt lat="45.12635" lon="6.10956">
        <ele>2708.1</ele>
        <time>2021-03-10T09:02:58Z</time>
      </trkpt>
      <trkpt lat="45.12636" lon="6.10956">
        <ele>2708.1</ele>
        <time>2021-03-10T09:02:59Z</time>
      </trkpt>
      <trkpt lat="45.12637" lon="6.10957">
        <ele>2708.2</ele>
        <time>2021-03-10T09:03:00Z</time>
      </trkpt>
      <trkpt lat="45.12637" lon="6.10958">
        <ele>2708.2</ele>
        <time>2021-03-10T09:03:01Z</time>
      </trkpt>
      <trkpt lat="45.12637" lon="6.10958">
        <ele>2708.3</ele>
        <time>2021-03-10T09:03:02Z</time>
      </trkpt>
      <trkpt lat="45.12638" lon="6.10958">
        <ele>2708.3</ele>
        <time>2021-03-10T09:03:03Z</time>
      </trkpt>
      <trkpt lat="45.12638" lon="6.10959">
        <ele>2708.3</ele>
        <time>2021-03-10T09:03:04Z</time>
      </trkpt>
      <trkpt lat="45.12638" lon="6.10959">
        <ele>2708.4</ele>
        <time>2021-03-10T09:03:05Z</time>
      </trkpt>
      <trkpt lat="45.12639" lon="6.1096">
        <ele>2708.4</ele>
        <time>2021-03-10T09:03:06Z</time>
      </trkpt>
      <trkpt lat="45.12639" lon="6.10961">
        <ele>2708.5</ele>
        <time>2021-03-10T09:03:07Z</time>
      </trkpt>
      <trkpt lat="45.1264" lon="6.10961">
        <ele>2708.5</ele>
        <time>2021-03-10T09:03:08Z</time>
      </trkpt>
      <trkpt lat="45.1264" lon="6.10961">
        <ele>2708.5</ele>
        <time>2021-03-10T09:03:09Z</time>
      </trkpt>
      <trkpt lat="45.12641" lon="6.10961">
        <ele>2708.6</ele>
        <time>2021-03-10T09:03:10Z</time>
      </trkpt>
      <trkpt lat="45.12641" lon="6.10962">
        <ele>2708.6</ele>
        <time>2021-03-10T09:03:11Z</time>
      </trkpt>
      <trkpt lat="45.12642" lon="6.10963">
        <ele>2708.7</ele>
        <time>2021-03-10T09:03:12Z</time>
      </trkpt>
      <trkpt lat="45.12642" lon="6.10964">
        <ele>2708.8</ele>
        <time>2021-03-10T09:03:13Z</time>
      </trkpt>
      <trkpt lat="45.12642" lon="6.10965">
        <ele>2708.8</ele>
        <time>2021-03-10T09:03:14Z</time>
      </trkpt>
      <trkpt lat="45.12642" lon="6.10966">
        <ele>2708.9</ele>
        <time>2021-03-10T09:03:15Z</time>
      </trkpt>
      <trkpt lat="45.12643" lon="6.10967">
        <ele>2709</ele>
        <time>2021-03-10T09:03:16Z</time>
      </trkpt>
      <trkpt lat="45.12643" lon="6.10967">
        <ele>2709</ele>
        <time>2021-03-10T09:03:17Z</time>
      </trkpt>
      <trkpt lat="45.12643" lon="6.10968">
        <ele>2709.1</ele>
        <time>2021-03-10T09:03:18Z</time>
      </trkpt>
      <trkpt lat="45.12643" lon="6.10969">
        <ele>2709.2</ele>
        <time>2021-03-10T09:03:19Z</time>
      </trkpt>
      <trkpt lat="45.12644" lon="6.1097">
        <ele>2709.2</ele>
        <time>2021-03-10T09:03:20Z</time>
      </trkpt>
      <trkpt lat="45.12644" lon="6.10971">
        <ele>2709.3</ele>
        <time>2021-03-10T09:03:21Z</time>
      </trkpt>
      <trkpt lat="45.12644" lon="6.10972">
        <ele>2709.4</ele>
        <time>2021-03-10T09:03:22Z</time>
      </trkpt>
      <trkpt lat="45.12645" lon="6.10973">
        <ele>2709.5</ele>
        <time>2021-03-10T09:03:23Z</time>
      </trkpt>
      <trkpt lat="45.12645" lon="6.10974">
        <ele>2709.6</ele>
        <time>2021-03-10T09:03:24Z</time>
      </trkpt>
      <trkpt lat="45.12646" lon="6.10975">
        <ele>2709.7</ele>
        <time>2021-03-10T09:03:25Z</time>
      </trkpt>
      <trkpt lat="45.12647" lon="6.10976">
        <ele>2709.8</ele>
        <time>2021-03-10T09:03:26Z</time>
      </trkpt>
      <trkpt lat="45.12647" lon="6.10977">
        <ele>2709.9</ele>
        <time>2021-03-10T09:03:27Z</time>
      </trkpt>
      <trkpt lat="45.12647" lon="6.10978">
        <ele>2710</ele>
        <time>2021-03-10T09:03:28Z</time>
      </trkpt>
      <trkpt lat="45.12648" lon="6.10979">
        <ele>2710.2</ele>
        <time>2021-03-10T09:03:29Z</time>
      </trkpt>
      <trkpt lat="45.12649" lon="6.1098">
        <ele>2710.3</ele>
        <time>2021-03-10T09:03:30Z</time>
      </trkpt>
      <trkpt lat="45.12649" lon="6.10981">
        <ele>2710.4</ele>
        <time>2021-03-10T09:03:31Z</time>
      </trkpt>
      <trkpt lat="45.1265" lon="6.10981">
        <ele>2710.5</ele>
        <time>2021-03-10T09:03:32Z</time>
      </trkpt>
      <trkpt lat="45.12651" lon="6.10982">
        <ele>2710.6</ele>
        <time>2021-03-10T09:03:33Z</time>
      </trkpt>
      <trkpt lat="45.12651" lon="6.10983">
        <ele>2710.7</ele>
        <time>2021-03-10T09:03:34Z</time>
      </trkpt>
      <trkpt lat="45.12652" lon="6.10983">
        <ele>2710.8</ele>
        <time>2021-03-10T09:03:35Z</time>
      </trkpt>
      <trkpt lat="45.12653" lon="6.10984">
        <ele>2710.9</ele>
        <time>2021-03-10T09:03:36Z</time>
      </trkpt>
      <trkpt lat="45.12653" lon="6.10984">
        <ele>2710.9</ele>
        <time>2021-03-10T09:03:37Z</time>
      </trkpt>
      <trkpt lat="45.12654" lon="6.10985">
        <ele>2711</ele>
        <time>2021-03-10T09:03:38Z</time>
      </trkpt>
      <trkpt lat="45.12654" lon="6.10986">
        <ele>2711.1</ele>
        <time>2021-03-10T09:03:39Z</time>
      </trkpt>
      <trkpt lat="45.12655" lon="6.10987">
        <ele>2711.2</ele>
        <time>2021-03-10T09:03:40Z</time>
      </trkpt>
      <trkpt lat="45.12655" lon="6.10988">
        <ele>2711.3</ele>
        <time>2021-03-10T09:03:41Z</time>
      </trkpt>
      <trkpt lat="45.12656" lon="6.10989">
        <ele>2711.4</ele>
        <time>2021-03-10T09:03:42Z</time>
      </trkpt>
      <trkpt lat="45.12656" lon="6.1099">
        <ele>2711.5</ele>
        <time>2021-03-10T09:03:43Z</time>
      </trkpt>
      <trkpt lat="45.12656" lon="6.10991">
        <ele>2711.6</ele>
        <time>2021-03-10T09:03:44Z</time>
      </trkpt>
      <trkpt lat="45.12657" lon="6.10991">
        <ele>2711.7</ele>
        <time>2021-03-10T09:03:45Z</time>
      </trkpt>
      <trkpt lat="45.12657" lon="6.10992">
        <ele>2711.8</ele>
        <time>2021-03-10T09:03:46Z</time>
      </trkpt>
      <trkpt lat="45.12657" lon="6.10993">
        <ele>2711.8</ele>
        <time>2021-03-10T09:03:47Z</time>
      </trkpt>
      <trkpt lat="45.12657" lon="6.10994">
        <ele>2711.9</ele>
        <time>2021-03-10T09:03:48Z</time>
      </trkpt>
      <trkpt lat="45.12658" lon="6.10995">
        <ele>2712</ele>
        <time>2021-03-10T09:03:49Z</time>
      </trkpt>
      <trkpt lat="45.12658" lon="6.10996">
        <ele>2712.1</ele>
        <time>2021-03-10T09:03:50Z</time>
      </trkpt>
      <trkpt lat="45.12658" lon="6.10997">
        <ele>2712.2</ele>
        <time>2021-03-10T09:03:51Z</time>
      </trkpt>
      <trkpt lat="45.12659" lon="6.10997">
        <ele>2712.3</ele>
        <time>2021-03-10T09:03:52Z</time>
      </trkpt>
      <trkpt lat="45.12659" lon="6.10998">
        <ele>2712.3</ele>
        <time>2021-03-10T09:03:53Z</time>
      </trkpt>
      <trkpt lat="45.1266" lon="6.10999">
        <ele>2712.4</ele>
        <time>2021-03-10T09:03:54Z</time>
      </trkpt>
      <trkpt lat="45.1266" lon="6.10999">
        <ele>2712.5</ele>
        <time>2021-03-10T09:03:55Z</time>
      </trkpt>
      <trkpt lat="45.12661" lon="6.11">
        <ele>2712.6</ele>
        <time>2021-03-10T09:03:56Z</time>
      </trkpt>
      <trkpt lat="45.12661" lon="6.11001">
        <ele>2712.7</ele>
        <time>2021-03-10T09:03:57Z</time>
      </trkpt>
      <trkpt lat="45.12662" lon="6.11002">
        <ele>2712.8</ele>
        <time>2021-03-10T09:03:58Z</time>
      </trkpt>
      <trkpt lat="45.12662" lon="6.11003">
        <ele>2712.8</ele>
        <time>2021-03-10T09:03:59Z</time>
      </trkpt>
      <trkpt lat="45.12662" lon="6.11004">
        <ele>2713.9</ele>
        <time>2021-03-10T09:04:00Z</time>
      </trkpt>
      <trkpt lat="45.12663" lon="6.11005">
        <ele>2713.9</ele>
        <time>2021-03-10T09:04:01Z</time>
      </trkpt>
      <trkpt lat="45.12663" lon="6.11005">
        <ele>2713.9</ele>
        <time>2021-03-10T09:04:02Z</time>
      </trkpt>
      <trkpt lat="45.12663" lon="6.11006">
        <ele>2713.9</ele>
        <time>2021-03-10T09:04:03Z</time>
      </trkpt>
      <trkpt lat="45.12663" lon="6.11007">
        <ele>2713.9</ele>
        <time>2021-03-10T09:04:04Z</time>
      </trkpt>
      <trkpt lat="45.12664" lon="6.11007">
        <ele>2714</ele>
        <time>2021-03-10T09:04:05Z</time>
      </trkpt>
      <trkpt lat="45.12664" lon="6.11008">
        <ele>2714</ele>
        <time>2021-03-10T09:04:06Z</time>
      </trkpt>
      <trkpt lat="45.12664" lon="6.11009">
        <ele>2714</ele>
        <time>2021-03-10T09:04:07Z</time>
      </trkpt>
      <trkpt lat="45.12664" lon="6.1101">
        <ele>2714</ele>
        <time>2021-03-10T09:04:08Z</time>
      </trkpt>
      <trkpt lat="45.12664" lon="6.11011">
        <ele>2714</ele>
        <time>2021-03-10T09:04:09Z</time>
      </trkpt>
      <trkpt lat="45.12664" lon="6.11012">
        <ele>2714</ele>
        <time>2021-03-10T09:04:10Z</time>
      </trkpt>
      <trkpt lat="45.12664" lon="6.11013">
        <ele>2714</ele>
        <time>2021-03-10T09:04:11Z</time>
      </trkpt>
      <trkpt lat="45.12665" lon="6.11014">
        <ele>2714</ele>
        <time>2021-03-10T09:04:12Z</time>
      </trkpt>
      <trkpt lat="45.12665" lon="6.11015">
        <ele>2714.1</ele>
        <time>2021-03-10T09:04:13Z</time>
      </trkpt>
      <trkpt lat="45.12665" lon="6.11016">
        <ele>2714.1</ele>
        <time>2021-03-10T09:04:14Z</time>
      </trkpt>
      <trkpt lat="45.12665" lon="6.11016">
        <ele>2714.1</ele>
        <time>2021-03-10T09:04:15Z</time>
      </trkpt>
      <trkpt lat="45.12665" lon="6.11017">
        <ele>2714.1</ele>
        <time>2021-03-10T09:04:16Z</time>
      </trkpt>
      <trkpt lat="45.12665" lon="6.11018">
        <ele>2714.1</ele>
        <time>2021-03-10T09:04:17Z</time>
      </trkpt>
      <trkpt lat="45.12665" lon="6.11019">
        <ele>2714.1</ele>
        <time>2021-03-10T09:04:18Z</time>
      </trkpt>
      <trkpt lat="45.12665" lon="6.1102">
        <ele>2714.1</ele>
        <time>2021-03-10T09:04:19Z</time>
      </trkpt>
      <trkpt lat="45.12665" lon="6.1102">
        <ele>2714.1</ele>
        <time>2021-03-10T09:04:20Z</time>
      </trkpt>
      <trkpt lat="45.12666" lon="6.11021">
        <ele>2714.2</ele>
        <time>2021-03-10T09:04:21Z</time>
      </trkpt>
      <trkpt lat="45.12666" lon="6.11022">
        <ele>2714.2</ele>
        <time>2021-03-10T09:04:22Z</time>
      </trkpt>
      <trkpt lat="45.12667" lon="6.11023">
        <ele>2714.2</ele>
        <time>2021-03-10T09:04:23Z</time>
      </trkpt>
      <trkpt lat="45.12667" lon="6.11024">
        <ele>2714.2</ele>
        <time>2021-03-10T09:04:24Z</time>
      </trkpt>
      <trkpt lat="45.12668" lon="6.11025">
        <ele>2714.2</ele>
        <time>2021-03-10T09:04:25Z</time>
      </trkpt>
      <trkpt lat="45.12668" lon="6.11026">
        <ele>2714.2</ele>
        <time>2021-03-10T09:04:26Z</time>
      </trkpt>
      <trkpt lat="45.12669" lon="6.11027">
        <ele>2714.3</ele>
        <time>2021-03-10T09:04:27Z</time>
      </trkpt>
      <trkpt lat="45.12669" lon="6.11028">
        <ele>2714.3</ele>
        <time>2021-03-10T09:04:28Z</time>
      </trkpt>
      <trkpt lat="45.12669" lon="6.11029">
        <ele>2714.3</ele>
        <time>2021-03-10T09:04:29Z</time>
      </trkpt>
      <trkpt lat="45.12669" lon="6.11029">
        <ele>2714.3</ele>
        <time>2021-03-10T09:04:30Z</time>
      </trkpt>
      <trkpt lat="45.12669" lon="6.1103">
        <ele>2714.3</ele>
        <time>2021-03-10T09:04:31Z</time>
      </trkpt>
      <trkpt lat="45.1267" lon="6.11031">
        <ele>2714.3</ele>
        <time>2021-03-10T09:04:32Z</time>
      </trkpt>
      <trkpt lat="45.1267" lon="6.11033">
        <ele>2714.3</ele>
        <time>2021-03-10T09:04:33Z</time>
      </trkpt>
      <trkpt lat="45.12671" lon="6.11034">
        <ele>2714.4</ele>
        <time>2021-03-10T09:04:34Z</time>
      </trkpt>
      <trkpt lat="45.12671" lon="6.11035">
        <ele>2714.4</ele>
        <time>2021-03-10T09:04:35Z</time>
      </trkpt>
      <trkpt lat="45.12671" lon="6.11036">
        <ele>2714.4</ele>
        <time>2021-03-10T09:04:36Z</time>
      </trkpt>
      <trkpt lat="45.12672" lon="6.11037">
        <ele>2714.4</ele>
        <time>2021-03-10T09:04:37Z</time>
      </trkpt>
      <trkpt lat="45.12672" lon="6.11038">
        <ele>2714.5</ele>
        <time>2021-03-10T09:04:38Z</time>
      </trkpt>
      <trkpt lat="45.12672" lon="6.11039">
        <ele>2714.5</ele>
        <time>2021-03-10T09:04:39Z</time>
      </trkpt>
      <trkpt lat="45.12672" lon="6.1104">
        <ele>2714.5</ele>
        <time>2021-03-10T09:04:40Z</time>
      </trkpt>
      <trkpt lat="45.12673" lon="6.11041">
        <ele>2714.5</ele>
        <time>2021-03-10T09:04:41Z</time>
      </trkpt>
      <trkpt lat="45.12673" lon="6.11042">
        <ele>2714.5</ele>
        <time>2021-03-10T09:04:42Z</time>
      </trkpt>
      <trkpt lat="45.12673" lon="6.11043">
        <ele>2714.6</ele>
        <time>2021-03-10T09:04:43Z</time>
      </trkpt>
      <trkpt lat="45.12673" lon="6.11044">
        <ele>2714.6</ele>
        <time>2021-03-10T09:04:44Z</time>
      </trkpt>
      <trkpt lat="45.12674" lon="6.11045">
        <ele>2714.6</ele>
        <time>2021-03-10T09:04:45Z</time>
      </trkpt>
      <trkpt lat="45.12674" lon="6.11046">
        <ele>2714.7</ele>
        <time>2021-03-10T09:04:46Z</time>
      </trkpt>
      <trkpt lat="45.12674" lon="6.11047">
        <ele>2714.7</ele>
        <time>2021-03-10T09:04:47Z</time>
      </trkpt>
      <trkpt lat="45.12675" lon="6.11048">
        <ele>2714.8</ele>
        <time>2021-03-10T09:04:48Z</time>
      </trkpt>
      <trkpt lat="45.12675" lon="6.1105">
        <ele>2714.8</ele>
        <time>2021-03-10T09:04:49Z</time>
      </trkpt>
      <trkpt lat="45.12675" lon="6.11051">
        <ele>2714.8</ele>
        <time>2021-03-10T09:04:50Z</time>
      </trkpt>
      <trkpt lat="45.12675" lon="6.11052">
        <ele>2714.9</ele>
        <time>2021-03-10T09:04:51Z</time>
      </trkpt>
      <trkpt lat="45.12676" lon="6.11052">
        <ele>2714.9</ele>
        <time>2021-03-10T09:04:52Z</time>
      </trkpt>
      <trkpt lat="45.12676" lon="6.11053">
        <ele>2714.9</ele>
        <time>2021-03-10T09:04:53Z</time>
      </trkpt>
      <trkpt lat="45.12676" lon="6.11055">
        <ele>2715</ele>
        <time>2021-03-10T09:04:54Z</time>
      </trkpt>
      <trkpt lat="45.12677" lon="6.11056">
        <ele>2715</ele>
        <time>2021-03-10T09:04:55Z</time>
      </trkpt>
      <trkpt lat="45.12677" lon="6.11057">
        <ele>2715.1</ele>
        <time>2021-03-10T09:04:56Z</time>
      </trkpt>
      <trkpt lat="45.12677" lon="6.11058">
        <ele>2715.2</ele>
        <time>2021-03-10T09:04:57Z</time>
      </trkpt>
      <trkpt lat="45.12678" lon="6.1106">
        <ele>2715.2</ele>
        <time>2021-03-10T09:04:58Z</time>
      </trkpt>
      <trkpt lat="45.12678" lon="6.11061">
        <ele>2715.3</ele>
        <time>2021-03-10T09:04:59Z</time>
      </trkpt>
      <trkpt lat="45.12679" lon="6.11062">
        <ele>2715.4</ele>
        <time>2021-03-10T09:05:00Z</time>
      </trkpt>
      <trkpt lat="45.12679" lon="6.11063">
        <ele>2715.4</ele>
        <time>2021-03-10T09:05:01Z</time>
      </trkpt>
      <trkpt lat="45.12679" lon="6.11064">
        <ele>2715.5</ele>
        <time>2021-03-10T09:05:02Z</time>
      </trkpt>
      <trkpt lat="45.12679" lon="6.11065">
        <ele>2715.5</ele>
        <time>2021-03-10T09:05:03Z</time>
      </trkpt>
      <trkpt lat="45.12679" lon="6.11066">
        <ele>2715.6</ele>
        <time>2021-03-10T09:05:04Z</time>
      </trkpt>
      <trkpt lat="45.12679" lon="6.11067">
        <ele>2715.6</ele>
        <time>2021-03-10T09:05:05Z</time>
      </trkpt>
      <trkpt lat="45.1268" lon="6.11067">
        <ele>2715.6</ele>
        <time>2021-03-10T09:05:06Z</time>
      </trkpt>
      <trkpt lat="45.1268" lon="6.11067">
        <ele>2715.7</ele>
        <time>2021-03-10T09:05:07Z</time>
      </trkpt>
      <trkpt lat="45.12681" lon="6.11068">
        <ele>2715.7</ele>
        <time>2021-03-10T09:05:08Z</time>
      </trkpt>
      <trkpt lat="45.12682" lon="6.11068">
        <ele>2715.8</ele>
        <time>2021-03-10T09:05:09Z</time>
      </trkpt>
      <trkpt lat="45.12682" lon="6.11069">
        <ele>2715.8</ele>
        <time>2021-03-10T09:05:10Z</time>
      </trkpt>
      <trkpt lat="45.12682" lon="6.11069">
        <ele>2715.8</ele>
        <time>2021-03-10T09:05:11Z</time>
      </trkpt>
      <trkpt lat="45.12682" lon="6.1107">
        <ele>2715.9</ele>
        <time>2021-03-10T09:05:12Z</time>
      </trkpt>
      <trkpt lat="45.12682" lon="6.1107">
        <ele>2715.9</ele>
        <time>2021-03-10T09:05:13Z</time>
      </trkpt>
      <trkpt lat="45.12683" lon="6.11071">
        <ele>2716</ele>
        <time>2021-03-10T09:05:14Z</time>
      </trkpt>
      <trkpt lat="45.12683" lon="6.11072">
        <ele>2716</ele>
        <time>2021-03-10T09:05:15Z</time>
      </trkpt>
      <trkpt lat="45.12683" lon="6.11073">
        <ele>2716.1</ele>
        <time>2021-03-10T09:05:16Z</time>
      </trkpt>
      <trkpt lat="45.12684" lon="6.11074">
        <ele>2716.1</ele>
        <time>2021-03-10T09:05:17Z</time>
      </trkpt>
      <trkpt lat="45.12684" lon="6.11075">
        <ele>2716.2</ele>
        <time>2021-03-10T09:05:18Z</time>
      </trkpt>
      <trkpt lat="45.12684" lon="6.11076">
        <ele>2716.3</ele>
        <time>2021-03-10T09:05:19Z</time>
      </trkpt>
      <trkpt lat="45.12685" lon="6.11077">
        <ele>2716.3</ele>
        <time>2021-03-10T09:05:20Z</time>
      </trkpt>
      <trkpt lat="45.12685" lon="6.11078">
        <ele>2716.4</ele>
        <time>2021-03-10T09:05:21Z</time>
      </trkpt>
      <trkpt lat="45.12685" lon="6.11079">
        <ele>2716.5</ele>
        <time>2021-03-10T09:05:22Z</time>
      </trkpt>
      <trkpt lat="45.12686" lon="6.1108">
        <ele>2716.5</ele>
        <time>2021-03-10T09:05:23Z</time>
      </trkpt>
      <trkpt lat="45.12686" lon="6.11082">
        <ele>2716.6</ele>
        <time>2021-03-10T09:05:24Z</time>
      </trkpt>
      <trkpt lat="45.12686" lon="6.11083">
        <ele>2716.7</ele>
        <time>2021-03-10T09:05:25Z</time>
      </trkpt>
      <trkpt lat="45.12687" lon="6.11084">
        <ele>2716.8</ele>
        <time>2021-03-10T09:05:26Z</time>
      </trkpt>
      <trkpt lat="45.12687" lon="6.11085">
        <ele>2716.8</ele>
        <time>2021-03-10T09:05:27Z</time>
      </trkpt>
      <trkpt lat="45.12688" lon="6.11087">
        <ele>2716.9</ele>
        <time>2021-03-10T09:05:28Z</time>
      </trkpt>
      <trkpt lat="45.12688" lon="6.11088">
        <ele>2717</ele>
        <time>2021-03-10T09:05:29Z</time>
      </trkpt>
      <trkpt lat="45.12688" lon="6.11089">
        <ele>2717</ele>
        <time>2021-03-10T09:05:30Z</time>
      </trkpt>
      <trkpt lat="45.12689" lon="6.1109">
        <ele>2717.1</ele>
        <time>2021-03-10T09:05:31Z</time>
      </trkpt>
      <trkpt lat="45.12689" lon="6.11091">
        <ele>2717.2</ele>
        <time>2021-03-10T09:05:32Z</time>
      </trkpt>
      <trkpt lat="45.1269" lon="6.11092">
        <ele>2717.2</ele>
        <time>2021-03-10T09:05:33Z</time>
      </trkpt>
      <trkpt lat="45.1269" lon="6.11093">
        <ele>2717.3</ele>
        <time>2021-03-10T09:05:34Z</time>
      </trkpt>
      <trkpt lat="45.1269" lon="6.11094">
        <ele>2717.4</ele>
        <time>2021-03-10T09:05:35Z</time>
      </trkpt>
      <trkpt lat="45.12691" lon="6.11095">
        <ele>2717.4</ele>
        <time>2021-03-10T09:05:36Z</time>
      </trkpt>
      <trkpt lat="45.12691" lon="6.11096">
        <ele>2717.5</ele>
        <time>2021-03-10T09:05:37Z</time>
      </trkpt>
      <trkpt lat="45.12692" lon="6.11097">
        <ele>2717.6</ele>
        <time>2021-03-10T09:05:38Z</time>
      </trkpt>
      <trkpt lat="45.12692" lon="6.11098">
        <ele>2717.6</ele>
        <time>2021-03-10T09:05:39Z</time>
      </trkpt>
      <trkpt lat="45.12693" lon="6.11099">
        <ele>2717.7</ele>
        <time>2021-03-10T09:05:40Z</time>
      </trkpt>
      <trkpt lat="45.12693" lon="6.111">
        <ele>2717.7</ele>
        <time>2021-03-10T09:05:41Z</time>
      </trkpt>
      <trkpt lat="45.12693" lon="6.11101">
        <ele>2718</ele>
        <time>2021-03-10T09:05:42Z</time>
      </trkpt>
      <trkpt lat="45.12694" lon="6.11102">
        <ele>2718.6</ele>
        <time>2021-03-10T09:05:43Z</time>
      </trkpt>
      <trkpt lat="45.12694" lon="6.11103">
        <ele>2718.7</ele>
        <time>2021-03-10T09:05:44Z</time>
      </trkpt>
      <trkpt lat="45.12694" lon="6.11104">
        <ele>2718.7</ele>
        <time>2021-03-10T09:05:45Z</time>
      </trkpt>
      <trkpt lat="45.12695" lon="6.11105">
        <ele>2718.7</ele>
        <time>2021-03-10T09:05:46Z</time>
      </trkpt>
      <trkpt lat="45.12695" lon="6.11106">
        <ele>2718.8</ele>
        <time>2021-03-10T09:05:47Z</time>
      </trkpt>
      <trkpt lat="45.12696" lon="6.11107">
        <ele>2718.8</ele>
        <time>2021-03-10T09:05:48Z</time>
      </trkpt>
      <trkpt lat="45.12696" lon="6.11108">
        <ele>2718.8</ele>
        <time>2021-03-10T09:05:49Z</time>
      </trkpt>
      <trkpt lat="45.12696" lon="6.11109">
        <ele>2718.9</ele>
        <time>2021-03-10T09:05:50Z</time>
      </trkpt>
      <trkpt lat="45.12696" lon="6.1111">
        <ele>2718.9</ele>
        <time>2021-03-10T09:05:51Z</time>
      </trkpt>
      <trkpt lat="45.12697" lon="6.11111">
        <ele>2718.9</ele>
        <time>2021-03-10T09:05:52Z</time>
      </trkpt>
      <trkpt lat="45.12697" lon="6.11112">
        <ele>2719</ele>
        <time>2021-03-10T09:05:53Z</time>
      </trkpt>
      <trkpt lat="45.12698" lon="6.11113">
        <ele>2719</ele>
        <time>2021-03-10T09:05:54Z</time>
      </trkpt>
      <trkpt lat="45.12698" lon="6.11114">
        <ele>2719</ele>
        <time>2021-03-10T09:05:55Z</time>
      </trkpt>
      <trkpt lat="45.12698" lon="6.11115">
        <ele>2719.1</ele>
        <time>2021-03-10T09:05:56Z</time>
      </trkpt>
      <trkpt lat="45.12698" lon="6.11116">
        <ele>2719.1</ele>
        <time>2021-03-10T09:05:57Z</time>
      </trkpt>
      <trkpt lat="45.12699" lon="6.11117">
        <ele>2719.1</ele>
        <time>2021-03-10T09:05:58Z</time>
      </trkpt>
      <trkpt lat="45.12699" lon="6.11118">
        <ele>2719.2</ele>
        <time>2021-03-10T09:05:59Z</time>
      </trkpt>
      <trkpt lat="45.127" lon="6.11119">
        <ele>2719.2</ele>
        <time>2021-03-10T09:06:00Z</time>
      </trkpt>
      <trkpt lat="45.127" lon="6.1112">
        <ele>2719.2</ele>
        <time>2021-03-10T09:06:01Z</time>
      </trkpt>
      <trkpt lat="45.127" lon="6.11121">
        <ele>2719.2</ele>
        <time>2021-03-10T09:06:02Z</time>
      </trkpt>
      <trkpt lat="45.127" lon="6.11121">
        <ele>2719.3</ele>
        <time>2021-03-10T09:06:03Z</time>
      </trkpt>
      <trkpt lat="45.12701" lon="6.11122">
        <ele>2719.3</ele>
        <time>2021-03-10T09:06:04Z</time>
      </trkpt>
      <trkpt lat="45.12701" lon="6.11123">
        <ele>2719.3</ele>
        <time>2021-03-10T09:06:05Z</time>
      </trkpt>
      <trkpt lat="45.12701" lon="6.11124">
        <ele>2719.4</ele>
        <time>2021-03-10T09:06:06Z</time>
      </trkpt>
      <trkpt lat="45.12702" lon="6.11125">
        <ele>2719.4</ele>
        <time>2021-03-10T09:06:07Z</time>
      </trkpt>
      <trkpt lat="45.12702" lon="6.11126">
        <ele>2719.4</ele>
        <time>2021-03-10T09:06:08Z</time>
      </trkpt>
      <trkpt lat="45.12702" lon="6.11127">
        <ele>2719.4</ele>
        <time>2021-03-10T09:06:09Z</time>
      </trkpt>
      <trkpt lat="45.12702" lon="6.11128">
        <ele>2719.5</ele>
        <time>2021-03-10T09:06:10Z</time>
      </trkpt>
      <trkpt lat="45.12703" lon="6.11129">
        <ele>2719.5</ele>
        <time>2021-03-10T09:06:11Z</time>
      </trkpt>
      <trkpt lat="45.12703" lon="6.1113">
        <ele>2719.6</ele>
        <time>2021-03-10T09:06:12Z</time>
      </trkpt>
      <trkpt lat="45.12703" lon="6.11131">
        <ele>2719.6</ele>
        <time>2021-03-10T09:06:13Z</time>
      </trkpt>
      <trkpt lat="45.12704" lon="6.11132">
        <ele>2719.6</ele>
        <time>2021-03-10T09:06:14Z</time>
      </trkpt>
      <trkpt lat="45.12704" lon="6.11133">
        <ele>2719.7</ele>
        <time>2021-03-10T09:06:15Z</time>
      </trkpt>
      <trkpt lat="45.12704" lon="6.11134">
        <ele>2719.7</ele>
        <time>2021-03-10T09:06:16Z</time>
      </trkpt>
      <trkpt lat="45.12705" lon="6.11135">
        <ele>2719.7</ele>
        <time>2021-03-10T09:06:17Z</time>
      </trkpt>
      <trkpt lat="45.12705" lon="6.11136">
        <ele>2719.7</ele>
        <time>2021-03-10T09:06:18Z</time>
      </trkpt>
      <trkpt lat="45.12705" lon="6.11137">
        <ele>2719.8</ele>
        <time>2021-03-10T09:06:19Z</time>
      </trkpt>
      <trkpt lat="45.12705" lon="6.11138">
        <ele>2719.8</ele>
        <time>2021-03-10T09:06:20Z</time>
      </trkpt>
      <trkpt lat="45.12706" lon="6.11139">
        <ele>2719.8</ele>
        <time>2021-03-10T09:06:21Z</time>
      </trkpt>
      <trkpt lat="45.12706" lon="6.11141">
        <ele>2719.9</ele>
        <time>2021-03-10T09:06:22Z</time>
      </trkpt>
      <trkpt lat="45.12706" lon="6.11142">
        <ele>2719.9</ele>
        <time>2021-03-10T09:06:23Z</time>
      </trkpt>
      <trkpt lat="45.12706" lon="6.11143">
        <ele>2719.9</ele>
        <time>2021-03-10T09:06:24Z</time>
      </trkpt>
      <trkpt lat="45.12706" lon="6.11144">
        <ele>2720</ele>
        <time>2021-03-10T09:06:25Z</time>
      </trkpt>
      <trkpt lat="45.12707" lon="6.11146">
        <ele>2720</ele>
        <time>2021-03-10T09:06:26Z</time>
      </trkpt>
      <trkpt lat="45.12707" lon="6.11146">
        <ele>2720.1</ele>
        <time>2021-03-10T09:06:27Z</time>
      </trkpt>
      <trkpt lat="45.12708" lon="6.11147">
        <ele>2720.1</ele>
        <time>2021-03-10T09:06:28Z</time>
      </trkpt>
      <trkpt lat="45.12708" lon="6.11148">
        <ele>2720.1</ele>
        <time>2021-03-10T09:06:29Z</time>
      </trkpt>
      <trkpt lat="45.12708" lon="6.11149">
        <ele>2720.2</ele>
        <time>2021-03-10T09:06:30Z</time>
      </trkpt>
      <trkpt lat="45.12709" lon="6.1115">
        <ele>2720.2</ele>
        <time>2021-03-10T09:06:31Z</time>
      </trkpt>
      <trkpt lat="45.12709" lon="6.11151">
        <ele>2720.2</ele>
        <time>2021-03-10T09:06:32Z</time>
      </trkpt>
      <trkpt lat="45.12709" lon="6.11152">
        <ele>2720.2</ele>
        <time>2021-03-10T09:06:33Z</time>
      </trkpt>
      <trkpt lat="45.1271" lon="6.11152">
        <ele>2720.3</ele>
        <time>2021-03-10T09:06:34Z</time>
      </trkpt>
      <trkpt lat="45.1271" lon="6.11153">
        <ele>2720.3</ele>
        <time>2021-03-10T09:06:35Z</time>
      </trkpt>
      <trkpt lat="45.1271" lon="6.11154">
        <ele>2720.3</ele>
        <time>2021-03-10T09:06:36Z</time>
      </trkpt>
      <trkpt lat="45.1271" lon="6.11155">
        <ele>2720.3</ele>
        <time>2021-03-10T09:06:37Z</time>
      </trkpt>
      <trkpt lat="45.12711" lon="6.11155">
        <ele>2720.4</ele>
        <time>2021-03-10T09:06:38Z</time>
      </trkpt>
      <trkpt lat="45.12711" lon="6.11156">
        <ele>2720.4</ele>
        <time>2021-03-10T09:06:39Z</time>
      </trkpt>
      <trkpt lat="45.12711" lon="6.11157">
        <ele>2720.4</ele>
        <time>2021-03-10T09:06:40Z</time>
      </trkpt>
      <trkpt lat="45.12712" lon="6.11158">
        <ele>2720.4</ele>
        <time>2021-03-10T09:06:41Z</time>
      </trkpt>
      <trkpt lat="45.12712" lon="6.11159">
        <ele>2720.5</ele>
        <time>2021-03-10T09:06:42Z</time>
      </trkpt>
      <trkpt lat="45.12712" lon="6.1116">
        <ele>2720.5</ele>
        <time>2021-03-10T09:06:43Z</time>
      </trkpt>
      <trkpt lat="45.12713" lon="6.11161">
        <ele>2720.5</ele>
        <time>2021-03-10T09:06:44Z</time>
      </trkpt>
      <trkpt lat="45.12713" lon="6.11162">
        <ele>2720.6</ele>
        <time>2021-03-10T09:06:45Z</time>
      </trkpt>
      <trkpt lat="45.12714" lon="6.11163">
        <ele>2720.6</ele>
        <time>2021-03-10T09:06:46Z</time>
      </trkpt>
      <trkpt lat="45.12714" lon="6.11164">
        <ele>2720.7</ele>
        <time>2021-03-10T09:06:47Z</time>
      </trkpt>
      <trkpt lat="45.12715" lon="6.11165">
        <ele>2720.7</ele>
        <time>2021-03-10T09:06:48Z</time>
      </trkpt>
      <trkpt lat="45.12715" lon="6.11166">
        <ele>2720.7</ele>
        <time>2021-03-10T09:06:49Z</time>
      </trkpt>
      <trkpt lat="45.12716" lon="6.11167">
        <ele>2720.8</ele>
        <time>2021-03-10T09:06:50Z</time>
      </trkpt>
      <trkpt lat="45.12716" lon="6.11168">
        <ele>2720.8</ele>
        <time>2021-03-10T09:06:51Z</time>
      </trkpt>
      <trkpt lat="45.12716" lon="6.11169">
        <ele>2720.8</ele>
        <time>2021-03-10T09:06:52Z</time>
      </trkpt>
      <trkpt lat="45.12717" lon="6.1117">
        <ele>2720.8</ele>
        <time>2021-03-10T09:06:53Z</time>
      </trkpt>
      <trkpt lat="45.12717" lon="6.1117">
        <ele>2720.9</ele>
        <time>2021-03-10T09:06:54Z</time>
      </trkpt>
      <trkpt lat="45.12718" lon="6.11171">
        <ele>2720.9</ele>
        <time>2021-03-10T09:06:55Z</time>
      </trkpt>
      <trkpt lat="45.12719" lon="6.11172">
        <ele>2720.9</ele>
        <time>2021-03-10T09:06:56Z</time>
      </trkpt>
      <trkpt lat="45.12719" lon="6.11172">
        <ele>2721</ele>
        <time>2021-03-10T09:06:57Z</time>
      </trkpt>
      <trkpt lat="45.1272" lon="6.11173">
        <ele>2721</ele>
        <time>2021-03-10T09:06:58Z</time>
      </trkpt>
      <trkpt lat="45.1272" lon="6.11174">
        <ele>2721</ele>
        <time>2021-03-10T09:06:59Z</time>
      </trkpt>
      <trkpt lat="45.12721" lon="6.11175">
        <ele>2721.1</ele>
        <time>2021-03-10T09:07:00Z</time>
      </trkpt>
      <trkpt lat="45.12722" lon="6.11176">
        <ele>2721.1</ele>
        <time>2021-03-10T09:07:01Z</time>
      </trkpt>
      <trkpt lat="45.12722" lon="6.11177">
        <ele>2721.2</ele>
        <time>2021-03-10T09:07:02Z</time>
      </trkpt>
      <trkpt lat="45.12723" lon="6.11177">
        <ele>2721.2</ele>
        <time>2021-03-10T09:07:03Z</time>
      </trkpt>
      <trkpt lat="45.12724" lon="6.11178">
        <ele>2721.2</ele>
        <time>2021-03-10T09:07:04Z</time>
      </trkpt>
      <trkpt lat="45.12724" lon="6.11178">
        <ele>2721.2</ele>
        <time>2021-03-10T09:07:05Z</time>
      </trkpt>
      <trkpt lat="45.12725" lon="6.11179">
        <ele>2721.3</ele>
        <time>2021-03-10T09:07:06Z</time>
      </trkpt>
      <trkpt lat="45.12725" lon="6.1118">
        <ele>2721.3</ele>
        <time>2021-03-10T09:07:07Z</time>
      </trkpt>
      <trkpt lat="45.12726" lon="6.11181">
        <ele>2721.3</ele>
        <time>2021-03-10T09:07:08Z</time>
      </trkpt>
      <trkpt lat="45.12726" lon="6.11181">
        <ele>2721.4</ele>
        <time>2021-03-10T09:07:09Z</time>
      </trkpt>
      <trkpt lat="45.12727" lon="6.11182">
        <ele>2721.4</ele>
        <time>2021-03-10T09:07:10Z</time>
      </trkpt>
      <trkpt lat="45.12727" lon="6.11183">
        <ele>2721.4</ele>
        <time>2021-03-10T09:07:11Z</time>
      </trkpt>
      <trkpt lat="45.12728" lon="6.11184">
        <ele>2721.5</ele>
        <time>2021-03-10T09:07:12Z</time>
      </trkpt>
      <trkpt lat="45.12728" lon="6.11185">
        <ele>2721.5</ele>
        <time>2021-03-10T09:07:13Z</time>
      </trkpt>
      <trkpt lat="45.12729" lon="6.11186">
        <ele>2721.5</ele>
        <time>2021-03-10T09:07:14Z</time>
      </trkpt>
      <trkpt lat="45.1273" lon="6.11187">
        <ele>2721.6</ele>
        <time>2021-03-10T09:07:15Z</time>
      </trkpt>
      <trkpt lat="45.12731" lon="6.11188">
        <ele>2721.6</ele>
        <time>2021-03-10T09:07:16Z</time>
      </trkpt>
      <trkpt lat="45.12732" lon="6.11189">
        <ele>2721.7</ele>
        <time>2021-03-10T09:07:17Z</time>
      </trkpt>
      <trkpt lat="45.12732" lon="6.1119">
        <ele>2721.7</ele>
        <time>2021-03-10T09:07:18Z</time>
      </trkpt>
      <trkpt lat="45.12733" lon="6.11191">
        <ele>2721.8</ele>
        <time>2021-03-10T09:07:19Z</time>
      </trkpt>
      <trkpt lat="45.12734" lon="6.11192">
        <ele>2721.8</ele>
        <time>2021-03-10T09:07:20Z</time>
      </trkpt>
      <trkpt lat="45.12735" lon="6.11192">
        <ele>2721.8</ele>
        <time>2021-03-10T09:07:21Z</time>
      </trkpt>
      <trkpt lat="45.12735" lon="6.11193">
        <ele>2721.9</ele>
        <time>2021-03-10T09:07:22Z</time>
      </trkpt>
      <trkpt lat="45.12736" lon="6.11194">
        <ele>2721.9</ele>
        <time>2021-03-10T09:07:23Z</time>
      </trkpt>
      <trkpt lat="45.12736" lon="6.11194">
        <ele>2721.9</ele>
        <time>2021-03-10T09:07:24Z</time>
      </trkpt>
      <trkpt lat="45.12737" lon="6.11195">
        <ele>2722</ele>
        <time>2021-03-10T09:07:25Z</time>
      </trkpt>
      <trkpt lat="45.12737" lon="6.11196">
        <ele>2722</ele>
        <time>2021-03-10T09:07:26Z</time>
      </trkpt>
      <trkpt lat="45.12738" lon="6.11196">
        <ele>2722</ele>
        <time>2021-03-10T09:07:27Z</time>
      </trkpt>
      <trkpt lat="45.12738" lon="6.11197">
        <ele>2722</ele>
        <time>2021-03-10T09:07:28Z</time>
      </trkpt>
      <trkpt lat="45.12738" lon="6.11197">
        <ele>2722.1</ele>
        <time>2021-03-10T09:07:29Z</time>
      </trkpt>
      <trkpt lat="45.12739" lon="6.11198">
        <ele>2722.1</ele>
        <time>2021-03-10T09:07:30Z</time>
      </trkpt>
      <trkpt lat="45.1274" lon="6.11198">
        <ele>2722.1</ele>
        <time>2021-03-10T09:07:31Z</time>
      </trkpt>
      <trkpt lat="45.1274" lon="6.11199">
        <ele>2722.1</ele>
        <time>2021-03-10T09:07:32Z</time>
      </trkpt>
      <trkpt lat="45.12741" lon="6.11199">
        <ele>2722.2</ele>
        <time>2021-03-10T09:07:33Z</time>
      </trkpt>
      <trkpt lat="45.12742" lon="6.11199">
        <ele>2722.2</ele>
        <time>2021-03-10T09:07:34Z</time>
      </trkpt>
      <trkpt lat="45.12743" lon="6.112">
        <ele>2722.2</ele>
        <time>2021-03-10T09:07:35Z</time>
      </trkpt>
      <trkpt lat="45.12743" lon="6.11201">
        <ele>2722.3</ele>
        <time>2021-03-10T09:07:36Z</time>
      </trkpt>
      <trkpt lat="45.12744" lon="6.11201">
        <ele>2722.3</ele>
        <time>2021-03-10T09:07:37Z</time>
      </trkpt>
      <trkpt lat="45.12745" lon="6.11202">
        <ele>2722.4</ele>
        <time>2021-03-10T09:07:38Z</time>
      </trkpt>
      <trkpt lat="45.12745" lon="6.11203">
        <ele>2722.4</ele>
        <time>2021-03-10T09:07:39Z</time>
      </trkpt>
      <trkpt lat="45.12746" lon="6.11204">
        <ele>2722.4</ele>
        <time>2021-03-10T09:07:40Z</time>
      </trkpt>
      <trkpt lat="45.12748" lon="6.11205">
        <ele>2722.5</ele>
        <time>2021-03-10T09:07:41Z</time>
      </trkpt>
      <trkpt lat="45.12748" lon="6.11205">
        <ele>2722.5</ele>
        <time>2021-03-10T09:07:42Z</time>
      </trkpt>
      <trkpt lat="45.12749" lon="6.11205">
        <ele>2722.6</ele>
        <time>2021-03-10T09:07:43Z</time>
      </trkpt>
      <trkpt lat="45.1275" lon="6.11205">
        <ele>2722.6</ele>
        <time>2021-03-10T09:07:44Z</time>
      </trkpt>
      <trkpt lat="45.12751" lon="6.11206">
        <ele>2722.6</ele>
        <time>2021-03-10T09:07:45Z</time>
      </trkpt>
      <trkpt lat="45.12752" lon="6.11206">
        <ele>2722.7</ele>
        <time>2021-03-10T09:07:46Z</time>
      </trkpt>
      <trkpt lat="45.12753" lon="6.11206">
        <ele>2722.7</ele>
        <time>2021-03-10T09:07:47Z</time>
      </trkpt>
      <trkpt lat="45.12754" lon="6.11206">
        <ele>2722.7</ele>
        <time>2021-03-10T09:07:48Z</time>
      </trkpt>
      <trkpt lat="45.12754" lon="6.11206">
        <ele>2722.8</ele>
        <time>2021-03-10T09:07:49Z</time>
      </trkpt>
      <trkpt lat="45.12755" lon="6.11206">
        <ele>2722.8</ele>
        <time>2021-03-10T09:07:50Z</time>
      </trkpt>
      <trkpt lat="45.12756" lon="6.11207">
        <ele>2722.9</ele>
        <time>2021-03-10T09:07:51Z</time>
      </trkpt>
      <trkpt lat="45.12757" lon="6.11207">
        <ele>2722.9</ele>
        <time>2021-03-10T09:07:52Z</time>
      </trkpt>
      <trkpt lat="45.12757" lon="6.11207">
        <ele>2722.9</ele>
        <time>2021-03-10T09:07:53Z</time>
      </trkpt>
      <trkpt lat="45.12757" lon="6.11207">
        <ele>2722.9</ele>
        <time>2021-03-10T09:07:54Z</time>
      </trkpt>
      <trkpt lat="45.12757" lon="6.11207">
        <ele>2722.9</ele>
        <time>2021-03-10T09:07:55Z</time>
      </trkpt>
      <trkpt lat="45.12757" lon="6.11207">
        <ele>2722.9</ele>
        <time>2021-03-10T09:07:56Z</time>
      </trkpt>
      <trkpt lat="45.12757" lon="6.11207">
        <ele>2722.9</ele>
        <time>2021-03-10T09:07:57Z</time>
      </trkpt>
      <trkpt lat="45.12757" lon="6.11207">
        <ele>2722.9</ele>
        <time>2021-03-10T09:07:58Z</time>
      </trkpt>
      <trkpt lat="45.12757" lon="6.11207">
        <ele>2722.9</ele>
        <time>2021-03-10T09:07:59Z</time>
      </trkpt>
      <trkpt lat="45.12757" lon="6.11207">
        <ele>2722.9</ele>
        <time>2021-03-10T09:08:00Z</time>
      </trkpt>
      <trkpt lat="45.12757" lon="6.11208">
        <ele>2723</ele>
        <time>2021-03-10T09:08:01Z</time>
      </trkpt>
      <trkpt lat="45.12757" lon="6.11209">
        <ele>2723</ele>
        <time>2021-03-10T09:08:02Z</time>
      </trkpt>
      <trkpt lat="45.12758" lon="6.11215">
        <ele>2723.2</ele>
        <time>2021-03-10T09:08:11Z</time>
      </trkpt>
      <trkpt lat="45.12758" lon="6.11216">
        <ele>2723.2</ele>
        <time>2021-03-10T09:08:12Z</time>
      </trkpt>
      <trkpt lat="45.12758" lon="6.11217">
        <ele>2723.2</ele>
        <time>2021-03-10T09:08:13Z</time>
      </trkpt>
      <trkpt lat="45.12758" lon="6.11218">
        <ele>2723.3</ele>
        <time>2021-03-10T09:08:14Z</time>
      </trkpt>
      <trkpt lat="45.12758" lon="6.11219">
        <ele>2723.3</ele>
        <time>2021-03-10T09:08:15Z</time>
      </trkpt>
      <trkpt lat="45.12758" lon="6.1122">
        <ele>2723.3</ele>
        <time>2021-03-10T09:08:16Z</time>
      </trkpt>
      <trkpt lat="45.12757" lon="6.11221">
        <ele>2723.3</ele>
        <time>2021-03-10T09:08:17Z</time>
      </trkpt>
      <trkpt lat="45.12757" lon="6.11222">
        <ele>2723.4</ele>
        <time>2021-03-10T09:08:18Z</time>
      </trkpt>
      <trkpt lat="45.12757" lon="6.11222">
        <ele>2723.4</ele>
        <time>2021-03-10T09:08:19Z</time>
      </trkpt>
      <trkpt lat="45.12758" lon="6.11223">
        <ele>2723.4</ele>
        <time>2021-03-10T09:08:20Z</time>
      </trkpt>
      <trkpt lat="45.12758" lon="6.11224">
        <ele>2723.4</ele>
        <time>2021-03-10T09:08:21Z</time>
      </trkpt>
      <trkpt lat="45.12758" lon="6.11225">
        <ele>2723.5</ele>
        <time>2021-03-10T09:08:22Z</time>
      </trkpt>
      <trkpt lat="45.12759" lon="6.11226">
        <ele>2723.5</ele>
        <time>2021-03-10T09:08:23Z</time>
      </trkpt>
      <trkpt lat="45.12759" lon="6.11227">
        <ele>2723.5</ele>
        <time>2021-03-10T09:08:24Z</time>
      </trkpt>
      <trkpt lat="45.1276" lon="6.11228">
        <ele>2723.6</ele>
        <time>2021-03-10T09:08:25Z</time>
      </trkpt>
      <trkpt lat="45.1276" lon="6.11228">
        <ele>2723.6</ele>
        <time>2021-03-10T09:08:26Z</time>
      </trkpt>
      <trkpt lat="45.12761" lon="6.11229">
        <ele>2723.6</ele>
        <time>2021-03-10T09:08:27Z</time>
      </trkpt>
      <trkpt lat="45.12762" lon="6.1123">
        <ele>2723.7</ele>
        <time>2021-03-10T09:08:28Z</time>
      </trkpt>
      <trkpt lat="45.12763" lon="6.1123">
        <ele>2723.7</ele>
        <time>2021-03-10T09:08:29Z</time>
      </trkpt>
      <trkpt lat="45.12764" lon="6.11231">
        <ele>2723.8</ele>
        <time>2021-03-10T09:08:30Z</time>
      </trkpt>
      <trkpt lat="45.12764" lon="6.11231">
        <ele>2723.8</ele>
        <time>2021-03-10T09:08:31Z</time>
      </trkpt>
      <trkpt lat="45.12765" lon="6.1123">
        <ele>2723.8</ele>
        <time>2021-03-10T09:08:32Z</time>
      </trkpt>
      <trkpt lat="45.12766" lon="6.1123">
        <ele>2723.9</ele>
        <time>2021-03-10T09:08:33Z</time>
      </trkpt>
      <trkpt lat="45.12767" lon="6.11229">
        <ele>2723.9</ele>
        <time>2021-03-10T09:08:34Z</time>
      </trkpt>
      <trkpt lat="45.12769" lon="6.11228">
        <ele>2724</ele>
        <time>2021-03-10T09:08:35Z</time>
      </trkpt>
      <trkpt lat="45.1277" lon="6.11227">
        <ele>2724.1</ele>
        <time>2021-03-10T09:08:36Z</time>
      </trkpt>
      <trkpt lat="45.12771" lon="6.11226">
        <ele>2724.1</ele>
        <time>2021-03-10T09:08:37Z</time>
      </trkpt>
      <trkpt lat="45.12771" lon="6.11225">
        <ele>2724.1</ele>
        <time>2021-03-10T09:08:38Z</time>
      </trkpt>
      <trkpt lat="45.12772" lon="6.11224">
        <ele>2724.2</ele>
        <time>2021-03-10T09:08:39Z</time>
      </trkpt>
      <trkpt lat="45.12772" lon="6.11223">
        <ele>2724.2</ele>
        <time>2021-03-10T09:08:40Z</time>
      </trkpt>
      <trkpt lat="45.12772" lon="6.11222">
        <ele>2724.2</ele>
        <time>2021-03-10T09:08:41Z</time>
      </trkpt>
      <trkpt lat="45.12771" lon="6.11222">
        <ele>2724</ele>
        <time>2021-03-10T09:08:42Z</time>
      </trkpt>
      <trkpt lat="45.12771" lon="6.11221">
        <ele>2724</ele>
        <time>2021-03-10T09:08:43Z</time>
      </trkpt>
      <trkpt lat="45.1277" lon="6.1122">
        <ele>2724</ele>
        <time>2021-03-10T09:08:44Z</time>
      </trkpt>
      <trkpt lat="45.1277" lon="6.1122">
        <ele>2724</ele>
        <time>2021-03-10T09:08:45Z</time>
      </trkpt>
      <trkpt lat="45.1277" lon="6.1122">
        <ele>2724</ele>
        <time>2021-03-10T09:08:46Z</time>
      </trkpt>
      <trkpt lat="45.1277" lon="6.11219">
        <ele>2724</ele>
        <time>2021-03-10T09:08:47Z</time>
      </trkpt>
      <trkpt lat="45.12769" lon="6.11219">
        <ele>2724</ele>
        <time>2021-03-10T09:08:48Z</time>
      </trkpt>
      <trkpt lat="45.12769" lon="6.11216">
        <ele>2723.5</ele>
        <time>2021-03-10T09:08:49Z</time>
      </trkpt>
      <trkpt lat="45.12769" lon="6.11215">
        <ele>2723.5</ele>
        <time>2021-03-10T09:08:50Z</time>
      </trkpt>
      <trkpt lat="45.12769" lon="6.11214">
        <ele>2723.5</ele>
        <time>2021-03-10T09:08:51Z</time>
      </trkpt>
      <trkpt lat="45.12769" lon="6.11214">
        <ele>2723.5</ele>
        <time>2021-03-10T09:08:52Z</time>
      </trkpt>
      <trkpt lat="45.12768" lon="6.11214">
        <ele>2723.9</ele>
        <time>2021-03-10T09:08:53Z</time>
      </trkpt>
      <trkpt lat="45.12768" lon="6.11214">
        <ele>2723.9</ele>
        <time>2021-03-10T09:08:54Z</time>
      </trkpt>
      <trkpt lat="45.12768" lon="6.11214">
        <ele>2723.9</ele>
        <time>2021-03-10T09:08:55Z</time>
      </trkpt>
      <trkpt lat="45.12768" lon="6.11215">
        <ele>2723.9</ele>
        <time>2021-03-10T09:08:56Z</time>
      </trkpt>
      <trkpt lat="45.12768" lon="6.11215">
        <ele>2723.9</ele>
        <time>2021-03-10T09:08:57Z</time>
      </trkpt>
      <trkpt lat="45.12768" lon="6.11215">
        <ele>2723.9</ele>
        <time>2021-03-10T09:08:58Z</time>
      </trkpt>
      <trkpt lat="45.12768" lon="6.11215">
        <ele>2723.9</ele>
        <time>2021-03-10T09:08:59Z</time>
      </trkpt>
      <trkpt lat="45.12768" lon="6.11215">
        <ele>2723.9</ele>
        <time>2021-03-10T09:09:00Z</time>
      </trkpt>
      <trkpt lat="45.12768" lon="6.11214">
        <ele>2723.9</ele>
        <time>2021-03-10T09:09:01Z</time>
      </trkpt>
      <trkpt lat="45.12759" lon="6.11205">
        <ele>2724.2</ele>
        <time>2021-03-10T09:17:56Z</time>
      </trkpt>
      <trkpt lat="45.12759" lon="6.11205">
        <ele>2724.2</ele>
        <time>2021-03-10T09:17:57Z</time>
      </trkpt>
      <trkpt lat="45.12759" lon="6.11205">
        <ele>2724.2</ele>
        <time>2021-03-10T09:17:58Z</time>
      </trkpt>
      <trkpt lat="45.12759" lon="6.11205">
        <ele>2724.2</ele>
        <time>2021-03-10T09:17:59Z</time>
      </trkpt>
      <trkpt lat="45.12759" lon="6.11206">
        <ele>2724.2</ele>
        <time>2021-03-10T09:18:00Z</time>
      </trkpt>
      <trkpt lat="45.12759" lon="6.11206">
        <ele>2724.2</ele>
        <time>2021-03-10T09:18:01Z</time>
      </trkpt>
      <trkpt lat="45.12759" lon="6.11206">
        <ele>2724.2</ele>
        <time>2021-03-10T09:18:02Z</time>
      </trkpt>
      <trkpt lat="45.12759" lon="6.11206">
        <ele>2724.2</ele>
        <time>2021-03-10T09:18:03Z</time>
      </trkpt>
      <trkpt lat="45.12759" lon="6.11206">
        <ele>2724.2</ele>
        <time>2021-03-10T09:18:04Z</time>
      </trkpt>
      <trkpt lat="45.12759" lon="6.11205">
        <ele>2724.2</ele>
        <time>2021-03-10T09:18:05Z</time>
      </trkpt>
      <trkpt lat="45.12765" lon="6.1121">
        <ele>2723.8</ele>
        <time>2021-03-10T09:18:59Z</time>
      </trkpt>
      <trkpt lat="45.12765" lon="6.11211">
        <ele>2723.8</ele>
        <time>2021-03-10T09:19:00Z</time>
      </trkpt>
      <trkpt lat="45.12766" lon="6.11211">
        <ele>2723.4</ele>
        <time>2021-03-10T09:19:01Z</time>
      </trkpt>
      <trkpt lat="45.12767" lon="6.11212">
        <ele>2723.4</ele>
        <time>2021-03-10T09:19:02Z</time>
      </trkpt>
      <trkpt lat="45.12767" lon="6.11212">
        <ele>2723.4</ele>
        <time>2021-03-10T09:19:03Z</time>
      </trkpt>
      <trkpt lat="45.12768" lon="6.11212">
        <ele>2723.4</ele>
        <time>2021-03-10T09:19:04Z</time>
      </trkpt>
      <trkpt lat="45.12768" lon="6.11213">
        <ele>2723.4</ele>
        <time>2021-03-10T09:19:05Z</time>
      </trkpt>
      <trkpt lat="45.12768" lon="6.11213">
        <ele>2723.4</ele>
        <time>2021-03-10T09:19:06Z</time>
      </trkpt>
      <trkpt lat="45.12768" lon="6.11213">
        <ele>2723.4</ele>
        <time>2021-03-10T09:19:07Z</time>
      </trkpt>
      <trkpt lat="45.12768" lon="6.11213">
        <ele>2723.4</ele>
        <time>2021-03-10T09:19:08Z</time>
      </trkpt>
      <trkpt lat="45.12768" lon="6.11214">
        <ele>2723.9</ele>
        <time>2021-03-10T09:19:09Z</time>
      </trkpt>
      <trkpt lat="45.12768" lon="6.11214">
        <ele>2723.9</ele>
        <time>2021-03-10T09:19:10Z</time>
      </trkpt>
      <trkpt lat="45.12769" lon="6.11214">
        <ele>2723.5</ele>
        <time>2021-03-10T09:19:11Z</time>
      </trkpt>
      <trkpt lat="45.12769" lon="6.11214">
        <ele>2723.5</ele>
        <time>2021-03-10T09:19:12Z</time>
      </trkpt>
      <trkpt lat="45.12769" lon="6.11214">
        <ele>2723.5</ele>
        <time>2021-03-10T09:19:13Z</time>
      </trkpt>
      <trkpt lat="45.12772" lon="6.11218">
        <ele>2723.6</ele>
        <time>2021-03-10T09:20:48Z</time>
      </trkpt>
      <trkpt lat="45.12773" lon="6.11219">
        <ele>2723.6</ele>
        <time>2021-03-10T09:20:49Z</time>
      </trkpt>
      <trkpt lat="45.12774" lon="6.1122">
        <ele>2723.6</ele>
        <time>2021-03-10T09:20:50Z</time>
      </trkpt>
      <trkpt lat="45.12775" lon="6.11221">
        <ele>2723.3</ele>
        <time>2021-03-10T09:20:51Z</time>
      </trkpt>
      <trkpt lat="45.12775" lon="6.11222">
        <ele>2723.8</ele>
        <time>2021-03-10T09:20:52Z</time>
      </trkpt>
      <trkpt lat="45.12775" lon="6.11223">
        <ele>2723.8</ele>
        <time>2021-03-10T09:20:53Z</time>
      </trkpt>
      <trkpt lat="45.12775" lon="6.11224">
        <ele>2723.8</ele>
        <time>2021-03-10T09:20:54Z</time>
      </trkpt>
      <trkpt lat="45.12776" lon="6.11225">
        <ele>2723.8</ele>
        <time>2021-03-10T09:20:55Z</time>
      </trkpt>
      <trkpt lat="45.12776" lon="6.11226">
        <ele>2723.8</ele>
        <time>2021-03-10T09:20:56Z</time>
      </trkpt>
      <trkpt lat="45.12776" lon="6.11227">
        <ele>2724.3</ele>
        <time>2021-03-10T09:20:57Z</time>
      </trkpt>
      <trkpt lat="45.12776" lon="6.11228">
        <ele>2724.3</ele>
        <time>2021-03-10T09:20:58Z</time>
      </trkpt>
      <trkpt lat="45.12777" lon="6.11229">
        <ele>2724.3</ele>
        <time>2021-03-10T09:20:59Z</time>
      </trkpt>
      <trkpt lat="45.12777" lon="6.1123">
        <ele>2724.3</ele>
        <time>2021-03-10T09:21:00Z</time>
      </trkpt>
      <trkpt lat="45.12777" lon="6.11231">
        <ele>2724.8</ele>
        <time>2021-03-10T09:21:01Z</time>
      </trkpt>
      <trkpt lat="45.12777" lon="6.11232">
        <ele>2724.8</ele>
        <time>2021-03-10T09:21:02Z</time>
      </trkpt>
      <trkpt lat="45.12778" lon="6.11232">
        <ele>2724.5</ele>
        <time>2021-03-10T09:21:03Z</time>
      </trkpt>
      <trkpt lat="45.12778" lon="6.11232">
        <ele>2724.5</ele>
        <time>2021-03-10T09:21:04Z</time>
      </trkpt>
      <trkpt lat="45.12778" lon="6.11232">
        <ele>2724.5</ele>
        <time>2021-03-10T09:21:05Z</time>
      </trkpt>
      <trkpt lat="45.12778" lon="6.11232">
        <ele>2724.5</ele>
        <time>2021-03-10T09:21:06Z</time>
      </trkpt>
      <trkpt lat="45.12778" lon="6.11232">
        <ele>2724.5</ele>
        <time>2021-03-10T09:21:07Z</time>
      </trkpt>
      <trkpt lat="45.12778" lon="6.11232">
        <ele>2724.5</ele>
        <time>2021-03-10T09:21:08Z</time>
      </trkpt>
      <trkpt lat="45.12778" lon="6.11232">
        <ele>2724.5</ele>
        <time>2021-03-10T09:21:09Z</time>
      </trkpt>
      <trkpt lat="45.12778" lon="6.11232">
        <ele>2724.5</ele>
        <time>2021-03-10T09:21:10Z</time>
      </trkpt>
      <trkpt lat="45.12778" lon="6.11232">
        <ele>2724.5</ele>
        <time>2021-03-10T09:21:11Z</time>
      </trkpt>
      <trkpt lat="45.12778" lon="6.11232">
        <ele>2724.5</ele>
        <time>2021-03-10T09:21:12Z</time>
      </trkpt>
      <trkpt lat="45.12777" lon="6.11242">
        <ele>2725.9</ele>
        <time>2021-03-10T09:21:47Z</time>
      </trkpt>
      <trkpt lat="45.12777" lon="6.11243">
        <ele>2725.9</ele>
        <time>2021-03-10T09:21:48Z</time>
      </trkpt>
      <trkpt lat="45.12777" lon="6.11245">
        <ele>2726.4</ele>
        <time>2021-03-10T09:21:49Z</time>
      </trkpt>
      <trkpt lat="45.12777" lon="6.11246">
        <ele>2726.4</ele>
        <time>2021-03-10T09:21:50Z</time>
      </trkpt>
      <trkpt lat="45.12777" lon="6.11247">
        <ele>2726.4</ele>
        <time>2021-03-10T09:21:51Z</time>
      </trkpt>
      <trkpt lat="45.12778" lon="6.11248">
        <ele>2726.6</ele>
        <time>2021-03-10T09:21:52Z</time>
      </trkpt>
      <trkpt lat="45.12778" lon="6.11249">
        <ele>2726.6</ele>
        <time>2021-03-10T09:21:53Z</time>
      </trkpt>
      <trkpt lat="45.12778" lon="6.1125">
        <ele>2726.6</ele>
        <time>2021-03-10T09:21:54Z</time>
      </trkpt>
      <trkpt lat="45.12779" lon="6.11251">
        <ele>2726.6</ele>
        <time>2021-03-10T09:21:55Z</time>
      </trkpt>
      <trkpt lat="45.12779" lon="6.11252">
        <ele>2726.6</ele>
        <time>2021-03-10T09:21:56Z</time>
      </trkpt>
      <trkpt lat="45.12779" lon="6.11252">
        <ele>2727.3</ele>
        <time>2021-03-10T09:21:57Z</time>
      </trkpt>
      <trkpt lat="45.12779" lon="6.11253">
        <ele>2727.3</ele>
        <time>2021-03-10T09:21:58Z</time>
      </trkpt>
      <trkpt lat="45.12779" lon="6.11254">
        <ele>2727.3</ele>
        <time>2021-03-10T09:21:59Z</time>
      </trkpt>
      <trkpt lat="45.12779" lon="6.11254">
        <ele>2727.3</ele>
        <time>2021-03-10T09:22:00Z</time>
      </trkpt>
      <trkpt lat="45.12779" lon="6.11255">
        <ele>2727.3</ele>
        <time>2021-03-10T09:22:01Z</time>
      </trkpt>
      <trkpt lat="45.12779" lon="6.11256">
        <ele>2727.3</ele>
        <time>2021-03-10T09:22:02Z</time>
      </trkpt>
      <trkpt lat="45.12779" lon="6.11257">
        <ele>2727.9</ele>
        <time>2021-03-10T09:22:03Z</time>
      </trkpt>
      <trkpt lat="45.12779" lon="6.11258">
        <ele>2727.9</ele>
        <time>2021-03-10T09:22:04Z</time>
      </trkpt>
      <trkpt lat="45.12779" lon="6.11259">
        <ele>2727.9</ele>
        <time>2021-03-10T09:22:05Z</time>
      </trkpt>
      <trkpt lat="45.12779" lon="6.1126">
        <ele>2727.9</ele>
        <time>2021-03-10T09:22:06Z</time>
      </trkpt>
      <trkpt lat="45.12779" lon="6.11261">
        <ele>2728.5</ele>
        <time>2021-03-10T09:22:07Z</time>
      </trkpt>
      <trkpt lat="45.1278" lon="6.11262">
        <ele>2728.5</ele>
        <time>2021-03-10T09:22:08Z</time>
      </trkpt>
      <trkpt lat="45.1278" lon="6.11263">
        <ele>2728.5</ele>
        <time>2021-03-10T09:22:09Z</time>
      </trkpt>
      <trkpt lat="45.1278" lon="6.11265">
        <ele>2728.5</ele>
        <time>2021-03-10T09:22:10Z</time>
      </trkpt>
      <trkpt lat="45.12781" lon="6.11266">
        <ele>2728.6</ele>
        <time>2021-03-10T09:22:11Z</time>
      </trkpt>
      <trkpt lat="45.12781" lon="6.11267">
        <ele>2728.6</ele>
        <time>2021-03-10T09:22:12Z</time>
      </trkpt>
      <trkpt lat="45.12781" lon="6.11268">
        <ele>2728.6</ele>
        <time>2021-03-10T09:22:13Z</time>
      </trkpt>
      <trkpt lat="45.12781" lon="6.1127">
        <ele>2729.3</ele>
        <time>2021-03-10T09:22:14Z</time>
      </trkpt>
      <trkpt lat="45.12782" lon="6.11271">
        <ele>2729.3</ele>
        <time>2021-03-10T09:22:15Z</time>
      </trkpt>
      <trkpt lat="45.12782" lon="6.11272">
        <ele>2729.3</ele>
        <time>2021-03-10T09:22:16Z</time>
      </trkpt>
      <trkpt lat="45.12782" lon="6.11273">
        <ele>2729.3</ele>
        <time>2021-03-10T09:22:17Z</time>
      </trkpt>
      <trkpt lat="45.12783" lon="6.11274">
        <ele>2730</ele>
        <time>2021-03-10T09:22:18Z</time>
      </trkpt>
      <trkpt lat="45.12783" lon="6.11275">
        <ele>2730</ele>
        <time>2021-03-10T09:22:19Z</time>
      </trkpt>
      <trkpt lat="45.12784" lon="6.11276">
        <ele>2729.7</ele>
        <time>2021-03-10T09:22:20Z</time>
      </trkpt>
      <trkpt lat="45.12784" lon="6.11277">
        <ele>2729.7</ele>
        <time>2021-03-10T09:22:21Z</time>
      </trkpt>
      <trkpt lat="45.12785" lon="6.11279">
        <ele>2730.4</ele>
        <time>2021-03-10T09:22:22Z</time>
      </trkpt>
      <trkpt lat="45.12785" lon="6.11279">
        <ele>2730.4</ele>
        <time>2021-03-10T09:22:23Z</time>
      </trkpt>
      <trkpt lat="45.12786" lon="6.1128">
        <ele>2730.4</ele>
        <time>2021-03-10T09:22:24Z</time>
      </trkpt>
      <trkpt lat="45.12786" lon="6.11281">
        <ele>2730.4</ele>
        <time>2021-03-10T09:22:25Z</time>
      </trkpt>
      <trkpt lat="45.12787" lon="6.11282">
        <ele>2730.8</ele>
        <time>2021-03-10T09:22:26Z</time>
      </trkpt>
      <trkpt lat="45.12787" lon="6.11283">
        <ele>2730.8</ele>
        <time>2021-03-10T09:22:27Z</time>
      </trkpt>
      <trkpt lat="45.12788" lon="6.11284">
        <ele>2730.8</ele>
        <time>2021-03-10T09:22:28Z</time>
      </trkpt>
      <trkpt lat="45.12788" lon="6.11285">
        <ele>2730.8</ele>
        <time>2021-03-10T09:22:29Z</time>
      </trkpt>
      <trkpt lat="45.12789" lon="6.11285">
        <ele>2730.8</ele>
        <time>2021-03-10T09:22:30Z</time>
      </trkpt>
      <trkpt lat="45.12789" lon="6.11286">
        <ele>2731.6</ele>
        <time>2021-03-10T09:22:31Z</time>
      </trkpt>
      <trkpt lat="45.1279" lon="6.11287">
        <ele>2731.4</ele>
        <time>2021-03-10T09:22:32Z</time>
      </trkpt>
      <trkpt lat="45.1279" lon="6.11288">
        <ele>2731.4</ele>
        <time>2021-03-10T09:22:33Z</time>
      </trkpt>
      <trkpt lat="45.12791" lon="6.11289">
        <ele>2731.4</ele>
        <time>2021-03-10T09:22:34Z</time>
      </trkpt>
      <trkpt lat="45.12791" lon="6.1129">
        <ele>2731.4</ele>
        <time>2021-03-10T09:22:35Z</time>
      </trkpt>
      <trkpt lat="45.12792" lon="6.11291">
        <ele>2732.2</ele>
        <time>2021-03-10T09:22:36Z</time>
      </trkpt>
      <trkpt lat="45.12792" lon="6.11292">
        <ele>2732.2</ele>
        <time>2021-03-10T09:22:37Z</time>
      </trkpt>
      <trkpt lat="45.12793" lon="6.11293">
        <ele>2732.2</ele>
        <time>2021-03-10T09:22:38Z</time>
      </trkpt>
      <trkpt lat="45.12793" lon="6.11293">
        <ele>2732</ele>
        <time>2021-03-10T09:22:39Z</time>
      </trkpt>
      <trkpt lat="45.12793" lon="6.11294">
        <ele>2732</ele>
        <time>2021-03-10T09:22:40Z</time>
      </trkpt>
      <trkpt lat="45.12794" lon="6.11295">
        <ele>2732.8</ele>
        <time>2021-03-10T09:22:41Z</time>
      </trkpt>
      <trkpt lat="45.12794" lon="6.11296">
        <ele>2732.8</ele>
        <time>2021-03-10T09:22:42Z</time>
      </trkpt>
      <trkpt lat="45.12795" lon="6.11297">
        <ele>2732.8</ele>
        <time>2021-03-10T09:22:43Z</time>
      </trkpt>
      <trkpt lat="45.12795" lon="6.11298">
        <ele>2732.8</ele>
        <time>2021-03-10T09:22:44Z</time>
      </trkpt>
      <trkpt lat="45.12796" lon="6.11299">
        <ele>2732.6</ele>
        <time>2021-03-10T09:22:45Z</time>
      </trkpt>
      <trkpt lat="45.12796" lon="6.113">
        <ele>2733.5</ele>
        <time>2021-03-10T09:22:46Z</time>
      </trkpt>
      <trkpt lat="45.12797" lon="6.11301">
        <ele>2733.5</ele>
        <time>2021-03-10T09:22:47Z</time>
      </trkpt>
      <trkpt lat="45.12797" lon="6.11302">
        <ele>2733.5</ele>
        <time>2021-03-10T09:22:48Z</time>
      </trkpt>
      <trkpt lat="45.12798" lon="6.11303">
        <ele>2733.5</ele>
        <time>2021-03-10T09:22:49Z</time>
      </trkpt>
      <trkpt lat="45.12798" lon="6.11304">
        <ele>2734.3</ele>
        <time>2021-03-10T09:22:50Z</time>
      </trkpt>
      <trkpt lat="45.12799" lon="6.11305">
        <ele>2734.3</ele>
        <time>2021-03-10T09:22:51Z</time>
      </trkpt>
      <trkpt lat="45.12799" lon="6.11306">
        <ele>2734.2</ele>
        <time>2021-03-10T09:22:52Z</time>
      </trkpt>
      <trkpt lat="45.12799" lon="6.11307">
        <ele>2734.2</ele>
        <time>2021-03-10T09:22:53Z</time>
      </trkpt>
      <trkpt lat="45.128" lon="6.11308">
        <ele>2735</ele>
        <time>2021-03-10T09:22:54Z</time>
      </trkpt>
      <trkpt lat="45.128" lon="6.11309">
        <ele>2735</ele>
        <time>2021-03-10T09:22:55Z</time>
      </trkpt>
      <trkpt lat="45.128" lon="6.1131">
        <ele>2735</ele>
        <time>2021-03-10T09:22:56Z</time>
      </trkpt>
      <trkpt lat="45.12801" lon="6.1131">
        <ele>2735</ele>
        <time>2021-03-10T09:22:57Z</time>
      </trkpt>
      <trkpt lat="45.12801" lon="6.11311">
        <ele>2735</ele>
        <time>2021-03-10T09:22:58Z</time>
      </trkpt>
      <trkpt lat="45.12802" lon="6.11312">
        <ele>2735.8</ele>
        <time>2021-03-10T09:22:59Z</time>
      </trkpt>
      <trkpt lat="45.12802" lon="6.11313">
        <ele>2735.6</ele>
        <time>2021-03-10T09:23:00Z</time>
      </trkpt>
      <trkpt lat="45.12803" lon="6.11314">
        <ele>2735.6</ele>
        <time>2021-03-10T09:23:01Z</time>
      </trkpt>
      <trkpt lat="45.12803" lon="6.11315">
        <ele>2735.6</ele>
        <time>2021-03-10T09:23:02Z</time>
      </trkpt>
      <trkpt lat="45.12803" lon="6.11316">
        <ele>2735.6</ele>
        <time>2021-03-10T09:23:03Z</time>
      </trkpt>
      <trkpt lat="45.12804" lon="6.11316">
        <ele>2736.4</ele>
        <time>2021-03-10T09:23:04Z</time>
      </trkpt>
      <trkpt lat="45.12804" lon="6.11317">
        <ele>2736.4</ele>
        <time>2021-03-10T09:23:05Z</time>
      </trkpt>
      <trkpt lat="45.12805" lon="6.11318">
        <ele>2736.2</ele>
        <time>2021-03-10T09:23:06Z</time>
      </trkpt>
      <trkpt lat="45.12806" lon="6.11319">
        <ele>2736.2</ele>
        <time>2021-03-10T09:23:07Z</time>
      </trkpt>
      <trkpt lat="45.12806" lon="6.1132">
        <ele>2736.2</ele>
        <time>2021-03-10T09:23:08Z</time>
      </trkpt>
      <trkpt lat="45.12807" lon="6.11321">
        <ele>2737</ele>
        <time>2021-03-10T09:23:09Z</time>
      </trkpt>
      <trkpt lat="45.12807" lon="6.11322">
        <ele>2737</ele>
        <time>2021-03-10T09:23:10Z</time>
      </trkpt>
      <trkpt lat="45.12808" lon="6.11323">
        <ele>2736.8</ele>
        <time>2021-03-10T09:23:11Z</time>
      </trkpt>
      <trkpt lat="45.12809" lon="6.11323">
        <ele>2736.8</ele>
        <time>2021-03-10T09:23:12Z</time>
      </trkpt>
      <trkpt lat="45.12809" lon="6.11324">
        <ele>2736.8</ele>
        <time>2021-03-10T09:23:13Z</time>
      </trkpt>
      <trkpt lat="45.1281" lon="6.11325">
        <ele>2737.5</ele>
        <time>2021-03-10T09:23:14Z</time>
      </trkpt>
      <trkpt lat="45.1281" lon="6.11326">
        <ele>2737.5</ele>
        <time>2021-03-10T09:23:15Z</time>
      </trkpt>
      <trkpt lat="45.12811" lon="6.11327">
        <ele>2737.4</ele>
        <time>2021-03-10T09:23:16Z</time>
      </trkpt>
      <trkpt lat="45.12812" lon="6.11328">
        <ele>2737.4</ele>
        <time>2021-03-10T09:23:17Z</time>
      </trkpt>
      <trkpt lat="45.12812" lon="6.11329">
        <ele>2737.4</ele>
        <time>2021-03-10T09:23:18Z</time>
      </trkpt>
      <trkpt lat="45.12813" lon="6.1133">
        <ele>2738.2</ele>
        <time>2021-03-10T09:23:19Z</time>
      </trkpt>
      <trkpt lat="45.12813" lon="6.11331">
        <ele>2738.2</ele>
        <time>2021-03-10T09:23:20Z</time>
      </trkpt>
      <trkpt lat="45.12814" lon="6.11332">
        <ele>2738.1</ele>
        <time>2021-03-10T09:23:21Z</time>
      </trkpt>
      <trkpt lat="45.12815" lon="6.11333">
        <ele>2738.1</ele>
        <time>2021-03-10T09:23:22Z</time>
      </trkpt>
      <trkpt lat="45.12815" lon="6.11333">
        <ele>2738.9</ele>
        <time>2021-03-10T09:23:23Z</time>
      </trkpt>
      <trkpt lat="45.12816" lon="6.11334">
        <ele>2738.9</ele>
        <time>2021-03-10T09:23:24Z</time>
      </trkpt>
      <trkpt lat="45.12816" lon="6.11335">
        <ele>2738.9</ele>
        <time>2021-03-10T09:23:25Z</time>
      </trkpt>
      <trkpt lat="45.12817" lon="6.11335">
        <ele>2738.9</ele>
        <time>2021-03-10T09:23:26Z</time>
      </trkpt>
      <trkpt lat="45.12817" lon="6.11336">
        <ele>2738.8</ele>
        <time>2021-03-10T09:23:27Z</time>
      </trkpt>
      <trkpt lat="45.12818" lon="6.11337">
        <ele>2738.8</ele>
        <time>2021-03-10T09:23:28Z</time>
      </trkpt>
      <trkpt lat="45.12818" lon="6.11338">
        <ele>2739.6</ele>
        <time>2021-03-10T09:23:29Z</time>
      </trkpt>
      <trkpt lat="45.12819" lon="6.11339">
        <ele>2739.6</ele>
        <time>2021-03-10T09:23:30Z</time>
      </trkpt>
      <trkpt lat="45.12819" lon="6.11339">
        <ele>2739.6</ele>
        <time>2021-03-10T09:23:31Z</time>
      </trkpt>
      <trkpt lat="45.1282" lon="6.1134">
        <ele>2739.4</ele>
        <time>2021-03-10T09:23:32Z</time>
      </trkpt>
      <trkpt lat="45.12821" lon="6.11341">
        <ele>2739.4</ele>
        <time>2021-03-10T09:23:33Z</time>
      </trkpt>
      <trkpt lat="45.12821" lon="6.11341">
        <ele>2739.4</ele>
        <time>2021-03-10T09:23:34Z</time>
      </trkpt>
      <trkpt lat="45.12822" lon="6.11342">
        <ele>2740.2</ele>
        <time>2021-03-10T09:23:35Z</time>
      </trkpt>
      <trkpt lat="45.12822" lon="6.11343">
        <ele>2740.2</ele>
        <time>2021-03-10T09:23:36Z</time>
      </trkpt>
      <trkpt lat="45.12823" lon="6.11344">
        <ele>2740.1</ele>
        <time>2021-03-10T09:23:37Z</time>
      </trkpt>
      <trkpt lat="45.12824" lon="6.11344">
        <ele>2740.1</ele>
        <time>2021-03-10T09:23:38Z</time>
      </trkpt>
      <trkpt lat="45.12824" lon="6.11345">
        <ele>2740.1</ele>
        <time>2021-03-10T09:23:39Z</time>
      </trkpt>
      <trkpt lat="45.12825" lon="6.11345">
        <ele>2740.1</ele>
        <time>2021-03-10T09:23:40Z</time>
      </trkpt>
      <trkpt lat="45.12825" lon="6.11346">
        <ele>2740.1</ele>
        <time>2021-03-10T09:23:41Z</time>
      </trkpt>
      <trkpt lat="45.12826" lon="6.11346">
        <ele>2740.9</ele>
        <time>2021-03-10T09:23:42Z</time>
      </trkpt>
      <trkpt lat="45.12826" lon="6.11347">
        <ele>2740.7</ele>
        <time>2021-03-10T09:23:43Z</time>
      </trkpt>
      <trkpt lat="45.12827" lon="6.11347">
        <ele>2740.7</ele>
        <time>2021-03-10T09:23:44Z</time>
      </trkpt>
      <trkpt lat="45.12827" lon="6.11348">
        <ele>2740.7</ele>
        <time>2021-03-10T09:23:45Z</time>
      </trkpt>
      <trkpt lat="45.12828" lon="6.11349">
        <ele>2740.7</ele>
        <time>2021-03-10T09:23:46Z</time>
      </trkpt>
      <trkpt lat="45.12828" lon="6.11349">
        <ele>2740.7</ele>
        <time>2021-03-10T09:23:47Z</time>
      </trkpt>
      <trkpt lat="45.12829" lon="6.1135">
        <ele>2740.7</ele>
        <time>2021-03-10T09:23:48Z</time>
      </trkpt>
      <trkpt lat="45.1283" lon="6.1135">
        <ele>2740.6</ele>
        <time>2021-03-10T09:23:49Z</time>
      </trkpt>
      <trkpt lat="45.1283" lon="6.11351">
        <ele>2740.6</ele>
        <time>2021-03-10T09:23:50Z</time>
      </trkpt>
      <trkpt lat="45.12831" lon="6.11351">
        <ele>2741.3</ele>
        <time>2021-03-10T09:23:51Z</time>
      </trkpt>
      <trkpt lat="45.12831" lon="6.11352">
        <ele>2741.3</ele>
        <time>2021-03-10T09:23:52Z</time>
      </trkpt>
      <trkpt lat="45.12832" lon="6.11352">
        <ele>2741.3</ele>
        <time>2021-03-10T09:23:53Z</time>
      </trkpt>
      <trkpt lat="45.12832" lon="6.11353">
        <ele>2741.1</ele>
        <time>2021-03-10T09:23:54Z</time>
      </trkpt>
      <trkpt lat="45.12833" lon="6.11353">
        <ele>2741.1</ele>
        <time>2021-03-10T09:23:55Z</time>
      </trkpt>
      <trkpt lat="45.12833" lon="6.11354">
        <ele>2741.1</ele>
        <time>2021-03-10T09:23:56Z</time>
      </trkpt>
      <trkpt lat="45.12834" lon="6.11354">
        <ele>2741.1</ele>
        <time>2021-03-10T09:23:57Z</time>
      </trkpt>
      <trkpt lat="45.12834" lon="6.11355">
        <ele>2741.9</ele>
        <time>2021-03-10T09:23:58Z</time>
      </trkpt>
      <trkpt lat="45.12835" lon="6.11356">
        <ele>2741.9</ele>
        <time>2021-03-10T09:23:59Z</time>
      </trkpt>
      <trkpt lat="45.12835" lon="6.11356">
        <ele>2741.7</ele>
        <time>2021-03-10T09:24:00Z</time>
      </trkpt>
      <trkpt lat="45.12836" lon="6.11357">
        <ele>2741.7</ele>
        <time>2021-03-10T09:24:01Z</time>
      </trkpt>
      <trkpt lat="45.12836" lon="6.11357">
        <ele>2741.7</ele>
        <time>2021-03-10T09:24:02Z</time>
      </trkpt>
      <trkpt lat="45.12837" lon="6.11358">
        <ele>2741.7</ele>
        <time>2021-03-10T09:24:03Z</time>
      </trkpt>
      <trkpt lat="45.12837" lon="6.11358">
        <ele>2741.7</ele>
        <time>2021-03-10T09:24:04Z</time>
      </trkpt>
      <trkpt lat="45.12838" lon="6.11359">
        <ele>2741.7</ele>
        <time>2021-03-10T09:24:05Z</time>
      </trkpt>
      <trkpt lat="45.12838" lon="6.11359">
        <ele>2742.3</ele>
        <time>2021-03-10T09:24:06Z</time>
      </trkpt>
      <trkpt lat="45.12839" lon="6.1136">
        <ele>2742.3</ele>
        <time>2021-03-10T09:24:07Z</time>
      </trkpt>
      <trkpt lat="45.12839" lon="6.1136">
        <ele>2742.3</ele>
        <time>2021-03-10T09:24:08Z</time>
      </trkpt>
      <trkpt lat="45.12839" lon="6.11361">
        <ele>2742.3</ele>
        <time>2021-03-10T09:24:09Z</time>
      </trkpt>
      <trkpt lat="45.1284" lon="6.11361">
        <ele>2742.3</ele>
        <time>2021-03-10T09:24:10Z</time>
      </trkpt>
      <trkpt lat="45.1284" lon="6.11362">
        <ele>2742.3</ele>
        <time>2021-03-10T09:24:11Z</time>
      </trkpt>
      <trkpt lat="45.12841" lon="6.11362">
        <ele>2742.3</ele>
        <time>2021-03-10T09:24:12Z</time>
      </trkpt>
      <trkpt lat="45.12841" lon="6.11363">
        <ele>2742.2</ele>
        <time>2021-03-10T09:24:13Z</time>
      </trkpt>
      <trkpt lat="45.12842" lon="6.11364">
        <ele>2742.9</ele>
        <time>2021-03-10T09:24:14Z</time>
      </trkpt>
      <trkpt lat="45.12842" lon="6.11364">
        <ele>2742.9</ele>
        <time>2021-03-10T09:24:15Z</time>
      </trkpt>
      <trkpt lat="45.12843" lon="6.11365">
        <ele>2742.9</ele>
        <time>2021-03-10T09:24:16Z</time>
      </trkpt>
      <trkpt lat="45.12843" lon="6.11366">
        <ele>2742.9</ele>
        <time>2021-03-10T09:24:17Z</time>
      </trkpt>
      <trkpt lat="45.12844" lon="6.11366">
        <ele>2742.9</ele>
        <time>2021-03-10T09:24:18Z</time>
      </trkpt>
      <trkpt lat="45.12844" lon="6.11366">
        <ele>2742.8</ele>
        <time>2021-03-10T09:24:19Z</time>
      </trkpt>
      <trkpt lat="45.12845" lon="6.11367">
        <ele>2742.8</ele>
        <time>2021-03-10T09:24:20Z</time>
      </trkpt>
      <trkpt lat="45.12846" lon="6.11368">
        <ele>2742.8</ele>
        <time>2021-03-10T09:24:21Z</time>
      </trkpt>
      <trkpt lat="45.12846" lon="6.11368">
        <ele>2743.5</ele>
        <time>2021-03-10T09:24:22Z</time>
      </trkpt>
      <trkpt lat="45.12847" lon="6.11369">
        <ele>2743.5</ele>
        <time>2021-03-10T09:24:23Z</time>
      </trkpt>
      <trkpt lat="45.12847" lon="6.11369">
        <ele>2743.5</ele>
        <time>2021-03-10T09:24:24Z</time>
      </trkpt>
      <trkpt lat="45.12847" lon="6.1137">
        <ele>2743.4</ele>
        <time>2021-03-10T09:24:25Z</time>
      </trkpt>
      <trkpt lat="45.12848" lon="6.11371">
        <ele>2743.4</ele>
        <time>2021-03-10T09:24:26Z</time>
      </trkpt>
      <trkpt lat="45.12848" lon="6.11371">
        <ele>2743.4</ele>
        <time>2021-03-10T09:24:27Z</time>
      </trkpt>
      <trkpt lat="45.12849" lon="6.11372">
        <ele>2743.4</ele>
        <time>2021-03-10T09:24:28Z</time>
      </trkpt>
      <trkpt lat="45.12849" lon="6.11372">
        <ele>2744.1</ele>
        <time>2021-03-10T09:24:29Z</time>
      </trkpt>
      <trkpt lat="45.1285" lon="6.11373">
        <ele>2744.1</ele>
        <time>2021-03-10T09:24:30Z</time>
      </trkpt>
      <trkpt lat="45.1285" lon="6.11373">
        <ele>2744.1</ele>
        <time>2021-03-10T09:24:31Z</time>
      </trkpt>
      <trkpt lat="45.12851" lon="6.11374">
        <ele>2744.1</ele>
        <time>2021-03-10T09:24:32Z</time>
      </trkpt>
      <trkpt lat="45.12851" lon="6.11374">
        <ele>2744.1</ele>
        <time>2021-03-10T09:24:33Z</time>
      </trkpt>
      <trkpt lat="45.12851" lon="6.11375">
        <ele>2744.1</ele>
        <time>2021-03-10T09:24:34Z</time>
      </trkpt>
      <trkpt lat="45.12852" lon="6.11376">
        <ele>2744.1</ele>
        <time>2021-03-10T09:24:35Z</time>
      </trkpt>
      <trkpt lat="45.12852" lon="6.11376">
        <ele>2744.1</ele>
        <time>2021-03-10T09:24:36Z</time>
      </trkpt>
      <trkpt lat="45.12853" lon="6.11376">
        <ele>2744.9</ele>
        <time>2021-03-10T09:24:37Z</time>
      </trkpt>
      <trkpt lat="45.12853" lon="6.11377">
        <ele>2744.9</ele>
        <time>2021-03-10T09:24:38Z</time>
      </trkpt>
      <trkpt lat="45.12854" lon="6.11377">
        <ele>2744.9</ele>
        <time>2021-03-10T09:24:39Z</time>
      </trkpt>
      <trkpt lat="45.12854" lon="6.11378">
        <ele>2744.9</ele>
        <time>2021-03-10T09:24:40Z</time>
      </trkpt>
      <trkpt lat="45.12854" lon="6.11378">
        <ele>2744.9</ele>
        <time>2021-03-10T09:24:41Z</time>
      </trkpt>
      <trkpt lat="45.12855" lon="6.11378">
        <ele>2744.9</ele>
        <time>2021-03-10T09:24:42Z</time>
      </trkpt>
      <trkpt lat="45.12855" lon="6.11379">
        <ele>2744.9</ele>
        <time>2021-03-10T09:24:43Z</time>
      </trkpt>
      <trkpt lat="45.12856" lon="6.1138">
        <ele>2744.9</ele>
        <time>2021-03-10T09:24:44Z</time>
      </trkpt>
      <trkpt lat="45.12856" lon="6.1138">
        <ele>2744.8</ele>
        <time>2021-03-10T09:24:45Z</time>
      </trkpt>
      <trkpt lat="45.12857" lon="6.11381">
        <ele>2745.7</ele>
        <time>2021-03-10T09:24:46Z</time>
      </trkpt>
      <trkpt lat="45.12857" lon="6.11381">
        <ele>2745.7</ele>
        <time>2021-03-10T09:24:47Z</time>
      </trkpt>
      <trkpt lat="45.12858" lon="6.11382">
        <ele>2745.7</ele>
        <time>2021-03-10T09:24:48Z</time>
      </trkpt>
      <trkpt lat="45.12858" lon="6.11382">
        <ele>2745.7</ele>
        <time>2021-03-10T09:24:49Z</time>
      </trkpt>
      <trkpt lat="45.12858" lon="6.11383">
        <ele>2745.7</ele>
        <time>2021-03-10T09:24:50Z</time>
      </trkpt>
      <trkpt lat="45.12859" lon="6.11383">
        <ele>2745.7</ele>
        <time>2021-03-10T09:24:51Z</time>
      </trkpt>
      <trkpt lat="45.12859" lon="6.11384">
        <ele>2745.7</ele>
        <time>2021-03-10T09:24:52Z</time>
      </trkpt>
      <trkpt lat="45.1286" lon="6.11384">
        <ele>2745.7</ele>
        <time>2021-03-10T09:24:53Z</time>
      </trkpt>
      <trkpt lat="45.1286" lon="6.11385">
        <ele>2746.7</ele>
        <time>2021-03-10T09:24:54Z</time>
      </trkpt>
      <trkpt lat="45.12861" lon="6.11386">
        <ele>2746.7</ele>
        <time>2021-03-10T09:24:55Z</time>
      </trkpt>
      <trkpt lat="45.12861" lon="6.11387">
        <ele>2746.7</ele>
        <time>2021-03-10T09:24:56Z</time>
      </trkpt>
      <trkpt lat="45.12861" lon="6.11387">
        <ele>2746.7</ele>
        <time>2021-03-10T09:24:57Z</time>
      </trkpt>
      <trkpt lat="45.1286" lon="6.11388">
        <ele>2746.7</ele>
        <time>2021-03-10T09:24:58Z</time>
      </trkpt>
      <trkpt lat="45.1286" lon="6.11389">
        <ele>2746.7</ele>
        <time>2021-03-10T09:24:59Z</time>
      </trkpt>
      <trkpt lat="45.1286" lon="6.1139">
        <ele>2747.7</ele>
        <time>2021-03-10T09:25:00Z</time>
      </trkpt>
      <trkpt lat="45.12859" lon="6.1139">
        <ele>2747.7</ele>
        <time>2021-03-10T09:25:01Z</time>
      </trkpt>
      <trkpt lat="45.12859" lon="6.11391">
        <ele>2747.7</ele>
        <time>2021-03-10T09:25:02Z</time>
      </trkpt>
      <trkpt lat="45.12858" lon="6.11392">
        <ele>2747.7</ele>
        <time>2021-03-10T09:25:03Z</time>
      </trkpt>
      <trkpt lat="45.12857" lon="6.11392">
        <ele>2747.7</ele>
        <time>2021-03-10T09:25:04Z</time>
      </trkpt>
      <trkpt lat="45.12857" lon="6.11393">
        <ele>2747.7</ele>
        <time>2021-03-10T09:25:05Z</time>
      </trkpt>
      <trkpt lat="45.12856" lon="6.11393">
        <ele>2747.7</ele>
        <time>2021-03-10T09:25:06Z</time>
      </trkpt>
      <trkpt lat="45.12856" lon="6.11393">
        <ele>2747.7</ele>
        <time>2021-03-10T09:25:07Z</time>
      </trkpt>
      <trkpt lat="45.12855" lon="6.11393">
        <ele>2747.7</ele>
        <time>2021-03-10T09:25:08Z</time>
      </trkpt>
      <trkpt lat="45.12855" lon="6.11393">
        <ele>2747.7</ele>
        <time>2021-03-10T09:25:09Z</time>
      </trkpt>
      <trkpt lat="45.12854" lon="6.11393">
        <ele>2747.7</ele>
        <time>2021-03-10T09:25:10Z</time>
      </trkpt>
      <trkpt lat="45.12854" lon="6.11394">
        <ele>2748.7</ele>
        <time>2021-03-10T09:25:11Z</time>
      </trkpt>
      <trkpt lat="45.12853" lon="6.11394">
        <ele>2748.7</ele>
        <time>2021-03-10T09:25:12Z</time>
      </trkpt>
      <trkpt lat="45.12853" lon="6.11395">
        <ele>2748.7</ele>
        <time>2021-03-10T09:25:13Z</time>
      </trkpt>
      <trkpt lat="45.12852" lon="6.11395">
        <ele>2748.7</ele>
        <time>2021-03-10T09:25:14Z</time>
      </trkpt>
      <trkpt lat="45.12851" lon="6.11395">
        <ele>2748.7</ele>
        <time>2021-03-10T09:25:15Z</time>
      </trkpt>
      <trkpt lat="45.12851" lon="6.11396">
        <ele>2748.7</ele>
        <time>2021-03-10T09:25:16Z</time>
      </trkpt>
      <trkpt lat="45.12851" lon="6.11396">
        <ele>2748.7</ele>
        <time>2021-03-10T09:25:17Z</time>
      </trkpt>
      <trkpt lat="45.1285" lon="6.11397">
        <ele>2748.6</ele>
        <time>2021-03-10T09:25:18Z</time>
      </trkpt>
      <trkpt lat="45.12849" lon="6.11398">
        <ele>2748.6</ele>
        <time>2021-03-10T09:25:19Z</time>
      </trkpt>
      <trkpt lat="45.12849" lon="6.11398">
        <ele>2749.6</ele>
        <time>2021-03-10T09:25:20Z</time>
      </trkpt>
      <trkpt lat="45.12848" lon="6.11399">
        <ele>2749.6</ele>
        <time>2021-03-10T09:25:21Z</time>
      </trkpt>
      <trkpt lat="45.12848" lon="6.11399">
        <ele>2749.6</ele>
        <time>2021-03-10T09:25:22Z</time>
      </trkpt>
      <trkpt lat="45.12847" lon="6.114">
        <ele>2749.6</ele>
        <time>2021-03-10T09:25:23Z</time>
      </trkpt>
      <trkpt lat="45.12847" lon="6.114">
        <ele>2749.5</ele>
        <time>2021-03-10T09:25:24Z</time>
      </trkpt>
      <trkpt lat="45.12846" lon="6.11401">
        <ele>2749.5</ele>
        <time>2021-03-10T09:25:25Z</time>
      </trkpt>
      <trkpt lat="45.12846" lon="6.11401">
        <ele>2749.5</ele>
        <time>2021-03-10T09:25:26Z</time>
      </trkpt>
      <trkpt lat="45.12845" lon="6.11402">
        <ele>2749.5</ele>
        <time>2021-03-10T09:25:27Z</time>
      </trkpt>
      <trkpt lat="45.12845" lon="6.11402">
        <ele>2749.5</ele>
        <time>2021-03-10T09:25:28Z</time>
      </trkpt>
      <trkpt lat="45.12845" lon="6.11403">
        <ele>2750.5</ele>
        <time>2021-03-10T09:25:29Z</time>
      </trkpt>
      <trkpt lat="45.12844" lon="6.11403">
        <ele>2750.4</ele>
        <time>2021-03-10T09:25:30Z</time>
      </trkpt>
      <trkpt lat="45.12843" lon="6.11404">
        <ele>2750.4</ele>
        <time>2021-03-10T09:25:31Z</time>
      </trkpt>
      <trkpt lat="45.12843" lon="6.11404">
        <ele>2750.4</ele>
        <time>2021-03-10T09:25:32Z</time>
      </trkpt>
      <trkpt lat="45.12842" lon="6.11404">
        <ele>2750.4</ele>
        <time>2021-03-10T09:25:33Z</time>
      </trkpt>
      <trkpt lat="45.12842" lon="6.11405">
        <ele>2750.4</ele>
        <time>2021-03-10T09:25:34Z</time>
      </trkpt>
      <trkpt lat="45.12842" lon="6.11405">
        <ele>2750.4</ele>
        <time>2021-03-10T09:25:35Z</time>
      </trkpt>
      <trkpt lat="45.12842" lon="6.11405">
        <ele>2750.4</ele>
        <time>2021-03-10T09:25:36Z</time>
      </trkpt>
      <trkpt lat="45.12842" lon="6.11405">
        <ele>2750.4</ele>
        <time>2021-03-10T09:25:37Z</time>
      </trkpt>
      <trkpt lat="45.12842" lon="6.11405">
        <ele>2750.4</ele>
        <time>2021-03-10T09:25:38Z</time>
      </trkpt>
      <trkpt lat="45.12842" lon="6.11405">
        <ele>2750.4</ele>
        <time>2021-03-10T09:25:39Z</time>
      </trkpt>
      <trkpt lat="45.12841" lon="6.11405">
        <ele>2750.4</ele>
        <time>2021-03-10T09:25:40Z</time>
      </trkpt>
      <trkpt lat="45.12841" lon="6.11405">
        <ele>2750.4</ele>
        <time>2021-03-10T09:25:41Z</time>
      </trkpt>
      <trkpt lat="45.12849" lon="6.11408">
        <ele>2751.5</ele>
        <time>2021-03-10T09:26:01Z</time>
      </trkpt>
      <trkpt lat="45.12849" lon="6.11408">
        <ele>2751.5</ele>
        <time>2021-03-10T09:26:02Z</time>
      </trkpt>
      <trkpt lat="45.1285" lon="6.11409">
        <ele>2751.5</ele>
        <time>2021-03-10T09:26:03Z</time>
      </trkpt>
      <trkpt lat="45.1285" lon="6.11409">
        <ele>2751.6</ele>
        <time>2021-03-10T09:26:04Z</time>
      </trkpt>
      <trkpt lat="45.12851" lon="6.11409">
        <ele>2751.6</ele>
        <time>2021-03-10T09:26:05Z</time>
      </trkpt>
      <trkpt lat="45.12852" lon="6.11409">
        <ele>2751.6</ele>
        <time>2021-03-10T09:26:06Z</time>
      </trkpt>
      <trkpt lat="45.12852" lon="6.1141">
        <ele>2751.6</ele>
        <time>2021-03-10T09:26:07Z</time>
      </trkpt>
      <trkpt lat="45.12852" lon="6.1141">
        <ele>2751.6</ele>
        <time>2021-03-10T09:26:08Z</time>
      </trkpt>
      <trkpt lat="45.12853" lon="6.1141">
        <ele>2751.6</ele>
        <time>2021-03-10T09:26:09Z</time>
      </trkpt>
      <trkpt lat="45.12853" lon="6.1141">
        <ele>2751.6</ele>
        <time>2021-03-10T09:26:10Z</time>
      </trkpt>
      <trkpt lat="45.12854" lon="6.1141">
        <ele>2751.6</ele>
        <time>2021-03-10T09:26:11Z</time>
      </trkpt>
      <trkpt lat="45.12861" lon="6.11411">
        <ele>2751.7</ele>
        <time>2021-03-10T09:26:26Z</time>
      </trkpt>
      <trkpt lat="45.12861" lon="6.11411">
        <ele>2752.7</ele>
        <time>2021-03-10T09:26:27Z</time>
      </trkpt>
      <trkpt lat="45.12862" lon="6.11411">
        <ele>2752.7</ele>
        <time>2021-03-10T09:26:28Z</time>
      </trkpt>
      <trkpt lat="45.12863" lon="6.11411">
        <ele>2752.7</ele>
        <time>2021-03-10T09:26:29Z</time>
      </trkpt>
      <trkpt lat="45.12863" lon="6.11411">
        <ele>2752.7</ele>
        <time>2021-03-10T09:26:30Z</time>
      </trkpt>
      <trkpt lat="45.12864" lon="6.11412">
        <ele>2752.7</ele>
        <time>2021-03-10T09:26:31Z</time>
      </trkpt>
      <trkpt lat="45.12865" lon="6.11412">
        <ele>2752.7</ele>
        <time>2021-03-10T09:26:32Z</time>
      </trkpt>
      <trkpt lat="45.12865" lon="6.11412">
        <ele>2752.7</ele>
        <time>2021-03-10T09:26:33Z</time>
      </trkpt>
      <trkpt lat="45.12866" lon="6.11412">
        <ele>2752.7</ele>
        <time>2021-03-10T09:26:34Z</time>
      </trkpt>
      <trkpt lat="45.12866" lon="6.11412">
        <ele>2752.7</ele>
        <time>2021-03-10T09:26:35Z</time>
      </trkpt>
      <trkpt lat="45.12866" lon="6.11412">
        <ele>2752.7</ele>
        <time>2021-03-10T09:26:36Z</time>
      </trkpt>
      <trkpt lat="45.12877" lon="6.11419">
        <ele>2754.8</ele>
        <time>2021-03-10T09:27:00Z</time>
      </trkpt>
      <trkpt lat="45.12878" lon="6.1142">
        <ele>2754.8</ele>
        <time>2021-03-10T09:27:01Z</time>
      </trkpt>
      <trkpt lat="45.12878" lon="6.1142">
        <ele>2754.8</ele>
        <time>2021-03-10T09:27:02Z</time>
      </trkpt>
      <trkpt lat="45.12879" lon="6.1142">
        <ele>2754.8</ele>
        <time>2021-03-10T09:27:03Z</time>
      </trkpt>
      <trkpt lat="45.12879" lon="6.1142">
        <ele>2754.8</ele>
        <time>2021-03-10T09:27:04Z</time>
      </trkpt>
      <trkpt lat="45.1288" lon="6.1142">
        <ele>2754.8</ele>
        <time>2021-03-10T09:27:05Z</time>
      </trkpt>
      <trkpt lat="45.12881" lon="6.1142">
        <ele>2754.8</ele>
        <time>2021-03-10T09:27:06Z</time>
      </trkpt>
      <trkpt lat="45.12881" lon="6.1142">
        <ele>2754.8</ele>
        <time>2021-03-10T09:27:07Z</time>
      </trkpt>
      <trkpt lat="45.12882" lon="6.11421">
        <ele>2754.8</ele>
        <time>2021-03-10T09:27:08Z</time>
      </trkpt>
      <trkpt lat="45.12882" lon="6.11421">
        <ele>2754.8</ele>
        <time>2021-03-10T09:27:09Z</time>
      </trkpt>
      <trkpt lat="45.12883" lon="6.11422">
        <ele>2754.8</ele>
        <time>2021-03-10T09:27:10Z</time>
      </trkpt>
      <trkpt lat="45.12883" lon="6.11422">
        <ele>2754.7</ele>
        <time>2021-03-10T09:27:11Z</time>
      </trkpt>
      <trkpt lat="45.12893" lon="6.11429">
        <ele>2757</ele>
        <time>2021-03-10T09:27:32Z</time>
      </trkpt>
      <trkpt lat="45.12894" lon="6.1143">
        <ele>2757</ele>
        <time>2021-03-10T09:27:33Z</time>
      </trkpt>
      <trkpt lat="45.12894" lon="6.1143">
        <ele>2757</ele>
        <time>2021-03-10T09:27:34Z</time>
      </trkpt>
      <trkpt lat="45.12894" lon="6.11431">
        <ele>2757</ele>
        <time>2021-03-10T09:27:35Z</time>
      </trkpt>
      <trkpt lat="45.12895" lon="6.11432">
        <ele>2758.3</ele>
        <time>2021-03-10T09:27:36Z</time>
      </trkpt>
      <trkpt lat="45.12895" lon="6.11433">
        <ele>2758.3</ele>
        <time>2021-03-10T09:27:37Z</time>
      </trkpt>
      <trkpt lat="45.12895" lon="6.11434">
        <ele>2758.3</ele>
        <time>2021-03-10T09:27:38Z</time>
      </trkpt>
      <trkpt lat="45.12895" lon="6.11434">
        <ele>2758.3</ele>
        <time>2021-03-10T09:27:39Z</time>
      </trkpt>
      <trkpt lat="45.12895" lon="6.11435">
        <ele>2758.3</ele>
        <time>2021-03-10T09:27:40Z</time>
      </trkpt>
      <trkpt lat="45.12895" lon="6.11436">
        <ele>2758.3</ele>
        <time>2021-03-10T09:27:41Z</time>
      </trkpt>
      <trkpt lat="45.12895" lon="6.11437">
        <ele>2759.6</ele>
        <time>2021-03-10T09:27:42Z</time>
      </trkpt>
      <trkpt lat="45.12895" lon="6.11437">
        <ele>2759.6</ele>
        <time>2021-03-10T09:27:43Z</time>
      </trkpt>
      <trkpt lat="45.12895" lon="6.11438">
        <ele>2759.6</ele>
        <time>2021-03-10T09:27:44Z</time>
      </trkpt>
      <trkpt lat="45.12895" lon="6.11439">
        <ele>2759.6</ele>
        <time>2021-03-10T09:27:45Z</time>
      </trkpt>
      <trkpt lat="45.12895" lon="6.11439">
        <ele>2759.6</ele>
        <time>2021-03-10T09:27:46Z</time>
      </trkpt>
      <trkpt lat="45.12895" lon="6.11441">
        <ele>2759.6</ele>
        <time>2021-03-10T09:27:47Z</time>
      </trkpt>
      <trkpt lat="45.12895" lon="6.11441">
        <ele>2760.9</ele>
        <time>2021-03-10T09:27:48Z</time>
      </trkpt>
      <trkpt lat="45.12895" lon="6.11442">
        <ele>2760.9</ele>
        <time>2021-03-10T09:27:49Z</time>
      </trkpt>
      <trkpt lat="45.12895" lon="6.11443">
        <ele>2760.9</ele>
        <time>2021-03-10T09:27:50Z</time>
      </trkpt>
      <trkpt lat="45.12895" lon="6.11444">
        <ele>2760.9</ele>
        <time>2021-03-10T09:27:51Z</time>
      </trkpt>
      <trkpt lat="45.12896" lon="6.11445">
        <ele>2762.1</ele>
        <time>2021-03-10T09:27:52Z</time>
      </trkpt>
      <trkpt lat="45.12896" lon="6.11446">
        <ele>2762.1</ele>
        <time>2021-03-10T09:27:53Z</time>
      </trkpt>
      <trkpt lat="45.12897" lon="6.11447">
        <ele>2762.1</ele>
        <time>2021-03-10T09:27:54Z</time>
      </trkpt>
      <trkpt lat="45.12897" lon="6.11448">
        <ele>2762.1</ele>
        <time>2021-03-10T09:27:55Z</time>
      </trkpt>
      <trkpt lat="45.12898" lon="6.11448">
        <ele>2762.1</ele>
        <time>2021-03-10T09:27:56Z</time>
      </trkpt>
      <trkpt lat="45.12898" lon="6.11448">
        <ele>2762.1</ele>
        <time>2021-03-10T09:27:57Z</time>
      </trkpt>
      <trkpt lat="45.12899" lon="6.11449">
        <ele>2762.1</ele>
        <time>2021-03-10T09:27:58Z</time>
      </trkpt>
      <trkpt lat="45.12899" lon="6.11449">
        <ele>2762.1</ele>
        <time>2021-03-10T09:27:59Z</time>
      </trkpt>
      <trkpt lat="45.129" lon="6.1145">
        <ele>2763.2</ele>
        <time>2021-03-10T09:28:00Z</time>
      </trkpt>
      <trkpt lat="45.12901" lon="6.1145">
        <ele>2763.2</ele>
        <time>2021-03-10T09:28:01Z</time>
      </trkpt>
      <trkpt lat="45.12901" lon="6.11451">
        <ele>2763.2</ele>
        <time>2021-03-10T09:28:02Z</time>
      </trkpt>
      <trkpt lat="45.12902" lon="6.11452">
        <ele>2763.1</ele>
        <time>2021-03-10T09:28:03Z</time>
      </trkpt>
      <trkpt lat="45.12902" lon="6.11452">
        <ele>2763.1</ele>
        <time>2021-03-10T09:28:04Z</time>
      </trkpt>
      <trkpt lat="45.12903" lon="6.11453">
        <ele>2763.1</ele>
        <time>2021-03-10T09:28:05Z</time>
      </trkpt>
      <trkpt lat="45.12904" lon="6.11454">
        <ele>2764.2</ele>
        <time>2021-03-10T09:28:06Z</time>
      </trkpt>
      <trkpt lat="45.12904" lon="6.11454">
        <ele>2764.2</ele>
        <time>2021-03-10T09:28:07Z</time>
      </trkpt>
      <trkpt lat="45.12905" lon="6.11455">
        <ele>2764.1</ele>
        <time>2021-03-10T09:28:08Z</time>
      </trkpt>
      <trkpt lat="45.12905" lon="6.11456">
        <ele>2764.1</ele>
        <time>2021-03-10T09:28:09Z</time>
      </trkpt>
      <trkpt lat="45.12906" lon="6.11456">
        <ele>2764.1</ele>
        <time>2021-03-10T09:28:10Z</time>
      </trkpt>
      <trkpt lat="45.12907" lon="6.11457">
        <ele>2764.1</ele>
        <time>2021-03-10T09:28:11Z</time>
      </trkpt>
      <trkpt lat="45.12907" lon="6.11457">
        <ele>2764.1</ele>
        <time>2021-03-10T09:28:12Z</time>
      </trkpt>
      <trkpt lat="45.12908" lon="6.11457">
        <ele>2763.9</ele>
        <time>2021-03-10T09:28:13Z</time>
      </trkpt>
      <trkpt lat="45.12909" lon="6.11458">
        <ele>2764.9</ele>
        <time>2021-03-10T09:28:14Z</time>
      </trkpt>
      <trkpt lat="45.12909" lon="6.11459">
        <ele>2764.9</ele>
        <time>2021-03-10T09:28:15Z</time>
      </trkpt>
      <trkpt lat="45.1291" lon="6.11459">
        <ele>2764.9</ele>
        <time>2021-03-10T09:28:16Z</time>
      </trkpt>
      <trkpt lat="45.1291" lon="6.1146">
        <ele>2764.9</ele>
        <time>2021-03-10T09:28:17Z</time>
      </trkpt>
      <trkpt lat="45.12911" lon="6.11461">
        <ele>2764.7</ele>
        <time>2021-03-10T09:28:18Z</time>
      </trkpt>
      <trkpt lat="45.12911" lon="6.11461">
        <ele>2764.7</ele>
        <time>2021-03-10T09:28:19Z</time>
      </trkpt>
      <trkpt lat="45.12912" lon="6.11462">
        <ele>2764.7</ele>
        <time>2021-03-10T09:28:20Z</time>
      </trkpt>
      <trkpt lat="45.12912" lon="6.11462">
        <ele>2764.7</ele>
        <time>2021-03-10T09:28:21Z</time>
      </trkpt>
      <trkpt lat="45.12913" lon="6.11462">
        <ele>2765.7</ele>
        <time>2021-03-10T09:28:22Z</time>
      </trkpt>
      <trkpt lat="45.12913" lon="6.11463">
        <ele>2765.7</ele>
        <time>2021-03-10T09:28:23Z</time>
      </trkpt>
      <trkpt lat="45.12914" lon="6.11463">
        <ele>2765.7</ele>
        <time>2021-03-10T09:28:24Z</time>
      </trkpt>
      <trkpt lat="45.12914" lon="6.11463">
        <ele>2765.5</ele>
        <time>2021-03-10T09:28:25Z</time>
      </trkpt>
      <trkpt lat="45.12914" lon="6.11464">
        <ele>2765.5</ele>
        <time>2021-03-10T09:28:26Z</time>
      </trkpt>
      <trkpt lat="45.12915" lon="6.11464">
        <ele>2765.5</ele>
        <time>2021-03-10T09:28:27Z</time>
      </trkpt>
      <trkpt lat="45.12915" lon="6.11464">
        <ele>2765.5</ele>
        <time>2021-03-10T09:28:28Z</time>
      </trkpt>
      <trkpt lat="45.12916" lon="6.11465">
        <ele>2765.5</ele>
        <time>2021-03-10T09:28:29Z</time>
      </trkpt>
      <trkpt lat="45.12917" lon="6.11465">
        <ele>2765.5</ele>
        <time>2021-03-10T09:28:30Z</time>
      </trkpt>
      <trkpt lat="45.12917" lon="6.11466">
        <ele>2765.3</ele>
        <time>2021-03-10T09:28:31Z</time>
      </trkpt>
      <trkpt lat="45.12918" lon="6.11467">
        <ele>2766.3</ele>
        <time>2021-03-10T09:28:32Z</time>
      </trkpt>
      <trkpt lat="45.12918" lon="6.11467">
        <ele>2766.3</ele>
        <time>2021-03-10T09:28:33Z</time>
      </trkpt>
      <trkpt lat="45.12918" lon="6.11468">
        <ele>2766.3</ele>
        <time>2021-03-10T09:28:34Z</time>
      </trkpt>
      <trkpt lat="45.12919" lon="6.11468">
        <ele>2766.3</ele>
        <time>2021-03-10T09:28:35Z</time>
      </trkpt>
      <trkpt lat="45.1292" lon="6.11469">
        <ele>2766.3</ele>
        <time>2021-03-10T09:28:36Z</time>
      </trkpt>
      <trkpt lat="45.1292" lon="6.1147">
        <ele>2766.1</ele>
        <time>2021-03-10T09:28:37Z</time>
      </trkpt>
      <trkpt lat="45.12921" lon="6.1147">
        <ele>2766.1</ele>
        <time>2021-03-10T09:28:38Z</time>
      </trkpt>
      <trkpt lat="45.12921" lon="6.11471">
        <ele>2766.1</ele>
        <time>2021-03-10T09:28:39Z</time>
      </trkpt>
      <trkpt lat="45.12922" lon="6.11471">
        <ele>2767.1</ele>
        <time>2021-03-10T09:28:40Z</time>
      </trkpt>
      <trkpt lat="45.12922" lon="6.11472">
        <ele>2767.1</ele>
        <time>2021-03-10T09:28:41Z</time>
      </trkpt>
      <trkpt lat="45.12923" lon="6.11473">
        <ele>2767.1</ele>
        <time>2021-03-10T09:28:42Z</time>
      </trkpt>
      <trkpt lat="45.12923" lon="6.11473">
        <ele>2767</ele>
        <time>2021-03-10T09:28:43Z</time>
      </trkpt>
      <trkpt lat="45.12924" lon="6.11474">
        <ele>2767</ele>
        <time>2021-03-10T09:28:44Z</time>
      </trkpt>
      <trkpt lat="45.12924" lon="6.11474">
        <ele>2767</ele>
        <time>2021-03-10T09:28:45Z</time>
      </trkpt>
      <trkpt lat="45.12925" lon="6.11475">
        <ele>2767</ele>
        <time>2021-03-10T09:28:46Z</time>
      </trkpt>
      <trkpt lat="45.12926" lon="6.11475">
        <ele>2768</ele>
        <time>2021-03-10T09:28:47Z</time>
      </trkpt>
      <trkpt lat="45.12926" lon="6.11475">
        <ele>2767.8</ele>
        <time>2021-03-10T09:28:48Z</time>
      </trkpt>
      <trkpt lat="45.12927" lon="6.11475">
        <ele>2767.8</ele>
        <time>2021-03-10T09:28:49Z</time>
      </trkpt>
      <trkpt lat="45.12927" lon="6.11476">
        <ele>2767.8</ele>
        <time>2021-03-10T09:28:50Z</time>
      </trkpt>
      <trkpt lat="45.12928" lon="6.11476">
        <ele>2767.8</ele>
        <time>2021-03-10T09:28:51Z</time>
      </trkpt>
      <trkpt lat="45.12928" lon="6.11476">
        <ele>2767.8</ele>
        <time>2021-03-10T09:28:52Z</time>
      </trkpt>
      <trkpt lat="45.12929" lon="6.11477">
        <ele>2767.8</ele>
        <time>2021-03-10T09:28:53Z</time>
      </trkpt>
      <trkpt lat="45.12929" lon="6.11477">
        <ele>2767.7</ele>
        <time>2021-03-10T09:28:54Z</time>
      </trkpt>
      <trkpt lat="45.1293" lon="6.11477">
        <ele>2767.7</ele>
        <time>2021-03-10T09:28:55Z</time>
      </trkpt>
      <trkpt lat="45.1293" lon="6.11478">
        <ele>2767.7</ele>
        <time>2021-03-10T09:28:56Z</time>
      </trkpt>
      <trkpt lat="45.12931" lon="6.11478">
        <ele>2767.7</ele>
        <time>2021-03-10T09:28:57Z</time>
      </trkpt>
      <trkpt lat="45.12931" lon="6.11478">
        <ele>2767.7</ele>
        <time>2021-03-10T09:28:58Z</time>
      </trkpt>
      <trkpt lat="45.12932" lon="6.11479">
        <ele>2767.5</ele>
        <time>2021-03-10T09:28:59Z</time>
      </trkpt>
      <trkpt lat="45.12932" lon="6.11479">
        <ele>2767.5</ele>
        <time>2021-03-10T09:29:00Z</time>
      </trkpt>
      <trkpt lat="45.12933" lon="6.1148">
        <ele>2768.5</ele>
        <time>2021-03-10T09:29:01Z</time>
      </trkpt>
      <trkpt lat="45.12933" lon="6.1148">
        <ele>2768.5</ele>
        <time>2021-03-10T09:29:02Z</time>
      </trkpt>
      <trkpt lat="45.12934" lon="6.11481">
        <ele>2768.5</ele>
        <time>2021-03-10T09:29:03Z</time>
      </trkpt>
      <trkpt lat="45.12934" lon="6.11481">
        <ele>2768.5</ele>
        <time>2021-03-10T09:29:04Z</time>
      </trkpt>
      <trkpt lat="45.12935" lon="6.11481">
        <ele>2768.5</ele>
        <time>2021-03-10T09:29:05Z</time>
      </trkpt>
      <trkpt lat="45.12935" lon="6.11482">
        <ele>2768.5</ele>
        <time>2021-03-10T09:29:06Z</time>
      </trkpt>
      <trkpt lat="45.12935" lon="6.11483">
        <ele>2768.5</ele>
        <time>2021-03-10T09:29:07Z</time>
      </trkpt>
      <trkpt lat="45.12935" lon="6.11484">
        <ele>2768.5</ele>
        <time>2021-03-10T09:29:08Z</time>
      </trkpt>
      <trkpt lat="45.12934" lon="6.11484">
        <ele>2769.6</ele>
        <time>2021-03-10T09:29:09Z</time>
      </trkpt>
      <trkpt lat="45.12934" lon="6.11485">
        <ele>2769.6</ele>
        <time>2021-03-10T09:29:10Z</time>
      </trkpt>
      <trkpt lat="45.12933" lon="6.11485">
        <ele>2769.6</ele>
        <time>2021-03-10T09:29:11Z</time>
      </trkpt>
      <trkpt lat="45.12933" lon="6.11486">
        <ele>2769.6</ele>
        <time>2021-03-10T09:29:12Z</time>
      </trkpt>
      <trkpt lat="45.12933" lon="6.11486">
        <ele>2769.6</ele>
        <time>2021-03-10T09:29:13Z</time>
      </trkpt>
      <trkpt lat="45.12932" lon="6.11487">
        <ele>2769.6</ele>
        <time>2021-03-10T09:29:14Z</time>
      </trkpt>
      <trkpt lat="45.12932" lon="6.11487">
        <ele>2769.6</ele>
        <time>2021-03-10T09:29:15Z</time>
      </trkpt>
      <trkpt lat="45.12932" lon="6.11488">
        <ele>2770.6</ele>
        <time>2021-03-10T09:29:16Z</time>
      </trkpt>
      <trkpt lat="45.12931" lon="6.11489">
        <ele>2770.6</ele>
        <time>2021-03-10T09:29:17Z</time>
      </trkpt>
      <trkpt lat="45.12931" lon="6.11489">
        <ele>2770.6</ele>
        <time>2021-03-10T09:29:18Z</time>
      </trkpt>
      <trkpt lat="45.1293" lon="6.1149">
        <ele>2770.6</ele>
        <time>2021-03-10T09:29:19Z</time>
      </trkpt>
      <trkpt lat="45.12929" lon="6.11491">
        <ele>2770.8</ele>
        <time>2021-03-10T09:29:20Z</time>
      </trkpt>
      <trkpt lat="45.12928" lon="6.11491">
        <ele>2770.8</ele>
        <time>2021-03-10T09:29:21Z</time>
      </trkpt>
      <trkpt lat="45.12928" lon="6.11492">
        <ele>2770.8</ele>
        <time>2021-03-10T09:29:22Z</time>
      </trkpt>
      <trkpt lat="45.12927" lon="6.11493">
        <ele>2771.6</ele>
        <time>2021-03-10T09:29:23Z</time>
      </trkpt>
      <trkpt lat="45.12926" lon="6.11493">
        <ele>2771.6</ele>
        <time>2021-03-10T09:29:24Z</time>
      </trkpt>
      <trkpt lat="45.12925" lon="6.11494">
        <ele>2771.7</ele>
        <time>2021-03-10T09:29:25Z</time>
      </trkpt>
      <trkpt lat="45.12925" lon="6.11495">
        <ele>2771.7</ele>
        <time>2021-03-10T09:29:26Z</time>
      </trkpt>
      <trkpt lat="45.12924" lon="6.11495">
        <ele>2771.7</ele>
        <time>2021-03-10T09:29:27Z</time>
      </trkpt>
      <trkpt lat="45.12923" lon="6.11496">
        <ele>2771.7</ele>
        <time>2021-03-10T09:29:28Z</time>
      </trkpt>
      <trkpt lat="45.12922" lon="6.11496">
        <ele>2771.8</ele>
        <time>2021-03-10T09:29:29Z</time>
      </trkpt>
      <trkpt lat="45.12921" lon="6.11497">
        <ele>2772.6</ele>
        <time>2021-03-10T09:29:30Z</time>
      </trkpt>
      <trkpt lat="45.1292" lon="6.11497">
        <ele>2772.6</ele>
        <time>2021-03-10T09:29:31Z</time>
      </trkpt>
      <trkpt lat="45.12919" lon="6.11498">
        <ele>2772.7</ele>
        <time>2021-03-10T09:29:32Z</time>
      </trkpt>
      <trkpt lat="45.12918" lon="6.11498">
        <ele>2772.7</ele>
        <time>2021-03-10T09:29:33Z</time>
      </trkpt>
      <trkpt lat="45.12917" lon="6.11498">
        <ele>2772.7</ele>
        <time>2021-03-10T09:29:34Z</time>
      </trkpt>
      <trkpt lat="45.12916" lon="6.11498">
        <ele>2772.7</ele>
        <time>2021-03-10T09:29:35Z</time>
      </trkpt>
      <trkpt lat="45.12915" lon="6.11498">
        <ele>2772.7</ele>
        <time>2021-03-10T09:29:36Z</time>
      </trkpt>
      <trkpt lat="45.12914" lon="6.11498">
        <ele>2772.7</ele>
        <time>2021-03-10T09:29:37Z</time>
      </trkpt>
      <trkpt lat="45.12914" lon="6.11499">
        <ele>2772.8</ele>
        <time>2021-03-10T09:29:38Z</time>
      </trkpt>
      <trkpt lat="45.12913" lon="6.11499">
        <ele>2772.8</ele>
        <time>2021-03-10T09:29:39Z</time>
      </trkpt>
      <trkpt lat="45.12912" lon="6.115">
        <ele>2772.8</ele>
        <time>2021-03-10T09:29:40Z</time>
      </trkpt>
      <trkpt lat="45.12911" lon="6.115">
        <ele>2772.8</ele>
        <time>2021-03-10T09:29:41Z</time>
      </trkpt>
      <trkpt lat="45.1291" lon="6.11501">
        <ele>2772.8</ele>
        <time>2021-03-10T09:29:42Z</time>
      </trkpt>
      <trkpt lat="45.12909" lon="6.11501">
        <ele>2773.6</ele>
        <time>2021-03-10T09:29:43Z</time>
      </trkpt>
      <trkpt lat="45.12908" lon="6.11502">
        <ele>2773.6</ele>
        <time>2021-03-10T09:29:44Z</time>
      </trkpt>
      <trkpt lat="45.12907" lon="6.11502">
        <ele>2773.7</ele>
        <time>2021-03-10T09:29:45Z</time>
      </trkpt>
      <trkpt lat="45.12907" lon="6.11503">
        <ele>2773.7</ele>
        <time>2021-03-10T09:29:46Z</time>
      </trkpt>
      <trkpt lat="45.12906" lon="6.11504">
        <ele>2773.7</ele>
        <time>2021-03-10T09:29:47Z</time>
      </trkpt>
      <trkpt lat="45.12905" lon="6.11505">
        <ele>2773.7</ele>
        <time>2021-03-10T09:29:48Z</time>
      </trkpt>
      <trkpt lat="45.12905" lon="6.11506">
        <ele>2774.5</ele>
        <time>2021-03-10T09:29:49Z</time>
      </trkpt>
      <trkpt lat="45.12904" lon="6.11507">
        <ele>2774.5</ele>
        <time>2021-03-10T09:29:50Z</time>
      </trkpt>
      <trkpt lat="45.12904" lon="6.11508">
        <ele>2774.5</ele>
        <time>2021-03-10T09:29:51Z</time>
      </trkpt>
      <trkpt lat="45.12903" lon="6.11509">
        <ele>2774.5</ele>
        <time>2021-03-10T09:29:52Z</time>
      </trkpt>
      <trkpt lat="45.12903" lon="6.11511">
        <ele>2775.4</ele>
        <time>2021-03-10T09:29:53Z</time>
      </trkpt>
      <trkpt lat="45.12902" lon="6.11513">
        <ele>2775.4</ele>
        <time>2021-03-10T09:29:54Z</time>
      </trkpt>
      <trkpt lat="45.12901" lon="6.11514">
        <ele>2776.3</ele>
        <time>2021-03-10T09:29:55Z</time>
      </trkpt>
      <trkpt lat="45.12901" lon="6.11515">
        <ele>2776.3</ele>
        <time>2021-03-10T09:29:56Z</time>
      </trkpt>
      <trkpt lat="45.129" lon="6.11517">
        <ele>2776.3</ele>
        <time>2021-03-10T09:29:57Z</time>
      </trkpt>
      <trkpt lat="45.129" lon="6.11518">
        <ele>2776.3</ele>
        <time>2021-03-10T09:29:58Z</time>
      </trkpt>
      <trkpt lat="45.129" lon="6.11519">
        <ele>2777.2</ele>
        <time>2021-03-10T09:29:59Z</time>
      </trkpt>
      <trkpt lat="45.12899" lon="6.1152">
        <ele>2777.2</ele>
        <time>2021-03-10T09:30:00Z</time>
      </trkpt>
      <trkpt lat="45.12899" lon="6.11522">
        <ele>2777.2</ele>
        <time>2021-03-10T09:30:01Z</time>
      </trkpt>
      <trkpt lat="45.12898" lon="6.11523">
        <ele>2778.3</ele>
        <time>2021-03-10T09:30:02Z</time>
      </trkpt>
      <trkpt lat="45.12898" lon="6.11524">
        <ele>2778.3</ele>
        <time>2021-03-10T09:30:03Z</time>
      </trkpt>
      <trkpt lat="45.12898" lon="6.11525">
        <ele>2778.3</ele>
        <time>2021-03-10T09:30:04Z</time>
      </trkpt>
      <trkpt lat="45.12897" lon="6.11526">
        <ele>2778.3</ele>
        <time>2021-03-10T09:30:05Z</time>
      </trkpt>
      <trkpt lat="45.12897" lon="6.11527">
        <ele>2779.3</ele>
        <time>2021-03-10T09:30:06Z</time>
      </trkpt>
      <trkpt lat="45.12896" lon="6.11528">
        <ele>2779.3</ele>
        <time>2021-03-10T09:30:07Z</time>
      </trkpt>
      <trkpt lat="45.12896" lon="6.11529">
        <ele>2779.3</ele>
        <time>2021-03-10T09:30:08Z</time>
      </trkpt>
      <trkpt lat="45.12896" lon="6.11531">
        <ele>2779.3</ele>
        <time>2021-03-10T09:30:09Z</time>
      </trkpt>
      <trkpt lat="45.12895" lon="6.11532">
        <ele>2780.3</ele>
        <time>2021-03-10T09:30:10Z</time>
      </trkpt>
      <trkpt lat="45.12895" lon="6.11532">
        <ele>2780.3</ele>
        <time>2021-03-10T09:30:11Z</time>
      </trkpt>
      <trkpt lat="45.12894" lon="6.11533">
        <ele>2780.3</ele>
        <time>2021-03-10T09:30:12Z</time>
      </trkpt>
      <trkpt lat="45.12894" lon="6.11534">
        <ele>2780.3</ele>
        <time>2021-03-10T09:30:13Z</time>
      </trkpt>
      <trkpt lat="45.12893" lon="6.11535">
        <ele>2780.3</ele>
        <time>2021-03-10T09:30:14Z</time>
      </trkpt>
      <trkpt lat="45.12893" lon="6.11536">
        <ele>2781.2</ele>
        <time>2021-03-10T09:30:15Z</time>
      </trkpt>
      <trkpt lat="45.12893" lon="6.11536">
        <ele>2781.2</ele>
        <time>2021-03-10T09:30:16Z</time>
      </trkpt>
      <trkpt lat="45.12892" lon="6.11538">
        <ele>2781.3</ele>
        <time>2021-03-10T09:30:17Z</time>
      </trkpt>
      <trkpt lat="45.12892" lon="6.11539">
        <ele>2781.3</ele>
        <time>2021-03-10T09:30:18Z</time>
      </trkpt>
      <trkpt lat="45.12891" lon="6.11539">
        <ele>2781.3</ele>
        <time>2021-03-10T09:30:19Z</time>
      </trkpt>
      <trkpt lat="45.12891" lon="6.1154">
        <ele>2782.2</ele>
        <time>2021-03-10T09:30:20Z</time>
      </trkpt>
      <trkpt lat="45.12891" lon="6.11541">
        <ele>2782.2</ele>
        <time>2021-03-10T09:30:21Z</time>
      </trkpt>
      <trkpt lat="45.1289" lon="6.11542">
        <ele>2782.2</ele>
        <time>2021-03-10T09:30:22Z</time>
      </trkpt>
      <trkpt lat="45.1289" lon="6.11543">
        <ele>2782.2</ele>
        <time>2021-03-10T09:30:23Z</time>
      </trkpt>
      <trkpt lat="45.1289" lon="6.11543">
        <ele>2782.2</ele>
        <time>2021-03-10T09:30:24Z</time>
      </trkpt>
      <trkpt lat="45.12889" lon="6.11544">
        <ele>2783.1</ele>
        <time>2021-03-10T09:30:25Z</time>
      </trkpt>
      <trkpt lat="45.12889" lon="6.11545">
        <ele>2783.1</ele>
        <time>2021-03-10T09:30:26Z</time>
      </trkpt>
      <trkpt lat="45.12888" lon="6.11545">
        <ele>2783.1</ele>
        <time>2021-03-10T09:30:27Z</time>
      </trkpt>
      <trkpt lat="45.12888" lon="6.11546">
        <ele>2783.1</ele>
        <time>2021-03-10T09:30:28Z</time>
      </trkpt>
      <trkpt lat="45.12888" lon="6.11547">
        <ele>2783.1</ele>
        <time>2021-03-10T09:30:29Z</time>
      </trkpt>
      <trkpt lat="45.12887" lon="6.11548">
        <ele>2783.1</ele>
        <time>2021-03-10T09:30:30Z</time>
      </trkpt>
      <trkpt lat="45.12887" lon="6.11549">
        <ele>2783.9</ele>
        <time>2021-03-10T09:30:31Z</time>
      </trkpt>
      <trkpt lat="45.12886" lon="6.11549">
        <ele>2784</ele>
        <time>2021-03-10T09:30:32Z</time>
      </trkpt>
      <trkpt lat="45.12886" lon="6.1155">
        <ele>2784</ele>
        <time>2021-03-10T09:30:33Z</time>
      </trkpt>
      <trkpt lat="45.12885" lon="6.11551">
        <ele>2784</ele>
        <time>2021-03-10T09:30:34Z</time>
      </trkpt>
      <trkpt lat="45.12885" lon="6.11552">
        <ele>2784.8</ele>
        <time>2021-03-10T09:30:35Z</time>
      </trkpt>
      <trkpt lat="45.12885" lon="6.11553">
        <ele>2784.8</ele>
        <time>2021-03-10T09:30:36Z</time>
      </trkpt>
      <trkpt lat="45.12884" lon="6.11554">
        <ele>2784.8</ele>
        <time>2021-03-10T09:30:37Z</time>
      </trkpt>
      <trkpt lat="45.12884" lon="6.11555">
        <ele>2784.8</ele>
        <time>2021-03-10T09:30:38Z</time>
      </trkpt>
      <trkpt lat="45.12883" lon="6.11556">
        <ele>2784.8</ele>
        <time>2021-03-10T09:30:39Z</time>
      </trkpt>
      <trkpt lat="45.12882" lon="6.11557">
        <ele>2785.6</ele>
        <time>2021-03-10T09:30:40Z</time>
      </trkpt>
      <trkpt lat="45.12881" lon="6.11558">
        <ele>2785.6</ele>
        <time>2021-03-10T09:30:41Z</time>
      </trkpt>
      <trkpt lat="45.12881" lon="6.11559">
        <ele>2785.6</ele>
        <time>2021-03-10T09:30:42Z</time>
      </trkpt>
      <trkpt lat="45.1288" lon="6.1156">
        <ele>2785.6</ele>
        <time>2021-03-10T09:30:43Z</time>
      </trkpt>
      <trkpt lat="45.12879" lon="6.1156">
        <ele>2785.6</ele>
        <time>2021-03-10T09:30:44Z</time>
      </trkpt>
      <trkpt lat="45.12879" lon="6.11561">
        <ele>2785.6</ele>
        <time>2021-03-10T09:30:45Z</time>
      </trkpt>
      <trkpt lat="45.12878" lon="6.11561">
        <ele>2786.4</ele>
        <time>2021-03-10T09:30:46Z</time>
      </trkpt>
      <trkpt lat="45.12877" lon="6.11562">
        <ele>2786.3</ele>
        <time>2021-03-10T09:30:47Z</time>
      </trkpt>
      <trkpt lat="45.12877" lon="6.11563">
        <ele>2786.3</ele>
        <time>2021-03-10T09:30:48Z</time>
      </trkpt>
      <trkpt lat="45.12876" lon="6.11563">
        <ele>2786.3</ele>
        <time>2021-03-10T09:30:49Z</time>
      </trkpt>
      <trkpt lat="45.12875" lon="6.11564">
        <ele>2786.3</ele>
        <time>2021-03-10T09:30:50Z</time>
      </trkpt>
      <trkpt lat="45.12875" lon="6.11564">
        <ele>2786.3</ele>
        <time>2021-03-10T09:30:51Z</time>
      </trkpt>
      <trkpt lat="45.12874" lon="6.11565">
        <ele>2786.3</ele>
        <time>2021-03-10T09:30:52Z</time>
      </trkpt>
      <trkpt lat="45.12873" lon="6.11566">
        <ele>2787.2</ele>
        <time>2021-03-10T09:30:53Z</time>
      </trkpt>
      <trkpt lat="45.12873" lon="6.11566">
        <ele>2787.2</ele>
        <time>2021-03-10T09:30:54Z</time>
      </trkpt>
      <trkpt lat="45.12872" lon="6.11567">
        <ele>2787.2</ele>
        <time>2021-03-10T09:30:55Z</time>
      </trkpt>
      <trkpt lat="45.12872" lon="6.11568">
        <ele>2787.2</ele>
        <time>2021-03-10T09:30:56Z</time>
      </trkpt>
      <trkpt lat="45.12871" lon="6.11569">
        <ele>2787.1</ele>
        <time>2021-03-10T09:30:57Z</time>
      </trkpt>
      <trkpt lat="45.12871" lon="6.1157">
        <ele>2788</ele>
        <time>2021-03-10T09:30:58Z</time>
      </trkpt>
      <trkpt lat="45.1287" lon="6.11571">
        <ele>2788</ele>
        <time>2021-03-10T09:30:59Z</time>
      </trkpt>
      <trkpt lat="45.12869" lon="6.11572">
        <ele>2788</ele>
        <time>2021-03-10T09:31:00Z</time>
      </trkpt>
      <trkpt lat="45.12869" lon="6.11572">
        <ele>2788</ele>
        <time>2021-03-10T09:31:01Z</time>
      </trkpt>
      <trkpt lat="45.12868" lon="6.11573">
        <ele>2788</ele>
        <time>2021-03-10T09:31:02Z</time>
      </trkpt>
      <trkpt lat="45.12868" lon="6.11574">
        <ele>2787.9</ele>
        <time>2021-03-10T09:31:03Z</time>
      </trkpt>
      <trkpt lat="45.12867" lon="6.11574">
        <ele>2788.9</ele>
        <time>2021-03-10T09:31:04Z</time>
      </trkpt>
      <trkpt lat="45.12867" lon="6.11575">
        <ele>2788.9</ele>
        <time>2021-03-10T09:31:05Z</time>
      </trkpt>
      <trkpt lat="45.12866" lon="6.11576">
        <ele>2788.9</ele>
        <time>2021-03-10T09:31:06Z</time>
      </trkpt>
      <trkpt lat="45.12866" lon="6.11577">
        <ele>2788.9</ele>
        <time>2021-03-10T09:31:07Z</time>
      </trkpt>
      <trkpt lat="45.12865" lon="6.11577">
        <ele>2788.9</ele>
        <time>2021-03-10T09:31:08Z</time>
      </trkpt>
      <trkpt lat="45.12865" lon="6.11578">
        <ele>2788.8</ele>
        <time>2021-03-10T09:31:09Z</time>
      </trkpt>
      <trkpt lat="45.12865" lon="6.11578">
        <ele>2789.8</ele>
        <time>2021-03-10T09:31:10Z</time>
      </trkpt>
      <trkpt lat="45.12864" lon="6.11579">
        <ele>2789.8</ele>
        <time>2021-03-10T09:31:11Z</time>
      </trkpt>
      <trkpt lat="45.12864" lon="6.11579">
        <ele>2789.8</ele>
        <time>2021-03-10T09:31:12Z</time>
      </trkpt>
      <trkpt lat="45.12864" lon="6.1158">
        <ele>2789.8</ele>
        <time>2021-03-10T09:31:13Z</time>
      </trkpt>
      <trkpt lat="45.12864" lon="6.11581">
        <ele>2789.8</ele>
        <time>2021-03-10T09:31:14Z</time>
      </trkpt>
      <trkpt lat="45.12864" lon="6.11581">
        <ele>2789.8</ele>
        <time>2021-03-10T09:31:15Z</time>
      </trkpt>
      <trkpt lat="45.12863" lon="6.11582">
        <ele>2790.8</ele>
        <time>2021-03-10T09:31:16Z</time>
      </trkpt>
      <trkpt lat="45.12863" lon="6.11583">
        <ele>2790.8</ele>
        <time>2021-03-10T09:31:17Z</time>
      </trkpt>
      <trkpt lat="45.12863" lon="6.11584">
        <ele>2790.8</ele>
        <time>2021-03-10T09:31:18Z</time>
      </trkpt>
      <trkpt lat="45.12863" lon="6.11584">
        <ele>2790.8</ele>
        <time>2021-03-10T09:31:19Z</time>
      </trkpt>
      <trkpt lat="45.12864" lon="6.11584">
        <ele>2790.8</ele>
        <time>2021-03-10T09:31:20Z</time>
      </trkpt>
      <trkpt lat="45.12864" lon="6.11585">
        <ele>2790.8</ele>
        <time>2021-03-10T09:31:21Z</time>
      </trkpt>
      <trkpt lat="45.12865" lon="6.11585">
        <ele>2790.8</ele>
        <time>2021-03-10T09:31:22Z</time>
      </trkpt>
      <trkpt lat="45.12865" lon="6.11585">
        <ele>2790.8</ele>
        <time>2021-03-10T09:31:23Z</time>
      </trkpt>
      <trkpt lat="45.12866" lon="6.11585">
        <ele>2790.8</ele>
        <time>2021-03-10T09:31:24Z</time>
      </trkpt>
      <trkpt lat="45.12866" lon="6.11585">
        <ele>2790.8</ele>
        <time>2021-03-10T09:31:25Z</time>
      </trkpt>
      <trkpt lat="45.12867" lon="6.11585">
        <ele>2790.8</ele>
        <time>2021-03-10T09:31:26Z</time>
      </trkpt>
      <trkpt lat="45.12867" lon="6.11585">
        <ele>2790.8</ele>
        <time>2021-03-10T09:31:27Z</time>
      </trkpt>
      <trkpt lat="45.12869" lon="6.1161">
        <ele>2796.8</ele>
        <time>2021-03-10T09:32:36Z</time>
      </trkpt>
      <trkpt lat="45.12869" lon="6.11611">
        <ele>2796.8</ele>
        <time>2021-03-10T09:32:37Z</time>
      </trkpt>
      <trkpt lat="45.12869" lon="6.11612">
        <ele>2796.8</ele>
        <time>2021-03-10T09:32:38Z</time>
      </trkpt>
      <trkpt lat="45.12869" lon="6.11613">
        <ele>2798</ele>
        <time>2021-03-10T09:32:39Z</time>
      </trkpt>
      <trkpt lat="45.12869" lon="6.11613">
        <ele>2798</ele>
        <time>2021-03-10T09:32:40Z</time>
      </trkpt>
      <trkpt lat="45.12869" lon="6.11614">
        <ele>2798</ele>
        <time>2021-03-10T09:32:41Z</time>
      </trkpt>
      <trkpt lat="45.12869" lon="6.11614">
        <ele>2798</ele>
        <time>2021-03-10T09:32:42Z</time>
      </trkpt>
      <trkpt lat="45.12869" lon="6.11614">
        <ele>2798</ele>
        <time>2021-03-10T09:32:43Z</time>
      </trkpt>
      <trkpt lat="45.12869" lon="6.11615">
        <ele>2798</ele>
        <time>2021-03-10T09:32:44Z</time>
      </trkpt>
      <trkpt lat="45.12869" lon="6.11615">
        <ele>2798</ele>
        <time>2021-03-10T09:32:45Z</time>
      </trkpt>
      <trkpt lat="45.12869" lon="6.11616">
        <ele>2798</ele>
        <time>2021-03-10T09:32:46Z</time>
      </trkpt>
      <trkpt lat="45.12869" lon="6.11616">
        <ele>2798</ele>
        <time>2021-03-10T09:32:47Z</time>
      </trkpt>
      <trkpt lat="45.12868" lon="6.11617">
        <ele>2799.1</ele>
        <time>2021-03-10T09:32:48Z</time>
      </trkpt>
      <trkpt lat="45.12868" lon="6.11617">
        <ele>2799.1</ele>
        <time>2021-03-10T09:32:49Z</time>
      </trkpt>
      <trkpt lat="45.12868" lon="6.11618">
        <ele>2799.1</ele>
        <time>2021-03-10T09:32:50Z</time>
      </trkpt>
      <trkpt lat="45.12868" lon="6.11618">
        <ele>2799.1</ele>
        <time>2021-03-10T09:32:51Z</time>
      </trkpt>
      <trkpt lat="45.12867" lon="6.11619">
        <ele>2799.1</ele>
        <time>2021-03-10T09:32:52Z</time>
      </trkpt>
      <trkpt lat="45.12867" lon="6.1162">
        <ele>2799.1</ele>
        <time>2021-03-10T09:32:53Z</time>
      </trkpt>
      <trkpt lat="45.12867" lon="6.11621">
        <ele>2799.1</ele>
        <time>2021-03-10T09:32:54Z</time>
      </trkpt>
      <trkpt lat="45.12867" lon="6.11621">
        <ele>2800.3</ele>
        <time>2021-03-10T09:32:55Z</time>
      </trkpt>
      <trkpt lat="45.12867" lon="6.11622">
        <ele>2800.3</ele>
        <time>2021-03-10T09:32:56Z</time>
      </trkpt>
      <trkpt lat="45.12867" lon="6.11623">
        <ele>2800.3</ele>
        <time>2021-03-10T09:32:57Z</time>
      </trkpt>
      <trkpt lat="45.12866" lon="6.11624">
        <ele>2800.3</ele>
        <time>2021-03-10T09:32:58Z</time>
      </trkpt>
      <trkpt lat="45.12866" lon="6.11625">
        <ele>2800.3</ele>
        <time>2021-03-10T09:32:59Z</time>
      </trkpt>
      <trkpt lat="45.12866" lon="6.11626">
        <ele>2801.5</ele>
        <time>2021-03-10T09:33:00Z</time>
      </trkpt>
      <trkpt lat="45.12866" lon="6.11627">
        <ele>2801.5</ele>
        <time>2021-03-10T09:33:01Z</time>
      </trkpt>
      <trkpt lat="45.12865" lon="6.11628">
        <ele>2801.5</ele>
        <time>2021-03-10T09:33:02Z</time>
      </trkpt>
      <trkpt lat="45.12865" lon="6.11629">
        <ele>2801.5</ele>
        <time>2021-03-10T09:33:03Z</time>
      </trkpt>
      <trkpt lat="45.12865" lon="6.1163">
        <ele>2802.7</ele>
        <time>2021-03-10T09:33:04Z</time>
      </trkpt>
      <trkpt lat="45.12864" lon="6.11631">
        <ele>2802.7</ele>
        <time>2021-03-10T09:33:05Z</time>
      </trkpt>
      <trkpt lat="45.12864" lon="6.11631">
        <ele>2802.7</ele>
        <time>2021-03-10T09:33:06Z</time>
      </trkpt>
      <trkpt lat="45.12864" lon="6.11632">
        <ele>2802.7</ele>
        <time>2021-03-10T09:33:07Z</time>
      </trkpt>
      <trkpt lat="45.12864" lon="6.11633">
        <ele>2802.7</ele>
        <time>2021-03-10T09:33:08Z</time>
      </trkpt>
      <trkpt lat="45.12863" lon="6.11633">
        <ele>2802.7</ele>
        <time>2021-03-10T09:33:09Z</time>
      </trkpt>
      <trkpt lat="45.12863" lon="6.11634">
        <ele>2802.7</ele>
        <time>2021-03-10T09:33:10Z</time>
      </trkpt>
      <trkpt lat="45.12863" lon="6.11634">
        <ele>2803.9</ele>
        <time>2021-03-10T09:33:11Z</time>
      </trkpt>
      <trkpt lat="45.12863" lon="6.11635">
        <ele>2803.9</ele>
        <time>2021-03-10T09:33:12Z</time>
      </trkpt>
      <trkpt lat="45.12862" lon="6.11636">
        <ele>2804</ele>
        <time>2021-03-10T09:33:13Z</time>
      </trkpt>
      <trkpt lat="45.12862" lon="6.11636">
        <ele>2804</ele>
        <time>2021-03-10T09:33:14Z</time>
      </trkpt>
      <trkpt lat="45.12862" lon="6.11636">
        <ele>2804</ele>
        <time>2021-03-10T09:33:15Z</time>
      </trkpt>
      <trkpt lat="45.12862" lon="6.11636">
        <ele>2804</ele>
        <time>2021-03-10T09:33:16Z</time>
      </trkpt>
      <trkpt lat="45.12862" lon="6.11636">
        <ele>2804</ele>
        <time>2021-03-10T09:33:17Z</time>
      </trkpt>
      <trkpt lat="45.12862" lon="6.11636">
        <ele>2804</ele>
        <time>2021-03-10T09:33:18Z</time>
      </trkpt>
      <trkpt lat="45.12862" lon="6.11636">
        <ele>2804</ele>
        <time>2021-03-10T09:33:19Z</time>
      </trkpt>
      <trkpt lat="45.12863" lon="6.11636">
        <ele>2803.9</ele>
        <time>2021-03-10T09:33:20Z</time>
      </trkpt>
      <trkpt lat="45.12863" lon="6.11636">
        <ele>2803.9</ele>
        <time>2021-03-10T09:33:21Z</time>
      </trkpt>
      <trkpt lat="45.12864" lon="6.11637">
        <ele>2803.9</ele>
        <time>2021-03-10T09:33:22Z</time>
      </trkpt>
      <trkpt lat="45.12871" lon="6.11638">
        <ele>2803.8</ele>
        <time>2021-03-10T09:33:37Z</time>
      </trkpt>
      <trkpt lat="45.12872" lon="6.11638">
        <ele>2803.8</ele>
        <time>2021-03-10T09:33:38Z</time>
      </trkpt>
      <trkpt lat="45.12873" lon="6.11638">
        <ele>2805</ele>
        <time>2021-03-10T09:33:39Z</time>
      </trkpt>
      <trkpt lat="45.12873" lon="6.11638">
        <ele>2805</ele>
        <time>2021-03-10T09:33:40Z</time>
      </trkpt>
      <trkpt lat="45.12874" lon="6.11639">
        <ele>2805</ele>
        <time>2021-03-10T09:33:41Z</time>
      </trkpt>
      <trkpt lat="45.12875" lon="6.11639">
        <ele>2805</ele>
        <time>2021-03-10T09:33:42Z</time>
      </trkpt>
      <trkpt lat="45.12876" lon="6.11639">
        <ele>2805</ele>
        <time>2021-03-10T09:33:43Z</time>
      </trkpt>
      <trkpt lat="45.12876" lon="6.11639">
        <ele>2805</ele>
        <time>2021-03-10T09:33:44Z</time>
      </trkpt>
      <trkpt lat="45.12877" lon="6.11639">
        <ele>2805</ele>
        <time>2021-03-10T09:33:45Z</time>
      </trkpt>
      <trkpt lat="45.12878" lon="6.11639">
        <ele>2805</ele>
        <time>2021-03-10T09:33:46Z</time>
      </trkpt>
      <trkpt lat="45.12878" lon="6.11639">
        <ele>2805</ele>
        <time>2021-03-10T09:33:47Z</time>
      </trkpt>
      <trkpt lat="45.12879" lon="6.11639">
        <ele>2805</ele>
        <time>2021-03-10T09:33:48Z</time>
      </trkpt>
      <trkpt lat="45.12879" lon="6.11639">
        <ele>2805</ele>
        <time>2021-03-10T09:33:49Z</time>
      </trkpt>
      <trkpt lat="45.1288" lon="6.1164">
        <ele>2805</ele>
        <time>2021-03-10T09:33:50Z</time>
      </trkpt>
      <trkpt lat="45.12881" lon="6.1164">
        <ele>2805</ele>
        <time>2021-03-10T09:33:51Z</time>
      </trkpt>
      <trkpt lat="45.12881" lon="6.1164">
        <ele>2805</ele>
        <time>2021-03-10T09:33:52Z</time>
      </trkpt>
      <trkpt lat="45.12882" lon="6.11641">
        <ele>2805</ele>
        <time>2021-03-10T09:33:53Z</time>
      </trkpt>
      <trkpt lat="45.12882" lon="6.11641">
        <ele>2805</ele>
        <time>2021-03-10T09:33:54Z</time>
      </trkpt>
      <trkpt lat="45.12883" lon="6.11641">
        <ele>2805</ele>
        <time>2021-03-10T09:33:55Z</time>
      </trkpt>
      <trkpt lat="45.12883" lon="6.11642">
        <ele>2805</ele>
        <time>2021-03-10T09:33:56Z</time>
      </trkpt>
      <trkpt lat="45.12883" lon="6.11642">
        <ele>2804.9</ele>
        <time>2021-03-10T09:33:57Z</time>
      </trkpt>
      <trkpt lat="45.12884" lon="6.11642">
        <ele>2804.9</ele>
        <time>2021-03-10T09:33:58Z</time>
      </trkpt>
      <trkpt lat="45.12885" lon="6.11642">
        <ele>2804.9</ele>
        <time>2021-03-10T09:33:59Z</time>
      </trkpt>
      <trkpt lat="45.12885" lon="6.11642">
        <ele>2804.9</ele>
        <time>2021-03-10T09:34:00Z</time>
      </trkpt>
      <trkpt lat="45.12886" lon="6.11643">
        <ele>2806.2</ele>
        <time>2021-03-10T09:34:01Z</time>
      </trkpt>
      <trkpt lat="45.12887" lon="6.11643">
        <ele>2806.1</ele>
        <time>2021-03-10T09:34:02Z</time>
      </trkpt>
      <trkpt lat="45.12887" lon="6.11643">
        <ele>2806.1</ele>
        <time>2021-03-10T09:34:03Z</time>
      </trkpt>
      <trkpt lat="45.12888" lon="6.11643">
        <ele>2806.1</ele>
        <time>2021-03-10T09:34:04Z</time>
      </trkpt>
      <trkpt lat="45.12888" lon="6.11644">
        <ele>2806.1</ele>
        <time>2021-03-10T09:34:05Z</time>
      </trkpt>
      <trkpt lat="45.12889" lon="6.11644">
        <ele>2806.1</ele>
        <time>2021-03-10T09:34:06Z</time>
      </trkpt>
      <trkpt lat="45.1289" lon="6.11645">
        <ele>2806</ele>
        <time>2021-03-10T09:34:07Z</time>
      </trkpt>
      <trkpt lat="45.1289" lon="6.11646">
        <ele>2806</ele>
        <time>2021-03-10T09:34:08Z</time>
      </trkpt>
      <trkpt lat="45.12891" lon="6.11646">
        <ele>2806</ele>
        <time>2021-03-10T09:34:09Z</time>
      </trkpt>
      <trkpt lat="45.12891" lon="6.11647">
        <ele>2807.3</ele>
        <time>2021-03-10T09:34:10Z</time>
      </trkpt>
      <trkpt lat="45.12891" lon="6.11647">
        <ele>2807.3</ele>
        <time>2021-03-10T09:34:11Z</time>
      </trkpt>
      <trkpt lat="45.12892" lon="6.11648">
        <ele>2807.3</ele>
        <time>2021-03-10T09:34:12Z</time>
      </trkpt>
      <trkpt lat="45.12892" lon="6.11649">
        <ele>2807.3</ele>
        <time>2021-03-10T09:34:13Z</time>
      </trkpt>
      <trkpt lat="45.12893" lon="6.11649">
        <ele>2807.3</ele>
        <time>2021-03-10T09:34:14Z</time>
      </trkpt>
      <trkpt lat="45.12893" lon="6.1165">
        <ele>2807.3</ele>
        <time>2021-03-10T09:34:15Z</time>
      </trkpt>
      <trkpt lat="45.12894" lon="6.1165">
        <ele>2807.3</ele>
        <time>2021-03-10T09:34:16Z</time>
      </trkpt>
      <trkpt lat="45.12894" lon="6.11651">
        <ele>2807.3</ele>
        <time>2021-03-10T09:34:17Z</time>
      </trkpt>
      <trkpt lat="45.12895" lon="6.11651">
        <ele>2808.6</ele>
        <time>2021-03-10T09:34:18Z</time>
      </trkpt>
      <trkpt lat="45.12896" lon="6.11652">
        <ele>2808.6</ele>
        <time>2021-03-10T09:34:19Z</time>
      </trkpt>
      <trkpt lat="45.12896" lon="6.11652">
        <ele>2808.6</ele>
        <time>2021-03-10T09:34:20Z</time>
      </trkpt>
      <trkpt lat="45.12897" lon="6.11653">
        <ele>2808.6</ele>
        <time>2021-03-10T09:34:21Z</time>
      </trkpt>
      <trkpt lat="45.12897" lon="6.11653">
        <ele>2808.6</ele>
        <time>2021-03-10T09:34:22Z</time>
      </trkpt>
      <trkpt lat="45.12898" lon="6.11654">
        <ele>2808.6</ele>
        <time>2021-03-10T09:34:23Z</time>
      </trkpt>
      <trkpt lat="45.12899" lon="6.11654">
        <ele>2808.5</ele>
        <time>2021-03-10T09:34:24Z</time>
      </trkpt>
      <trkpt lat="45.12899" lon="6.11655">
        <ele>2808.5</ele>
        <time>2021-03-10T09:34:25Z</time>
      </trkpt>
      <trkpt lat="45.129" lon="6.11655">
        <ele>2808.5</ele>
        <time>2021-03-10T09:34:26Z</time>
      </trkpt>
      <trkpt lat="45.129" lon="6.11655">
        <ele>2808.5</ele>
        <time>2021-03-10T09:34:27Z</time>
      </trkpt>
      <trkpt lat="45.129" lon="6.11656">
        <ele>2809.9</ele>
        <time>2021-03-10T09:34:28Z</time>
      </trkpt>
      <trkpt lat="45.129" lon="6.11656">
        <ele>2809.9</ele>
        <time>2021-03-10T09:34:29Z</time>
      </trkpt>
      <trkpt lat="45.129" lon="6.11657">
        <ele>2809.9</ele>
        <time>2021-03-10T09:34:30Z</time>
      </trkpt>
      <trkpt lat="45.12901" lon="6.11657">
        <ele>2809.9</ele>
        <time>2021-03-10T09:34:31Z</time>
      </trkpt>
      <trkpt lat="45.12901" lon="6.11658">
        <ele>2809.9</ele>
        <time>2021-03-10T09:34:32Z</time>
      </trkpt>
      <trkpt lat="45.12902" lon="6.11659">
        <ele>2809.9</ele>
        <time>2021-03-10T09:34:33Z</time>
      </trkpt>
      <trkpt lat="45.12902" lon="6.11659">
        <ele>2809.9</ele>
        <time>2021-03-10T09:34:34Z</time>
      </trkpt>
      <trkpt lat="45.12902" lon="6.1166">
        <ele>2811.3</ele>
        <time>2021-03-10T09:34:35Z</time>
      </trkpt>
      <trkpt lat="45.12903" lon="6.11661">
        <ele>2811.3</ele>
        <time>2021-03-10T09:34:36Z</time>
      </trkpt>
      <trkpt lat="45.12904" lon="6.11662">
        <ele>2811.3</ele>
        <time>2021-03-10T09:34:37Z</time>
      </trkpt>
      <trkpt lat="45.12904" lon="6.11662">
        <ele>2811.3</ele>
        <time>2021-03-10T09:34:38Z</time>
      </trkpt>
      <trkpt lat="45.12905" lon="6.11663">
        <ele>2811.3</ele>
        <time>2021-03-10T09:34:39Z</time>
      </trkpt>
      <trkpt lat="45.12905" lon="6.11664">
        <ele>2811.3</ele>
        <time>2021-03-10T09:34:40Z</time>
      </trkpt>
      <trkpt lat="45.12906" lon="6.11665">
        <ele>2812.7</ele>
        <time>2021-03-10T09:34:41Z</time>
      </trkpt>
      <trkpt lat="45.12907" lon="6.11665">
        <ele>2812.7</ele>
        <time>2021-03-10T09:34:42Z</time>
      </trkpt>
      <trkpt lat="45.12907" lon="6.11666">
        <ele>2812.7</ele>
        <time>2021-03-10T09:34:43Z</time>
      </trkpt>
      <trkpt lat="45.12907" lon="6.11666">
        <ele>2812.7</ele>
        <time>2021-03-10T09:34:44Z</time>
      </trkpt>
      <trkpt lat="45.12908" lon="6.11667">
        <ele>2812.7</ele>
        <time>2021-03-10T09:34:45Z</time>
      </trkpt>
      <trkpt lat="45.12908" lon="6.11667">
        <ele>2812.7</ele>
        <time>2021-03-10T09:34:46Z</time>
      </trkpt>
      <trkpt lat="45.12909" lon="6.11668">
        <ele>2812.7</ele>
        <time>2021-03-10T09:34:47Z</time>
      </trkpt>
      <trkpt lat="45.12909" lon="6.11668">
        <ele>2814</ele>
        <time>2021-03-10T09:34:48Z</time>
      </trkpt>
      <trkpt lat="45.1291" lon="6.11669">
        <ele>2814</ele>
        <time>2021-03-10T09:34:49Z</time>
      </trkpt>
      <trkpt lat="45.1291" lon="6.11669">
        <ele>2814</ele>
        <time>2021-03-10T09:34:50Z</time>
      </trkpt>
      <trkpt lat="45.12911" lon="6.1167">
        <ele>2814</ele>
        <time>2021-03-10T09:34:51Z</time>
      </trkpt>
      <trkpt lat="45.12911" lon="6.1167">
        <ele>2814</ele>
        <time>2021-03-10T09:34:52Z</time>
      </trkpt>
      <trkpt lat="45.12912" lon="6.1167">
        <ele>2814</ele>
        <time>2021-03-10T09:34:53Z</time>
      </trkpt>
      <trkpt lat="45.12912" lon="6.11671">
        <ele>2814</ele>
        <time>2021-03-10T09:34:54Z</time>
      </trkpt>
      <trkpt lat="45.12912" lon="6.11671">
        <ele>2814</ele>
        <time>2021-03-10T09:34:55Z</time>
      </trkpt>
      <trkpt lat="45.12913" lon="6.11672">
        <ele>2814</ele>
        <time>2021-03-10T09:34:56Z</time>
      </trkpt>
      <trkpt lat="45.12913" lon="6.11673">
        <ele>2815.3</ele>
        <time>2021-03-10T09:34:57Z</time>
      </trkpt>
      <trkpt lat="45.12913" lon="6.11674">
        <ele>2815.3</ele>
        <time>2021-03-10T09:34:58Z</time>
      </trkpt>
      <trkpt lat="45.12913" lon="6.11675">
        <ele>2815.3</ele>
        <time>2021-03-10T09:34:59Z</time>
      </trkpt>
      <trkpt lat="45.12913" lon="6.11676">
        <ele>2815.3</ele>
        <time>2021-03-10T09:35:00Z</time>
      </trkpt>
      <trkpt lat="45.12913" lon="6.11677">
        <ele>2815.3</ele>
        <time>2021-03-10T09:35:01Z</time>
      </trkpt>
      <trkpt lat="45.12912" lon="6.11677">
        <ele>2816.6</ele>
        <time>2021-03-10T09:35:02Z</time>
      </trkpt>
      <trkpt lat="45.12912" lon="6.11678">
        <ele>2816.6</ele>
        <time>2021-03-10T09:35:03Z</time>
      </trkpt>
      <trkpt lat="45.12912" lon="6.11679">
        <ele>2816.6</ele>
        <time>2021-03-10T09:35:04Z</time>
      </trkpt>
      <trkpt lat="45.12911" lon="6.1168">
        <ele>2816.6</ele>
        <time>2021-03-10T09:35:05Z</time>
      </trkpt>
      <trkpt lat="45.12911" lon="6.11681">
        <ele>2816.6</ele>
        <time>2021-03-10T09:35:06Z</time>
      </trkpt>
      <trkpt lat="45.1291" lon="6.11682">
        <ele>2817.7</ele>
        <time>2021-03-10T09:35:07Z</time>
      </trkpt>
      <trkpt lat="45.1291" lon="6.11682">
        <ele>2817.7</ele>
        <time>2021-03-10T09:35:08Z</time>
      </trkpt>
      <trkpt lat="45.1291" lon="6.11683">
        <ele>2817.7</ele>
        <time>2021-03-10T09:35:09Z</time>
      </trkpt>
      <trkpt lat="45.1291" lon="6.11684">
        <ele>2817.7</ele>
        <time>2021-03-10T09:35:10Z</time>
      </trkpt>
      <trkpt lat="45.12909" lon="6.11685">
        <ele>2817.7</ele>
        <time>2021-03-10T09:35:11Z</time>
      </trkpt>
      <trkpt lat="45.12909" lon="6.11685">
        <ele>2817.7</ele>
        <time>2021-03-10T09:35:12Z</time>
      </trkpt>
      <trkpt lat="45.12909" lon="6.11686">
        <ele>2818.9</ele>
        <time>2021-03-10T09:35:13Z</time>
      </trkpt>
      <trkpt lat="45.12908" lon="6.11687">
        <ele>2818.9</ele>
        <time>2021-03-10T09:35:14Z</time>
      </trkpt>
      <trkpt lat="45.12908" lon="6.11687">
        <ele>2818.9</ele>
        <time>2021-03-10T09:35:15Z</time>
      </trkpt>
      <trkpt lat="45.12908" lon="6.11688">
        <ele>2818.9</ele>
        <time>2021-03-10T09:35:16Z</time>
      </trkpt>
      <trkpt lat="45.12907" lon="6.11689">
        <ele>2818.9</ele>
        <time>2021-03-10T09:35:17Z</time>
      </trkpt>
      <trkpt lat="45.12906" lon="6.11689">
        <ele>2818.9</ele>
        <time>2021-03-10T09:35:18Z</time>
      </trkpt>
      <trkpt lat="45.12906" lon="6.11689">
        <ele>2818.9</ele>
        <time>2021-03-10T09:35:19Z</time>
      </trkpt>
      <trkpt lat="45.12906" lon="6.1169">
        <ele>2820.2</ele>
        <time>2021-03-10T09:35:20Z</time>
      </trkpt>
      <trkpt lat="45.12905" lon="6.1169">
        <ele>2820.2</ele>
        <time>2021-03-10T09:35:21Z</time>
      </trkpt>
      <trkpt lat="45.12905" lon="6.11691">
        <ele>2820.2</ele>
        <time>2021-03-10T09:35:22Z</time>
      </trkpt>
      <trkpt lat="45.12904" lon="6.11691">
        <ele>2820.1</ele>
        <time>2021-03-10T09:35:23Z</time>
      </trkpt>
      <trkpt lat="45.12903" lon="6.11692">
        <ele>2820.1</ele>
        <time>2021-03-10T09:35:24Z</time>
      </trkpt>
      <trkpt lat="45.12903" lon="6.11692">
        <ele>2820.1</ele>
        <time>2021-03-10T09:35:25Z</time>
      </trkpt>
      <trkpt lat="45.12902" lon="6.11693">
        <ele>2820.1</ele>
        <time>2021-03-10T09:35:26Z</time>
      </trkpt>
      <trkpt lat="45.12902" lon="6.11693">
        <ele>2820.1</ele>
        <time>2021-03-10T09:35:27Z</time>
      </trkpt>
      <trkpt lat="45.12901" lon="6.11693">
        <ele>2820.1</ele>
        <time>2021-03-10T09:35:28Z</time>
      </trkpt>
      <trkpt lat="45.12901" lon="6.11694">
        <ele>2820.1</ele>
        <time>2021-03-10T09:35:29Z</time>
      </trkpt>
      <trkpt lat="45.129" lon="6.11694">
        <ele>2821.5</ele>
        <time>2021-03-10T09:35:30Z</time>
      </trkpt>
      <trkpt lat="45.12899" lon="6.11694">
        <ele>2821.5</ele>
        <time>2021-03-10T09:35:31Z</time>
      </trkpt>
      <trkpt lat="45.12899" lon="6.11694">
        <ele>2821.5</ele>
        <time>2021-03-10T09:35:32Z</time>
      </trkpt>
      <trkpt lat="45.12899" lon="6.11694">
        <ele>2821.5</ele>
        <time>2021-03-10T09:35:33Z</time>
      </trkpt>
      <trkpt lat="45.12898" lon="6.11694">
        <ele>2820.1</ele>
        <time>2021-03-10T09:35:34Z</time>
      </trkpt>
      <trkpt lat="45.12898" lon="6.11694">
        <ele>2820.1</ele>
        <time>2021-03-10T09:35:35Z</time>
      </trkpt>
      <trkpt lat="45.12897" lon="6.11693">
        <ele>2820.1</ele>
        <time>2021-03-10T09:35:36Z</time>
      </trkpt>
      <trkpt lat="45.12897" lon="6.11693">
        <ele>2820.1</ele>
        <time>2021-03-10T09:35:37Z</time>
      </trkpt>
      <trkpt lat="45.12897" lon="6.11693">
        <ele>2820.1</ele>
        <time>2021-03-10T09:35:38Z</time>
      </trkpt>
      <trkpt lat="45.12897" lon="6.11693">
        <ele>2820.1</ele>
        <time>2021-03-10T09:35:39Z</time>
      </trkpt>
      <trkpt lat="45.12897" lon="6.11693">
        <ele>2820.1</ele>
        <time>2021-03-10T09:35:40Z</time>
      </trkpt>
      <trkpt lat="45.12897" lon="6.11693">
        <ele>2820.1</ele>
        <time>2021-03-10T09:35:41Z</time>
      </trkpt>
      <trkpt lat="45.12913" lon="6.11705">
        <ele>2824.3</ele>
        <time>2021-03-10T09:36:15Z</time>
      </trkpt>
      <trkpt lat="45.12914" lon="6.11705">
        <ele>2824.3</ele>
        <time>2021-03-10T09:36:16Z</time>
      </trkpt>
      <trkpt lat="45.12914" lon="6.11705">
        <ele>2824.4</ele>
        <time>2021-03-10T09:36:17Z</time>
      </trkpt>
      <trkpt lat="45.12915" lon="6.11705">
        <ele>2824.4</ele>
        <time>2021-03-10T09:36:18Z</time>
      </trkpt>
      <trkpt lat="45.12915" lon="6.11705">
        <ele>2824.4</ele>
        <time>2021-03-10T09:36:19Z</time>
      </trkpt>
      <trkpt lat="45.12916" lon="6.11705">
        <ele>2824.4</ele>
        <time>2021-03-10T09:36:20Z</time>
      </trkpt>
      <trkpt lat="45.12916" lon="6.11705">
        <ele>2824.4</ele>
        <time>2021-03-10T09:36:21Z</time>
      </trkpt>
      <trkpt lat="45.12917" lon="6.11705">
        <ele>2824.4</ele>
        <time>2021-03-10T09:36:22Z</time>
      </trkpt>
      <trkpt lat="45.12917" lon="6.11705">
        <ele>2824.4</ele>
        <time>2021-03-10T09:36:23Z</time>
      </trkpt>
      <trkpt lat="45.12918" lon="6.11705">
        <ele>2824.4</ele>
        <time>2021-03-10T09:36:24Z</time>
      </trkpt>
      <trkpt lat="45.12918" lon="6.11705">
        <ele>2824.4</ele>
        <time>2021-03-10T09:36:25Z</time>
      </trkpt>
      <trkpt lat="45.12919" lon="6.11705">
        <ele>2824.4</ele>
        <time>2021-03-10T09:36:26Z</time>
      </trkpt>
      <trkpt lat="45.12928" lon="6.11705">
        <ele>2824.5</ele>
        <time>2021-03-10T09:36:41Z</time>
      </trkpt>
      <trkpt lat="45.12928" lon="6.11705">
        <ele>2824.5</ele>
        <time>2021-03-10T09:36:42Z</time>
      </trkpt>
      <trkpt lat="45.12929" lon="6.11705">
        <ele>2824.6</ele>
        <time>2021-03-10T09:36:43Z</time>
      </trkpt>
      <trkpt lat="45.1293" lon="6.11705">
        <ele>2824.6</ele>
        <time>2021-03-10T09:36:44Z</time>
      </trkpt>
      <trkpt lat="45.1293" lon="6.11705">
        <ele>2824.6</ele>
        <time>2021-03-10T09:36:45Z</time>
      </trkpt>
      <trkpt lat="45.12931" lon="6.11705">
        <ele>2824.6</ele>
        <time>2021-03-10T09:36:46Z</time>
      </trkpt>
      <trkpt lat="45.12931" lon="6.11705">
        <ele>2824.6</ele>
        <time>2021-03-10T09:36:47Z</time>
      </trkpt>
      <trkpt lat="45.12932" lon="6.11706">
        <ele>2824.6</ele>
        <time>2021-03-10T09:36:48Z</time>
      </trkpt>
      <trkpt lat="45.12933" lon="6.11706">
        <ele>2824.6</ele>
        <time>2021-03-10T09:36:49Z</time>
      </trkpt>
      <trkpt lat="45.12933" lon="6.11706">
        <ele>2824.6</ele>
        <time>2021-03-10T09:36:50Z</time>
      </trkpt>
      <trkpt lat="45.12933" lon="6.11706">
        <ele>2824.6</ele>
        <time>2021-03-10T09:36:51Z</time>
      </trkpt>
      <trkpt lat="45.12934" lon="6.11707">
        <ele>2824.6</ele>
        <time>2021-03-10T09:36:52Z</time>
      </trkpt>
      <trkpt lat="45.12934" lon="6.11707">
        <ele>2824.6</ele>
        <time>2021-03-10T09:36:53Z</time>
      </trkpt>
      <trkpt lat="45.12935" lon="6.11707">
        <ele>2825.9</ele>
        <time>2021-03-10T09:36:54Z</time>
      </trkpt>
      <trkpt lat="45.12935" lon="6.11707">
        <ele>2825.9</ele>
        <time>2021-03-10T09:36:55Z</time>
      </trkpt>
      <trkpt lat="45.12936" lon="6.11707">
        <ele>2825.9</ele>
        <time>2021-03-10T09:36:56Z</time>
      </trkpt>
      <trkpt lat="45.12936" lon="6.11707">
        <ele>2825.9</ele>
        <time>2021-03-10T09:36:57Z</time>
      </trkpt>
      <trkpt lat="45.12937" lon="6.11707">
        <ele>2825.9</ele>
        <time>2021-03-10T09:36:58Z</time>
      </trkpt>
      <trkpt lat="45.12937" lon="6.11707">
        <ele>2825.9</ele>
        <time>2021-03-10T09:36:59Z</time>
      </trkpt>
      <trkpt lat="45.12938" lon="6.11707">
        <ele>2825.9</ele>
        <time>2021-03-10T09:37:00Z</time>
      </trkpt>
      <trkpt lat="45.12938" lon="6.11707">
        <ele>2825.8</ele>
        <time>2021-03-10T09:37:01Z</time>
      </trkpt>
      <trkpt lat="45.12939" lon="6.11707">
        <ele>2825.8</ele>
        <time>2021-03-10T09:37:02Z</time>
      </trkpt>
      <trkpt lat="45.12939" lon="6.11708">
        <ele>2825.8</ele>
        <time>2021-03-10T09:37:03Z</time>
      </trkpt>
      <trkpt lat="45.1294" lon="6.11708">
        <ele>2825.8</ele>
        <time>2021-03-10T09:37:04Z</time>
      </trkpt>
      <trkpt lat="45.1294" lon="6.11708">
        <ele>2825.8</ele>
        <time>2021-03-10T09:37:05Z</time>
      </trkpt>
      <trkpt lat="45.1296" lon="6.11717">
        <ele>2827.9</ele>
        <time>2021-03-10T09:37:42Z</time>
      </trkpt>
      <trkpt lat="45.1296" lon="6.11717">
        <ele>2827.9</ele>
        <time>2021-03-10T09:37:43Z</time>
      </trkpt>
      <trkpt lat="45.12961" lon="6.11717">
        <ele>2827.9</ele>
        <time>2021-03-10T09:37:44Z</time>
      </trkpt>
      <trkpt lat="45.12961" lon="6.11718">
        <ele>2827.9</ele>
        <time>2021-03-10T09:37:45Z</time>
      </trkpt>
      <trkpt lat="45.12962" lon="6.11718">
        <ele>2827.9</ele>
        <time>2021-03-10T09:37:46Z</time>
      </trkpt>
      <trkpt lat="45.12962" lon="6.11718">
        <ele>2827.8</ele>
        <time>2021-03-10T09:37:47Z</time>
      </trkpt>
      <trkpt lat="45.12963" lon="6.11718">
        <ele>2827.8</ele>
        <time>2021-03-10T09:37:48Z</time>
      </trkpt>
      <trkpt lat="45.12963" lon="6.11719">
        <ele>2827.8</ele>
        <time>2021-03-10T09:37:49Z</time>
      </trkpt>
      <trkpt lat="45.12964" lon="6.11719">
        <ele>2827.8</ele>
        <time>2021-03-10T09:37:50Z</time>
      </trkpt>
      <trkpt lat="45.12965" lon="6.11719">
        <ele>2827.8</ele>
        <time>2021-03-10T09:37:51Z</time>
      </trkpt>
      <trkpt lat="45.12968" lon="6.1172">
        <ele>2829</ele>
        <time>2021-03-10T09:37:57Z</time>
      </trkpt>
      <trkpt lat="45.12969" lon="6.1172">
        <ele>2829</ele>
        <time>2021-03-10T09:37:58Z</time>
      </trkpt>
      <trkpt lat="45.1297" lon="6.11721">
        <ele>2829</ele>
        <time>2021-03-10T09:37:59Z</time>
      </trkpt>
      <trkpt lat="45.1297" lon="6.11721">
        <ele>2829</ele>
        <time>2021-03-10T09:38:00Z</time>
      </trkpt>
      <trkpt lat="45.1297" lon="6.11722">
        <ele>2829</ele>
        <time>2021-03-10T09:38:01Z</time>
      </trkpt>
      <trkpt lat="45.12971" lon="6.11722">
        <ele>2829</ele>
        <time>2021-03-10T09:38:02Z</time>
      </trkpt>
      <trkpt lat="45.12972" lon="6.11722">
        <ele>2828.9</ele>
        <time>2021-03-10T09:38:03Z</time>
      </trkpt>
      <trkpt lat="45.12973" lon="6.11723">
        <ele>2828.9</ele>
        <time>2021-03-10T09:38:04Z</time>
      </trkpt>
      <trkpt lat="45.12973" lon="6.11723">
        <ele>2828.9</ele>
        <time>2021-03-10T09:38:05Z</time>
      </trkpt>
      <trkpt lat="45.12974" lon="6.11724">
        <ele>2828.9</ele>
        <time>2021-03-10T09:38:06Z</time>
      </trkpt>
      <trkpt lat="45.12975" lon="6.11724">
        <ele>2830.1</ele>
        <time>2021-03-10T09:38:07Z</time>
      </trkpt>
      <trkpt lat="45.12975" lon="6.11725">
        <ele>2830.1</ele>
        <time>2021-03-10T09:38:08Z</time>
      </trkpt>
      <trkpt lat="45.12976" lon="6.11725">
        <ele>2830.1</ele>
        <time>2021-03-10T09:38:09Z</time>
      </trkpt>
      <trkpt lat="45.12977" lon="6.11726">
        <ele>2830.1</ele>
        <time>2021-03-10T09:38:10Z</time>
      </trkpt>
      <trkpt lat="45.12977" lon="6.11726">
        <ele>2830.1</ele>
        <time>2021-03-10T09:38:11Z</time>
      </trkpt>
      <trkpt lat="45.12978" lon="6.11727">
        <ele>2830.1</ele>
        <time>2021-03-10T09:38:12Z</time>
      </trkpt>
      <trkpt lat="45.12978" lon="6.11727">
        <ele>2830.1</ele>
        <time>2021-03-10T09:38:13Z</time>
      </trkpt>
      <trkpt lat="45.12979" lon="6.11728">
        <ele>2830.1</ele>
        <time>2021-03-10T09:38:14Z</time>
      </trkpt>
      <trkpt lat="45.12979" lon="6.11728">
        <ele>2831.4</ele>
        <time>2021-03-10T09:38:15Z</time>
      </trkpt>
      <trkpt lat="45.12979" lon="6.11729">
        <ele>2831.4</ele>
        <time>2021-03-10T09:38:16Z</time>
      </trkpt>
      <trkpt lat="45.12979" lon="6.1173">
        <ele>2831.4</ele>
        <time>2021-03-10T09:38:17Z</time>
      </trkpt>
      <trkpt lat="45.12979" lon="6.11731">
        <ele>2831.4</ele>
        <time>2021-03-10T09:38:18Z</time>
      </trkpt>
      <trkpt lat="45.12978" lon="6.11732">
        <ele>2831.4</ele>
        <time>2021-03-10T09:38:19Z</time>
      </trkpt>
      <trkpt lat="45.12978" lon="6.11733">
        <ele>2832.6</ele>
        <time>2021-03-10T09:38:20Z</time>
      </trkpt>
      <trkpt lat="45.12978" lon="6.11733">
        <ele>2832.6</ele>
        <time>2021-03-10T09:38:21Z</time>
      </trkpt>
      <trkpt lat="45.12978" lon="6.11734">
        <ele>2832.6</ele>
        <time>2021-03-10T09:38:22Z</time>
      </trkpt>
      <trkpt lat="45.12978" lon="6.11735">
        <ele>2832.6</ele>
        <time>2021-03-10T09:38:23Z</time>
      </trkpt>
      <trkpt lat="45.12978" lon="6.11736">
        <ele>2832.6</ele>
        <time>2021-03-10T09:38:24Z</time>
      </trkpt>
      <trkpt lat="45.12978" lon="6.11737">
        <ele>2832.6</ele>
        <time>2021-03-10T09:38:25Z</time>
      </trkpt>
      <trkpt lat="45.12978" lon="6.11738">
        <ele>2833.8</ele>
        <time>2021-03-10T09:38:26Z</time>
      </trkpt>
      <trkpt lat="45.12977" lon="6.11739">
        <ele>2833.8</ele>
        <time>2021-03-10T09:38:27Z</time>
      </trkpt>
      <trkpt lat="45.12977" lon="6.1174">
        <ele>2833.8</ele>
        <time>2021-03-10T09:38:28Z</time>
      </trkpt>
      <trkpt lat="45.12977" lon="6.1174">
        <ele>2833.8</ele>
        <time>2021-03-10T09:38:29Z</time>
      </trkpt>
      <trkpt lat="45.12977" lon="6.11741">
        <ele>2835</ele>
        <time>2021-03-10T09:38:30Z</time>
      </trkpt>
      <trkpt lat="45.12976" lon="6.11742">
        <ele>2835</ele>
        <time>2021-03-10T09:38:31Z</time>
      </trkpt>
      <trkpt lat="45.12976" lon="6.11743">
        <ele>2835</ele>
        <time>2021-03-10T09:38:32Z</time>
      </trkpt>
      <trkpt lat="45.12976" lon="6.11744">
        <ele>2835</ele>
        <time>2021-03-10T09:38:33Z</time>
      </trkpt>
      <trkpt lat="45.12976" lon="6.11745">
        <ele>2835</ele>
        <time>2021-03-10T09:38:34Z</time>
      </trkpt>
      <trkpt lat="45.12976" lon="6.11745">
        <ele>2836.3</ele>
        <time>2021-03-10T09:38:35Z</time>
      </trkpt>
      <trkpt lat="45.12976" lon="6.11746">
        <ele>2836.3</ele>
        <time>2021-03-10T09:38:36Z</time>
      </trkpt>
      <trkpt lat="45.12976" lon="6.11747">
        <ele>2836.3</ele>
        <time>2021-03-10T09:38:37Z</time>
      </trkpt>
      <trkpt lat="45.12977" lon="6.11748">
        <ele>2836.3</ele>
        <time>2021-03-10T09:38:38Z</time>
      </trkpt>
      <trkpt lat="45.12977" lon="6.11749">
        <ele>2836.3</ele>
        <time>2021-03-10T09:38:39Z</time>
      </trkpt>
      <trkpt lat="45.12978" lon="6.1175">
        <ele>2837.6</ele>
        <time>2021-03-10T09:38:40Z</time>
      </trkpt>
      <trkpt lat="45.12978" lon="6.11751">
        <ele>2837.6</ele>
        <time>2021-03-10T09:38:41Z</time>
      </trkpt>
      <trkpt lat="45.12978" lon="6.11752">
        <ele>2837.6</ele>
        <time>2021-03-10T09:38:42Z</time>
      </trkpt>
      <trkpt lat="45.12979" lon="6.11752">
        <ele>2837.6</ele>
        <time>2021-03-10T09:38:43Z</time>
      </trkpt>
      <trkpt lat="45.12979" lon="6.11753">
        <ele>2837.6</ele>
        <time>2021-03-10T09:38:44Z</time>
      </trkpt>
      <trkpt lat="45.1298" lon="6.11754">
        <ele>2837.6</ele>
        <time>2021-03-10T09:38:45Z</time>
      </trkpt>
      <trkpt lat="45.1298" lon="6.11755">
        <ele>2838.9</ele>
        <time>2021-03-10T09:38:46Z</time>
      </trkpt>
      <trkpt lat="45.1298" lon="6.11755">
        <ele>2838.9</ele>
        <time>2021-03-10T09:38:47Z</time>
      </trkpt>
      <trkpt lat="45.12981" lon="6.11756">
        <ele>2838.9</ele>
        <time>2021-03-10T09:38:48Z</time>
      </trkpt>
      <trkpt lat="45.12981" lon="6.11757">
        <ele>2838.9</ele>
        <time>2021-03-10T09:38:49Z</time>
      </trkpt>
      <trkpt lat="45.12982" lon="6.11757">
        <ele>2838.9</ele>
        <time>2021-03-10T09:38:50Z</time>
      </trkpt>
      <trkpt lat="45.12982" lon="6.11758">
        <ele>2838.9</ele>
        <time>2021-03-10T09:38:51Z</time>
      </trkpt>
      <trkpt lat="45.12983" lon="6.11759">
        <ele>2840.1</ele>
        <time>2021-03-10T09:38:52Z</time>
      </trkpt>
      <trkpt lat="45.12983" lon="6.11759">
        <ele>2840.1</ele>
        <time>2021-03-10T09:38:53Z</time>
      </trkpt>
      <trkpt lat="45.12984" lon="6.1176">
        <ele>2840.2</ele>
        <time>2021-03-10T09:38:54Z</time>
      </trkpt>
      <trkpt lat="45.12984" lon="6.11761">
        <ele>2840.2</ele>
        <time>2021-03-10T09:38:55Z</time>
      </trkpt>
      <trkpt lat="45.12985" lon="6.11761">
        <ele>2840.2</ele>
        <time>2021-03-10T09:38:56Z</time>
      </trkpt>
      <trkpt lat="45.12985" lon="6.11762">
        <ele>2840.2</ele>
        <time>2021-03-10T09:38:57Z</time>
      </trkpt>
      <trkpt lat="45.12985" lon="6.11762">
        <ele>2840.2</ele>
        <time>2021-03-10T09:38:58Z</time>
      </trkpt>
      <trkpt lat="45.12986" lon="6.11763">
        <ele>2841.3</ele>
        <time>2021-03-10T09:38:59Z</time>
      </trkpt>
      <trkpt lat="45.12986" lon="6.11764">
        <ele>2841.3</ele>
        <time>2021-03-10T09:39:00Z</time>
      </trkpt>
      <trkpt lat="45.12987" lon="6.11765">
        <ele>2841.4</ele>
        <time>2021-03-10T09:39:01Z</time>
      </trkpt>
      <trkpt lat="45.12987" lon="6.11765">
        <ele>2841.4</ele>
        <time>2021-03-10T09:39:02Z</time>
      </trkpt>
      <trkpt lat="45.12988" lon="6.11766">
        <ele>2841.4</ele>
        <time>2021-03-10T09:39:03Z</time>
      </trkpt>
      <trkpt lat="45.12988" lon="6.11767">
        <ele>2841.4</ele>
        <time>2021-03-10T09:39:04Z</time>
      </trkpt>
      <trkpt lat="45.12989" lon="6.11767">
        <ele>2842.5</ele>
        <time>2021-03-10T09:39:05Z</time>
      </trkpt>
      <trkpt lat="45.12989" lon="6.11768">
        <ele>2842.5</ele>
        <time>2021-03-10T09:39:06Z</time>
      </trkpt>
      <trkpt lat="45.12989" lon="6.11768">
        <ele>2842.5</ele>
        <time>2021-03-10T09:39:07Z</time>
      </trkpt>
      <trkpt lat="45.1299" lon="6.11768">
        <ele>2842.5</ele>
        <time>2021-03-10T09:39:08Z</time>
      </trkpt>
      <trkpt lat="45.1299" lon="6.11769">
        <ele>2842.5</ele>
        <time>2021-03-10T09:39:09Z</time>
      </trkpt>
      <trkpt lat="45.12991" lon="6.11769">
        <ele>2842.5</ele>
        <time>2021-03-10T09:39:10Z</time>
      </trkpt>
      <trkpt lat="45.12991" lon="6.11769">
        <ele>2842.5</ele>
        <time>2021-03-10T09:39:11Z</time>
      </trkpt>
      <trkpt lat="45.12991" lon="6.1177">
        <ele>2842.5</ele>
        <time>2021-03-10T09:39:12Z</time>
      </trkpt>
      <trkpt lat="45.12992" lon="6.1177">
        <ele>2842.5</ele>
        <time>2021-03-10T09:39:13Z</time>
      </trkpt>
      <trkpt lat="45.12992" lon="6.11771">
        <ele>2842.5</ele>
        <time>2021-03-10T09:39:14Z</time>
      </trkpt>
      <trkpt lat="45.12993" lon="6.11771">
        <ele>2843.6</ele>
        <time>2021-03-10T09:39:15Z</time>
      </trkpt>
      <trkpt lat="45.12993" lon="6.11772">
        <ele>2843.6</ele>
        <time>2021-03-10T09:39:16Z</time>
      </trkpt>
      <trkpt lat="45.12994" lon="6.11772">
        <ele>2843.6</ele>
        <time>2021-03-10T09:39:17Z</time>
      </trkpt>
      <trkpt lat="45.12994" lon="6.11773">
        <ele>2843.6</ele>
        <time>2021-03-10T09:39:18Z</time>
      </trkpt>
      <trkpt lat="45.12995" lon="6.11773">
        <ele>2843.6</ele>
        <time>2021-03-10T09:39:19Z</time>
      </trkpt>
      <trkpt lat="45.12995" lon="6.11774">
        <ele>2843.6</ele>
        <time>2021-03-10T09:39:20Z</time>
      </trkpt>
      <trkpt lat="45.12996" lon="6.11774">
        <ele>2843.6</ele>
        <time>2021-03-10T09:39:21Z</time>
      </trkpt>
      <trkpt lat="45.12996" lon="6.11775">
        <ele>2843.6</ele>
        <time>2021-03-10T09:39:22Z</time>
      </trkpt>
      <trkpt lat="45.12996" lon="6.11776">
        <ele>2844.8</ele>
        <time>2021-03-10T09:39:23Z</time>
      </trkpt>
      <trkpt lat="45.12997" lon="6.11777">
        <ele>2844.8</ele>
        <time>2021-03-10T09:39:24Z</time>
      </trkpt>
      <trkpt lat="45.12997" lon="6.11777">
        <ele>2844.8</ele>
        <time>2021-03-10T09:39:25Z</time>
      </trkpt>
      <trkpt lat="45.12998" lon="6.11778">
        <ele>2844.8</ele>
        <time>2021-03-10T09:39:26Z</time>
      </trkpt>
      <trkpt lat="45.12998" lon="6.11778">
        <ele>2844.8</ele>
        <time>2021-03-10T09:39:27Z</time>
      </trkpt>
      <trkpt lat="45.12998" lon="6.11779">
        <ele>2844.8</ele>
        <time>2021-03-10T09:39:28Z</time>
      </trkpt>
      <trkpt lat="45.13" lon="6.11781">
        <ele>2846</ele>
        <time>2021-03-10T09:39:31Z</time>
      </trkpt>
      <trkpt lat="45.13" lon="6.11781">
        <ele>2846</ele>
        <time>2021-03-10T09:39:32Z</time>
      </trkpt>
      <trkpt lat="45.13001" lon="6.11782">
        <ele>2846</ele>
        <time>2021-03-10T09:39:33Z</time>
      </trkpt>
      <trkpt lat="45.13001" lon="6.11782">
        <ele>2846</ele>
        <time>2021-03-10T09:39:34Z</time>
      </trkpt>
      <trkpt lat="45.13002" lon="6.11783">
        <ele>2845.9</ele>
        <time>2021-03-10T09:39:35Z</time>
      </trkpt>
      <trkpt lat="45.13002" lon="6.11784">
        <ele>2847.2</ele>
        <time>2021-03-10T09:39:36Z</time>
      </trkpt>
      <trkpt lat="45.13002" lon="6.11785">
        <ele>2847.2</ele>
        <time>2021-03-10T09:39:37Z</time>
      </trkpt>
      <trkpt lat="45.13003" lon="6.11785">
        <ele>2847.2</ele>
        <time>2021-03-10T09:39:38Z</time>
      </trkpt>
      <trkpt lat="45.13003" lon="6.11786">
        <ele>2847.2</ele>
        <time>2021-03-10T09:39:39Z</time>
      </trkpt>
      <trkpt lat="45.13003" lon="6.11786">
        <ele>2847.2</ele>
        <time>2021-03-10T09:39:40Z</time>
      </trkpt>
      <trkpt lat="45.13004" lon="6.11787">
        <ele>2847.2</ele>
        <time>2021-03-10T09:39:41Z</time>
      </trkpt>
      <trkpt lat="45.13004" lon="6.11787">
        <ele>2847.2</ele>
        <time>2021-03-10T09:39:42Z</time>
      </trkpt>
      <trkpt lat="45.13005" lon="6.11788">
        <ele>2847.2</ele>
        <time>2021-03-10T09:39:43Z</time>
      </trkpt>
      <trkpt lat="45.13005" lon="6.11789">
        <ele>2848.4</ele>
        <time>2021-03-10T09:39:44Z</time>
      </trkpt>
      <trkpt lat="45.13005" lon="6.11789">
        <ele>2848.4</ele>
        <time>2021-03-10T09:39:45Z</time>
      </trkpt>
      <trkpt lat="45.13006" lon="6.1179">
        <ele>2848.4</ele>
        <time>2021-03-10T09:39:46Z</time>
      </trkpt>
      <trkpt lat="45.13006" lon="6.11791">
        <ele>2848.4</ele>
        <time>2021-03-10T09:39:47Z</time>
      </trkpt>
      <trkpt lat="45.13006" lon="6.11791">
        <ele>2848.4</ele>
        <time>2021-03-10T09:39:48Z</time>
      </trkpt>
      <trkpt lat="45.13007" lon="6.11792">
        <ele>2848.4</ele>
        <time>2021-03-10T09:39:49Z</time>
      </trkpt>
      <trkpt lat="45.13007" lon="6.11793">
        <ele>2849.8</ele>
        <time>2021-03-10T09:39:50Z</time>
      </trkpt>
      <trkpt lat="45.13007" lon="6.11794">
        <ele>2849.8</ele>
        <time>2021-03-10T09:39:51Z</time>
      </trkpt>
      <trkpt lat="45.13008" lon="6.11795">
        <ele>2849.8</ele>
        <time>2021-03-10T09:39:52Z</time>
      </trkpt>
      <trkpt lat="45.13008" lon="6.11795">
        <ele>2849.6</ele>
        <time>2021-03-10T09:39:53Z</time>
      </trkpt>
      <trkpt lat="45.13008" lon="6.11796">
        <ele>2849.6</ele>
        <time>2021-03-10T09:39:54Z</time>
      </trkpt>
      <trkpt lat="45.13008" lon="6.11796">
        <ele>2849.6</ele>
        <time>2021-03-10T09:39:55Z</time>
      </trkpt>
      <trkpt lat="45.13009" lon="6.11797">
        <ele>2849.6</ele>
        <time>2021-03-10T09:39:56Z</time>
      </trkpt>
      <trkpt lat="45.13009" lon="6.11798">
        <ele>2851</ele>
        <time>2021-03-10T09:39:57Z</time>
      </trkpt>
      <trkpt lat="45.1301" lon="6.11798">
        <ele>2851</ele>
        <time>2021-03-10T09:39:58Z</time>
      </trkpt>
      <trkpt lat="45.1301" lon="6.11798">
        <ele>2851</ele>
        <time>2021-03-10T09:39:59Z</time>
      </trkpt>
      <trkpt lat="45.1301" lon="6.11799">
        <ele>2851</ele>
        <time>2021-03-10T09:40:00Z</time>
      </trkpt>
      <trkpt lat="45.13011" lon="6.11799">
        <ele>2851</ele>
        <time>2021-03-10T09:40:01Z</time>
      </trkpt>
      <trkpt lat="45.13011" lon="6.11799">
        <ele>2850.8</ele>
        <time>2021-03-10T09:40:02Z</time>
      </trkpt>
      <trkpt lat="45.13011" lon="6.118">
        <ele>2850.8</ele>
        <time>2021-03-10T09:40:03Z</time>
      </trkpt>
      <trkpt lat="45.13012" lon="6.118">
        <ele>2850.8</ele>
        <time>2021-03-10T09:40:04Z</time>
      </trkpt>
      <trkpt lat="45.13012" lon="6.11801">
        <ele>2850.8</ele>
        <time>2021-03-10T09:40:05Z</time>
      </trkpt>
      <trkpt lat="45.13013" lon="6.11802">
        <ele>2852.1</ele>
        <time>2021-03-10T09:40:06Z</time>
      </trkpt>
      <trkpt lat="45.13013" lon="6.11802">
        <ele>2852.1</ele>
        <time>2021-03-10T09:40:07Z</time>
      </trkpt>
      <trkpt lat="45.13014" lon="6.11803">
        <ele>2851.8</ele>
        <time>2021-03-10T09:40:08Z</time>
      </trkpt>
      <trkpt lat="45.13014" lon="6.11803">
        <ele>2851.8</ele>
        <time>2021-03-10T09:40:09Z</time>
      </trkpt>
      <trkpt lat="45.13015" lon="6.11804">
        <ele>2851.8</ele>
        <time>2021-03-10T09:40:10Z</time>
      </trkpt>
      <trkpt lat="45.13015" lon="6.11804">
        <ele>2851.8</ele>
        <time>2021-03-10T09:40:11Z</time>
      </trkpt>
      <trkpt lat="45.13016" lon="6.11805">
        <ele>2851.8</ele>
        <time>2021-03-10T09:40:12Z</time>
      </trkpt>
      <trkpt lat="45.13016" lon="6.11805">
        <ele>2851.8</ele>
        <time>2021-03-10T09:40:13Z</time>
      </trkpt>
      <trkpt lat="45.13017" lon="6.11806">
        <ele>2852.8</ele>
        <time>2021-03-10T09:40:14Z</time>
      </trkpt>
      <trkpt lat="45.13018" lon="6.11807">
        <ele>2852.8</ele>
        <time>2021-03-10T09:40:15Z</time>
      </trkpt>
      <trkpt lat="45.13018" lon="6.11807">
        <ele>2852.8</ele>
        <time>2021-03-10T09:40:16Z</time>
      </trkpt>
      <trkpt lat="45.13018" lon="6.11808">
        <ele>2852.8</ele>
        <time>2021-03-10T09:40:17Z</time>
      </trkpt>
      <trkpt lat="45.13019" lon="6.11808">
        <ele>2852.8</ele>
        <time>2021-03-10T09:40:18Z</time>
      </trkpt>
      <trkpt lat="45.13019" lon="6.11809">
        <ele>2852.8</ele>
        <time>2021-03-10T09:40:19Z</time>
      </trkpt>
      <trkpt lat="45.13019" lon="6.11809">
        <ele>2852.8</ele>
        <time>2021-03-10T09:40:20Z</time>
      </trkpt>
      <trkpt lat="45.1302" lon="6.1181">
        <ele>2852.5</ele>
        <time>2021-03-10T09:40:21Z</time>
      </trkpt>
      <trkpt lat="45.1302" lon="6.1181">
        <ele>2853.6</ele>
        <time>2021-03-10T09:40:22Z</time>
      </trkpt>
      <trkpt lat="45.13021" lon="6.11811">
        <ele>2853.6</ele>
        <time>2021-03-10T09:40:23Z</time>
      </trkpt>
      <trkpt lat="45.13021" lon="6.11812">
        <ele>2853.6</ele>
        <time>2021-03-10T09:40:24Z</time>
      </trkpt>
      <trkpt lat="45.13022" lon="6.11812">
        <ele>2853.6</ele>
        <time>2021-03-10T09:40:25Z</time>
      </trkpt>
      <trkpt lat="45.13022" lon="6.11813">
        <ele>2853.6</ele>
        <time>2021-03-10T09:40:26Z</time>
      </trkpt>
      <trkpt lat="45.13022" lon="6.11813">
        <ele>2853.6</ele>
        <time>2021-03-10T09:40:27Z</time>
      </trkpt>
      <trkpt lat="45.13023" lon="6.11814">
        <ele>2853.3</ele>
        <time>2021-03-10T09:40:28Z</time>
      </trkpt>
      <trkpt lat="45.13023" lon="6.11814">
        <ele>2854.4</ele>
        <time>2021-03-10T09:40:29Z</time>
      </trkpt>
      <trkpt lat="45.13024" lon="6.11815">
        <ele>2854.4</ele>
        <time>2021-03-10T09:40:30Z</time>
      </trkpt>
      <trkpt lat="45.13024" lon="6.11815">
        <ele>2854.4</ele>
        <time>2021-03-10T09:40:31Z</time>
      </trkpt>
      <trkpt lat="45.13024" lon="6.11816">
        <ele>2854.4</ele>
        <time>2021-03-10T09:40:32Z</time>
      </trkpt>
      <trkpt lat="45.13025" lon="6.11817">
        <ele>2854.4</ele>
        <time>2021-03-10T09:40:33Z</time>
      </trkpt>
      <trkpt lat="45.13025" lon="6.11817">
        <ele>2854.4</ele>
        <time>2021-03-10T09:40:34Z</time>
      </trkpt>
      <trkpt lat="45.13026" lon="6.11818">
        <ele>2854</ele>
        <time>2021-03-10T09:40:35Z</time>
      </trkpt>
      <trkpt lat="45.13026" lon="6.11818">
        <ele>2854</ele>
        <time>2021-03-10T09:40:36Z</time>
      </trkpt>
      <trkpt lat="45.13027" lon="6.11819">
        <ele>2855</ele>
        <time>2021-03-10T09:40:37Z</time>
      </trkpt>
      <trkpt lat="45.13027" lon="6.11819">
        <ele>2855</ele>
        <time>2021-03-10T09:40:38Z</time>
      </trkpt>
      <trkpt lat="45.13028" lon="6.1182">
        <ele>2855</ele>
        <time>2021-03-10T09:40:39Z</time>
      </trkpt>
      <trkpt lat="45.13028" lon="6.1182">
        <ele>2855</ele>
        <time>2021-03-10T09:40:40Z</time>
      </trkpt>
      <trkpt lat="45.13029" lon="6.11821">
        <ele>2855</ele>
        <time>2021-03-10T09:40:41Z</time>
      </trkpt>
      <trkpt lat="45.13029" lon="6.11821">
        <ele>2854.7</ele>
        <time>2021-03-10T09:40:42Z</time>
      </trkpt>
      <trkpt lat="45.13029" lon="6.11822">
        <ele>2854.7</ele>
        <time>2021-03-10T09:40:43Z</time>
      </trkpt>
      <trkpt lat="45.1303" lon="6.11823">
        <ele>2855.7</ele>
        <time>2021-03-10T09:40:44Z</time>
      </trkpt>
      <trkpt lat="45.1303" lon="6.11823">
        <ele>2855.7</ele>
        <time>2021-03-10T09:40:45Z</time>
      </trkpt>
      <trkpt lat="45.1303" lon="6.11824">
        <ele>2855.7</ele>
        <time>2021-03-10T09:40:46Z</time>
      </trkpt>
      <trkpt lat="45.13031" lon="6.11824">
        <ele>2855.7</ele>
        <time>2021-03-10T09:40:47Z</time>
      </trkpt>
      <trkpt lat="45.13031" lon="6.11825">
        <ele>2855.7</ele>
        <time>2021-03-10T09:40:48Z</time>
      </trkpt>
      <trkpt lat="45.13031" lon="6.11825">
        <ele>2855.7</ele>
        <time>2021-03-10T09:40:49Z</time>
      </trkpt>
      <trkpt lat="45.13032" lon="6.11826">
        <ele>2855.7</ele>
        <time>2021-03-10T09:40:50Z</time>
      </trkpt>
      <trkpt lat="45.13032" lon="6.11826">
        <ele>2855.3</ele>
        <time>2021-03-10T09:40:51Z</time>
      </trkpt>
      <trkpt lat="45.13032" lon="6.11827">
        <ele>2855.3</ele>
        <time>2021-03-10T09:40:52Z</time>
      </trkpt>
      <trkpt lat="45.13033" lon="6.11827">
        <ele>2856.3</ele>
        <time>2021-03-10T09:40:53Z</time>
      </trkpt>
      <trkpt lat="45.13033" lon="6.11828">
        <ele>2856.3</ele>
        <time>2021-03-10T09:40:54Z</time>
      </trkpt>
      <trkpt lat="45.13033" lon="6.11828">
        <ele>2856.3</ele>
        <time>2021-03-10T09:40:55Z</time>
      </trkpt>
      <trkpt lat="45.13034" lon="6.11828">
        <ele>2856.3</ele>
        <time>2021-03-10T09:40:56Z</time>
      </trkpt>
      <trkpt lat="45.13034" lon="6.11829">
        <ele>2856.3</ele>
        <time>2021-03-10T09:40:57Z</time>
      </trkpt>
      <trkpt lat="45.13035" lon="6.1183">
        <ele>2856.3</ele>
        <time>2021-03-10T09:40:58Z</time>
      </trkpt>
      <trkpt lat="45.13035" lon="6.1183">
        <ele>2855.9</ele>
        <time>2021-03-10T09:40:59Z</time>
      </trkpt>
      <trkpt lat="45.13035" lon="6.11831">
        <ele>2855.9</ele>
        <time>2021-03-10T09:41:00Z</time>
      </trkpt>
      <trkpt lat="45.13036" lon="6.11831">
        <ele>2857</ele>
        <time>2021-03-10T09:41:01Z</time>
      </trkpt>
      <trkpt lat="45.13036" lon="6.11832">
        <ele>2857</ele>
        <time>2021-03-10T09:41:02Z</time>
      </trkpt>
      <trkpt lat="45.13037" lon="6.11833">
        <ele>2857</ele>
        <time>2021-03-10T09:41:03Z</time>
      </trkpt>
      <trkpt lat="45.13037" lon="6.11833">
        <ele>2857</ele>
        <time>2021-03-10T09:41:04Z</time>
      </trkpt>
      <trkpt lat="45.13037" lon="6.11834">
        <ele>2857</ele>
        <time>2021-03-10T09:41:05Z</time>
      </trkpt>
      <trkpt lat="45.13038" lon="6.11834">
        <ele>2856.6</ele>
        <time>2021-03-10T09:41:06Z</time>
      </trkpt>
      <trkpt lat="45.13038" lon="6.11835">
        <ele>2856.6</ele>
        <time>2021-03-10T09:41:07Z</time>
      </trkpt>
      <trkpt lat="45.13039" lon="6.11835">
        <ele>2856.6</ele>
        <time>2021-03-10T09:41:08Z</time>
      </trkpt>
      <trkpt lat="45.13039" lon="6.11836">
        <ele>2857.7</ele>
        <time>2021-03-10T09:41:09Z</time>
      </trkpt>
      <trkpt lat="45.1304" lon="6.11836">
        <ele>2857.7</ele>
        <time>2021-03-10T09:41:10Z</time>
      </trkpt>
      <trkpt lat="45.1304" lon="6.11837">
        <ele>2857.6</ele>
        <time>2021-03-10T09:41:11Z</time>
      </trkpt>
      <trkpt lat="45.13041" lon="6.11837">
        <ele>2857.6</ele>
        <time>2021-03-10T09:41:12Z</time>
      </trkpt>
      <trkpt lat="45.13041" lon="6.11838">
        <ele>2857.2</ele>
        <time>2021-03-10T09:41:13Z</time>
      </trkpt>
      <trkpt lat="45.13042" lon="6.11838">
        <ele>2857.1</ele>
        <time>2021-03-10T09:41:14Z</time>
      </trkpt>
      <trkpt lat="45.13042" lon="6.11839">
        <ele>2857.1</ele>
        <time>2021-03-10T09:41:15Z</time>
      </trkpt>
      <trkpt lat="45.13043" lon="6.11839">
        <ele>2857.1</ele>
        <time>2021-03-10T09:41:16Z</time>
      </trkpt>
      <trkpt lat="45.13043" lon="6.11839">
        <ele>2857</ele>
        <time>2021-03-10T09:41:17Z</time>
      </trkpt>
      <trkpt lat="45.13044" lon="6.1184">
        <ele>2858.1</ele>
        <time>2021-03-10T09:41:18Z</time>
      </trkpt>
      <trkpt lat="45.13044" lon="6.11841">
        <ele>2857.7</ele>
        <time>2021-03-10T09:41:19Z</time>
      </trkpt>
      <trkpt lat="45.13044" lon="6.11842">
        <ele>2857.6</ele>
        <time>2021-03-10T09:41:20Z</time>
      </trkpt>
      <trkpt lat="45.13044" lon="6.11842">
        <ele>2857.6</ele>
        <time>2021-03-10T09:41:21Z</time>
      </trkpt>
      <trkpt lat="45.13044" lon="6.11843">
        <ele>2858</ele>
        <time>2021-03-10T09:41:22Z</time>
      </trkpt>
      <trkpt lat="45.13043" lon="6.11843">
        <ele>2857.9</ele>
        <time>2021-03-10T09:41:23Z</time>
      </trkpt>
      <trkpt lat="45.13043" lon="6.11843">
        <ele>2857.9</ele>
        <time>2021-03-10T09:41:24Z</time>
      </trkpt>
      <trkpt lat="45.13042" lon="6.11844">
        <ele>2857.9</ele>
        <time>2021-03-10T09:41:25Z</time>
      </trkpt>
      <trkpt lat="45.13042" lon="6.11844">
        <ele>2857.8</ele>
        <time>2021-03-10T09:41:26Z</time>
      </trkpt>
      <trkpt lat="45.13041" lon="6.11844">
        <ele>2858.9</ele>
        <time>2021-03-10T09:41:27Z</time>
      </trkpt>
      <trkpt lat="45.13041" lon="6.11845">
        <ele>2859.2</ele>
        <time>2021-03-10T09:41:28Z</time>
      </trkpt>
      <trkpt lat="45.1304" lon="6.11845">
        <ele>2859.1</ele>
        <time>2021-03-10T09:41:29Z</time>
      </trkpt>
      <trkpt lat="45.1304" lon="6.11846">
        <ele>2859.1</ele>
        <time>2021-03-10T09:41:30Z</time>
      </trkpt>
      <trkpt lat="45.13039" lon="6.11846">
        <ele>2859.1</ele>
        <time>2021-03-10T09:41:31Z</time>
      </trkpt>
      <trkpt lat="45.13039" lon="6.11846">
        <ele>2859</ele>
        <time>2021-03-10T09:41:32Z</time>
      </trkpt>
      <trkpt lat="45.13038" lon="6.11847">
        <ele>2859</ele>
        <time>2021-03-10T09:41:33Z</time>
      </trkpt>
      <trkpt lat="45.13038" lon="6.11848">
        <ele>2859</ele>
        <time>2021-03-10T09:41:34Z</time>
      </trkpt>
      <trkpt lat="45.13038" lon="6.11848">
        <ele>2859.3</ele>
        <time>2021-03-10T09:41:35Z</time>
      </trkpt>
      <trkpt lat="45.13037" lon="6.11849">
        <ele>2860.3</ele>
        <time>2021-03-10T09:41:36Z</time>
      </trkpt>
      <trkpt lat="45.13037" lon="6.11849">
        <ele>2860.2</ele>
        <time>2021-03-10T09:41:37Z</time>
      </trkpt>
      <trkpt lat="45.13037" lon="6.11849">
        <ele>2860.2</ele>
        <time>2021-03-10T09:41:38Z</time>
      </trkpt>
      <trkpt lat="45.13037" lon="6.1185">
        <ele>2860.2</ele>
        <time>2021-03-10T09:41:39Z</time>
      </trkpt>
      <trkpt lat="45.13036" lon="6.1185">
        <ele>2860.1</ele>
        <time>2021-03-10T09:41:40Z</time>
      </trkpt>
      <trkpt lat="45.13036" lon="6.11851">
        <ele>2860.1</ele>
        <time>2021-03-10T09:41:41Z</time>
      </trkpt>
      <trkpt lat="45.13035" lon="6.11851">
        <ele>2860.1</ele>
        <time>2021-03-10T09:41:42Z</time>
      </trkpt>
      <trkpt lat="45.13035" lon="6.11851">
        <ele>2860</ele>
        <time>2021-03-10T09:41:43Z</time>
      </trkpt>
      <trkpt lat="45.13034" lon="6.11851">
        <ele>2860.3</ele>
        <time>2021-03-10T09:41:44Z</time>
      </trkpt>
      <trkpt lat="45.13034" lon="6.11852">
        <ele>2860.3</ele>
        <time>2021-03-10T09:41:45Z</time>
      </trkpt>
      <trkpt lat="45.13033" lon="6.11852">
        <ele>2860.3</ele>
        <time>2021-03-10T09:41:46Z</time>
      </trkpt>
      <trkpt lat="45.13032" lon="6.11853">
        <ele>2860.2</ele>
        <time>2021-03-10T09:41:47Z</time>
      </trkpt>
      <trkpt lat="45.13032" lon="6.11853">
        <ele>2861.2</ele>
        <time>2021-03-10T09:41:48Z</time>
      </trkpt>
      <trkpt lat="45.13031" lon="6.11853">
        <ele>2861.4</ele>
        <time>2021-03-10T09:41:49Z</time>
      </trkpt>
      <trkpt lat="45.13031" lon="6.11854">
        <ele>2861.4</ele>
        <time>2021-03-10T09:41:50Z</time>
      </trkpt>
      <trkpt lat="45.1303" lon="6.11854">
        <ele>2861.4</ele>
        <time>2021-03-10T09:41:51Z</time>
      </trkpt>
      <trkpt lat="45.1303" lon="6.11854">
        <ele>2861.3</ele>
        <time>2021-03-10T09:41:52Z</time>
      </trkpt>
      <trkpt lat="45.13029" lon="6.11855">
        <ele>2861.3</ele>
        <time>2021-03-10T09:41:53Z</time>
      </trkpt>
      <trkpt lat="45.13029" lon="6.11855">
        <ele>2861.3</ele>
        <time>2021-03-10T09:41:54Z</time>
      </trkpt>
      <trkpt lat="45.13028" lon="6.11856">
        <ele>2861.6</ele>
        <time>2021-03-10T09:41:55Z</time>
      </trkpt>
      <trkpt lat="45.13028" lon="6.11856">
        <ele>2861.5</ele>
        <time>2021-03-10T09:41:56Z</time>
      </trkpt>
      <trkpt lat="45.13026" lon="6.11859">
        <ele>2862.4</ele>
        <time>2021-03-10T09:42:01Z</time>
      </trkpt>
      <trkpt lat="45.13026" lon="6.11859">
        <ele>2862.3</ele>
        <time>2021-03-10T09:42:02Z</time>
      </trkpt>
      <trkpt lat="45.13026" lon="6.1186">
        <ele>2862.3</ele>
        <time>2021-03-10T09:42:03Z</time>
      </trkpt>
      <trkpt lat="45.13026" lon="6.1186">
        <ele>2862.6</ele>
        <time>2021-03-10T09:42:04Z</time>
      </trkpt>
      <trkpt lat="45.13025" lon="6.11861">
        <ele>2862.5</ele>
        <time>2021-03-10T09:42:05Z</time>
      </trkpt>
      <trkpt lat="45.13025" lon="6.11861">
        <ele>2862.5</ele>
        <time>2021-03-10T09:42:06Z</time>
      </trkpt>
      <trkpt lat="45.13024" lon="6.11862">
        <ele>2863.3</ele>
        <time>2021-03-10T09:42:07Z</time>
      </trkpt>
      <trkpt lat="45.13024" lon="6.11862">
        <ele>2863.3</ele>
        <time>2021-03-10T09:42:08Z</time>
      </trkpt>
      <trkpt lat="45.13023" lon="6.11863">
        <ele>2863.3</ele>
        <time>2021-03-10T09:42:09Z</time>
      </trkpt>
      <trkpt lat="45.13023" lon="6.11863">
        <ele>2863.2</ele>
        <time>2021-03-10T09:42:10Z</time>
      </trkpt>
      <trkpt lat="45.13022" lon="6.11864">
        <ele>2863.4</ele>
        <time>2021-03-10T09:42:11Z</time>
      </trkpt>
      <trkpt lat="45.13022" lon="6.11864">
        <ele>2863.4</ele>
        <time>2021-03-10T09:42:12Z</time>
      </trkpt>
      <trkpt lat="45.13021" lon="6.11865">
        <ele>2863.4</ele>
        <time>2021-03-10T09:42:13Z</time>
      </trkpt>
      <trkpt lat="45.13021" lon="6.11865">
        <ele>2863.3</ele>
        <time>2021-03-10T09:42:14Z</time>
      </trkpt>
      <trkpt lat="45.13021" lon="6.11866">
        <ele>2863.3</ele>
        <time>2021-03-10T09:42:15Z</time>
      </trkpt>
      <trkpt lat="45.1302" lon="6.11866">
        <ele>2864.1</ele>
        <time>2021-03-10T09:42:16Z</time>
      </trkpt>
      <trkpt lat="45.1302" lon="6.11867">
        <ele>2864.2</ele>
        <time>2021-03-10T09:42:17Z</time>
      </trkpt>
      <trkpt lat="45.13019" lon="6.11868">
        <ele>2864.2</ele>
        <time>2021-03-10T09:42:18Z</time>
      </trkpt>
      <trkpt lat="45.13018" lon="6.11868">
        <ele>2864.2</ele>
        <time>2021-03-10T09:42:19Z</time>
      </trkpt>
      <trkpt lat="45.13018" lon="6.11869">
        <ele>2864.1</ele>
        <time>2021-03-10T09:42:20Z</time>
      </trkpt>
      <trkpt lat="45.13018" lon="6.1187">
        <ele>2864.1</ele>
        <time>2021-03-10T09:42:21Z</time>
      </trkpt>
      <trkpt lat="45.13017" lon="6.1187">
        <ele>2864.9</ele>
        <time>2021-03-10T09:42:22Z</time>
      </trkpt>
      <trkpt lat="45.13017" lon="6.11871">
        <ele>2864.9</ele>
        <time>2021-03-10T09:42:23Z</time>
      </trkpt>
      <trkpt lat="45.13016" lon="6.11871">
        <ele>2865</ele>
        <time>2021-03-10T09:42:24Z</time>
      </trkpt>
      <trkpt lat="45.13016" lon="6.11871">
        <ele>2865</ele>
        <time>2021-03-10T09:42:25Z</time>
      </trkpt>
      <trkpt lat="45.13016" lon="6.11872">
        <ele>2864.9</ele>
        <time>2021-03-10T09:42:26Z</time>
      </trkpt>
      <trkpt lat="45.13015" lon="6.11872">
        <ele>2864.9</ele>
        <time>2021-03-10T09:42:27Z</time>
      </trkpt>
      <trkpt lat="45.13014" lon="6.11872">
        <ele>2864.9</ele>
        <time>2021-03-10T09:42:28Z</time>
      </trkpt>
      <trkpt lat="45.13014" lon="6.11873">
        <ele>2864.8</ele>
        <time>2021-03-10T09:42:29Z</time>
      </trkpt>
      <trkpt lat="45.13013" lon="6.11873">
        <ele>2864.9</ele>
        <time>2021-03-10T09:42:30Z</time>
      </trkpt>
      <trkpt lat="45.13013" lon="6.11874">
        <ele>2864.8</ele>
        <time>2021-03-10T09:42:31Z</time>
      </trkpt>
      <trkpt lat="45.13016" lon="6.1188">
        <ele>2866.4</ele>
        <time>2021-03-10T09:43:03Z</time>
      </trkpt>
      <trkpt lat="45.13016" lon="6.11881">
        <ele>2866.4</ele>
        <time>2021-03-10T09:43:04Z</time>
      </trkpt>
      <trkpt lat="45.13016" lon="6.11881">
        <ele>2866.3</ele>
        <time>2021-03-10T09:43:05Z</time>
      </trkpt>
      <trkpt lat="45.13017" lon="6.11881">
        <ele>2866.2</ele>
        <time>2021-03-10T09:43:06Z</time>
      </trkpt>
      <trkpt lat="45.13017" lon="6.11882">
        <ele>2866.2</ele>
        <time>2021-03-10T09:43:07Z</time>
      </trkpt>
      <trkpt lat="45.13018" lon="6.11882">
        <ele>2866.1</ele>
        <time>2021-03-10T09:43:08Z</time>
      </trkpt>
      <trkpt lat="45.13019" lon="6.11882">
        <ele>2866.1</ele>
        <time>2021-03-10T09:43:09Z</time>
      </trkpt>
      <trkpt lat="45.13019" lon="6.11883">
        <ele>2867.1</ele>
        <time>2021-03-10T09:43:10Z</time>
      </trkpt>
      <trkpt lat="45.1302" lon="6.11883">
        <ele>2867</ele>
        <time>2021-03-10T09:43:11Z</time>
      </trkpt>
      <trkpt lat="45.1302" lon="6.11884">
        <ele>2866.9</ele>
        <time>2021-03-10T09:43:12Z</time>
      </trkpt>
      <trkpt lat="45.13021" lon="6.11884">
        <ele>2866.9</ele>
        <time>2021-03-10T09:43:13Z</time>
      </trkpt>
      <trkpt lat="45.13021" lon="6.11884">
        <ele>2866.8</ele>
        <time>2021-03-10T09:43:14Z</time>
      </trkpt>
      <trkpt lat="45.13021" lon="6.11885">
        <ele>2866.8</ele>
        <time>2021-03-10T09:43:15Z</time>
      </trkpt>
      <trkpt lat="45.13022" lon="6.11885">
        <ele>2866.8</ele>
        <time>2021-03-10T09:43:16Z</time>
      </trkpt>
      <trkpt lat="45.13022" lon="6.11885">
        <ele>2866.7</ele>
        <time>2021-03-10T09:43:17Z</time>
      </trkpt>
      <trkpt lat="45.13023" lon="6.11886">
        <ele>2866.5</ele>
        <time>2021-03-10T09:43:18Z</time>
      </trkpt>
      <trkpt lat="45.13023" lon="6.11886">
        <ele>2866.5</ele>
        <time>2021-03-10T09:43:19Z</time>
      </trkpt>
      <trkpt lat="45.13024" lon="6.11886">
        <ele>2866.4</ele>
        <time>2021-03-10T09:43:20Z</time>
      </trkpt>
      <trkpt lat="45.13024" lon="6.11886">
        <ele>2866.4</ele>
        <time>2021-03-10T09:43:21Z</time>
      </trkpt>
      <trkpt lat="45.13025" lon="6.11887">
        <ele>2866.4</ele>
        <time>2021-03-10T09:43:22Z</time>
      </trkpt>
      <trkpt lat="45.13025" lon="6.11887">
        <ele>2866.3</ele>
        <time>2021-03-10T09:43:23Z</time>
      </trkpt>
      <trkpt lat="45.13026" lon="6.11887">
        <ele>2867.1</ele>
        <time>2021-03-10T09:43:24Z</time>
      </trkpt>
      <trkpt lat="45.13026" lon="6.11887">
        <ele>2867.1</ele>
        <time>2021-03-10T09:43:25Z</time>
      </trkpt>
      <trkpt lat="45.13026" lon="6.11888">
        <ele>2867.1</ele>
        <time>2021-03-10T09:43:26Z</time>
      </trkpt>
      <trkpt lat="45.13027" lon="6.11888">
        <ele>2867.1</ele>
        <time>2021-03-10T09:43:27Z</time>
      </trkpt>
      <trkpt lat="45.13027" lon="6.11889">
        <ele>2867.1</ele>
        <time>2021-03-10T09:43:28Z</time>
      </trkpt>
      <trkpt lat="45.13028" lon="6.11889">
        <ele>2867.1</ele>
        <time>2021-03-10T09:43:29Z</time>
      </trkpt>
      <trkpt lat="45.13028" lon="6.1189">
        <ele>2867.1</ele>
        <time>2021-03-10T09:43:30Z</time>
      </trkpt>
      <trkpt lat="45.13029" lon="6.11891">
        <ele>2867.1</ele>
        <time>2021-03-10T09:43:31Z</time>
      </trkpt>
      <trkpt lat="45.13029" lon="6.11891">
        <ele>2868</ele>
        <time>2021-03-10T09:43:32Z</time>
      </trkpt>
      <trkpt lat="45.1303" lon="6.11892">
        <ele>2868</ele>
        <time>2021-03-10T09:43:33Z</time>
      </trkpt>
      <trkpt lat="45.1303" lon="6.11893">
        <ele>2868</ele>
        <time>2021-03-10T09:43:34Z</time>
      </trkpt>
      <trkpt lat="45.1303" lon="6.11893">
        <ele>2868</ele>
        <time>2021-03-10T09:43:35Z</time>
      </trkpt>
      <trkpt lat="45.13031" lon="6.11894">
        <ele>2868</ele>
        <time>2021-03-10T09:43:36Z</time>
      </trkpt>
      <trkpt lat="45.13031" lon="6.11895">
        <ele>2868</ele>
        <time>2021-03-10T09:43:37Z</time>
      </trkpt>
      <trkpt lat="45.13031" lon="6.11896">
        <ele>2868.9</ele>
        <time>2021-03-10T09:43:38Z</time>
      </trkpt>
      <trkpt lat="45.13032" lon="6.11896">
        <ele>2868.9</ele>
        <time>2021-03-10T09:43:39Z</time>
      </trkpt>
      <trkpt lat="45.13032" lon="6.11897">
        <ele>2868.8</ele>
        <time>2021-03-10T09:43:40Z</time>
      </trkpt>
      <trkpt lat="45.13033" lon="6.11898">
        <ele>2868.8</ele>
        <time>2021-03-10T09:43:41Z</time>
      </trkpt>
      <trkpt lat="45.13033" lon="6.11899">
        <ele>2868.8</ele>
        <time>2021-03-10T09:43:42Z</time>
      </trkpt>
      <trkpt lat="45.13033" lon="6.119">
        <ele>2868.8</ele>
        <time>2021-03-10T09:43:43Z</time>
      </trkpt>
      <trkpt lat="45.13034" lon="6.119">
        <ele>2869.7</ele>
        <time>2021-03-10T09:43:44Z</time>
      </trkpt>
      <trkpt lat="45.13035" lon="6.11901">
        <ele>2869.7</ele>
        <time>2021-03-10T09:43:45Z</time>
      </trkpt>
      <trkpt lat="45.13035" lon="6.11902">
        <ele>2869.6</ele>
        <time>2021-03-10T09:43:46Z</time>
      </trkpt>
      <trkpt lat="45.13036" lon="6.11903">
        <ele>2869.6</ele>
        <time>2021-03-10T09:43:47Z</time>
      </trkpt>
      <trkpt lat="45.13036" lon="6.11904">
        <ele>2869.6</ele>
        <time>2021-03-10T09:43:48Z</time>
      </trkpt>
      <trkpt lat="45.13037" lon="6.11904">
        <ele>2870.5</ele>
        <time>2021-03-10T09:43:49Z</time>
      </trkpt>
      <trkpt lat="45.13038" lon="6.11905">
        <ele>2870.5</ele>
        <time>2021-03-10T09:43:50Z</time>
      </trkpt>
      <trkpt lat="45.13038" lon="6.11906">
        <ele>2870.4</ele>
        <time>2021-03-10T09:43:51Z</time>
      </trkpt>
      <trkpt lat="45.13039" lon="6.11906">
        <ele>2870.4</ele>
        <time>2021-03-10T09:43:52Z</time>
      </trkpt>
      <trkpt lat="45.1304" lon="6.11907">
        <ele>2870.4</ele>
        <time>2021-03-10T09:43:53Z</time>
      </trkpt>
      <trkpt lat="45.13041" lon="6.11907">
        <ele>2870.3</ele>
        <time>2021-03-10T09:43:54Z</time>
      </trkpt>
      <trkpt lat="45.13042" lon="6.11908">
        <ele>2870.3</ele>
        <time>2021-03-10T09:43:55Z</time>
      </trkpt>
      <trkpt lat="45.13042" lon="6.11908">
        <ele>2870.3</ele>
        <time>2021-03-10T09:43:56Z</time>
      </trkpt>
      <trkpt lat="45.13043" lon="6.11909">
        <ele>2871.2</ele>
        <time>2021-03-10T09:43:57Z</time>
      </trkpt>
      <trkpt lat="45.13043" lon="6.11909">
        <ele>2871.2</ele>
        <time>2021-03-10T09:43:58Z</time>
      </trkpt>
      <trkpt lat="45.13044" lon="6.1191">
        <ele>2871.2</ele>
        <time>2021-03-10T09:43:59Z</time>
      </trkpt>
      <trkpt lat="45.13044" lon="6.11911">
        <ele>2871.2</ele>
        <time>2021-03-10T09:44:00Z</time>
      </trkpt>
      <trkpt lat="45.13045" lon="6.11911">
        <ele>2871.2</ele>
        <time>2021-03-10T09:44:01Z</time>
      </trkpt>
      <trkpt lat="45.13045" lon="6.11912">
        <ele>2871.2</ele>
        <time>2021-03-10T09:44:02Z</time>
      </trkpt>
      <trkpt lat="45.13046" lon="6.11912">
        <ele>2871.2</ele>
        <time>2021-03-10T09:44:03Z</time>
      </trkpt>
      <trkpt lat="45.13047" lon="6.11912">
        <ele>2871.2</ele>
        <time>2021-03-10T09:44:04Z</time>
      </trkpt>
      <trkpt lat="45.13047" lon="6.11912">
        <ele>2871.1</ele>
        <time>2021-03-10T09:44:05Z</time>
      </trkpt>
      <trkpt lat="45.13048" lon="6.11912">
        <ele>2871.1</ele>
        <time>2021-03-10T09:44:06Z</time>
      </trkpt>
      <trkpt lat="45.13049" lon="6.11913">
        <ele>2871.1</ele>
        <time>2021-03-10T09:44:07Z</time>
      </trkpt>
      <trkpt lat="45.13049" lon="6.11912">
        <ele>2871.1</ele>
        <time>2021-03-10T09:44:08Z</time>
      </trkpt>
      <trkpt lat="45.1305" lon="6.11912">
        <ele>2871.1</ele>
        <time>2021-03-10T09:44:09Z</time>
      </trkpt>
      <trkpt lat="45.1305" lon="6.11912">
        <ele>2871.1</ele>
        <time>2021-03-10T09:44:10Z</time>
      </trkpt>
      <trkpt lat="45.13051" lon="6.11912">
        <ele>2871.1</ele>
        <time>2021-03-10T09:44:11Z</time>
      </trkpt>
      <trkpt lat="45.13051" lon="6.11912">
        <ele>2871.1</ele>
        <time>2021-03-10T09:44:12Z</time>
      </trkpt>
      <trkpt lat="45.13051" lon="6.11912">
        <ele>2871.1</ele>
        <time>2021-03-10T09:44:13Z</time>
      </trkpt>
      <trkpt lat="45.13052" lon="6.11912">
        <ele>2871.1</ele>
        <time>2021-03-10T09:44:14Z</time>
      </trkpt>
      <trkpt lat="45.13052" lon="6.11912">
        <ele>2871.1</ele>
        <time>2021-03-10T09:44:15Z</time>
      </trkpt>
      <trkpt lat="45.13065" lon="6.11913">
        <ele>2871.6</ele>
        <time>2021-03-10T09:44:39Z</time>
      </trkpt>
      <trkpt lat="45.13065" lon="6.11913">
        <ele>2871.5</ele>
        <time>2021-03-10T09:44:40Z</time>
      </trkpt>
      <trkpt lat="45.13066" lon="6.11914">
        <ele>2871.5</ele>
        <time>2021-03-10T09:44:41Z</time>
      </trkpt>
      <trkpt lat="45.13066" lon="6.11914">
        <ele>2871.5</ele>
        <time>2021-03-10T09:44:42Z</time>
      </trkpt>
      <trkpt lat="45.13067" lon="6.11914">
        <ele>2871.5</ele>
        <time>2021-03-10T09:44:43Z</time>
      </trkpt>
      <trkpt lat="45.13067" lon="6.11914">
        <ele>2871.5</ele>
        <time>2021-03-10T09:44:44Z</time>
      </trkpt>
      <trkpt lat="45.13067" lon="6.11914">
        <ele>2871.5</ele>
        <time>2021-03-10T09:44:45Z</time>
      </trkpt>
      <trkpt lat="45.13068" lon="6.11914">
        <ele>2871.5</ele>
        <time>2021-03-10T09:44:46Z</time>
      </trkpt>
      <trkpt lat="45.13068" lon="6.11914">
        <ele>2871.5</ele>
        <time>2021-03-10T09:44:47Z</time>
      </trkpt>
      <trkpt lat="45.13068" lon="6.11915">
        <ele>2871.5</ele>
        <time>2021-03-10T09:44:48Z</time>
      </trkpt>
      <trkpt lat="45.13068" lon="6.11915">
        <ele>2871.3</ele>
        <time>2021-03-10T09:44:49Z</time>
      </trkpt>
      <trkpt lat="45.13073" lon="6.11917">
        <ele>2872.3</ele>
        <time>2021-03-10T09:44:59Z</time>
      </trkpt>
      <trkpt lat="45.13074" lon="6.11918">
        <ele>2872.3</ele>
        <time>2021-03-10T09:45:00Z</time>
      </trkpt>
      <trkpt lat="45.13074" lon="6.11918">
        <ele>2872</ele>
        <time>2021-03-10T09:45:01Z</time>
      </trkpt>
      <trkpt lat="45.13075" lon="6.11919">
        <ele>2872</ele>
        <time>2021-03-10T09:45:02Z</time>
      </trkpt>
      <trkpt lat="45.13076" lon="6.11919">
        <ele>2872</ele>
        <time>2021-03-10T09:45:03Z</time>
      </trkpt>
      <trkpt lat="45.13076" lon="6.11919">
        <ele>2872</ele>
        <time>2021-03-10T09:45:04Z</time>
      </trkpt>
      <trkpt lat="45.13077" lon="6.11919">
        <ele>2872</ele>
        <time>2021-03-10T09:45:05Z</time>
      </trkpt>
      <trkpt lat="45.13077" lon="6.11919">
        <ele>2872</ele>
        <time>2021-03-10T09:45:06Z</time>
      </trkpt>
      <trkpt lat="45.13078" lon="6.11919">
        <ele>2871.7</ele>
        <time>2021-03-10T09:45:07Z</time>
      </trkpt>
      <trkpt lat="45.13078" lon="6.1192">
        <ele>2871.7</ele>
        <time>2021-03-10T09:45:08Z</time>
      </trkpt>
      <trkpt lat="45.13079" lon="6.1192">
        <ele>2871.7</ele>
        <time>2021-03-10T09:45:09Z</time>
      </trkpt>
      <trkpt lat="45.1308" lon="6.1192">
        <ele>2871.7</ele>
        <time>2021-03-10T09:45:10Z</time>
      </trkpt>
      <trkpt lat="45.1308" lon="6.11921">
        <ele>2871.7</ele>
        <time>2021-03-10T09:45:11Z</time>
      </trkpt>
      <trkpt lat="45.13081" lon="6.11921">
        <ele>2871.4</ele>
        <time>2021-03-10T09:45:12Z</time>
      </trkpt>
      <trkpt lat="45.13081" lon="6.11921">
        <ele>2871.4</ele>
        <time>2021-03-10T09:45:13Z</time>
      </trkpt>
      <trkpt lat="45.13081" lon="6.11922">
        <ele>2872.5</ele>
        <time>2021-03-10T09:45:14Z</time>
      </trkpt>
      <trkpt lat="45.13081" lon="6.11922">
        <ele>2872.5</ele>
        <time>2021-03-10T09:45:15Z</time>
      </trkpt>
      <trkpt lat="45.13081" lon="6.11923">
        <ele>2872.5</ele>
        <time>2021-03-10T09:45:16Z</time>
      </trkpt>
      <trkpt lat="45.13081" lon="6.11923">
        <ele>2872.5</ele>
        <time>2021-03-10T09:45:17Z</time>
      </trkpt>
      <trkpt lat="45.13081" lon="6.11923">
        <ele>2872.5</ele>
        <time>2021-03-10T09:45:18Z</time>
      </trkpt>
      <trkpt lat="45.1308" lon="6.11924">
        <ele>2872.5</ele>
        <time>2021-03-10T09:45:19Z</time>
      </trkpt>
      <trkpt lat="45.1308" lon="6.11924">
        <ele>2872.5</ele>
        <time>2021-03-10T09:45:20Z</time>
      </trkpt>
      <trkpt lat="45.1308" lon="6.11924">
        <ele>2872.9</ele>
        <time>2021-03-10T09:45:21Z</time>
      </trkpt>
      <trkpt lat="45.13073" lon="6.11939">
        <ele>2878.1</ele>
        <time>2021-03-10T09:45:46Z</time>
      </trkpt>
      <trkpt lat="45.13073" lon="6.11941">
        <ele>2878.1</ele>
        <time>2021-03-10T09:45:47Z</time>
      </trkpt>
      <trkpt lat="45.13073" lon="6.11942">
        <ele>2878.1</ele>
        <time>2021-03-10T09:45:48Z</time>
      </trkpt>
      <trkpt lat="45.13073" lon="6.11942">
        <ele>2878.1</ele>
        <time>2021-03-10T09:45:49Z</time>
      </trkpt>
      <trkpt lat="45.13074" lon="6.11943">
        <ele>2879</ele>
        <time>2021-03-10T09:45:50Z</time>
      </trkpt>
      <trkpt lat="45.13074" lon="6.11944">
        <ele>2879</ele>
        <time>2021-03-10T09:45:51Z</time>
      </trkpt>
      <trkpt lat="45.13074" lon="6.11946">
        <ele>2879</ele>
        <time>2021-03-10T09:45:52Z</time>
      </trkpt>
      <trkpt lat="45.13074" lon="6.11947">
        <ele>2879</ele>
        <time>2021-03-10T09:45:53Z</time>
      </trkpt>
      <trkpt lat="45.13074" lon="6.11948">
        <ele>2879.8</ele>
        <time>2021-03-10T09:45:54Z</time>
      </trkpt>
      <trkpt lat="45.13074" lon="6.11949">
        <ele>2879.8</ele>
        <time>2021-03-10T09:45:55Z</time>
      </trkpt>
      <trkpt lat="45.13074" lon="6.1195">
        <ele>2879.8</ele>
        <time>2021-03-10T09:45:56Z</time>
      </trkpt>
      <trkpt lat="45.13074" lon="6.11951">
        <ele>2879.7</ele>
        <time>2021-03-10T09:45:57Z</time>
      </trkpt>
      <trkpt lat="45.13074" lon="6.11952">
        <ele>2880.5</ele>
        <time>2021-03-10T09:45:58Z</time>
      </trkpt>
      <trkpt lat="45.13075" lon="6.11953">
        <ele>2880.5</ele>
        <time>2021-03-10T09:45:59Z</time>
      </trkpt>
      <trkpt lat="45.13075" lon="6.11954">
        <ele>2880.5</ele>
        <time>2021-03-10T09:46:00Z</time>
      </trkpt>
      <trkpt lat="45.13075" lon="6.11955">
        <ele>2880.5</ele>
        <time>2021-03-10T09:46:01Z</time>
      </trkpt>
      <trkpt lat="45.13075" lon="6.11956">
        <ele>2880.5</ele>
        <time>2021-03-10T09:46:02Z</time>
      </trkpt>
      <trkpt lat="45.13075" lon="6.11956">
        <ele>2881.3</ele>
        <time>2021-03-10T09:46:03Z</time>
      </trkpt>
      <trkpt lat="45.13075" lon="6.11957">
        <ele>2881.3</ele>
        <time>2021-03-10T09:46:04Z</time>
      </trkpt>
      <trkpt lat="45.13075" lon="6.11958">
        <ele>2881.3</ele>
        <time>2021-03-10T09:46:05Z</time>
      </trkpt>
      <trkpt lat="45.13075" lon="6.11958">
        <ele>2881.3</ele>
        <time>2021-03-10T09:46:06Z</time>
      </trkpt>
      <trkpt lat="45.13076" lon="6.11959">
        <ele>2881.3</ele>
        <time>2021-03-10T09:46:07Z</time>
      </trkpt>
      <trkpt lat="45.13076" lon="6.1196">
        <ele>2882.1</ele>
        <time>2021-03-10T09:46:08Z</time>
      </trkpt>
      <trkpt lat="45.13076" lon="6.11961">
        <ele>2882.1</ele>
        <time>2021-03-10T09:46:09Z</time>
      </trkpt>
      <trkpt lat="45.13076" lon="6.11961">
        <ele>2882.1</ele>
        <time>2021-03-10T09:46:10Z</time>
      </trkpt>
      <trkpt lat="45.13076" lon="6.11961">
        <ele>2882.1</ele>
        <time>2021-03-10T09:46:11Z</time>
      </trkpt>
      <trkpt lat="45.13077" lon="6.11961">
        <ele>2882.1</ele>
        <time>2021-03-10T09:46:12Z</time>
      </trkpt>
      <trkpt lat="45.13077" lon="6.11962">
        <ele>2882.1</ele>
        <time>2021-03-10T09:46:13Z</time>
      </trkpt>
      <trkpt lat="45.13077" lon="6.11962">
        <ele>2882.1</ele>
        <time>2021-03-10T09:46:14Z</time>
      </trkpt>
      <trkpt lat="45.13077" lon="6.11962">
        <ele>2882.1</ele>
        <time>2021-03-10T09:46:15Z</time>
      </trkpt>
      <trkpt lat="45.13077" lon="6.11963">
        <ele>2882.1</ele>
        <time>2021-03-10T09:46:16Z</time>
      </trkpt>
      <trkpt lat="45.13077" lon="6.11964">
        <ele>2882</ele>
        <time>2021-03-10T09:46:17Z</time>
      </trkpt>
      <trkpt lat="45.13077" lon="6.11964">
        <ele>2882</ele>
        <time>2021-03-10T09:46:18Z</time>
      </trkpt>
      <trkpt lat="45.13078" lon="6.11965">
        <ele>2882.9</ele>
        <time>2021-03-10T09:46:19Z</time>
      </trkpt>
      <trkpt lat="45.13078" lon="6.11965">
        <ele>2882.9</ele>
        <time>2021-03-10T09:46:20Z</time>
      </trkpt>
      <trkpt lat="45.13078" lon="6.11966">
        <ele>2882.9</ele>
        <time>2021-03-10T09:46:21Z</time>
      </trkpt>
      <trkpt lat="45.13078" lon="6.11966">
        <ele>2882.9</ele>
        <time>2021-03-10T09:46:22Z</time>
      </trkpt>
      <trkpt lat="45.13078" lon="6.11967">
        <ele>2882.9</ele>
        <time>2021-03-10T09:46:23Z</time>
      </trkpt>
      <trkpt lat="45.13078" lon="6.11967">
        <ele>2882.9</ele>
        <time>2021-03-10T09:46:24Z</time>
      </trkpt>
      <trkpt lat="45.13078" lon="6.11968">
        <ele>2882.9</ele>
        <time>2021-03-10T09:46:25Z</time>
      </trkpt>
      <trkpt lat="45.13078" lon="6.11969">
        <ele>2883.8</ele>
        <time>2021-03-10T09:46:26Z</time>
      </trkpt>
      <trkpt lat="45.13077" lon="6.1197">
        <ele>2883.8</ele>
        <time>2021-03-10T09:46:27Z</time>
      </trkpt>
      <trkpt lat="45.13077" lon="6.1197">
        <ele>2883.8</ele>
        <time>2021-03-10T09:46:28Z</time>
      </trkpt>
      <trkpt lat="45.13077" lon="6.11971">
        <ele>2883.8</ele>
        <time>2021-03-10T09:46:29Z</time>
      </trkpt>
      <trkpt lat="45.13077" lon="6.11972">
        <ele>2883.8</ele>
        <time>2021-03-10T09:46:30Z</time>
      </trkpt>
      <trkpt lat="45.13077" lon="6.11973">
        <ele>2884.7</ele>
        <time>2021-03-10T09:46:31Z</time>
      </trkpt>
      <trkpt lat="45.13077" lon="6.11974">
        <ele>2884.7</ele>
        <time>2021-03-10T09:46:32Z</time>
      </trkpt>
      <trkpt lat="45.13076" lon="6.11974">
        <ele>2884.7</ele>
        <time>2021-03-10T09:46:33Z</time>
      </trkpt>
      <trkpt lat="45.13076" lon="6.11975">
        <ele>2884.7</ele>
        <time>2021-03-10T09:46:34Z</time>
      </trkpt>
      <trkpt lat="45.13076" lon="6.11975">
        <ele>2884.7</ele>
        <time>2021-03-10T09:46:35Z</time>
      </trkpt>
      <trkpt lat="45.13076" lon="6.11975">
        <ele>2884.7</ele>
        <time>2021-03-10T09:46:36Z</time>
      </trkpt>
      <trkpt lat="45.13076" lon="6.11975">
        <ele>2884.7</ele>
        <time>2021-03-10T09:46:37Z</time>
      </trkpt>
      <trkpt lat="45.13075" lon="6.11976">
        <ele>2884.7</ele>
        <time>2021-03-10T09:46:38Z</time>
      </trkpt>
      <trkpt lat="45.13075" lon="6.11976">
        <ele>2884.7</ele>
        <time>2021-03-10T09:46:39Z</time>
      </trkpt>
      <trkpt lat="45.13075" lon="6.11977">
        <ele>2884.7</ele>
        <time>2021-03-10T09:46:40Z</time>
      </trkpt>
      <trkpt lat="45.13075" lon="6.11977">
        <ele>2885.6</ele>
        <time>2021-03-10T09:46:41Z</time>
      </trkpt>
      <trkpt lat="45.13075" lon="6.11978">
        <ele>2885.6</ele>
        <time>2021-03-10T09:46:42Z</time>
      </trkpt>
      <trkpt lat="45.13075" lon="6.11978">
        <ele>2885.6</ele>
        <time>2021-03-10T09:46:43Z</time>
      </trkpt>
      <trkpt lat="45.13074" lon="6.11979">
        <ele>2885.6</ele>
        <time>2021-03-10T09:46:44Z</time>
      </trkpt>
      <trkpt lat="45.13074" lon="6.1198">
        <ele>2885.6</ele>
        <time>2021-03-10T09:46:45Z</time>
      </trkpt>
      <trkpt lat="45.13074" lon="6.1198">
        <ele>2885.6</ele>
        <time>2021-03-10T09:46:46Z</time>
      </trkpt>
      <trkpt lat="45.13073" lon="6.11981">
        <ele>2885.6</ele>
        <time>2021-03-10T09:46:47Z</time>
      </trkpt>
      <trkpt lat="45.13073" lon="6.11982">
        <ele>2886.4</ele>
        <time>2021-03-10T09:46:48Z</time>
      </trkpt>
      <trkpt lat="45.13073" lon="6.11983">
        <ele>2886.4</ele>
        <time>2021-03-10T09:46:49Z</time>
      </trkpt>
      <trkpt lat="45.13073" lon="6.11984">
        <ele>2886.4</ele>
        <time>2021-03-10T09:46:50Z</time>
      </trkpt>
      <trkpt lat="45.13072" lon="6.11985">
        <ele>2886.4</ele>
        <time>2021-03-10T09:46:51Z</time>
      </trkpt>
      <trkpt lat="45.13072" lon="6.11985">
        <ele>2886.4</ele>
        <time>2021-03-10T09:46:52Z</time>
      </trkpt>
      <trkpt lat="45.13071" lon="6.11986">
        <ele>2887.2</ele>
        <time>2021-03-10T09:46:53Z</time>
      </trkpt>
      <trkpt lat="45.13071" lon="6.11987">
        <ele>2887.1</ele>
        <time>2021-03-10T09:46:54Z</time>
      </trkpt>
      <trkpt lat="45.1307" lon="6.11988">
        <ele>2887.1</ele>
        <time>2021-03-10T09:46:55Z</time>
      </trkpt>
      <trkpt lat="45.1307" lon="6.11989">
        <ele>2887.1</ele>
        <time>2021-03-10T09:46:56Z</time>
      </trkpt>
      <trkpt lat="45.13069" lon="6.11989">
        <ele>2887.1</ele>
        <time>2021-03-10T09:46:57Z</time>
      </trkpt>
      <trkpt lat="45.13069" lon="6.1199">
        <ele>2887.1</ele>
        <time>2021-03-10T09:46:58Z</time>
      </trkpt>
      <trkpt lat="45.13068" lon="6.11991">
        <ele>2887.9</ele>
        <time>2021-03-10T09:46:59Z</time>
      </trkpt>
      <trkpt lat="45.13068" lon="6.11991">
        <ele>2887.8</ele>
        <time>2021-03-10T09:47:00Z</time>
      </trkpt>
      <trkpt lat="45.13068" lon="6.11992">
        <ele>2887.8</ele>
        <time>2021-03-10T09:47:01Z</time>
      </trkpt>
      <trkpt lat="45.13067" lon="6.11993">
        <ele>2887.8</ele>
        <time>2021-03-10T09:47:02Z</time>
      </trkpt>
      <trkpt lat="45.13067" lon="6.11994">
        <ele>2887.8</ele>
        <time>2021-03-10T09:47:03Z</time>
      </trkpt>
      <trkpt lat="45.13066" lon="6.11994">
        <ele>2888.5</ele>
        <time>2021-03-10T09:47:04Z</time>
      </trkpt>
      <trkpt lat="45.13066" lon="6.11995">
        <ele>2888.5</ele>
        <time>2021-03-10T09:47:05Z</time>
      </trkpt>
      <trkpt lat="45.13065" lon="6.11996">
        <ele>2888.5</ele>
        <time>2021-03-10T09:47:06Z</time>
      </trkpt>
      <trkpt lat="45.13065" lon="6.11996">
        <ele>2888.4</ele>
        <time>2021-03-10T09:47:07Z</time>
      </trkpt>
      <trkpt lat="45.13064" lon="6.11997">
        <ele>2888.4</ele>
        <time>2021-03-10T09:47:08Z</time>
      </trkpt>
      <trkpt lat="45.13064" lon="6.11997">
        <ele>2888.4</ele>
        <time>2021-03-10T09:47:09Z</time>
      </trkpt>
      <trkpt lat="45.13064" lon="6.11998">
        <ele>2888.4</ele>
        <time>2021-03-10T09:47:10Z</time>
      </trkpt>
      <trkpt lat="45.13063" lon="6.11999">
        <ele>2888.4</ele>
        <time>2021-03-10T09:47:11Z</time>
      </trkpt>
      <trkpt lat="45.13063" lon="6.11999">
        <ele>2889.1</ele>
        <time>2021-03-10T09:47:12Z</time>
      </trkpt>
      <trkpt lat="45.13062" lon="6.12">
        <ele>2889.1</ele>
        <time>2021-03-10T09:47:13Z</time>
      </trkpt>
      <trkpt lat="45.13062" lon="6.12001">
        <ele>2888.9</ele>
        <time>2021-03-10T09:47:14Z</time>
      </trkpt>
      <trkpt lat="45.13062" lon="6.12001">
        <ele>2888.9</ele>
        <time>2021-03-10T09:47:15Z</time>
      </trkpt>
      <trkpt lat="45.13062" lon="6.12002">
        <ele>2888.9</ele>
        <time>2021-03-10T09:47:16Z</time>
      </trkpt>
      <trkpt lat="45.13062" lon="6.12002">
        <ele>2888.9</ele>
        <time>2021-03-10T09:47:17Z</time>
      </trkpt>
      <trkpt lat="45.13061" lon="6.12003">
        <ele>2889.6</ele>
        <time>2021-03-10T09:47:18Z</time>
      </trkpt>
      <trkpt lat="45.13061" lon="6.12004">
        <ele>2889.6</ele>
        <time>2021-03-10T09:47:19Z</time>
      </trkpt>
      <trkpt lat="45.13061" lon="6.12005">
        <ele>2889.6</ele>
        <time>2021-03-10T09:47:20Z</time>
      </trkpt>
      <trkpt lat="45.13061" lon="6.12005">
        <ele>2889.6</ele>
        <time>2021-03-10T09:47:21Z</time>
      </trkpt>
      <trkpt lat="45.1306" lon="6.12006">
        <ele>2889.6</ele>
        <time>2021-03-10T09:47:22Z</time>
      </trkpt>
      <trkpt lat="45.1306" lon="6.12007">
        <ele>2889.6</ele>
        <time>2021-03-10T09:47:23Z</time>
      </trkpt>
      <trkpt lat="45.1306" lon="6.12007">
        <ele>2890.3</ele>
        <time>2021-03-10T09:47:24Z</time>
      </trkpt>
      <trkpt lat="45.1306" lon="6.12008">
        <ele>2890.3</ele>
        <time>2021-03-10T09:47:25Z</time>
      </trkpt>
      <trkpt lat="45.1306" lon="6.12008">
        <ele>2890.3</ele>
        <time>2021-03-10T09:47:26Z</time>
      </trkpt>
      <trkpt lat="45.1306" lon="6.12009">
        <ele>2890.3</ele>
        <time>2021-03-10T09:47:27Z</time>
      </trkpt>
      <trkpt lat="45.1306" lon="6.12009">
        <ele>2890.3</ele>
        <time>2021-03-10T09:47:28Z</time>
      </trkpt>
      <trkpt lat="45.1306" lon="6.1201">
        <ele>2890.3</ele>
        <time>2021-03-10T09:47:29Z</time>
      </trkpt>
      <trkpt lat="45.1306" lon="6.1201">
        <ele>2890.3</ele>
        <time>2021-03-10T09:47:30Z</time>
      </trkpt>
      <trkpt lat="45.1306" lon="6.12011">
        <ele>2890.3</ele>
        <time>2021-03-10T09:47:31Z</time>
      </trkpt>
      <trkpt lat="45.1306" lon="6.12011">
        <ele>2890.3</ele>
        <time>2021-03-10T09:47:32Z</time>
      </trkpt>
      <trkpt lat="45.13059" lon="6.12012">
        <ele>2891</ele>
        <time>2021-03-10T09:47:33Z</time>
      </trkpt>
      <trkpt lat="45.13059" lon="6.12012">
        <ele>2891</ele>
        <time>2021-03-10T09:47:34Z</time>
      </trkpt>
      <trkpt lat="45.13059" lon="6.12013">
        <ele>2891</ele>
        <time>2021-03-10T09:47:35Z</time>
      </trkpt>
      <trkpt lat="45.13059" lon="6.12018">
        <ele>2891.5</ele>
        <time>2021-03-10T09:47:40Z</time>
      </trkpt>
      <trkpt lat="45.13059" lon="6.12019">
        <ele>2891.5</ele>
        <time>2021-03-10T09:47:41Z</time>
      </trkpt>
      <trkpt lat="45.13059" lon="6.1202">
        <ele>2891.5</ele>
        <time>2021-03-10T09:47:42Z</time>
      </trkpt>
      <trkpt lat="45.13059" lon="6.12021">
        <ele>2892.4</ele>
        <time>2021-03-10T09:47:43Z</time>
      </trkpt>
      <trkpt lat="45.13059" lon="6.12022">
        <ele>2892.4</ele>
        <time>2021-03-10T09:47:44Z</time>
      </trkpt>
      <trkpt lat="45.13059" lon="6.12023">
        <ele>2892.4</ele>
        <time>2021-03-10T09:47:45Z</time>
      </trkpt>
      <trkpt lat="45.13059" lon="6.12023">
        <ele>2892.4</ele>
        <time>2021-03-10T09:47:46Z</time>
      </trkpt>
      <trkpt lat="45.13059" lon="6.12024">
        <ele>2892.4</ele>
        <time>2021-03-10T09:47:47Z</time>
      </trkpt>
      <trkpt lat="45.13059" lon="6.12025">
        <ele>2893.1</ele>
        <time>2021-03-10T09:47:48Z</time>
      </trkpt>
      <trkpt lat="45.13059" lon="6.12025">
        <ele>2892.9</ele>
        <time>2021-03-10T09:47:49Z</time>
      </trkpt>
      <trkpt lat="45.13059" lon="6.12026">
        <ele>2892.9</ele>
        <time>2021-03-10T09:47:50Z</time>
      </trkpt>
      <trkpt lat="45.13059" lon="6.12026">
        <ele>2892.9</ele>
        <time>2021-03-10T09:47:51Z</time>
      </trkpt>
      <trkpt lat="45.13059" lon="6.12027">
        <ele>2892.9</ele>
        <time>2021-03-10T09:47:52Z</time>
      </trkpt>
      <trkpt lat="45.13059" lon="6.12027">
        <ele>2892.9</ele>
        <time>2021-03-10T09:47:53Z</time>
      </trkpt>
      <trkpt lat="45.13058" lon="6.12029">
        <ele>2893.5</ele>
        <time>2021-03-10T09:47:59Z</time>
      </trkpt>
      <trkpt lat="45.13058" lon="6.1203">
        <ele>2893.5</ele>
        <time>2021-03-10T09:48:00Z</time>
      </trkpt>
      <trkpt lat="45.13059" lon="6.12031">
        <ele>2893.5</ele>
        <time>2021-03-10T09:48:01Z</time>
      </trkpt>
      <trkpt lat="45.13059" lon="6.12031">
        <ele>2893.5</ele>
        <time>2021-03-10T09:48:02Z</time>
      </trkpt>
      <trkpt lat="45.13059" lon="6.12032">
        <ele>2893.8</ele>
        <time>2021-03-10T09:48:03Z</time>
      </trkpt>
      <trkpt lat="45.1306" lon="6.12033">
        <ele>2894.4</ele>
        <time>2021-03-10T09:48:04Z</time>
      </trkpt>
      <trkpt lat="45.1306" lon="6.12034">
        <ele>2894.4</ele>
        <time>2021-03-10T09:48:05Z</time>
      </trkpt>
      <trkpt lat="45.1306" lon="6.12035">
        <ele>2894.4</ele>
        <time>2021-03-10T09:48:06Z</time>
      </trkpt>
      <trkpt lat="45.13061" lon="6.12035">
        <ele>2894.4</ele>
        <time>2021-03-10T09:48:07Z</time>
      </trkpt>
      <trkpt lat="45.13061" lon="6.12036">
        <ele>2894.4</ele>
        <time>2021-03-10T09:48:08Z</time>
      </trkpt>
      <trkpt lat="45.13061" lon="6.12037">
        <ele>2894.4</ele>
        <time>2021-03-10T09:48:09Z</time>
      </trkpt>
      <trkpt lat="45.13061" lon="6.12037">
        <ele>2895</ele>
        <time>2021-03-10T09:48:10Z</time>
      </trkpt>
      <trkpt lat="45.13062" lon="6.12038">
        <ele>2895</ele>
        <time>2021-03-10T09:48:11Z</time>
      </trkpt>
      <trkpt lat="45.13062" lon="6.12039">
        <ele>2895</ele>
        <time>2021-03-10T09:48:12Z</time>
      </trkpt>
      <trkpt lat="45.13062" lon="6.1204">
        <ele>2895.2</ele>
        <time>2021-03-10T09:48:13Z</time>
      </trkpt>
      <trkpt lat="45.13063" lon="6.12041">
        <ele>2895.2</ele>
        <time>2021-03-10T09:48:14Z</time>
      </trkpt>
      <trkpt lat="45.13063" lon="6.12042">
        <ele>2895.9</ele>
        <time>2021-03-10T09:48:15Z</time>
      </trkpt>
      <trkpt lat="45.13064" lon="6.12043">
        <ele>2895.9</ele>
        <time>2021-03-10T09:48:16Z</time>
      </trkpt>
      <trkpt lat="45.13064" lon="6.12044">
        <ele>2895.9</ele>
        <time>2021-03-10T09:48:17Z</time>
      </trkpt>
      <trkpt lat="45.13064" lon="6.12045">
        <ele>2895.9</ele>
        <time>2021-03-10T09:48:18Z</time>
      </trkpt>
      <trkpt lat="45.13064" lon="6.12045">
        <ele>2895.9</ele>
        <time>2021-03-10T09:48:19Z</time>
      </trkpt>
      <trkpt lat="45.13065" lon="6.12046">
        <ele>2896.5</ele>
        <time>2021-03-10T09:48:20Z</time>
      </trkpt>
      <trkpt lat="45.13065" lon="6.12047">
        <ele>2896.8</ele>
        <time>2021-03-10T09:48:21Z</time>
      </trkpt>
      <trkpt lat="45.13066" lon="6.12048">
        <ele>2896.8</ele>
        <time>2021-03-10T09:48:22Z</time>
      </trkpt>
      <trkpt lat="45.13066" lon="6.12048">
        <ele>2896.8</ele>
        <time>2021-03-10T09:48:23Z</time>
      </trkpt>
      <trkpt lat="45.13067" lon="6.12049">
        <ele>2896.8</ele>
        <time>2021-03-10T09:48:24Z</time>
      </trkpt>
      <trkpt lat="45.13067" lon="6.1205">
        <ele>2896.8</ele>
        <time>2021-03-10T09:48:25Z</time>
      </trkpt>
      <trkpt lat="45.13068" lon="6.12051">
        <ele>2897.5</ele>
        <time>2021-03-10T09:48:26Z</time>
      </trkpt>
      <trkpt lat="45.13068" lon="6.12052">
        <ele>2897.7</ele>
        <time>2021-03-10T09:48:27Z</time>
      </trkpt>
      <trkpt lat="45.13069" lon="6.12053">
        <ele>2897.7</ele>
        <time>2021-03-10T09:48:28Z</time>
      </trkpt>
      <trkpt lat="45.13069" lon="6.12054">
        <ele>2897.7</ele>
        <time>2021-03-10T09:48:29Z</time>
      </trkpt>
      <trkpt lat="45.13069" lon="6.12055">
        <ele>2898.5</ele>
        <time>2021-03-10T09:48:30Z</time>
      </trkpt>
      <trkpt lat="45.1307" lon="6.12055">
        <ele>2898.5</ele>
        <time>2021-03-10T09:48:31Z</time>
      </trkpt>
      <trkpt lat="45.1307" lon="6.12056">
        <ele>2898.5</ele>
        <time>2021-03-10T09:48:32Z</time>
      </trkpt>
      <trkpt lat="45.1307" lon="6.12057">
        <ele>2898.5</ele>
        <time>2021-03-10T09:48:33Z</time>
      </trkpt>
      <trkpt lat="45.1307" lon="6.12058">
        <ele>2898.5</ele>
        <time>2021-03-10T09:48:34Z</time>
      </trkpt>
      <trkpt lat="45.1307" lon="6.12059">
        <ele>2899.2</ele>
        <time>2021-03-10T09:48:35Z</time>
      </trkpt>
      <trkpt lat="45.1307" lon="6.1206">
        <ele>2899.2</ele>
        <time>2021-03-10T09:48:36Z</time>
      </trkpt>
      <trkpt lat="45.1307" lon="6.12061">
        <ele>2899.2</ele>
        <time>2021-03-10T09:48:37Z</time>
      </trkpt>
      <trkpt lat="45.1307" lon="6.12062">
        <ele>2899.2</ele>
        <time>2021-03-10T09:48:38Z</time>
      </trkpt>
      <trkpt lat="45.1307" lon="6.12063">
        <ele>2899.2</ele>
        <time>2021-03-10T09:48:39Z</time>
      </trkpt>
      <trkpt lat="45.1307" lon="6.12064">
        <ele>2900</ele>
        <time>2021-03-10T09:48:40Z</time>
      </trkpt>
      <trkpt lat="45.1307" lon="6.12065">
        <ele>2900</ele>
        <time>2021-03-10T09:48:41Z</time>
      </trkpt>
      <trkpt lat="45.1307" lon="6.12066">
        <ele>2900</ele>
        <time>2021-03-10T09:48:42Z</time>
      </trkpt>
      <trkpt lat="45.1307" lon="6.12066">
        <ele>2900</ele>
        <time>2021-03-10T09:48:43Z</time>
      </trkpt>
      <trkpt lat="45.1307" lon="6.12067">
        <ele>2900</ele>
        <time>2021-03-10T09:48:44Z</time>
      </trkpt>
      <trkpt lat="45.1307" lon="6.12068">
        <ele>2900.8</ele>
        <time>2021-03-10T09:48:45Z</time>
      </trkpt>
      <trkpt lat="45.13069" lon="6.12068">
        <ele>2900.8</ele>
        <time>2021-03-10T09:48:46Z</time>
      </trkpt>
      <trkpt lat="45.13069" lon="6.12069">
        <ele>2900.8</ele>
        <time>2021-03-10T09:48:47Z</time>
      </trkpt>
      <trkpt lat="45.13069" lon="6.1207">
        <ele>2900.8</ele>
        <time>2021-03-10T09:48:48Z</time>
      </trkpt>
      <trkpt lat="45.13069" lon="6.12071">
        <ele>2900.8</ele>
        <time>2021-03-10T09:48:49Z</time>
      </trkpt>
      <trkpt lat="45.13069" lon="6.12071">
        <ele>2900.8</ele>
        <time>2021-03-10T09:48:50Z</time>
      </trkpt>
      <trkpt lat="45.13068" lon="6.12072">
        <ele>2901.5</ele>
        <time>2021-03-10T09:48:51Z</time>
      </trkpt>
      <trkpt lat="45.13068" lon="6.12072">
        <ele>2901.2</ele>
        <time>2021-03-10T09:48:52Z</time>
      </trkpt>
      <trkpt lat="45.13068" lon="6.12073">
        <ele>2901.2</ele>
        <time>2021-03-10T09:48:53Z</time>
      </trkpt>
      <trkpt lat="45.13067" lon="6.12073">
        <ele>2901.2</ele>
        <time>2021-03-10T09:48:54Z</time>
      </trkpt>
      <trkpt lat="45.13067" lon="6.12074">
        <ele>2901.2</ele>
        <time>2021-03-10T09:48:55Z</time>
      </trkpt>
      <trkpt lat="45.13067" lon="6.12075">
        <ele>2901.2</ele>
        <time>2021-03-10T09:48:56Z</time>
      </trkpt>
      <trkpt lat="45.13067" lon="6.12076">
        <ele>2901.2</ele>
        <time>2021-03-10T09:48:57Z</time>
      </trkpt>
      <trkpt lat="45.13067" lon="6.12076">
        <ele>2901.9</ele>
        <time>2021-03-10T09:48:58Z</time>
      </trkpt>
      <trkpt lat="45.13067" lon="6.12077">
        <ele>2901.9</ele>
        <time>2021-03-10T09:48:59Z</time>
      </trkpt>
      <trkpt lat="45.13067" lon="6.12078">
        <ele>2901.9</ele>
        <time>2021-03-10T09:49:00Z</time>
      </trkpt>
      <trkpt lat="45.13067" lon="6.12078">
        <ele>2901.9</ele>
        <time>2021-03-10T09:49:01Z</time>
      </trkpt>
      <trkpt lat="45.13074" lon="6.12079">
        <ele>2902.4</ele>
        <time>2021-03-10T09:49:13Z</time>
      </trkpt>
      <trkpt lat="45.13075" lon="6.12079">
        <ele>2902.7</ele>
        <time>2021-03-10T09:49:14Z</time>
      </trkpt>
      <trkpt lat="45.13075" lon="6.12078">
        <ele>2902.7</ele>
        <time>2021-03-10T09:49:15Z</time>
      </trkpt>
      <trkpt lat="45.13075" lon="6.12078">
        <ele>2902.7</ele>
        <time>2021-03-10T09:49:16Z</time>
      </trkpt>
      <trkpt lat="45.13075" lon="6.12078">
        <ele>2902.7</ele>
        <time>2021-03-10T09:49:17Z</time>
      </trkpt>
      <trkpt lat="45.13076" lon="6.12077">
        <ele>2902.7</ele>
        <time>2021-03-10T09:49:18Z</time>
      </trkpt>
      <trkpt lat="45.13076" lon="6.12077">
        <ele>2902.7</ele>
        <time>2021-03-10T09:49:19Z</time>
      </trkpt>
      <trkpt lat="45.13077" lon="6.12077">
        <ele>2902.7</ele>
        <time>2021-03-10T09:49:20Z</time>
      </trkpt>
      <trkpt lat="45.13078" lon="6.12077">
        <ele>2902.9</ele>
        <time>2021-03-10T09:49:21Z</time>
      </trkpt>
      <trkpt lat="45.13078" lon="6.12077">
        <ele>2902.9</ele>
        <time>2021-03-10T09:49:22Z</time>
      </trkpt>
      <trkpt lat="45.13078" lon="6.12077">
        <ele>2902.9</ele>
        <time>2021-03-10T09:49:23Z</time>
      </trkpt>
      <trkpt lat="45.13097" lon="6.12099">
        <ele>2908.1</ele>
        <time>2021-03-10T09:50:06Z</time>
      </trkpt>
      <trkpt lat="45.13097" lon="6.12099">
        <ele>2908.1</ele>
        <time>2021-03-10T09:50:07Z</time>
      </trkpt>
      <trkpt lat="45.13098" lon="6.121">
        <ele>2908.1</ele>
        <time>2021-03-10T09:50:08Z</time>
      </trkpt>
      <trkpt lat="45.13099" lon="6.121">
        <ele>2908.3</ele>
        <time>2021-03-10T09:50:09Z</time>
      </trkpt>
      <trkpt lat="45.13099" lon="6.121">
        <ele>2908.3</ele>
        <time>2021-03-10T09:50:10Z</time>
      </trkpt>
      <trkpt lat="45.131" lon="6.12101">
        <ele>2908.3</ele>
        <time>2021-03-10T09:50:11Z</time>
      </trkpt>
      <trkpt lat="45.131" lon="6.12101">
        <ele>2908.3</ele>
        <time>2021-03-10T09:50:12Z</time>
      </trkpt>
      <trkpt lat="45.13101" lon="6.12102">
        <ele>2909.1</ele>
        <time>2021-03-10T09:50:13Z</time>
      </trkpt>
      <trkpt lat="45.13102" lon="6.12102">
        <ele>2909.3</ele>
        <time>2021-03-10T09:50:14Z</time>
      </trkpt>
      <trkpt lat="45.13103" lon="6.12103">
        <ele>2909.3</ele>
        <time>2021-03-10T09:50:15Z</time>
      </trkpt>
      <trkpt lat="45.13104" lon="6.12103">
        <ele>2909.3</ele>
        <time>2021-03-10T09:50:16Z</time>
      </trkpt>
      <trkpt lat="45.13104" lon="6.12104">
        <ele>2909.3</ele>
        <time>2021-03-10T09:50:17Z</time>
      </trkpt>
      <trkpt lat="45.13105" lon="6.12104">
        <ele>2909.6</ele>
        <time>2021-03-10T09:50:18Z</time>
      </trkpt>
      <trkpt lat="45.13106" lon="6.12104">
        <ele>2909.6</ele>
        <time>2021-03-10T09:50:19Z</time>
      </trkpt>
      <trkpt lat="45.13106" lon="6.12105">
        <ele>2909.6</ele>
        <time>2021-03-10T09:50:20Z</time>
      </trkpt>
      <trkpt lat="45.13107" lon="6.12105">
        <ele>2909.6</ele>
        <time>2021-03-10T09:50:21Z</time>
      </trkpt>
      <trkpt lat="45.13107" lon="6.12106">
        <ele>2909.6</ele>
        <time>2021-03-10T09:50:22Z</time>
      </trkpt>
      <trkpt lat="45.13108" lon="6.12106">
        <ele>2910.7</ele>
        <time>2021-03-10T09:50:23Z</time>
      </trkpt>
      <trkpt lat="45.13108" lon="6.12107">
        <ele>2910.7</ele>
        <time>2021-03-10T09:50:24Z</time>
      </trkpt>
      <trkpt lat="45.13109" lon="6.12108">
        <ele>2910.7</ele>
        <time>2021-03-10T09:50:25Z</time>
      </trkpt>
      <trkpt lat="45.13109" lon="6.12108">
        <ele>2910.7</ele>
        <time>2021-03-10T09:50:26Z</time>
      </trkpt>
      <trkpt lat="45.1311" lon="6.12109">
        <ele>2910.7</ele>
        <time>2021-03-10T09:50:27Z</time>
      </trkpt>
      <trkpt lat="45.13111" lon="6.1211">
        <ele>2911</ele>
        <time>2021-03-10T09:50:28Z</time>
      </trkpt>
      <trkpt lat="45.13111" lon="6.1211">
        <ele>2911</ele>
        <time>2021-03-10T09:50:29Z</time>
      </trkpt>
      <trkpt lat="45.13112" lon="6.12111">
        <ele>2911.9</ele>
        <time>2021-03-10T09:50:30Z</time>
      </trkpt>
      <trkpt lat="45.13112" lon="6.12111">
        <ele>2911.9</ele>
        <time>2021-03-10T09:50:31Z</time>
      </trkpt>
      <trkpt lat="45.13113" lon="6.12112">
        <ele>2911.9</ele>
        <time>2021-03-10T09:50:32Z</time>
      </trkpt>
      <trkpt lat="45.13114" lon="6.12112">
        <ele>2912.2</ele>
        <time>2021-03-10T09:50:33Z</time>
      </trkpt>
      <trkpt lat="45.13114" lon="6.12113">
        <ele>2912.2</ele>
        <time>2021-03-10T09:50:34Z</time>
      </trkpt>
      <trkpt lat="45.13115" lon="6.12113">
        <ele>2912.2</ele>
        <time>2021-03-10T09:50:35Z</time>
      </trkpt>
      <trkpt lat="45.13116" lon="6.12114">
        <ele>2912.2</ele>
        <time>2021-03-10T09:50:36Z</time>
      </trkpt>
      <trkpt lat="45.13116" lon="6.12114">
        <ele>2912.2</ele>
        <time>2021-03-10T09:50:37Z</time>
      </trkpt>
      <trkpt lat="45.13117" lon="6.12115">
        <ele>2913.4</ele>
        <time>2021-03-10T09:50:38Z</time>
      </trkpt>
      <trkpt lat="45.13117" lon="6.12115">
        <ele>2913.4</ele>
        <time>2021-03-10T09:50:39Z</time>
      </trkpt>
      <trkpt lat="45.13118" lon="6.12116">
        <ele>2913.4</ele>
        <time>2021-03-10T09:50:40Z</time>
      </trkpt>
      <trkpt lat="45.13118" lon="6.12116">
        <ele>2913.4</ele>
        <time>2021-03-10T09:50:41Z</time>
      </trkpt>
      <trkpt lat="45.13119" lon="6.12117">
        <ele>2913.4</ele>
        <time>2021-03-10T09:50:42Z</time>
      </trkpt>
      <trkpt lat="45.1312" lon="6.12117">
        <ele>2913.7</ele>
        <time>2021-03-10T09:50:43Z</time>
      </trkpt>
      <trkpt lat="45.1312" lon="6.12117">
        <ele>2913.7</ele>
        <time>2021-03-10T09:50:44Z</time>
      </trkpt>
      <trkpt lat="45.13121" lon="6.12118">
        <ele>2913.7</ele>
        <time>2021-03-10T09:50:45Z</time>
      </trkpt>
      <trkpt lat="45.13122" lon="6.12119">
        <ele>2913.7</ele>
        <time>2021-03-10T09:50:46Z</time>
      </trkpt>
      <trkpt lat="45.13123" lon="6.12119">
        <ele>2914.9</ele>
        <time>2021-03-10T09:50:47Z</time>
      </trkpt>
      <trkpt lat="45.13123" lon="6.12119">
        <ele>2914.9</ele>
        <time>2021-03-10T09:50:48Z</time>
      </trkpt>
      <trkpt lat="45.13124" lon="6.1212">
        <ele>2914.9</ele>
        <time>2021-03-10T09:50:49Z</time>
      </trkpt>
      <trkpt lat="45.13125" lon="6.1212">
        <ele>2914.9</ele>
        <time>2021-03-10T09:50:50Z</time>
      </trkpt>
      <trkpt lat="45.13126" lon="6.12121">
        <ele>2914.9</ele>
        <time>2021-03-10T09:50:51Z</time>
      </trkpt>
      <trkpt lat="45.13126" lon="6.12121">
        <ele>2915.1</ele>
        <time>2021-03-10T09:50:52Z</time>
      </trkpt>
      <trkpt lat="45.13127" lon="6.12121">
        <ele>2915.1</ele>
        <time>2021-03-10T09:50:53Z</time>
      </trkpt>
      <trkpt lat="45.13127" lon="6.12122">
        <ele>2915.1</ele>
        <time>2021-03-10T09:50:54Z</time>
      </trkpt>
      <trkpt lat="45.13128" lon="6.12122">
        <ele>2915.1</ele>
        <time>2021-03-10T09:50:55Z</time>
      </trkpt>
      <trkpt lat="45.13128" lon="6.12123">
        <ele>2915.1</ele>
        <time>2021-03-10T09:50:56Z</time>
      </trkpt>
      <trkpt lat="45.13129" lon="6.12123">
        <ele>2916.2</ele>
        <time>2021-03-10T09:50:57Z</time>
      </trkpt>
      <trkpt lat="45.1313" lon="6.12124">
        <ele>2916.2</ele>
        <time>2021-03-10T09:50:58Z</time>
      </trkpt>
      <trkpt lat="45.1313" lon="6.12124">
        <ele>2916.2</ele>
        <time>2021-03-10T09:50:59Z</time>
      </trkpt>
      <trkpt lat="45.13131" lon="6.12124">
        <ele>2916.2</ele>
        <time>2021-03-10T09:51:00Z</time>
      </trkpt>
      <trkpt lat="45.13132" lon="6.12125">
        <ele>2916.5</ele>
        <time>2021-03-10T09:51:01Z</time>
      </trkpt>
      <trkpt lat="45.13133" lon="6.12125">
        <ele>2916.5</ele>
        <time>2021-03-10T09:51:02Z</time>
      </trkpt>
      <trkpt lat="45.13133" lon="6.12126">
        <ele>2916.5</ele>
        <time>2021-03-10T09:51:03Z</time>
      </trkpt>
      <trkpt lat="45.13134" lon="6.12126">
        <ele>2916.5</ele>
        <time>2021-03-10T09:51:04Z</time>
      </trkpt>
      <trkpt lat="45.13135" lon="6.12127">
        <ele>2916.5</ele>
        <time>2021-03-10T09:51:05Z</time>
      </trkpt>
      <trkpt lat="45.13135" lon="6.12128">
        <ele>2917.6</ele>
        <time>2021-03-10T09:51:06Z</time>
      </trkpt>
      <trkpt lat="45.13136" lon="6.12128">
        <ele>2917.6</ele>
        <time>2021-03-10T09:51:07Z</time>
      </trkpt>
      <trkpt lat="45.13136" lon="6.12128">
        <ele>2917.6</ele>
        <time>2021-03-10T09:51:08Z</time>
      </trkpt>
      <trkpt lat="45.13137" lon="6.12128">
        <ele>2917.6</ele>
        <time>2021-03-10T09:51:09Z</time>
      </trkpt>
      <trkpt lat="45.13138" lon="6.12129">
        <ele>2917.6</ele>
        <time>2021-03-10T09:51:10Z</time>
      </trkpt>
      <trkpt lat="45.13138" lon="6.12129">
        <ele>2917.8</ele>
        <time>2021-03-10T09:51:11Z</time>
      </trkpt>
      <trkpt lat="45.13139" lon="6.1213">
        <ele>2917.8</ele>
        <time>2021-03-10T09:51:12Z</time>
      </trkpt>
      <trkpt lat="45.1314" lon="6.1213">
        <ele>2917.8</ele>
        <time>2021-03-10T09:51:13Z</time>
      </trkpt>
      <trkpt lat="45.1314" lon="6.12131">
        <ele>2917.8</ele>
        <time>2021-03-10T09:51:14Z</time>
      </trkpt>
      <trkpt lat="45.13141" lon="6.12131">
        <ele>2918.1</ele>
        <time>2021-03-10T09:51:15Z</time>
      </trkpt>
      <trkpt lat="45.13142" lon="6.12132">
        <ele>2918.1</ele>
        <time>2021-03-10T09:51:16Z</time>
      </trkpt>
      <trkpt lat="45.13143" lon="6.12132">
        <ele>2918.9</ele>
        <time>2021-03-10T09:51:17Z</time>
      </trkpt>
      <trkpt lat="45.13143" lon="6.12133">
        <ele>2918.9</ele>
        <time>2021-03-10T09:51:18Z</time>
      </trkpt>
      <trkpt lat="45.13144" lon="6.12133">
        <ele>2919.2</ele>
        <time>2021-03-10T09:51:19Z</time>
      </trkpt>
      <trkpt lat="45.13145" lon="6.12134">
        <ele>2919.2</ele>
        <time>2021-03-10T09:51:20Z</time>
      </trkpt>
      <trkpt lat="45.13145" lon="6.12134">
        <ele>2919.2</ele>
        <time>2021-03-10T09:51:21Z</time>
      </trkpt>
      <trkpt lat="45.13146" lon="6.12135">
        <ele>2919.2</ele>
        <time>2021-03-10T09:51:22Z</time>
      </trkpt>
      <trkpt lat="45.13147" lon="6.12136">
        <ele>2919.2</ele>
        <time>2021-03-10T09:51:23Z</time>
      </trkpt>
      <trkpt lat="45.13147" lon="6.12136">
        <ele>2920.3</ele>
        <time>2021-03-10T09:51:24Z</time>
      </trkpt>
      <trkpt lat="45.13148" lon="6.12137">
        <ele>2920.3</ele>
        <time>2021-03-10T09:51:25Z</time>
      </trkpt>
      <trkpt lat="45.13149" lon="6.12137">
        <ele>2920.3</ele>
        <time>2021-03-10T09:51:26Z</time>
      </trkpt>
      <trkpt lat="45.1315" lon="6.12137">
        <ele>2920.3</ele>
        <time>2021-03-10T09:51:27Z</time>
      </trkpt>
      <trkpt lat="45.1315" lon="6.12138">
        <ele>2920.5</ele>
        <time>2021-03-10T09:51:28Z</time>
      </trkpt>
      <trkpt lat="45.13151" lon="6.12139">
        <ele>2920.5</ele>
        <time>2021-03-10T09:51:29Z</time>
      </trkpt>
      <trkpt lat="45.13152" lon="6.12139">
        <ele>2920.5</ele>
        <time>2021-03-10T09:51:30Z</time>
      </trkpt>
      <trkpt lat="45.13153" lon="6.1214">
        <ele>2920.8</ele>
        <time>2021-03-10T09:51:31Z</time>
      </trkpt>
      <trkpt lat="45.13154" lon="6.1214">
        <ele>2920.8</ele>
        <time>2021-03-10T09:51:32Z</time>
      </trkpt>
      <trkpt lat="45.13155" lon="6.1214">
        <ele>2921.6</ele>
        <time>2021-03-10T09:51:33Z</time>
      </trkpt>
      <trkpt lat="45.13155" lon="6.12141">
        <ele>2921.6</ele>
        <time>2021-03-10T09:51:34Z</time>
      </trkpt>
      <trkpt lat="45.13156" lon="6.12141">
        <ele>2921.9</ele>
        <time>2021-03-10T09:51:35Z</time>
      </trkpt>
      <trkpt lat="45.13157" lon="6.12142">
        <ele>2921.9</ele>
        <time>2021-03-10T09:51:36Z</time>
      </trkpt>
      <trkpt lat="45.13157" lon="6.12142">
        <ele>2921.9</ele>
        <time>2021-03-10T09:51:37Z</time>
      </trkpt>
      <trkpt lat="45.13158" lon="6.12142">
        <ele>2921.9</ele>
        <time>2021-03-10T09:51:38Z</time>
      </trkpt>
      <trkpt lat="45.13159" lon="6.12143">
        <ele>2921.9</ele>
        <time>2021-03-10T09:51:39Z</time>
      </trkpt>
      <trkpt lat="45.1316" lon="6.12143">
        <ele>2922.1</ele>
        <time>2021-03-10T09:51:40Z</time>
      </trkpt>
      <trkpt lat="45.1316" lon="6.12143">
        <ele>2922.1</ele>
        <time>2021-03-10T09:51:41Z</time>
      </trkpt>
      <trkpt lat="45.13161" lon="6.12144">
        <ele>2922.1</ele>
        <time>2021-03-10T09:51:42Z</time>
      </trkpt>
      <trkpt lat="45.13162" lon="6.12144">
        <ele>2922.1</ele>
        <time>2021-03-10T09:51:43Z</time>
      </trkpt>
      <trkpt lat="45.13163" lon="6.12144">
        <ele>2922.3</ele>
        <time>2021-03-10T09:51:44Z</time>
      </trkpt>
      <trkpt lat="45.13164" lon="6.12145">
        <ele>2923.2</ele>
        <time>2021-03-10T09:51:45Z</time>
      </trkpt>
      <trkpt lat="45.13164" lon="6.12145">
        <ele>2923.2</ele>
        <time>2021-03-10T09:51:46Z</time>
      </trkpt>
      <trkpt lat="45.13165" lon="6.12146">
        <ele>2923.4</ele>
        <time>2021-03-10T09:51:47Z</time>
      </trkpt>
      <trkpt lat="45.13166" lon="6.12146">
        <ele>2923.4</ele>
        <time>2021-03-10T09:51:48Z</time>
      </trkpt>
      <trkpt lat="45.13167" lon="6.12147">
        <ele>2923.4</ele>
        <time>2021-03-10T09:51:49Z</time>
      </trkpt>
      <trkpt lat="45.13167" lon="6.12147">
        <ele>2923.4</ele>
        <time>2021-03-10T09:51:50Z</time>
      </trkpt>
      <trkpt lat="45.13168" lon="6.12147">
        <ele>2923.4</ele>
        <time>2021-03-10T09:51:51Z</time>
      </trkpt>
      <trkpt lat="45.13169" lon="6.12147">
        <ele>2923.6</ele>
        <time>2021-03-10T09:51:52Z</time>
      </trkpt>
      <trkpt lat="45.1317" lon="6.12147">
        <ele>2923.6</ele>
        <time>2021-03-10T09:51:53Z</time>
      </trkpt>
      <trkpt lat="45.1317" lon="6.12148">
        <ele>2923.6</ele>
        <time>2021-03-10T09:51:54Z</time>
      </trkpt>
      <trkpt lat="45.13171" lon="6.12148">
        <ele>2923.8</ele>
        <time>2021-03-10T09:51:55Z</time>
      </trkpt>
      <trkpt lat="45.13172" lon="6.12148">
        <ele>2923.8</ele>
        <time>2021-03-10T09:51:56Z</time>
      </trkpt>
      <trkpt lat="45.13173" lon="6.12149">
        <ele>2923.8</ele>
        <time>2021-03-10T09:51:57Z</time>
      </trkpt>
      <trkpt lat="45.13173" lon="6.12149">
        <ele>2924.7</ele>
        <time>2021-03-10T09:51:58Z</time>
      </trkpt>
      <trkpt lat="45.13174" lon="6.12149">
        <ele>2924.9</ele>
        <time>2021-03-10T09:51:59Z</time>
      </trkpt>
      <trkpt lat="45.13175" lon="6.1215">
        <ele>2924.9</ele>
        <time>2021-03-10T09:52:00Z</time>
      </trkpt>
      <trkpt lat="45.13175" lon="6.1215">
        <ele>2924.9</ele>
        <time>2021-03-10T09:52:01Z</time>
      </trkpt>
      <trkpt lat="45.13176" lon="6.1215">
        <ele>2924.9</ele>
        <time>2021-03-10T09:52:02Z</time>
      </trkpt>
      <trkpt lat="45.13176" lon="6.12151">
        <ele>2924.9</ele>
        <time>2021-03-10T09:52:03Z</time>
      </trkpt>
      <trkpt lat="45.13177" lon="6.12151">
        <ele>2924.9</ele>
        <time>2021-03-10T09:52:04Z</time>
      </trkpt>
      <trkpt lat="45.13177" lon="6.12151">
        <ele>2925</ele>
        <time>2021-03-10T09:52:05Z</time>
      </trkpt>
      <trkpt lat="45.13178" lon="6.12152">
        <ele>2925</ele>
        <time>2021-03-10T09:52:06Z</time>
      </trkpt>
      <trkpt lat="45.13179" lon="6.12152">
        <ele>2925</ele>
        <time>2021-03-10T09:52:07Z</time>
      </trkpt>
      <trkpt lat="45.1318" lon="6.12153">
        <ele>2925.9</ele>
        <time>2021-03-10T09:52:08Z</time>
      </trkpt>
      <trkpt lat="45.1318" lon="6.12154">
        <ele>2926</ele>
        <time>2021-03-10T09:52:09Z</time>
      </trkpt>
      <trkpt lat="45.13181" lon="6.12154">
        <ele>2926</ele>
        <time>2021-03-10T09:52:10Z</time>
      </trkpt>
      <trkpt lat="45.13182" lon="6.12155">
        <ele>2926</ele>
        <time>2021-03-10T09:52:11Z</time>
      </trkpt>
      <trkpt lat="45.13183" lon="6.12155">
        <ele>2926</ele>
        <time>2021-03-10T09:52:12Z</time>
      </trkpt>
      <trkpt lat="45.13184" lon="6.12156">
        <ele>2926</ele>
        <time>2021-03-10T09:52:13Z</time>
      </trkpt>
      <trkpt lat="45.13185" lon="6.12156">
        <ele>2926</ele>
        <time>2021-03-10T09:52:14Z</time>
      </trkpt>
      <trkpt lat="45.13186" lon="6.12156">
        <ele>2926</ele>
        <time>2021-03-10T09:52:15Z</time>
      </trkpt>
      <trkpt lat="45.13186" lon="6.12156">
        <ele>2926.1</ele>
        <time>2021-03-10T09:52:16Z</time>
      </trkpt>
      <trkpt lat="45.13187" lon="6.12156">
        <ele>2926.1</ele>
        <time>2021-03-10T09:52:17Z</time>
      </trkpt>
      <trkpt lat="45.13188" lon="6.12156">
        <ele>2926.1</ele>
        <time>2021-03-10T09:52:18Z</time>
      </trkpt>
      <trkpt lat="45.13188" lon="6.12156">
        <ele>2926.1</ele>
        <time>2021-03-10T09:52:19Z</time>
      </trkpt>
      <trkpt lat="45.13189" lon="6.12156">
        <ele>2926.1</ele>
        <time>2021-03-10T09:52:20Z</time>
      </trkpt>
      <trkpt lat="45.1319" lon="6.12156">
        <ele>2926.1</ele>
        <time>2021-03-10T09:52:21Z</time>
      </trkpt>
      <trkpt lat="45.13191" lon="6.12157">
        <ele>2926.1</ele>
        <time>2021-03-10T09:52:22Z</time>
      </trkpt>
      <trkpt lat="45.13191" lon="6.12157">
        <ele>2926.1</ele>
        <time>2021-03-10T09:52:23Z</time>
      </trkpt>
      <trkpt lat="45.13192" lon="6.12157">
        <ele>2926.1</ele>
        <time>2021-03-10T09:52:24Z</time>
      </trkpt>
      <trkpt lat="45.13193" lon="6.12157">
        <ele>2926.2</ele>
        <time>2021-03-10T09:52:25Z</time>
      </trkpt>
      <trkpt lat="45.13193" lon="6.12157">
        <ele>2927</ele>
        <time>2021-03-10T09:52:26Z</time>
      </trkpt>
      <trkpt lat="45.13194" lon="6.12158">
        <ele>2927</ele>
        <time>2021-03-10T09:52:27Z</time>
      </trkpt>
      <trkpt lat="45.13195" lon="6.12158">
        <ele>2927</ele>
        <time>2021-03-10T09:52:28Z</time>
      </trkpt>
      <trkpt lat="45.13195" lon="6.12158">
        <ele>2927</ele>
        <time>2021-03-10T09:52:29Z</time>
      </trkpt>
      <trkpt lat="45.13196" lon="6.12158">
        <ele>2927</ele>
        <time>2021-03-10T09:52:30Z</time>
      </trkpt>
      <trkpt lat="45.13197" lon="6.12159">
        <ele>2927</ele>
        <time>2021-03-10T09:52:31Z</time>
      </trkpt>
      <trkpt lat="45.13198" lon="6.12159">
        <ele>2927</ele>
        <time>2021-03-10T09:52:32Z</time>
      </trkpt>
      <trkpt lat="45.13198" lon="6.12159">
        <ele>2927</ele>
        <time>2021-03-10T09:52:33Z</time>
      </trkpt>
      <trkpt lat="45.13199" lon="6.1216">
        <ele>2927</ele>
        <time>2021-03-10T09:52:34Z</time>
      </trkpt>
      <trkpt lat="45.132" lon="6.1216">
        <ele>2927</ele>
        <time>2021-03-10T09:52:35Z</time>
      </trkpt>
      <trkpt lat="45.132" lon="6.1216">
        <ele>2927</ele>
        <time>2021-03-10T09:52:36Z</time>
      </trkpt>
      <trkpt lat="45.13201" lon="6.1216">
        <ele>2927</ele>
        <time>2021-03-10T09:52:37Z</time>
      </trkpt>
      <trkpt lat="45.13202" lon="6.12161">
        <ele>2927</ele>
        <time>2021-03-10T09:52:38Z</time>
      </trkpt>
      <trkpt lat="45.13202" lon="6.12161">
        <ele>2927</ele>
        <time>2021-03-10T09:52:39Z</time>
      </trkpt>
      <trkpt lat="45.13203" lon="6.12161">
        <ele>2927</ele>
        <time>2021-03-10T09:52:40Z</time>
      </trkpt>
      <trkpt lat="45.13203" lon="6.12162">
        <ele>2927</ele>
        <time>2021-03-10T09:52:41Z</time>
      </trkpt>
      <trkpt lat="45.13204" lon="6.12162">
        <ele>2927.9</ele>
        <time>2021-03-10T09:52:42Z</time>
      </trkpt>
      <trkpt lat="45.13205" lon="6.12162">
        <ele>2927.8</ele>
        <time>2021-03-10T09:52:43Z</time>
      </trkpt>
      <trkpt lat="45.13206" lon="6.12163">
        <ele>2927.8</ele>
        <time>2021-03-10T09:52:44Z</time>
      </trkpt>
      <trkpt lat="45.13206" lon="6.12163">
        <ele>2927.8</ele>
        <time>2021-03-10T09:52:45Z</time>
      </trkpt>
      <trkpt lat="45.13207" lon="6.12163">
        <ele>2927.8</ele>
        <time>2021-03-10T09:52:46Z</time>
      </trkpt>
      <trkpt lat="45.13208" lon="6.12164">
        <ele>2927.8</ele>
        <time>2021-03-10T09:52:47Z</time>
      </trkpt>
      <trkpt lat="45.13209" lon="6.12164">
        <ele>2927.8</ele>
        <time>2021-03-10T09:52:48Z</time>
      </trkpt>
      <trkpt lat="45.1321" lon="6.12164">
        <ele>2927.8</ele>
        <time>2021-03-10T09:52:49Z</time>
      </trkpt>
      <trkpt lat="45.13211" lon="6.12164">
        <ele>2927.8</ele>
        <time>2021-03-10T09:52:50Z</time>
      </trkpt>
      <trkpt lat="45.13212" lon="6.12165">
        <ele>2927.8</ele>
        <time>2021-03-10T09:52:51Z</time>
      </trkpt>
      <trkpt lat="45.13213" lon="6.12165">
        <ele>2927.8</ele>
        <time>2021-03-10T09:52:52Z</time>
      </trkpt>
      <trkpt lat="45.13214" lon="6.12165">
        <ele>2927.7</ele>
        <time>2021-03-10T09:52:53Z</time>
      </trkpt>
      <trkpt lat="45.13214" lon="6.12165">
        <ele>2927.7</ele>
        <time>2021-03-10T09:52:54Z</time>
      </trkpt>
      <trkpt lat="45.13215" lon="6.12166">
        <ele>2927.7</ele>
        <time>2021-03-10T09:52:55Z</time>
      </trkpt>
      <trkpt lat="45.13216" lon="6.12166">
        <ele>2928.6</ele>
        <time>2021-03-10T09:52:56Z</time>
      </trkpt>
      <trkpt lat="45.13217" lon="6.12167">
        <ele>2928.6</ele>
        <time>2021-03-10T09:52:57Z</time>
      </trkpt>
      <trkpt lat="45.13218" lon="6.12167">
        <ele>2928.6</ele>
        <time>2021-03-10T09:52:58Z</time>
      </trkpt>
      <trkpt lat="45.13218" lon="6.12168">
        <ele>2928.6</ele>
        <time>2021-03-10T09:52:59Z</time>
      </trkpt>
      <trkpt lat="45.13219" lon="6.12168">
        <ele>2928.6</ele>
        <time>2021-03-10T09:53:00Z</time>
      </trkpt>
      <trkpt lat="45.1322" lon="6.12168">
        <ele>2928.6</ele>
        <time>2021-03-10T09:53:01Z</time>
      </trkpt>
      <trkpt lat="45.1322" lon="6.12168">
        <ele>2928.6</ele>
        <time>2021-03-10T09:53:02Z</time>
      </trkpt>
      <trkpt lat="45.13221" lon="6.12169">
        <ele>2928.6</ele>
        <time>2021-03-10T09:53:03Z</time>
      </trkpt>
      <trkpt lat="45.13222" lon="6.12169">
        <ele>2928.6</ele>
        <time>2021-03-10T09:53:04Z</time>
      </trkpt>
      <trkpt lat="45.13222" lon="6.1217">
        <ele>2928.6</ele>
        <time>2021-03-10T09:53:05Z</time>
      </trkpt>
      <trkpt lat="45.13223" lon="6.1217">
        <ele>2928.6</ele>
        <time>2021-03-10T09:53:06Z</time>
      </trkpt>
      <trkpt lat="45.13223" lon="6.1217">
        <ele>2928.6</ele>
        <time>2021-03-10T09:53:07Z</time>
      </trkpt>
      <trkpt lat="45.13224" lon="6.1217">
        <ele>2928.6</ele>
        <time>2021-03-10T09:53:08Z</time>
      </trkpt>
      <trkpt lat="45.13225" lon="6.1217">
        <ele>2928.6</ele>
        <time>2021-03-10T09:53:09Z</time>
      </trkpt>
      <trkpt lat="45.13225" lon="6.12171">
        <ele>2929.4</ele>
        <time>2021-03-10T09:53:10Z</time>
      </trkpt>
      <trkpt lat="45.13226" lon="6.12171">
        <ele>2929.4</ele>
        <time>2021-03-10T09:53:11Z</time>
      </trkpt>
      <trkpt lat="45.13227" lon="6.12172">
        <ele>2929.4</ele>
        <time>2021-03-10T09:53:12Z</time>
      </trkpt>
      <trkpt lat="45.13228" lon="6.12172">
        <ele>2929.4</ele>
        <time>2021-03-10T09:53:13Z</time>
      </trkpt>
      <trkpt lat="45.13229" lon="6.12172">
        <ele>2929.4</ele>
        <time>2021-03-10T09:53:14Z</time>
      </trkpt>
      <trkpt lat="45.13229" lon="6.12173">
        <ele>2929.4</ele>
        <time>2021-03-10T09:53:15Z</time>
      </trkpt>
      <trkpt lat="45.1323" lon="6.12173">
        <ele>2929.4</ele>
        <time>2021-03-10T09:53:16Z</time>
      </trkpt>
      <trkpt lat="45.13231" lon="6.12173">
        <ele>2929.4</ele>
        <time>2021-03-10T09:53:17Z</time>
      </trkpt>
      <trkpt lat="45.13231" lon="6.12174">
        <ele>2929.4</ele>
        <time>2021-03-10T09:53:18Z</time>
      </trkpt>
      <trkpt lat="45.13232" lon="6.12174">
        <ele>2929.5</ele>
        <time>2021-03-10T09:53:19Z</time>
      </trkpt>
      <trkpt lat="45.13233" lon="6.12174">
        <ele>2929.5</ele>
        <time>2021-03-10T09:53:20Z</time>
      </trkpt>
      <trkpt lat="45.13233" lon="6.12174">
        <ele>2929.5</ele>
        <time>2021-03-10T09:53:21Z</time>
      </trkpt>
      <trkpt lat="45.13234" lon="6.12174">
        <ele>2929.5</ele>
        <time>2021-03-10T09:53:22Z</time>
      </trkpt>
      <trkpt lat="45.13235" lon="6.12174">
        <ele>2929.5</ele>
        <time>2021-03-10T09:53:23Z</time>
      </trkpt>
      <trkpt lat="45.13236" lon="6.12175">
        <ele>2929.5</ele>
        <time>2021-03-10T09:53:24Z</time>
      </trkpt>
      <trkpt lat="45.13237" lon="6.12175">
        <ele>2930.3</ele>
        <time>2021-03-10T09:53:25Z</time>
      </trkpt>
      <trkpt lat="45.13237" lon="6.12175">
        <ele>2930.3</ele>
        <time>2021-03-10T09:53:26Z</time>
      </trkpt>
      <trkpt lat="45.13238" lon="6.12175">
        <ele>2930.3</ele>
        <time>2021-03-10T09:53:27Z</time>
      </trkpt>
      <trkpt lat="45.13238" lon="6.12176">
        <ele>2930.4</ele>
        <time>2021-03-10T09:53:28Z</time>
      </trkpt>
      <trkpt lat="45.13239" lon="6.12176">
        <ele>2930.4</ele>
        <time>2021-03-10T09:53:29Z</time>
      </trkpt>
      <trkpt lat="45.1324" lon="6.12176">
        <ele>2930.4</ele>
        <time>2021-03-10T09:53:30Z</time>
      </trkpt>
      <trkpt lat="45.1324" lon="6.12176">
        <ele>2930.4</ele>
        <time>2021-03-10T09:53:31Z</time>
      </trkpt>
      <trkpt lat="45.13241" lon="6.12176">
        <ele>2930.4</ele>
        <time>2021-03-10T09:53:32Z</time>
      </trkpt>
      <trkpt lat="45.13241" lon="6.12176">
        <ele>2930.4</ele>
        <time>2021-03-10T09:53:33Z</time>
      </trkpt>
      <trkpt lat="45.13242" lon="6.12176">
        <ele>2930.4</ele>
        <time>2021-03-10T09:53:34Z</time>
      </trkpt>
      <trkpt lat="45.13243" lon="6.12177">
        <ele>2930.4</ele>
        <time>2021-03-10T09:53:35Z</time>
      </trkpt>
      <trkpt lat="45.13243" lon="6.12177">
        <ele>2930.4</ele>
        <time>2021-03-10T09:53:36Z</time>
      </trkpt>
      <trkpt lat="45.13244" lon="6.12177">
        <ele>2930.5</ele>
        <time>2021-03-10T09:53:37Z</time>
      </trkpt>
      <trkpt lat="45.13245" lon="6.12178">
        <ele>2930.5</ele>
        <time>2021-03-10T09:53:38Z</time>
      </trkpt>
      <trkpt lat="45.13245" lon="6.12178">
        <ele>2930.5</ele>
        <time>2021-03-10T09:53:39Z</time>
      </trkpt>
      <trkpt lat="45.13246" lon="6.12179">
        <ele>2930.5</ele>
        <time>2021-03-10T09:53:40Z</time>
      </trkpt>
      <trkpt lat="45.13247" lon="6.12179">
        <ele>2930.5</ele>
        <time>2021-03-10T09:53:41Z</time>
      </trkpt>
      <trkpt lat="45.13248" lon="6.12179">
        <ele>2931.3</ele>
        <time>2021-03-10T09:53:42Z</time>
      </trkpt>
      <trkpt lat="45.13248" lon="6.12179">
        <ele>2931.3</ele>
        <time>2021-03-10T09:53:43Z</time>
      </trkpt>
      <trkpt lat="45.13249" lon="6.1218">
        <ele>2931.3</ele>
        <time>2021-03-10T09:53:44Z</time>
      </trkpt>
      <trkpt lat="45.13249" lon="6.1218">
        <ele>2931.3</ele>
        <time>2021-03-10T09:53:45Z</time>
      </trkpt>
      <trkpt lat="45.1325" lon="6.1218">
        <ele>2931.3</ele>
        <time>2021-03-10T09:53:46Z</time>
      </trkpt>
      <trkpt lat="45.13251" lon="6.12181">
        <ele>2931.3</ele>
        <time>2021-03-10T09:53:47Z</time>
      </trkpt>
      <trkpt lat="45.13251" lon="6.12181">
        <ele>2931.3</ele>
        <time>2021-03-10T09:53:48Z</time>
      </trkpt>
      <trkpt lat="45.13252" lon="6.12181">
        <ele>2931.3</ele>
        <time>2021-03-10T09:53:49Z</time>
      </trkpt>
      <trkpt lat="45.13253" lon="6.12182">
        <ele>2931.3</ele>
        <time>2021-03-10T09:53:50Z</time>
      </trkpt>
      <trkpt lat="45.13253" lon="6.12182">
        <ele>2931.3</ele>
        <time>2021-03-10T09:53:51Z</time>
      </trkpt>
      <trkpt lat="45.13254" lon="6.12183">
        <ele>2931.3</ele>
        <time>2021-03-10T09:53:52Z</time>
      </trkpt>
      <trkpt lat="45.13255" lon="6.12183">
        <ele>2932.1</ele>
        <time>2021-03-10T09:53:53Z</time>
      </trkpt>
      <trkpt lat="45.13256" lon="6.12184">
        <ele>2932.1</ele>
        <time>2021-03-10T09:53:54Z</time>
      </trkpt>
      <trkpt lat="45.13256" lon="6.12184">
        <ele>2932.1</ele>
        <time>2021-03-10T09:53:55Z</time>
      </trkpt>
      <trkpt lat="45.13257" lon="6.12185">
        <ele>2932.1</ele>
        <time>2021-03-10T09:53:56Z</time>
      </trkpt>
      <trkpt lat="45.13258" lon="6.12185">
        <ele>2932.1</ele>
        <time>2021-03-10T09:53:57Z</time>
      </trkpt>
      <trkpt lat="45.13259" lon="6.12185">
        <ele>2932.1</ele>
        <time>2021-03-10T09:53:58Z</time>
      </trkpt>
      <trkpt lat="45.1326" lon="6.12185">
        <ele>2932.1</ele>
        <time>2021-03-10T09:53:59Z</time>
      </trkpt>
      <trkpt lat="45.1326" lon="6.12186">
        <ele>2932.1</ele>
        <time>2021-03-10T09:54:00Z</time>
      </trkpt>
      <trkpt lat="45.13261" lon="6.12186">
        <ele>2932.1</ele>
        <time>2021-03-10T09:54:01Z</time>
      </trkpt>
      <trkpt lat="45.13262" lon="6.12187">
        <ele>2932.1</ele>
        <time>2021-03-10T09:54:02Z</time>
      </trkpt>
      <trkpt lat="45.13263" lon="6.12187">
        <ele>2932.1</ele>
        <time>2021-03-10T09:54:03Z</time>
      </trkpt>
      <trkpt lat="45.13264" lon="6.12187">
        <ele>2933</ele>
        <time>2021-03-10T09:54:04Z</time>
      </trkpt>
      <trkpt lat="45.13265" lon="6.12188">
        <ele>2933</ele>
        <time>2021-03-10T09:54:05Z</time>
      </trkpt>
      <trkpt lat="45.13265" lon="6.12188">
        <ele>2932.9</ele>
        <time>2021-03-10T09:54:06Z</time>
      </trkpt>
      <trkpt lat="45.13266" lon="6.12188">
        <ele>2932.9</ele>
        <time>2021-03-10T09:54:07Z</time>
      </trkpt>
      <trkpt lat="45.13267" lon="6.12189">
        <ele>2932.9</ele>
        <time>2021-03-10T09:54:08Z</time>
      </trkpt>
      <trkpt lat="45.13268" lon="6.12189">
        <ele>2932.9</ele>
        <time>2021-03-10T09:54:09Z</time>
      </trkpt>
      <trkpt lat="45.13269" lon="6.1219">
        <ele>2932.9</ele>
        <time>2021-03-10T09:54:10Z</time>
      </trkpt>
      <trkpt lat="45.13269" lon="6.1219">
        <ele>2932.9</ele>
        <time>2021-03-10T09:54:11Z</time>
      </trkpt>
      <trkpt lat="45.1327" lon="6.1219">
        <ele>2932.9</ele>
        <time>2021-03-10T09:54:12Z</time>
      </trkpt>
      <trkpt lat="45.13271" lon="6.12191">
        <ele>2932.9</ele>
        <time>2021-03-10T09:54:13Z</time>
      </trkpt>
      <trkpt lat="45.13271" lon="6.12191">
        <ele>2932.8</ele>
        <time>2021-03-10T09:54:14Z</time>
      </trkpt>
      <trkpt lat="45.13272" lon="6.12191">
        <ele>2932.8</ele>
        <time>2021-03-10T09:54:15Z</time>
      </trkpt>
      <trkpt lat="45.13273" lon="6.12191">
        <ele>2932.8</ele>
        <time>2021-03-10T09:54:16Z</time>
      </trkpt>
      <trkpt lat="45.13273" lon="6.12192">
        <ele>2932.8</ele>
        <time>2021-03-10T09:54:17Z</time>
      </trkpt>
      <trkpt lat="45.13274" lon="6.12192">
        <ele>2932.8</ele>
        <time>2021-03-10T09:54:18Z</time>
      </trkpt>
      <trkpt lat="45.13275" lon="6.12192">
        <ele>2933.7</ele>
        <time>2021-03-10T09:54:19Z</time>
      </trkpt>
      <trkpt lat="45.13276" lon="6.12192">
        <ele>2933.7</ele>
        <time>2021-03-10T09:54:20Z</time>
      </trkpt>
      <trkpt lat="45.13276" lon="6.12192">
        <ele>2933.7</ele>
        <time>2021-03-10T09:54:21Z</time>
      </trkpt>
      <trkpt lat="45.13277" lon="6.12193">
        <ele>2933.6</ele>
        <time>2021-03-10T09:54:22Z</time>
      </trkpt>
      <trkpt lat="45.13278" lon="6.12193">
        <ele>2933.6</ele>
        <time>2021-03-10T09:54:23Z</time>
      </trkpt>
      <trkpt lat="45.13279" lon="6.12193">
        <ele>2933.6</ele>
        <time>2021-03-10T09:54:24Z</time>
      </trkpt>
      <trkpt lat="45.1328" lon="6.12194">
        <ele>2933.6</ele>
        <time>2021-03-10T09:54:25Z</time>
      </trkpt>
      <trkpt lat="45.1328" lon="6.12194">
        <ele>2933.5</ele>
        <time>2021-03-10T09:54:26Z</time>
      </trkpt>
      <trkpt lat="45.13281" lon="6.12194">
        <ele>2933.5</ele>
        <time>2021-03-10T09:54:27Z</time>
      </trkpt>
      <trkpt lat="45.13282" lon="6.12194">
        <ele>2933.5</ele>
        <time>2021-03-10T09:54:28Z</time>
      </trkpt>
      <trkpt lat="45.13283" lon="6.12195">
        <ele>2933.5</ele>
        <time>2021-03-10T09:54:29Z</time>
      </trkpt>
      <trkpt lat="45.13284" lon="6.12195">
        <ele>2933.4</ele>
        <time>2021-03-10T09:54:30Z</time>
      </trkpt>
      <trkpt lat="45.13284" lon="6.12195">
        <ele>2933.4</ele>
        <time>2021-03-10T09:54:31Z</time>
      </trkpt>
      <trkpt lat="45.13285" lon="6.12196">
        <ele>2933.4</ele>
        <time>2021-03-10T09:54:32Z</time>
      </trkpt>
      <trkpt lat="45.13286" lon="6.12196">
        <ele>2933.4</ele>
        <time>2021-03-10T09:54:33Z</time>
      </trkpt>
      <trkpt lat="45.13286" lon="6.12196">
        <ele>2933.4</ele>
        <time>2021-03-10T09:54:34Z</time>
      </trkpt>
      <trkpt lat="45.13287" lon="6.12196">
        <ele>2933.4</ele>
        <time>2021-03-10T09:54:35Z</time>
      </trkpt>
      <trkpt lat="45.13288" lon="6.12196">
        <ele>2933.4</ele>
        <time>2021-03-10T09:54:36Z</time>
      </trkpt>
      <trkpt lat="45.13289" lon="6.12196">
        <ele>2934.2</ele>
        <time>2021-03-10T09:54:37Z</time>
      </trkpt>
      <trkpt lat="45.13289" lon="6.12196">
        <ele>2934.2</ele>
        <time>2021-03-10T09:54:38Z</time>
      </trkpt>
      <trkpt lat="45.1329" lon="6.12197">
        <ele>2934.2</ele>
        <time>2021-03-10T09:54:39Z</time>
      </trkpt>
      <trkpt lat="45.13291" lon="6.12197">
        <ele>2934.2</ele>
        <time>2021-03-10T09:54:40Z</time>
      </trkpt>
      <trkpt lat="45.13292" lon="6.12197">
        <ele>2934.2</ele>
        <time>2021-03-10T09:54:41Z</time>
      </trkpt>
      <trkpt lat="45.13292" lon="6.12197">
        <ele>2934.1</ele>
        <time>2021-03-10T09:54:42Z</time>
      </trkpt>
      <trkpt lat="45.13293" lon="6.12198">
        <ele>2934.1</ele>
        <time>2021-03-10T09:54:43Z</time>
      </trkpt>
      <trkpt lat="45.13294" lon="6.12198">
        <ele>2934.1</ele>
        <time>2021-03-10T09:54:44Z</time>
      </trkpt>
      <trkpt lat="45.13295" lon="6.12198">
        <ele>2934.1</ele>
        <time>2021-03-10T09:54:45Z</time>
      </trkpt>
      <trkpt lat="45.13296" lon="6.12199">
        <ele>2934.1</ele>
        <time>2021-03-10T09:54:46Z</time>
      </trkpt>
      <trkpt lat="45.13296" lon="6.12199">
        <ele>2934.1</ele>
        <time>2021-03-10T09:54:47Z</time>
      </trkpt>
      <trkpt lat="45.13297" lon="6.12199">
        <ele>2934.1</ele>
        <time>2021-03-10T09:54:48Z</time>
      </trkpt>
      <trkpt lat="45.13298" lon="6.12199">
        <ele>2934.1</ele>
        <time>2021-03-10T09:54:49Z</time>
      </trkpt>
      <trkpt lat="45.13299" lon="6.12199">
        <ele>2934</ele>
        <time>2021-03-10T09:54:50Z</time>
      </trkpt>
      <trkpt lat="45.133" lon="6.122">
        <ele>2934</ele>
        <time>2021-03-10T09:54:51Z</time>
      </trkpt>
      <trkpt lat="45.13301" lon="6.122">
        <ele>2934</ele>
        <time>2021-03-10T09:54:52Z</time>
      </trkpt>
      <trkpt lat="45.13302" lon="6.122">
        <ele>2934</ele>
        <time>2021-03-10T09:54:53Z</time>
      </trkpt>
      <trkpt lat="45.13302" lon="6.12201">
        <ele>2934.9</ele>
        <time>2021-03-10T09:54:54Z</time>
      </trkpt>
      <trkpt lat="45.13303" lon="6.12201">
        <ele>2934.9</ele>
        <time>2021-03-10T09:54:55Z</time>
      </trkpt>
      <trkpt lat="45.13304" lon="6.12201">
        <ele>2934.9</ele>
        <time>2021-03-10T09:54:56Z</time>
      </trkpt>
      <trkpt lat="45.13304" lon="6.12201">
        <ele>2934.9</ele>
        <time>2021-03-10T09:54:57Z</time>
      </trkpt>
      <trkpt lat="45.13305" lon="6.12202">
        <ele>2934.9</ele>
        <time>2021-03-10T09:54:58Z</time>
      </trkpt>
      <trkpt lat="45.13306" lon="6.12202">
        <ele>2934.9</ele>
        <time>2021-03-10T09:54:59Z</time>
      </trkpt>
      <trkpt lat="45.13306" lon="6.12202">
        <ele>2934.9</ele>
        <time>2021-03-10T09:55:00Z</time>
      </trkpt>
      <trkpt lat="45.13307" lon="6.12202">
        <ele>2934.9</ele>
        <time>2021-03-10T09:55:01Z</time>
      </trkpt>
      <trkpt lat="45.13307" lon="6.12203">
        <ele>2934.9</ele>
        <time>2021-03-10T09:55:02Z</time>
      </trkpt>
      <trkpt lat="45.13308" lon="6.12203">
        <ele>2934.9</ele>
        <time>2021-03-10T09:55:03Z</time>
      </trkpt>
      <trkpt lat="45.13309" lon="6.12203">
        <ele>2934.9</ele>
        <time>2021-03-10T09:55:04Z</time>
      </trkpt>
      <trkpt lat="45.13309" lon="6.12203">
        <ele>2934.9</ele>
        <time>2021-03-10T09:55:05Z</time>
      </trkpt>
      <trkpt lat="45.1331" lon="6.12203">
        <ele>2934.9</ele>
        <time>2021-03-10T09:55:06Z</time>
      </trkpt>
      <trkpt lat="45.1331" lon="6.12203">
        <ele>2934.9</ele>
        <time>2021-03-10T09:55:07Z</time>
      </trkpt>
      <trkpt lat="45.13311" lon="6.12203">
        <ele>2935</ele>
        <time>2021-03-10T09:55:08Z</time>
      </trkpt>
      <trkpt lat="45.13312" lon="6.12203">
        <ele>2935</ele>
        <time>2021-03-10T09:55:09Z</time>
      </trkpt>
      <trkpt lat="45.13313" lon="6.12203">
        <ele>2935</ele>
        <time>2021-03-10T09:55:10Z</time>
      </trkpt>
      <trkpt lat="45.13313" lon="6.12203">
        <ele>2935</ele>
        <time>2021-03-10T09:55:11Z</time>
      </trkpt>
      <trkpt lat="45.13314" lon="6.12203">
        <ele>2935</ele>
        <time>2021-03-10T09:55:12Z</time>
      </trkpt>
      <trkpt lat="45.13314" lon="6.12203">
        <ele>2935</ele>
        <time>2021-03-10T09:55:13Z</time>
      </trkpt>
      <trkpt lat="45.13314" lon="6.12202">
        <ele>2935</ele>
        <time>2021-03-10T09:55:14Z</time>
      </trkpt>
      <trkpt lat="45.13315" lon="6.12202">
        <ele>2935</ele>
        <time>2021-03-10T09:55:15Z</time>
      </trkpt>
      <trkpt lat="45.13315" lon="6.12202">
        <ele>2935</ele>
        <time>2021-03-10T09:55:16Z</time>
      </trkpt>
      <trkpt lat="45.13316" lon="6.12202">
        <ele>2935</ele>
        <time>2021-03-10T09:55:17Z</time>
      </trkpt>
      <trkpt lat="45.13316" lon="6.12201">
        <ele>2935</ele>
        <time>2021-03-10T09:55:18Z</time>
      </trkpt>
      <trkpt lat="45.13317" lon="6.12201">
        <ele>2935.1</ele>
        <time>2021-03-10T09:55:19Z</time>
      </trkpt>
      <trkpt lat="45.13318" lon="6.12201">
        <ele>2935.1</ele>
        <time>2021-03-10T09:55:20Z</time>
      </trkpt>
      <trkpt lat="45.13318" lon="6.12201">
        <ele>2935.1</ele>
        <time>2021-03-10T09:55:21Z</time>
      </trkpt>
      <trkpt lat="45.13319" lon="6.12201">
        <ele>2935.1</ele>
        <time>2021-03-10T09:55:22Z</time>
      </trkpt>
      <trkpt lat="45.1332" lon="6.12201">
        <ele>2935.1</ele>
        <time>2021-03-10T09:55:23Z</time>
      </trkpt>
      <trkpt lat="45.1332" lon="6.122">
        <ele>2935.1</ele>
        <time>2021-03-10T09:55:24Z</time>
      </trkpt>
      <trkpt lat="45.13321" lon="6.122">
        <ele>2935.1</ele>
        <time>2021-03-10T09:55:25Z</time>
      </trkpt>
      <trkpt lat="45.13322" lon="6.122">
        <ele>2934.1</ele>
        <time>2021-03-10T09:55:26Z</time>
      </trkpt>
      <trkpt lat="45.13323" lon="6.122">
        <ele>2934.2</ele>
        <time>2021-03-10T09:55:27Z</time>
      </trkpt>
      <trkpt lat="45.13323" lon="6.122">
        <ele>2934.2</ele>
        <time>2021-03-10T09:55:28Z</time>
      </trkpt>
      <trkpt lat="45.13323" lon="6.12199">
        <ele>2934.2</ele>
        <time>2021-03-10T09:55:29Z</time>
      </trkpt>
      <trkpt lat="45.13324" lon="6.12199">
        <ele>2934.2</ele>
        <time>2021-03-10T09:55:30Z</time>
      </trkpt>
      <trkpt lat="45.13325" lon="6.12199">
        <ele>2934.2</ele>
        <time>2021-03-10T09:55:31Z</time>
      </trkpt>
      <trkpt lat="45.13325" lon="6.12199">
        <ele>2934.2</ele>
        <time>2021-03-10T09:55:32Z</time>
      </trkpt>
      <trkpt lat="45.13326" lon="6.122">
        <ele>2934.2</ele>
        <time>2021-03-10T09:55:33Z</time>
      </trkpt>
      <trkpt lat="45.13327" lon="6.122">
        <ele>2934.2</ele>
        <time>2021-03-10T09:55:34Z</time>
      </trkpt>
      <trkpt lat="45.13327" lon="6.122">
        <ele>2934.2</ele>
        <time>2021-03-10T09:55:35Z</time>
      </trkpt>
      <trkpt lat="45.13328" lon="6.122">
        <ele>2935.2</ele>
        <time>2021-03-10T09:55:36Z</time>
      </trkpt>
      <trkpt lat="45.13329" lon="6.12201">
        <ele>2935.2</ele>
        <time>2021-03-10T09:55:37Z</time>
      </trkpt>
      <trkpt lat="45.13329" lon="6.12201">
        <ele>2935.2</ele>
        <time>2021-03-10T09:55:38Z</time>
      </trkpt>
      <trkpt lat="45.1333" lon="6.12201">
        <ele>2935.2</ele>
        <time>2021-03-10T09:55:39Z</time>
      </trkpt>
      <trkpt lat="45.13331" lon="6.12201">
        <ele>2935.2</ele>
        <time>2021-03-10T09:55:40Z</time>
      </trkpt>
      <trkpt lat="45.13331" lon="6.12201">
        <ele>2935.2</ele>
        <time>2021-03-10T09:55:41Z</time>
      </trkpt>
      <trkpt lat="45.13332" lon="6.12201">
        <ele>2935.3</ele>
        <time>2021-03-10T09:55:42Z</time>
      </trkpt>
      <trkpt lat="45.13332" lon="6.12201">
        <ele>2935.3</ele>
        <time>2021-03-10T09:55:43Z</time>
      </trkpt>
      <trkpt lat="45.13332" lon="6.12201">
        <ele>2935.3</ele>
        <time>2021-03-10T09:55:44Z</time>
      </trkpt>
      <trkpt lat="45.13333" lon="6.12201">
        <ele>2935.3</ele>
        <time>2021-03-10T09:55:45Z</time>
      </trkpt>
      <trkpt lat="45.1334" lon="6.122">
        <ele>2934.4</ele>
        <time>2021-03-10T09:55:54Z</time>
      </trkpt>
      <trkpt lat="45.1334" lon="6.12199">
        <ele>2934.4</ele>
        <time>2021-03-10T09:55:55Z</time>
      </trkpt>
      <trkpt lat="45.13341" lon="6.12199">
        <ele>2934.5</ele>
        <time>2021-03-10T09:55:56Z</time>
      </trkpt>
      <trkpt lat="45.13341" lon="6.12199">
        <ele>2934.5</ele>
        <time>2021-03-10T09:55:57Z</time>
      </trkpt>
      <trkpt lat="45.13342" lon="6.12199">
        <ele>2934.5</ele>
        <time>2021-03-10T09:55:58Z</time>
      </trkpt>
      <trkpt lat="45.13343" lon="6.12199">
        <ele>2934.5</ele>
        <time>2021-03-10T09:55:59Z</time>
      </trkpt>
      <trkpt lat="45.13343" lon="6.12199">
        <ele>2934.5</ele>
        <time>2021-03-10T09:56:00Z</time>
      </trkpt>
      <trkpt lat="45.13344" lon="6.12198">
        <ele>2934.6</ele>
        <time>2021-03-10T09:56:01Z</time>
      </trkpt>
      <trkpt lat="45.13344" lon="6.12198">
        <ele>2934.6</ele>
        <time>2021-03-10T09:56:02Z</time>
      </trkpt>
      <trkpt lat="45.13345" lon="6.12198">
        <ele>2934.6</ele>
        <time>2021-03-10T09:56:03Z</time>
      </trkpt>
      <trkpt lat="45.13346" lon="6.12198">
        <ele>2934.6</ele>
        <time>2021-03-10T09:56:04Z</time>
      </trkpt>
      <trkpt lat="45.13346" lon="6.12198">
        <ele>2934.6</ele>
        <time>2021-03-10T09:56:05Z</time>
      </trkpt>
      <trkpt lat="45.13347" lon="6.12199">
        <ele>2934.7</ele>
        <time>2021-03-10T09:56:06Z</time>
      </trkpt>
      <trkpt lat="45.13348" lon="6.12199">
        <ele>2934.7</ele>
        <time>2021-03-10T09:56:07Z</time>
      </trkpt>
      <trkpt lat="45.13348" lon="6.12199">
        <ele>2934.7</ele>
        <time>2021-03-10T09:56:08Z</time>
      </trkpt>
      <trkpt lat="45.13349" lon="6.12199">
        <ele>2934.7</ele>
        <time>2021-03-10T09:56:09Z</time>
      </trkpt>
      <trkpt lat="45.13349" lon="6.12199">
        <ele>2934.7</ele>
        <time>2021-03-10T09:56:10Z</time>
      </trkpt>
      <trkpt lat="45.1335" lon="6.122">
        <ele>2934.8</ele>
        <time>2021-03-10T09:56:11Z</time>
      </trkpt>
      <trkpt lat="45.13351" lon="6.122">
        <ele>2934.8</ele>
        <time>2021-03-10T09:56:12Z</time>
      </trkpt>
      <trkpt lat="45.13351" lon="6.122">
        <ele>2935.8</ele>
        <time>2021-03-10T09:56:13Z</time>
      </trkpt>
      <trkpt lat="45.13352" lon="6.12201">
        <ele>2935.8</ele>
        <time>2021-03-10T09:56:14Z</time>
      </trkpt>
      <trkpt lat="45.13353" lon="6.12201">
        <ele>2935.8</ele>
        <time>2021-03-10T09:56:15Z</time>
      </trkpt>
      <trkpt lat="45.13353" lon="6.12202">
        <ele>2936</ele>
        <time>2021-03-10T09:56:16Z</time>
      </trkpt>
      <trkpt lat="45.13354" lon="6.12202">
        <ele>2936</ele>
        <time>2021-03-10T09:56:17Z</time>
      </trkpt>
      <trkpt lat="45.13354" lon="6.12203">
        <ele>2936</ele>
        <time>2021-03-10T09:56:18Z</time>
      </trkpt>
      <trkpt lat="45.13355" lon="6.12203">
        <ele>2936</ele>
        <time>2021-03-10T09:56:19Z</time>
      </trkpt>
      <trkpt lat="45.13355" lon="6.12203">
        <ele>2936</ele>
        <time>2021-03-10T09:56:20Z</time>
      </trkpt>
      <trkpt lat="45.13356" lon="6.12203">
        <ele>2936.1</ele>
        <time>2021-03-10T09:56:21Z</time>
      </trkpt>
      <trkpt lat="45.13357" lon="6.12204">
        <ele>2936.1</ele>
        <time>2021-03-10T09:56:22Z</time>
      </trkpt>
      <trkpt lat="45.13357" lon="6.12204">
        <ele>2936.1</ele>
        <time>2021-03-10T09:56:23Z</time>
      </trkpt>
      <trkpt lat="45.13358" lon="6.12204">
        <ele>2936.1</ele>
        <time>2021-03-10T09:56:24Z</time>
      </trkpt>
      <trkpt lat="45.13359" lon="6.12204">
        <ele>2936.3</ele>
        <time>2021-03-10T09:56:25Z</time>
      </trkpt>
      <trkpt lat="45.13359" lon="6.12204">
        <ele>2936.3</ele>
        <time>2021-03-10T09:56:26Z</time>
      </trkpt>
      <trkpt lat="45.1336" lon="6.12204">
        <ele>2936.3</ele>
        <time>2021-03-10T09:56:27Z</time>
      </trkpt>
      <trkpt lat="45.1336" lon="6.12204">
        <ele>2936.3</ele>
        <time>2021-03-10T09:56:28Z</time>
      </trkpt>
      <trkpt lat="45.13361" lon="6.12204">
        <ele>2936.3</ele>
        <time>2021-03-10T09:56:29Z</time>
      </trkpt>
      <trkpt lat="45.13362" lon="6.12204">
        <ele>2936.3</ele>
        <time>2021-03-10T09:56:30Z</time>
      </trkpt>
      <trkpt lat="45.13362" lon="6.12204">
        <ele>2936.6</ele>
        <time>2021-03-10T09:56:31Z</time>
      </trkpt>
      <trkpt lat="45.13363" lon="6.12204">
        <ele>2936.6</ele>
        <time>2021-03-10T09:56:32Z</time>
      </trkpt>
      <trkpt lat="45.13363" lon="6.12205">
        <ele>2937.5</ele>
        <time>2021-03-10T09:56:33Z</time>
      </trkpt>
      <trkpt lat="45.13364" lon="6.12205">
        <ele>2937.5</ele>
        <time>2021-03-10T09:56:34Z</time>
      </trkpt>
      <trkpt lat="45.13365" lon="6.12206">
        <ele>2937.8</ele>
        <time>2021-03-10T09:56:35Z</time>
      </trkpt>
      <trkpt lat="45.13366" lon="6.12206">
        <ele>2937.8</ele>
        <time>2021-03-10T09:56:36Z</time>
      </trkpt>
      <trkpt lat="45.13367" lon="6.12206">
        <ele>2937.8</ele>
        <time>2021-03-10T09:56:37Z</time>
      </trkpt>
      <trkpt lat="45.13368" lon="6.12207">
        <ele>2937.8</ele>
        <time>2021-03-10T09:56:38Z</time>
      </trkpt>
      <trkpt lat="45.13368" lon="6.12207">
        <ele>2938</ele>
        <time>2021-03-10T09:56:39Z</time>
      </trkpt>
      <trkpt lat="45.13369" lon="6.12207">
        <ele>2938</ele>
        <time>2021-03-10T09:56:40Z</time>
      </trkpt>
      <trkpt lat="45.1337" lon="6.12208">
        <ele>2938</ele>
        <time>2021-03-10T09:56:41Z</time>
      </trkpt>
      <trkpt lat="45.1337" lon="6.12208">
        <ele>2938</ele>
        <time>2021-03-10T09:56:42Z</time>
      </trkpt>
      <trkpt lat="45.13371" lon="6.12209">
        <ele>2938.1</ele>
        <time>2021-03-10T09:56:43Z</time>
      </trkpt>
      <trkpt lat="45.13372" lon="6.1221">
        <ele>2939.1</ele>
        <time>2021-03-10T09:56:44Z</time>
      </trkpt>
      <trkpt lat="45.13373" lon="6.1221">
        <ele>2939.1</ele>
        <time>2021-03-10T09:56:45Z</time>
      </trkpt>
      <trkpt lat="45.13373" lon="6.12211">
        <ele>2939.1</ele>
        <time>2021-03-10T09:56:46Z</time>
      </trkpt>
      <trkpt lat="45.13374" lon="6.12211">
        <ele>2939.3</ele>
        <time>2021-03-10T09:56:47Z</time>
      </trkpt>
      <trkpt lat="45.13375" lon="6.12212">
        <ele>2939.3</ele>
        <time>2021-03-10T09:56:48Z</time>
      </trkpt>
      <trkpt lat="45.13375" lon="6.12212">
        <ele>2939.3</ele>
        <time>2021-03-10T09:56:49Z</time>
      </trkpt>
      <trkpt lat="45.13376" lon="6.12212">
        <ele>2939.3</ele>
        <time>2021-03-10T09:56:50Z</time>
      </trkpt>
      <trkpt lat="45.13377" lon="6.12213">
        <ele>2939.3</ele>
        <time>2021-03-10T09:56:51Z</time>
      </trkpt>
      <trkpt lat="45.13377" lon="6.12214">
        <ele>2940.4</ele>
        <time>2021-03-10T09:56:52Z</time>
      </trkpt>
      <trkpt lat="45.13378" lon="6.12214">
        <ele>2940.4</ele>
        <time>2021-03-10T09:56:53Z</time>
      </trkpt>
      <trkpt lat="45.13379" lon="6.12215">
        <ele>2940.4</ele>
        <time>2021-03-10T09:56:54Z</time>
      </trkpt>
      <trkpt lat="45.13379" lon="6.12215">
        <ele>2940.4</ele>
        <time>2021-03-10T09:56:55Z</time>
      </trkpt>
      <trkpt lat="45.1338" lon="6.12216">
        <ele>2940.4</ele>
        <time>2021-03-10T09:56:56Z</time>
      </trkpt>
      <trkpt lat="45.1338" lon="6.12216">
        <ele>2940.6</ele>
        <time>2021-03-10T09:56:57Z</time>
      </trkpt>
      <trkpt lat="45.13381" lon="6.12217">
        <ele>2940.6</ele>
        <time>2021-03-10T09:56:58Z</time>
      </trkpt>
      <trkpt lat="45.13382" lon="6.12217">
        <ele>2940.6</ele>
        <time>2021-03-10T09:56:59Z</time>
      </trkpt>
      <trkpt lat="45.13382" lon="6.12218">
        <ele>2941.6</ele>
        <time>2021-03-10T09:57:00Z</time>
      </trkpt>
      <trkpt lat="45.13383" lon="6.12218">
        <ele>2941.6</ele>
        <time>2021-03-10T09:57:01Z</time>
      </trkpt>
      <trkpt lat="45.13383" lon="6.12219">
        <ele>2941.8</ele>
        <time>2021-03-10T09:57:02Z</time>
      </trkpt>
      <trkpt lat="45.13384" lon="6.12219">
        <ele>2941.8</ele>
        <time>2021-03-10T09:57:03Z</time>
      </trkpt>
      <trkpt lat="45.13385" lon="6.12219">
        <ele>2941.8</ele>
        <time>2021-03-10T09:57:04Z</time>
      </trkpt>
      <trkpt lat="45.13386" lon="6.1222">
        <ele>2941.8</ele>
        <time>2021-03-10T09:57:05Z</time>
      </trkpt>
      <trkpt lat="45.13386" lon="6.1222">
        <ele>2942.1</ele>
        <time>2021-03-10T09:57:06Z</time>
      </trkpt>
      <trkpt lat="45.13387" lon="6.1222">
        <ele>2942.1</ele>
        <time>2021-03-10T09:57:07Z</time>
      </trkpt>
      <trkpt lat="45.13387" lon="6.12221">
        <ele>2942.1</ele>
        <time>2021-03-10T09:57:08Z</time>
      </trkpt>
      <trkpt lat="45.13388" lon="6.12221">
        <ele>2942.1</ele>
        <time>2021-03-10T09:57:09Z</time>
      </trkpt>
      <trkpt lat="45.13389" lon="6.12221">
        <ele>2942.1</ele>
        <time>2021-03-10T09:57:10Z</time>
      </trkpt>
      <trkpt lat="45.13389" lon="6.12222">
        <ele>2942.5</ele>
        <time>2021-03-10T09:57:11Z</time>
      </trkpt>
      <trkpt lat="45.1339" lon="6.12222">
        <ele>2943.5</ele>
        <time>2021-03-10T09:57:12Z</time>
      </trkpt>
      <trkpt lat="45.13391" lon="6.12222">
        <ele>2943.5</ele>
        <time>2021-03-10T09:57:13Z</time>
      </trkpt>
      <trkpt lat="45.13391" lon="6.12222">
        <ele>2943.5</ele>
        <time>2021-03-10T09:57:14Z</time>
      </trkpt>
      <trkpt lat="45.13392" lon="6.12223">
        <ele>2943.5</ele>
        <time>2021-03-10T09:57:15Z</time>
      </trkpt>
      <trkpt lat="45.13392" lon="6.12223">
        <ele>2943.9</ele>
        <time>2021-03-10T09:57:16Z</time>
      </trkpt>
      <trkpt lat="45.13393" lon="6.12223">
        <ele>2943.9</ele>
        <time>2021-03-10T09:57:17Z</time>
      </trkpt>
      <trkpt lat="45.13394" lon="6.12223">
        <ele>2943.9</ele>
        <time>2021-03-10T09:57:18Z</time>
      </trkpt>
      <trkpt lat="45.13394" lon="6.12223">
        <ele>2943.9</ele>
        <time>2021-03-10T09:57:19Z</time>
      </trkpt>
      <trkpt lat="45.13395" lon="6.12223">
        <ele>2943.9</ele>
        <time>2021-03-10T09:57:20Z</time>
      </trkpt>
      <trkpt lat="45.13395" lon="6.12223">
        <ele>2944.3</ele>
        <time>2021-03-10T09:57:21Z</time>
      </trkpt>
      <trkpt lat="45.13396" lon="6.12223">
        <ele>2944.3</ele>
        <time>2021-03-10T09:57:22Z</time>
      </trkpt>
      <trkpt lat="45.13396" lon="6.12224">
        <ele>2944.3</ele>
        <time>2021-03-10T09:57:23Z</time>
      </trkpt>
      <trkpt lat="45.13397" lon="6.12224">
        <ele>2944.3</ele>
        <time>2021-03-10T09:57:24Z</time>
      </trkpt>
      <trkpt lat="45.13398" lon="6.12224">
        <ele>2944.3</ele>
        <time>2021-03-10T09:57:25Z</time>
      </trkpt>
      <trkpt lat="45.13398" lon="6.12224">
        <ele>2944.7</ele>
        <time>2021-03-10T09:57:26Z</time>
      </trkpt>
      <trkpt lat="45.13399" lon="6.12224">
        <ele>2944.7</ele>
        <time>2021-03-10T09:57:27Z</time>
      </trkpt>
      <trkpt lat="45.13399" lon="6.12225">
        <ele>2944.7</ele>
        <time>2021-03-10T09:57:28Z</time>
      </trkpt>
      <trkpt lat="45.134" lon="6.12226">
        <ele>2944.7</ele>
        <time>2021-03-10T09:57:29Z</time>
      </trkpt>
      <trkpt lat="45.13401" lon="6.12226">
        <ele>2945.8</ele>
        <time>2021-03-10T09:57:30Z</time>
      </trkpt>
      <trkpt lat="45.13401" lon="6.12227">
        <ele>2946.2</ele>
        <time>2021-03-10T09:57:31Z</time>
      </trkpt>
      <trkpt lat="45.13402" lon="6.12227">
        <ele>2946.2</ele>
        <time>2021-03-10T09:57:32Z</time>
      </trkpt>
      <trkpt lat="45.13403" lon="6.12227">
        <ele>2946.2</ele>
        <time>2021-03-10T09:57:33Z</time>
      </trkpt>
      <trkpt lat="45.13404" lon="6.12228">
        <ele>2946.2</ele>
        <time>2021-03-10T09:57:34Z</time>
      </trkpt>
      <trkpt lat="45.13405" lon="6.12228">
        <ele>2946.6</ele>
        <time>2021-03-10T09:57:35Z</time>
      </trkpt>
      <trkpt lat="45.13405" lon="6.12228">
        <ele>2946.6</ele>
        <time>2021-03-10T09:57:36Z</time>
      </trkpt>
      <trkpt lat="45.13406" lon="6.12229">
        <ele>2946.6</ele>
        <time>2021-03-10T09:57:37Z</time>
      </trkpt>
      <trkpt lat="45.13406" lon="6.12229">
        <ele>2946.6</ele>
        <time>2021-03-10T09:57:38Z</time>
      </trkpt>
      <trkpt lat="45.13407" lon="6.12229">
        <ele>2946.6</ele>
        <time>2021-03-10T09:57:39Z</time>
      </trkpt>
      <trkpt lat="45.13408" lon="6.12229">
        <ele>2947.1</ele>
        <time>2021-03-10T09:57:40Z</time>
      </trkpt>
      <trkpt lat="45.13408" lon="6.12229">
        <ele>2947.1</ele>
        <time>2021-03-10T09:57:41Z</time>
      </trkpt>
      <trkpt lat="45.13409" lon="6.12229">
        <ele>2947.1</ele>
        <time>2021-03-10T09:57:42Z</time>
      </trkpt>
      <trkpt lat="45.1341" lon="6.12228">
        <ele>2947.1</ele>
        <time>2021-03-10T09:57:43Z</time>
      </trkpt>
      <trkpt lat="45.13411" lon="6.12229">
        <ele>2947.6</ele>
        <time>2021-03-10T09:57:44Z</time>
      </trkpt>
      <trkpt lat="45.13411" lon="6.12229">
        <ele>2947.6</ele>
        <time>2021-03-10T09:57:45Z</time>
      </trkpt>
      <trkpt lat="45.13412" lon="6.12229">
        <ele>2947.6</ele>
        <time>2021-03-10T09:57:46Z</time>
      </trkpt>
      <trkpt lat="45.13413" lon="6.12229">
        <ele>2947.6</ele>
        <time>2021-03-10T09:57:47Z</time>
      </trkpt>
      <trkpt lat="45.13413" lon="6.12229">
        <ele>2947.6</ele>
        <time>2021-03-10T09:57:48Z</time>
      </trkpt>
      <trkpt lat="45.13414" lon="6.12229">
        <ele>2948.1</ele>
        <time>2021-03-10T09:57:49Z</time>
      </trkpt>
      <trkpt lat="45.13415" lon="6.12229">
        <ele>2948.1</ele>
        <time>2021-03-10T09:57:50Z</time>
      </trkpt>
      <trkpt lat="45.13415" lon="6.12229">
        <ele>2948.1</ele>
        <time>2021-03-10T09:57:51Z</time>
      </trkpt>
      <trkpt lat="45.13416" lon="6.12229">
        <ele>2948.1</ele>
        <time>2021-03-10T09:57:52Z</time>
      </trkpt>
      <trkpt lat="45.13416" lon="6.12229">
        <ele>2948.1</ele>
        <time>2021-03-10T09:57:53Z</time>
      </trkpt>
      <trkpt lat="45.13416" lon="6.12229">
        <ele>2948.6</ele>
        <time>2021-03-10T09:57:54Z</time>
      </trkpt>
      <trkpt lat="45.13417" lon="6.12229">
        <ele>2948.6</ele>
        <time>2021-03-10T09:57:55Z</time>
      </trkpt>
      <trkpt lat="45.13417" lon="6.12229">
        <ele>2948.6</ele>
        <time>2021-03-10T09:57:56Z</time>
      </trkpt>
      <trkpt lat="45.13417" lon="6.12229">
        <ele>2948.6</ele>
        <time>2021-03-10T09:57:57Z</time>
      </trkpt>
      <trkpt lat="45.13418" lon="6.12229">
        <ele>2948.6</ele>
        <time>2021-03-10T09:57:58Z</time>
      </trkpt>
      <trkpt lat="45.13418" lon="6.12229">
        <ele>2948.6</ele>
        <time>2021-03-10T09:57:59Z</time>
      </trkpt>
      <trkpt lat="45.13418" lon="6.12229">
        <ele>2948.6</ele>
        <time>2021-03-10T09:58:00Z</time>
      </trkpt>
      <trkpt lat="45.13419" lon="6.12229">
        <ele>2948.6</ele>
        <time>2021-03-10T09:58:01Z</time>
      </trkpt>
      <trkpt lat="45.13423" lon="6.1223">
        <ele>2949.7</ele>
        <time>2021-03-10T09:58:09Z</time>
      </trkpt>
      <trkpt lat="45.13424" lon="6.1223">
        <ele>2949.7</ele>
        <time>2021-03-10T09:58:10Z</time>
      </trkpt>
      <trkpt lat="45.13424" lon="6.1223">
        <ele>2949.7</ele>
        <time>2021-03-10T09:58:11Z</time>
      </trkpt>
      <trkpt lat="45.13425" lon="6.1223">
        <ele>2949.7</ele>
        <time>2021-03-10T09:58:12Z</time>
      </trkpt>
      <trkpt lat="45.13425" lon="6.1223">
        <ele>2950.3</ele>
        <time>2021-03-10T09:58:13Z</time>
      </trkpt>
      <trkpt lat="45.13426" lon="6.1223">
        <ele>2950.3</ele>
        <time>2021-03-10T09:58:14Z</time>
      </trkpt>
      <trkpt lat="45.13427" lon="6.12231">
        <ele>2951.2</ele>
        <time>2021-03-10T09:58:15Z</time>
      </trkpt>
      <trkpt lat="45.13428" lon="6.12231">
        <ele>2951.2</ele>
        <time>2021-03-10T09:58:16Z</time>
      </trkpt>
      <trkpt lat="45.13428" lon="6.12231">
        <ele>2951.2</ele>
        <time>2021-03-10T09:58:17Z</time>
      </trkpt>
      <trkpt lat="45.13429" lon="6.12231">
        <ele>2951.7</ele>
        <time>2021-03-10T09:58:18Z</time>
      </trkpt>
      <trkpt lat="45.1343" lon="6.12231">
        <ele>2951.7</ele>
        <time>2021-03-10T09:58:19Z</time>
      </trkpt>
      <trkpt lat="45.13431" lon="6.12231">
        <ele>2951.7</ele>
        <time>2021-03-10T09:58:20Z</time>
      </trkpt>
      <trkpt lat="45.13431" lon="6.12231">
        <ele>2951.7</ele>
        <time>2021-03-10T09:58:21Z</time>
      </trkpt>
      <trkpt lat="45.13432" lon="6.12231">
        <ele>2952.3</ele>
        <time>2021-03-10T09:58:22Z</time>
      </trkpt>
      <trkpt lat="45.13432" lon="6.12231">
        <ele>2952.3</ele>
        <time>2021-03-10T09:58:23Z</time>
      </trkpt>
      <trkpt lat="45.13433" lon="6.12231">
        <ele>2952.3</ele>
        <time>2021-03-10T09:58:24Z</time>
      </trkpt>
      <trkpt lat="45.13433" lon="6.12231">
        <ele>2952.3</ele>
        <time>2021-03-10T09:58:25Z</time>
      </trkpt>
      <trkpt lat="45.13434" lon="6.12231">
        <ele>2952.3</ele>
        <time>2021-03-10T09:58:26Z</time>
      </trkpt>
      <trkpt lat="45.13434" lon="6.12231">
        <ele>2952.3</ele>
        <time>2021-03-10T09:58:27Z</time>
      </trkpt>
      <trkpt lat="45.13435" lon="6.12231">
        <ele>2952.8</ele>
        <time>2021-03-10T09:58:28Z</time>
      </trkpt>
      <trkpt lat="45.13435" lon="6.12231">
        <ele>2952.8</ele>
        <time>2021-03-10T09:58:29Z</time>
      </trkpt>
      <trkpt lat="45.13436" lon="6.12231">
        <ele>2952.8</ele>
        <time>2021-03-10T09:58:30Z</time>
      </trkpt>
      <trkpt lat="45.13436" lon="6.12231">
        <ele>2952.8</ele>
        <time>2021-03-10T09:58:31Z</time>
      </trkpt>
      <trkpt lat="45.13437" lon="6.12231">
        <ele>2952.8</ele>
        <time>2021-03-10T09:58:34Z</time>
      </trkpt>
      <trkpt lat="45.13438" lon="6.12231">
        <ele>2953.3</ele>
        <time>2021-03-10T09:58:35Z</time>
      </trkpt>
      <trkpt lat="45.13438" lon="6.12231">
        <ele>2953.3</ele>
        <time>2021-03-10T09:58:36Z</time>
      </trkpt>
      <trkpt lat="45.13439" lon="6.12231">
        <ele>2953.3</ele>
        <time>2021-03-10T09:58:37Z</time>
      </trkpt>
      <trkpt lat="45.1344" lon="6.12231">
        <ele>2953.3</ele>
        <time>2021-03-10T09:58:38Z</time>
      </trkpt>
      <trkpt lat="45.1344" lon="6.12231">
        <ele>2953.3</ele>
        <time>2021-03-10T09:58:39Z</time>
      </trkpt>
      <trkpt lat="45.13441" lon="6.12231">
        <ele>2953.8</ele>
        <time>2021-03-10T09:58:40Z</time>
      </trkpt>
      <trkpt lat="45.13441" lon="6.12232">
        <ele>2953.8</ele>
        <time>2021-03-10T09:58:41Z</time>
      </trkpt>
      <trkpt lat="45.13442" lon="6.12232">
        <ele>2953.8</ele>
        <time>2021-03-10T09:58:42Z</time>
      </trkpt>
      <trkpt lat="45.13443" lon="6.12232">
        <ele>2953.8</ele>
        <time>2021-03-10T09:58:43Z</time>
      </trkpt>
      <trkpt lat="45.13443" lon="6.12232">
        <ele>2953.8</ele>
        <time>2021-03-10T09:58:44Z</time>
      </trkpt>
      <trkpt lat="45.13444" lon="6.12232">
        <ele>2954.4</ele>
        <time>2021-03-10T09:58:45Z</time>
      </trkpt>
      <trkpt lat="45.13445" lon="6.12232">
        <ele>2954.4</ele>
        <time>2021-03-10T09:58:46Z</time>
      </trkpt>
      <trkpt lat="45.13445" lon="6.12233">
        <ele>2954.4</ele>
        <time>2021-03-10T09:58:47Z</time>
      </trkpt>
      <trkpt lat="45.13446" lon="6.12233">
        <ele>2954.4</ele>
        <time>2021-03-10T09:58:48Z</time>
      </trkpt>
      <trkpt lat="45.1345" lon="6.12234">
        <ele>2954.9</ele>
        <time>2021-03-10T09:58:54Z</time>
      </trkpt>
      <trkpt lat="45.1345" lon="6.12234">
        <ele>2955.5</ele>
        <time>2021-03-10T09:58:55Z</time>
      </trkpt>
      <trkpt lat="45.13451" lon="6.12234">
        <ele>2955.5</ele>
        <time>2021-03-10T09:58:56Z</time>
      </trkpt>
      <trkpt lat="45.13451" lon="6.12235">
        <ele>2956.5</ele>
        <time>2021-03-10T09:58:57Z</time>
      </trkpt>
      <trkpt lat="45.13452" lon="6.12235">
        <ele>2956.5</ele>
        <time>2021-03-10T09:58:58Z</time>
      </trkpt>
      <trkpt lat="45.13452" lon="6.12235">
        <ele>2956.5</ele>
        <time>2021-03-10T09:58:59Z</time>
      </trkpt>
      <trkpt lat="45.13453" lon="6.12235">
        <ele>2957</ele>
        <time>2021-03-10T09:59:00Z</time>
      </trkpt>
      <trkpt lat="45.13453" lon="6.12235">
        <ele>2957</ele>
        <time>2021-03-10T09:59:01Z</time>
      </trkpt>
      <trkpt lat="45.13454" lon="6.12235">
        <ele>2957</ele>
        <time>2021-03-10T09:59:02Z</time>
      </trkpt>
      <trkpt lat="45.13454" lon="6.12236">
        <ele>2957</ele>
        <time>2021-03-10T09:59:03Z</time>
      </trkpt>
      <trkpt lat="45.13454" lon="6.12236">
        <ele>2957</ele>
        <time>2021-03-10T09:59:04Z</time>
      </trkpt>
      <trkpt lat="45.13455" lon="6.12236">
        <ele>2957</ele>
        <time>2021-03-10T09:59:05Z</time>
      </trkpt>
      <trkpt lat="45.13455" lon="6.12236">
        <ele>2957</ele>
        <time>2021-03-10T09:59:06Z</time>
      </trkpt>
      <trkpt lat="45.13456" lon="6.12237">
        <ele>2957.4</ele>
        <time>2021-03-10T09:59:07Z</time>
      </trkpt>
      <trkpt lat="45.13456" lon="6.12237">
        <ele>2957.4</ele>
        <time>2021-03-10T09:59:08Z</time>
      </trkpt>
      <trkpt lat="45.13457" lon="6.12237">
        <ele>2957.4</ele>
        <time>2021-03-10T09:59:09Z</time>
      </trkpt>
      <trkpt lat="45.13457" lon="6.12237">
        <ele>2957.4</ele>
        <time>2021-03-10T09:59:10Z</time>
      </trkpt>
      <trkpt lat="45.13458" lon="6.12237">
        <ele>2957.4</ele>
        <time>2021-03-10T09:59:11Z</time>
      </trkpt>
      <trkpt lat="45.13459" lon="6.12237">
        <ele>2957.4</ele>
        <time>2021-03-10T09:59:12Z</time>
      </trkpt>
      <trkpt lat="45.13459" lon="6.12237">
        <ele>2957.8</ele>
        <time>2021-03-10T09:59:13Z</time>
      </trkpt>
      <trkpt lat="45.13459" lon="6.12237">
        <ele>2957.8</ele>
        <time>2021-03-10T09:59:14Z</time>
      </trkpt>
      <trkpt lat="45.1346" lon="6.12237">
        <ele>2957.8</ele>
        <time>2021-03-10T09:59:15Z</time>
      </trkpt>
      <trkpt lat="45.1346" lon="6.12237">
        <ele>2957.8</ele>
        <time>2021-03-10T09:59:16Z</time>
      </trkpt>
      <trkpt lat="45.1346" lon="6.12238">
        <ele>2957.8</ele>
        <time>2021-03-10T09:59:17Z</time>
      </trkpt>
      <trkpt lat="45.13461" lon="6.12238">
        <ele>2957.8</ele>
        <time>2021-03-10T09:59:18Z</time>
      </trkpt>
      <trkpt lat="45.13461" lon="6.12238">
        <ele>2957.8</ele>
        <time>2021-03-10T09:59:19Z</time>
      </trkpt>
      <trkpt lat="45.13462" lon="6.12238">
        <ele>2958.2</ele>
        <time>2021-03-10T09:59:20Z</time>
      </trkpt>
      <trkpt lat="45.13462" lon="6.12238">
        <ele>2958.2</ele>
        <time>2021-03-10T09:59:21Z</time>
      </trkpt>
      <trkpt lat="45.13464" lon="6.12238">
        <ele>2958.2</ele>
        <time>2021-03-10T09:59:23Z</time>
      </trkpt>
      <trkpt lat="45.13465" lon="6.12238">
        <ele>2958.2</ele>
        <time>2021-03-10T09:59:24Z</time>
      </trkpt>
      <trkpt lat="45.13465" lon="6.12239">
        <ele>2958.6</ele>
        <time>2021-03-10T09:59:25Z</time>
      </trkpt>
      <trkpt lat="45.13466" lon="6.12239">
        <ele>2959.6</ele>
        <time>2021-03-10T09:59:26Z</time>
      </trkpt>
      <trkpt lat="45.13466" lon="6.12239">
        <ele>2959.6</ele>
        <time>2021-03-10T09:59:27Z</time>
      </trkpt>
      <trkpt lat="45.13467" lon="6.1224">
        <ele>2959.6</ele>
        <time>2021-03-10T09:59:28Z</time>
      </trkpt>
      <trkpt lat="45.13467" lon="6.1224">
        <ele>2959.6</ele>
        <time>2021-03-10T09:59:29Z</time>
      </trkpt>
      <trkpt lat="45.13468" lon="6.1224">
        <ele>2959.6</ele>
        <time>2021-03-10T09:59:30Z</time>
      </trkpt>
      <trkpt lat="45.13468" lon="6.12241">
        <ele>2959.9</ele>
        <time>2021-03-10T09:59:31Z</time>
      </trkpt>
      <trkpt lat="45.13469" lon="6.12241">
        <ele>2959.9</ele>
        <time>2021-03-10T09:59:32Z</time>
      </trkpt>
      <trkpt lat="45.13469" lon="6.12242">
        <ele>2959.9</ele>
        <time>2021-03-10T09:59:33Z</time>
      </trkpt>
      <trkpt lat="45.1347" lon="6.12242">
        <ele>2959.9</ele>
        <time>2021-03-10T09:59:34Z</time>
      </trkpt>
      <trkpt lat="45.13471" lon="6.12243">
        <ele>2959.9</ele>
        <time>2021-03-10T09:59:35Z</time>
      </trkpt>
      <trkpt lat="45.13475" lon="6.12245">
        <ele>2961.5</ele>
        <time>2021-03-10T09:59:41Z</time>
      </trkpt>
      <trkpt lat="45.13476" lon="6.12246">
        <ele>2961.5</ele>
        <time>2021-03-10T09:59:42Z</time>
      </trkpt>
      <trkpt lat="45.13476" lon="6.12246">
        <ele>2961.5</ele>
        <time>2021-03-10T09:59:43Z</time>
      </trkpt>
      <trkpt lat="45.13477" lon="6.12246">
        <ele>2961.7</ele>
        <time>2021-03-10T09:59:44Z</time>
      </trkpt>
      <trkpt lat="45.13478" lon="6.12246">
        <ele>2961.7</ele>
        <time>2021-03-10T09:59:45Z</time>
      </trkpt>
      <trkpt lat="45.13479" lon="6.12247">
        <ele>2961.7</ele>
        <time>2021-03-10T09:59:46Z</time>
      </trkpt>
      <trkpt lat="45.13479" lon="6.12248">
        <ele>2962.6</ele>
        <time>2021-03-10T09:59:47Z</time>
      </trkpt>
      <trkpt lat="45.13479" lon="6.12249">
        <ele>2962.6</ele>
        <time>2021-03-10T09:59:48Z</time>
      </trkpt>
      <trkpt lat="45.13479" lon="6.12249">
        <ele>2962.6</ele>
        <time>2021-03-10T09:59:49Z</time>
      </trkpt>
      <trkpt lat="45.13479" lon="6.1225">
        <ele>2962.6</ele>
        <time>2021-03-10T09:59:50Z</time>
      </trkpt>
      <trkpt lat="45.13479" lon="6.12251">
        <ele>2962.6</ele>
        <time>2021-03-10T09:59:51Z</time>
      </trkpt>
      <trkpt lat="45.13479" lon="6.12252">
        <ele>2963.5</ele>
        <time>2021-03-10T09:59:52Z</time>
      </trkpt>
      <trkpt lat="45.13479" lon="6.12253">
        <ele>2963.5</ele>
        <time>2021-03-10T09:59:53Z</time>
      </trkpt>
      <trkpt lat="45.13479" lon="6.12253">
        <ele>2963.5</ele>
        <time>2021-03-10T09:59:54Z</time>
      </trkpt>
      <trkpt lat="45.13479" lon="6.12254">
        <ele>2963.5</ele>
        <time>2021-03-10T09:59:55Z</time>
      </trkpt>
      <trkpt lat="45.13478" lon="6.12255">
        <ele>2963.5</ele>
        <time>2021-03-10T09:59:56Z</time>
      </trkpt>
      <trkpt lat="45.13478" lon="6.12256">
        <ele>2963.5</ele>
        <time>2021-03-10T09:59:57Z</time>
      </trkpt>
      <trkpt lat="45.13478" lon="6.12257">
        <ele>2964.3</ele>
        <time>2021-03-10T09:59:58Z</time>
      </trkpt>
      <trkpt lat="45.13478" lon="6.12258">
        <ele>2964.3</ele>
        <time>2021-03-10T09:59:59Z</time>
      </trkpt>
      <trkpt lat="45.13477" lon="6.12258">
        <ele>2964.3</ele>
        <time>2021-03-10T10:00:00Z</time>
      </trkpt>
      <trkpt lat="45.13477" lon="6.12259">
        <ele>2964.3</ele>
        <time>2021-03-10T10:00:01Z</time>
      </trkpt>
      <trkpt lat="45.13477" lon="6.1226">
        <ele>2964.2</ele>
        <time>2021-03-10T10:00:02Z</time>
      </trkpt>
      <trkpt lat="45.13476" lon="6.12261">
        <ele>2965</ele>
        <time>2021-03-10T10:00:03Z</time>
      </trkpt>
      <trkpt lat="45.13476" lon="6.12262">
        <ele>2965</ele>
        <time>2021-03-10T10:00:04Z</time>
      </trkpt>
      <trkpt lat="45.13476" lon="6.12262">
        <ele>2965</ele>
        <time>2021-03-10T10:00:05Z</time>
      </trkpt>
      <trkpt lat="45.13476" lon="6.12263">
        <ele>2965</ele>
        <time>2021-03-10T10:00:06Z</time>
      </trkpt>
      <trkpt lat="45.13476" lon="6.12264">
        <ele>2965</ele>
        <time>2021-03-10T10:00:07Z</time>
      </trkpt>
      <trkpt lat="45.13475" lon="6.12265">
        <ele>2965.9</ele>
        <time>2021-03-10T10:00:08Z</time>
      </trkpt>
      <trkpt lat="45.13475" lon="6.12266">
        <ele>2965.9</ele>
        <time>2021-03-10T10:00:09Z</time>
      </trkpt>
      <trkpt lat="45.13475" lon="6.12266">
        <ele>2965.9</ele>
        <time>2021-03-10T10:00:10Z</time>
      </trkpt>
      <trkpt lat="45.13474" lon="6.12267">
        <ele>2965.9</ele>
        <time>2021-03-10T10:00:11Z</time>
      </trkpt>
      <trkpt lat="45.13474" lon="6.12267">
        <ele>2965.9</ele>
        <time>2021-03-10T10:00:12Z</time>
      </trkpt>
      <trkpt lat="45.13474" lon="6.12268">
        <ele>2965.7</ele>
        <time>2021-03-10T10:00:13Z</time>
      </trkpt>
      <trkpt lat="45.13473" lon="6.12269">
        <ele>2965.7</ele>
        <time>2021-03-10T10:00:14Z</time>
      </trkpt>
      <trkpt lat="45.13473" lon="6.12269">
        <ele>2966.6</ele>
        <time>2021-03-10T10:00:15Z</time>
      </trkpt>
      <trkpt lat="45.13473" lon="6.1227">
        <ele>2966.6</ele>
        <time>2021-03-10T10:00:16Z</time>
      </trkpt>
      <trkpt lat="45.13472" lon="6.1227">
        <ele>2966.6</ele>
        <time>2021-03-10T10:00:17Z</time>
      </trkpt>
      <trkpt lat="45.13472" lon="6.12271">
        <ele>2966.6</ele>
        <time>2021-03-10T10:00:18Z</time>
      </trkpt>
      <trkpt lat="45.13472" lon="6.12271">
        <ele>2966.6</ele>
        <time>2021-03-10T10:00:19Z</time>
      </trkpt>
      <trkpt lat="45.13471" lon="6.12272">
        <ele>2966.6</ele>
        <time>2021-03-10T10:00:20Z</time>
      </trkpt>
      <trkpt lat="45.13471" lon="6.12273">
        <ele>2966.6</ele>
        <time>2021-03-10T10:00:21Z</time>
      </trkpt>
      <trkpt lat="45.13471" lon="6.12274">
        <ele>2967.5</ele>
        <time>2021-03-10T10:00:22Z</time>
      </trkpt>
      <trkpt lat="45.1347" lon="6.12274">
        <ele>2967.5</ele>
        <time>2021-03-10T10:00:23Z</time>
      </trkpt>
      <trkpt lat="45.1347" lon="6.12275">
        <ele>2967.5</ele>
        <time>2021-03-10T10:00:24Z</time>
      </trkpt>
      <trkpt lat="45.1347" lon="6.12275">
        <ele>2967.5</ele>
        <time>2021-03-10T10:00:25Z</time>
      </trkpt>
      <trkpt lat="45.13469" lon="6.12276">
        <ele>2967.5</ele>
        <time>2021-03-10T10:00:26Z</time>
      </trkpt>
      <trkpt lat="45.13469" lon="6.12276">
        <ele>2967.5</ele>
        <time>2021-03-10T10:00:27Z</time>
      </trkpt>
      <trkpt lat="45.13469" lon="6.12277">
        <ele>2967.5</ele>
        <time>2021-03-10T10:00:28Z</time>
      </trkpt>
      <trkpt lat="45.13468" lon="6.12277">
        <ele>2967.5</ele>
        <time>2021-03-10T10:00:29Z</time>
      </trkpt>
      <trkpt lat="45.13468" lon="6.12277">
        <ele>2967.5</ele>
        <time>2021-03-10T10:00:30Z</time>
      </trkpt>
      <trkpt lat="45.13468" lon="6.12278">
        <ele>2968.3</ele>
        <time>2021-03-10T10:00:31Z</time>
      </trkpt>
      <trkpt lat="45.13467" lon="6.12279">
        <ele>2968.3</ele>
        <time>2021-03-10T10:00:32Z</time>
      </trkpt>
      <trkpt lat="45.13467" lon="6.12279">
        <ele>2968.3</ele>
        <time>2021-03-10T10:00:33Z</time>
      </trkpt>
      <trkpt lat="45.13467" lon="6.1228">
        <ele>2968.3</ele>
        <time>2021-03-10T10:00:34Z</time>
      </trkpt>
      <trkpt lat="45.13466" lon="6.12281">
        <ele>2968.3</ele>
        <time>2021-03-10T10:00:35Z</time>
      </trkpt>
      <trkpt lat="45.13466" lon="6.12282">
        <ele>2968.3</ele>
        <time>2021-03-10T10:00:36Z</time>
      </trkpt>
      <trkpt lat="45.13466" lon="6.12282">
        <ele>2969.4</ele>
        <time>2021-03-10T10:00:37Z</time>
      </trkpt>
      <trkpt lat="45.13466" lon="6.12283">
        <ele>2969.4</ele>
        <time>2021-03-10T10:00:38Z</time>
      </trkpt>
      <trkpt lat="45.13466" lon="6.12284">
        <ele>2969.4</ele>
        <time>2021-03-10T10:00:39Z</time>
      </trkpt>
      <trkpt lat="45.13465" lon="6.12284">
        <ele>2969.4</ele>
        <time>2021-03-10T10:00:40Z</time>
      </trkpt>
      <trkpt lat="45.13465" lon="6.12285">
        <ele>2969.4</ele>
        <time>2021-03-10T10:00:41Z</time>
      </trkpt>
      <trkpt lat="45.13465" lon="6.12286">
        <ele>2969.4</ele>
        <time>2021-03-10T10:00:42Z</time>
      </trkpt>
      <trkpt lat="45.13465" lon="6.12286">
        <ele>2970.6</ele>
        <time>2021-03-10T10:00:43Z</time>
      </trkpt>
      <trkpt lat="45.13465" lon="6.12287">
        <ele>2970.4</ele>
        <time>2021-03-10T10:00:44Z</time>
      </trkpt>
      <trkpt lat="45.13464" lon="6.12288">
        <ele>2970.4</ele>
        <time>2021-03-10T10:00:45Z</time>
      </trkpt>
      <trkpt lat="45.13464" lon="6.12288">
        <ele>2970.4</ele>
        <time>2021-03-10T10:00:46Z</time>
      </trkpt>
      <trkpt lat="45.13464" lon="6.12289">
        <ele>2970.4</ele>
        <time>2021-03-10T10:00:47Z</time>
      </trkpt>
      <trkpt lat="45.13463" lon="6.1229">
        <ele>2970.4</ele>
        <time>2021-03-10T10:00:48Z</time>
      </trkpt>
      <trkpt lat="45.13463" lon="6.12291">
        <ele>2971.6</ele>
        <time>2021-03-10T10:00:49Z</time>
      </trkpt>
      <trkpt lat="45.13463" lon="6.12292">
        <ele>2971.6</ele>
        <time>2021-03-10T10:00:50Z</time>
      </trkpt>
      <trkpt lat="45.13463" lon="6.12292">
        <ele>2971.6</ele>
        <time>2021-03-10T10:00:51Z</time>
      </trkpt>
      <trkpt lat="45.13462" lon="6.12293">
        <ele>2971.6</ele>
        <time>2021-03-10T10:00:52Z</time>
      </trkpt>
      <trkpt lat="45.13462" lon="6.12294">
        <ele>2971.6</ele>
        <time>2021-03-10T10:00:53Z</time>
      </trkpt>
      <trkpt lat="45.13462" lon="6.12295">
        <ele>2972.6</ele>
        <time>2021-03-10T10:00:54Z</time>
      </trkpt>
      <trkpt lat="45.13461" lon="6.12296">
        <ele>2972.6</ele>
        <time>2021-03-10T10:00:55Z</time>
      </trkpt>
      <trkpt lat="45.13461" lon="6.12296">
        <ele>2972.6</ele>
        <time>2021-03-10T10:00:56Z</time>
      </trkpt>
      <trkpt lat="45.13461" lon="6.12297">
        <ele>2972.6</ele>
        <time>2021-03-10T10:00:57Z</time>
      </trkpt>
      <trkpt lat="45.1346" lon="6.12297">
        <ele>2972.6</ele>
        <time>2021-03-10T10:00:58Z</time>
      </trkpt>
      <trkpt lat="45.1346" lon="6.12298">
        <ele>2972.6</ele>
        <time>2021-03-10T10:00:59Z</time>
      </trkpt>
      <trkpt lat="45.1346" lon="6.12299">
        <ele>2972.6</ele>
        <time>2021-03-10T10:01:00Z</time>
      </trkpt>
      <trkpt lat="45.1346" lon="6.123">
        <ele>2973.8</ele>
        <time>2021-03-10T10:01:01Z</time>
      </trkpt>
      <trkpt lat="45.1346" lon="6.123">
        <ele>2973.8</ele>
        <time>2021-03-10T10:01:02Z</time>
      </trkpt>
      <trkpt lat="45.1346" lon="6.12301">
        <ele>2973.8</ele>
        <time>2021-03-10T10:01:03Z</time>
      </trkpt>
      <trkpt lat="45.1346" lon="6.12302">
        <ele>2973.8</ele>
        <time>2021-03-10T10:01:04Z</time>
      </trkpt>
      <trkpt lat="45.1346" lon="6.12303">
        <ele>2973.8</ele>
        <time>2021-03-10T10:01:05Z</time>
      </trkpt>
      <trkpt lat="45.1346" lon="6.12303">
        <ele>2975</ele>
        <time>2021-03-10T10:01:06Z</time>
      </trkpt>
      <trkpt lat="45.1346" lon="6.12304">
        <ele>2975</ele>
        <time>2021-03-10T10:01:07Z</time>
      </trkpt>
      <trkpt lat="45.1346" lon="6.12305">
        <ele>2975</ele>
        <time>2021-03-10T10:01:08Z</time>
      </trkpt>
      <trkpt lat="45.1346" lon="6.12305">
        <ele>2975</ele>
        <time>2021-03-10T10:01:09Z</time>
      </trkpt>
      <trkpt lat="45.13459" lon="6.12306">
        <ele>2975</ele>
        <time>2021-03-10T10:01:10Z</time>
      </trkpt>
      <trkpt lat="45.13459" lon="6.12307">
        <ele>2975</ele>
        <time>2021-03-10T10:01:11Z</time>
      </trkpt>
      <trkpt lat="45.13459" lon="6.12308">
        <ele>2976.2</ele>
        <time>2021-03-10T10:01:12Z</time>
      </trkpt>
      <trkpt lat="45.13459" lon="6.12309">
        <ele>2976.2</ele>
        <time>2021-03-10T10:01:13Z</time>
      </trkpt>
      <trkpt lat="45.13459" lon="6.1231">
        <ele>2976.2</ele>
        <time>2021-03-10T10:01:14Z</time>
      </trkpt>
      <trkpt lat="45.13459" lon="6.12311">
        <ele>2976.2</ele>
        <time>2021-03-10T10:01:15Z</time>
      </trkpt>
      <trkpt lat="45.13459" lon="6.12312">
        <ele>2976.2</ele>
        <time>2021-03-10T10:01:16Z</time>
      </trkpt>
      <trkpt lat="45.13459" lon="6.12312">
        <ele>2977.2</ele>
        <time>2021-03-10T10:01:17Z</time>
      </trkpt>
      <trkpt lat="45.13458" lon="6.12313">
        <ele>2977.2</ele>
        <time>2021-03-10T10:01:18Z</time>
      </trkpt>
      <trkpt lat="45.13458" lon="6.12314">
        <ele>2977.2</ele>
        <time>2021-03-10T10:01:19Z</time>
      </trkpt>
      <trkpt lat="45.13458" lon="6.12314">
        <ele>2977.2</ele>
        <time>2021-03-10T10:01:20Z</time>
      </trkpt>
      <trkpt lat="45.13457" lon="6.12315">
        <ele>2977.2</ele>
        <time>2021-03-10T10:01:21Z</time>
      </trkpt>
      <trkpt lat="45.13457" lon="6.12315">
        <ele>2977.2</ele>
        <time>2021-03-10T10:01:22Z</time>
      </trkpt>
      <trkpt lat="45.13457" lon="6.12316">
        <ele>2977.2</ele>
        <time>2021-03-10T10:01:23Z</time>
      </trkpt>
      <trkpt lat="45.13457" lon="6.12316">
        <ele>2978.4</ele>
        <time>2021-03-10T10:01:24Z</time>
      </trkpt>
      <trkpt lat="45.13456" lon="6.12317">
        <ele>2978.4</ele>
        <time>2021-03-10T10:01:25Z</time>
      </trkpt>
      <trkpt lat="45.13456" lon="6.12317">
        <ele>2978.4</ele>
        <time>2021-03-10T10:01:26Z</time>
      </trkpt>
      <trkpt lat="45.13455" lon="6.12318">
        <ele>2978.2</ele>
        <time>2021-03-10T10:01:27Z</time>
      </trkpt>
      <trkpt lat="45.13455" lon="6.12319">
        <ele>2978.2</ele>
        <time>2021-03-10T10:01:28Z</time>
      </trkpt>
      <trkpt lat="45.13455" lon="6.12319">
        <ele>2978.2</ele>
        <time>2021-03-10T10:01:29Z</time>
      </trkpt>
      <trkpt lat="45.13454" lon="6.1232">
        <ele>2978.2</ele>
        <time>2021-03-10T10:01:30Z</time>
      </trkpt>
      <trkpt lat="45.13454" lon="6.1232">
        <ele>2978.2</ele>
        <time>2021-03-10T10:01:31Z</time>
      </trkpt>
      <trkpt lat="45.13454" lon="6.1232">
        <ele>2978.2</ele>
        <time>2021-03-10T10:01:32Z</time>
      </trkpt>
      <trkpt lat="45.13454" lon="6.1232">
        <ele>2978.2</ele>
        <time>2021-03-10T10:01:33Z</time>
      </trkpt>
      <trkpt lat="45.13454" lon="6.1232">
        <ele>2978.2</ele>
        <time>2021-03-10T10:01:34Z</time>
      </trkpt>
      <trkpt lat="45.13453" lon="6.12321">
        <ele>2979.4</ele>
        <time>2021-03-10T10:01:35Z</time>
      </trkpt>
      <trkpt lat="45.13453" lon="6.12321">
        <ele>2979.4</ele>
        <time>2021-03-10T10:01:36Z</time>
      </trkpt>
      <trkpt lat="45.13453" lon="6.12321">
        <ele>2979.4</ele>
        <time>2021-03-10T10:01:37Z</time>
      </trkpt>
      <trkpt lat="45.13453" lon="6.12321">
        <ele>2979.4</ele>
        <time>2021-03-10T10:01:38Z</time>
      </trkpt>
      <trkpt lat="45.13452" lon="6.12321">
        <ele>2979.1</ele>
        <time>2021-03-10T10:01:39Z</time>
      </trkpt>
      <trkpt lat="45.13468" lon="6.12336">
        <ele>2984.2</ele>
        <time>2021-03-10T10:02:21Z</time>
      </trkpt>
      <trkpt lat="45.13468" lon="6.12336">
        <ele>2984.4</ele>
        <time>2021-03-10T10:02:22Z</time>
      </trkpt>
      <trkpt lat="45.13468" lon="6.12336">
        <ele>2984.4</ele>
        <time>2021-03-10T10:02:23Z</time>
      </trkpt>
      <trkpt lat="45.13468" lon="6.12336">
        <ele>2984.4</ele>
        <time>2021-03-10T10:02:24Z</time>
      </trkpt>
      <trkpt lat="45.13468" lon="6.12336">
        <ele>2984.4</ele>
        <time>2021-03-10T10:02:25Z</time>
      </trkpt>
      <trkpt lat="45.13468" lon="6.12336">
        <ele>2984.4</ele>
        <time>2021-03-10T10:02:26Z</time>
      </trkpt>
      <trkpt lat="45.13468" lon="6.12336">
        <ele>2984.4</ele>
        <time>2021-03-10T10:02:27Z</time>
      </trkpt>
      <trkpt lat="45.13468" lon="6.12336">
        <ele>2984.2</ele>
        <time>2021-03-10T10:02:28Z</time>
      </trkpt>
      <trkpt lat="45.13467" lon="6.12336">
        <ele>2984.2</ele>
        <time>2021-03-10T10:02:29Z</time>
      </trkpt>
      <trkpt lat="45.13467" lon="6.12337">
        <ele>2984.2</ele>
        <time>2021-03-10T10:02:30Z</time>
      </trkpt>
      <trkpt lat="45.13466" lon="6.12337">
        <ele>2984.2</ele>
        <time>2021-03-10T10:02:31Z</time>
      </trkpt>
      <trkpt lat="45.13466" lon="6.12338">
        <ele>2985.5</ele>
        <time>2021-03-10T10:02:32Z</time>
      </trkpt>
      <trkpt lat="45.13466" lon="6.12338">
        <ele>2985.5</ele>
        <time>2021-03-10T10:02:33Z</time>
      </trkpt>
      <trkpt lat="45.13466" lon="6.12339">
        <ele>2985.5</ele>
        <time>2021-03-10T10:02:34Z</time>
      </trkpt>
      <trkpt lat="45.13466" lon="6.1234">
        <ele>2985.5</ele>
        <time>2021-03-10T10:02:35Z</time>
      </trkpt>
      <trkpt lat="45.13466" lon="6.1234">
        <ele>2985.5</ele>
        <time>2021-03-10T10:02:36Z</time>
      </trkpt>
      <trkpt lat="45.13465" lon="6.1234">
        <ele>2985.5</ele>
        <time>2021-03-10T10:02:37Z</time>
      </trkpt>
      <trkpt lat="45.13465" lon="6.12341">
        <ele>2985.5</ele>
        <time>2021-03-10T10:02:38Z</time>
      </trkpt>
      <trkpt lat="45.13464" lon="6.12342">
        <ele>2985.3</ele>
        <time>2021-03-10T10:02:39Z</time>
      </trkpt>
      <trkpt lat="45.13464" lon="6.12343">
        <ele>2986.6</ele>
        <time>2021-03-10T10:02:40Z</time>
      </trkpt>
      <trkpt lat="45.13464" lon="6.12344">
        <ele>2986.6</ele>
        <time>2021-03-10T10:02:41Z</time>
      </trkpt>
      <trkpt lat="45.13484" lon="6.12365">
        <ele>2993.1</ele>
        <time>2021-03-10T10:03:27Z</time>
      </trkpt>
      <trkpt lat="45.13485" lon="6.12365">
        <ele>2993.1</ele>
        <time>2021-03-10T10:03:28Z</time>
      </trkpt>
      <trkpt lat="45.13486" lon="6.12366">
        <ele>2993.1</ele>
        <time>2021-03-10T10:03:29Z</time>
      </trkpt>
      <trkpt lat="45.13486" lon="6.12366">
        <ele>2993.1</ele>
        <time>2021-03-10T10:03:30Z</time>
      </trkpt>
      <trkpt lat="45.13486" lon="6.12366">
        <ele>2993.1</ele>
        <time>2021-03-10T10:03:31Z</time>
      </trkpt>
      <trkpt lat="45.13487" lon="6.12366">
        <ele>2993.1</ele>
        <time>2021-03-10T10:03:32Z</time>
      </trkpt>
      <trkpt lat="45.13487" lon="6.12367">
        <ele>2993.1</ele>
        <time>2021-03-10T10:03:33Z</time>
      </trkpt>
      <trkpt lat="45.13488" lon="6.12367">
        <ele>2993.1</ele>
        <time>2021-03-10T10:03:34Z</time>
      </trkpt>
      <trkpt lat="45.13489" lon="6.12368">
        <ele>2994.2</ele>
        <time>2021-03-10T10:03:35Z</time>
      </trkpt>
      <trkpt lat="45.13489" lon="6.12368">
        <ele>2994.2</ele>
        <time>2021-03-10T10:03:36Z</time>
      </trkpt>
      <trkpt lat="45.1349" lon="6.12369">
        <ele>2994.2</ele>
        <time>2021-03-10T10:03:37Z</time>
      </trkpt>
      <trkpt lat="45.1349" lon="6.1237">
        <ele>2994.2</ele>
        <time>2021-03-10T10:03:38Z</time>
      </trkpt>
      <trkpt lat="45.13491" lon="6.12371">
        <ele>2994.2</ele>
        <time>2021-03-10T10:03:39Z</time>
      </trkpt>
      <trkpt lat="45.13491" lon="6.12371">
        <ele>2994.2</ele>
        <time>2021-03-10T10:03:40Z</time>
      </trkpt>
      <trkpt lat="45.13492" lon="6.12372">
        <ele>2994.2</ele>
        <time>2021-03-10T10:03:41Z</time>
      </trkpt>
      <trkpt lat="45.13492" lon="6.12372">
        <ele>2995.2</ele>
        <time>2021-03-10T10:03:42Z</time>
      </trkpt>
      <trkpt lat="45.13493" lon="6.12372">
        <ele>2995.2</ele>
        <time>2021-03-10T10:03:43Z</time>
      </trkpt>
      <trkpt lat="45.13493" lon="6.12373">
        <ele>2995.2</ele>
        <time>2021-03-10T10:03:44Z</time>
      </trkpt>
      <trkpt lat="45.13494" lon="6.12373">
        <ele>2995.2</ele>
        <time>2021-03-10T10:03:45Z</time>
      </trkpt>
      <trkpt lat="45.13494" lon="6.12373">
        <ele>2995.2</ele>
        <time>2021-03-10T10:03:46Z</time>
      </trkpt>
      <trkpt lat="45.13495" lon="6.12374">
        <ele>2995.2</ele>
        <time>2021-03-10T10:03:47Z</time>
      </trkpt>
      <trkpt lat="45.13496" lon="6.12374">
        <ele>2995.1</ele>
        <time>2021-03-10T10:03:48Z</time>
      </trkpt>
      <trkpt lat="45.13496" lon="6.12375">
        <ele>2995.1</ele>
        <time>2021-03-10T10:03:49Z</time>
      </trkpt>
      <trkpt lat="45.13496" lon="6.12375">
        <ele>2995.1</ele>
        <time>2021-03-10T10:03:50Z</time>
      </trkpt>
      <trkpt lat="45.13497" lon="6.12376">
        <ele>2995.1</ele>
        <time>2021-03-10T10:03:51Z</time>
      </trkpt>
      <trkpt lat="45.13497" lon="6.12376">
        <ele>2995.1</ele>
        <time>2021-03-10T10:03:52Z</time>
      </trkpt>
      <trkpt lat="45.13498" lon="6.12376">
        <ele>2995.1</ele>
        <time>2021-03-10T10:03:53Z</time>
      </trkpt>
      <trkpt lat="45.13498" lon="6.12377">
        <ele>2996</ele>
        <time>2021-03-10T10:03:54Z</time>
      </trkpt>
      <trkpt lat="45.13499" lon="6.12377">
        <ele>2996</ele>
        <time>2021-03-10T10:03:55Z</time>
      </trkpt>
      <trkpt lat="45.135" lon="6.12377">
        <ele>2996</ele>
        <time>2021-03-10T10:03:56Z</time>
      </trkpt>
      <trkpt lat="45.135" lon="6.12378">
        <ele>2996</ele>
        <time>2021-03-10T10:03:57Z</time>
      </trkpt>
      <trkpt lat="45.13501" lon="6.12378">
        <ele>2996</ele>
        <time>2021-03-10T10:03:58Z</time>
      </trkpt>
      <trkpt lat="45.13502" lon="6.12378">
        <ele>2995.7</ele>
        <time>2021-03-10T10:03:59Z</time>
      </trkpt>
      <trkpt lat="45.13502" lon="6.12379">
        <ele>2995.7</ele>
        <time>2021-03-10T10:04:00Z</time>
      </trkpt>
      <trkpt lat="45.13503" lon="6.12379">
        <ele>2995.7</ele>
        <time>2021-03-10T10:04:01Z</time>
      </trkpt>
      <trkpt lat="45.13503" lon="6.1238">
        <ele>2995.7</ele>
        <time>2021-03-10T10:04:02Z</time>
      </trkpt>
      <trkpt lat="45.13504" lon="6.1238">
        <ele>2995.7</ele>
        <time>2021-03-10T10:04:03Z</time>
      </trkpt>
      <trkpt lat="45.13505" lon="6.1238">
        <ele>2995.4</ele>
        <time>2021-03-10T10:04:04Z</time>
      </trkpt>
      <trkpt lat="45.13505" lon="6.12381">
        <ele>2996.5</ele>
        <time>2021-03-10T10:04:05Z</time>
      </trkpt>
      <trkpt lat="45.13506" lon="6.12381">
        <ele>2996.5</ele>
        <time>2021-03-10T10:04:06Z</time>
      </trkpt>
      <trkpt lat="45.13506" lon="6.12382">
        <ele>2996.5</ele>
        <time>2021-03-10T10:04:07Z</time>
      </trkpt>
      <trkpt lat="45.13507" lon="6.12382">
        <ele>2996.5</ele>
        <time>2021-03-10T10:04:08Z</time>
      </trkpt>
      <trkpt lat="45.13507" lon="6.12382">
        <ele>2996.2</ele>
        <time>2021-03-10T10:04:09Z</time>
      </trkpt>
      <trkpt lat="45.13508" lon="6.12383">
        <ele>2996.2</ele>
        <time>2021-03-10T10:04:10Z</time>
      </trkpt>
      <trkpt lat="45.13508" lon="6.12383">
        <ele>2996.2</ele>
        <time>2021-03-10T10:04:11Z</time>
      </trkpt>
      <trkpt lat="45.13508" lon="6.12384">
        <ele>2996.2</ele>
        <time>2021-03-10T10:04:12Z</time>
      </trkpt>
      <trkpt lat="45.13508" lon="6.12384">
        <ele>2996.2</ele>
        <time>2021-03-10T10:04:13Z</time>
      </trkpt>
      <trkpt lat="45.13508" lon="6.12384">
        <ele>2996.2</ele>
        <time>2021-03-10T10:04:14Z</time>
      </trkpt>
      <trkpt lat="45.13508" lon="6.12384">
        <ele>2996.2</ele>
        <time>2021-03-10T10:04:15Z</time>
      </trkpt>
      <trkpt lat="45.13508" lon="6.12384">
        <ele>2996.2</ele>
        <time>2021-03-10T10:04:16Z</time>
      </trkpt>
      <trkpt lat="45.13508" lon="6.12385">
        <ele>2996.2</ele>
        <time>2021-03-10T10:04:17Z</time>
      </trkpt>
      <trkpt lat="45.13508" lon="6.12385">
        <ele>2997.3</ele>
        <time>2021-03-10T10:04:18Z</time>
      </trkpt>
      <trkpt lat="45.13509" lon="6.12386">
        <ele>2997.3</ele>
        <time>2021-03-10T10:04:19Z</time>
      </trkpt>
      <trkpt lat="45.13509" lon="6.12386">
        <ele>2997.3</ele>
        <time>2021-03-10T10:04:20Z</time>
      </trkpt>
      <trkpt lat="45.1351" lon="6.12386">
        <ele>2997.3</ele>
        <time>2021-03-10T10:04:21Z</time>
      </trkpt>
      <trkpt lat="45.1351" lon="6.12387">
        <ele>2996.9</ele>
        <time>2021-03-10T10:04:22Z</time>
      </trkpt>
      <trkpt lat="45.13511" lon="6.12387">
        <ele>2996.9</ele>
        <time>2021-03-10T10:04:23Z</time>
      </trkpt>
      <trkpt lat="45.13511" lon="6.12387">
        <ele>2996.9</ele>
        <time>2021-03-10T10:04:24Z</time>
      </trkpt>
      <trkpt lat="45.13512" lon="6.12387">
        <ele>2996.9</ele>
        <time>2021-03-10T10:04:25Z</time>
      </trkpt>
      <trkpt lat="45.13512" lon="6.12387">
        <ele>2996.9</ele>
        <time>2021-03-10T10:04:26Z</time>
      </trkpt>
      <trkpt lat="45.13513" lon="6.12388">
        <ele>2996.9</ele>
        <time>2021-03-10T10:04:27Z</time>
      </trkpt>
      <trkpt lat="45.13513" lon="6.12388">
        <ele>2996.9</ele>
        <time>2021-03-10T10:04:28Z</time>
      </trkpt>
      <trkpt lat="45.13514" lon="6.12388">
        <ele>2996.5</ele>
        <time>2021-03-10T10:04:29Z</time>
      </trkpt>
      <trkpt lat="45.13514" lon="6.12389">
        <ele>2996.5</ele>
        <time>2021-03-10T10:04:30Z</time>
      </trkpt>
      <trkpt lat="45.13515" lon="6.1239">
        <ele>2997.5</ele>
        <time>2021-03-10T10:04:31Z</time>
      </trkpt>
      <trkpt lat="45.13515" lon="6.1239">
        <ele>2997.5</ele>
        <time>2021-03-10T10:04:32Z</time>
      </trkpt>
      <trkpt lat="45.13515" lon="6.12391">
        <ele>2997.5</ele>
        <time>2021-03-10T10:04:33Z</time>
      </trkpt>
      <trkpt lat="45.13516" lon="6.12391">
        <ele>2997.5</ele>
        <time>2021-03-10T10:04:34Z</time>
      </trkpt>
      <trkpt lat="45.13516" lon="6.12392">
        <ele>2997.5</ele>
        <time>2021-03-10T10:04:35Z</time>
      </trkpt>
      <trkpt lat="45.13516" lon="6.12393">
        <ele>2997.5</ele>
        <time>2021-03-10T10:04:36Z</time>
      </trkpt>
      <trkpt lat="45.13517" lon="6.12393">
        <ele>2998</ele>
        <time>2021-03-10T10:04:37Z</time>
      </trkpt>
      <trkpt lat="45.13517" lon="6.12394">
        <ele>2998</ele>
        <time>2021-03-10T10:04:38Z</time>
      </trkpt>
      <trkpt lat="45.13517" lon="6.12395">
        <ele>2998</ele>
        <time>2021-03-10T10:04:39Z</time>
      </trkpt>
      <trkpt lat="45.13518" lon="6.12396">
        <ele>2998</ele>
        <time>2021-03-10T10:04:40Z</time>
      </trkpt>
      <trkpt lat="45.13518" lon="6.12396">
        <ele>2998</ele>
        <time>2021-03-10T10:04:41Z</time>
      </trkpt>
      <trkpt lat="45.13519" lon="6.12396">
        <ele>2998</ele>
        <time>2021-03-10T10:04:42Z</time>
      </trkpt>
      <trkpt lat="45.13519" lon="6.12397">
        <ele>2998</ele>
        <time>2021-03-10T10:04:43Z</time>
      </trkpt>
      <trkpt lat="45.13519" lon="6.12397">
        <ele>2997.6</ele>
        <time>2021-03-10T10:04:44Z</time>
      </trkpt>
      <trkpt lat="45.1352" lon="6.12398">
        <ele>2998.5</ele>
        <time>2021-03-10T10:04:45Z</time>
      </trkpt>
      <trkpt lat="45.1352" lon="6.12399">
        <ele>2998.5</ele>
        <time>2021-03-10T10:04:46Z</time>
      </trkpt>
      <trkpt lat="45.13521" lon="6.12399">
        <ele>2998.5</ele>
        <time>2021-03-10T10:04:47Z</time>
      </trkpt>
      <trkpt lat="45.13521" lon="6.124">
        <ele>2998.5</ele>
        <time>2021-03-10T10:04:48Z</time>
      </trkpt>
      <trkpt lat="45.13521" lon="6.12401">
        <ele>2998.5</ele>
        <time>2021-03-10T10:04:49Z</time>
      </trkpt>
      <trkpt lat="45.13522" lon="6.12401">
        <ele>2998.5</ele>
        <time>2021-03-10T10:04:50Z</time>
      </trkpt>
      <trkpt lat="45.13531" lon="6.12414">
        <ele>2999.4</ele>
        <time>2021-03-10T10:05:17Z</time>
      </trkpt>
      <trkpt lat="45.13531" lon="6.12414">
        <ele>2999.4</ele>
        <time>2021-03-10T10:05:18Z</time>
      </trkpt>
      <trkpt lat="45.13531" lon="6.12415">
        <ele>2999.7</ele>
        <time>2021-03-10T10:05:19Z</time>
      </trkpt>
      <trkpt lat="45.13532" lon="6.12416">
        <ele>2999.7</ele>
        <time>2021-03-10T10:05:20Z</time>
      </trkpt>
      <trkpt lat="45.13532" lon="6.12416">
        <ele>2999.7</ele>
        <time>2021-03-10T10:05:21Z</time>
      </trkpt>
      <trkpt lat="45.13533" lon="6.12416">
        <ele>2999.7</ele>
        <time>2021-03-10T10:05:22Z</time>
      </trkpt>
      <trkpt lat="45.13533" lon="6.12417">
        <ele>2999.7</ele>
        <time>2021-03-10T10:05:23Z</time>
      </trkpt>
      <trkpt lat="45.13533" lon="6.12417">
        <ele>2999.7</ele>
        <time>2021-03-10T10:05:24Z</time>
      </trkpt>
      <trkpt lat="45.13534" lon="6.12418">
        <ele>2999.7</ele>
        <time>2021-03-10T10:05:25Z</time>
      </trkpt>
      <trkpt lat="45.13534" lon="6.12418">
        <ele>2999.7</ele>
        <time>2021-03-10T10:05:26Z</time>
      </trkpt>
      <trkpt lat="45.13535" lon="6.12418">
        <ele>2999</ele>
        <time>2021-03-10T10:05:27Z</time>
      </trkpt>
      <trkpt lat="45.13535" lon="6.12419">
        <ele>2999</ele>
        <time>2021-03-10T10:05:28Z</time>
      </trkpt>
      <trkpt lat="45.13535" lon="6.1242">
        <ele>2999.9</ele>
        <time>2021-03-10T10:05:29Z</time>
      </trkpt>
      <trkpt lat="45.13536" lon="6.12421">
        <ele>2999.9</ele>
        <time>2021-03-10T10:05:30Z</time>
      </trkpt>
      <trkpt lat="45.13536" lon="6.12422">
        <ele>2999.9</ele>
        <time>2021-03-10T10:05:31Z</time>
      </trkpt>
      <trkpt lat="45.13536" lon="6.12422">
        <ele>2999.9</ele>
        <time>2021-03-10T10:05:32Z</time>
      </trkpt>
      <trkpt lat="45.13537" lon="6.12423">
        <ele>2999.9</ele>
        <time>2021-03-10T10:05:33Z</time>
      </trkpt>
      <trkpt lat="45.13537" lon="6.12424">
        <ele>3000.8</ele>
        <time>2021-03-10T10:05:34Z</time>
      </trkpt>
      <trkpt lat="45.13537" lon="6.12424">
        <ele>3000.8</ele>
        <time>2021-03-10T10:05:35Z</time>
      </trkpt>
      <trkpt lat="45.13538" lon="6.12425">
        <ele>3000.2</ele>
        <time>2021-03-10T10:05:36Z</time>
      </trkpt>
      <trkpt lat="45.13538" lon="6.12426">
        <ele>3000.2</ele>
        <time>2021-03-10T10:05:37Z</time>
      </trkpt>
      <trkpt lat="45.13538" lon="6.12426">
        <ele>3000.2</ele>
        <time>2021-03-10T10:05:38Z</time>
      </trkpt>
      <trkpt lat="45.13539" lon="6.12426">
        <ele>3000.2</ele>
        <time>2021-03-10T10:05:39Z</time>
      </trkpt>
      <trkpt lat="45.13539" lon="6.12426">
        <ele>3000.2</ele>
        <time>2021-03-10T10:05:40Z</time>
      </trkpt>
      <trkpt lat="45.1354" lon="6.12427">
        <ele>3000.2</ele>
        <time>2021-03-10T10:05:41Z</time>
      </trkpt>
      <trkpt lat="45.1354" lon="6.12427">
        <ele>3000.2</ele>
        <time>2021-03-10T10:05:42Z</time>
      </trkpt>
      <trkpt lat="45.1354" lon="6.12428">
        <ele>3001.1</ele>
        <time>2021-03-10T10:05:43Z</time>
      </trkpt>
      <trkpt lat="45.1354" lon="6.12429">
        <ele>3000.5</ele>
        <time>2021-03-10T10:05:44Z</time>
      </trkpt>
      <trkpt lat="45.13541" lon="6.12429">
        <ele>3000.5</ele>
        <time>2021-03-10T10:05:45Z</time>
      </trkpt>
      <trkpt lat="45.13541" lon="6.1243">
        <ele>3000.5</ele>
        <time>2021-03-10T10:05:46Z</time>
      </trkpt>
      <trkpt lat="45.13542" lon="6.12431">
        <ele>3000.5</ele>
        <time>2021-03-10T10:05:47Z</time>
      </trkpt>
      <trkpt lat="45.13542" lon="6.12431">
        <ele>3000.5</ele>
        <time>2021-03-10T10:05:48Z</time>
      </trkpt>
      <trkpt lat="45.13542" lon="6.12431">
        <ele>3000.5</ele>
        <time>2021-03-10T10:05:49Z</time>
      </trkpt>
      <trkpt lat="45.13542" lon="6.12432">
        <ele>3000.5</ele>
        <time>2021-03-10T10:05:50Z</time>
      </trkpt>
      <trkpt lat="45.13542" lon="6.12432">
        <ele>3000.5</ele>
        <time>2021-03-10T10:05:51Z</time>
      </trkpt>
      <trkpt lat="45.13542" lon="6.12432">
        <ele>3000.5</ele>
        <time>2021-03-10T10:05:52Z</time>
      </trkpt>
      <trkpt lat="45.13542" lon="6.12432">
        <ele>3000.5</ele>
        <time>2021-03-10T10:05:53Z</time>
      </trkpt>
      <trkpt lat="45.13542" lon="6.12431">
        <ele>3000.5</ele>
        <time>2021-03-10T10:05:54Z</time>
      </trkpt>
      <trkpt lat="45.13542" lon="6.12431">
        <ele>3000.5</ele>
        <time>2021-03-10T10:05:55Z</time>
      </trkpt>
      <trkpt lat="45.13542" lon="6.12431">
        <ele>3000.5</ele>
        <time>2021-03-10T10:05:56Z</time>
      </trkpt>
      <trkpt lat="45.13537" lon="6.12432">
        <ele>3001.7</ele>
        <time>2021-03-10T10:06:05Z</time>
      </trkpt>
      <trkpt lat="45.13536" lon="6.12431">
        <ele>3001.7</ele>
        <time>2021-03-10T10:06:06Z</time>
      </trkpt>
      <trkpt lat="45.13536" lon="6.12431">
        <ele>3001.7</ele>
        <time>2021-03-10T10:06:07Z</time>
      </trkpt>
      <trkpt lat="45.13535" lon="6.12431">
        <ele>3001.7</ele>
        <time>2021-03-10T10:06:08Z</time>
      </trkpt>
      <trkpt lat="45.13534" lon="6.12431">
        <ele>3002.3</ele>
        <time>2021-03-10T10:06:09Z</time>
      </trkpt>
      <trkpt lat="45.13533" lon="6.12431">
        <ele>3002.3</ele>
        <time>2021-03-10T10:06:10Z</time>
      </trkpt>
      <trkpt lat="45.13532" lon="6.12431">
        <ele>3002.3</ele>
        <time>2021-03-10T10:06:11Z</time>
      </trkpt>
      <trkpt lat="45.13532" lon="6.12431">
        <ele>3002.3</ele>
        <time>2021-03-10T10:06:12Z</time>
      </trkpt>
      <trkpt lat="45.13531" lon="6.12431">
        <ele>3003</ele>
        <time>2021-03-10T10:06:13Z</time>
      </trkpt>
      <trkpt lat="45.13531" lon="6.12431">
        <ele>3003</ele>
        <time>2021-03-10T10:06:14Z</time>
      </trkpt>
      <trkpt lat="45.1353" lon="6.1243">
        <ele>3003</ele>
        <time>2021-03-10T10:06:15Z</time>
      </trkpt>
      <trkpt lat="45.1353" lon="6.1243">
        <ele>3003</ele>
        <time>2021-03-10T10:06:16Z</time>
      </trkpt>
      <trkpt lat="45.13529" lon="6.1243">
        <ele>3003</ele>
        <time>2021-03-10T10:06:17Z</time>
      </trkpt>
      <trkpt lat="45.13528" lon="6.1243">
        <ele>3003</ele>
        <time>2021-03-10T10:06:18Z</time>
      </trkpt>
      <trkpt lat="45.13528" lon="6.1243">
        <ele>3003.6</ele>
        <time>2021-03-10T10:06:19Z</time>
      </trkpt>
      <trkpt lat="45.13527" lon="6.1243">
        <ele>3003.6</ele>
        <time>2021-03-10T10:06:20Z</time>
      </trkpt>
      <trkpt lat="45.13526" lon="6.12429">
        <ele>3003.6</ele>
        <time>2021-03-10T10:06:21Z</time>
      </trkpt>
      <trkpt lat="45.13526" lon="6.12429">
        <ele>3003.6</ele>
        <time>2021-03-10T10:06:22Z</time>
      </trkpt>
      <trkpt lat="45.13525" lon="6.12429">
        <ele>3004.2</ele>
        <time>2021-03-10T10:06:23Z</time>
      </trkpt>
      <trkpt lat="45.13524" lon="6.12429">
        <ele>3004.2</ele>
        <time>2021-03-10T10:06:24Z</time>
      </trkpt>
      <trkpt lat="45.13523" lon="6.12429">
        <ele>3004.2</ele>
        <time>2021-03-10T10:06:25Z</time>
      </trkpt>
      <trkpt lat="45.13523" lon="6.12429">
        <ele>3004.2</ele>
        <time>2021-03-10T10:06:26Z</time>
      </trkpt>
      <trkpt lat="45.13523" lon="6.12429">
        <ele>3004.2</ele>
        <time>2021-03-10T10:06:27Z</time>
      </trkpt>
      <trkpt lat="45.13522" lon="6.12429">
        <ele>3004.7</ele>
        <time>2021-03-10T10:06:28Z</time>
      </trkpt>
      <trkpt lat="45.13522" lon="6.12429">
        <ele>3004.7</ele>
        <time>2021-03-10T10:06:29Z</time>
      </trkpt>
      <trkpt lat="45.13521" lon="6.12429">
        <ele>3004.7</ele>
        <time>2021-03-10T10:06:30Z</time>
      </trkpt>
      <trkpt lat="45.13521" lon="6.12429">
        <ele>3004.7</ele>
        <time>2021-03-10T10:06:31Z</time>
      </trkpt>
      <trkpt lat="45.13521" lon="6.12429">
        <ele>3004.7</ele>
        <time>2021-03-10T10:06:32Z</time>
      </trkpt>
      <trkpt lat="45.1352" lon="6.1243">
        <ele>3004.7</ele>
        <time>2021-03-10T10:06:33Z</time>
      </trkpt>
      <trkpt lat="45.1352" lon="6.1243">
        <ele>3004.7</ele>
        <time>2021-03-10T10:06:34Z</time>
      </trkpt>
      <trkpt lat="45.13519" lon="6.1243">
        <ele>3004.7</ele>
        <time>2021-03-10T10:06:35Z</time>
      </trkpt>
      <trkpt lat="45.13519" lon="6.1243">
        <ele>3005.1</ele>
        <time>2021-03-10T10:06:36Z</time>
      </trkpt>
      <trkpt lat="45.13518" lon="6.1243">
        <ele>3005.1</ele>
        <time>2021-03-10T10:06:37Z</time>
      </trkpt>
      <trkpt lat="45.13518" lon="6.1243">
        <ele>3005.1</ele>
        <time>2021-03-10T10:06:38Z</time>
      </trkpt>
      <trkpt lat="45.13518" lon="6.1243">
        <ele>3005.1</ele>
        <time>2021-03-10T10:06:39Z</time>
      </trkpt>
      <trkpt lat="45.13517" lon="6.12429">
        <ele>3005.1</ele>
        <time>2021-03-10T10:06:40Z</time>
      </trkpt>
      <trkpt lat="45.13516" lon="6.12429">
        <ele>3005.1</ele>
        <time>2021-03-10T10:06:41Z</time>
      </trkpt>
      <trkpt lat="45.13511" lon="6.12428">
        <ele>3005.9</ele>
        <time>2021-03-10T10:06:52Z</time>
      </trkpt>
      <trkpt lat="45.1351" lon="6.12428">
        <ele>3005.9</ele>
        <time>2021-03-10T10:06:53Z</time>
      </trkpt>
      <trkpt lat="45.1351" lon="6.12428">
        <ele>3006.2</ele>
        <time>2021-03-10T10:06:54Z</time>
      </trkpt>
      <trkpt lat="45.13509" lon="6.12428">
        <ele>3006.2</ele>
        <time>2021-03-10T10:06:55Z</time>
      </trkpt>
      <trkpt lat="45.13508" lon="6.12428">
        <ele>3006.2</ele>
        <time>2021-03-10T10:06:56Z</time>
      </trkpt>
      <trkpt lat="45.13507" lon="6.12428">
        <ele>3006.2</ele>
        <time>2021-03-10T10:06:57Z</time>
      </trkpt>
      <trkpt lat="45.13507" lon="6.12428">
        <ele>3006.5</ele>
        <time>2021-03-10T10:06:58Z</time>
      </trkpt>
      <trkpt lat="45.13506" lon="6.12428">
        <ele>3006.5</ele>
        <time>2021-03-10T10:06:59Z</time>
      </trkpt>
      <trkpt lat="45.13506" lon="6.12428">
        <ele>3006.5</ele>
        <time>2021-03-10T10:07:00Z</time>
      </trkpt>
      <trkpt lat="45.13505" lon="6.12428">
        <ele>3006.5</ele>
        <time>2021-03-10T10:07:01Z</time>
      </trkpt>
      <trkpt lat="45.13504" lon="6.12428">
        <ele>3006.7</ele>
        <time>2021-03-10T10:07:02Z</time>
      </trkpt>
      <trkpt lat="45.13503" lon="6.12428">
        <ele>3006.7</ele>
        <time>2021-03-10T10:07:03Z</time>
      </trkpt>
      <trkpt lat="45.13503" lon="6.12428">
        <ele>3006.7</ele>
        <time>2021-03-10T10:07:04Z</time>
      </trkpt>
      <trkpt lat="45.13502" lon="6.12428">
        <ele>3005.9</ele>
        <time>2021-03-10T10:07:05Z</time>
      </trkpt>
      <trkpt lat="45.13501" lon="6.12428">
        <ele>3006.7</ele>
        <time>2021-03-10T10:07:06Z</time>
      </trkpt>
      <trkpt lat="45.13501" lon="6.12428">
        <ele>3006.9</ele>
        <time>2021-03-10T10:07:07Z</time>
      </trkpt>
      <trkpt lat="45.135" lon="6.12428">
        <ele>3006.9</ele>
        <time>2021-03-10T10:07:08Z</time>
      </trkpt>
      <trkpt lat="45.13499" lon="6.12429">
        <ele>3006.9</ele>
        <time>2021-03-10T10:07:09Z</time>
      </trkpt>
      <trkpt lat="45.13498" lon="6.12429">
        <ele>3006.9</ele>
        <time>2021-03-10T10:07:10Z</time>
      </trkpt>
      <trkpt lat="45.13498" lon="6.12429">
        <ele>3007.1</ele>
        <time>2021-03-10T10:07:11Z</time>
      </trkpt>
      <trkpt lat="45.13497" lon="6.12429">
        <ele>3007.1</ele>
        <time>2021-03-10T10:07:12Z</time>
      </trkpt>
      <trkpt lat="45.13496" lon="6.1243">
        <ele>3007.1</ele>
        <time>2021-03-10T10:07:13Z</time>
      </trkpt>
      <trkpt lat="45.13496" lon="6.1243">
        <ele>3007.1</ele>
        <time>2021-03-10T10:07:14Z</time>
      </trkpt>
      <trkpt lat="45.13495" lon="6.1243">
        <ele>3007.3</ele>
        <time>2021-03-10T10:07:15Z</time>
      </trkpt>
      <trkpt lat="45.13494" lon="6.1243">
        <ele>3007.3</ele>
        <time>2021-03-10T10:07:16Z</time>
      </trkpt>
      <trkpt lat="45.13494" lon="6.1243">
        <ele>3007.3</ele>
        <time>2021-03-10T10:07:17Z</time>
      </trkpt>
      <trkpt lat="45.13493" lon="6.12431">
        <ele>3007.3</ele>
        <time>2021-03-10T10:07:18Z</time>
      </trkpt>
      <trkpt lat="45.13492" lon="6.12431">
        <ele>3007.5</ele>
        <time>2021-03-10T10:07:19Z</time>
      </trkpt>
      <trkpt lat="45.13491" lon="6.12431">
        <ele>3007.5</ele>
        <time>2021-03-10T10:07:20Z</time>
      </trkpt>
      <trkpt lat="45.13491" lon="6.12431">
        <ele>3007.5</ele>
        <time>2021-03-10T10:07:21Z</time>
      </trkpt>
      <trkpt lat="45.1349" lon="6.12431">
        <ele>3007.5</ele>
        <time>2021-03-10T10:07:22Z</time>
      </trkpt>
      <trkpt lat="45.1349" lon="6.12431">
        <ele>3007.5</ele>
        <time>2021-03-10T10:07:23Z</time>
      </trkpt>
      <trkpt lat="45.13489" lon="6.12432">
        <ele>3007.6</ele>
        <time>2021-03-10T10:07:24Z</time>
      </trkpt>
      <trkpt lat="45.13488" lon="6.12432">
        <ele>3008.5</ele>
        <time>2021-03-10T10:07:25Z</time>
      </trkpt>
      <trkpt lat="45.13487" lon="6.12433">
        <ele>3008.5</ele>
        <time>2021-03-10T10:07:26Z</time>
      </trkpt>
      <trkpt lat="45.13487" lon="6.12433">
        <ele>3008.5</ele>
        <time>2021-03-10T10:07:27Z</time>
      </trkpt>
      <trkpt lat="45.13486" lon="6.12434">
        <ele>3008.7</ele>
        <time>2021-03-10T10:07:28Z</time>
      </trkpt>
      <trkpt lat="45.13485" lon="6.12435">
        <ele>3008.7</ele>
        <time>2021-03-10T10:07:29Z</time>
      </trkpt>
      <trkpt lat="45.13484" lon="6.12435">
        <ele>3008.7</ele>
        <time>2021-03-10T10:07:30Z</time>
      </trkpt>
      <trkpt lat="45.13484" lon="6.12435">
        <ele>3008.7</ele>
        <time>2021-03-10T10:07:31Z</time>
      </trkpt>
      <trkpt lat="45.13483" lon="6.12436">
        <ele>3008.7</ele>
        <time>2021-03-10T10:07:32Z</time>
      </trkpt>
      <trkpt lat="45.13482" lon="6.12436">
        <ele>3008.8</ele>
        <time>2021-03-10T10:07:33Z</time>
      </trkpt>
      <trkpt lat="45.13482" lon="6.12436">
        <ele>3009.7</ele>
        <time>2021-03-10T10:07:34Z</time>
      </trkpt>
      <trkpt lat="45.13481" lon="6.12437">
        <ele>3009.7</ele>
        <time>2021-03-10T10:07:35Z</time>
      </trkpt>
      <trkpt lat="45.13481" lon="6.12437">
        <ele>3009.7</ele>
        <time>2021-03-10T10:07:36Z</time>
      </trkpt>
      <trkpt lat="45.1348" lon="6.12438">
        <ele>3009.7</ele>
        <time>2021-03-10T10:07:37Z</time>
      </trkpt>
      <trkpt lat="45.1348" lon="6.12438">
        <ele>3009.9</ele>
        <time>2021-03-10T10:07:38Z</time>
      </trkpt>
      <trkpt lat="45.13479" lon="6.12439">
        <ele>3009.9</ele>
        <time>2021-03-10T10:07:39Z</time>
      </trkpt>
      <trkpt lat="45.13479" lon="6.12439">
        <ele>3009.9</ele>
        <time>2021-03-10T10:07:40Z</time>
      </trkpt>
      <trkpt lat="45.13478" lon="6.12439">
        <ele>3009.9</ele>
        <time>2021-03-10T10:07:41Z</time>
      </trkpt>
      <trkpt lat="45.13477" lon="6.12439">
        <ele>3009.9</ele>
        <time>2021-03-10T10:07:42Z</time>
      </trkpt>
      <trkpt lat="45.13477" lon="6.1244">
        <ele>3010</ele>
        <time>2021-03-10T10:07:43Z</time>
      </trkpt>
      <trkpt lat="45.13476" lon="6.1244">
        <ele>3010</ele>
        <time>2021-03-10T10:07:44Z</time>
      </trkpt>
      <trkpt lat="45.13476" lon="6.1244">
        <ele>3010</ele>
        <time>2021-03-10T10:07:45Z</time>
      </trkpt>
      <trkpt lat="45.13476" lon="6.1244">
        <ele>3010</ele>
        <time>2021-03-10T10:07:46Z</time>
      </trkpt>
      <trkpt lat="45.13475" lon="6.12441">
        <ele>3010</ele>
        <time>2021-03-10T10:07:47Z</time>
      </trkpt>
      <trkpt lat="45.13475" lon="6.12441">
        <ele>3010.9</ele>
        <time>2021-03-10T10:07:48Z</time>
      </trkpt>
      <trkpt lat="45.13474" lon="6.12441">
        <ele>3010.9</ele>
        <time>2021-03-10T10:07:49Z</time>
      </trkpt>
      <trkpt lat="45.13473" lon="6.12442">
        <ele>3011.1</ele>
        <time>2021-03-10T10:07:50Z</time>
      </trkpt>
      <trkpt lat="45.13473" lon="6.12442">
        <ele>3011.1</ele>
        <time>2021-03-10T10:07:51Z</time>
      </trkpt>
      <trkpt lat="45.13472" lon="6.12442">
        <ele>3011.1</ele>
        <time>2021-03-10T10:07:52Z</time>
      </trkpt>
      <trkpt lat="45.13471" lon="6.12442">
        <ele>3011.1</ele>
        <time>2021-03-10T10:07:53Z</time>
      </trkpt>
      <trkpt lat="45.13471" lon="6.12442">
        <ele>3011.1</ele>
        <time>2021-03-10T10:07:54Z</time>
      </trkpt>
      <trkpt lat="45.1347" lon="6.12443">
        <ele>3011.3</ele>
        <time>2021-03-10T10:07:55Z</time>
      </trkpt>
      <trkpt lat="45.1347" lon="6.12443">
        <ele>3011.3</ele>
        <time>2021-03-10T10:07:56Z</time>
      </trkpt>
      <trkpt lat="45.13469" lon="6.12443">
        <ele>3011.3</ele>
        <time>2021-03-10T10:07:57Z</time>
      </trkpt>
      <trkpt lat="45.13469" lon="6.12444">
        <ele>3011.3</ele>
        <time>2021-03-10T10:07:58Z</time>
      </trkpt>
      <trkpt lat="45.13469" lon="6.12444">
        <ele>3011.3</ele>
        <time>2021-03-10T10:07:59Z</time>
      </trkpt>
      <trkpt lat="45.13468" lon="6.12444">
        <ele>3011.3</ele>
        <time>2021-03-10T10:08:00Z</time>
      </trkpt>
      <trkpt lat="45.13467" lon="6.12445">
        <ele>3011.4</ele>
        <time>2021-03-10T10:08:01Z</time>
      </trkpt>
      <trkpt lat="45.13467" lon="6.12445">
        <ele>3011.4</ele>
        <time>2021-03-10T10:08:02Z</time>
      </trkpt>
      <trkpt lat="45.13467" lon="6.12445">
        <ele>3012.3</ele>
        <time>2021-03-10T10:08:03Z</time>
      </trkpt>
      <trkpt lat="45.13466" lon="6.12446">
        <ele>3012.3</ele>
        <time>2021-03-10T10:08:04Z</time>
      </trkpt>
      <trkpt lat="45.13465" lon="6.12446">
        <ele>3012.3</ele>
        <time>2021-03-10T10:08:05Z</time>
      </trkpt>
      <trkpt lat="45.13465" lon="6.12446">
        <ele>3012.3</ele>
        <time>2021-03-10T10:08:06Z</time>
      </trkpt>
      <trkpt lat="45.13464" lon="6.12446">
        <ele>3012.4</ele>
        <time>2021-03-10T10:08:07Z</time>
      </trkpt>
      <trkpt lat="45.13464" lon="6.12447">
        <ele>3012.4</ele>
        <time>2021-03-10T10:08:08Z</time>
      </trkpt>
      <trkpt lat="45.13463" lon="6.12447">
        <ele>3012.4</ele>
        <time>2021-03-10T10:08:09Z</time>
      </trkpt>
      <trkpt lat="45.13463" lon="6.12447">
        <ele>3012.4</ele>
        <time>2021-03-10T10:08:10Z</time>
      </trkpt>
      <trkpt lat="45.13462" lon="6.12447">
        <ele>3012.4</ele>
        <time>2021-03-10T10:08:11Z</time>
      </trkpt>
      <trkpt lat="45.13462" lon="6.12448">
        <ele>3012.4</ele>
        <time>2021-03-10T10:08:12Z</time>
      </trkpt>
      <trkpt lat="45.13462" lon="6.12448">
        <ele>3012.4</ele>
        <time>2021-03-10T10:08:13Z</time>
      </trkpt>
      <trkpt lat="45.13462" lon="6.12448">
        <ele>3012.4</ele>
        <time>2021-03-10T10:08:14Z</time>
      </trkpt>
      <trkpt lat="45.13462" lon="6.12448">
        <ele>3012.4</ele>
        <time>2021-03-10T10:08:15Z</time>
      </trkpt>
      <trkpt lat="45.13462" lon="6.12449">
        <ele>3012.4</ele>
        <time>2021-03-10T10:08:16Z</time>
      </trkpt>
      <trkpt lat="45.13462" lon="6.12449">
        <ele>3012.4</ele>
        <time>2021-03-10T10:08:17Z</time>
      </trkpt>
      <trkpt lat="45.13462" lon="6.12449">
        <ele>3012.4</ele>
        <time>2021-03-10T10:08:18Z</time>
      </trkpt>
      <trkpt lat="45.13462" lon="6.12449">
        <ele>3012.4</ele>
        <time>2021-03-10T10:08:19Z</time>
      </trkpt>
      <trkpt lat="45.13473" lon="6.12457">
        <ele>3013.8</ele>
        <time>2021-03-10T10:08:55Z</time>
      </trkpt>
      <trkpt lat="45.13474" lon="6.12458">
        <ele>3014.7</ele>
        <time>2021-03-10T10:08:56Z</time>
      </trkpt>
      <trkpt lat="45.13475" lon="6.12458">
        <ele>3014.5</ele>
        <time>2021-03-10T10:08:57Z</time>
      </trkpt>
      <trkpt lat="45.13476" lon="6.12459">
        <ele>3014.5</ele>
        <time>2021-03-10T10:08:58Z</time>
      </trkpt>
      <trkpt lat="45.13476" lon="6.12459">
        <ele>3014.5</ele>
        <time>2021-03-10T10:08:59Z</time>
      </trkpt>
      <trkpt lat="45.13477" lon="6.12459">
        <ele>3014.2</ele>
        <time>2021-03-10T10:09:00Z</time>
      </trkpt>
      <trkpt lat="45.13478" lon="6.1246">
        <ele>3014.2</ele>
        <time>2021-03-10T10:09:01Z</time>
      </trkpt>
      <trkpt lat="45.13478" lon="6.1246">
        <ele>3014.2</ele>
        <time>2021-03-10T10:09:02Z</time>
      </trkpt>
      <trkpt lat="45.13479" lon="6.12461">
        <ele>3014.2</ele>
        <time>2021-03-10T10:09:03Z</time>
      </trkpt>
      <trkpt lat="45.13479" lon="6.12462">
        <ele>3014.2</ele>
        <time>2021-03-10T10:09:04Z</time>
      </trkpt>
      <trkpt lat="45.13479" lon="6.12462">
        <ele>3015.2</ele>
        <time>2021-03-10T10:09:05Z</time>
      </trkpt>
      <trkpt lat="45.13479" lon="6.12463">
        <ele>3015.2</ele>
        <time>2021-03-10T10:09:06Z</time>
      </trkpt>
      <trkpt lat="45.13479" lon="6.12464">
        <ele>3015.2</ele>
        <time>2021-03-10T10:09:07Z</time>
      </trkpt>
      <trkpt lat="45.13479" lon="6.12464">
        <ele>3015.2</ele>
        <time>2021-03-10T10:09:08Z</time>
      </trkpt>
      <trkpt lat="45.13479" lon="6.12464">
        <ele>3015.2</ele>
        <time>2021-03-10T10:09:09Z</time>
      </trkpt>
      <trkpt lat="45.13479" lon="6.12464">
        <ele>3015.2</ele>
        <time>2021-03-10T10:09:10Z</time>
      </trkpt>
      <trkpt lat="45.13479" lon="6.12464">
        <ele>3015.2</ele>
        <time>2021-03-10T10:09:11Z</time>
      </trkpt>
      <trkpt lat="45.1348" lon="6.12465">
        <ele>3015.2</ele>
        <time>2021-03-10T10:09:12Z</time>
      </trkpt>
      <trkpt lat="45.1348" lon="6.12466">
        <ele>3015</ele>
        <time>2021-03-10T10:09:13Z</time>
      </trkpt>
      <trkpt lat="45.13481" lon="6.12466">
        <ele>3015</ele>
        <time>2021-03-10T10:09:14Z</time>
      </trkpt>
      <trkpt lat="45.13482" lon="6.12466">
        <ele>3015</ele>
        <time>2021-03-10T10:09:15Z</time>
      </trkpt>
      <trkpt lat="45.13482" lon="6.12467">
        <ele>3016</ele>
        <time>2021-03-10T10:09:16Z</time>
      </trkpt>
      <trkpt lat="45.13483" lon="6.12467">
        <ele>3016</ele>
        <time>2021-03-10T10:09:17Z</time>
      </trkpt>
      <trkpt lat="45.13483" lon="6.12468">
        <ele>3015.7</ele>
        <time>2021-03-10T10:09:18Z</time>
      </trkpt>
      <trkpt lat="45.13484" lon="6.12468">
        <ele>3015.7</ele>
        <time>2021-03-10T10:09:19Z</time>
      </trkpt>
      <trkpt lat="45.13484" lon="6.12469">
        <ele>3015.7</ele>
        <time>2021-03-10T10:09:20Z</time>
      </trkpt>
      <trkpt lat="45.13485" lon="6.12469">
        <ele>3015.7</ele>
        <time>2021-03-10T10:09:21Z</time>
      </trkpt>
      <trkpt lat="45.13485" lon="6.1247">
        <ele>3015.7</ele>
        <time>2021-03-10T10:09:22Z</time>
      </trkpt>
      <trkpt lat="45.13486" lon="6.1247">
        <ele>3015.4</ele>
        <time>2021-03-10T10:09:23Z</time>
      </trkpt>
      <trkpt lat="45.13487" lon="6.12471">
        <ele>3016.4</ele>
        <time>2021-03-10T10:09:24Z</time>
      </trkpt>
      <trkpt lat="45.13487" lon="6.12471">
        <ele>3016.4</ele>
        <time>2021-03-10T10:09:25Z</time>
      </trkpt>
      <trkpt lat="45.13488" lon="6.12472">
        <ele>3016.4</ele>
        <time>2021-03-10T10:09:26Z</time>
      </trkpt>
      <trkpt lat="45.13489" lon="6.12473">
        <ele>3016.4</ele>
        <time>2021-03-10T10:09:27Z</time>
      </trkpt>
      <trkpt lat="45.13489" lon="6.12474">
        <ele>3016.1</ele>
        <time>2021-03-10T10:09:28Z</time>
      </trkpt>
      <trkpt lat="45.1349" lon="6.12475">
        <ele>3016.1</ele>
        <time>2021-03-10T10:09:29Z</time>
      </trkpt>
      <trkpt lat="45.13491" lon="6.12475">
        <ele>3017.1</ele>
        <time>2021-03-10T10:09:30Z</time>
      </trkpt>
      <trkpt lat="45.13491" lon="6.12476">
        <ele>3017.1</ele>
        <time>2021-03-10T10:09:31Z</time>
      </trkpt>
      <trkpt lat="45.13492" lon="6.12477">
        <ele>3017.1</ele>
        <time>2021-03-10T10:09:32Z</time>
      </trkpt>
      <trkpt lat="45.13492" lon="6.12477">
        <ele>3016.7</ele>
        <time>2021-03-10T10:09:33Z</time>
      </trkpt>
      <trkpt lat="45.13492" lon="6.12478">
        <ele>3016.7</ele>
        <time>2021-03-10T10:09:34Z</time>
      </trkpt>
      <trkpt lat="45.13493" lon="6.12479">
        <ele>3016.7</ele>
        <time>2021-03-10T10:09:35Z</time>
      </trkpt>
      <trkpt lat="45.13493" lon="6.12479">
        <ele>3016.7</ele>
        <time>2021-03-10T10:09:36Z</time>
      </trkpt>
      <trkpt lat="45.13494" lon="6.1248">
        <ele>3017.7</ele>
        <time>2021-03-10T10:09:37Z</time>
      </trkpt>
      <trkpt lat="45.13494" lon="6.1248">
        <ele>3017.7</ele>
        <time>2021-03-10T10:09:38Z</time>
      </trkpt>
      <trkpt lat="45.13495" lon="6.1248">
        <ele>3017.7</ele>
        <time>2021-03-10T10:09:39Z</time>
      </trkpt>
      <trkpt lat="45.13495" lon="6.12481">
        <ele>3017.3</ele>
        <time>2021-03-10T10:09:40Z</time>
      </trkpt>
      <trkpt lat="45.13496" lon="6.12481">
        <ele>3017.3</ele>
        <time>2021-03-10T10:09:41Z</time>
      </trkpt>
      <trkpt lat="45.13496" lon="6.12481">
        <ele>3017.3</ele>
        <time>2021-03-10T10:09:42Z</time>
      </trkpt>
      <trkpt lat="45.13496" lon="6.12482">
        <ele>3017.3</ele>
        <time>2021-03-10T10:09:43Z</time>
      </trkpt>
      <trkpt lat="45.13497" lon="6.12483">
        <ele>3017.3</ele>
        <time>2021-03-10T10:09:44Z</time>
      </trkpt>
      <trkpt lat="45.13498" lon="6.12483">
        <ele>3017.3</ele>
        <time>2021-03-10T10:09:45Z</time>
      </trkpt>
      <trkpt lat="45.13498" lon="6.12484">
        <ele>3017.7</ele>
        <time>2021-03-10T10:09:46Z</time>
      </trkpt>
      <trkpt lat="45.13499" lon="6.12484">
        <ele>3017.7</ele>
        <time>2021-03-10T10:09:47Z</time>
      </trkpt>
      <trkpt lat="45.13499" lon="6.12485">
        <ele>3017.7</ele>
        <time>2021-03-10T10:09:48Z</time>
      </trkpt>
      <trkpt lat="45.13499" lon="6.12485">
        <ele>3017.7</ele>
        <time>2021-03-10T10:09:49Z</time>
      </trkpt>
      <trkpt lat="45.135" lon="6.12486">
        <ele>3017.7</ele>
        <time>2021-03-10T10:09:50Z</time>
      </trkpt>
      <trkpt lat="45.135" lon="6.12486">
        <ele>3017.7</ele>
        <time>2021-03-10T10:09:51Z</time>
      </trkpt>
      <trkpt lat="45.13501" lon="6.12486">
        <ele>3017.7</ele>
        <time>2021-03-10T10:09:52Z</time>
      </trkpt>
      <trkpt lat="45.13501" lon="6.12487">
        <ele>3017.3</ele>
        <time>2021-03-10T10:09:53Z</time>
      </trkpt>
      <trkpt lat="45.13502" lon="6.12487">
        <ele>3017.3</ele>
        <time>2021-03-10T10:09:54Z</time>
      </trkpt>
      <trkpt lat="45.13502" lon="6.12488">
        <ele>3018.1</ele>
        <time>2021-03-10T10:09:55Z</time>
      </trkpt>
      <trkpt lat="45.13502" lon="6.12489">
        <ele>3018.1</ele>
        <time>2021-03-10T10:09:56Z</time>
      </trkpt>
      <trkpt lat="45.13503" lon="6.12489">
        <ele>3018.1</ele>
        <time>2021-03-10T10:09:57Z</time>
      </trkpt>
      <trkpt lat="45.13504" lon="6.1249">
        <ele>3018.1</ele>
        <time>2021-03-10T10:09:58Z</time>
      </trkpt>
      <trkpt lat="45.13504" lon="6.12491">
        <ele>3018.1</ele>
        <time>2021-03-10T10:09:59Z</time>
      </trkpt>
      <trkpt lat="45.13504" lon="6.12492">
        <ele>3017.7</ele>
        <time>2021-03-10T10:10:00Z</time>
      </trkpt>
      <trkpt lat="45.13505" lon="6.12492">
        <ele>3018.5</ele>
        <time>2021-03-10T10:10:01Z</time>
      </trkpt>
      <trkpt lat="45.13505" lon="6.12493">
        <ele>3018.5</ele>
        <time>2021-03-10T10:10:02Z</time>
      </trkpt>
      <trkpt lat="45.13505" lon="6.12493">
        <ele>3018.5</ele>
        <time>2021-03-10T10:10:03Z</time>
      </trkpt>
      <trkpt lat="45.13506" lon="6.12494">
        <ele>3018.5</ele>
        <time>2021-03-10T10:10:04Z</time>
      </trkpt>
      <trkpt lat="45.13506" lon="6.12494">
        <ele>3018.5</ele>
        <time>2021-03-10T10:10:05Z</time>
      </trkpt>
      <trkpt lat="45.13506" lon="6.12495">
        <ele>3018.5</ele>
        <time>2021-03-10T10:10:06Z</time>
      </trkpt>
      <trkpt lat="45.13507" lon="6.12496">
        <ele>3018.5</ele>
        <time>2021-03-10T10:10:07Z</time>
      </trkpt>
      <trkpt lat="45.13507" lon="6.12497">
        <ele>3019.5</ele>
        <time>2021-03-10T10:10:08Z</time>
      </trkpt>
      <trkpt lat="45.13507" lon="6.12497">
        <ele>3019</ele>
        <time>2021-03-10T10:10:09Z</time>
      </trkpt>
      <trkpt lat="45.13508" lon="6.12498">
        <ele>3019</ele>
        <time>2021-03-10T10:10:10Z</time>
      </trkpt>
      <trkpt lat="45.13508" lon="6.12498">
        <ele>3019</ele>
        <time>2021-03-10T10:10:11Z</time>
      </trkpt>
      <trkpt lat="45.13508" lon="6.12498">
        <ele>3019</ele>
        <time>2021-03-10T10:10:12Z</time>
      </trkpt>
      <trkpt lat="45.13509" lon="6.12499">
        <ele>3019</ele>
        <time>2021-03-10T10:10:13Z</time>
      </trkpt>
      <trkpt lat="45.13509" lon="6.125">
        <ele>3019</ele>
        <time>2021-03-10T10:10:14Z</time>
      </trkpt>
      <trkpt lat="45.13509" lon="6.125">
        <ele>3019</ele>
        <time>2021-03-10T10:10:15Z</time>
      </trkpt>
      <trkpt lat="45.1351" lon="6.12501">
        <ele>3020.1</ele>
        <time>2021-03-10T10:10:16Z</time>
      </trkpt>
      <trkpt lat="45.1351" lon="6.12502">
        <ele>3019.6</ele>
        <time>2021-03-10T10:10:17Z</time>
      </trkpt>
      <trkpt lat="45.13511" lon="6.12503">
        <ele>3019.6</ele>
        <time>2021-03-10T10:10:18Z</time>
      </trkpt>
      <trkpt lat="45.13511" lon="6.12503">
        <ele>3019.6</ele>
        <time>2021-03-10T10:10:19Z</time>
      </trkpt>
      <trkpt lat="45.13512" lon="6.12504">
        <ele>3019.6</ele>
        <time>2021-03-10T10:10:20Z</time>
      </trkpt>
      <trkpt lat="45.13512" lon="6.12505">
        <ele>3019.6</ele>
        <time>2021-03-10T10:10:21Z</time>
      </trkpt>
      <trkpt lat="45.13512" lon="6.12505">
        <ele>3020.7</ele>
        <time>2021-03-10T10:10:22Z</time>
      </trkpt>
      <trkpt lat="45.13513" lon="6.12506">
        <ele>3020.7</ele>
        <time>2021-03-10T10:10:23Z</time>
      </trkpt>
      <trkpt lat="45.13513" lon="6.12506">
        <ele>3020.7</ele>
        <time>2021-03-10T10:10:24Z</time>
      </trkpt>
      <trkpt lat="45.13513" lon="6.12507">
        <ele>3020.2</ele>
        <time>2021-03-10T10:10:25Z</time>
      </trkpt>
      <trkpt lat="45.13514" lon="6.12508">
        <ele>3020.2</ele>
        <time>2021-03-10T10:10:26Z</time>
      </trkpt>
      <trkpt lat="45.13514" lon="6.12508">
        <ele>3020.2</ele>
        <time>2021-03-10T10:10:27Z</time>
      </trkpt>
      <trkpt lat="45.13514" lon="6.12509">
        <ele>3020.2</ele>
        <time>2021-03-10T10:10:28Z</time>
      </trkpt>
      <trkpt lat="45.13514" lon="6.12509">
        <ele>3020.2</ele>
        <time>2021-03-10T10:10:29Z</time>
      </trkpt>
      <trkpt lat="45.13515" lon="6.1251">
        <ele>3021.3</ele>
        <time>2021-03-10T10:10:30Z</time>
      </trkpt>
      <trkpt lat="45.13515" lon="6.12511">
        <ele>3021.3</ele>
        <time>2021-03-10T10:10:31Z</time>
      </trkpt>
      <trkpt lat="45.13515" lon="6.12512">
        <ele>3021.3</ele>
        <time>2021-03-10T10:10:32Z</time>
      </trkpt>
      <trkpt lat="45.13516" lon="6.12512">
        <ele>3021.3</ele>
        <time>2021-03-10T10:10:33Z</time>
      </trkpt>
      <trkpt lat="45.13516" lon="6.12513">
        <ele>3021.3</ele>
        <time>2021-03-10T10:10:34Z</time>
      </trkpt>
      <trkpt lat="45.13516" lon="6.12514">
        <ele>3022.5</ele>
        <time>2021-03-10T10:10:35Z</time>
      </trkpt>
      <trkpt lat="45.13516" lon="6.12515">
        <ele>3022.5</ele>
        <time>2021-03-10T10:10:36Z</time>
      </trkpt>
      <trkpt lat="45.13522" lon="6.12533">
        <ele>3026.1</ele>
        <time>2021-03-10T10:11:02Z</time>
      </trkpt>
      <trkpt lat="45.13522" lon="6.12534">
        <ele>3026.1</ele>
        <time>2021-03-10T10:11:03Z</time>
      </trkpt>
      <trkpt lat="45.13522" lon="6.12534">
        <ele>3026.1</ele>
        <time>2021-03-10T10:11:04Z</time>
      </trkpt>
      <trkpt lat="45.13522" lon="6.12535">
        <ele>3025.5</ele>
        <time>2021-03-10T10:11:05Z</time>
      </trkpt>
      <trkpt lat="45.13523" lon="6.12536">
        <ele>3026.6</ele>
        <time>2021-03-10T10:11:06Z</time>
      </trkpt>
      <trkpt lat="45.13523" lon="6.12536">
        <ele>3026.6</ele>
        <time>2021-03-10T10:11:07Z</time>
      </trkpt>
      <trkpt lat="45.13523" lon="6.12537">
        <ele>3026.6</ele>
        <time>2021-03-10T10:11:08Z</time>
      </trkpt>
      <trkpt lat="45.13523" lon="6.12538">
        <ele>3026.6</ele>
        <time>2021-03-10T10:11:09Z</time>
      </trkpt>
      <trkpt lat="45.13523" lon="6.12538">
        <ele>3026.6</ele>
        <time>2021-03-10T10:11:10Z</time>
      </trkpt>
      <trkpt lat="45.13523" lon="6.12539">
        <ele>3026.6</ele>
        <time>2021-03-10T10:11:11Z</time>
      </trkpt>
      <trkpt lat="45.13523" lon="6.12539">
        <ele>3027.8</ele>
        <time>2021-03-10T10:11:12Z</time>
      </trkpt>
      <trkpt lat="45.13524" lon="6.1254">
        <ele>3027.8</ele>
        <time>2021-03-10T10:11:13Z</time>
      </trkpt>
      <trkpt lat="45.13524" lon="6.12541">
        <ele>3027.8</ele>
        <time>2021-03-10T10:11:14Z</time>
      </trkpt>
      <trkpt lat="45.13524" lon="6.12541">
        <ele>3027.8</ele>
        <time>2021-03-10T10:11:15Z</time>
      </trkpt>
      <trkpt lat="45.13524" lon="6.12542">
        <ele>3027.8</ele>
        <time>2021-03-10T10:11:16Z</time>
      </trkpt>
      <trkpt lat="45.13525" lon="6.12542">
        <ele>3027.8</ele>
        <time>2021-03-10T10:11:17Z</time>
      </trkpt>
      <trkpt lat="45.13525" lon="6.12543">
        <ele>3027.8</ele>
        <time>2021-03-10T10:11:18Z</time>
      </trkpt>
      <trkpt lat="45.13526" lon="6.12543">
        <ele>3027</ele>
        <time>2021-03-10T10:11:19Z</time>
      </trkpt>
      <trkpt lat="45.13526" lon="6.12544">
        <ele>3028.3</ele>
        <time>2021-03-10T10:11:20Z</time>
      </trkpt>
      <trkpt lat="45.13526" lon="6.12545">
        <ele>3028.3</ele>
        <time>2021-03-10T10:11:21Z</time>
      </trkpt>
      <trkpt lat="45.13526" lon="6.12545">
        <ele>3028.3</ele>
        <time>2021-03-10T10:11:22Z</time>
      </trkpt>
      <trkpt lat="45.13527" lon="6.12546">
        <ele>3028.3</ele>
        <time>2021-03-10T10:11:23Z</time>
      </trkpt>
      <trkpt lat="45.13527" lon="6.12546">
        <ele>3028.3</ele>
        <time>2021-03-10T10:11:24Z</time>
      </trkpt>
      <trkpt lat="45.13527" lon="6.12547">
        <ele>3028.3</ele>
        <time>2021-03-10T10:11:25Z</time>
      </trkpt>
      <trkpt lat="45.13528" lon="6.12547">
        <ele>3028.3</ele>
        <time>2021-03-10T10:11:26Z</time>
      </trkpt>
      <trkpt lat="45.13528" lon="6.12548">
        <ele>3028.3</ele>
        <time>2021-03-10T10:11:27Z</time>
      </trkpt>
      <trkpt lat="45.13528" lon="6.12548">
        <ele>3029.6</ele>
        <time>2021-03-10T10:11:28Z</time>
      </trkpt>
      <trkpt lat="45.13528" lon="6.12549">
        <ele>3028.9</ele>
        <time>2021-03-10T10:11:29Z</time>
      </trkpt>
      <trkpt lat="45.13529" lon="6.1255">
        <ele>3028.9</ele>
        <time>2021-03-10T10:11:30Z</time>
      </trkpt>
      <trkpt lat="45.13529" lon="6.12551">
        <ele>3028.9</ele>
        <time>2021-03-10T10:11:31Z</time>
      </trkpt>
      <trkpt lat="45.13529" lon="6.12551">
        <ele>3028.9</ele>
        <time>2021-03-10T10:11:32Z</time>
      </trkpt>
      <trkpt lat="45.13529" lon="6.12553">
        <ele>3030.4</ele>
        <time>2021-03-10T10:11:33Z</time>
      </trkpt>
      <trkpt lat="45.13529" lon="6.12554">
        <ele>3030.4</ele>
        <time>2021-03-10T10:11:34Z</time>
      </trkpt>
      <trkpt lat="45.1353" lon="6.12555">
        <ele>3030.4</ele>
        <time>2021-03-10T10:11:35Z</time>
      </trkpt>
      <trkpt lat="45.1353" lon="6.12555">
        <ele>3030.4</ele>
        <time>2021-03-10T10:11:36Z</time>
      </trkpt>
      <trkpt lat="45.1353" lon="6.12556">
        <ele>3030.4</ele>
        <time>2021-03-10T10:11:37Z</time>
      </trkpt>
      <trkpt lat="45.13531" lon="6.12557">
        <ele>3031.9</ele>
        <time>2021-03-10T10:11:38Z</time>
      </trkpt>
      <trkpt lat="45.13531" lon="6.12558">
        <ele>3031.9</ele>
        <time>2021-03-10T10:11:39Z</time>
      </trkpt>
      <trkpt lat="45.13531" lon="6.12558">
        <ele>3031.9</ele>
        <time>2021-03-10T10:11:40Z</time>
      </trkpt>
      <trkpt lat="45.13531" lon="6.12559">
        <ele>3031.1</ele>
        <time>2021-03-10T10:11:41Z</time>
      </trkpt>
      <trkpt lat="45.13532" lon="6.12559">
        <ele>3031.1</ele>
        <time>2021-03-10T10:11:42Z</time>
      </trkpt>
      <trkpt lat="45.13532" lon="6.1256">
        <ele>3031.1</ele>
        <time>2021-03-10T10:11:43Z</time>
      </trkpt>
      <trkpt lat="45.13532" lon="6.12561">
        <ele>3031.1</ele>
        <time>2021-03-10T10:11:44Z</time>
      </trkpt>
      <trkpt lat="45.13535" lon="6.12571">
        <ele>3035</ele>
        <time>2021-03-10T10:11:57Z</time>
      </trkpt>
      <trkpt lat="45.13535" lon="6.12572">
        <ele>3035</ele>
        <time>2021-03-10T10:11:58Z</time>
      </trkpt>
      <trkpt lat="45.13535" lon="6.12572">
        <ele>3035</ele>
        <time>2021-03-10T10:11:59Z</time>
      </trkpt>
      <trkpt lat="45.13535" lon="6.12573">
        <ele>3035</ele>
        <time>2021-03-10T10:12:00Z</time>
      </trkpt>
      <trkpt lat="45.13535" lon="6.12574">
        <ele>3035</ele>
        <time>2021-03-10T10:12:01Z</time>
      </trkpt>
      <trkpt lat="45.13536" lon="6.12574">
        <ele>3036.5</ele>
        <time>2021-03-10T10:12:02Z</time>
      </trkpt>
      <trkpt lat="45.13536" lon="6.12574">
        <ele>3036.5</ele>
        <time>2021-03-10T10:12:03Z</time>
      </trkpt>
      <trkpt lat="45.13536" lon="6.12575">
        <ele>3036.5</ele>
        <time>2021-03-10T10:12:04Z</time>
      </trkpt>
      <trkpt lat="45.13536" lon="6.12575">
        <ele>3036.5</ele>
        <time>2021-03-10T10:12:05Z</time>
      </trkpt>
      <trkpt lat="45.13536" lon="6.12575">
        <ele>3036.5</ele>
        <time>2021-03-10T10:12:06Z</time>
      </trkpt>
      <trkpt lat="45.13535" lon="6.12584">
        <ele>3039.6</ele>
        <time>2021-03-10T10:12:45Z</time>
      </trkpt>
      <trkpt lat="45.13535" lon="6.12584">
        <ele>3039.6</ele>
        <time>2021-03-10T10:12:46Z</time>
      </trkpt>
      <trkpt lat="45.13535" lon="6.12584">
        <ele>3039.6</ele>
        <time>2021-03-10T10:12:47Z</time>
      </trkpt>
      <trkpt lat="45.13535" lon="6.12584">
        <ele>3039.6</ele>
        <time>2021-03-10T10:12:48Z</time>
      </trkpt>
      <trkpt lat="45.13534" lon="6.12584">
        <ele>3040.3</ele>
        <time>2021-03-10T10:12:49Z</time>
      </trkpt>
      <trkpt lat="45.13534" lon="6.12584">
        <ele>3040.3</ele>
        <time>2021-03-10T10:12:50Z</time>
      </trkpt>
      <trkpt lat="45.13533" lon="6.12584">
        <ele>3040.3</ele>
        <time>2021-03-10T10:12:51Z</time>
      </trkpt>
      <trkpt lat="45.13533" lon="6.12584">
        <ele>3040.3</ele>
        <time>2021-03-10T10:12:52Z</time>
      </trkpt>
      <trkpt lat="45.13532" lon="6.12584">
        <ele>3040.3</ele>
        <time>2021-03-10T10:12:53Z</time>
      </trkpt>
      <trkpt lat="45.13532" lon="6.12584">
        <ele>3040.3</ele>
        <time>2021-03-10T10:12:54Z</time>
      </trkpt>
      <trkpt lat="45.13531" lon="6.12584">
        <ele>3041.1</ele>
        <time>2021-03-10T10:12:55Z</time>
      </trkpt>
      <trkpt lat="45.13531" lon="6.12584">
        <ele>3041.1</ele>
        <time>2021-03-10T10:12:56Z</time>
      </trkpt>
      <trkpt lat="45.1353" lon="6.12584">
        <ele>3041.1</ele>
        <time>2021-03-10T10:12:57Z</time>
      </trkpt>
      <trkpt lat="45.1353" lon="6.12584">
        <ele>3041.1</ele>
        <time>2021-03-10T10:12:58Z</time>
      </trkpt>
      <trkpt lat="45.13529" lon="6.12584">
        <ele>3041.1</ele>
        <time>2021-03-10T10:12:59Z</time>
      </trkpt>
      <trkpt lat="45.13529" lon="6.12584">
        <ele>3041.1</ele>
        <time>2021-03-10T10:13:00Z</time>
      </trkpt>
      <trkpt lat="45.13528" lon="6.12583">
        <ele>3041.1</ele>
        <time>2021-03-10T10:13:01Z</time>
      </trkpt>
      <trkpt lat="45.13528" lon="6.12583">
        <ele>3041.8</ele>
        <time>2021-03-10T10:13:02Z</time>
      </trkpt>
      <trkpt lat="45.13527" lon="6.12583">
        <ele>3041.8</ele>
        <time>2021-03-10T10:13:03Z</time>
      </trkpt>
      <trkpt lat="45.13526" lon="6.12583">
        <ele>3041.8</ele>
        <time>2021-03-10T10:13:04Z</time>
      </trkpt>
      <trkpt lat="45.13525" lon="6.12583">
        <ele>3041.8</ele>
        <time>2021-03-10T10:13:05Z</time>
      </trkpt>
      <trkpt lat="45.13525" lon="6.12582">
        <ele>3040.8</ele>
        <time>2021-03-10T10:13:06Z</time>
      </trkpt>
      <trkpt lat="45.13524" lon="6.12582">
        <ele>3040.8</ele>
        <time>2021-03-10T10:13:07Z</time>
      </trkpt>
      <trkpt lat="45.13524" lon="6.12582">
        <ele>3040.8</ele>
        <time>2021-03-10T10:13:08Z</time>
      </trkpt>
      <trkpt lat="45.13524" lon="6.12582">
        <ele>3040.8</ele>
        <time>2021-03-10T10:13:09Z</time>
      </trkpt>
      <trkpt lat="45.13524" lon="6.12582">
        <ele>3040.8</ele>
        <time>2021-03-10T10:13:10Z</time>
      </trkpt>
      <trkpt lat="45.13523" lon="6.12581">
        <ele>3040.8</ele>
        <time>2021-03-10T10:13:11Z</time>
      </trkpt>
      <trkpt lat="45.13523" lon="6.12581">
        <ele>3040.8</ele>
        <time>2021-03-10T10:13:12Z</time>
      </trkpt>
      <trkpt lat="45.13522" lon="6.12581">
        <ele>3041.4</ele>
        <time>2021-03-10T10:13:13Z</time>
      </trkpt>
      <trkpt lat="45.13521" lon="6.1258">
        <ele>3041.4</ele>
        <time>2021-03-10T10:13:14Z</time>
      </trkpt>
      <trkpt lat="45.13521" lon="6.1258">
        <ele>3041.4</ele>
        <time>2021-03-10T10:13:15Z</time>
      </trkpt>
      <trkpt lat="45.13518" lon="6.12579">
        <ele>3041.9</ele>
        <time>2021-03-10T10:13:19Z</time>
      </trkpt>
      <trkpt lat="45.13517" lon="6.12579">
        <ele>3041.9</ele>
        <time>2021-03-10T10:13:20Z</time>
      </trkpt>
      <trkpt lat="45.13516" lon="6.12578">
        <ele>3041.9</ele>
        <time>2021-03-10T10:13:21Z</time>
      </trkpt>
      <trkpt lat="45.13515" lon="6.12578">
        <ele>3042.5</ele>
        <time>2021-03-10T10:13:22Z</time>
      </trkpt>
      <trkpt lat="45.13515" lon="6.12578">
        <ele>3041</ele>
        <time>2021-03-10T10:13:23Z</time>
      </trkpt>
      <trkpt lat="45.13514" lon="6.12578">
        <ele>3041</ele>
        <time>2021-03-10T10:13:24Z</time>
      </trkpt>
      <trkpt lat="45.13513" lon="6.12578">
        <ele>3041</ele>
        <time>2021-03-10T10:13:25Z</time>
      </trkpt>
      <trkpt lat="45.13513" lon="6.12578">
        <ele>3041.5</ele>
        <time>2021-03-10T10:13:26Z</time>
      </trkpt>
      <trkpt lat="45.13512" lon="6.12578">
        <ele>3041.5</ele>
        <time>2021-03-10T10:13:27Z</time>
      </trkpt>
      <trkpt lat="45.13511" lon="6.12578">
        <ele>3041.5</ele>
        <time>2021-03-10T10:13:28Z</time>
      </trkpt>
      <trkpt lat="45.13511" lon="6.12578">
        <ele>3041.5</ele>
        <time>2021-03-10T10:13:29Z</time>
      </trkpt>
      <trkpt lat="45.1351" lon="6.12578">
        <ele>3042.1</ele>
        <time>2021-03-10T10:13:30Z</time>
      </trkpt>
      <trkpt lat="45.13509" lon="6.12578">
        <ele>3042.1</ele>
        <time>2021-03-10T10:13:31Z</time>
      </trkpt>
      <trkpt lat="45.13509" lon="6.12578">
        <ele>3042.1</ele>
        <time>2021-03-10T10:13:32Z</time>
      </trkpt>
      <trkpt lat="45.13508" lon="6.12578">
        <ele>3042.1</ele>
        <time>2021-03-10T10:13:33Z</time>
      </trkpt>
      <trkpt lat="45.13508" lon="6.12577">
        <ele>3042.1</ele>
        <time>2021-03-10T10:13:34Z</time>
      </trkpt>
      <trkpt lat="45.13507" lon="6.12577">
        <ele>3042.8</ele>
        <time>2021-03-10T10:13:35Z</time>
      </trkpt>
      <trkpt lat="45.13506" lon="6.12577">
        <ele>3042.8</ele>
        <time>2021-03-10T10:13:36Z</time>
      </trkpt>
      <trkpt lat="45.13505" lon="6.12577">
        <ele>3042.8</ele>
        <time>2021-03-10T10:13:37Z</time>
      </trkpt>
      <trkpt lat="45.13504" lon="6.12577">
        <ele>3042.8</ele>
        <time>2021-03-10T10:13:38Z</time>
      </trkpt>
      <trkpt lat="45.13503" lon="6.12577">
        <ele>3043.4</ele>
        <time>2021-03-10T10:13:39Z</time>
      </trkpt>
      <trkpt lat="45.13503" lon="6.12576">
        <ele>3043.4</ele>
        <time>2021-03-10T10:13:40Z</time>
      </trkpt>
      <trkpt lat="45.13502" lon="6.12576">
        <ele>3043.4</ele>
        <time>2021-03-10T10:13:41Z</time>
      </trkpt>
      <trkpt lat="45.13502" lon="6.12576">
        <ele>3043.4</ele>
        <time>2021-03-10T10:13:42Z</time>
      </trkpt>
      <trkpt lat="45.13502" lon="6.12575">
        <ele>3043.4</ele>
        <time>2021-03-10T10:13:43Z</time>
      </trkpt>
      <trkpt lat="45.13501" lon="6.12575">
        <ele>3043.4</ele>
        <time>2021-03-10T10:13:44Z</time>
      </trkpt>
      <trkpt lat="45.13501" lon="6.12575">
        <ele>3044.1</ele>
        <time>2021-03-10T10:13:45Z</time>
      </trkpt>
      <trkpt lat="45.135" lon="6.12574">
        <ele>3044.1</ele>
        <time>2021-03-10T10:13:46Z</time>
      </trkpt>
      <trkpt lat="45.135" lon="6.12574">
        <ele>3042.6</ele>
        <time>2021-03-10T10:13:47Z</time>
      </trkpt>
      <trkpt lat="45.13499" lon="6.12573">
        <ele>3042.6</ele>
        <time>2021-03-10T10:13:48Z</time>
      </trkpt>
      <trkpt lat="45.13499" lon="6.12573">
        <ele>3042.6</ele>
        <time>2021-03-10T10:13:49Z</time>
      </trkpt>
      <trkpt lat="45.13498" lon="6.12573">
        <ele>3043.2</ele>
        <time>2021-03-10T10:13:50Z</time>
      </trkpt>
      <trkpt lat="45.13497" lon="6.12572">
        <ele>3043.2</ele>
        <time>2021-03-10T10:13:51Z</time>
      </trkpt>
      <trkpt lat="45.13497" lon="6.12572">
        <ele>3043.2</ele>
        <time>2021-03-10T10:13:52Z</time>
      </trkpt>
      <trkpt lat="45.13496" lon="6.12572">
        <ele>3043.2</ele>
        <time>2021-03-10T10:13:53Z</time>
      </trkpt>
      <trkpt lat="45.13496" lon="6.12571">
        <ele>3043.2</ele>
        <time>2021-03-10T10:13:54Z</time>
      </trkpt>
      <trkpt lat="45.13496" lon="6.12571">
        <ele>3043.2</ele>
        <time>2021-03-10T10:13:55Z</time>
      </trkpt>
      <trkpt lat="45.13495" lon="6.12571">
        <ele>3043.2</ele>
        <time>2021-03-10T10:13:56Z</time>
      </trkpt>
      <trkpt lat="45.13495" lon="6.12571">
        <ele>3043.9</ele>
        <time>2021-03-10T10:13:57Z</time>
      </trkpt>
      <trkpt lat="45.13494" lon="6.12571">
        <ele>3043.9</ele>
        <time>2021-03-10T10:13:58Z</time>
      </trkpt>
      <trkpt lat="45.13494" lon="6.12571">
        <ele>3043.9</ele>
        <time>2021-03-10T10:13:59Z</time>
      </trkpt>
      <trkpt lat="45.13494" lon="6.12571">
        <ele>3043.9</ele>
        <time>2021-03-10T10:14:00Z</time>
      </trkpt>
      <trkpt lat="45.13495" lon="6.12571">
        <ele>3043.9</ele>
        <time>2021-03-10T10:14:01Z</time>
      </trkpt>
      <trkpt lat="45.13495" lon="6.12571">
        <ele>3043.9</ele>
        <time>2021-03-10T10:14:02Z</time>
      </trkpt>
      <trkpt lat="45.13495" lon="6.12571">
        <ele>3043.9</ele>
        <time>2021-03-10T10:14:03Z</time>
      </trkpt>
      <trkpt lat="45.13495" lon="6.12571">
        <ele>3043.9</ele>
        <time>2021-03-10T10:14:04Z</time>
      </trkpt>
      <trkpt lat="45.13495" lon="6.12571">
        <ele>3043.9</ele>
        <time>2021-03-10T10:14:05Z</time>
      </trkpt>
      <trkpt lat="45.13495" lon="6.12571">
        <ele>3043.9</ele>
        <time>2021-03-10T10:14:06Z</time>
      </trkpt>
      <trkpt lat="45.13495" lon="6.12571">
        <ele>3043.9</ele>
        <time>2021-03-10T10:14:07Z</time>
      </trkpt>
      <trkpt lat="45.13495" lon="6.12571">
        <ele>3043.9</ele>
        <time>2021-03-10T10:14:08Z</time>
      </trkpt>
      <trkpt lat="45.135" lon="6.12577">
        <ele>3044.1</ele>
        <time>2021-03-10T10:14:25Z</time>
      </trkpt>
      <trkpt lat="45.135" lon="6.12578">
        <ele>3044.1</ele>
        <time>2021-03-10T10:14:26Z</time>
      </trkpt>
      <trkpt lat="45.13501" lon="6.12578">
        <ele>3045.6</ele>
        <time>2021-03-10T10:14:27Z</time>
      </trkpt>
      <trkpt lat="45.13501" lon="6.12579">
        <ele>3045.6</ele>
        <time>2021-03-10T10:14:28Z</time>
      </trkpt>
      <trkpt lat="45.13501" lon="6.12579">
        <ele>3045</ele>
        <time>2021-03-10T10:14:29Z</time>
      </trkpt>
      <trkpt lat="45.13502" lon="6.1258">
        <ele>3045</ele>
        <time>2021-03-10T10:14:30Z</time>
      </trkpt>
      <trkpt lat="45.13502" lon="6.12581">
        <ele>3045</ele>
        <time>2021-03-10T10:14:31Z</time>
      </trkpt>
      <trkpt lat="45.13502" lon="6.12581">
        <ele>3045</ele>
        <time>2021-03-10T10:14:32Z</time>
      </trkpt>
      <trkpt lat="45.13502" lon="6.12582">
        <ele>3045</ele>
        <time>2021-03-10T10:14:33Z</time>
      </trkpt>
      <trkpt lat="45.13501" lon="6.12582">
        <ele>3045</ele>
        <time>2021-03-10T10:14:34Z</time>
      </trkpt>
      <trkpt lat="45.135" lon="6.12582">
        <ele>3047.3</ele>
        <time>2021-03-10T10:14:35Z</time>
      </trkpt>
      <trkpt lat="45.135" lon="6.12583">
        <ele>3047.3</ele>
        <time>2021-03-10T10:14:36Z</time>
      </trkpt>
      <trkpt lat="45.135" lon="6.12583">
        <ele>3047.3</ele>
        <time>2021-03-10T10:14:37Z</time>
      </trkpt>
      <trkpt lat="45.135" lon="6.12584">
        <ele>3047.3</ele>
        <time>2021-03-10T10:14:38Z</time>
      </trkpt>
      <trkpt lat="45.13501" lon="6.12584">
        <ele>3047.3</ele>
        <time>2021-03-10T10:14:39Z</time>
      </trkpt>
      <trkpt lat="45.13501" lon="6.12585">
        <ele>3047.3</ele>
        <time>2021-03-10T10:14:40Z</time>
      </trkpt>
      <trkpt lat="45.13501" lon="6.12585">
        <ele>3047.3</ele>
        <time>2021-03-10T10:14:41Z</time>
      </trkpt>
      <trkpt lat="45.13501" lon="6.12586">
        <ele>3047.3</ele>
        <time>2021-03-10T10:14:42Z</time>
      </trkpt>
      <trkpt lat="45.13501" lon="6.12586">
        <ele>3047.3</ele>
        <time>2021-03-10T10:14:43Z</time>
      </trkpt>
      <trkpt lat="45.13501" lon="6.12586">
        <ele>3047.3</ele>
        <time>2021-03-10T10:14:44Z</time>
      </trkpt>
      <trkpt lat="45.13501" lon="6.12587">
        <ele>3049</ele>
        <time>2021-03-10T10:14:45Z</time>
      </trkpt>
      <trkpt lat="45.13501" lon="6.12588">
        <ele>3049</ele>
        <time>2021-03-10T10:14:46Z</time>
      </trkpt>
      <trkpt lat="45.13501" lon="6.12588">
        <ele>3048.3</ele>
        <time>2021-03-10T10:14:47Z</time>
      </trkpt>
      <trkpt lat="45.13501" lon="6.12588">
        <ele>3048.3</ele>
        <time>2021-03-10T10:14:48Z</time>
      </trkpt>
      <trkpt lat="45.13502" lon="6.12589">
        <ele>3048.3</ele>
        <time>2021-03-10T10:14:49Z</time>
      </trkpt>
      <trkpt lat="45.13509" lon="6.12616">
        <ele>3058.8</ele>
        <time>2021-03-10T10:16:23Z</time>
      </trkpt>
      <trkpt lat="45.13508" lon="6.12615">
        <ele>3058.8</ele>
        <time>2021-03-10T10:16:24Z</time>
      </trkpt>
      <trkpt lat="45.13508" lon="6.12615">
        <ele>3058.8</ele>
        <time>2021-03-10T10:16:25Z</time>
      </trkpt>
      <trkpt lat="45.13507" lon="6.12615">
        <ele>3058.8</ele>
        <time>2021-03-10T10:16:26Z</time>
      </trkpt>
      <trkpt lat="45.13507" lon="6.12614">
        <ele>3059.4</ele>
        <time>2021-03-10T10:16:27Z</time>
      </trkpt>
      <trkpt lat="45.13506" lon="6.12614">
        <ele>3059.4</ele>
        <time>2021-03-10T10:16:28Z</time>
      </trkpt>
      <trkpt lat="45.13505" lon="6.12614">
        <ele>3059.4</ele>
        <time>2021-03-10T10:16:29Z</time>
      </trkpt>
      <trkpt lat="45.13505" lon="6.12613">
        <ele>3059.4</ele>
        <time>2021-03-10T10:16:30Z</time>
      </trkpt>
      <trkpt lat="45.13504" lon="6.12613">
        <ele>3060</ele>
        <time>2021-03-10T10:16:31Z</time>
      </trkpt>
      <trkpt lat="45.13503" lon="6.12612">
        <ele>3060</ele>
        <time>2021-03-10T10:16:32Z</time>
      </trkpt>
      <trkpt lat="45.13503" lon="6.12612">
        <ele>3058</ele>
        <time>2021-03-10T10:16:33Z</time>
      </trkpt>
      <trkpt lat="45.13502" lon="6.12612">
        <ele>3058</ele>
        <time>2021-03-10T10:16:34Z</time>
      </trkpt>
      <trkpt lat="45.13502" lon="6.12612">
        <ele>3058</ele>
        <time>2021-03-10T10:16:35Z</time>
      </trkpt>
      <trkpt lat="45.13501" lon="6.12612">
        <ele>3058.6</ele>
        <time>2021-03-10T10:16:36Z</time>
      </trkpt>
      <trkpt lat="45.135" lon="6.12611">
        <ele>3058.6</ele>
        <time>2021-03-10T10:16:37Z</time>
      </trkpt>
      <trkpt lat="45.13499" lon="6.12611">
        <ele>3058.6</ele>
        <time>2021-03-10T10:16:38Z</time>
      </trkpt>
      <trkpt lat="45.13499" lon="6.12611">
        <ele>3058.6</ele>
        <time>2021-03-10T10:16:39Z</time>
      </trkpt>
      <trkpt lat="45.13499" lon="6.12611">
        <ele>3058.6</ele>
        <time>2021-03-10T10:16:40Z</time>
      </trkpt>
      <trkpt lat="45.13499" lon="6.12611">
        <ele>3058.6</ele>
        <time>2021-03-10T10:16:41Z</time>
      </trkpt>
      <trkpt lat="45.13498" lon="6.1261">
        <ele>3058.6</ele>
        <time>2021-03-10T10:16:42Z</time>
      </trkpt>
      <trkpt lat="45.13498" lon="6.1261">
        <ele>3058.6</ele>
        <time>2021-03-10T10:16:43Z</time>
      </trkpt>
      <trkpt lat="45.13498" lon="6.1261">
        <ele>3059.3</ele>
        <time>2021-03-10T10:16:44Z</time>
      </trkpt>
      <trkpt lat="45.13498" lon="6.12609">
        <ele>3059.3</ele>
        <time>2021-03-10T10:16:45Z</time>
      </trkpt>
      <trkpt lat="45.13497" lon="6.12609">
        <ele>3059.3</ele>
        <time>2021-03-10T10:16:46Z</time>
      </trkpt>
      <trkpt lat="45.13497" lon="6.12609">
        <ele>3059.3</ele>
        <time>2021-03-10T10:16:47Z</time>
      </trkpt>
      <trkpt lat="45.13496" lon="6.12609">
        <ele>3059.3</ele>
        <time>2021-03-10T10:16:48Z</time>
      </trkpt>
      <trkpt lat="45.13495" lon="6.12608">
        <ele>3059.3</ele>
        <time>2021-03-10T10:16:49Z</time>
      </trkpt>
      <trkpt lat="45.13494" lon="6.12608">
        <ele>3059.9</ele>
        <time>2021-03-10T10:16:50Z</time>
      </trkpt>
      <trkpt lat="45.13494" lon="6.12608">
        <ele>3059.9</ele>
        <time>2021-03-10T10:16:51Z</time>
      </trkpt>
      <trkpt lat="45.13493" lon="6.12608">
        <ele>3057.9</ele>
        <time>2021-03-10T10:16:52Z</time>
      </trkpt>
      <trkpt lat="45.13493" lon="6.12608">
        <ele>3057.9</ele>
        <time>2021-03-10T10:16:53Z</time>
      </trkpt>
      <trkpt lat="45.13492" lon="6.12607">
        <ele>3057.9</ele>
        <time>2021-03-10T10:16:54Z</time>
      </trkpt>
      <trkpt lat="45.13491" lon="6.12607">
        <ele>3058.5</ele>
        <time>2021-03-10T10:16:55Z</time>
      </trkpt>
      <trkpt lat="45.13491" lon="6.12606">
        <ele>3058.5</ele>
        <time>2021-03-10T10:16:56Z</time>
      </trkpt>
      <trkpt lat="45.1349" lon="6.12606">
        <ele>3058.5</ele>
        <time>2021-03-10T10:16:57Z</time>
      </trkpt>
      <trkpt lat="45.13489" lon="6.12606">
        <ele>3058.5</ele>
        <time>2021-03-10T10:16:58Z</time>
      </trkpt>
      <trkpt lat="45.13489" lon="6.12605">
        <ele>3059.1</ele>
        <time>2021-03-10T10:16:59Z</time>
      </trkpt>
      <trkpt lat="45.13488" lon="6.12605">
        <ele>3059.1</ele>
        <time>2021-03-10T10:17:00Z</time>
      </trkpt>
      <trkpt lat="45.13487" lon="6.12604">
        <ele>3059.1</ele>
        <time>2021-03-10T10:17:01Z</time>
      </trkpt>
      <trkpt lat="45.13487" lon="6.12604">
        <ele>3057.1</ele>
        <time>2021-03-10T10:17:02Z</time>
      </trkpt>
      <trkpt lat="45.13486" lon="6.12603">
        <ele>3057.1</ele>
        <time>2021-03-10T10:17:03Z</time>
      </trkpt>
      <trkpt lat="45.13486" lon="6.12603">
        <ele>3057.1</ele>
        <time>2021-03-10T10:17:04Z</time>
      </trkpt>
      <trkpt lat="45.13486" lon="6.12603">
        <ele>3057.1</ele>
        <time>2021-03-10T10:17:05Z</time>
      </trkpt>
      <trkpt lat="45.13486" lon="6.12603">
        <ele>3057.1</ele>
        <time>2021-03-10T10:17:06Z</time>
      </trkpt>
      <trkpt lat="45.13486" lon="6.12603">
        <ele>3057.1</ele>
        <time>2021-03-10T10:17:07Z</time>
      </trkpt>
      <trkpt lat="45.13486" lon="6.12603">
        <ele>3057.1</ele>
        <time>2021-03-10T10:17:08Z</time>
      </trkpt>
      <trkpt lat="45.13486" lon="6.12603">
        <ele>3057.1</ele>
        <time>2021-03-10T10:17:09Z</time>
      </trkpt>
      <trkpt lat="45.13486" lon="6.12603">
        <ele>3057.1</ele>
        <time>2021-03-10T10:17:10Z</time>
      </trkpt>
      <trkpt lat="45.13486" lon="6.12603">
        <ele>3057.1</ele>
        <time>2021-03-10T10:17:11Z</time>
      </trkpt>
      <trkpt lat="45.13487" lon="6.12615">
        <ele>3063</ele>
        <time>2021-03-10T10:17:57Z</time>
      </trkpt>
      <trkpt lat="45.13486" lon="6.12615">
        <ele>3063</ele>
        <time>2021-03-10T10:17:58Z</time>
      </trkpt>
      <trkpt lat="45.13486" lon="6.12615">
        <ele>3063.5</ele>
        <time>2021-03-10T10:17:59Z</time>
      </trkpt>
      <trkpt lat="45.13485" lon="6.12615">
        <ele>3063.5</ele>
        <time>2021-03-10T10:18:00Z</time>
      </trkpt>
      <trkpt lat="45.13485" lon="6.12615">
        <ele>3063.5</ele>
        <time>2021-03-10T10:18:01Z</time>
      </trkpt>
      <trkpt lat="45.13484" lon="6.12615">
        <ele>3063.5</ele>
        <time>2021-03-10T10:18:02Z</time>
      </trkpt>
      <trkpt lat="45.13483" lon="6.12615">
        <ele>3063.5</ele>
        <time>2021-03-10T10:18:03Z</time>
      </trkpt>
      <trkpt lat="45.13483" lon="6.12615">
        <ele>3063.5</ele>
        <time>2021-03-10T10:18:04Z</time>
      </trkpt>
      <trkpt lat="45.13483" lon="6.12615">
        <ele>3064</ele>
        <time>2021-03-10T10:18:05Z</time>
      </trkpt>
      <trkpt lat="45.13482" lon="6.12615">
        <ele>3064</ele>
        <time>2021-03-10T10:18:06Z</time>
      </trkpt>
      <trkpt lat="45.13481" lon="6.12615">
        <ele>3064</ele>
        <time>2021-03-10T10:18:07Z</time>
      </trkpt>
      <trkpt lat="45.13481" lon="6.12615">
        <ele>3064</ele>
        <time>2021-03-10T10:18:08Z</time>
      </trkpt>
      <trkpt lat="45.1348" lon="6.12615">
        <ele>3064</ele>
        <time>2021-03-10T10:18:09Z</time>
      </trkpt>
      <trkpt lat="45.1348" lon="6.12615">
        <ele>3064.6</ele>
        <time>2021-03-10T10:18:10Z</time>
      </trkpt>
      <trkpt lat="45.13479" lon="6.12615">
        <ele>3064.6</ele>
        <time>2021-03-10T10:18:11Z</time>
      </trkpt>
      <trkpt lat="45.13478" lon="6.12615">
        <ele>3064.6</ele>
        <time>2021-03-10T10:18:12Z</time>
      </trkpt>
      <trkpt lat="45.13478" lon="6.12614">
        <ele>3064.6</ele>
        <time>2021-03-10T10:18:13Z</time>
      </trkpt>
      <trkpt lat="45.13477" lon="6.12614">
        <ele>3064.6</ele>
        <time>2021-03-10T10:18:14Z</time>
      </trkpt>
      <trkpt lat="45.13477" lon="6.12614">
        <ele>3064.6</ele>
        <time>2021-03-10T10:18:15Z</time>
      </trkpt>
      <trkpt lat="45.13476" lon="6.12614">
        <ele>3065.3</ele>
        <time>2021-03-10T10:18:16Z</time>
      </trkpt>
      <trkpt lat="45.13476" lon="6.12614">
        <ele>3065.3</ele>
        <time>2021-03-10T10:18:17Z</time>
      </trkpt>
      <trkpt lat="45.13475" lon="6.12614">
        <ele>3065.3</ele>
        <time>2021-03-10T10:18:18Z</time>
      </trkpt>
      <trkpt lat="45.13475" lon="6.12614">
        <ele>3065.3</ele>
        <time>2021-03-10T10:18:19Z</time>
      </trkpt>
      <trkpt lat="45.13474" lon="6.12614">
        <ele>3065.3</ele>
        <time>2021-03-10T10:18:20Z</time>
      </trkpt>
      <trkpt lat="45.13473" lon="6.12614">
        <ele>3066</ele>
        <time>2021-03-10T10:18:21Z</time>
      </trkpt>
      <trkpt lat="45.13473" lon="6.12614">
        <ele>3066</ele>
        <time>2021-03-10T10:18:22Z</time>
      </trkpt>
      <trkpt lat="45.13472" lon="6.12614">
        <ele>3066</ele>
        <time>2021-03-10T10:18:23Z</time>
      </trkpt>
      <trkpt lat="45.13471" lon="6.12613">
        <ele>3066</ele>
        <time>2021-03-10T10:18:24Z</time>
      </trkpt>
      <trkpt lat="45.13471" lon="6.12613">
        <ele>3066</ele>
        <time>2021-03-10T10:18:25Z</time>
      </trkpt>
      <trkpt lat="45.1347" lon="6.12614">
        <ele>3066.7</ele>
        <time>2021-03-10T10:18:26Z</time>
      </trkpt>
      <trkpt lat="45.1347" lon="6.12614">
        <ele>3066.7</ele>
        <time>2021-03-10T10:18:27Z</time>
      </trkpt>
      <trkpt lat="45.13469" lon="6.12614">
        <ele>3066.7</ele>
        <time>2021-03-10T10:18:28Z</time>
      </trkpt>
      <trkpt lat="45.13469" lon="6.12614">
        <ele>3066.7</ele>
        <time>2021-03-10T10:18:29Z</time>
      </trkpt>
      <trkpt lat="45.13468" lon="6.12614">
        <ele>3066.7</ele>
        <time>2021-03-10T10:18:30Z</time>
      </trkpt>
      <trkpt lat="45.13468" lon="6.12613">
        <ele>3067.4</ele>
        <time>2021-03-10T10:18:31Z</time>
      </trkpt>
      <trkpt lat="45.13467" lon="6.12613">
        <ele>3067.4</ele>
        <time>2021-03-10T10:18:32Z</time>
      </trkpt>
      <trkpt lat="45.13467" lon="6.12613">
        <ele>3067.4</ele>
        <time>2021-03-10T10:18:33Z</time>
      </trkpt>
      <trkpt lat="45.13466" lon="6.12613">
        <ele>3067.4</ele>
        <time>2021-03-10T10:18:34Z</time>
      </trkpt>
      <trkpt lat="45.13466" lon="6.12613">
        <ele>3067.4</ele>
        <time>2021-03-10T10:18:35Z</time>
      </trkpt>
      <trkpt lat="45.13465" lon="6.12613">
        <ele>3067.4</ele>
        <time>2021-03-10T10:18:36Z</time>
      </trkpt>
      <trkpt lat="45.13464" lon="6.12613">
        <ele>3068.1</ele>
        <time>2021-03-10T10:18:37Z</time>
      </trkpt>
      <trkpt lat="45.13463" lon="6.12613">
        <ele>3068.1</ele>
        <time>2021-03-10T10:18:38Z</time>
      </trkpt>
      <trkpt lat="45.13463" lon="6.12612">
        <ele>3068.1</ele>
        <time>2021-03-10T10:18:39Z</time>
      </trkpt>
      <trkpt lat="45.13462" lon="6.12612">
        <ele>3068.1</ele>
        <time>2021-03-10T10:18:40Z</time>
      </trkpt>
      <trkpt lat="45.13462" lon="6.12612">
        <ele>3068.1</ele>
        <time>2021-03-10T10:18:41Z</time>
      </trkpt>
      <trkpt lat="45.13461" lon="6.12612">
        <ele>3068.7</ele>
        <time>2021-03-10T10:18:42Z</time>
      </trkpt>
      <trkpt lat="45.13461" lon="6.12612">
        <ele>3068.7</ele>
        <time>2021-03-10T10:18:43Z</time>
      </trkpt>
      <trkpt lat="45.1346" lon="6.12613">
        <ele>3068.7</ele>
        <time>2021-03-10T10:18:44Z</time>
      </trkpt>
      <trkpt lat="45.1346" lon="6.12613">
        <ele>3068.7</ele>
        <time>2021-03-10T10:18:45Z</time>
      </trkpt>
      <trkpt lat="45.13459" lon="6.12613">
        <ele>3068.7</ele>
        <time>2021-03-10T10:18:46Z</time>
      </trkpt>
      <trkpt lat="45.13458" lon="6.12613">
        <ele>3069.3</ele>
        <time>2021-03-10T10:18:47Z</time>
      </trkpt>
      <trkpt lat="45.13458" lon="6.12613">
        <ele>3069.3</ele>
        <time>2021-03-10T10:18:48Z</time>
      </trkpt>
      <trkpt lat="45.13457" lon="6.12614">
        <ele>3069.3</ele>
        <time>2021-03-10T10:18:49Z</time>
      </trkpt>
      <trkpt lat="45.13457" lon="6.12614">
        <ele>3069.3</ele>
        <time>2021-03-10T10:18:50Z</time>
      </trkpt>
      <trkpt lat="45.13456" lon="6.12613">
        <ele>3069.3</ele>
        <time>2021-03-10T10:18:51Z</time>
      </trkpt>
      <trkpt lat="45.13456" lon="6.12613">
        <ele>3070</ele>
        <time>2021-03-10T10:18:52Z</time>
      </trkpt>
      <trkpt lat="45.13455" lon="6.12613">
        <ele>3070</ele>
        <time>2021-03-10T10:18:53Z</time>
      </trkpt>
      <trkpt lat="45.13454" lon="6.12613">
        <ele>3070</ele>
        <time>2021-03-10T10:18:54Z</time>
      </trkpt>
      <trkpt lat="45.13454" lon="6.12613">
        <ele>3070</ele>
        <time>2021-03-10T10:18:55Z</time>
      </trkpt>
      <trkpt lat="45.13453" lon="6.12613">
        <ele>3070</ele>
        <time>2021-03-10T10:18:56Z</time>
      </trkpt>
      <trkpt lat="45.13453" lon="6.12613">
        <ele>3070</ele>
        <time>2021-03-10T10:18:57Z</time>
      </trkpt>
      <trkpt lat="45.13452" lon="6.12613">
        <ele>3070.7</ele>
        <time>2021-03-10T10:18:58Z</time>
      </trkpt>
      <trkpt lat="45.13452" lon="6.12613">
        <ele>3070.7</ele>
        <time>2021-03-10T10:18:59Z</time>
      </trkpt>
      <trkpt lat="45.13451" lon="6.12613">
        <ele>3070.7</ele>
        <time>2021-03-10T10:19:00Z</time>
      </trkpt>
      <trkpt lat="45.13451" lon="6.12613">
        <ele>3070.7</ele>
        <time>2021-03-10T10:19:01Z</time>
      </trkpt>
      <trkpt lat="45.13451" lon="6.12613">
        <ele>3070.7</ele>
        <time>2021-03-10T10:19:02Z</time>
      </trkpt>
      <trkpt lat="45.1345" lon="6.12613">
        <ele>3070.7</ele>
        <time>2021-03-10T10:19:03Z</time>
      </trkpt>
      <trkpt lat="45.1345" lon="6.12613">
        <ele>3070.7</ele>
        <time>2021-03-10T10:19:04Z</time>
      </trkpt>
      <trkpt lat="45.13449" lon="6.12613">
        <ele>3071.5</ele>
        <time>2021-03-10T10:19:05Z</time>
      </trkpt>
      <trkpt lat="45.13449" lon="6.12613">
        <ele>3071.5</ele>
        <time>2021-03-10T10:19:06Z</time>
      </trkpt>
      <trkpt lat="45.13448" lon="6.12614">
        <ele>3071.5</ele>
        <time>2021-03-10T10:19:07Z</time>
      </trkpt>
      <trkpt lat="45.13448" lon="6.12614">
        <ele>3071.5</ele>
        <time>2021-03-10T10:19:08Z</time>
      </trkpt>
      <trkpt lat="45.13447" lon="6.12614">
        <ele>3071.5</ele>
        <time>2021-03-10T10:19:09Z</time>
      </trkpt>
      <trkpt lat="45.13447" lon="6.12614">
        <ele>3071.5</ele>
        <time>2021-03-10T10:19:10Z</time>
      </trkpt>
      <trkpt lat="45.13446" lon="6.12614">
        <ele>3072.3</ele>
        <time>2021-03-10T10:19:11Z</time>
      </trkpt>
      <trkpt lat="45.13446" lon="6.12614">
        <ele>3072.3</ele>
        <time>2021-03-10T10:19:12Z</time>
      </trkpt>
      <trkpt lat="45.13445" lon="6.12614">
        <ele>3072.3</ele>
        <time>2021-03-10T10:19:13Z</time>
      </trkpt>
      <trkpt lat="45.13444" lon="6.12614">
        <ele>3072.3</ele>
        <time>2021-03-10T10:19:14Z</time>
      </trkpt>
      <trkpt lat="45.13443" lon="6.12614">
        <ele>3073.1</ele>
        <time>2021-03-10T10:19:15Z</time>
      </trkpt>
      <trkpt lat="45.13443" lon="6.12614">
        <ele>3073.1</ele>
        <time>2021-03-10T10:19:16Z</time>
      </trkpt>
      <trkpt lat="45.13442" lon="6.12615">
        <ele>3073.1</ele>
        <time>2021-03-10T10:19:17Z</time>
      </trkpt>
      <trkpt lat="45.13441" lon="6.12615">
        <ele>3073.1</ele>
        <time>2021-03-10T10:19:18Z</time>
      </trkpt>
      <trkpt lat="45.13441" lon="6.12615">
        <ele>3073.1</ele>
        <time>2021-03-10T10:19:19Z</time>
      </trkpt>
      <trkpt lat="45.13441" lon="6.12615">
        <ele>3073.1</ele>
        <time>2021-03-10T10:19:20Z</time>
      </trkpt>
      <trkpt lat="45.13441" lon="6.12615">
        <ele>3073.1</ele>
        <time>2021-03-10T10:19:21Z</time>
      </trkpt>
      <trkpt lat="45.13441" lon="6.12615">
        <ele>3073.1</ele>
        <time>2021-03-10T10:19:22Z</time>
      </trkpt>
      <trkpt lat="45.13441" lon="6.12615">
        <ele>3073.1</ele>
        <time>2021-03-10T10:19:23Z</time>
      </trkpt>
      <trkpt lat="45.13441" lon="6.12615">
        <ele>3073.1</ele>
        <time>2021-03-10T10:19:24Z</time>
      </trkpt>
      <trkpt lat="45.13441" lon="6.12615">
        <ele>3073.1</ele>
        <time>2021-03-10T10:19:25Z</time>
      </trkpt>
      <trkpt lat="45.13441" lon="6.12615">
        <ele>3073.1</ele>
        <time>2021-03-10T10:19:26Z</time>
      </trkpt>
      <trkpt lat="45.13441" lon="6.12615">
        <ele>3073.1</ele>
        <time>2021-03-10T10:19:27Z</time>
      </trkpt>
      <trkpt lat="45.13441" lon="6.12615">
        <ele>3073.1</ele>
        <time>2021-03-10T10:19:28Z</time>
      </trkpt>
      <trkpt lat="45.13436" lon="6.12621">
        <ele>3076.5</ele>
        <time>2021-03-10T10:34:49Z</time>
      </trkpt>
      <trkpt lat="45.13436" lon="6.12621">
        <ele>3078.4</ele>
        <time>2021-03-10T10:34:50Z</time>
      </trkpt>
      <trkpt lat="45.13436" lon="6.12622">
        <ele>3078.4</ele>
        <time>2021-03-10T10:34:51Z</time>
      </trkpt>
      <trkpt lat="45.13435" lon="6.12622">
        <ele>3078.4</ele>
        <time>2021-03-10T10:34:52Z</time>
      </trkpt>
      <trkpt lat="45.13435" lon="6.12622">
        <ele>3078.4</ele>
        <time>2021-03-10T10:34:53Z</time>
      </trkpt>
      <trkpt lat="45.13435" lon="6.12622">
        <ele>3078.4</ele>
        <time>2021-03-10T10:34:54Z</time>
      </trkpt>
      <trkpt lat="45.13435" lon="6.12622">
        <ele>3078.4</ele>
        <time>2021-03-10T10:34:55Z</time>
      </trkpt>
      <trkpt lat="45.13435" lon="6.12622">
        <ele>3078.4</ele>
        <time>2021-03-10T10:34:56Z</time>
      </trkpt>
      <trkpt lat="45.13435" lon="6.12622">
        <ele>3078.4</ele>
        <time>2021-03-10T10:34:57Z</time>
      </trkpt>
      <trkpt lat="45.13435" lon="6.12622">
        <ele>3078.4</ele>
        <time>2021-03-10T10:34:58Z</time>
      </trkpt>
      <trkpt lat="45.13435" lon="6.12622">
        <ele>3078.4</ele>
        <time>2021-03-10T10:34:59Z</time>
      </trkpt>
      <trkpt lat="45.13435" lon="6.12633">
        <ele>3082</ele>
        <time>2021-03-10T10:36:10Z</time>
      </trkpt>
      <trkpt lat="45.13435" lon="6.12633">
        <ele>3082</ele>
        <time>2021-03-10T10:36:11Z</time>
      </trkpt>
      <trkpt lat="45.13435" lon="6.12634">
        <ele>3082</ele>
        <time>2021-03-10T10:36:12Z</time>
      </trkpt>
      <trkpt lat="45.13435" lon="6.12634">
        <ele>3084</ele>
        <time>2021-03-10T10:36:13Z</time>
      </trkpt>
      <trkpt lat="45.13435" lon="6.12635">
        <ele>3084</ele>
        <time>2021-03-10T10:36:14Z</time>
      </trkpt>
      <trkpt lat="45.13435" lon="6.12635">
        <ele>3084</ele>
        <time>2021-03-10T10:36:15Z</time>
      </trkpt>
      <trkpt lat="45.13435" lon="6.12636">
        <ele>3084</ele>
        <time>2021-03-10T10:36:16Z</time>
      </trkpt>
      <trkpt lat="45.13435" lon="6.12636">
        <ele>3084</ele>
        <time>2021-03-10T10:36:17Z</time>
      </trkpt>
      <trkpt lat="45.13435" lon="6.12637">
        <ele>3084</ele>
        <time>2021-03-10T10:36:18Z</time>
      </trkpt>
      <trkpt lat="45.13435" lon="6.12637">
        <ele>3084</ele>
        <time>2021-03-10T10:36:19Z</time>
      </trkpt>
      <trkpt lat="45.13486" lon="6.12924">
        <ele>3223.5</ele>
        <time>2021-03-10T11:00:20Z</time>
      </trkpt>
      <trkpt lat="45.13485" lon="6.12924">
        <ele>3223.5</ele>
        <time>2021-03-10T11:00:21Z</time>
      </trkpt>
      <trkpt lat="45.13485" lon="6.12925">
        <ele>3223.5</ele>
        <time>2021-03-10T11:00:22Z</time>
      </trkpt>
      <trkpt lat="45.13484" lon="6.12926">
        <ele>3225.6</ele>
        <time>2021-03-10T11:00:23Z</time>
      </trkpt>
      <trkpt lat="45.13484" lon="6.12927">
        <ele>3225.6</ele>
        <time>2021-03-10T11:00:24Z</time>
      </trkpt>
      <trkpt lat="45.13483" lon="6.12928">
        <ele>3225.6</ele>
        <time>2021-03-10T11:00:25Z</time>
      </trkpt>
      <trkpt lat="45.13483" lon="6.1293">
        <ele>3228</ele>
        <time>2021-03-10T11:00:26Z</time>
      </trkpt>
      <trkpt lat="45.13483" lon="6.1293">
        <ele>3228</ele>
        <time>2021-03-10T11:00:27Z</time>
      </trkpt>
      <trkpt lat="45.13483" lon="6.1293">
        <ele>3228</ele>
        <time>2021-03-10T11:00:28Z</time>
      </trkpt>
      <trkpt lat="45.13483" lon="6.1293">
        <ele>3228</ele>
        <time>2021-03-10T11:00:29Z</time>
      </trkpt>
      <trkpt lat="45.13483" lon="6.12932">
        <ele>3227.6</ele>
        <time>2021-03-10T11:00:30Z</time>
      </trkpt>
      <trkpt lat="45.13487" lon="6.12931">
        <ele>3227.2</ele>
        <time>2021-03-10T11:00:53Z</time>
      </trkpt>
      <trkpt lat="45.13487" lon="6.12931">
        <ele>3227.2</ele>
        <time>2021-03-10T11:00:54Z</time>
      </trkpt>
      <trkpt lat="45.13487" lon="6.12931">
        <ele>3227.2</ele>
        <time>2021-03-10T11:00:55Z</time>
      </trkpt>
      <trkpt lat="45.13488" lon="6.12932">
        <ele>3227.2</ele>
        <time>2021-03-10T11:00:56Z</time>
      </trkpt>
      <trkpt lat="45.13488" lon="6.12932">
        <ele>3227.2</ele>
        <time>2021-03-10T11:00:57Z</time>
      </trkpt>
      <trkpt lat="45.13488" lon="6.12933">
        <ele>3227.2</ele>
        <time>2021-03-10T11:00:58Z</time>
      </trkpt>
      <trkpt lat="45.13488" lon="6.12932">
        <ele>3227.2</ele>
        <time>2021-03-10T11:00:59Z</time>
      </trkpt>
      <trkpt lat="45.13489" lon="6.12932">
        <ele>3227.2</ele>
        <time>2021-03-10T11:01:00Z</time>
      </trkpt>
      <trkpt lat="45.13489" lon="6.12933">
        <ele>3227.2</ele>
        <time>2021-03-10T11:01:01Z</time>
      </trkpt>
      <trkpt lat="45.13489" lon="6.12934">
        <ele>3227.2</ele>
        <time>2021-03-10T11:01:02Z</time>
      </trkpt>
      <trkpt lat="45.13488" lon="6.12937">
        <ele>3229</ele>
        <time>2021-03-10T11:01:04Z</time>
      </trkpt>
      <trkpt lat="45.13487" lon="6.12938">
        <ele>3229</ele>
        <time>2021-03-10T11:01:05Z</time>
      </trkpt>
      <trkpt lat="45.13487" lon="6.12939">
        <ele>3230.9</ele>
        <time>2021-03-10T11:01:06Z</time>
      </trkpt>
      <trkpt lat="45.13487" lon="6.12939">
        <ele>3230.9</ele>
        <time>2021-03-10T11:01:07Z</time>
      </trkpt>
      <trkpt lat="45.13487" lon="6.12939">
        <ele>3230.9</ele>
        <time>2021-03-10T11:01:08Z</time>
      </trkpt>
      <trkpt lat="45.13487" lon="6.12939">
        <ele>3230.9</ele>
        <time>2021-03-10T11:01:09Z</time>
      </trkpt>
      <trkpt lat="45.13487" lon="6.12939">
        <ele>3230.9</ele>
        <time>2021-03-10T11:01:10Z</time>
      </trkpt>
      <trkpt lat="45.13487" lon="6.12939">
        <ele>3230.9</ele>
        <time>2021-03-10T11:01:11Z</time>
      </trkpt>
      <trkpt lat="45.13487" lon="6.12939">
        <ele>3230.9</ele>
        <time>2021-03-10T11:01:12Z</time>
      </trkpt>
      <trkpt lat="45.13484" lon="6.1294">
        <ele>3231.3</ele>
        <time>2021-03-10T11:01:13Z</time>
      </trkpt>
      <trkpt lat="45.13484" lon="6.1294">
        <ele>3231.3</ele>
        <time>2021-03-10T11:01:14Z</time>
      </trkpt>
      <trkpt lat="45.13484" lon="6.1294">
        <ele>3231.3</ele>
        <time>2021-03-10T11:01:15Z</time>
      </trkpt>
      <trkpt lat="45.13485" lon="6.12943">
        <ele>3233.2</ele>
        <time>2021-03-10T11:02:07Z</time>
      </trkpt>
      <trkpt lat="45.13486" lon="6.12942">
        <ele>3231.3</ele>
        <time>2021-03-10T11:02:08Z</time>
      </trkpt>
      <trkpt lat="45.13486" lon="6.12942">
        <ele>3231.3</ele>
        <time>2021-03-10T11:02:09Z</time>
      </trkpt>
      <trkpt lat="45.13485" lon="6.12942">
        <ele>3231.3</ele>
        <time>2021-03-10T11:02:10Z</time>
      </trkpt>
      <trkpt lat="45.13484" lon="6.12942">
        <ele>3231.3</ele>
        <time>2021-03-10T11:02:11Z</time>
      </trkpt>
      <trkpt lat="45.13484" lon="6.12942">
        <ele>3231.3</ele>
        <time>2021-03-10T11:02:12Z</time>
      </trkpt>
      <trkpt lat="45.13484" lon="6.12942">
        <ele>3231.3</ele>
        <time>2021-03-10T11:02:13Z</time>
      </trkpt>
      <trkpt lat="45.13483" lon="6.12943">
        <ele>3233.7</ele>
        <time>2021-03-10T11:02:14Z</time>
      </trkpt>
      <trkpt lat="45.13482" lon="6.12944">
        <ele>3233.7</ele>
        <time>2021-03-10T11:02:15Z</time>
      </trkpt>
      <trkpt lat="45.13482" lon="6.12944">
        <ele>3233.7</ele>
        <time>2021-03-10T11:02:16Z</time>
      </trkpt>
      <trkpt lat="45.13482" lon="6.12944">
        <ele>3233.7</ele>
        <time>2021-03-10T11:02:17Z</time>
      </trkpt>
      <trkpt lat="45.13482" lon="6.12944">
        <ele>3233.7</ele>
        <time>2021-03-10T11:02:18Z</time>
      </trkpt>
      <trkpt lat="45.13481" lon="6.12952">
        <ele>3237.6</ele>
        <time>2021-03-10T11:03:03Z</time>
      </trkpt>
      <trkpt lat="45.13481" lon="6.12952">
        <ele>3237.6</ele>
        <time>2021-03-10T11:03:04Z</time>
      </trkpt>
      <trkpt lat="45.13482" lon="6.12951">
        <ele>3235.6</ele>
        <time>2021-03-10T11:03:05Z</time>
      </trkpt>
      <trkpt lat="45.13483" lon="6.12949">
        <ele>3235.1</ele>
        <time>2021-03-10T11:03:06Z</time>
      </trkpt>
      <trkpt lat="45.13483" lon="6.12949">
        <ele>3235.1</ele>
        <time>2021-03-10T11:03:07Z</time>
      </trkpt>
      <trkpt lat="45.13483" lon="6.12949">
        <ele>3235.1</ele>
        <time>2021-03-10T11:03:08Z</time>
      </trkpt>
      <trkpt lat="45.13484" lon="6.12949">
        <ele>3235.1</ele>
        <time>2021-03-10T11:03:09Z</time>
      </trkpt>
      <trkpt lat="45.13484" lon="6.12949">
        <ele>3235.1</ele>
        <time>2021-03-10T11:03:10Z</time>
      </trkpt>
      <trkpt lat="45.13484" lon="6.12949">
        <ele>3235.1</ele>
        <time>2021-03-10T11:03:11Z</time>
      </trkpt>
      <trkpt lat="45.13484" lon="6.12949">
        <ele>3235.1</ele>
        <time>2021-03-10T11:03:12Z</time>
      </trkpt>
      <trkpt lat="45.13484" lon="6.12949">
        <ele>3235.1</ele>
        <time>2021-03-10T11:03:13Z</time>
      </trkpt>
      <trkpt lat="45.13484" lon="6.12949">
        <ele>3235.1</ele>
        <time>2021-03-10T11:04:52Z</time>
      </trkpt>
      <trkpt lat="45.13484" lon="6.12949">
        <ele>3235.1</ele>
        <time>2021-03-10T11:04:53Z</time>
      </trkpt>
      <trkpt lat="45.13484" lon="6.12949">
        <ele>3235.1</ele>
        <time>2021-03-10T11:04:54Z</time>
      </trkpt>
      <trkpt lat="45.13485" lon="6.12948">
        <ele>3235.1</ele>
        <time>2021-03-10T11:04:55Z</time>
      </trkpt>
      <trkpt lat="45.13486" lon="6.12948">
        <ele>3234.7</ele>
        <time>2021-03-10T11:04:56Z</time>
      </trkpt>
      <trkpt lat="45.13486" lon="6.12948">
        <ele>3234.7</ele>
        <time>2021-03-10T11:04:57Z</time>
      </trkpt>
      <trkpt lat="45.13486" lon="6.12948">
        <ele>3235.1</ele>
        <time>2021-03-10T11:04:58Z</time>
      </trkpt>
      <trkpt lat="45.13485" lon="6.12949">
        <ele>3235.1</ele>
        <time>2021-03-10T11:04:59Z</time>
      </trkpt>
      <trkpt lat="45.13485" lon="6.12949">
        <ele>3235.1</ele>
        <time>2021-03-10T11:05:00Z</time>
      </trkpt>
      <trkpt lat="45.13485" lon="6.1295">
        <ele>3235.1</ele>
        <time>2021-03-10T11:05:01Z</time>
      </trkpt>
      <trkpt lat="45.13485" lon="6.1295">
        <ele>3235.1</ele>
        <time>2021-03-10T11:05:02Z</time>
      </trkpt>
      <trkpt lat="45.13474" lon="6.12962">
        <ele>3243</ele>
        <time>2021-03-10T11:05:54Z</time>
      </trkpt>
      <trkpt lat="45.13473" lon="6.12962">
        <ele>3243.9</ele>
        <time>2021-03-10T11:05:55Z</time>
      </trkpt>
      <trkpt lat="45.13473" lon="6.12963">
        <ele>3243.9</ele>
        <time>2021-03-10T11:05:56Z</time>
      </trkpt>
      <trkpt lat="45.13472" lon="6.12963">
        <ele>3243.9</ele>
        <time>2021-03-10T11:05:57Z</time>
      </trkpt>
      <trkpt lat="45.13472" lon="6.12963">
        <ele>3243.9</ele>
        <time>2021-03-10T11:05:58Z</time>
      </trkpt>
      <trkpt lat="45.13471" lon="6.12964">
        <ele>3243.9</ele>
        <time>2021-03-10T11:05:59Z</time>
      </trkpt>
      <trkpt lat="45.13471" lon="6.12964">
        <ele>3244.9</ele>
        <time>2021-03-10T11:06:00Z</time>
      </trkpt>
      <trkpt lat="45.1347" lon="6.12965">
        <ele>3247</ele>
        <time>2021-03-10T11:06:01Z</time>
      </trkpt>
      <trkpt lat="45.1347" lon="6.12965">
        <ele>3247</ele>
        <time>2021-03-10T11:06:02Z</time>
      </trkpt>
      <trkpt lat="45.13468" lon="6.12966">
        <ele>3247</ele>
        <time>2021-03-10T11:06:03Z</time>
      </trkpt>
      <trkpt lat="45.13468" lon="6.12967">
        <ele>3248</ele>
        <time>2021-03-10T11:06:04Z</time>
      </trkpt>
      <trkpt lat="45.13468" lon="6.12967">
        <ele>3247</ele>
        <time>2021-03-10T11:06:05Z</time>
      </trkpt>
      <trkpt lat="45.13469" lon="6.12966">
        <ele>3247</ele>
        <time>2021-03-10T11:06:06Z</time>
      </trkpt>
      <trkpt lat="45.1347" lon="6.12965">
        <ele>3247</ele>
        <time>2021-03-10T11:06:07Z</time>
      </trkpt>
      <trkpt lat="45.1347" lon="6.12965">
        <ele>3247</ele>
        <time>2021-03-10T11:06:08Z</time>
      </trkpt>
      <trkpt lat="45.1347" lon="6.12965">
        <ele>3247</ele>
        <time>2021-03-10T11:06:09Z</time>
      </trkpt>
      <trkpt lat="45.13471" lon="6.12965">
        <ele>3246</ele>
        <time>2021-03-10T11:06:10Z</time>
      </trkpt>
      <trkpt lat="45.13472" lon="6.12965">
        <ele>3246</ele>
        <time>2021-03-10T11:06:11Z</time>
      </trkpt>
      <trkpt lat="45.13472" lon="6.12965">
        <ele>3246</ele>
        <time>2021-03-10T11:06:12Z</time>
      </trkpt>
      <trkpt lat="45.13472" lon="6.12965">
        <ele>3246</ele>
        <time>2021-03-10T11:06:13Z</time>
      </trkpt>
      <trkpt lat="45.13472" lon="6.12965">
        <ele>3246</ele>
        <time>2021-03-10T11:06:14Z</time>
      </trkpt>
      <trkpt lat="45.13473" lon="6.12964">
        <ele>3243.9</ele>
        <time>2021-03-10T11:06:15Z</time>
      </trkpt>
      <trkpt lat="45.13475" lon="6.12964">
        <ele>3245.1</ele>
        <time>2021-03-10T11:06:38Z</time>
      </trkpt>
      <trkpt lat="45.13473" lon="6.12967">
        <ele>3246</ele>
        <time>2021-03-10T11:06:39Z</time>
      </trkpt>
      <trkpt lat="45.13471" lon="6.12968">
        <ele>3246</ele>
        <time>2021-03-10T11:06:40Z</time>
      </trkpt>
      <trkpt lat="45.13471" lon="6.12968">
        <ele>3246</ele>
        <time>2021-03-10T11:06:41Z</time>
      </trkpt>
      <trkpt lat="45.1347" lon="6.12968">
        <ele>3247</ele>
        <time>2021-03-10T11:06:42Z</time>
      </trkpt>
      <trkpt lat="45.13469" lon="6.12967">
        <ele>3247</ele>
        <time>2021-03-10T11:06:43Z</time>
      </trkpt>
      <trkpt lat="45.13468" lon="6.12968">
        <ele>3247</ele>
        <time>2021-03-10T11:06:44Z</time>
      </trkpt>
      <trkpt lat="45.13467" lon="6.12968">
        <ele>3248</ele>
        <time>2021-03-10T11:06:45Z</time>
      </trkpt>
      <trkpt lat="45.13467" lon="6.12969">
        <ele>3250.2</ele>
        <time>2021-03-10T11:06:46Z</time>
      </trkpt>
      <trkpt lat="45.13466" lon="6.1297">
        <ele>3250.2</ele>
        <time>2021-03-10T11:06:47Z</time>
      </trkpt>
      <trkpt lat="45.13466" lon="6.12969">
        <ele>3250.2</ele>
        <time>2021-03-10T11:06:48Z</time>
      </trkpt>
      <trkpt lat="45.13467" lon="6.12969">
        <ele>3250.2</ele>
        <time>2021-03-10T11:06:49Z</time>
      </trkpt>
      <trkpt lat="45.13467" lon="6.12968">
        <ele>3248</ele>
        <time>2021-03-10T11:06:50Z</time>
      </trkpt>
      <trkpt lat="45.13468" lon="6.12968">
        <ele>3247</ele>
        <time>2021-03-10T11:07:20Z</time>
      </trkpt>
      <trkpt lat="45.13468" lon="6.12968">
        <ele>3247</ele>
        <time>2021-03-10T11:07:21Z</time>
      </trkpt>
      <trkpt lat="45.13468" lon="6.12968">
        <ele>3247</ele>
        <time>2021-03-10T11:07:22Z</time>
      </trkpt>
      <trkpt lat="45.13468" lon="6.12968">
        <ele>3247</ele>
        <time>2021-03-10T11:07:23Z</time>
      </trkpt>
      <trkpt lat="45.13468" lon="6.12968">
        <ele>3247</ele>
        <time>2021-03-10T11:07:24Z</time>
      </trkpt>
      <trkpt lat="45.13468" lon="6.12968">
        <ele>3247</ele>
        <time>2021-03-10T11:07:25Z</time>
      </trkpt>
      <trkpt lat="45.13468" lon="6.12968">
        <ele>3247</ele>
        <time>2021-03-10T11:07:26Z</time>
      </trkpt>
      <trkpt lat="45.1347" lon="6.12966">
        <ele>3247</ele>
        <time>2021-03-10T11:07:27Z</time>
      </trkpt>
      <trkpt lat="45.1347" lon="6.12966">
        <ele>3247</ele>
        <time>2021-03-10T11:07:28Z</time>
      </trkpt>
      <trkpt lat="45.1347" lon="6.12966">
        <ele>3247</ele>
        <time>2021-03-10T11:07:29Z</time>
      </trkpt>
      <trkpt lat="45.1347" lon="6.12965">
        <ele>3247</ele>
        <time>2021-03-10T11:08:14Z</time>
      </trkpt>
      <trkpt lat="45.1347" lon="6.12965">
        <ele>3247</ele>
        <time>2021-03-10T11:08:15Z</time>
      </trkpt>
      <trkpt lat="45.1347" lon="6.12965">
        <ele>3247</ele>
        <time>2021-03-10T11:08:16Z</time>
      </trkpt>
      <trkpt lat="45.1347" lon="6.12965">
        <ele>3247</ele>
        <time>2021-03-10T11:08:17Z</time>
      </trkpt>
      <trkpt lat="45.13469" lon="6.12966">
        <ele>3247</ele>
        <time>2021-03-10T11:08:18Z</time>
      </trkpt>
      <trkpt lat="45.13468" lon="6.12966">
        <ele>3247</ele>
        <time>2021-03-10T11:08:19Z</time>
      </trkpt>
      <trkpt lat="45.13468" lon="6.12966">
        <ele>3247</ele>
        <time>2021-03-10T11:08:20Z</time>
      </trkpt>
      <trkpt lat="45.13468" lon="6.12966">
        <ele>3247</ele>
        <time>2021-03-10T11:08:21Z</time>
      </trkpt>
      <trkpt lat="45.13468" lon="6.12966">
        <ele>3247</ele>
        <time>2021-03-10T11:08:22Z</time>
      </trkpt>
      <trkpt lat="45.13466" lon="6.12967">
        <ele>3248</ele>
        <time>2021-03-10T11:08:23Z</time>
      </trkpt>
      <trkpt lat="45.13466" lon="6.12968">
        <ele>3248</ele>
        <time>2021-03-10T11:08:24Z</time>
      </trkpt>
      <trkpt lat="45.13462" lon="6.12973">
        <ele>3253.4</ele>
        <time>2021-03-10T11:09:15Z</time>
      </trkpt>
      <trkpt lat="45.13462" lon="6.12975">
        <ele>3254.4</ele>
        <time>2021-03-10T11:09:16Z</time>
      </trkpt>
      <trkpt lat="45.13462" lon="6.12975">
        <ele>3254.4</ele>
        <time>2021-03-10T11:09:17Z</time>
      </trkpt>
      <trkpt lat="45.1346" lon="6.12977">
        <ele>3254.4</ele>
        <time>2021-03-10T11:09:18Z</time>
      </trkpt>
      <trkpt lat="45.1346" lon="6.12977">
        <ele>3254.4</ele>
        <time>2021-03-10T11:09:19Z</time>
      </trkpt>
      <trkpt lat="45.1346" lon="6.12976">
        <ele>3254.4</ele>
        <time>2021-03-10T11:09:20Z</time>
      </trkpt>
      <trkpt lat="45.13461" lon="6.12976">
        <ele>3254.4</ele>
        <time>2021-03-10T11:09:21Z</time>
      </trkpt>
      <trkpt lat="45.13461" lon="6.12976">
        <ele>3254.4</ele>
        <time>2021-03-10T11:09:22Z</time>
      </trkpt>
      <trkpt lat="45.13461" lon="6.12976">
        <ele>3254.4</ele>
        <time>2021-03-10T11:09:23Z</time>
      </trkpt>
      <trkpt lat="45.13461" lon="6.12977">
        <ele>3254.4</ele>
        <time>2021-03-10T11:09:24Z</time>
      </trkpt>
      <trkpt lat="45.13458" lon="6.12983">
        <ele>3259.6</ele>
        <time>2021-03-10T11:09:57Z</time>
      </trkpt>
      <trkpt lat="45.13458" lon="6.12983">
        <ele>3259.6</ele>
        <time>2021-03-10T11:09:58Z</time>
      </trkpt>
      <trkpt lat="45.13458" lon="6.12983">
        <ele>3259.6</ele>
        <time>2021-03-10T11:09:59Z</time>
      </trkpt>
      <trkpt lat="45.13459" lon="6.12982">
        <ele>3258.5</ele>
        <time>2021-03-10T11:10:00Z</time>
      </trkpt>
      <trkpt lat="45.13459" lon="6.12981">
        <ele>3256.5</ele>
        <time>2021-03-10T11:10:01Z</time>
      </trkpt>
      <trkpt lat="45.13459" lon="6.12981">
        <ele>3256.5</ele>
        <time>2021-03-10T11:10:02Z</time>
      </trkpt>
      <trkpt lat="45.1346" lon="6.1298">
        <ele>3256.5</ele>
        <time>2021-03-10T11:10:03Z</time>
      </trkpt>
      <trkpt lat="45.13461" lon="6.1298">
        <ele>3256.5</ele>
        <time>2021-03-10T11:10:04Z</time>
      </trkpt>
      <trkpt lat="45.13461" lon="6.1298">
        <ele>3256.5</ele>
        <time>2021-03-10T11:10:05Z</time>
      </trkpt>
      <trkpt lat="45.13461" lon="6.1298">
        <ele>3256.5</ele>
        <time>2021-03-10T11:10:06Z</time>
      </trkpt>
      <trkpt lat="45.13461" lon="6.1298">
        <ele>3256.5</ele>
        <time>2021-03-10T11:10:07Z</time>
      </trkpt>
      <trkpt lat="45.13458" lon="6.12982">
        <ele>3259.6</ele>
        <time>2021-03-10T11:10:34Z</time>
      </trkpt>
      <trkpt lat="45.13458" lon="6.12982">
        <ele>3259.6</ele>
        <time>2021-03-10T11:10:35Z</time>
      </trkpt>
      <trkpt lat="45.13457" lon="6.12982">
        <ele>3259.6</ele>
        <time>2021-03-10T11:10:36Z</time>
      </trkpt>
      <trkpt lat="45.13457" lon="6.12982">
        <ele>3259.6</ele>
        <time>2021-03-10T11:10:37Z</time>
      </trkpt>
      <trkpt lat="45.13457" lon="6.12982">
        <ele>3259.6</ele>
        <time>2021-03-10T11:10:38Z</time>
      </trkpt>
      <trkpt lat="45.13456" lon="6.12982">
        <ele>3259.6</ele>
        <time>2021-03-10T11:10:39Z</time>
      </trkpt>
      <trkpt lat="45.13456" lon="6.12982">
        <ele>3259.6</ele>
        <time>2021-03-10T11:10:40Z</time>
      </trkpt>
      <trkpt lat="45.13456" lon="6.12983">
        <ele>3259.6</ele>
        <time>2021-03-10T11:10:41Z</time>
      </trkpt>
      <trkpt lat="45.13456" lon="6.12983">
        <ele>3259.6</ele>
        <time>2021-03-10T11:10:42Z</time>
      </trkpt>
      <trkpt lat="45.13456" lon="6.12983">
        <ele>3259.6</ele>
        <time>2021-03-10T11:10:43Z</time>
      </trkpt>
      <trkpt lat="45.13456" lon="6.12983">
        <ele>3259.6</ele>
        <time>2021-03-10T11:10:44Z</time>
      </trkpt>
      <trkpt lat="45.13456" lon="6.12984">
        <ele>3260.8</ele>
        <time>2021-03-10T11:10:45Z</time>
      </trkpt>
      <trkpt lat="45.13455" lon="6.12984">
        <ele>3260.8</ele>
        <time>2021-03-10T11:10:46Z</time>
      </trkpt>
      <trkpt lat="45.13455" lon="6.12984">
        <ele>3260.8</ele>
        <time>2021-03-10T11:10:47Z</time>
      </trkpt>
      <trkpt lat="45.13423" lon="6.13032">
        <ele>3300.2</ele>
        <time>2021-03-10T11:22:59Z</time>
      </trkpt>
      <trkpt lat="45.13423" lon="6.13032">
        <ele>3300.2</ele>
        <time>2021-03-10T11:23:00Z</time>
      </trkpt>
      <trkpt lat="45.13423" lon="6.13032">
        <ele>3300.2</ele>
        <time>2021-03-10T11:23:01Z</time>
      </trkpt>
      <trkpt lat="45.13423" lon="6.13032">
        <ele>3300.2</ele>
        <time>2021-03-10T11:23:02Z</time>
      </trkpt>
      <trkpt lat="45.13423" lon="6.13032">
        <ele>3300.2</ele>
        <time>2021-03-10T11:23:03Z</time>
      </trkpt>
      <trkpt lat="45.13423" lon="6.13032">
        <ele>3300.2</ele>
        <time>2021-03-10T11:23:04Z</time>
      </trkpt>
      <trkpt lat="45.13423" lon="6.13032">
        <ele>3300.2</ele>
        <time>2021-03-10T11:23:05Z</time>
      </trkpt>
      <trkpt lat="45.13423" lon="6.13032">
        <ele>3300.2</ele>
        <time>2021-03-10T11:23:06Z</time>
      </trkpt>
      <trkpt lat="45.13423" lon="6.13032">
        <ele>3300.2</ele>
        <time>2021-03-10T11:23:07Z</time>
      </trkpt>
      <trkpt lat="45.13423" lon="6.13032">
        <ele>3300.2</ele>
        <time>2021-03-10T11:23:08Z</time>
      </trkpt>
      <trkpt lat="45.13414" lon="6.1304">
        <ele>3310.2</ele>
        <time>2021-03-10T11:28:02Z</time>
      </trkpt>
      <trkpt lat="45.13414" lon="6.1304">
        <ele>3310.2</ele>
        <time>2021-03-10T11:28:03Z</time>
      </trkpt>
      <trkpt lat="45.13414" lon="6.1304">
        <ele>3310.2</ele>
        <time>2021-03-10T11:28:04Z</time>
      </trkpt>
      <trkpt lat="45.13414" lon="6.1304">
        <ele>3310.2</ele>
        <time>2021-03-10T11:28:05Z</time>
      </trkpt>
      <trkpt lat="45.13414" lon="6.1304">
        <ele>3310.2</ele>
        <time>2021-03-10T11:28:06Z</time>
      </trkpt>
      <trkpt lat="45.13415" lon="6.13041">
        <ele>3310.2</ele>
        <time>2021-03-10T11:28:07Z</time>
      </trkpt>
      <trkpt lat="45.13415" lon="6.13041">
        <ele>3310.2</ele>
        <time>2021-03-10T11:28:08Z</time>
      </trkpt>
      <trkpt lat="45.13415" lon="6.13041">
        <ele>3310.2</ele>
        <time>2021-03-10T11:28:09Z</time>
      </trkpt>
      <trkpt lat="45.13415" lon="6.13041">
        <ele>3310.2</ele>
        <time>2021-03-10T11:28:10Z</time>
      </trkpt>
      <trkpt lat="45.13415" lon="6.1304">
        <ele>3310.2</ele>
        <time>2021-03-10T11:28:11Z</time>
      </trkpt>
      <trkpt lat="45.13425" lon="6.13086">
        <ele>3320.1</ele>
        <time>2021-03-10T11:37:21Z</time>
      </trkpt>
      <trkpt lat="45.13425" lon="6.13086">
        <ele>3320.1</ele>
        <time>2021-03-10T11:37:22Z</time>
      </trkpt>
      <trkpt lat="45.13425" lon="6.13086">
        <ele>3320.1</ele>
        <time>2021-03-10T11:37:23Z</time>
      </trkpt>
      <trkpt lat="45.13425" lon="6.13086">
        <ele>3320.1</ele>
        <time>2021-03-10T11:37:24Z</time>
      </trkpt>
      <trkpt lat="45.13425" lon="6.13086">
        <ele>3320.1</ele>
        <time>2021-03-10T11:37:25Z</time>
      </trkpt>
      <trkpt lat="45.13425" lon="6.13086">
        <ele>3320.1</ele>
        <time>2021-03-10T11:37:26Z</time>
      </trkpt>
      <trkpt lat="45.13425" lon="6.13086">
        <ele>3320.1</ele>
        <time>2021-03-10T11:37:27Z</time>
      </trkpt>
      <trkpt lat="45.13425" lon="6.13086">
        <ele>3320.1</ele>
        <time>2021-03-10T11:37:28Z</time>
      </trkpt>
      <trkpt lat="45.13425" lon="6.13086">
        <ele>3320.1</ele>
        <time>2021-03-10T11:37:29Z</time>
      </trkpt>
      <trkpt lat="45.13425" lon="6.13086">
        <ele>3320.1</ele>
        <time>2021-03-10T11:37:30Z</time>
      </trkpt>
      <trkpt lat="45.13434" lon="6.13086">
        <ele>3316.4</ele>
        <time>2021-03-10T11:40:01Z</time>
      </trkpt>
      <trkpt lat="45.13435" lon="6.13086">
        <ele>3315.2</ele>
        <time>2021-03-10T11:40:02Z</time>
      </trkpt>
      <trkpt lat="45.13435" lon="6.13087">
        <ele>3315.2</ele>
        <time>2021-03-10T11:40:03Z</time>
      </trkpt>
      <trkpt lat="45.13437" lon="6.13087">
        <ele>3315.2</ele>
        <time>2021-03-10T11:40:04Z</time>
      </trkpt>
      <trkpt lat="45.13437" lon="6.13087">
        <ele>3315.2</ele>
        <time>2021-03-10T11:40:05Z</time>
      </trkpt>
      <trkpt lat="45.13438" lon="6.13088">
        <ele>3314</ele>
        <time>2021-03-10T11:40:06Z</time>
      </trkpt>
      <trkpt lat="45.13438" lon="6.13089">
        <ele>3315.3</ele>
        <time>2021-03-10T11:40:07Z</time>
      </trkpt>
      <trkpt lat="45.13438" lon="6.13089">
        <ele>3315.3</ele>
        <time>2021-03-10T11:40:08Z</time>
      </trkpt>
      <trkpt lat="45.13439" lon="6.1309">
        <ele>3315.3</ele>
        <time>2021-03-10T11:40:09Z</time>
      </trkpt>
      <trkpt lat="45.1344" lon="6.13091">
        <ele>3315.3</ele>
        <time>2021-03-10T11:40:10Z</time>
      </trkpt>
      <trkpt lat="45.1344" lon="6.13091">
        <ele>3315.3</ele>
        <time>2021-03-10T11:40:11Z</time>
      </trkpt>
      <trkpt lat="45.13441" lon="6.13092">
        <ele>3314.2</ele>
        <time>2021-03-10T11:40:12Z</time>
      </trkpt>
      <trkpt lat="45.13441" lon="6.13092">
        <ele>3314.2</ele>
        <time>2021-03-10T11:40:13Z</time>
      </trkpt>
      <trkpt lat="45.13442" lon="6.13092">
        <ele>3314.2</ele>
        <time>2021-03-10T11:40:14Z</time>
      </trkpt>
      <trkpt lat="45.13443" lon="6.13092">
        <ele>3314.2</ele>
        <time>2021-03-10T11:40:15Z</time>
      </trkpt>
      <trkpt lat="45.13443" lon="6.13092">
        <ele>3314.2</ele>
        <time>2021-03-10T11:40:16Z</time>
      </trkpt>
      <trkpt lat="45.13444" lon="6.13092">
        <ele>3313</ele>
        <time>2021-03-10T11:40:17Z</time>
      </trkpt>
      <trkpt lat="45.13444" lon="6.13093">
        <ele>3313</ele>
        <time>2021-03-10T11:40:18Z</time>
      </trkpt>
      <trkpt lat="45.13445" lon="6.13094">
        <ele>3314.4</ele>
        <time>2021-03-10T11:40:19Z</time>
      </trkpt>
      <trkpt lat="45.13446" lon="6.13095">
        <ele>3314.4</ele>
        <time>2021-03-10T11:40:20Z</time>
      </trkpt>
      <trkpt lat="45.13446" lon="6.13095">
        <ele>3314.4</ele>
        <time>2021-03-10T11:40:21Z</time>
      </trkpt>
      <trkpt lat="45.13447" lon="6.13096">
        <ele>3313.3</ele>
        <time>2021-03-10T11:40:22Z</time>
      </trkpt>
      <trkpt lat="45.13448" lon="6.13096">
        <ele>3313.3</ele>
        <time>2021-03-10T11:40:23Z</time>
      </trkpt>
      <trkpt lat="45.13449" lon="6.13097">
        <ele>3313.3</ele>
        <time>2021-03-10T11:40:24Z</time>
      </trkpt>
      <trkpt lat="45.1345" lon="6.13098">
        <ele>3313.7</ele>
        <time>2021-03-10T11:40:25Z</time>
      </trkpt>
      <trkpt lat="45.13451" lon="6.13098">
        <ele>3313.7</ele>
        <time>2021-03-10T11:40:26Z</time>
      </trkpt>
      <trkpt lat="45.13451" lon="6.13098">
        <ele>3313.7</ele>
        <time>2021-03-10T11:40:27Z</time>
      </trkpt>
      <trkpt lat="45.13452" lon="6.13098">
        <ele>3313.7</ele>
        <time>2021-03-10T11:40:28Z</time>
      </trkpt>
      <trkpt lat="45.13453" lon="6.13098">
        <ele>3312.8</ele>
        <time>2021-03-10T11:40:29Z</time>
      </trkpt>
      <trkpt lat="45.13453" lon="6.13098">
        <ele>3312.8</ele>
        <time>2021-03-10T11:40:30Z</time>
      </trkpt>
      <trkpt lat="45.13453" lon="6.13098">
        <ele>3312.8</ele>
        <time>2021-03-10T11:40:31Z</time>
      </trkpt>
      <trkpt lat="45.13453" lon="6.13098">
        <ele>3312.8</ele>
        <time>2021-03-10T11:40:32Z</time>
      </trkpt>
      <trkpt lat="45.13453" lon="6.13098">
        <ele>3312.8</ele>
        <time>2021-03-10T11:40:33Z</time>
      </trkpt>
      <trkpt lat="45.13453" lon="6.13098">
        <ele>3312.8</ele>
        <time>2021-03-10T11:40:34Z</time>
      </trkpt>
      <trkpt lat="45.13453" lon="6.13098">
        <ele>3312.8</ele>
        <time>2021-03-10T11:40:35Z</time>
      </trkpt>
      <trkpt lat="45.13453" lon="6.13098">
        <ele>3313.7</ele>
        <time>2021-03-10T11:40:36Z</time>
      </trkpt>
      <trkpt lat="45.13453" lon="6.13098">
        <ele>3313.7</ele>
        <time>2021-03-10T11:40:37Z</time>
      </trkpt>
      <trkpt lat="45.13453" lon="6.13098">
        <ele>3313.7</ele>
        <time>2021-03-10T11:40:38Z</time>
      </trkpt>
      <trkpt lat="45.13453" lon="6.13098">
        <ele>3312.8</ele>
        <time>2021-03-10T11:40:39Z</time>
      </trkpt>
      <trkpt lat="45.13453" lon="6.13099">
        <ele>3312.8</ele>
        <time>2021-03-10T11:40:40Z</time>
      </trkpt>
      <trkpt lat="45.13453" lon="6.131">
        <ele>3313.7</ele>
        <time>2021-03-10T11:40:41Z</time>
      </trkpt>
      <trkpt lat="45.13452" lon="6.13101">
        <ele>3313.7</ele>
        <time>2021-03-10T11:40:42Z</time>
      </trkpt>
      <trkpt lat="45.13452" lon="6.13102">
        <ele>3315.1</ele>
        <time>2021-03-10T11:40:43Z</time>
      </trkpt>
      <trkpt lat="45.13451" lon="6.13103">
        <ele>3315.1</ele>
        <time>2021-03-10T11:40:44Z</time>
      </trkpt>
      <trkpt lat="45.13451" lon="6.13103">
        <ele>3315.1</ele>
        <time>2021-03-10T11:40:45Z</time>
      </trkpt>
      <trkpt lat="45.13451" lon="6.13103">
        <ele>3315.1</ele>
        <time>2021-03-10T11:40:46Z</time>
      </trkpt>
      <trkpt lat="45.13451" lon="6.13103">
        <ele>3315.1</ele>
        <time>2021-03-10T11:40:47Z</time>
      </trkpt>
      <trkpt lat="45.13451" lon="6.13103">
        <ele>3315.1</ele>
        <time>2021-03-10T11:40:48Z</time>
      </trkpt>
      <trkpt lat="45.13451" lon="6.13103">
        <ele>3315.1</ele>
        <time>2021-03-10T11:40:49Z</time>
      </trkpt>
      <trkpt lat="45.13451" lon="6.13103">
        <ele>3315.1</ele>
        <time>2021-03-10T11:40:50Z</time>
      </trkpt>
      <trkpt lat="45.13459" lon="6.131">
        <ele>3311.2</ele>
        <time>2021-03-10T11:41:33Z</time>
      </trkpt>
      <trkpt lat="45.1346" lon="6.131">
        <ele>3311.2</ele>
        <time>2021-03-10T11:41:34Z</time>
      </trkpt>
      <trkpt lat="45.1346" lon="6.131">
        <ele>3311.2</ele>
        <time>2021-03-10T11:41:35Z</time>
      </trkpt>
      <trkpt lat="45.1346" lon="6.131">
        <ele>3311.2</ele>
        <time>2021-03-10T11:41:36Z</time>
      </trkpt>
      <trkpt lat="45.1346" lon="6.131">
        <ele>3311.2</ele>
        <time>2021-03-10T11:41:37Z</time>
      </trkpt>
      <trkpt lat="45.1346" lon="6.131">
        <ele>3311.2</ele>
        <time>2021-03-10T11:41:38Z</time>
      </trkpt>
      <trkpt lat="45.1346" lon="6.131">
        <ele>3311.2</ele>
        <time>2021-03-10T11:41:39Z</time>
      </trkpt>
      <trkpt lat="45.1346" lon="6.131">
        <ele>3311.2</ele>
        <time>2021-03-10T11:41:40Z</time>
      </trkpt>
      <trkpt lat="45.1346" lon="6.131">
        <ele>3311.2</ele>
        <time>2021-03-10T11:41:41Z</time>
      </trkpt>
      <trkpt lat="45.1346" lon="6.131">
        <ele>3311.2</ele>
        <time>2021-03-10T11:41:42Z</time>
      </trkpt>
      <trkpt lat="45.1346" lon="6.131">
        <ele>3311.2</ele>
        <time>2021-03-10T11:41:43Z</time>
      </trkpt>
      <trkpt lat="45.1346" lon="6.131">
        <ele>3311.2</ele>
        <time>2021-03-10T11:41:44Z</time>
      </trkpt>
      <trkpt lat="45.1346" lon="6.131">
        <ele>3311.2</ele>
        <time>2021-03-10T11:41:45Z</time>
      </trkpt>
      <trkpt lat="45.13458" lon="6.131">
        <ele>3312</ele>
        <time>2021-03-10T11:44:47Z</time>
      </trkpt>
      <trkpt lat="45.13458" lon="6.131">
        <ele>3312</ele>
        <time>2021-03-10T11:44:48Z</time>
      </trkpt>
      <trkpt lat="45.13458" lon="6.131">
        <ele>3312</ele>
        <time>2021-03-10T11:44:49Z</time>
      </trkpt>
      <trkpt lat="45.13458" lon="6.131">
        <ele>3312</ele>
        <time>2021-03-10T11:44:50Z</time>
      </trkpt>
      <trkpt lat="45.13458" lon="6.131">
        <ele>3312</ele>
        <time>2021-03-10T11:44:51Z</time>
      </trkpt>
      <trkpt lat="45.13458" lon="6.13099">
        <ele>3312</ele>
        <time>2021-03-10T11:44:52Z</time>
      </trkpt>
      <trkpt lat="45.13458" lon="6.13099">
        <ele>3312</ele>
        <time>2021-03-10T11:44:53Z</time>
      </trkpt>
      <trkpt lat="45.13458" lon="6.13099">
        <ele>3312</ele>
        <time>2021-03-10T11:44:54Z</time>
      </trkpt>
      <trkpt lat="45.13458" lon="6.13099">
        <ele>3312</ele>
        <time>2021-03-10T11:44:55Z</time>
      </trkpt>
      <trkpt lat="45.13458" lon="6.13098">
        <ele>3312</ele>
        <time>2021-03-10T11:44:56Z</time>
      </trkpt>
      <trkpt lat="45.13458" lon="6.13098">
        <ele>3312</ele>
        <time>2021-03-10T11:44:57Z</time>
      </trkpt>
      <trkpt lat="45.13458" lon="6.13098">
        <ele>3312</ele>
        <time>2021-03-10T11:44:58Z</time>
      </trkpt>
      <trkpt lat="45.13458" lon="6.13098">
        <ele>3312</ele>
        <time>2021-03-10T11:44:59Z</time>
      </trkpt>
      <trkpt lat="45.13458" lon="6.13098">
        <ele>3312</ele>
        <time>2021-03-10T11:45:00Z</time>
      </trkpt>
      <trkpt lat="45.13458" lon="6.13098">
        <ele>3312</ele>
        <time>2021-03-10T11:45:01Z</time>
      </trkpt>
      <trkpt lat="45.13458" lon="6.13098">
        <ele>3312</ele>
        <time>2021-03-10T11:45:02Z</time>
      </trkpt>
      <trkpt lat="45.13458" lon="6.13098">
        <ele>3312</ele>
        <time>2021-03-10T11:45:03Z</time>
      </trkpt>
      <trkpt lat="45.13457" lon="6.13097">
        <ele>3310.4</ele>
        <time>2021-03-10T11:45:04Z</time>
      </trkpt>
      <trkpt lat="45.13457" lon="6.13098">
        <ele>3312</ele>
        <time>2021-03-10T11:45:05Z</time>
      </trkpt>
      <trkpt lat="45.13453" lon="6.13103">
        <ele>3314.2</ele>
        <time>2021-03-10T11:45:22Z</time>
      </trkpt>
      <trkpt lat="45.13453" lon="6.13103">
        <ele>3314.2</ele>
        <time>2021-03-10T11:45:23Z</time>
      </trkpt>
      <trkpt lat="45.13453" lon="6.13103">
        <ele>3314.2</ele>
        <time>2021-03-10T11:45:24Z</time>
      </trkpt>
      <trkpt lat="45.13453" lon="6.13103">
        <ele>3314.2</ele>
        <time>2021-03-10T11:45:25Z</time>
      </trkpt>
      <trkpt lat="45.13453" lon="6.13103">
        <ele>3314.2</ele>
        <time>2021-03-10T11:45:26Z</time>
      </trkpt>
      <trkpt lat="45.13453" lon="6.13103">
        <ele>3314.2</ele>
        <time>2021-03-10T11:45:27Z</time>
      </trkpt>
      <trkpt lat="45.13453" lon="6.13101">
        <ele>3313.7</ele>
        <time>2021-03-10T11:45:28Z</time>
      </trkpt>
      <trkpt lat="45.13453" lon="6.13101">
        <ele>3313.7</ele>
        <time>2021-03-10T11:45:29Z</time>
      </trkpt>
      <trkpt lat="45.13453" lon="6.13101">
        <ele>3313.7</ele>
        <time>2021-03-10T11:45:30Z</time>
      </trkpt>
      <trkpt lat="45.13453" lon="6.13101">
        <ele>3313.7</ele>
        <time>2021-03-10T11:45:31Z</time>
      </trkpt>
      <trkpt lat="45.13453" lon="6.13101">
        <ele>3313.7</ele>
        <time>2021-03-10T11:45:32Z</time>
      </trkpt>
      <trkpt lat="45.1345" lon="6.13096">
        <ele>3312.3</ele>
        <time>2021-03-10T11:59:19Z</time>
      </trkpt>
      <trkpt lat="45.13449" lon="6.13096">
        <ele>3313.3</ele>
        <time>2021-03-10T11:59:20Z</time>
      </trkpt>
      <trkpt lat="45.13449" lon="6.13096">
        <ele>3313.3</ele>
        <time>2021-03-10T11:59:21Z</time>
      </trkpt>
      <trkpt lat="45.13449" lon="6.13096">
        <ele>3313.3</ele>
        <time>2021-03-10T11:59:22Z</time>
      </trkpt>
      <trkpt lat="45.13448" lon="6.13096">
        <ele>3313.3</ele>
        <time>2021-03-10T11:59:23Z</time>
      </trkpt>
      <trkpt lat="45.13448" lon="6.13096">
        <ele>3313.3</ele>
        <time>2021-03-10T11:59:24Z</time>
      </trkpt>
      <trkpt lat="45.13448" lon="6.13097">
        <ele>3313.3</ele>
        <time>2021-03-10T11:59:25Z</time>
      </trkpt>
      <trkpt lat="45.13448" lon="6.13097">
        <ele>3314.7</ele>
        <time>2021-03-10T11:59:26Z</time>
      </trkpt>
      <trkpt lat="45.13448" lon="6.13098">
        <ele>3314.7</ele>
        <time>2021-03-10T11:59:27Z</time>
      </trkpt>
      <trkpt lat="45.13448" lon="6.13098">
        <ele>3314.7</ele>
        <time>2021-03-10T11:59:28Z</time>
      </trkpt>
      <trkpt lat="45.13448" lon="6.13098">
        <ele>3314.7</ele>
        <time>2021-03-10T11:59:29Z</time>
      </trkpt>
      <trkpt lat="45.13448" lon="6.13098">
        <ele>3314.7</ele>
        <time>2021-03-10T11:59:30Z</time>
      </trkpt>
      <trkpt lat="45.13448" lon="6.13098">
        <ele>3314.7</ele>
        <time>2021-03-10T11:59:31Z</time>
      </trkpt>
      <trkpt lat="45.13448" lon="6.13098">
        <ele>3314.7</ele>
        <time>2021-03-10T11:59:32Z</time>
      </trkpt>
      <trkpt lat="45.13448" lon="6.13098">
        <ele>3314.7</ele>
        <time>2021-03-10T11:59:33Z</time>
      </trkpt>
      <trkpt lat="45.13448" lon="6.13098">
        <ele>3314.7</ele>
        <time>2021-03-10T11:59:34Z</time>
      </trkpt>
      <trkpt lat="45.13448" lon="6.13098">
        <ele>3314.7</ele>
        <time>2021-03-10T11:59:35Z</time>
      </trkpt>
      <trkpt lat="45.13456" lon="6.13106">
        <ele>3313.5</ele>
        <time>2021-03-10T12:03:51Z</time>
      </trkpt>
      <trkpt lat="45.13455" lon="6.13106">
        <ele>3315.6</ele>
        <time>2021-03-10T12:03:52Z</time>
      </trkpt>
      <trkpt lat="45.13454" lon="6.13106">
        <ele>3314.2</ele>
        <time>2021-03-10T12:03:53Z</time>
      </trkpt>
      <trkpt lat="45.13454" lon="6.13104">
        <ele>3314.2</ele>
        <time>2021-03-10T12:03:54Z</time>
      </trkpt>
      <trkpt lat="45.13454" lon="6.13104">
        <ele>3314.2</ele>
        <time>2021-03-10T12:03:55Z</time>
      </trkpt>
      <trkpt lat="45.13454" lon="6.13104">
        <ele>3314.2</ele>
        <time>2021-03-10T12:03:56Z</time>
      </trkpt>
      <trkpt lat="45.13454" lon="6.13104">
        <ele>3314.2</ele>
        <time>2021-03-10T12:03:57Z</time>
      </trkpt>
      <trkpt lat="45.13454" lon="6.13104">
        <ele>3314.2</ele>
        <time>2021-03-10T12:03:58Z</time>
      </trkpt>
      <trkpt lat="45.13454" lon="6.13104">
        <ele>3314.2</ele>
        <time>2021-03-10T12:03:59Z</time>
      </trkpt>
      <trkpt lat="45.13454" lon="6.13104">
        <ele>3314.2</ele>
        <time>2021-03-10T12:04:00Z</time>
      </trkpt>
      <trkpt lat="45.13454" lon="6.13104">
        <ele>3314.2</ele>
        <time>2021-03-10T12:04:01Z</time>
      </trkpt>
      <trkpt lat="45.13454" lon="6.13104">
        <ele>3314.2</ele>
        <time>2021-03-10T12:04:02Z</time>
      </trkpt>
      <trkpt lat="45.13454" lon="6.13104">
        <ele>3314.2</ele>
        <time>2021-03-10T12:04:03Z</time>
      </trkpt>
      <trkpt lat="45.13454" lon="6.13104">
        <ele>3314.2</ele>
        <time>2021-03-10T12:04:04Z</time>
      </trkpt>
      <trkpt lat="45.13454" lon="6.13104">
        <ele>3314.2</ele>
        <time>2021-03-10T12:04:05Z</time>
      </trkpt>
      <trkpt lat="45.1345" lon="6.13104">
        <ele>3315.1</ele>
        <time>2021-03-10T12:04:34Z</time>
      </trkpt>
      <trkpt lat="45.1345" lon="6.13104">
        <ele>3315.1</ele>
        <time>2021-03-10T12:04:35Z</time>
      </trkpt>
      <trkpt lat="45.1345" lon="6.13104">
        <ele>3315.1</ele>
        <time>2021-03-10T12:04:36Z</time>
      </trkpt>
      <trkpt lat="45.1345" lon="6.13104">
        <ele>3315.1</ele>
        <time>2021-03-10T12:04:37Z</time>
      </trkpt>
      <trkpt lat="45.1345" lon="6.13103">
        <ele>3315.1</ele>
        <time>2021-03-10T12:04:38Z</time>
      </trkpt>
      <trkpt lat="45.13451" lon="6.13102">
        <ele>3315.1</ele>
        <time>2021-03-10T12:04:39Z</time>
      </trkpt>
      <trkpt lat="45.13452" lon="6.13101">
        <ele>3313.7</ele>
        <time>2021-03-10T12:04:40Z</time>
      </trkpt>
      <trkpt lat="45.13452" lon="6.13101">
        <ele>3313.7</ele>
        <time>2021-03-10T12:04:41Z</time>
      </trkpt>
      <trkpt lat="45.13452" lon="6.131">
        <ele>3313.7</ele>
        <time>2021-03-10T12:04:42Z</time>
      </trkpt>
      <trkpt lat="45.13452" lon="6.13099">
        <ele>3313.7</ele>
        <time>2021-03-10T12:04:43Z</time>
      </trkpt>
      <trkpt lat="45.13452" lon="6.13099">
        <ele>3313.7</ele>
        <time>2021-03-10T12:04:44Z</time>
      </trkpt>
      <trkpt lat="45.13452" lon="6.13099">
        <ele>3313.7</ele>
        <time>2021-03-10T12:04:45Z</time>
      </trkpt>
      <trkpt lat="45.13452" lon="6.13099">
        <ele>3313.7</ele>
        <time>2021-03-10T12:04:46Z</time>
      </trkpt>
      <trkpt lat="45.13452" lon="6.13099">
        <ele>3313.7</ele>
        <time>2021-03-10T12:04:47Z</time>
      </trkpt>
      <trkpt lat="45.13452" lon="6.13099">
        <ele>3313.7</ele>
        <time>2021-03-10T12:04:48Z</time>
      </trkpt>
      <trkpt lat="45.13452" lon="6.13099">
        <ele>3313.7</ele>
        <time>2021-03-10T12:04:49Z</time>
      </trkpt>
      <trkpt lat="45.13452" lon="6.13099">
        <ele>3313.7</ele>
        <time>2021-03-10T12:04:50Z</time>
      </trkpt>
      <trkpt lat="45.13452" lon="6.13099">
        <ele>3313.7</ele>
        <time>2021-03-10T12:04:51Z</time>
      </trkpt>
      <trkpt lat="45.13451" lon="6.13106">
        <ele>3316.4</ele>
        <time>2021-03-10T12:07:22Z</time>
      </trkpt>
      <trkpt lat="45.1345" lon="6.13109">
        <ele>3316.4</ele>
        <time>2021-03-10T12:07:23Z</time>
      </trkpt>
      <trkpt lat="45.13451" lon="6.13114">
        <ele>3317.6</ele>
        <time>2021-03-10T12:07:24Z</time>
      </trkpt>
      <trkpt lat="45.13452" lon="6.13116">
        <ele>3318.7</ele>
        <time>2021-03-10T12:07:25Z</time>
      </trkpt>
      <trkpt lat="45.13454" lon="6.1312">
        <ele>3319</ele>
        <time>2021-03-10T12:07:26Z</time>
      </trkpt>
      <trkpt lat="45.13456" lon="6.13124">
        <ele>3319.4</ele>
        <time>2021-03-10T12:07:27Z</time>
      </trkpt>
      <trkpt lat="45.13457" lon="6.13128">
        <ele>3320.3</ele>
        <time>2021-03-10T12:07:28Z</time>
      </trkpt>
      <trkpt lat="45.13459" lon="6.13133">
        <ele>3320.7</ele>
        <time>2021-03-10T12:07:29Z</time>
      </trkpt>
      <trkpt lat="45.13461" lon="6.13139">
        <ele>3321.6</ele>
        <time>2021-03-10T12:07:30Z</time>
      </trkpt>
      <trkpt lat="45.13464" lon="6.13144">
        <ele>3321.9</ele>
        <time>2021-03-10T12:07:31Z</time>
      </trkpt>
      <trkpt lat="45.13466" lon="6.13149">
        <ele>3322.3</ele>
        <time>2021-03-10T12:07:32Z</time>
      </trkpt>
      <trkpt lat="45.13469" lon="6.13154">
        <ele>3323.5</ele>
        <time>2021-03-10T12:07:33Z</time>
      </trkpt>
      <trkpt lat="45.13472" lon="6.13161">
        <ele>3323.9</ele>
        <time>2021-03-10T12:07:34Z</time>
      </trkpt>
      <trkpt lat="45.13475" lon="6.13168">
        <ele>3325.1</ele>
        <time>2021-03-10T12:07:35Z</time>
      </trkpt>
      <trkpt lat="45.13478" lon="6.13177">
        <ele>3326.2</ele>
        <time>2021-03-10T12:07:36Z</time>
      </trkpt>
      <trkpt lat="45.13482" lon="6.13182">
        <ele>3326.7</ele>
        <time>2021-03-10T12:07:37Z</time>
      </trkpt>
      <trkpt lat="45.13485" lon="6.13188">
        <ele>3327.8</ele>
        <time>2021-03-10T12:07:38Z</time>
      </trkpt>
      <trkpt lat="45.13489" lon="6.13191">
        <ele>3328.4</ele>
        <time>2021-03-10T12:07:39Z</time>
      </trkpt>
      <trkpt lat="45.13492" lon="6.13196">
        <ele>3328.8</ele>
        <time>2021-03-10T12:07:40Z</time>
      </trkpt>
      <trkpt lat="45.13494" lon="6.132">
        <ele>3329.6</ele>
        <time>2021-03-10T12:07:41Z</time>
      </trkpt>
      <trkpt lat="45.13492" lon="6.13204">
        <ele>3329.9</ele>
        <time>2021-03-10T12:07:42Z</time>
      </trkpt>
      <trkpt lat="45.13491" lon="6.13206">
        <ele>3329.6</ele>
        <time>2021-03-10T12:07:43Z</time>
      </trkpt>
      <trkpt lat="45.13486" lon="6.13207">
        <ele>3328.7</ele>
        <time>2021-03-10T12:07:44Z</time>
      </trkpt>
      <trkpt lat="45.1348" lon="6.13205">
        <ele>3328.3</ele>
        <time>2021-03-10T12:07:45Z</time>
      </trkpt>
      <trkpt lat="45.13475" lon="6.13203">
        <ele>3327.4</ele>
        <time>2021-03-10T12:07:46Z</time>
      </trkpt>
      <trkpt lat="45.1347" lon="6.13202">
        <ele>3326.7</ele>
        <time>2021-03-10T12:07:47Z</time>
      </trkpt>
      <trkpt lat="45.13464" lon="6.13201">
        <ele>3326.2</ele>
        <time>2021-03-10T12:07:48Z</time>
      </trkpt>
      <trkpt lat="45.13459" lon="6.13198">
        <ele>3326.3</ele>
        <time>2021-03-10T12:07:49Z</time>
      </trkpt>
      <trkpt lat="45.13454" lon="6.13196">
        <ele>3326.3</ele>
        <time>2021-03-10T12:07:50Z</time>
      </trkpt>
      <trkpt lat="45.13451" lon="6.13194">
        <ele>3326.3</ele>
        <time>2021-03-10T12:07:51Z</time>
      </trkpt>
      <trkpt lat="45.13446" lon="6.13193">
        <ele>3326.1</ele>
        <time>2021-03-10T12:07:52Z</time>
      </trkpt>
      <trkpt lat="45.13441" lon="6.13193">
        <ele>3326.1</ele>
        <time>2021-03-10T12:07:53Z</time>
      </trkpt>
      <trkpt lat="45.13436" lon="6.13193">
        <ele>3326.3</ele>
        <time>2021-03-10T12:07:54Z</time>
      </trkpt>
      <trkpt lat="45.13431" lon="6.13192">
        <ele>3326.5</ele>
        <time>2021-03-10T12:07:55Z</time>
      </trkpt>
      <trkpt lat="45.13425" lon="6.13193">
        <ele>3326.9</ele>
        <time>2021-03-10T12:07:56Z</time>
      </trkpt>
      <trkpt lat="45.1342" lon="6.13192">
        <ele>3327.1</ele>
        <time>2021-03-10T12:07:57Z</time>
      </trkpt>
      <trkpt lat="45.13414" lon="6.13192">
        <ele>3327.5</ele>
        <time>2021-03-10T12:07:58Z</time>
      </trkpt>
      <trkpt lat="45.13409" lon="6.13191">
        <ele>3328.5</ele>
        <time>2021-03-10T12:07:59Z</time>
      </trkpt>
      <trkpt lat="45.13404" lon="6.1319">
        <ele>3328.9</ele>
        <time>2021-03-10T12:08:00Z</time>
      </trkpt>
      <trkpt lat="45.134" lon="6.13189">
        <ele>3329.1</ele>
        <time>2021-03-10T12:08:01Z</time>
      </trkpt>
      <trkpt lat="45.13395" lon="6.13188">
        <ele>3329.3</ele>
        <time>2021-03-10T12:08:02Z</time>
      </trkpt>
      <trkpt lat="45.13392" lon="6.13186">
        <ele>3330.1</ele>
        <time>2021-03-10T12:08:03Z</time>
      </trkpt>
      <trkpt lat="45.13389" lon="6.13185">
        <ele>3330.1</ele>
        <time>2021-03-10T12:08:04Z</time>
      </trkpt>
      <trkpt lat="45.13387" lon="6.13184">
        <ele>3330.1</ele>
        <time>2021-03-10T12:08:05Z</time>
      </trkpt>
      <trkpt lat="45.13384" lon="6.13183">
        <ele>3330.1</ele>
        <time>2021-03-10T12:08:06Z</time>
      </trkpt>
      <trkpt lat="45.13381" lon="6.13182">
        <ele>3330.9</ele>
        <time>2021-03-10T12:08:07Z</time>
      </trkpt>
      <trkpt lat="45.13378" lon="6.13182">
        <ele>3330.9</ele>
        <time>2021-03-10T12:08:08Z</time>
      </trkpt>
      <trkpt lat="45.13377" lon="6.13181">
        <ele>3330.9</ele>
        <time>2021-03-10T12:08:09Z</time>
      </trkpt>
      <trkpt lat="45.13373" lon="6.1318">
        <ele>3330.7</ele>
        <time>2021-03-10T12:08:10Z</time>
      </trkpt>
      <trkpt lat="45.13372" lon="6.1318">
        <ele>3330.7</ele>
        <time>2021-03-10T12:08:11Z</time>
      </trkpt>
      <trkpt lat="45.13369" lon="6.13179">
        <ele>3330.6</ele>
        <time>2021-03-10T12:08:12Z</time>
      </trkpt>
      <trkpt lat="45.13366" lon="6.13178">
        <ele>3331.4</ele>
        <time>2021-03-10T12:08:13Z</time>
      </trkpt>
      <trkpt lat="45.13365" lon="6.13178">
        <ele>3331.4</ele>
        <time>2021-03-10T12:08:14Z</time>
      </trkpt>
      <trkpt lat="45.13364" lon="6.13177">
        <ele>3331.1</ele>
        <time>2021-03-10T12:08:15Z</time>
      </trkpt>
      <trkpt lat="45.13362" lon="6.13177">
        <ele>3331.1</ele>
        <time>2021-03-10T12:08:16Z</time>
      </trkpt>
      <trkpt lat="45.13359" lon="6.13176">
        <ele>3330.8</ele>
        <time>2021-03-10T12:08:17Z</time>
      </trkpt>
      <trkpt lat="45.13358" lon="6.13176">
        <ele>3330.4</ele>
        <time>2021-03-10T12:08:18Z</time>
      </trkpt>
      <trkpt lat="45.13356" lon="6.13175">
        <ele>3330</ele>
        <time>2021-03-10T12:08:19Z</time>
      </trkpt>
      <trkpt lat="45.13355" lon="6.13175">
        <ele>3330</ele>
        <time>2021-03-10T12:08:20Z</time>
      </trkpt>
      <trkpt lat="45.13353" lon="6.13174">
        <ele>3331.2</ele>
        <time>2021-03-10T12:08:21Z</time>
      </trkpt>
      <trkpt lat="45.13351" lon="6.13173">
        <ele>3330.8</ele>
        <time>2021-03-10T12:08:22Z</time>
      </trkpt>
      <trkpt lat="45.13351" lon="6.13176">
        <ele>3329.7</ele>
        <time>2021-03-10T12:08:23Z</time>
      </trkpt>
      <trkpt lat="45.13352" lon="6.1318">
        <ele>3328.5</ele>
        <time>2021-03-10T12:08:24Z</time>
      </trkpt>
      <trkpt lat="45.13352" lon="6.13183">
        <ele>3328.5</ele>
        <time>2021-03-10T12:08:25Z</time>
      </trkpt>
      <trkpt lat="45.13354" lon="6.13188">
        <ele>3326.6</ele>
        <time>2021-03-10T12:08:26Z</time>
      </trkpt>
      <trkpt lat="45.13357" lon="6.13193">
        <ele>3325.9</ele>
        <time>2021-03-10T12:08:27Z</time>
      </trkpt>
      <trkpt lat="45.13358" lon="6.13198">
        <ele>3324.8</ele>
        <time>2021-03-10T12:08:28Z</time>
      </trkpt>
      <trkpt lat="45.1336" lon="6.13203">
        <ele>3324.4</ele>
        <time>2021-03-10T12:08:29Z</time>
      </trkpt>
      <trkpt lat="45.13362" lon="6.13207">
        <ele>3323.9</ele>
        <time>2021-03-10T12:08:30Z</time>
      </trkpt>
      <trkpt lat="45.13363" lon="6.13212">
        <ele>3323</ele>
        <time>2021-03-10T12:08:31Z</time>
      </trkpt>
      <trkpt lat="45.13365" lon="6.13217">
        <ele>3322</ele>
        <time>2021-03-10T12:08:32Z</time>
      </trkpt>
      <trkpt lat="45.13366" lon="6.13221">
        <ele>3321.6</ele>
        <time>2021-03-10T12:08:33Z</time>
      </trkpt>
      <trkpt lat="45.13367" lon="6.13226">
        <ele>3320.5</ele>
        <time>2021-03-10T12:08:34Z</time>
      </trkpt>
      <trkpt lat="45.13368" lon="6.1323">
        <ele>3318.9</ele>
        <time>2021-03-10T12:08:35Z</time>
      </trkpt>
      <trkpt lat="45.13369" lon="6.13235">
        <ele>3317.7</ele>
        <time>2021-03-10T12:08:36Z</time>
      </trkpt>
      <trkpt lat="45.13367" lon="6.13239">
        <ele>3317.1</ele>
        <time>2021-03-10T12:08:37Z</time>
      </trkpt>
      <trkpt lat="45.13365" lon="6.13239">
        <ele>3315.9</ele>
        <time>2021-03-10T12:08:38Z</time>
      </trkpt>
      <trkpt lat="45.13361" lon="6.13238">
        <ele>3315.5</ele>
        <time>2021-03-10T12:08:39Z</time>
      </trkpt>
      <trkpt lat="45.13357" lon="6.13235">
        <ele>3314.6</ele>
        <time>2021-03-10T12:08:40Z</time>
      </trkpt>
      <trkpt lat="45.13354" lon="6.13232">
        <ele>3315.1</ele>
        <time>2021-03-10T12:08:41Z</time>
      </trkpt>
      <trkpt lat="45.13352" lon="6.13229">
        <ele>3315.6</ele>
        <time>2021-03-10T12:08:42Z</time>
      </trkpt>
      <trkpt lat="45.13349" lon="6.13226">
        <ele>3314.8</ele>
        <time>2021-03-10T12:08:43Z</time>
      </trkpt>
      <trkpt lat="45.13345" lon="6.13224">
        <ele>3315.2</ele>
        <time>2021-03-10T12:08:44Z</time>
      </trkpt>
      <trkpt lat="45.13339" lon="6.1322">
        <ele>3314.6</ele>
        <time>2021-03-10T12:08:45Z</time>
      </trkpt>
      <trkpt lat="45.13334" lon="6.13216">
        <ele>3313.8</ele>
        <time>2021-03-10T12:08:46Z</time>
      </trkpt>
      <trkpt lat="45.13332" lon="6.13211">
        <ele>3315.1</ele>
        <time>2021-03-10T12:08:47Z</time>
      </trkpt>
      <trkpt lat="45.13329" lon="6.13208">
        <ele>3315.3</ele>
        <time>2021-03-10T12:08:48Z</time>
      </trkpt>
      <trkpt lat="45.13328" lon="6.13207">
        <ele>3314.3</ele>
        <time>2021-03-10T12:08:49Z</time>
      </trkpt>
      <trkpt lat="45.13327" lon="6.13204">
        <ele>3315.6</ele>
        <time>2021-03-10T12:08:50Z</time>
      </trkpt>
      <trkpt lat="45.13326" lon="6.13203">
        <ele>3315.6</ele>
        <time>2021-03-10T12:08:51Z</time>
      </trkpt>
      <trkpt lat="45.13323" lon="6.13198">
        <ele>3316</ele>
        <time>2021-03-10T12:08:52Z</time>
      </trkpt>
      <trkpt lat="45.13323" lon="6.13197">
        <ele>3316</ele>
        <time>2021-03-10T12:08:53Z</time>
      </trkpt>
      <trkpt lat="45.13322" lon="6.13195">
        <ele>3316.5</ele>
        <time>2021-03-10T12:08:54Z</time>
      </trkpt>
      <trkpt lat="45.13322" lon="6.13194">
        <ele>3316.5</ele>
        <time>2021-03-10T12:08:55Z</time>
      </trkpt>
      <trkpt lat="45.13322" lon="6.13194">
        <ele>3316.5</ele>
        <time>2021-03-10T12:08:56Z</time>
      </trkpt>
      <trkpt lat="45.13321" lon="6.13193">
        <ele>3316.5</ele>
        <time>2021-03-10T12:08:57Z</time>
      </trkpt>
      <trkpt lat="45.13318" lon="6.13191">
        <ele>3317</ele>
        <time>2021-03-10T12:08:58Z</time>
      </trkpt>
      <trkpt lat="45.13316" lon="6.1319">
        <ele>3316</ele>
        <time>2021-03-10T12:08:59Z</time>
      </trkpt>
      <trkpt lat="45.13313" lon="6.13187">
        <ele>3316.4</ele>
        <time>2021-03-10T12:09:00Z</time>
      </trkpt>
      <trkpt lat="45.13311" lon="6.13184">
        <ele>3316.4</ele>
        <time>2021-03-10T12:09:01Z</time>
      </trkpt>
      <trkpt lat="45.13309" lon="6.13179">
        <ele>3316.7</ele>
        <time>2021-03-10T12:09:02Z</time>
      </trkpt>
      <trkpt lat="45.13309" lon="6.13178">
        <ele>3318.1</ele>
        <time>2021-03-10T12:09:03Z</time>
      </trkpt>
      <trkpt lat="45.13307" lon="6.13173">
        <ele>3318.2</ele>
        <time>2021-03-10T12:09:04Z</time>
      </trkpt>
      <trkpt lat="45.13306" lon="6.13172">
        <ele>3318.2</ele>
        <time>2021-03-10T12:09:05Z</time>
      </trkpt>
      <trkpt lat="45.13305" lon="6.13168">
        <ele>3319.4</ele>
        <time>2021-03-10T12:09:06Z</time>
      </trkpt>
      <trkpt lat="45.13304" lon="6.13166">
        <ele>3318</ele>
        <time>2021-03-10T12:09:07Z</time>
      </trkpt>
      <trkpt lat="45.13302" lon="6.13161">
        <ele>3320.1</ele>
        <time>2021-03-10T12:09:08Z</time>
      </trkpt>
      <trkpt lat="45.13301" lon="6.1316">
        <ele>3318.7</ele>
        <time>2021-03-10T12:09:09Z</time>
      </trkpt>
      <trkpt lat="45.13299" lon="6.13156">
        <ele>3319.6</ele>
        <time>2021-03-10T12:09:10Z</time>
      </trkpt>
      <trkpt lat="45.13298" lon="6.13154">
        <ele>3318.1</ele>
        <time>2021-03-10T12:09:11Z</time>
      </trkpt>
      <trkpt lat="45.13298" lon="6.13153">
        <ele>3318.9</ele>
        <time>2021-03-10T12:09:12Z</time>
      </trkpt>
      <trkpt lat="45.13298" lon="6.13153">
        <ele>3318.9</ele>
        <time>2021-03-10T12:09:13Z</time>
      </trkpt>
      <trkpt lat="45.13298" lon="6.13153">
        <ele>3318.9</ele>
        <time>2021-03-10T12:09:14Z</time>
      </trkpt>
      <trkpt lat="45.13298" lon="6.13153">
        <ele>3318.9</ele>
        <time>2021-03-10T12:09:15Z</time>
      </trkpt>
      <trkpt lat="45.13298" lon="6.13153">
        <ele>3318.9</ele>
        <time>2021-03-10T12:09:16Z</time>
      </trkpt>
      <trkpt lat="45.13298" lon="6.13153">
        <ele>3318.9</ele>
        <time>2021-03-10T12:09:17Z</time>
      </trkpt>
      <trkpt lat="45.13298" lon="6.13153">
        <ele>3318.9</ele>
        <time>2021-03-10T12:09:18Z</time>
      </trkpt>
      <trkpt lat="45.13298" lon="6.13153">
        <ele>3318.9</ele>
        <time>2021-03-10T12:09:19Z</time>
      </trkpt>
      <trkpt lat="45.13298" lon="6.13153">
        <ele>3318.9</ele>
        <time>2021-03-10T12:09:20Z</time>
      </trkpt>
      <trkpt lat="45.13298" lon="6.13153">
        <ele>3318.9</ele>
        <time>2021-03-10T12:09:21Z</time>
      </trkpt>
      <trkpt lat="45.13298" lon="6.13153">
        <ele>3318.9</ele>
        <time>2021-03-10T12:09:22Z</time>
      </trkpt>
      <trkpt lat="45.13296" lon="6.13147">
        <ele>3319.7</ele>
        <time>2021-03-10T12:10:18Z</time>
      </trkpt>
      <trkpt lat="45.13295" lon="6.13145">
        <ele>3318.3</ele>
        <time>2021-03-10T12:10:19Z</time>
      </trkpt>
      <trkpt lat="45.13294" lon="6.13143">
        <ele>3319</ele>
        <time>2021-03-10T12:10:20Z</time>
      </trkpt>
      <trkpt lat="45.13293" lon="6.13142">
        <ele>3319</ele>
        <time>2021-03-10T12:10:21Z</time>
      </trkpt>
      <trkpt lat="45.13293" lon="6.13141">
        <ele>3319</ele>
        <time>2021-03-10T12:10:22Z</time>
      </trkpt>
      <trkpt lat="45.13293" lon="6.1314">
        <ele>3319.6</ele>
        <time>2021-03-10T12:10:23Z</time>
      </trkpt>
      <trkpt lat="45.13293" lon="6.1314">
        <ele>3319.6</ele>
        <time>2021-03-10T12:10:24Z</time>
      </trkpt>
      <trkpt lat="45.13293" lon="6.1314">
        <ele>3319.6</ele>
        <time>2021-03-10T12:10:25Z</time>
      </trkpt>
      <trkpt lat="45.13293" lon="6.1314">
        <ele>3319.6</ele>
        <time>2021-03-10T12:10:26Z</time>
      </trkpt>
      <trkpt lat="45.13293" lon="6.1314">
        <ele>3319.6</ele>
        <time>2021-03-10T12:10:27Z</time>
      </trkpt>
      <trkpt lat="45.13293" lon="6.1314">
        <ele>3319.6</ele>
        <time>2021-03-10T12:10:28Z</time>
      </trkpt>
      <trkpt lat="45.13294" lon="6.13141">
        <ele>3319</ele>
        <time>2021-03-10T12:10:29Z</time>
      </trkpt>
      <trkpt lat="45.13294" lon="6.1314">
        <ele>3319</ele>
        <time>2021-03-10T12:10:30Z</time>
      </trkpt>
      <trkpt lat="45.13293" lon="6.1314">
        <ele>3319.6</ele>
        <time>2021-03-10T12:10:31Z</time>
      </trkpt>
      <trkpt lat="45.13293" lon="6.13139">
        <ele>3319.6</ele>
        <time>2021-03-10T12:10:32Z</time>
      </trkpt>
      <trkpt lat="45.13291" lon="6.13139">
        <ele>3318.3</ele>
        <time>2021-03-10T12:10:33Z</time>
      </trkpt>
      <trkpt lat="45.13289" lon="6.13141">
        <ele>3317.6</ele>
        <time>2021-03-10T12:10:34Z</time>
      </trkpt>
      <trkpt lat="45.13289" lon="6.13143">
        <ele>3316.2</ele>
        <time>2021-03-10T12:10:35Z</time>
      </trkpt>
      <trkpt lat="45.13289" lon="6.13149">
        <ele>3315.5</ele>
        <time>2021-03-10T12:10:36Z</time>
      </trkpt>
      <trkpt lat="45.13289" lon="6.13151">
        <ele>3314.8</ele>
        <time>2021-03-10T12:10:37Z</time>
      </trkpt>
      <trkpt lat="45.13289" lon="6.13155">
        <ele>3314.1</ele>
        <time>2021-03-10T12:10:38Z</time>
      </trkpt>
      <trkpt lat="45.13289" lon="6.13159">
        <ele>3313.2</ele>
        <time>2021-03-10T12:10:39Z</time>
      </trkpt>
      <trkpt lat="45.13289" lon="6.13163">
        <ele>3312.3</ele>
        <time>2021-03-10T12:10:40Z</time>
      </trkpt>
      <trkpt lat="45.13288" lon="6.13165">
        <ele>3312.3</ele>
        <time>2021-03-10T12:10:41Z</time>
      </trkpt>
      <trkpt lat="45.13288" lon="6.13167">
        <ele>3311.3</ele>
        <time>2021-03-10T12:10:42Z</time>
      </trkpt>
      <trkpt lat="45.13288" lon="6.13169">
        <ele>3311.3</ele>
        <time>2021-03-10T12:10:43Z</time>
      </trkpt>
      <trkpt lat="45.13288" lon="6.13172">
        <ele>3310.3</ele>
        <time>2021-03-10T12:10:44Z</time>
      </trkpt>
      <trkpt lat="45.13287" lon="6.13173">
        <ele>3310.3</ele>
        <time>2021-03-10T12:10:45Z</time>
      </trkpt>
      <trkpt lat="45.13287" lon="6.13174">
        <ele>3310.3</ele>
        <time>2021-03-10T12:10:46Z</time>
      </trkpt>
      <trkpt lat="45.13286" lon="6.13176">
        <ele>3307.8</ele>
        <time>2021-03-10T12:10:47Z</time>
      </trkpt>
      <trkpt lat="45.13284" lon="6.13177">
        <ele>3307.8</ele>
        <time>2021-03-10T12:10:48Z</time>
      </trkpt>
      <trkpt lat="45.13282" lon="6.13174">
        <ele>3307.4</ele>
        <time>2021-03-10T12:10:49Z</time>
      </trkpt>
      <trkpt lat="45.13282" lon="6.13173">
        <ele>3307.4</ele>
        <time>2021-03-10T12:10:50Z</time>
      </trkpt>
      <trkpt lat="45.13281" lon="6.13168">
        <ele>3308.4</ele>
        <time>2021-03-10T12:10:51Z</time>
      </trkpt>
      <trkpt lat="45.1328" lon="6.13167">
        <ele>3308.4</ele>
        <time>2021-03-10T12:10:52Z</time>
      </trkpt>
      <trkpt lat="45.1328" lon="6.13163">
        <ele>3307.6</ele>
        <time>2021-03-10T12:10:53Z</time>
      </trkpt>
      <trkpt lat="45.13279" lon="6.13161">
        <ele>3308.4</ele>
        <time>2021-03-10T12:10:54Z</time>
      </trkpt>
      <trkpt lat="45.13279" lon="6.1316">
        <ele>3308.4</ele>
        <time>2021-03-10T12:10:55Z</time>
      </trkpt>
      <trkpt lat="45.13279" lon="6.13159">
        <ele>3308.4</ele>
        <time>2021-03-10T12:10:56Z</time>
      </trkpt>
      <trkpt lat="45.13278" lon="6.13158">
        <ele>3308.4</ele>
        <time>2021-03-10T12:10:57Z</time>
      </trkpt>
      <trkpt lat="45.13278" lon="6.13157">
        <ele>3309.2</ele>
        <time>2021-03-10T12:10:58Z</time>
      </trkpt>
      <trkpt lat="45.13277" lon="6.13155">
        <ele>3309.2</ele>
        <time>2021-03-10T12:10:59Z</time>
      </trkpt>
      <trkpt lat="45.13277" lon="6.13154">
        <ele>3307.4</ele>
        <time>2021-03-10T12:11:00Z</time>
      </trkpt>
      <trkpt lat="45.13276" lon="6.13152">
        <ele>3308.1</ele>
        <time>2021-03-10T12:11:01Z</time>
      </trkpt>
      <trkpt lat="45.13274" lon="6.13148">
        <ele>3308.7</ele>
        <time>2021-03-10T12:11:02Z</time>
      </trkpt>
      <trkpt lat="45.13274" lon="6.13147">
        <ele>3306.9</ele>
        <time>2021-03-10T12:11:03Z</time>
      </trkpt>
      <trkpt lat="45.13272" lon="6.13143">
        <ele>3307.5</ele>
        <time>2021-03-10T12:11:04Z</time>
      </trkpt>
      <trkpt lat="45.13272" lon="6.13142">
        <ele>3307.5</ele>
        <time>2021-03-10T12:11:05Z</time>
      </trkpt>
      <trkpt lat="45.13271" lon="6.1314">
        <ele>3306.3</ele>
        <time>2021-03-10T12:11:06Z</time>
      </trkpt>
      <trkpt lat="45.1327" lon="6.13138">
        <ele>3306.3</ele>
        <time>2021-03-10T12:11:07Z</time>
      </trkpt>
      <trkpt lat="45.13269" lon="6.13136">
        <ele>3306.8</ele>
        <time>2021-03-10T12:11:08Z</time>
      </trkpt>
      <trkpt lat="45.13268" lon="6.13134">
        <ele>3306.8</ele>
        <time>2021-03-10T12:11:09Z</time>
      </trkpt>
      <trkpt lat="45.13267" lon="6.13132">
        <ele>3305.1</ele>
        <time>2021-03-10T12:11:10Z</time>
      </trkpt>
      <trkpt lat="45.13265" lon="6.13131">
        <ele>3305.6</ele>
        <time>2021-03-10T12:11:11Z</time>
      </trkpt>
      <trkpt lat="45.13263" lon="6.13135">
        <ele>3303.5</ele>
        <time>2021-03-10T12:11:12Z</time>
      </trkpt>
      <trkpt lat="45.13263" lon="6.13137">
        <ele>3303</ele>
        <time>2021-03-10T12:11:13Z</time>
      </trkpt>
      <trkpt lat="45.13262" lon="6.13141">
        <ele>3302.4</ele>
        <time>2021-03-10T12:11:14Z</time>
      </trkpt>
      <trkpt lat="45.13263" lon="6.13145">
        <ele>3301.9</ele>
        <time>2021-03-10T12:11:15Z</time>
      </trkpt>
      <trkpt lat="45.13262" lon="6.1315">
        <ele>3301.3</ele>
        <time>2021-03-10T12:11:16Z</time>
      </trkpt>
      <trkpt lat="45.13262" lon="6.13155">
        <ele>3300.7</ele>
        <time>2021-03-10T12:11:17Z</time>
      </trkpt>
      <trkpt lat="45.13261" lon="6.1316">
        <ele>3298.4</ele>
        <time>2021-03-10T12:11:18Z</time>
      </trkpt>
      <trkpt lat="45.1326" lon="6.13164">
        <ele>3297.8</ele>
        <time>2021-03-10T12:11:19Z</time>
      </trkpt>
      <trkpt lat="45.1326" lon="6.13167">
        <ele>3297.1</ele>
        <time>2021-03-10T12:11:20Z</time>
      </trkpt>
      <trkpt lat="45.13258" lon="6.13167">
        <ele>3295.3</ele>
        <time>2021-03-10T12:11:21Z</time>
      </trkpt>
      <trkpt lat="45.13255" lon="6.13163">
        <ele>3294.1</ele>
        <time>2021-03-10T12:11:22Z</time>
      </trkpt>
      <trkpt lat="45.13254" lon="6.13161">
        <ele>3294.6</ele>
        <time>2021-03-10T12:11:23Z</time>
      </trkpt>
      <trkpt lat="45.13252" lon="6.13156">
        <ele>3293.1</ele>
        <time>2021-03-10T12:11:24Z</time>
      </trkpt>
      <trkpt lat="45.13249" lon="6.13152">
        <ele>3291.5</ele>
        <time>2021-03-10T12:11:25Z</time>
      </trkpt>
      <trkpt lat="45.13246" lon="6.13151">
        <ele>3289.5</ele>
        <time>2021-03-10T12:11:26Z</time>
      </trkpt>
      <trkpt lat="45.13245" lon="6.13151">
        <ele>3289.5</ele>
        <time>2021-03-10T12:11:27Z</time>
      </trkpt>
      <trkpt lat="45.13243" lon="6.13155">
        <ele>3287.1</ele>
        <time>2021-03-10T12:11:28Z</time>
      </trkpt>
      <trkpt lat="45.13242" lon="6.13159">
        <ele>3286.7</ele>
        <time>2021-03-10T12:11:29Z</time>
      </trkpt>
      <trkpt lat="45.13241" lon="6.13163">
        <ele>3286.2</ele>
        <time>2021-03-10T12:11:30Z</time>
      </trkpt>
      <trkpt lat="45.13237" lon="6.13163">
        <ele>3282.5</ele>
        <time>2021-03-10T12:11:31Z</time>
      </trkpt>
      <trkpt lat="45.13235" lon="6.13162">
        <ele>3282.9</ele>
        <time>2021-03-10T12:11:32Z</time>
      </trkpt>
      <trkpt lat="45.13232" lon="6.13156">
        <ele>3281.5</ele>
        <time>2021-03-10T12:11:33Z</time>
      </trkpt>
      <trkpt lat="45.13229" lon="6.13148">
        <ele>3278.4</ele>
        <time>2021-03-10T12:11:34Z</time>
      </trkpt>
      <trkpt lat="45.13226" lon="6.13141">
        <ele>3279</ele>
        <time>2021-03-10T12:11:35Z</time>
      </trkpt>
      <trkpt lat="45.13225" lon="6.13135">
        <ele>3278.2</ele>
        <time>2021-03-10T12:11:36Z</time>
      </trkpt>
      <trkpt lat="45.13223" lon="6.13131">
        <ele>3278.8</ele>
        <time>2021-03-10T12:11:37Z</time>
      </trkpt>
      <trkpt lat="45.13222" lon="6.13128">
        <ele>3276.8</ele>
        <time>2021-03-10T12:11:38Z</time>
      </trkpt>
      <trkpt lat="45.13221" lon="6.13128">
        <ele>3276.8</ele>
        <time>2021-03-10T12:11:39Z</time>
      </trkpt>
      <trkpt lat="45.1322" lon="6.13133">
        <ele>3276.2</ele>
        <time>2021-03-10T12:11:40Z</time>
      </trkpt>
      <trkpt lat="45.1322" lon="6.13136">
        <ele>3276.2</ele>
        <time>2021-03-10T12:11:41Z</time>
      </trkpt>
      <trkpt lat="45.13221" lon="6.1314">
        <ele>3275.5</ele>
        <time>2021-03-10T12:11:42Z</time>
      </trkpt>
      <trkpt lat="45.13222" lon="6.13145">
        <ele>3274.3</ele>
        <time>2021-03-10T12:11:43Z</time>
      </trkpt>
      <trkpt lat="45.13222" lon="6.13146">
        <ele>3274.3</ele>
        <time>2021-03-10T12:11:44Z</time>
      </trkpt>
      <trkpt lat="45.13222" lon="6.13152">
        <ele>3273.7</ele>
        <time>2021-03-10T12:11:45Z</time>
      </trkpt>
      <trkpt lat="45.13222" lon="6.13154">
        <ele>3273.2</ele>
        <time>2021-03-10T12:11:46Z</time>
      </trkpt>
      <trkpt lat="45.13222" lon="6.13158">
        <ele>3272.7</ele>
        <time>2021-03-10T12:11:47Z</time>
      </trkpt>
      <trkpt lat="45.13222" lon="6.13162">
        <ele>3272.2</ele>
        <time>2021-03-10T12:11:48Z</time>
      </trkpt>
      <trkpt lat="45.13222" lon="6.13166">
        <ele>3272.2</ele>
        <time>2021-03-10T12:11:49Z</time>
      </trkpt>
      <trkpt lat="45.1322" lon="6.13168">
        <ele>3271.6</ele>
        <time>2021-03-10T12:11:50Z</time>
      </trkpt>
      <trkpt lat="45.13218" lon="6.13168">
        <ele>3269.5</ele>
        <time>2021-03-10T12:11:51Z</time>
      </trkpt>
      <trkpt lat="45.13214" lon="6.13165">
        <ele>3267.9</ele>
        <time>2021-03-10T12:11:52Z</time>
      </trkpt>
      <trkpt lat="45.13211" lon="6.13159">
        <ele>3266.4</ele>
        <time>2021-03-10T12:11:53Z</time>
      </trkpt>
      <trkpt lat="45.13209" lon="6.13153">
        <ele>3265.6</ele>
        <time>2021-03-10T12:11:54Z</time>
      </trkpt>
      <trkpt lat="45.13207" lon="6.13146">
        <ele>3264.4</ele>
        <time>2021-03-10T12:11:55Z</time>
      </trkpt>
      <trkpt lat="45.13204" lon="6.13141">
        <ele>3263.2</ele>
        <time>2021-03-10T12:11:56Z</time>
      </trkpt>
      <trkpt lat="45.13202" lon="6.13136">
        <ele>3264.4</ele>
        <time>2021-03-10T12:11:57Z</time>
      </trkpt>
      <trkpt lat="45.13201" lon="6.13132">
        <ele>3262.4</ele>
        <time>2021-03-10T12:11:58Z</time>
      </trkpt>
      <trkpt lat="45.13201" lon="6.13129">
        <ele>3262.9</ele>
        <time>2021-03-10T12:11:59Z</time>
      </trkpt>
      <trkpt lat="45.132" lon="6.13127">
        <ele>3262.9</ele>
        <time>2021-03-10T12:12:00Z</time>
      </trkpt>
      <trkpt lat="45.132" lon="6.13127">
        <ele>3263.4</ele>
        <time>2021-03-10T12:12:01Z</time>
      </trkpt>
      <trkpt lat="45.13199" lon="6.13126">
        <ele>3263.4</ele>
        <time>2021-03-10T12:12:02Z</time>
      </trkpt>
      <trkpt lat="45.13198" lon="6.13125">
        <ele>3261.3</ele>
        <time>2021-03-10T12:12:03Z</time>
      </trkpt>
      <trkpt lat="45.13197" lon="6.13124">
        <ele>3261.3</ele>
        <time>2021-03-10T12:12:04Z</time>
      </trkpt>
      <trkpt lat="45.13197" lon="6.13123">
        <ele>3261.3</ele>
        <time>2021-03-10T12:12:05Z</time>
      </trkpt>
      <trkpt lat="45.13194" lon="6.13119">
        <ele>3259.4</ele>
        <time>2021-03-10T12:12:06Z</time>
      </trkpt>
      <trkpt lat="45.13194" lon="6.13118">
        <ele>3259.9</ele>
        <time>2021-03-10T12:12:07Z</time>
      </trkpt>
      <trkpt lat="45.13192" lon="6.13113">
        <ele>3258.1</ele>
        <time>2021-03-10T12:12:08Z</time>
      </trkpt>
      <trkpt lat="45.13191" lon="6.13112">
        <ele>3258.1</ele>
        <time>2021-03-10T12:12:09Z</time>
      </trkpt>
      <trkpt lat="45.1319" lon="6.13107">
        <ele>3258.7</ele>
        <time>2021-03-10T12:12:10Z</time>
      </trkpt>
      <trkpt lat="45.13189" lon="6.13105">
        <ele>3259.3</ele>
        <time>2021-03-10T12:12:11Z</time>
      </trkpt>
      <trkpt lat="45.13188" lon="6.13102">
        <ele>3257.1</ele>
        <time>2021-03-10T12:12:12Z</time>
      </trkpt>
      <trkpt lat="45.13187" lon="6.13098">
        <ele>3257.7</ele>
        <time>2021-03-10T12:12:13Z</time>
      </trkpt>
      <trkpt lat="45.13186" lon="6.13094">
        <ele>3256.4</ele>
        <time>2021-03-10T12:12:14Z</time>
      </trkpt>
      <trkpt lat="45.13184" lon="6.13089">
        <ele>3257.1</ele>
        <time>2021-03-10T12:12:15Z</time>
      </trkpt>
      <trkpt lat="45.13181" lon="6.13083">
        <ele>3256.6</ele>
        <time>2021-03-10T12:12:16Z</time>
      </trkpt>
      <trkpt lat="45.13179" lon="6.13078">
        <ele>3255.6</ele>
        <time>2021-03-10T12:12:17Z</time>
      </trkpt>
      <trkpt lat="45.13177" lon="6.13072">
        <ele>3256.2</ele>
        <time>2021-03-10T12:12:18Z</time>
      </trkpt>
      <trkpt lat="45.13175" lon="6.13065">
        <ele>3255.9</ele>
        <time>2021-03-10T12:12:19Z</time>
      </trkpt>
      <trkpt lat="45.13173" lon="6.13061">
        <ele>3254.8</ele>
        <time>2021-03-10T12:12:20Z</time>
      </trkpt>
      <trkpt lat="45.13172" lon="6.13056">
        <ele>3255.7</ele>
        <time>2021-03-10T12:12:21Z</time>
      </trkpt>
      <trkpt lat="45.13171" lon="6.13052">
        <ele>3254.7</ele>
        <time>2021-03-10T12:12:22Z</time>
      </trkpt>
      <trkpt lat="45.1317" lon="6.1305">
        <ele>3254.7</ele>
        <time>2021-03-10T12:12:23Z</time>
      </trkpt>
      <trkpt lat="45.13168" lon="6.13045">
        <ele>3254.6</ele>
        <time>2021-03-10T12:12:24Z</time>
      </trkpt>
      <trkpt lat="45.13167" lon="6.13044">
        <ele>3254.6</ele>
        <time>2021-03-10T12:12:25Z</time>
      </trkpt>
      <trkpt lat="45.13166" lon="6.13039">
        <ele>3255.5</ele>
        <time>2021-03-10T12:12:26Z</time>
      </trkpt>
      <trkpt lat="45.13165" lon="6.13038">
        <ele>3255.5</ele>
        <time>2021-03-10T12:12:27Z</time>
      </trkpt>
      <trkpt lat="45.13163" lon="6.13035">
        <ele>3255.1</ele>
        <time>2021-03-10T12:12:28Z</time>
      </trkpt>
      <trkpt lat="45.13163" lon="6.13033">
        <ele>3255.1</ele>
        <time>2021-03-10T12:12:29Z</time>
      </trkpt>
      <trkpt lat="45.1316" lon="6.1303">
        <ele>3254.3</ele>
        <time>2021-03-10T12:12:30Z</time>
      </trkpt>
      <trkpt lat="45.13159" lon="6.13028">
        <ele>3255</ele>
        <time>2021-03-10T12:12:31Z</time>
      </trkpt>
      <trkpt lat="45.13158" lon="6.13025">
        <ele>3253.6</ele>
        <time>2021-03-10T12:12:32Z</time>
      </trkpt>
      <trkpt lat="45.13156" lon="6.13022">
        <ele>3254.3</ele>
        <time>2021-03-10T12:12:33Z</time>
      </trkpt>
      <trkpt lat="45.13154" lon="6.13019">
        <ele>3253.6</ele>
        <time>2021-03-10T12:12:34Z</time>
      </trkpt>
      <trkpt lat="45.13153" lon="6.13014">
        <ele>3252.9</ele>
        <time>2021-03-10T12:12:35Z</time>
      </trkpt>
      <trkpt lat="45.13152" lon="6.13012">
        <ele>3252.9</ele>
        <time>2021-03-10T12:12:36Z</time>
      </trkpt>
      <trkpt lat="45.1315" lon="6.13009">
        <ele>3253.5</ele>
        <time>2021-03-10T12:12:37Z</time>
      </trkpt>
      <trkpt lat="45.13148" lon="6.13004">
        <ele>3252.7</ele>
        <time>2021-03-10T12:12:38Z</time>
      </trkpt>
      <trkpt lat="45.13144" lon="6.12998">
        <ele>3252.3</ele>
        <time>2021-03-10T12:12:39Z</time>
      </trkpt>
      <trkpt lat="45.13142" lon="6.12993">
        <ele>3251.4</ele>
        <time>2021-03-10T12:12:40Z</time>
      </trkpt>
      <trkpt lat="45.13139" lon="6.12989">
        <ele>3250.5</ele>
        <time>2021-03-10T12:12:41Z</time>
      </trkpt>
      <trkpt lat="45.13135" lon="6.12984">
        <ele>3249.6</ele>
        <time>2021-03-10T12:12:42Z</time>
      </trkpt>
      <trkpt lat="45.13132" lon="6.12979">
        <ele>3248.8</ele>
        <time>2021-03-10T12:12:43Z</time>
      </trkpt>
      <trkpt lat="45.13129" lon="6.12974">
        <ele>3248.1</ele>
        <time>2021-03-10T12:12:44Z</time>
      </trkpt>
      <trkpt lat="45.13128" lon="6.1297">
        <ele>3247.5</ele>
        <time>2021-03-10T12:12:45Z</time>
      </trkpt>
      <trkpt lat="45.13126" lon="6.12968">
        <ele>3248</ele>
        <time>2021-03-10T12:12:46Z</time>
      </trkpt>
      <trkpt lat="45.13125" lon="6.12968">
        <ele>3247</ele>
        <time>2021-03-10T12:12:47Z</time>
      </trkpt>
      <trkpt lat="45.13125" lon="6.12967">
        <ele>3247</ele>
        <time>2021-03-10T12:12:48Z</time>
      </trkpt>
      <trkpt lat="45.13122" lon="6.12965">
        <ele>3246</ele>
        <time>2021-03-10T12:12:49Z</time>
      </trkpt>
      <trkpt lat="45.13121" lon="6.12965">
        <ele>3246</ele>
        <time>2021-03-10T12:12:50Z</time>
      </trkpt>
      <trkpt lat="45.13119" lon="6.12961">
        <ele>3245.5</ele>
        <time>2021-03-10T12:12:51Z</time>
      </trkpt>
      <trkpt lat="45.13118" lon="6.1296">
        <ele>3245.5</ele>
        <time>2021-03-10T12:12:52Z</time>
      </trkpt>
      <trkpt lat="45.13116" lon="6.12957">
        <ele>3245.1</ele>
        <time>2021-03-10T12:12:53Z</time>
      </trkpt>
      <trkpt lat="45.13115" lon="6.12957">
        <ele>3245.1</ele>
        <time>2021-03-10T12:12:54Z</time>
      </trkpt>
      <trkpt lat="45.13112" lon="6.12955">
        <ele>3244.6</ele>
        <time>2021-03-10T12:12:55Z</time>
      </trkpt>
      <trkpt lat="45.13111" lon="6.12955">
        <ele>3244.6</ele>
        <time>2021-03-10T12:12:56Z</time>
      </trkpt>
      <trkpt lat="45.13108" lon="6.12953">
        <ele>3243.6</ele>
        <time>2021-03-10T12:12:57Z</time>
      </trkpt>
      <trkpt lat="45.13108" lon="6.12952">
        <ele>3243.6</ele>
        <time>2021-03-10T12:12:58Z</time>
      </trkpt>
      <trkpt lat="45.13105" lon="6.1295">
        <ele>3243.2</ele>
        <time>2021-03-10T12:12:59Z</time>
      </trkpt>
      <trkpt lat="45.13101" lon="6.12948">
        <ele>3241.3</ele>
        <time>2021-03-10T12:13:00Z</time>
      </trkpt>
      <trkpt lat="45.13097" lon="6.12946">
        <ele>3241.4</ele>
        <time>2021-03-10T12:13:01Z</time>
      </trkpt>
      <trkpt lat="45.13093" lon="6.12944">
        <ele>3240.6</ele>
        <time>2021-03-10T12:13:02Z</time>
      </trkpt>
      <trkpt lat="45.1309" lon="6.12943">
        <ele>3239.8</ele>
        <time>2021-03-10T12:13:03Z</time>
      </trkpt>
      <trkpt lat="45.13087" lon="6.12943">
        <ele>3239</ele>
        <time>2021-03-10T12:13:04Z</time>
      </trkpt>
      <trkpt lat="45.13083" lon="6.12943">
        <ele>3237</ele>
        <time>2021-03-10T12:13:05Z</time>
      </trkpt>
      <trkpt lat="45.13082" lon="6.12943">
        <ele>3237</ele>
        <time>2021-03-10T12:13:06Z</time>
      </trkpt>
      <trkpt lat="45.13079" lon="6.12943">
        <ele>3236</ele>
        <time>2021-03-10T12:13:07Z</time>
      </trkpt>
      <trkpt lat="45.13077" lon="6.12943">
        <ele>3236</ele>
        <time>2021-03-10T12:13:08Z</time>
      </trkpt>
      <trkpt lat="45.13075" lon="6.12944">
        <ele>3235.1</ele>
        <time>2021-03-10T12:13:09Z</time>
      </trkpt>
      <trkpt lat="45.13075" lon="6.12944">
        <ele>3235.1</ele>
        <time>2021-03-10T12:13:10Z</time>
      </trkpt>
      <trkpt lat="45.13075" lon="6.12946">
        <ele>3235.1</ele>
        <time>2021-03-10T12:13:11Z</time>
      </trkpt>
      <trkpt lat="45.13077" lon="6.12951">
        <ele>3234.2</ele>
        <time>2021-03-10T12:13:12Z</time>
      </trkpt>
      <trkpt lat="45.1308" lon="6.12955">
        <ele>3234.1</ele>
        <time>2021-03-10T12:13:13Z</time>
      </trkpt>
      <trkpt lat="45.13083" lon="6.12958">
        <ele>3234.2</ele>
        <time>2021-03-10T12:13:14Z</time>
      </trkpt>
      <trkpt lat="45.13085" lon="6.12962">
        <ele>3234.3</ele>
        <time>2021-03-10T12:13:15Z</time>
      </trkpt>
      <trkpt lat="45.13086" lon="6.12963">
        <ele>3234.3</ele>
        <time>2021-03-10T12:13:16Z</time>
      </trkpt>
      <trkpt lat="45.13087" lon="6.12965">
        <ele>3234.5</ele>
        <time>2021-03-10T12:13:17Z</time>
      </trkpt>
      <trkpt lat="45.13087" lon="6.12966">
        <ele>3234.5</ele>
        <time>2021-03-10T12:13:18Z</time>
      </trkpt>
      <trkpt lat="45.13088" lon="6.12967">
        <ele>3234.5</ele>
        <time>2021-03-10T12:13:19Z</time>
      </trkpt>
      <trkpt lat="45.13089" lon="6.1297">
        <ele>3233.5</ele>
        <time>2021-03-10T12:13:20Z</time>
      </trkpt>
      <trkpt lat="45.1309" lon="6.12972">
        <ele>3234.5</ele>
        <time>2021-03-10T12:13:21Z</time>
      </trkpt>
      <trkpt lat="45.13091" lon="6.12974">
        <ele>3233.6</ele>
        <time>2021-03-10T12:13:22Z</time>
      </trkpt>
      <trkpt lat="45.13091" lon="6.12976">
        <ele>3233.6</ele>
        <time>2021-03-10T12:13:23Z</time>
      </trkpt>
      <trkpt lat="45.1309" lon="6.12977">
        <ele>3233.6</ele>
        <time>2021-03-10T12:13:24Z</time>
      </trkpt>
      <trkpt lat="45.13088" lon="6.12976">
        <ele>3232.5</ele>
        <time>2021-03-10T12:13:25Z</time>
      </trkpt>
      <trkpt lat="45.13085" lon="6.12975">
        <ele>3231.4</ele>
        <time>2021-03-10T12:13:26Z</time>
      </trkpt>
      <trkpt lat="45.13084" lon="6.12974">
        <ele>3231.4</ele>
        <time>2021-03-10T12:13:27Z</time>
      </trkpt>
      <trkpt lat="45.13084" lon="6.12976">
        <ele>3231.4</ele>
        <time>2021-03-10T12:13:28Z</time>
      </trkpt>
      <trkpt lat="45.13085" lon="6.12979">
        <ele>3230.4</ele>
        <time>2021-03-10T12:13:29Z</time>
      </trkpt>
      <trkpt lat="45.13086" lon="6.12983">
        <ele>3230.7</ele>
        <time>2021-03-10T12:13:30Z</time>
      </trkpt>
      <trkpt lat="45.13088" lon="6.12986">
        <ele>3229.7</ele>
        <time>2021-03-10T12:13:31Z</time>
      </trkpt>
      <trkpt lat="45.1309" lon="6.1299">
        <ele>3230.9</ele>
        <time>2021-03-10T12:13:32Z</time>
      </trkpt>
      <trkpt lat="45.13092" lon="6.12995">
        <ele>3228.9</ele>
        <time>2021-03-10T12:13:33Z</time>
      </trkpt>
      <trkpt lat="45.13093" lon="6.13">
        <ele>3229</ele>
        <time>2021-03-10T12:13:34Z</time>
      </trkpt>
      <trkpt lat="45.13094" lon="6.13005">
        <ele>3227.8</ele>
        <time>2021-03-10T12:13:35Z</time>
      </trkpt>
      <trkpt lat="45.13094" lon="6.1301">
        <ele>3226.5</ele>
        <time>2021-03-10T12:13:36Z</time>
      </trkpt>
      <trkpt lat="45.13093" lon="6.13011">
        <ele>3226.5</ele>
        <time>2021-03-10T12:13:37Z</time>
      </trkpt>
      <trkpt lat="45.13092" lon="6.13014">
        <ele>3223.9</ele>
        <time>2021-03-10T12:13:38Z</time>
      </trkpt>
      <trkpt lat="45.1309" lon="6.13019">
        <ele>3222.6</ele>
        <time>2021-03-10T12:13:39Z</time>
      </trkpt>
      <trkpt lat="45.13089" lon="6.13025">
        <ele>3220.1</ele>
        <time>2021-03-10T12:13:40Z</time>
      </trkpt>
      <trkpt lat="45.13089" lon="6.1303">
        <ele>3217.1</ele>
        <time>2021-03-10T12:13:41Z</time>
      </trkpt>
      <trkpt lat="45.13088" lon="6.13032">
        <ele>3217.1</ele>
        <time>2021-03-10T12:13:42Z</time>
      </trkpt>
      <trkpt lat="45.13087" lon="6.13033">
        <ele>3217.1</ele>
        <time>2021-03-10T12:13:43Z</time>
      </trkpt>
      <trkpt lat="45.13083" lon="6.13032">
        <ele>3215.3</ele>
        <time>2021-03-10T12:13:44Z</time>
      </trkpt>
      <trkpt lat="45.1308" lon="6.13029">
        <ele>3211.6</ele>
        <time>2021-03-10T12:13:45Z</time>
      </trkpt>
      <trkpt lat="45.13076" lon="6.13027">
        <ele>3211.4</ele>
        <time>2021-03-10T12:13:46Z</time>
      </trkpt>
      <trkpt lat="45.13073" lon="6.13025">
        <ele>3209.9</ele>
        <time>2021-03-10T12:13:47Z</time>
      </trkpt>
      <trkpt lat="45.13073" lon="6.13026">
        <ele>3209.9</ele>
        <time>2021-03-10T12:13:48Z</time>
      </trkpt>
      <trkpt lat="45.13074" lon="6.13027">
        <ele>3209.9</ele>
        <time>2021-03-10T12:13:49Z</time>
      </trkpt>
      <trkpt lat="45.13074" lon="6.13028">
        <ele>3209.9</ele>
        <time>2021-03-10T12:13:50Z</time>
      </trkpt>
      <trkpt lat="45.13074" lon="6.13029">
        <ele>3210</ele>
        <time>2021-03-10T12:13:51Z</time>
      </trkpt>
      <trkpt lat="45.13075" lon="6.1303">
        <ele>3210</ele>
        <time>2021-03-10T12:13:52Z</time>
      </trkpt>
      <trkpt lat="45.13075" lon="6.13031">
        <ele>3210</ele>
        <time>2021-03-10T12:13:53Z</time>
      </trkpt>
      <trkpt lat="45.13075" lon="6.13032">
        <ele>3210</ele>
        <time>2021-03-10T12:13:54Z</time>
      </trkpt>
      <trkpt lat="45.13076" lon="6.13033">
        <ele>3210</ele>
        <time>2021-03-10T12:13:55Z</time>
      </trkpt>
      <trkpt lat="45.13076" lon="6.13034">
        <ele>3208.6</ele>
        <time>2021-03-10T12:13:56Z</time>
      </trkpt>
      <trkpt lat="45.13076" lon="6.13035">
        <ele>3208.6</ele>
        <time>2021-03-10T12:13:57Z</time>
      </trkpt>
      <trkpt lat="45.13077" lon="6.13036">
        <ele>3208.6</ele>
        <time>2021-03-10T12:14:18Z</time>
      </trkpt>
      <trkpt lat="45.13077" lon="6.13037">
        <ele>3208.6</ele>
        <time>2021-03-10T12:14:19Z</time>
      </trkpt>
      <trkpt lat="45.13078" lon="6.13041">
        <ele>3208</ele>
        <time>2021-03-10T12:14:20Z</time>
      </trkpt>
      <trkpt lat="45.13078" lon="6.13042">
        <ele>3206.6</ele>
        <time>2021-03-10T12:14:21Z</time>
      </trkpt>
      <trkpt lat="45.13078" lon="6.13046">
        <ele>3205</ele>
        <time>2021-03-10T12:14:22Z</time>
      </trkpt>
      <trkpt lat="45.13077" lon="6.13048">
        <ele>3205</ele>
        <time>2021-03-10T12:14:23Z</time>
      </trkpt>
      <trkpt lat="45.13077" lon="6.13054">
        <ele>3203.5</ele>
        <time>2021-03-10T12:14:24Z</time>
      </trkpt>
      <trkpt lat="45.13077" lon="6.13056">
        <ele>3200.2</ele>
        <time>2021-03-10T12:14:25Z</time>
      </trkpt>
      <trkpt lat="45.13077" lon="6.13062">
        <ele>3198.8</ele>
        <time>2021-03-10T12:14:26Z</time>
      </trkpt>
      <trkpt lat="45.13076" lon="6.13065">
        <ele>3197.4</ele>
        <time>2021-03-10T12:14:27Z</time>
      </trkpt>
      <trkpt lat="45.13075" lon="6.13067">
        <ele>3197.4</ele>
        <time>2021-03-10T12:14:28Z</time>
      </trkpt>
      <trkpt lat="45.13073" lon="6.13066">
        <ele>3195.7</ele>
        <time>2021-03-10T12:14:29Z</time>
      </trkpt>
      <trkpt lat="45.13069" lon="6.13063">
        <ele>3194.2</ele>
        <time>2021-03-10T12:14:30Z</time>
      </trkpt>
      <trkpt lat="45.13066" lon="6.13062">
        <ele>3194</ele>
        <time>2021-03-10T12:14:31Z</time>
      </trkpt>
      <trkpt lat="45.13065" lon="6.13062">
        <ele>3194</ele>
        <time>2021-03-10T12:14:32Z</time>
      </trkpt>
      <trkpt lat="45.13064" lon="6.13063">
        <ele>3192.3</ele>
        <time>2021-03-10T12:14:33Z</time>
      </trkpt>
      <trkpt lat="45.13062" lon="6.13063">
        <ele>3190.8</ele>
        <time>2021-03-10T12:14:34Z</time>
      </trkpt>
      <trkpt lat="45.13061" lon="6.13063">
        <ele>3190.4</ele>
        <time>2021-03-10T12:14:35Z</time>
      </trkpt>
      <trkpt lat="45.13059" lon="6.13062">
        <ele>3190.4</ele>
        <time>2021-03-10T12:14:36Z</time>
      </trkpt>
      <trkpt lat="45.13058" lon="6.13067">
        <ele>3185.5</ele>
        <time>2021-03-10T12:14:37Z</time>
      </trkpt>
      <trkpt lat="45.13057" lon="6.1307">
        <ele>3185.5</ele>
        <time>2021-03-10T12:14:38Z</time>
      </trkpt>
      <trkpt lat="45.13057" lon="6.13074">
        <ele>3184.2</ele>
        <time>2021-03-10T12:14:39Z</time>
      </trkpt>
      <trkpt lat="45.13057" lon="6.13079">
        <ele>3182.9</ele>
        <time>2021-03-10T12:14:40Z</time>
      </trkpt>
      <trkpt lat="45.13055" lon="6.13083">
        <ele>3179.4</ele>
        <time>2021-03-10T12:14:41Z</time>
      </trkpt>
      <trkpt lat="45.13055" lon="6.13084">
        <ele>3178</ele>
        <time>2021-03-10T12:14:42Z</time>
      </trkpt>
      <trkpt lat="45.13052" lon="6.13088">
        <ele>3175.9</ele>
        <time>2021-03-10T12:14:43Z</time>
      </trkpt>
      <trkpt lat="45.1305" lon="6.13088">
        <ele>3175.9</ele>
        <time>2021-03-10T12:14:44Z</time>
      </trkpt>
      <trkpt lat="45.13048" lon="6.1309">
        <ele>3172.4</ele>
        <time>2021-03-10T12:14:45Z</time>
      </trkpt>
      <trkpt lat="45.13045" lon="6.1309">
        <ele>3170.3</ele>
        <time>2021-03-10T12:14:46Z</time>
      </trkpt>
      <trkpt lat="45.13041" lon="6.1309">
        <ele>3168.2</ele>
        <time>2021-03-10T12:14:47Z</time>
      </trkpt>
      <trkpt lat="45.1304" lon="6.13091">
        <ele>3166</ele>
        <time>2021-03-10T12:14:48Z</time>
      </trkpt>
      <trkpt lat="45.13038" lon="6.13092">
        <ele>3163.8</ele>
        <time>2021-03-10T12:14:49Z</time>
      </trkpt>
      <trkpt lat="45.13037" lon="6.13093">
        <ele>3163.8</ele>
        <time>2021-03-10T12:14:50Z</time>
      </trkpt>
      <trkpt lat="45.13037" lon="6.13093">
        <ele>3163.8</ele>
        <time>2021-03-10T12:14:51Z</time>
      </trkpt>
      <trkpt lat="45.13037" lon="6.13093">
        <ele>3163.8</ele>
        <time>2021-03-10T12:14:52Z</time>
      </trkpt>
      <trkpt lat="45.13037" lon="6.13093">
        <ele>3163.8</ele>
        <time>2021-03-10T12:14:53Z</time>
      </trkpt>
      <trkpt lat="45.13037" lon="6.13093">
        <ele>3163.8</ele>
        <time>2021-03-10T12:14:54Z</time>
      </trkpt>
      <trkpt lat="45.13035" lon="6.13091">
        <ele>3163.8</ele>
        <time>2021-03-10T12:14:55Z</time>
      </trkpt>
      <trkpt lat="45.13035" lon="6.1309">
        <ele>3161.5</ele>
        <time>2021-03-10T12:14:56Z</time>
      </trkpt>
      <trkpt lat="45.13034" lon="6.13089">
        <ele>3161.5</ele>
        <time>2021-03-10T12:14:57Z</time>
      </trkpt>
      <trkpt lat="45.13032" lon="6.13087">
        <ele>3162.9</ele>
        <time>2021-03-10T12:14:58Z</time>
      </trkpt>
      <trkpt lat="45.13031" lon="6.13085">
        <ele>3160.6</ele>
        <time>2021-03-10T12:14:59Z</time>
      </trkpt>
      <trkpt lat="45.1303" lon="6.13084">
        <ele>3162.1</ele>
        <time>2021-03-10T12:15:00Z</time>
      </trkpt>
      <trkpt lat="45.13029" lon="6.13087">
        <ele>3158.2</ele>
        <time>2021-03-10T12:15:01Z</time>
      </trkpt>
      <trkpt lat="45.13028" lon="6.13089">
        <ele>3158.2</ele>
        <time>2021-03-10T12:15:02Z</time>
      </trkpt>
      <trkpt lat="45.13027" lon="6.13093">
        <ele>3155.3</ele>
        <time>2021-03-10T12:15:03Z</time>
      </trkpt>
      <trkpt lat="45.13026" lon="6.13094">
        <ele>3155.3</ele>
        <time>2021-03-10T12:15:04Z</time>
      </trkpt>
      <trkpt lat="45.13024" lon="6.13097">
        <ele>3152.9</ele>
        <time>2021-03-10T12:15:05Z</time>
      </trkpt>
      <trkpt lat="45.13023" lon="6.13098">
        <ele>3149.1</ele>
        <time>2021-03-10T12:15:06Z</time>
      </trkpt>
      <trkpt lat="45.13021" lon="6.13101">
        <ele>3149.1</ele>
        <time>2021-03-10T12:15:07Z</time>
      </trkpt>
      <trkpt lat="45.13019" lon="6.13104">
        <ele>3145.6</ele>
        <time>2021-03-10T12:15:08Z</time>
      </trkpt>
      <trkpt lat="45.13016" lon="6.13106">
        <ele>3142.3</ele>
        <time>2021-03-10T12:15:09Z</time>
      </trkpt>
      <trkpt lat="45.13014" lon="6.13107">
        <ele>3142.3</ele>
        <time>2021-03-10T12:15:10Z</time>
      </trkpt>
      <trkpt lat="45.13013" lon="6.1311">
        <ele>3140.4</ele>
        <time>2021-03-10T12:15:11Z</time>
      </trkpt>
      <trkpt lat="45.13011" lon="6.13114">
        <ele>3139.3</ele>
        <time>2021-03-10T12:15:12Z</time>
      </trkpt>
      <trkpt lat="45.13011" lon="6.13115">
        <ele>3138.2</ele>
        <time>2021-03-10T12:15:13Z</time>
      </trkpt>
      <trkpt lat="45.1301" lon="6.13119">
        <ele>3135.3</ele>
        <time>2021-03-10T12:15:14Z</time>
      </trkpt>
      <trkpt lat="45.13009" lon="6.13121">
        <ele>3135.3</ele>
        <time>2021-03-10T12:15:15Z</time>
      </trkpt>
      <trkpt lat="45.13008" lon="6.13125">
        <ele>3134.3</ele>
        <time>2021-03-10T12:15:16Z</time>
      </trkpt>
      <trkpt lat="45.13008" lon="6.13128">
        <ele>3133.3</ele>
        <time>2021-03-10T12:15:17Z</time>
      </trkpt>
      <trkpt lat="45.13008" lon="6.13128">
        <ele>3133.3</ele>
        <time>2021-03-10T12:15:18Z</time>
      </trkpt>
      <trkpt lat="45.13006" lon="6.13126">
        <ele>3132.3</ele>
        <time>2021-03-10T12:15:19Z</time>
      </trkpt>
      <trkpt lat="45.13005" lon="6.13124">
        <ele>3132.3</ele>
        <time>2021-03-10T12:15:20Z</time>
      </trkpt>
      <trkpt lat="45.13004" lon="6.13121">
        <ele>3131.2</ele>
        <time>2021-03-10T12:15:21Z</time>
      </trkpt>
      <trkpt lat="45.13001" lon="6.13118">
        <ele>3130.1</ele>
        <time>2021-03-10T12:15:22Z</time>
      </trkpt>
      <trkpt lat="45.12999" lon="6.13116">
        <ele>3130.1</ele>
        <time>2021-03-10T12:15:23Z</time>
      </trkpt>
      <trkpt lat="45.12996" lon="6.13114">
        <ele>3129</ele>
        <time>2021-03-10T12:15:24Z</time>
      </trkpt>
      <trkpt lat="45.12995" lon="6.13114">
        <ele>3126.8</ele>
        <time>2021-03-10T12:15:25Z</time>
      </trkpt>
      <trkpt lat="45.12996" lon="6.13118">
        <ele>3127.8</ele>
        <time>2021-03-10T12:15:26Z</time>
      </trkpt>
      <trkpt lat="45.12997" lon="6.13124">
        <ele>3125.7</ele>
        <time>2021-03-10T12:15:27Z</time>
      </trkpt>
      <trkpt lat="45.12999" lon="6.13128">
        <ele>3126.9</ele>
        <time>2021-03-10T12:15:28Z</time>
      </trkpt>
      <trkpt lat="45.13" lon="6.13133">
        <ele>3125.8</ele>
        <time>2021-03-10T12:15:29Z</time>
      </trkpt>
      <trkpt lat="45.13002" lon="6.13137">
        <ele>3127</ele>
        <time>2021-03-10T12:15:30Z</time>
      </trkpt>
      <trkpt lat="45.13003" lon="6.13141">
        <ele>3125.9</ele>
        <time>2021-03-10T12:15:31Z</time>
      </trkpt>
      <trkpt lat="45.13004" lon="6.13146">
        <ele>3124.8</ele>
        <time>2021-03-10T12:15:32Z</time>
      </trkpt>
      <trkpt lat="45.13006" lon="6.1315">
        <ele>3126.1</ele>
        <time>2021-03-10T12:15:33Z</time>
      </trkpt>
      <trkpt lat="45.13007" lon="6.13156">
        <ele>3125.2</ele>
        <time>2021-03-10T12:15:34Z</time>
      </trkpt>
      <trkpt lat="45.13008" lon="6.13162">
        <ele>3125.7</ele>
        <time>2021-03-10T12:15:35Z</time>
      </trkpt>
      <trkpt lat="45.13009" lon="6.13167">
        <ele>3125</ele>
        <time>2021-03-10T12:15:36Z</time>
      </trkpt>
      <trkpt lat="45.1301" lon="6.13172">
        <ele>3124.3</ele>
        <time>2021-03-10T12:15:37Z</time>
      </trkpt>
      <trkpt lat="45.13011" lon="6.13179">
        <ele>3125.7</ele>
        <time>2021-03-10T12:15:38Z</time>
      </trkpt>
      <trkpt lat="45.13012" lon="6.13187">
        <ele>3124.8</ele>
        <time>2021-03-10T12:15:39Z</time>
      </trkpt>
      <trkpt lat="45.13014" lon="6.13195">
        <ele>3126.2</ele>
        <time>2021-03-10T12:15:40Z</time>
      </trkpt>
      <trkpt lat="45.13015" lon="6.13202">
        <ele>3125.9</ele>
        <time>2021-03-10T12:15:41Z</time>
      </trkpt>
      <trkpt lat="45.13016" lon="6.13207">
        <ele>3126</ele>
        <time>2021-03-10T12:15:42Z</time>
      </trkpt>
      <trkpt lat="45.13015" lon="6.1321">
        <ele>3126.1</ele>
        <time>2021-03-10T12:15:43Z</time>
      </trkpt>
      <trkpt lat="45.13014" lon="6.1321">
        <ele>3126.1</ele>
        <time>2021-03-10T12:15:44Z</time>
      </trkpt>
      <trkpt lat="45.13013" lon="6.1321">
        <ele>3124</ele>
        <time>2021-03-10T12:15:45Z</time>
      </trkpt>
      <trkpt lat="45.1301" lon="6.13209">
        <ele>3122</ele>
        <time>2021-03-10T12:15:46Z</time>
      </trkpt>
      <trkpt lat="45.13006" lon="6.13208">
        <ele>3120</ele>
        <time>2021-03-10T12:15:47Z</time>
      </trkpt>
      <trkpt lat="45.13002" lon="6.13208">
        <ele>3117.8</ele>
        <time>2021-03-10T12:15:48Z</time>
      </trkpt>
      <trkpt lat="45.12998" lon="6.13209">
        <ele>3113.2</ele>
        <time>2021-03-10T12:15:49Z</time>
      </trkpt>
      <trkpt lat="45.12995" lon="6.13209">
        <ele>3110.9</ele>
        <time>2021-03-10T12:15:50Z</time>
      </trkpt>
      <trkpt lat="45.12992" lon="6.13208">
        <ele>3108.9</ele>
        <time>2021-03-10T12:15:51Z</time>
      </trkpt>
      <trkpt lat="45.12989" lon="6.13205">
        <ele>3107.1</ele>
        <time>2021-03-10T12:15:52Z</time>
      </trkpt>
      <trkpt lat="45.12986" lon="6.13203">
        <ele>3105.4</ele>
        <time>2021-03-10T12:15:53Z</time>
      </trkpt>
      <trkpt lat="45.12983" lon="6.13201">
        <ele>3103.7</ele>
        <time>2021-03-10T12:15:54Z</time>
      </trkpt>
      <trkpt lat="45.1298" lon="6.13199">
        <ele>3102</ele>
        <time>2021-03-10T12:15:55Z</time>
      </trkpt>
      <trkpt lat="45.12978" lon="6.13197">
        <ele>3102</ele>
        <time>2021-03-10T12:15:56Z</time>
      </trkpt>
      <trkpt lat="45.12976" lon="6.13195">
        <ele>3100.2</ele>
        <time>2021-03-10T12:15:57Z</time>
      </trkpt>
      <trkpt lat="45.12976" lon="6.13195">
        <ele>3100.2</ele>
        <time>2021-03-10T12:15:58Z</time>
      </trkpt>
      <trkpt lat="45.12976" lon="6.13195">
        <ele>3100.2</ele>
        <time>2021-03-10T12:15:59Z</time>
      </trkpt>
      <trkpt lat="45.12976" lon="6.13195">
        <ele>3100.2</ele>
        <time>2021-03-10T12:16:00Z</time>
      </trkpt>
      <trkpt lat="45.12976" lon="6.13195">
        <ele>3100.2</ele>
        <time>2021-03-10T12:16:01Z</time>
      </trkpt>
      <trkpt lat="45.12976" lon="6.13195">
        <ele>3100.2</ele>
        <time>2021-03-10T12:16:02Z</time>
      </trkpt>
      <trkpt lat="45.12976" lon="6.13195">
        <ele>3100.2</ele>
        <time>2021-03-10T12:16:03Z</time>
      </trkpt>
      <trkpt lat="45.12976" lon="6.13195">
        <ele>3100.2</ele>
        <time>2021-03-10T12:16:04Z</time>
      </trkpt>
      <trkpt lat="45.12976" lon="6.13195">
        <ele>3100.2</ele>
        <time>2021-03-10T12:16:05Z</time>
      </trkpt>
      <trkpt lat="45.12976" lon="6.13195">
        <ele>3100.2</ele>
        <time>2021-03-10T12:16:06Z</time>
      </trkpt>
      <trkpt lat="45.12975" lon="6.13192">
        <ele>3100.2</ele>
        <time>2021-03-10T12:16:07Z</time>
      </trkpt>
      <trkpt lat="45.12971" lon="6.13188">
        <ele>3096.3</ele>
        <time>2021-03-10T12:16:10Z</time>
      </trkpt>
      <trkpt lat="45.12969" lon="6.13187">
        <ele>3096.7</ele>
        <time>2021-03-10T12:16:11Z</time>
      </trkpt>
      <trkpt lat="45.12967" lon="6.1319">
        <ele>3094.3</ele>
        <time>2021-03-10T12:16:12Z</time>
      </trkpt>
      <trkpt lat="45.12966" lon="6.13196">
        <ele>3093.5</ele>
        <time>2021-03-10T12:16:13Z</time>
      </trkpt>
      <trkpt lat="45.12965" lon="6.13201">
        <ele>3093.2</ele>
        <time>2021-03-10T12:16:14Z</time>
      </trkpt>
      <trkpt lat="45.12963" lon="6.13206">
        <ele>3091.1</ele>
        <time>2021-03-10T12:16:15Z</time>
      </trkpt>
      <trkpt lat="45.12962" lon="6.13207">
        <ele>3091.1</ele>
        <time>2021-03-10T12:16:16Z</time>
      </trkpt>
      <trkpt lat="45.12959" lon="6.13209">
        <ele>3087.2</ele>
        <time>2021-03-10T12:16:17Z</time>
      </trkpt>
      <trkpt lat="45.12955" lon="6.1321">
        <ele>3085.3</ele>
        <time>2021-03-10T12:16:18Z</time>
      </trkpt>
      <trkpt lat="45.12951" lon="6.13212">
        <ele>3083.3</ele>
        <time>2021-03-10T12:16:19Z</time>
      </trkpt>
      <trkpt lat="45.12947" lon="6.13215">
        <ele>3078.9</ele>
        <time>2021-03-10T12:16:20Z</time>
      </trkpt>
      <trkpt lat="45.12945" lon="6.13222">
        <ele>3078.5</ele>
        <time>2021-03-10T12:16:21Z</time>
      </trkpt>
      <trkpt lat="45.12944" lon="6.1323">
        <ele>3077.8</ele>
        <time>2021-03-10T12:16:22Z</time>
      </trkpt>
      <trkpt lat="45.12944" lon="6.13236">
        <ele>3077.1</ele>
        <time>2021-03-10T12:16:23Z</time>
      </trkpt>
      <trkpt lat="45.12944" lon="6.13239">
        <ele>3074.5</ele>
        <time>2021-03-10T12:16:24Z</time>
      </trkpt>
      <trkpt lat="45.12944" lon="6.1324">
        <ele>3074.5</ele>
        <time>2021-03-10T12:16:25Z</time>
      </trkpt>
      <trkpt lat="45.12944" lon="6.1324">
        <ele>3074.5</ele>
        <time>2021-03-10T12:16:26Z</time>
      </trkpt>
      <trkpt lat="45.12944" lon="6.1324">
        <ele>3074.5</ele>
        <time>2021-03-10T12:16:27Z</time>
      </trkpt>
      <trkpt lat="45.12944" lon="6.1324">
        <ele>3074.5</ele>
        <time>2021-03-10T12:16:28Z</time>
      </trkpt>
      <trkpt lat="45.12944" lon="6.1324">
        <ele>3074.5</ele>
        <time>2021-03-10T12:16:29Z</time>
      </trkpt>
      <trkpt lat="45.12944" lon="6.1324">
        <ele>3074.5</ele>
        <time>2021-03-10T12:16:30Z</time>
      </trkpt>
      <trkpt lat="45.12944" lon="6.1324">
        <ele>3074.5</ele>
        <time>2021-03-10T12:16:31Z</time>
      </trkpt>
      <trkpt lat="45.12944" lon="6.1324">
        <ele>3074.5</ele>
        <time>2021-03-10T12:16:32Z</time>
      </trkpt>
      <trkpt lat="45.12944" lon="6.1324">
        <ele>3074.5</ele>
        <time>2021-03-10T12:16:33Z</time>
      </trkpt>
      <trkpt lat="45.12944" lon="6.1324">
        <ele>3074.5</ele>
        <time>2021-03-10T12:16:34Z</time>
      </trkpt>
      <trkpt lat="45.12944" lon="6.1324">
        <ele>3074.5</ele>
        <time>2021-03-10T12:16:35Z</time>
      </trkpt>
      <trkpt lat="45.12935" lon="6.13221">
        <ele>3072.4</ele>
        <time>2021-03-10T12:17:06Z</time>
      </trkpt>
      <trkpt lat="45.12933" lon="6.13217">
        <ele>3071</ele>
        <time>2021-03-10T12:17:07Z</time>
      </trkpt>
      <trkpt lat="45.1293" lon="6.13212">
        <ele>3069.7</ele>
        <time>2021-03-10T12:17:08Z</time>
      </trkpt>
      <trkpt lat="45.12927" lon="6.13208">
        <ele>3068.5</ele>
        <time>2021-03-10T12:17:09Z</time>
      </trkpt>
      <trkpt lat="45.12924" lon="6.13203">
        <ele>3067.4</ele>
        <time>2021-03-10T12:17:10Z</time>
      </trkpt>
      <trkpt lat="45.12922" lon="6.13197">
        <ele>3066.3</ele>
        <time>2021-03-10T12:17:11Z</time>
      </trkpt>
      <trkpt lat="45.1292" lon="6.13192">
        <ele>3065.2</ele>
        <time>2021-03-10T12:17:12Z</time>
      </trkpt>
      <trkpt lat="45.12918" lon="6.13187">
        <ele>3066.5</ele>
        <time>2021-03-10T12:17:13Z</time>
      </trkpt>
      <trkpt lat="45.12917" lon="6.13183">
        <ele>3065.6</ele>
        <time>2021-03-10T12:17:14Z</time>
      </trkpt>
      <trkpt lat="45.12915" lon="6.13178">
        <ele>3066.4</ele>
        <time>2021-03-10T12:17:15Z</time>
      </trkpt>
      <trkpt lat="45.12915" lon="6.13172">
        <ele>3067.1</ele>
        <time>2021-03-10T12:17:16Z</time>
      </trkpt>
      <trkpt lat="45.12913" lon="6.13168">
        <ele>3066.5</ele>
        <time>2021-03-10T12:17:17Z</time>
      </trkpt>
      <trkpt lat="45.12911" lon="6.13165">
        <ele>3067.4</ele>
        <time>2021-03-10T12:17:18Z</time>
      </trkpt>
      <trkpt lat="45.1291" lon="6.13164">
        <ele>3066</ele>
        <time>2021-03-10T12:17:19Z</time>
      </trkpt>
      <trkpt lat="45.12908" lon="6.1316">
        <ele>3067</ele>
        <time>2021-03-10T12:17:20Z</time>
      </trkpt>
      <trkpt lat="45.12907" lon="6.13156">
        <ele>3067</ele>
        <time>2021-03-10T12:17:21Z</time>
      </trkpt>
      <trkpt lat="45.12906" lon="6.13154">
        <ele>3067</ele>
        <time>2021-03-10T12:17:22Z</time>
      </trkpt>
      <trkpt lat="45.12905" lon="6.13149">
        <ele>3068.2</ele>
        <time>2021-03-10T12:17:23Z</time>
      </trkpt>
      <trkpt lat="45.12905" lon="6.13144">
        <ele>3070.9</ele>
        <time>2021-03-10T12:17:24Z</time>
      </trkpt>
      <trkpt lat="45.12904" lon="6.1314">
        <ele>3070</ele>
        <time>2021-03-10T12:17:25Z</time>
      </trkpt>
      <trkpt lat="45.12902" lon="6.13136">
        <ele>3071.5</ele>
        <time>2021-03-10T12:17:26Z</time>
      </trkpt>
      <trkpt lat="45.129" lon="6.13132">
        <ele>3072.2</ele>
        <time>2021-03-10T12:17:27Z</time>
      </trkpt>
      <trkpt lat="45.12898" lon="6.13129">
        <ele>3073</ele>
        <time>2021-03-10T12:17:28Z</time>
      </trkpt>
      <trkpt lat="45.12896" lon="6.13126">
        <ele>3074.5</ele>
        <time>2021-03-10T12:17:29Z</time>
      </trkpt>
      <trkpt lat="45.12893" lon="6.13124">
        <ele>3073.8</ele>
        <time>2021-03-10T12:17:30Z</time>
      </trkpt>
      <trkpt lat="45.12892" lon="6.13123">
        <ele>3074.5</ele>
        <time>2021-03-10T12:17:31Z</time>
      </trkpt>
      <trkpt lat="45.12889" lon="6.13121">
        <ele>3073.8</ele>
        <time>2021-03-10T12:17:32Z</time>
      </trkpt>
      <trkpt lat="45.12887" lon="6.13119">
        <ele>3073.8</ele>
        <time>2021-03-10T12:17:33Z</time>
      </trkpt>
      <trkpt lat="45.12884" lon="6.13117">
        <ele>3074.6</ele>
        <time>2021-03-10T12:17:34Z</time>
      </trkpt>
      <trkpt lat="45.12883" lon="6.13117">
        <ele>3074</ele>
        <time>2021-03-10T12:17:35Z</time>
      </trkpt>
      <trkpt lat="45.12879" lon="6.13116">
        <ele>3073.6</ele>
        <time>2021-03-10T12:17:36Z</time>
      </trkpt>
      <trkpt lat="45.12876" lon="6.13114">
        <ele>3074.8</ele>
        <time>2021-03-10T12:17:37Z</time>
      </trkpt>
      <trkpt lat="45.12873" lon="6.13114">
        <ele>3074.6</ele>
        <time>2021-03-10T12:17:38Z</time>
      </trkpt>
      <trkpt lat="45.12869" lon="6.13113">
        <ele>3074.3</ele>
        <time>2021-03-10T12:17:39Z</time>
      </trkpt>
      <trkpt lat="45.12868" lon="6.13113">
        <ele>3074</ele>
        <time>2021-03-10T12:17:40Z</time>
      </trkpt>
      <trkpt lat="45.12864" lon="6.13114">
        <ele>3073.7</ele>
        <time>2021-03-10T12:17:41Z</time>
      </trkpt>
      <trkpt lat="45.12862" lon="6.13114">
        <ele>3073.5</ele>
        <time>2021-03-10T12:17:42Z</time>
      </trkpt>
      <trkpt lat="45.12859" lon="6.13114">
        <ele>3073.5</ele>
        <time>2021-03-10T12:17:43Z</time>
      </trkpt>
      <trkpt lat="45.12856" lon="6.13114">
        <ele>3073.3</ele>
        <time>2021-03-10T12:17:44Z</time>
      </trkpt>
      <trkpt lat="45.12853" lon="6.13114">
        <ele>3073</ele>
        <time>2021-03-10T12:17:45Z</time>
      </trkpt>
      <trkpt lat="45.12851" lon="6.13114">
        <ele>3070.9</ele>
        <time>2021-03-10T12:17:46Z</time>
      </trkpt>
      <trkpt lat="45.12848" lon="6.13115">
        <ele>3070.8</ele>
        <time>2021-03-10T12:17:47Z</time>
      </trkpt>
      <trkpt lat="45.12846" lon="6.13116">
        <ele>3070.6</ele>
        <time>2021-03-10T12:17:48Z</time>
      </trkpt>
      <trkpt lat="45.12844" lon="6.13116">
        <ele>3070.5</ele>
        <time>2021-03-10T12:17:49Z</time>
      </trkpt>
      <trkpt lat="45.12844" lon="6.13116">
        <ele>3070.5</ele>
        <time>2021-03-10T12:17:50Z</time>
      </trkpt>
      <trkpt lat="45.12844" lon="6.13116">
        <ele>3070.5</ele>
        <time>2021-03-10T12:17:51Z</time>
      </trkpt>
      <trkpt lat="45.12843" lon="6.13117">
        <ele>3070.5</ele>
        <time>2021-03-10T12:17:52Z</time>
      </trkpt>
      <trkpt lat="45.12843" lon="6.13117">
        <ele>3070.5</ele>
        <time>2021-03-10T12:17:53Z</time>
      </trkpt>
      <trkpt lat="45.12844" lon="6.13118">
        <ele>3070.5</ele>
        <time>2021-03-10T12:17:54Z</time>
      </trkpt>
      <trkpt lat="45.12844" lon="6.1312">
        <ele>3068.2</ele>
        <time>2021-03-10T12:17:55Z</time>
      </trkpt>
      <trkpt lat="45.12846" lon="6.1313">
        <ele>3063.9</ele>
        <time>2021-03-10T12:17:56Z</time>
      </trkpt>
      <trkpt lat="45.12848" lon="6.13137">
        <ele>3059.5</ele>
        <time>2021-03-10T12:17:57Z</time>
      </trkpt>
      <trkpt lat="45.12851" lon="6.13143">
        <ele>3057.6</ele>
        <time>2021-03-10T12:17:58Z</time>
      </trkpt>
      <trkpt lat="45.12856" lon="6.13148">
        <ele>3055.9</ele>
        <time>2021-03-10T12:17:59Z</time>
      </trkpt>
      <trkpt lat="45.12859" lon="6.13152">
        <ele>3054.5</ele>
        <time>2021-03-10T12:18:00Z</time>
      </trkpt>
      <trkpt lat="45.12861" lon="6.13156">
        <ele>3053.4</ele>
        <time>2021-03-10T12:18:01Z</time>
      </trkpt>
      <trkpt lat="45.12862" lon="6.13158">
        <ele>3051.6</ele>
        <time>2021-03-10T12:18:02Z</time>
      </trkpt>
      <trkpt lat="45.12862" lon="6.13159">
        <ele>3052.5</ele>
        <time>2021-03-10T12:18:03Z</time>
      </trkpt>
      <trkpt lat="45.12863" lon="6.1316">
        <ele>3052.5</ele>
        <time>2021-03-10T12:18:04Z</time>
      </trkpt>
      <trkpt lat="45.12863" lon="6.1316">
        <ele>3052.5</ele>
        <time>2021-03-10T12:18:05Z</time>
      </trkpt>
      <trkpt lat="45.12863" lon="6.13161">
        <ele>3052.5</ele>
        <time>2021-03-10T12:18:06Z</time>
      </trkpt>
      <trkpt lat="45.12863" lon="6.13162">
        <ele>3050.8</ele>
        <time>2021-03-10T12:18:07Z</time>
      </trkpt>
      <trkpt lat="45.12863" lon="6.13163">
        <ele>3050.8</ele>
        <time>2021-03-10T12:18:08Z</time>
      </trkpt>
      <trkpt lat="45.12863" lon="6.13163">
        <ele>3050.8</ele>
        <time>2021-03-10T12:18:09Z</time>
      </trkpt>
      <trkpt lat="45.12864" lon="6.13164">
        <ele>3050.8</ele>
        <time>2021-03-10T12:18:10Z</time>
      </trkpt>
      <trkpt lat="45.12864" lon="6.13165">
        <ele>3050.8</ele>
        <time>2021-03-10T12:18:11Z</time>
      </trkpt>
      <trkpt lat="45.12864" lon="6.13166">
        <ele>3050.8</ele>
        <time>2021-03-10T12:18:12Z</time>
      </trkpt>
      <trkpt lat="45.12865" lon="6.1317">
        <ele>3049.3</ele>
        <time>2021-03-10T12:18:13Z</time>
      </trkpt>
      <trkpt lat="45.12865" lon="6.13172">
        <ele>3048.8</ele>
        <time>2021-03-10T12:18:14Z</time>
      </trkpt>
      <trkpt lat="45.12866" lon="6.13175">
        <ele>3047.3</ele>
        <time>2021-03-10T12:18:15Z</time>
      </trkpt>
      <trkpt lat="45.12866" lon="6.13179">
        <ele>3047.3</ele>
        <time>2021-03-10T12:18:16Z</time>
      </trkpt>
      <trkpt lat="45.12866" lon="6.1318">
        <ele>3045.8</ele>
        <time>2021-03-10T12:18:17Z</time>
      </trkpt>
      <trkpt lat="45.12866" lon="6.13186">
        <ele>3044.3</ele>
        <time>2021-03-10T12:18:18Z</time>
      </trkpt>
      <trkpt lat="45.12866" lon="6.13188">
        <ele>3042.8</ele>
        <time>2021-03-10T12:18:19Z</time>
      </trkpt>
      <trkpt lat="45.12867" lon="6.13194">
        <ele>3041.4</ele>
        <time>2021-03-10T12:18:20Z</time>
      </trkpt>
      <trkpt lat="45.12867" lon="6.13198">
        <ele>3040</ele>
        <time>2021-03-10T12:18:21Z</time>
      </trkpt>
      <trkpt lat="45.12867" lon="6.132">
        <ele>3040</ele>
        <time>2021-03-10T12:18:22Z</time>
      </trkpt>
      <trkpt lat="45.12867" lon="6.13201">
        <ele>3038.7</ele>
        <time>2021-03-10T12:18:23Z</time>
      </trkpt>
      <trkpt lat="45.12867" lon="6.13202">
        <ele>3038.7</ele>
        <time>2021-03-10T12:18:24Z</time>
      </trkpt>
      <trkpt lat="45.12866" lon="6.13203">
        <ele>3038.7</ele>
        <time>2021-03-10T12:18:25Z</time>
      </trkpt>
      <trkpt lat="45.12866" lon="6.13204">
        <ele>3038.7</ele>
        <time>2021-03-10T12:18:26Z</time>
      </trkpt>
      <trkpt lat="45.12866" lon="6.13204">
        <ele>3038.7</ele>
        <time>2021-03-10T12:18:27Z</time>
      </trkpt>
      <trkpt lat="45.12866" lon="6.13205">
        <ele>3037.5</ele>
        <time>2021-03-10T12:18:28Z</time>
      </trkpt>
      <trkpt lat="45.12866" lon="6.13205">
        <ele>3037.5</ele>
        <time>2021-03-10T12:18:29Z</time>
      </trkpt>
      <trkpt lat="45.12866" lon="6.13206">
        <ele>3037.5</ele>
        <time>2021-03-10T12:18:30Z</time>
      </trkpt>
      <trkpt lat="45.12866" lon="6.13207">
        <ele>3037.5</ele>
        <time>2021-03-10T12:18:31Z</time>
      </trkpt>
      <trkpt lat="45.12865" lon="6.13212">
        <ele>3036.3</ele>
        <time>2021-03-10T12:18:32Z</time>
      </trkpt>
      <trkpt lat="45.12865" lon="6.13213">
        <ele>3036.3</ele>
        <time>2021-03-10T12:18:33Z</time>
      </trkpt>
      <trkpt lat="45.12865" lon="6.13213">
        <ele>3036.3</ele>
        <time>2021-03-10T12:18:34Z</time>
      </trkpt>
      <trkpt lat="45.12865" lon="6.13212">
        <ele>3036.3</ele>
        <time>2021-03-10T12:18:35Z</time>
      </trkpt>
      <trkpt lat="45.12866" lon="6.13211">
        <ele>3036.3</ele>
        <time>2021-03-10T12:18:36Z</time>
      </trkpt>
      <trkpt lat="45.12865" lon="6.13208">
        <ele>3036.1</ele>
        <time>2021-03-10T12:18:37Z</time>
      </trkpt>
      <trkpt lat="45.12863" lon="6.13204">
        <ele>3037.3</ele>
        <time>2021-03-10T12:18:38Z</time>
      </trkpt>
      <trkpt lat="45.12862" lon="6.13199">
        <ele>3037.4</ele>
        <time>2021-03-10T12:18:39Z</time>
      </trkpt>
      <trkpt lat="45.12861" lon="6.13194">
        <ele>3038.8</ele>
        <time>2021-03-10T12:18:40Z</time>
      </trkpt>
      <trkpt lat="45.1286" lon="6.13191">
        <ele>3040.4</ele>
        <time>2021-03-10T12:18:41Z</time>
      </trkpt>
      <trkpt lat="45.12857" lon="6.13192">
        <ele>3037.7</ele>
        <time>2021-03-10T12:18:42Z</time>
      </trkpt>
      <trkpt lat="45.12856" lon="6.13193">
        <ele>3037.7</ele>
        <time>2021-03-10T12:18:43Z</time>
      </trkpt>
      <trkpt lat="45.12855" lon="6.13194">
        <ele>3036.6</ele>
        <time>2021-03-10T12:18:44Z</time>
      </trkpt>
      <trkpt lat="45.12855" lon="6.13193">
        <ele>3036.6</ele>
        <time>2021-03-10T12:18:45Z</time>
      </trkpt>
      <trkpt lat="45.12855" lon="6.13192">
        <ele>3036.6</ele>
        <time>2021-03-10T12:18:46Z</time>
      </trkpt>
      <trkpt lat="45.12854" lon="6.13191">
        <ele>3038.2</ele>
        <time>2021-03-10T12:18:47Z</time>
      </trkpt>
      <trkpt lat="45.12854" lon="6.1319">
        <ele>3038.2</ele>
        <time>2021-03-10T12:18:48Z</time>
      </trkpt>
      <trkpt lat="45.12854" lon="6.13188">
        <ele>3038.2</ele>
        <time>2021-03-10T12:18:49Z</time>
      </trkpt>
      <trkpt lat="45.1285" lon="6.13187">
        <ele>3038.1</ele>
        <time>2021-03-10T12:18:50Z</time>
      </trkpt>
      <trkpt lat="45.12848" lon="6.13187">
        <ele>3038.1</ele>
        <time>2021-03-10T12:18:51Z</time>
      </trkpt>
      <trkpt lat="45.12845" lon="6.13188">
        <ele>3035.5</ele>
        <time>2021-03-10T12:18:52Z</time>
      </trkpt>
      <trkpt lat="45.12841" lon="6.13188">
        <ele>3034.7</ele>
        <time>2021-03-10T12:18:53Z</time>
      </trkpt>
      <trkpt lat="45.12839" lon="6.13187">
        <ele>3035.8</ele>
        <time>2021-03-10T12:18:54Z</time>
      </trkpt>
      <trkpt lat="45.12835" lon="6.13185">
        <ele>3034.5</ele>
        <time>2021-03-10T12:18:55Z</time>
      </trkpt>
      <trkpt lat="45.12831" lon="6.13184">
        <ele>3033.9</ele>
        <time>2021-03-10T12:18:56Z</time>
      </trkpt>
      <trkpt lat="45.12826" lon="6.13182">
        <ele>3035.3</ele>
        <time>2021-03-10T12:18:57Z</time>
      </trkpt>
      <trkpt lat="45.12822" lon="6.1318">
        <ele>3034.4</ele>
        <time>2021-03-10T12:18:58Z</time>
      </trkpt>
      <trkpt lat="45.12818" lon="6.13179">
        <ele>3034</ele>
        <time>2021-03-10T12:18:59Z</time>
      </trkpt>
      <trkpt lat="45.12813" lon="6.13178">
        <ele>3035.6</ele>
        <time>2021-03-10T12:19:00Z</time>
      </trkpt>
      <trkpt lat="45.12808" lon="6.13178">
        <ele>3035.4</ele>
        <time>2021-03-10T12:19:01Z</time>
      </trkpt>
      <trkpt lat="45.12803" lon="6.13179">
        <ele>3035</ele>
        <time>2021-03-10T12:19:02Z</time>
      </trkpt>
      <trkpt lat="45.12799" lon="6.1318">
        <ele>3032.6</ele>
        <time>2021-03-10T12:19:03Z</time>
      </trkpt>
      <trkpt lat="45.12795" lon="6.13181">
        <ele>3032.5</ele>
        <time>2021-03-10T12:19:04Z</time>
      </trkpt>
      <trkpt lat="45.12791" lon="6.13184">
        <ele>3030.1</ele>
        <time>2021-03-10T12:19:05Z</time>
      </trkpt>
      <trkpt lat="45.12789" lon="6.13187">
        <ele>3030.1</ele>
        <time>2021-03-10T12:19:06Z</time>
      </trkpt>
      <trkpt lat="45.12789" lon="6.13191">
        <ele>3027.8</ele>
        <time>2021-03-10T12:19:07Z</time>
      </trkpt>
      <trkpt lat="45.1279" lon="6.13197">
        <ele>3023.2</ele>
        <time>2021-03-10T12:19:08Z</time>
      </trkpt>
      <trkpt lat="45.12791" lon="6.13203">
        <ele>3021.3</ele>
        <time>2021-03-10T12:19:09Z</time>
      </trkpt>
      <trkpt lat="45.12794" lon="6.13206">
        <ele>3019.6</ele>
        <time>2021-03-10T12:19:10Z</time>
      </trkpt>
      <trkpt lat="45.12797" lon="6.13208">
        <ele>3019.8</ele>
        <time>2021-03-10T12:19:11Z</time>
      </trkpt>
      <trkpt lat="45.128" lon="6.13211">
        <ele>3018.3</ele>
        <time>2021-03-10T12:19:12Z</time>
      </trkpt>
      <trkpt lat="45.12803" lon="6.13215">
        <ele>3016.9</ele>
        <time>2021-03-10T12:19:13Z</time>
      </trkpt>
      <trkpt lat="45.12814" lon="6.13223">
        <ele>3014.7</ele>
        <time>2021-03-10T12:19:14Z</time>
      </trkpt>
      <trkpt lat="45.12817" lon="6.13227">
        <ele>3013.9</ele>
        <time>2021-03-10T12:19:15Z</time>
      </trkpt>
      <trkpt lat="45.1282" lon="6.13231">
        <ele>3012.2</ele>
        <time>2021-03-10T12:19:16Z</time>
      </trkpt>
      <trkpt lat="45.12822" lon="6.13235">
        <ele>3011.2</ele>
        <time>2021-03-10T12:19:17Z</time>
      </trkpt>
      <trkpt lat="45.12824" lon="6.13239">
        <ele>3010.4</ele>
        <time>2021-03-10T12:19:18Z</time>
      </trkpt>
      <trkpt lat="45.12825" lon="6.13243">
        <ele>3008.9</ele>
        <time>2021-03-10T12:19:19Z</time>
      </trkpt>
      <trkpt lat="45.12827" lon="6.13249">
        <ele>3008.5</ele>
        <time>2021-03-10T12:19:20Z</time>
      </trkpt>
      <trkpt lat="45.12827" lon="6.13251">
        <ele>3008.5</ele>
        <time>2021-03-10T12:19:21Z</time>
      </trkpt>
      <trkpt lat="45.12827" lon="6.13255">
        <ele>3007.2</ele>
        <time>2021-03-10T12:19:22Z</time>
      </trkpt>
      <trkpt lat="45.12825" lon="6.13248">
        <ele>3007.6</ele>
        <time>2021-03-10T12:19:23Z</time>
      </trkpt>
      <trkpt lat="45.12824" lon="6.13245">
        <ele>3008.9</ele>
        <time>2021-03-10T12:19:24Z</time>
      </trkpt>
      <trkpt lat="45.12823" lon="6.13244">
        <ele>3008.9</ele>
        <time>2021-03-10T12:19:25Z</time>
      </trkpt>
      <trkpt lat="45.12819" lon="6.13241">
        <ele>3008.9</ele>
        <time>2021-03-10T12:19:26Z</time>
      </trkpt>
      <trkpt lat="45.12814" lon="6.13238">
        <ele>3009.9</ele>
        <time>2021-03-10T12:19:27Z</time>
      </trkpt>
      <trkpt lat="45.12809" lon="6.13235">
        <ele>3008.8</ele>
        <time>2021-03-10T12:19:28Z</time>
      </trkpt>
      <trkpt lat="45.12806" lon="6.13233">
        <ele>3010</ele>
        <time>2021-03-10T12:19:29Z</time>
      </trkpt>
      <trkpt lat="45.12803" lon="6.13231">
        <ele>3009.5</ele>
        <time>2021-03-10T12:19:30Z</time>
      </trkpt>
      <trkpt lat="45.12802" lon="6.13229">
        <ele>3010.9</ele>
        <time>2021-03-10T12:19:31Z</time>
      </trkpt>
      <trkpt lat="45.128" lon="6.13228">
        <ele>3010.9</ele>
        <time>2021-03-10T12:19:32Z</time>
      </trkpt>
      <trkpt lat="45.12799" lon="6.13228">
        <ele>3010.9</ele>
        <time>2021-03-10T12:19:33Z</time>
      </trkpt>
      <trkpt lat="45.12798" lon="6.13228">
        <ele>3010.5</ele>
        <time>2021-03-10T12:19:34Z</time>
      </trkpt>
      <trkpt lat="45.12798" lon="6.13228">
        <ele>3010.5</ele>
        <time>2021-03-10T12:19:35Z</time>
      </trkpt>
      <trkpt lat="45.12797" lon="6.13228">
        <ele>3010.5</ele>
        <time>2021-03-10T12:19:36Z</time>
      </trkpt>
      <trkpt lat="45.12797" lon="6.13228">
        <ele>3010.5</ele>
        <time>2021-03-10T12:19:37Z</time>
      </trkpt>
      <trkpt lat="45.12796" lon="6.13229">
        <ele>3010.5</ele>
        <time>2021-03-10T12:19:38Z</time>
      </trkpt>
      <trkpt lat="45.12796" lon="6.13229">
        <ele>3010.5</ele>
        <time>2021-03-10T12:19:39Z</time>
      </trkpt>
      <trkpt lat="45.12795" lon="6.13229">
        <ele>3010.3</ele>
        <time>2021-03-10T12:19:40Z</time>
      </trkpt>
      <trkpt lat="45.12795" lon="6.13229">
        <ele>3010.3</ele>
        <time>2021-03-10T12:19:41Z</time>
      </trkpt>
      <trkpt lat="45.12794" lon="6.13229">
        <ele>3010.3</ele>
        <time>2021-03-10T12:19:42Z</time>
      </trkpt>
      <trkpt lat="45.12793" lon="6.13229">
        <ele>3010.3</ele>
        <time>2021-03-10T12:19:43Z</time>
      </trkpt>
      <trkpt lat="45.12793" lon="6.1323">
        <ele>3010.3</ele>
        <time>2021-03-10T12:19:44Z</time>
      </trkpt>
      <trkpt lat="45.12792" lon="6.1323">
        <ele>3010.1</ele>
        <time>2021-03-10T12:20:00Z</time>
      </trkpt>
      <trkpt lat="45.12792" lon="6.1323">
        <ele>3010.1</ele>
        <time>2021-03-10T12:20:01Z</time>
      </trkpt>
      <trkpt lat="45.12789" lon="6.1323">
        <ele>3009.9</ele>
        <time>2021-03-10T12:20:02Z</time>
      </trkpt>
      <trkpt lat="45.12785" lon="6.1323">
        <ele>3009.8</ele>
        <time>2021-03-10T12:20:03Z</time>
      </trkpt>
      <trkpt lat="45.12784" lon="6.1323">
        <ele>3009.8</ele>
        <time>2021-03-10T12:20:04Z</time>
      </trkpt>
      <trkpt lat="45.12781" lon="6.1323">
        <ele>3009.7</ele>
        <time>2021-03-10T12:20:05Z</time>
      </trkpt>
      <trkpt lat="45.1278" lon="6.1323">
        <ele>3009.6</ele>
        <time>2021-03-10T12:20:06Z</time>
      </trkpt>
      <trkpt lat="45.12779" lon="6.1323">
        <ele>3009.6</ele>
        <time>2021-03-10T12:20:07Z</time>
      </trkpt>
      <trkpt lat="45.12779" lon="6.1323">
        <ele>3007.8</ele>
        <time>2021-03-10T12:20:08Z</time>
      </trkpt>
      <trkpt lat="45.12778" lon="6.13231">
        <ele>3007.8</ele>
        <time>2021-03-10T12:20:09Z</time>
      </trkpt>
      <trkpt lat="45.12778" lon="6.13231">
        <ele>3007.8</ele>
        <time>2021-03-10T12:20:10Z</time>
      </trkpt>
      <trkpt lat="45.12778" lon="6.13231">
        <ele>3007.8</ele>
        <time>2021-03-10T12:20:11Z</time>
      </trkpt>
      <trkpt lat="45.12778" lon="6.13231">
        <ele>3007.8</ele>
        <time>2021-03-10T12:20:12Z</time>
      </trkpt>
      <trkpt lat="45.12778" lon="6.13232">
        <ele>3007.8</ele>
        <time>2021-03-10T12:20:13Z</time>
      </trkpt>
      <trkpt lat="45.12778" lon="6.13232">
        <ele>3007.8</ele>
        <time>2021-03-10T12:20:14Z</time>
      </trkpt>
      <trkpt lat="45.12778" lon="6.13232">
        <ele>3007.8</ele>
        <time>2021-03-10T12:20:15Z</time>
      </trkpt>
      <trkpt lat="45.12778" lon="6.13232">
        <ele>3007.8</ele>
        <time>2021-03-10T12:20:16Z</time>
      </trkpt>
      <trkpt lat="45.12777" lon="6.13232">
        <ele>3007.9</ele>
        <time>2021-03-10T12:20:17Z</time>
      </trkpt>
      <trkpt lat="45.12777" lon="6.13233">
        <ele>3007.9</ele>
        <time>2021-03-10T12:20:18Z</time>
      </trkpt>
      <trkpt lat="45.12775" lon="6.13235">
        <ele>3006.2</ele>
        <time>2021-03-10T12:20:19Z</time>
      </trkpt>
      <trkpt lat="45.12774" lon="6.13236">
        <ele>3006.3</ele>
        <time>2021-03-10T12:20:20Z</time>
      </trkpt>
      <trkpt lat="45.12772" lon="6.13238">
        <ele>3006.3</ele>
        <time>2021-03-10T12:20:21Z</time>
      </trkpt>
      <trkpt lat="45.12769" lon="6.1324">
        <ele>3005</ele>
        <time>2021-03-10T12:20:22Z</time>
      </trkpt>
      <trkpt lat="45.12766" lon="6.13242">
        <ele>3005.3</ele>
        <time>2021-03-10T12:20:23Z</time>
      </trkpt>
      <trkpt lat="45.12764" lon="6.13244">
        <ele>3004.2</ele>
        <time>2021-03-10T12:20:24Z</time>
      </trkpt>
      <trkpt lat="45.1276" lon="6.13247">
        <ele>3004.6</ele>
        <time>2021-03-10T12:20:25Z</time>
      </trkpt>
      <trkpt lat="45.12757" lon="6.13251">
        <ele>3003.5</ele>
        <time>2021-03-10T12:20:26Z</time>
      </trkpt>
      <trkpt lat="45.12754" lon="6.13254">
        <ele>3002.4</ele>
        <time>2021-03-10T12:20:27Z</time>
      </trkpt>
      <trkpt lat="45.1275" lon="6.13257">
        <ele>3001.3</ele>
        <time>2021-03-10T12:20:28Z</time>
      </trkpt>
      <trkpt lat="45.12747" lon="6.13259">
        <ele>3002</ele>
        <time>2021-03-10T12:20:29Z</time>
      </trkpt>
      <trkpt lat="45.12744" lon="6.13262">
        <ele>3000.6</ele>
        <time>2021-03-10T12:20:30Z</time>
      </trkpt>
      <trkpt lat="45.12742" lon="6.13264">
        <ele>3000.6</ele>
        <time>2021-03-10T12:20:31Z</time>
      </trkpt>
      <trkpt lat="45.1274" lon="6.13266">
        <ele>2999.1</ele>
        <time>2021-03-10T12:20:32Z</time>
      </trkpt>
      <trkpt lat="45.12741" lon="6.13268">
        <ele>2998.9</ele>
        <time>2021-03-10T12:20:33Z</time>
      </trkpt>
      <trkpt lat="45.12744" lon="6.13271">
        <ele>2996.9</ele>
        <time>2021-03-10T12:20:34Z</time>
      </trkpt>
      <trkpt lat="45.12748" lon="6.13272">
        <ele>2996.7</ele>
        <time>2021-03-10T12:20:35Z</time>
      </trkpt>
      <trkpt lat="45.1275" lon="6.13277">
        <ele>2994.8</ele>
        <time>2021-03-10T12:20:36Z</time>
      </trkpt>
      <trkpt lat="45.1275" lon="6.13279">
        <ele>2992.9</ele>
        <time>2021-03-10T12:20:37Z</time>
      </trkpt>
      <trkpt lat="45.12747" lon="6.13281">
        <ele>2993.1</ele>
        <time>2021-03-10T12:20:38Z</time>
      </trkpt>
      <trkpt lat="45.12743" lon="6.13284">
        <ele>2991.3</ele>
        <time>2021-03-10T12:20:39Z</time>
      </trkpt>
      <trkpt lat="45.12741" lon="6.13286">
        <ele>2991.3</ele>
        <time>2021-03-10T12:20:40Z</time>
      </trkpt>
      <trkpt lat="45.12742" lon="6.13288">
        <ele>2989.4</ele>
        <time>2021-03-10T12:20:41Z</time>
      </trkpt>
      <trkpt lat="45.12744" lon="6.13292">
        <ele>2987.6</ele>
        <time>2021-03-10T12:20:42Z</time>
      </trkpt>
      <trkpt lat="45.12745" lon="6.13296">
        <ele>2985.8</ele>
        <time>2021-03-10T12:20:43Z</time>
      </trkpt>
      <trkpt lat="45.12743" lon="6.133">
        <ele>2984.1</ele>
        <time>2021-03-10T12:20:44Z</time>
      </trkpt>
      <trkpt lat="45.12739" lon="6.13302">
        <ele>2984</ele>
        <time>2021-03-10T12:20:45Z</time>
      </trkpt>
      <trkpt lat="45.12735" lon="6.13304">
        <ele>2982.2</ele>
        <time>2021-03-10T12:20:46Z</time>
      </trkpt>
      <trkpt lat="45.12733" lon="6.13307">
        <ele>2982.1</ele>
        <time>2021-03-10T12:20:47Z</time>
      </trkpt>
      <trkpt lat="45.12733" lon="6.13311">
        <ele>2980.2</ele>
        <time>2021-03-10T12:20:48Z</time>
      </trkpt>
      <trkpt lat="45.12734" lon="6.13313">
        <ele>2978.2</ele>
        <time>2021-03-10T12:20:49Z</time>
      </trkpt>
      <trkpt lat="45.12737" lon="6.13317">
        <ele>2976.3</ele>
        <time>2021-03-10T12:20:50Z</time>
      </trkpt>
      <trkpt lat="45.12741" lon="6.1332">
        <ele>2976.5</ele>
        <time>2021-03-10T12:20:51Z</time>
      </trkpt>
      <trkpt lat="45.12744" lon="6.1332">
        <ele>2976.7</ele>
        <time>2021-03-10T12:20:52Z</time>
      </trkpt>
      <trkpt lat="45.12746" lon="6.13318">
        <ele>2976.7</ele>
        <time>2021-03-10T12:20:53Z</time>
      </trkpt>
      <trkpt lat="45.12746" lon="6.13316">
        <ele>2978.6</ele>
        <time>2021-03-10T12:20:54Z</time>
      </trkpt>
      <trkpt lat="45.12746" lon="6.13314">
        <ele>2978.6</ele>
        <time>2021-03-10T12:20:55Z</time>
      </trkpt>
      <trkpt lat="45.12746" lon="6.13312">
        <ele>2978.6</ele>
        <time>2021-03-10T12:20:56Z</time>
      </trkpt>
      <trkpt lat="45.12746" lon="6.1331">
        <ele>2980.5</ele>
        <time>2021-03-10T12:20:57Z</time>
      </trkpt>
      <trkpt lat="45.12746" lon="6.13311">
        <ele>2980.5</ele>
        <time>2021-03-10T12:20:58Z</time>
      </trkpt>
      <trkpt lat="45.12745" lon="6.13312">
        <ele>2980.5</ele>
        <time>2021-03-10T12:20:59Z</time>
      </trkpt>
      <trkpt lat="45.12744" lon="6.13312">
        <ele>2978.5</ele>
        <time>2021-03-10T12:21:00Z</time>
      </trkpt>
      <trkpt lat="45.12743" lon="6.13313">
        <ele>2978.5</ele>
        <time>2021-03-10T12:21:01Z</time>
      </trkpt>
      <trkpt lat="45.12742" lon="6.13314">
        <ele>2978.5</ele>
        <time>2021-03-10T12:21:02Z</time>
      </trkpt>
      <trkpt lat="45.12741" lon="6.13314">
        <ele>2978.5</ele>
        <time>2021-03-10T12:21:03Z</time>
      </trkpt>
      <trkpt lat="45.1274" lon="6.13315">
        <ele>2978.4</ele>
        <time>2021-03-10T12:21:04Z</time>
      </trkpt>
      <trkpt lat="45.1274" lon="6.13316">
        <ele>2978.4</ele>
        <time>2021-03-10T12:21:58Z</time>
      </trkpt>
      <trkpt lat="45.12739" lon="6.13317">
        <ele>2976.4</ele>
        <time>2021-03-10T12:21:59Z</time>
      </trkpt>
      <trkpt lat="45.12736" lon="6.1332">
        <ele>2976.3</ele>
        <time>2021-03-10T12:22:00Z</time>
      </trkpt>
      <trkpt lat="45.12732" lon="6.13323">
        <ele>2974.2</ele>
        <time>2021-03-10T12:22:01Z</time>
      </trkpt>
      <trkpt lat="45.12729" lon="6.13325">
        <ele>2971.9</ele>
        <time>2021-03-10T12:22:02Z</time>
      </trkpt>
      <trkpt lat="45.12726" lon="6.13326">
        <ele>2971.8</ele>
        <time>2021-03-10T12:22:03Z</time>
      </trkpt>
      <trkpt lat="45.12722" lon="6.13328">
        <ele>2971.6</ele>
        <time>2021-03-10T12:22:04Z</time>
      </trkpt>
      <trkpt lat="45.12721" lon="6.13329">
        <ele>2969.6</ele>
        <time>2021-03-10T12:22:05Z</time>
      </trkpt>
      <trkpt lat="45.12718" lon="6.13331">
        <ele>2969.4</ele>
        <time>2021-03-10T12:22:06Z</time>
      </trkpt>
      <trkpt lat="45.12715" lon="6.13333">
        <ele>2969.2</ele>
        <time>2021-03-10T12:22:07Z</time>
      </trkpt>
      <trkpt lat="45.12711" lon="6.13334">
        <ele>2967.1</ele>
        <time>2021-03-10T12:22:08Z</time>
      </trkpt>
      <trkpt lat="45.1271" lon="6.13334">
        <ele>2967</ele>
        <time>2021-03-10T12:22:09Z</time>
      </trkpt>
      <trkpt lat="45.12706" lon="6.13335">
        <ele>2966.9</ele>
        <time>2021-03-10T12:22:10Z</time>
      </trkpt>
      <trkpt lat="45.12705" lon="6.13335">
        <ele>2966.9</ele>
        <time>2021-03-10T12:22:11Z</time>
      </trkpt>
      <trkpt lat="45.12702" lon="6.13336">
        <ele>2966.6</ele>
        <time>2021-03-10T12:22:12Z</time>
      </trkpt>
      <trkpt lat="45.127" lon="6.13336">
        <ele>2966.6</ele>
        <time>2021-03-10T12:22:13Z</time>
      </trkpt>
      <trkpt lat="45.12698" lon="6.13338">
        <ele>2964.5</ele>
        <time>2021-03-10T12:22:14Z</time>
      </trkpt>
      <trkpt lat="45.12696" lon="6.13341">
        <ele>2964.3</ele>
        <time>2021-03-10T12:22:15Z</time>
      </trkpt>
      <trkpt lat="45.12695" lon="6.13342">
        <ele>2962.6</ele>
        <time>2021-03-10T12:22:16Z</time>
      </trkpt>
      <trkpt lat="45.12698" lon="6.13345">
        <ele>2962.8</ele>
        <time>2021-03-10T12:22:17Z</time>
      </trkpt>
      <trkpt lat="45.12701" lon="6.13347">
        <ele>2961.2</ele>
        <time>2021-03-10T12:22:18Z</time>
      </trkpt>
      <trkpt lat="45.12705" lon="6.13348">
        <ele>2961.4</ele>
        <time>2021-03-10T12:22:19Z</time>
      </trkpt>
      <trkpt lat="45.12708" lon="6.13349">
        <ele>2961.7</ele>
        <time>2021-03-10T12:22:20Z</time>
      </trkpt>
      <trkpt lat="45.12711" lon="6.1335">
        <ele>2961.8</ele>
        <time>2021-03-10T12:22:21Z</time>
      </trkpt>
      <trkpt lat="45.12714" lon="6.13351">
        <ele>2960.3</ele>
        <time>2021-03-10T12:22:22Z</time>
      </trkpt>
      <trkpt lat="45.12716" lon="6.13354">
        <ele>2960.3</ele>
        <time>2021-03-10T12:22:23Z</time>
      </trkpt>
      <trkpt lat="45.12715" lon="6.13358">
        <ele>2958.5</ele>
        <time>2021-03-10T12:22:24Z</time>
      </trkpt>
      <trkpt lat="45.12711" lon="6.13363">
        <ele>2956.1</ele>
        <time>2021-03-10T12:22:25Z</time>
      </trkpt>
      <trkpt lat="45.12705" lon="6.13365">
        <ele>2953.7</ele>
        <time>2021-03-10T12:22:26Z</time>
      </trkpt>
      <trkpt lat="45.12699" lon="6.13366">
        <ele>2953.2</ele>
        <time>2021-03-10T12:22:27Z</time>
      </trkpt>
      <trkpt lat="45.12693" lon="6.13367">
        <ele>2952.9</ele>
        <time>2021-03-10T12:22:28Z</time>
      </trkpt>
      <trkpt lat="45.12689" lon="6.13367">
        <ele>2952.5</ele>
        <time>2021-03-10T12:22:29Z</time>
      </trkpt>
      <trkpt lat="45.12685" lon="6.13368">
        <ele>2950.1</ele>
        <time>2021-03-10T12:22:30Z</time>
      </trkpt>
      <trkpt lat="45.12682" lon="6.13369">
        <ele>2949.9</ele>
        <time>2021-03-10T12:22:31Z</time>
      </trkpt>
      <trkpt lat="45.12679" lon="6.13369">
        <ele>2949.7</ele>
        <time>2021-03-10T12:22:32Z</time>
      </trkpt>
      <trkpt lat="45.12675" lon="6.1337">
        <ele>2949.6</ele>
        <time>2021-03-10T12:22:33Z</time>
      </trkpt>
      <trkpt lat="45.12672" lon="6.13372">
        <ele>2949.4</ele>
        <time>2021-03-10T12:22:34Z</time>
      </trkpt>
      <trkpt lat="45.1267" lon="6.13373">
        <ele>2947.1</ele>
        <time>2021-03-10T12:22:35Z</time>
      </trkpt>
      <trkpt lat="45.12666" lon="6.13374">
        <ele>2946.9</ele>
        <time>2021-03-10T12:22:36Z</time>
      </trkpt>
      <trkpt lat="45.12663" lon="6.13376">
        <ele>2946.7</ele>
        <time>2021-03-10T12:22:37Z</time>
      </trkpt>
      <trkpt lat="45.1266" lon="6.13378">
        <ele>2944.5</ele>
        <time>2021-03-10T12:22:38Z</time>
      </trkpt>
      <trkpt lat="45.12657" lon="6.13379">
        <ele>2944.4</ele>
        <time>2021-03-10T12:22:39Z</time>
      </trkpt>
      <trkpt lat="45.12654" lon="6.1338">
        <ele>2944.2</ele>
        <time>2021-03-10T12:22:40Z</time>
      </trkpt>
      <trkpt lat="45.12652" lon="6.1338">
        <ele>2944.1</ele>
        <time>2021-03-10T12:22:41Z</time>
      </trkpt>
      <trkpt lat="45.12652" lon="6.13379">
        <ele>2944.1</ele>
        <time>2021-03-10T12:22:42Z</time>
      </trkpt>
      <trkpt lat="45.12652" lon="6.1338">
        <ele>2944.1</ele>
        <time>2021-03-10T12:22:43Z</time>
      </trkpt>
      <trkpt lat="45.12652" lon="6.1338">
        <ele>2944.1</ele>
        <time>2021-03-10T12:22:44Z</time>
      </trkpt>
      <trkpt lat="45.12653" lon="6.13381">
        <ele>2942.1</ele>
        <time>2021-03-10T12:22:45Z</time>
      </trkpt>
      <trkpt lat="45.12654" lon="6.13382">
        <ele>2942.3</ele>
        <time>2021-03-10T12:22:46Z</time>
      </trkpt>
      <trkpt lat="45.12654" lon="6.13382">
        <ele>2942.3</ele>
        <time>2021-03-10T12:22:47Z</time>
      </trkpt>
      <trkpt lat="45.12654" lon="6.13382">
        <ele>2942.3</ele>
        <time>2021-03-10T12:22:48Z</time>
      </trkpt>
      <trkpt lat="45.12654" lon="6.13381">
        <ele>2942.3</ele>
        <time>2021-03-10T12:22:49Z</time>
      </trkpt>
      <trkpt lat="45.12654" lon="6.13381">
        <ele>2942.3</ele>
        <time>2021-03-10T12:22:50Z</time>
      </trkpt>
      <trkpt lat="45.12654" lon="6.13381">
        <ele>2942.3</ele>
        <time>2021-03-10T12:22:51Z</time>
      </trkpt>
      <trkpt lat="45.12654" lon="6.13381">
        <ele>2942.3</ele>
        <time>2021-03-10T12:22:52Z</time>
      </trkpt>
      <trkpt lat="45.12654" lon="6.13381">
        <ele>2942.3</ele>
        <time>2021-03-10T12:22:53Z</time>
      </trkpt>
      <trkpt lat="45.12654" lon="6.13381">
        <ele>2942.3</ele>
        <time>2021-03-10T12:22:54Z</time>
      </trkpt>
      <trkpt lat="45.12654" lon="6.13381">
        <ele>2942.3</ele>
        <time>2021-03-10T12:22:55Z</time>
      </trkpt>
      <trkpt lat="45.12654" lon="6.13381">
        <ele>2942.3</ele>
        <time>2021-03-10T12:22:56Z</time>
      </trkpt>
      <trkpt lat="45.12654" lon="6.13381">
        <ele>2942.3</ele>
        <time>2021-03-10T12:22:57Z</time>
      </trkpt>
      <trkpt lat="45.1266" lon="6.13381">
        <ele>2942.5</ele>
        <time>2021-03-10T12:23:03Z</time>
      </trkpt>
      <trkpt lat="45.12662" lon="6.13383">
        <ele>2942.5</ele>
        <time>2021-03-10T12:23:04Z</time>
      </trkpt>
      <trkpt lat="45.12665" lon="6.13385">
        <ele>2942.7</ele>
        <time>2021-03-10T12:23:05Z</time>
      </trkpt>
      <trkpt lat="45.12668" lon="6.13386">
        <ele>2940.9</ele>
        <time>2021-03-10T12:23:06Z</time>
      </trkpt>
      <trkpt lat="45.12669" lon="6.13386">
        <ele>2941</ele>
        <time>2021-03-10T12:23:07Z</time>
      </trkpt>
      <trkpt lat="45.12673" lon="6.13388">
        <ele>2941.2</ele>
        <time>2021-03-10T12:23:08Z</time>
      </trkpt>
      <trkpt lat="45.12674" lon="6.13389">
        <ele>2939.2</ele>
        <time>2021-03-10T12:23:09Z</time>
      </trkpt>
      <trkpt lat="45.12677" lon="6.13391">
        <ele>2939.4</ele>
        <time>2021-03-10T12:23:10Z</time>
      </trkpt>
      <trkpt lat="45.1268" lon="6.13394">
        <ele>2937.6</ele>
        <time>2021-03-10T12:23:11Z</time>
      </trkpt>
      <trkpt lat="45.12684" lon="6.13396">
        <ele>2938.1</ele>
        <time>2021-03-10T12:23:12Z</time>
      </trkpt>
      <trkpt lat="45.12689" lon="6.13399">
        <ele>2936.4</ele>
        <time>2021-03-10T12:23:13Z</time>
      </trkpt>
      <trkpt lat="45.12693" lon="6.13402">
        <ele>2935.2</ele>
        <time>2021-03-10T12:23:14Z</time>
      </trkpt>
      <trkpt lat="45.12697" lon="6.13405">
        <ele>2935.7</ele>
        <time>2021-03-10T12:23:15Z</time>
      </trkpt>
      <trkpt lat="45.12701" lon="6.13408">
        <ele>2934.1</ele>
        <time>2021-03-10T12:23:16Z</time>
      </trkpt>
      <trkpt lat="45.12706" lon="6.13412">
        <ele>2932.9</ele>
        <time>2021-03-10T12:23:17Z</time>
      </trkpt>
      <trkpt lat="45.1271" lon="6.13417">
        <ele>2931.2</ele>
        <time>2021-03-10T12:23:18Z</time>
      </trkpt>
      <trkpt lat="45.12715" lon="6.13419">
        <ele>2932.2</ele>
        <time>2021-03-10T12:23:19Z</time>
      </trkpt>
      <trkpt lat="45.1272" lon="6.13422">
        <ele>2931.3</ele>
        <time>2021-03-10T12:23:20Z</time>
      </trkpt>
      <trkpt lat="45.12724" lon="6.13423">
        <ele>2932</ele>
        <time>2021-03-10T12:23:21Z</time>
      </trkpt>
      <trkpt lat="45.12728" lon="6.13424">
        <ele>2930.7</ele>
        <time>2021-03-10T12:23:22Z</time>
      </trkpt>
      <trkpt lat="45.12732" lon="6.13424">
        <ele>2931.4</ele>
        <time>2021-03-10T12:23:23Z</time>
      </trkpt>
      <trkpt lat="45.12731" lon="6.13424">
        <ele>2931.4</ele>
        <time>2021-03-10T12:23:24Z</time>
      </trkpt>
      <trkpt lat="45.1273" lon="6.13425">
        <ele>2931.4</ele>
        <time>2021-03-10T12:23:25Z</time>
      </trkpt>
      <trkpt lat="45.12728" lon="6.13426">
        <ele>2930.7</ele>
        <time>2021-03-10T12:23:26Z</time>
      </trkpt>
      <trkpt lat="45.12728" lon="6.13427">
        <ele>2930.7</ele>
        <time>2021-03-10T12:23:27Z</time>
      </trkpt>
      <trkpt lat="45.12727" lon="6.13428">
        <ele>2928.8</ele>
        <time>2021-03-10T12:23:28Z</time>
      </trkpt>
      <trkpt lat="45.12727" lon="6.13429">
        <ele>2928.8</ele>
        <time>2021-03-10T12:23:29Z</time>
      </trkpt>
      <trkpt lat="45.12728" lon="6.13429">
        <ele>2928.8</ele>
        <time>2021-03-10T12:23:30Z</time>
      </trkpt>
      <trkpt lat="45.1273" lon="6.1343">
        <ele>2929.5</ele>
        <time>2021-03-10T12:23:31Z</time>
      </trkpt>
      <trkpt lat="45.12733" lon="6.13431">
        <ele>2930.2</ele>
        <time>2021-03-10T12:23:32Z</time>
      </trkpt>
      <trkpt lat="45.12734" lon="6.13432">
        <ele>2930.2</ele>
        <time>2021-03-10T12:23:33Z</time>
      </trkpt>
      <trkpt lat="45.12738" lon="6.13433">
        <ele>2929.1</ele>
        <time>2021-03-10T12:23:34Z</time>
      </trkpt>
      <trkpt lat="45.12739" lon="6.13433">
        <ele>2929.9</ele>
        <time>2021-03-10T12:23:35Z</time>
      </trkpt>
      <trkpt lat="45.12743" lon="6.13435">
        <ele>2930.9</ele>
        <time>2021-03-10T12:23:36Z</time>
      </trkpt>
      <trkpt lat="45.12744" lon="6.13436">
        <ele>2931.8</ele>
        <time>2021-03-10T12:23:37Z</time>
      </trkpt>
      <trkpt lat="45.12747" lon="6.13437">
        <ele>2931.1</ele>
        <time>2021-03-10T12:23:38Z</time>
      </trkpt>
      <trkpt lat="45.12751" lon="6.1344">
        <ele>2932.2</ele>
        <time>2021-03-10T12:23:39Z</time>
      </trkpt>
      <trkpt lat="45.12756" lon="6.13442">
        <ele>2931.6</ele>
        <time>2021-03-10T12:23:40Z</time>
      </trkpt>
      <trkpt lat="45.1276" lon="6.13445">
        <ele>2933.9</ele>
        <time>2021-03-10T12:23:41Z</time>
      </trkpt>
      <trkpt lat="45.12764" lon="6.13447">
        <ele>2933.3</ele>
        <time>2021-03-10T12:23:42Z</time>
      </trkpt>
      <trkpt lat="45.12768" lon="6.13449">
        <ele>2934.4</ele>
        <time>2021-03-10T12:23:43Z</time>
      </trkpt>
      <trkpt lat="45.12771" lon="6.13449">
        <ele>2935.1</ele>
        <time>2021-03-10T12:23:44Z</time>
      </trkpt>
      <trkpt lat="45.12775" lon="6.1345">
        <ele>2936.4</ele>
        <time>2021-03-10T12:23:45Z</time>
      </trkpt>
      <trkpt lat="45.12778" lon="6.1345">
        <ele>2937.7</ele>
        <time>2021-03-10T12:23:46Z</time>
      </trkpt>
      <trkpt lat="45.12782" lon="6.13451">
        <ele>2939.9</ele>
        <time>2021-03-10T12:23:47Z</time>
      </trkpt>
      <trkpt lat="45.12785" lon="6.13453">
        <ele>2941.1</ele>
        <time>2021-03-10T12:23:48Z</time>
      </trkpt>
      <trkpt lat="45.12789" lon="6.13455">
        <ele>2940.8</ele>
        <time>2021-03-10T12:23:49Z</time>
      </trkpt>
      <trkpt lat="45.12792" lon="6.13457">
        <ele>2941.9</ele>
        <time>2021-03-10T12:23:50Z</time>
      </trkpt>
      <trkpt lat="45.12795" lon="6.1346">
        <ele>2941.6</ele>
        <time>2021-03-10T12:23:51Z</time>
      </trkpt>
      <trkpt lat="45.12798" lon="6.13462">
        <ele>2941.4</ele>
        <time>2021-03-10T12:23:52Z</time>
      </trkpt>
      <trkpt lat="45.12801" lon="6.13466">
        <ele>2942.6</ele>
        <time>2021-03-10T12:23:53Z</time>
      </trkpt>
      <trkpt lat="45.12806" lon="6.13469">
        <ele>2943.9</ele>
        <time>2021-03-10T12:23:54Z</time>
      </trkpt>
      <trkpt lat="45.12809" lon="6.1347">
        <ele>2945.1</ele>
        <time>2021-03-10T12:23:55Z</time>
      </trkpt>
      <trkpt lat="45.12813" lon="6.13475">
        <ele>2945</ele>
        <time>2021-03-10T12:23:56Z</time>
      </trkpt>
      <trkpt lat="45.12817" lon="6.13479">
        <ele>2945.8</ele>
        <time>2021-03-10T12:23:57Z</time>
      </trkpt>
      <trkpt lat="45.12822" lon="6.13482">
        <ele>2945.7</ele>
        <time>2021-03-10T12:23:58Z</time>
      </trkpt>
      <trkpt lat="45.12826" lon="6.13484">
        <ele>2946.8</ele>
        <time>2021-03-10T12:23:59Z</time>
      </trkpt>
      <trkpt lat="45.12829" lon="6.13486">
        <ele>2946.8</ele>
        <time>2021-03-10T12:24:00Z</time>
      </trkpt>
      <trkpt lat="45.1283" lon="6.13489">
        <ele>2946.9</ele>
        <time>2021-03-10T12:24:01Z</time>
      </trkpt>
      <trkpt lat="45.12832" lon="6.13494">
        <ele>2945.8</ele>
        <time>2021-03-10T12:24:02Z</time>
      </trkpt>
      <trkpt lat="45.12834" lon="6.13501">
        <ele>2944.5</ele>
        <time>2021-03-10T12:24:03Z</time>
      </trkpt>
      <trkpt lat="45.12837" lon="6.1351">
        <ele>2943.4</ele>
        <time>2021-03-10T12:24:04Z</time>
      </trkpt>
      <trkpt lat="45.12836" lon="6.13515">
        <ele>2942.3</ele>
        <time>2021-03-10T12:24:05Z</time>
      </trkpt>
      <trkpt lat="45.12838" lon="6.13519">
        <ele>2941.3</ele>
        <time>2021-03-10T12:24:06Z</time>
      </trkpt>
      <trkpt lat="45.12836" lon="6.13524">
        <ele>2940.4</ele>
        <time>2021-03-10T12:24:07Z</time>
      </trkpt>
      <trkpt lat="45.12837" lon="6.13527">
        <ele>2939.5</ele>
        <time>2021-03-10T12:24:08Z</time>
      </trkpt>
      <trkpt lat="45.12837" lon="6.13532">
        <ele>2938.6</ele>
        <time>2021-03-10T12:24:09Z</time>
      </trkpt>
      <trkpt lat="45.12835" lon="6.13532">
        <ele>2938.6</ele>
        <time>2021-03-10T12:24:10Z</time>
      </trkpt>
      <trkpt lat="45.12834" lon="6.13532">
        <ele>2937.2</ele>
        <time>2021-03-10T12:24:11Z</time>
      </trkpt>
      <trkpt lat="45.12832" lon="6.13532">
        <ele>2937.2</ele>
        <time>2021-03-10T12:24:12Z</time>
      </trkpt>
      <trkpt lat="45.12827" lon="6.13536">
        <ele>2933.4</ele>
        <time>2021-03-10T12:24:13Z</time>
      </trkpt>
      <trkpt lat="45.12821" lon="6.13544">
        <ele>2928.3</ele>
        <time>2021-03-10T12:24:14Z</time>
      </trkpt>
      <trkpt lat="45.12819" lon="6.13552">
        <ele>2925.8</ele>
        <time>2021-03-10T12:24:15Z</time>
      </trkpt>
      <trkpt lat="45.12821" lon="6.13561">
        <ele>2923.8</ele>
        <time>2021-03-10T12:24:16Z</time>
      </trkpt>
      <trkpt lat="45.12824" lon="6.1357">
        <ele>2923.2</ele>
        <time>2021-03-10T12:24:17Z</time>
      </trkpt>
      <trkpt lat="45.12825" lon="6.13578">
        <ele>2922</ele>
        <time>2021-03-10T12:24:18Z</time>
      </trkpt>
      <trkpt lat="45.12827" lon="6.13584">
        <ele>2921.2</ele>
        <time>2021-03-10T12:24:19Z</time>
      </trkpt>
      <trkpt lat="45.12827" lon="6.13591">
        <ele>2918.5</ele>
        <time>2021-03-10T12:24:20Z</time>
      </trkpt>
      <trkpt lat="45.12828" lon="6.13594">
        <ele>2918.5</ele>
        <time>2021-03-10T12:24:21Z</time>
      </trkpt>
      <trkpt lat="45.12828" lon="6.13595">
        <ele>2918.5</ele>
        <time>2021-03-10T12:24:22Z</time>
      </trkpt>
      <trkpt lat="45.12827" lon="6.13599">
        <ele>2917.2</ele>
        <time>2021-03-10T12:24:23Z</time>
      </trkpt>
      <trkpt lat="45.12826" lon="6.13602">
        <ele>2916</ele>
        <time>2021-03-10T12:24:24Z</time>
      </trkpt>
      <trkpt lat="45.12825" lon="6.13611">
        <ele>2912.1</ele>
        <time>2021-03-10T12:24:25Z</time>
      </trkpt>
      <trkpt lat="45.12825" lon="6.13618">
        <ele>2910</ele>
        <time>2021-03-10T12:24:26Z</time>
      </trkpt>
      <trkpt lat="45.12825" lon="6.13626">
        <ele>2907.9</ele>
        <time>2021-03-10T12:24:27Z</time>
      </trkpt>
      <trkpt lat="45.12824" lon="6.13632">
        <ele>2906.8</ele>
        <time>2021-03-10T12:24:28Z</time>
      </trkpt>
      <trkpt lat="45.12804" lon="6.13627">
        <ele>2896.4</ele>
        <time>2021-03-10T12:24:29Z</time>
      </trkpt>
      <trkpt lat="45.12801" lon="6.13624">
        <ele>2895.7</ele>
        <time>2021-03-10T12:24:30Z</time>
      </trkpt>
      <trkpt lat="45.12794" lon="6.13619">
        <ele>2893.4</ele>
        <time>2021-03-10T12:24:31Z</time>
      </trkpt>
      <trkpt lat="45.12788" lon="6.13617">
        <ele>2890.2</ele>
        <time>2021-03-10T12:24:32Z</time>
      </trkpt>
      <trkpt lat="45.12784" lon="6.13615">
        <ele>2889.6</ele>
        <time>2021-03-10T12:24:33Z</time>
      </trkpt>
      <trkpt lat="45.12778" lon="6.13616">
        <ele>2884.6</ele>
        <time>2021-03-10T12:24:34Z</time>
      </trkpt>
      <trkpt lat="45.12775" lon="6.13618">
        <ele>2881.6</ele>
        <time>2021-03-10T12:24:35Z</time>
      </trkpt>
      <trkpt lat="45.12772" lon="6.13619">
        <ele>2879.8</ele>
        <time>2021-03-10T12:24:36Z</time>
      </trkpt>
      <trkpt lat="45.12768" lon="6.1362">
        <ele>2876.6</ele>
        <time>2021-03-10T12:24:37Z</time>
      </trkpt>
      <trkpt lat="45.12763" lon="6.13623">
        <ele>2873.9</ele>
        <time>2021-03-10T12:24:38Z</time>
      </trkpt>
      <trkpt lat="45.1276" lon="6.13627">
        <ele>2871.2</ele>
        <time>2021-03-10T12:24:39Z</time>
      </trkpt>
      <trkpt lat="45.12758" lon="6.13635">
        <ele>2867.4</ele>
        <time>2021-03-10T12:24:40Z</time>
      </trkpt>
      <trkpt lat="45.12757" lon="6.13641">
        <ele>2866.2</ele>
        <time>2021-03-10T12:24:41Z</time>
      </trkpt>
      <trkpt lat="45.12754" lon="6.1365">
        <ele>2862.5</ele>
        <time>2021-03-10T12:24:42Z</time>
      </trkpt>
      <trkpt lat="45.12754" lon="6.13659">
        <ele>2860.7</ele>
        <time>2021-03-10T12:24:43Z</time>
      </trkpt>
      <trkpt lat="45.12754" lon="6.13668">
        <ele>2857.8</ele>
        <time>2021-03-10T12:24:44Z</time>
      </trkpt>
      <trkpt lat="45.12755" lon="6.13678">
        <ele>2855.8</ele>
        <time>2021-03-10T12:24:45Z</time>
      </trkpt>
      <trkpt lat="45.12756" lon="6.13687">
        <ele>2853.6</ele>
        <time>2021-03-10T12:24:46Z</time>
      </trkpt>
      <trkpt lat="45.12757" lon="6.13695">
        <ele>2852.8</ele>
        <time>2021-03-10T12:24:47Z</time>
      </trkpt>
      <trkpt lat="45.12759" lon="6.13703">
        <ele>2850.7</ele>
        <time>2021-03-10T12:24:48Z</time>
      </trkpt>
      <trkpt lat="45.1276" lon="6.13709">
        <ele>2851.1</ele>
        <time>2021-03-10T12:24:49Z</time>
      </trkpt>
      <trkpt lat="45.12762" lon="6.13717">
        <ele>2848.8</ele>
        <time>2021-03-10T12:24:50Z</time>
      </trkpt>
      <trkpt lat="45.12763" lon="6.13725">
        <ele>2847.7</ele>
        <time>2021-03-10T12:24:51Z</time>
      </trkpt>
      <trkpt lat="45.12764" lon="6.13733">
        <ele>2845.3</ele>
        <time>2021-03-10T12:24:52Z</time>
      </trkpt>
      <trkpt lat="45.12765" lon="6.1374">
        <ele>2844.1</ele>
        <time>2021-03-10T12:24:53Z</time>
      </trkpt>
      <trkpt lat="45.12765" lon="6.13747">
        <ele>2841.9</ele>
        <time>2021-03-10T12:24:54Z</time>
      </trkpt>
      <trkpt lat="45.12766" lon="6.13753">
        <ele>2842</ele>
        <time>2021-03-10T12:24:55Z</time>
      </trkpt>
      <trkpt lat="45.12766" lon="6.13757">
        <ele>2840.9</ele>
        <time>2021-03-10T12:24:56Z</time>
      </trkpt>
      <trkpt lat="45.12767" lon="6.13761">
        <ele>2839.7</ele>
        <time>2021-03-10T12:24:57Z</time>
      </trkpt>
      <trkpt lat="45.12767" lon="6.13761">
        <ele>2839.7</ele>
        <time>2021-03-10T12:24:58Z</time>
      </trkpt>
      <trkpt lat="45.12767" lon="6.13762">
        <ele>2839.7</ele>
        <time>2021-03-10T12:24:59Z</time>
      </trkpt>
      <trkpt lat="45.12767" lon="6.13761">
        <ele>2839.7</ele>
        <time>2021-03-10T12:25:00Z</time>
      </trkpt>
      <trkpt lat="45.12767" lon="6.1376">
        <ele>2839.7</ele>
        <time>2021-03-10T12:25:01Z</time>
      </trkpt>
      <trkpt lat="45.12767" lon="6.13759">
        <ele>2839.7</ele>
        <time>2021-03-10T12:25:02Z</time>
      </trkpt>
      <trkpt lat="45.12767" lon="6.13758">
        <ele>2840.9</ele>
        <time>2021-03-10T12:25:03Z</time>
      </trkpt>
      <trkpt lat="45.12766" lon="6.13757">
        <ele>2840.9</ele>
        <time>2021-03-10T12:25:04Z</time>
      </trkpt>
      <trkpt lat="45.12766" lon="6.13756">
        <ele>2840.9</ele>
        <time>2021-03-10T12:25:05Z</time>
      </trkpt>
      <trkpt lat="45.12766" lon="6.13755">
        <ele>2840.9</ele>
        <time>2021-03-10T12:25:06Z</time>
      </trkpt>
      <trkpt lat="45.12766" lon="6.13755">
        <ele>2840.9</ele>
        <time>2021-03-10T12:25:07Z</time>
      </trkpt>
      <trkpt lat="45.12766" lon="6.13755">
        <ele>2840.9</ele>
        <time>2021-03-10T12:25:08Z</time>
      </trkpt>
      <trkpt lat="45.12766" lon="6.13755">
        <ele>2840.9</ele>
        <time>2021-03-10T12:25:09Z</time>
      </trkpt>
      <trkpt lat="45.12761" lon="6.13736">
        <ele>2844</ele>
        <time>2021-03-10T12:26:35Z</time>
      </trkpt>
      <trkpt lat="45.1276" lon="6.13735">
        <ele>2844</ele>
        <time>2021-03-10T12:26:36Z</time>
      </trkpt>
      <trkpt lat="45.12757" lon="6.13732">
        <ele>2843.8</ele>
        <time>2021-03-10T12:26:37Z</time>
      </trkpt>
      <trkpt lat="45.12756" lon="6.1373">
        <ele>2842.5</ele>
        <time>2021-03-10T12:26:38Z</time>
      </trkpt>
      <trkpt lat="45.12754" lon="6.13727">
        <ele>2843.7</ele>
        <time>2021-03-10T12:26:39Z</time>
      </trkpt>
      <trkpt lat="45.12753" lon="6.13727">
        <ele>2842.4</ele>
        <time>2021-03-10T12:26:40Z</time>
      </trkpt>
      <trkpt lat="45.12752" lon="6.13726">
        <ele>2842.4</ele>
        <time>2021-03-10T12:26:41Z</time>
      </trkpt>
      <trkpt lat="45.12752" lon="6.13726">
        <ele>2842.4</ele>
        <time>2021-03-10T12:26:42Z</time>
      </trkpt>
      <trkpt lat="45.12752" lon="6.13726">
        <ele>2842.4</ele>
        <time>2021-03-10T12:26:43Z</time>
      </trkpt>
      <trkpt lat="45.12752" lon="6.13726">
        <ele>2842.4</ele>
        <time>2021-03-10T12:26:44Z</time>
      </trkpt>
      <trkpt lat="45.12752" lon="6.13726">
        <ele>2842.4</ele>
        <time>2021-03-10T12:26:45Z</time>
      </trkpt>
      <trkpt lat="45.12752" lon="6.13726">
        <ele>2842.4</ele>
        <time>2021-03-10T12:26:46Z</time>
      </trkpt>
      <trkpt lat="45.12752" lon="6.13726">
        <ele>2842.4</ele>
        <time>2021-03-10T12:26:47Z</time>
      </trkpt>
      <trkpt lat="45.12752" lon="6.13726">
        <ele>2842.4</ele>
        <time>2021-03-10T12:26:48Z</time>
      </trkpt>
      <trkpt lat="45.12752" lon="6.13726">
        <ele>2842.4</ele>
        <time>2021-03-10T12:26:49Z</time>
      </trkpt>
      <trkpt lat="45.12752" lon="6.13726">
        <ele>2842.4</ele>
        <time>2021-03-10T12:26:50Z</time>
      </trkpt>
      <trkpt lat="45.12759" lon="6.13741">
        <ele>2840.5</ele>
        <time>2021-03-10T12:27:02Z</time>
      </trkpt>
      <trkpt lat="45.12761" lon="6.13746">
        <ele>2840.7</ele>
        <time>2021-03-10T12:27:03Z</time>
      </trkpt>
      <trkpt lat="45.12763" lon="6.13751">
        <ele>2840.8</ele>
        <time>2021-03-10T12:27:04Z</time>
      </trkpt>
      <trkpt lat="45.12765" lon="6.13756">
        <ele>2839.7</ele>
        <time>2021-03-10T12:27:05Z</time>
      </trkpt>
      <trkpt lat="45.12767" lon="6.13763">
        <ele>2838.5</ele>
        <time>2021-03-10T12:27:06Z</time>
      </trkpt>
      <trkpt lat="45.1277" lon="6.13769">
        <ele>2838.4</ele>
        <time>2021-03-10T12:27:07Z</time>
      </trkpt>
      <trkpt lat="45.12772" lon="6.13775">
        <ele>2838.4</ele>
        <time>2021-03-10T12:27:08Z</time>
      </trkpt>
      <trkpt lat="45.12773" lon="6.13781">
        <ele>2835.9</ele>
        <time>2021-03-10T12:27:09Z</time>
      </trkpt>
      <trkpt lat="45.12775" lon="6.13786">
        <ele>2836.1</ele>
        <time>2021-03-10T12:27:10Z</time>
      </trkpt>
      <trkpt lat="45.12776" lon="6.13791">
        <ele>2835</ele>
        <time>2021-03-10T12:27:11Z</time>
      </trkpt>
      <trkpt lat="45.12776" lon="6.13795">
        <ele>2834</ele>
        <time>2021-03-10T12:27:12Z</time>
      </trkpt>
      <trkpt lat="45.12777" lon="6.13799">
        <ele>2833.1</ele>
        <time>2021-03-10T12:27:13Z</time>
      </trkpt>
      <trkpt lat="45.12778" lon="6.13804">
        <ele>2833.6</ele>
        <time>2021-03-10T12:27:14Z</time>
      </trkpt>
      <trkpt lat="45.12778" lon="6.13805">
        <ele>2833.6</ele>
        <time>2021-03-10T12:27:15Z</time>
      </trkpt>
      <trkpt lat="45.12778" lon="6.13809">
        <ele>2832.6</ele>
        <time>2021-03-10T12:27:16Z</time>
      </trkpt>
      <trkpt lat="45.12779" lon="6.1381">
        <ele>2831.7</ele>
        <time>2021-03-10T12:27:17Z</time>
      </trkpt>
      <trkpt lat="45.12779" lon="6.13814">
        <ele>2830.7</ele>
        <time>2021-03-10T12:27:18Z</time>
      </trkpt>
      <trkpt lat="45.12779" lon="6.13816">
        <ele>2830.7</ele>
        <time>2021-03-10T12:27:19Z</time>
      </trkpt>
      <trkpt lat="45.1278" lon="6.1382">
        <ele>2829.9</ele>
        <time>2021-03-10T12:27:20Z</time>
      </trkpt>
      <trkpt lat="45.12781" lon="6.13822">
        <ele>2832.2</ele>
        <time>2021-03-10T12:27:21Z</time>
      </trkpt>
      <trkpt lat="45.12782" lon="6.13826">
        <ele>2831.4</ele>
        <time>2021-03-10T12:27:22Z</time>
      </trkpt>
      <trkpt lat="45.12782" lon="6.13828">
        <ele>2830.6</ele>
        <time>2021-03-10T12:27:23Z</time>
      </trkpt>
      <trkpt lat="45.12782" lon="6.1383">
        <ele>2830.6</ele>
        <time>2021-03-10T12:27:24Z</time>
      </trkpt>
      <trkpt lat="45.12783" lon="6.13832">
        <ele>2829.8</ele>
        <time>2021-03-10T12:27:25Z</time>
      </trkpt>
      <trkpt lat="45.12783" lon="6.13834">
        <ele>2829.8</ele>
        <time>2021-03-10T12:27:26Z</time>
      </trkpt>
      <trkpt lat="45.12783" lon="6.13836">
        <ele>2829.1</ele>
        <time>2021-03-10T12:27:27Z</time>
      </trkpt>
      <trkpt lat="45.12784" lon="6.13838">
        <ele>2830.5</ele>
        <time>2021-03-10T12:27:28Z</time>
      </trkpt>
      <trkpt lat="45.12784" lon="6.13839">
        <ele>2830.5</ele>
        <time>2021-03-10T12:27:29Z</time>
      </trkpt>
      <trkpt lat="45.12784" lon="6.1384">
        <ele>2829.8</ele>
        <time>2021-03-10T12:27:30Z</time>
      </trkpt>
      <trkpt lat="45.12784" lon="6.13841">
        <ele>2829.8</ele>
        <time>2021-03-10T12:27:31Z</time>
      </trkpt>
      <trkpt lat="45.12785" lon="6.13841">
        <ele>2829.8</ele>
        <time>2021-03-10T12:27:32Z</time>
      </trkpt>
      <trkpt lat="45.12784" lon="6.13842">
        <ele>2829.8</ele>
        <time>2021-03-10T12:27:33Z</time>
      </trkpt>
      <trkpt lat="45.12784" lon="6.13842">
        <ele>2829.8</ele>
        <time>2021-03-10T12:27:34Z</time>
      </trkpt>
      <trkpt lat="45.12784" lon="6.13842">
        <ele>2829.8</ele>
        <time>2021-03-10T12:27:35Z</time>
      </trkpt>
      <trkpt lat="45.12784" lon="6.13842">
        <ele>2829.8</ele>
        <time>2021-03-10T12:27:36Z</time>
      </trkpt>
      <trkpt lat="45.12785" lon="6.13842">
        <ele>2829.8</ele>
        <time>2021-03-10T12:27:37Z</time>
      </trkpt>
      <trkpt lat="45.12785" lon="6.13843">
        <ele>2829.8</ele>
        <time>2021-03-10T12:27:38Z</time>
      </trkpt>
      <trkpt lat="45.12785" lon="6.13844">
        <ele>2829.2</ele>
        <time>2021-03-10T12:27:39Z</time>
      </trkpt>
      <trkpt lat="45.12787" lon="6.1385">
        <ele>2829.9</ele>
        <time>2021-03-10T12:27:40Z</time>
      </trkpt>
      <trkpt lat="45.12788" lon="6.13853">
        <ele>2829.3</ele>
        <time>2021-03-10T12:27:41Z</time>
      </trkpt>
      <trkpt lat="45.1279" lon="6.13859">
        <ele>2830</ele>
        <time>2021-03-10T12:27:42Z</time>
      </trkpt>
      <trkpt lat="45.12791" lon="6.13862">
        <ele>2829.5</ele>
        <time>2021-03-10T12:27:43Z</time>
      </trkpt>
      <trkpt lat="45.12794" lon="6.13865">
        <ele>2830.8</ele>
        <time>2021-03-10T12:27:44Z</time>
      </trkpt>
      <trkpt lat="45.12794" lon="6.13866">
        <ele>2830.4</ele>
        <time>2021-03-10T12:27:45Z</time>
      </trkpt>
      <trkpt lat="45.12796" lon="6.13867">
        <ele>2831.8</ele>
        <time>2021-03-10T12:27:46Z</time>
      </trkpt>
      <trkpt lat="45.12797" lon="6.13868">
        <ele>2831.8</ele>
        <time>2021-03-10T12:27:47Z</time>
      </trkpt>
      <trkpt lat="45.12799" lon="6.13871">
        <ele>2832.9</ele>
        <time>2021-03-10T12:27:48Z</time>
      </trkpt>
      <trkpt lat="45.128" lon="6.13872">
        <ele>2832.9</ele>
        <time>2021-03-10T12:27:49Z</time>
      </trkpt>
      <trkpt lat="45.12802" lon="6.13876">
        <ele>2832.6</ele>
        <time>2021-03-10T12:27:50Z</time>
      </trkpt>
      <trkpt lat="45.12802" lon="6.13877">
        <ele>2834.3</ele>
        <time>2021-03-10T12:27:51Z</time>
      </trkpt>
      <trkpt lat="45.12803" lon="6.1388">
        <ele>2834</ele>
        <time>2021-03-10T12:27:52Z</time>
      </trkpt>
      <trkpt lat="45.12803" lon="6.13882">
        <ele>2834</ele>
        <time>2021-03-10T12:27:53Z</time>
      </trkpt>
      <trkpt lat="45.12804" lon="6.13884">
        <ele>2833.7</ele>
        <time>2021-03-10T12:27:54Z</time>
      </trkpt>
      <trkpt lat="45.12804" lon="6.13886">
        <ele>2833.7</ele>
        <time>2021-03-10T12:27:55Z</time>
      </trkpt>
      <trkpt lat="45.12804" lon="6.1389">
        <ele>2833.4</ele>
        <time>2021-03-10T12:27:56Z</time>
      </trkpt>
      <trkpt lat="45.12804" lon="6.13892">
        <ele>2833.2</ele>
        <time>2021-03-10T12:27:57Z</time>
      </trkpt>
      <trkpt lat="45.12804" lon="6.13896">
        <ele>2833</ele>
        <time>2021-03-10T12:27:58Z</time>
      </trkpt>
      <trkpt lat="45.12805" lon="6.13902">
        <ele>2834.7</ele>
        <time>2021-03-10T12:27:59Z</time>
      </trkpt>
      <trkpt lat="45.12806" lon="6.13908">
        <ele>2834.6</ele>
        <time>2021-03-10T12:28:00Z</time>
      </trkpt>
      <trkpt lat="45.12808" lon="6.13916">
        <ele>2836.5</ele>
        <time>2021-03-10T12:28:01Z</time>
      </trkpt>
      <trkpt lat="45.12809" lon="6.13923">
        <ele>2836.6</ele>
        <time>2021-03-10T12:28:02Z</time>
      </trkpt>
      <trkpt lat="45.1281" lon="6.1393">
        <ele>2836.8</ele>
        <time>2021-03-10T12:28:03Z</time>
      </trkpt>
      <trkpt lat="45.12811" lon="6.13937">
        <ele>2839</ele>
        <time>2021-03-10T12:28:04Z</time>
      </trkpt>
      <trkpt lat="45.12811" lon="6.13942">
        <ele>2839.3</ele>
        <time>2021-03-10T12:28:05Z</time>
      </trkpt>
      <trkpt lat="45.12811" lon="6.13946">
        <ele>2837.6</ele>
        <time>2021-03-10T12:28:06Z</time>
      </trkpt>
      <trkpt lat="45.1281" lon="6.13947">
        <ele>2838</ele>
        <time>2021-03-10T12:28:07Z</time>
      </trkpt>
      <trkpt lat="45.1281" lon="6.13949">
        <ele>2838</ele>
        <time>2021-03-10T12:28:08Z</time>
      </trkpt>
      <trkpt lat="45.12808" lon="6.1395">
        <ele>2838</ele>
        <time>2021-03-10T12:28:09Z</time>
      </trkpt>
      <trkpt lat="45.12807" lon="6.13952">
        <ele>2836.2</ele>
        <time>2021-03-10T12:28:10Z</time>
      </trkpt>
      <trkpt lat="45.12805" lon="6.13953">
        <ele>2836.2</ele>
        <time>2021-03-10T12:28:11Z</time>
      </trkpt>
      <trkpt lat="45.12804" lon="6.13954">
        <ele>2833.9</ele>
        <time>2021-03-10T12:28:12Z</time>
      </trkpt>
      <trkpt lat="45.12802" lon="6.13955">
        <ele>2833.9</ele>
        <time>2021-03-10T12:28:13Z</time>
      </trkpt>
      <trkpt lat="45.12799" lon="6.13953">
        <ele>2831.7</ele>
        <time>2021-03-10T12:28:14Z</time>
      </trkpt>
      <trkpt lat="45.12797" lon="6.13952">
        <ele>2829.7</ele>
        <time>2021-03-10T12:28:15Z</time>
      </trkpt>
      <trkpt lat="45.12794" lon="6.13949">
        <ele>2827.7</ele>
        <time>2021-03-10T12:28:16Z</time>
      </trkpt>
      <trkpt lat="45.12791" lon="6.13946">
        <ele>2825.9</ele>
        <time>2021-03-10T12:28:17Z</time>
      </trkpt>
      <trkpt lat="45.12788" lon="6.13947">
        <ele>2824.4</ele>
        <time>2021-03-10T12:28:18Z</time>
      </trkpt>
      <trkpt lat="45.12787" lon="6.13947">
        <ele>2824.5</ele>
        <time>2021-03-10T12:28:19Z</time>
      </trkpt>
      <trkpt lat="45.12786" lon="6.13948">
        <ele>2822.9</ele>
        <time>2021-03-10T12:28:20Z</time>
      </trkpt>
      <trkpt lat="45.12786" lon="6.13947">
        <ele>2822.9</ele>
        <time>2021-03-10T12:28:21Z</time>
      </trkpt>
      <trkpt lat="45.12785" lon="6.13946">
        <ele>2822.7</ele>
        <time>2021-03-10T12:28:22Z</time>
      </trkpt>
      <trkpt lat="45.12785" lon="6.13944">
        <ele>2822.7</ele>
        <time>2021-03-10T12:28:23Z</time>
      </trkpt>
      <trkpt lat="45.12785" lon="6.13942">
        <ele>2822.6</ele>
        <time>2021-03-10T12:28:24Z</time>
      </trkpt>
      <trkpt lat="45.12785" lon="6.13941">
        <ele>2822.6</ele>
        <time>2021-03-10T12:28:25Z</time>
      </trkpt>
      <trkpt lat="45.12785" lon="6.1394">
        <ele>2822.6</ele>
        <time>2021-03-10T12:28:26Z</time>
      </trkpt>
      <trkpt lat="45.12785" lon="6.1394">
        <ele>2822.6</ele>
        <time>2021-03-10T12:28:27Z</time>
      </trkpt>
      <trkpt lat="45.12785" lon="6.13939">
        <ele>2822.6</ele>
        <time>2021-03-10T12:28:28Z</time>
      </trkpt>
      <trkpt lat="45.12785" lon="6.13938">
        <ele>2822.6</ele>
        <time>2021-03-10T12:28:29Z</time>
      </trkpt>
      <trkpt lat="45.12785" lon="6.13938">
        <ele>2822.5</ele>
        <time>2021-03-10T12:28:30Z</time>
      </trkpt>
      <trkpt lat="45.12785" lon="6.13937">
        <ele>2822.5</ele>
        <time>2021-03-10T12:28:31Z</time>
      </trkpt>
      <trkpt lat="45.12784" lon="6.13936">
        <ele>2822.5</ele>
        <time>2021-03-10T12:28:32Z</time>
      </trkpt>
      <trkpt lat="45.12783" lon="6.13934">
        <ele>2820.8</ele>
        <time>2021-03-10T12:28:33Z</time>
      </trkpt>
      <trkpt lat="45.12781" lon="6.13929">
        <ele>2820.8</ele>
        <time>2021-03-10T12:28:34Z</time>
      </trkpt>
      <trkpt lat="45.1278" lon="6.13927">
        <ele>2817.9</ele>
        <time>2021-03-10T12:28:35Z</time>
      </trkpt>
      <trkpt lat="45.12779" lon="6.13924">
        <ele>2818.1</ele>
        <time>2021-03-10T12:28:36Z</time>
      </trkpt>
      <trkpt lat="45.12778" lon="6.13923">
        <ele>2818.1</ele>
        <time>2021-03-10T12:28:37Z</time>
      </trkpt>
      <trkpt lat="45.12777" lon="6.13924">
        <ele>2816.3</ele>
        <time>2021-03-10T12:28:38Z</time>
      </trkpt>
      <trkpt lat="45.12776" lon="6.13927">
        <ele>2816.2</ele>
        <time>2021-03-10T12:28:39Z</time>
      </trkpt>
      <trkpt lat="45.12776" lon="6.13932">
        <ele>2816.1</ele>
        <time>2021-03-10T12:28:40Z</time>
      </trkpt>
      <trkpt lat="45.12776" lon="6.13938">
        <ele>2816</ele>
        <time>2021-03-10T12:28:41Z</time>
      </trkpt>
      <trkpt lat="45.12776" lon="6.13941">
        <ele>2816</ele>
        <time>2021-03-10T12:28:42Z</time>
      </trkpt>
      <trkpt lat="45.12775" lon="6.13946">
        <ele>2816</ele>
        <time>2021-03-10T12:28:43Z</time>
      </trkpt>
      <trkpt lat="45.12775" lon="6.13947">
        <ele>2816.1</ele>
        <time>2021-03-10T12:28:44Z</time>
      </trkpt>
      <trkpt lat="45.12774" lon="6.13949">
        <ele>2814.4</ele>
        <time>2021-03-10T12:28:45Z</time>
      </trkpt>
      <trkpt lat="45.12773" lon="6.1395">
        <ele>2814.4</ele>
        <time>2021-03-10T12:28:46Z</time>
      </trkpt>
      <trkpt lat="45.12771" lon="6.1395">
        <ele>2812.9</ele>
        <time>2021-03-10T12:28:47Z</time>
      </trkpt>
      <trkpt lat="45.1277" lon="6.13951">
        <ele>2812.9</ele>
        <time>2021-03-10T12:28:48Z</time>
      </trkpt>
      <trkpt lat="45.12769" lon="6.13951">
        <ele>2812.9</ele>
        <time>2021-03-10T12:28:49Z</time>
      </trkpt>
      <trkpt lat="45.12768" lon="6.1395">
        <ele>2812.9</ele>
        <time>2021-03-10T12:28:50Z</time>
      </trkpt>
      <trkpt lat="45.12767" lon="6.13948">
        <ele>2811.4</ele>
        <time>2021-03-10T12:28:51Z</time>
      </trkpt>
      <trkpt lat="45.12765" lon="6.13943">
        <ele>2809.9</ele>
        <time>2021-03-10T12:28:52Z</time>
      </trkpt>
      <trkpt lat="45.12765" lon="6.13942">
        <ele>2810</ele>
        <time>2021-03-10T12:28:53Z</time>
      </trkpt>
      <trkpt lat="45.12764" lon="6.13942">
        <ele>2810</ele>
        <time>2021-03-10T12:28:54Z</time>
      </trkpt>
      <trkpt lat="45.12763" lon="6.13944">
        <ele>2809.9</ele>
        <time>2021-03-10T12:28:55Z</time>
      </trkpt>
      <trkpt lat="45.12762" lon="6.13945">
        <ele>2809.9</ele>
        <time>2021-03-10T12:28:56Z</time>
      </trkpt>
      <trkpt lat="45.12762" lon="6.13946">
        <ele>2808.4</ele>
        <time>2021-03-10T12:28:57Z</time>
      </trkpt>
      <trkpt lat="45.12761" lon="6.13948">
        <ele>2808.4</ele>
        <time>2021-03-10T12:28:58Z</time>
      </trkpt>
      <trkpt lat="45.1276" lon="6.13949">
        <ele>2808.4</ele>
        <time>2021-03-10T12:28:59Z</time>
      </trkpt>
      <trkpt lat="45.12759" lon="6.13949">
        <ele>2806.8</ele>
        <time>2021-03-10T12:29:00Z</time>
      </trkpt>
      <trkpt lat="45.12758" lon="6.13947">
        <ele>2806.9</ele>
        <time>2021-03-10T12:29:01Z</time>
      </trkpt>
      <trkpt lat="45.12757" lon="6.13943">
        <ele>2806.9</ele>
        <time>2021-03-10T12:29:02Z</time>
      </trkpt>
      <trkpt lat="45.12755" lon="6.13939">
        <ele>2805.4</ele>
        <time>2021-03-10T12:29:03Z</time>
      </trkpt>
      <trkpt lat="45.12754" lon="6.13935">
        <ele>2805.5</ele>
        <time>2021-03-10T12:29:04Z</time>
      </trkpt>
      <trkpt lat="45.12752" lon="6.13935">
        <ele>2803.9</ele>
        <time>2021-03-10T12:29:05Z</time>
      </trkpt>
      <trkpt lat="45.12751" lon="6.13937">
        <ele>2803.9</ele>
        <time>2021-03-10T12:29:06Z</time>
      </trkpt>
      <trkpt lat="45.12751" lon="6.13938">
        <ele>2803.9</ele>
        <time>2021-03-10T12:29:07Z</time>
      </trkpt>
      <trkpt lat="45.1275" lon="6.1394">
        <ele>2802.2</ele>
        <time>2021-03-10T12:29:08Z</time>
      </trkpt>
      <trkpt lat="45.12747" lon="6.1394">
        <ele>2800.6</ele>
        <time>2021-03-10T12:29:09Z</time>
      </trkpt>
      <trkpt lat="45.12745" lon="6.13939">
        <ele>2800.6</ele>
        <time>2021-03-10T12:29:10Z</time>
      </trkpt>
      <trkpt lat="45.12742" lon="6.13934">
        <ele>2799.2</ele>
        <time>2021-03-10T12:29:11Z</time>
      </trkpt>
      <trkpt lat="45.1274" lon="6.13928">
        <ele>2798.2</ele>
        <time>2021-03-10T12:29:12Z</time>
      </trkpt>
      <trkpt lat="45.12738" lon="6.13924">
        <ele>2797.1</ele>
        <time>2021-03-10T12:29:13Z</time>
      </trkpt>
      <trkpt lat="45.12736" lon="6.1392">
        <ele>2797.4</ele>
        <time>2021-03-10T12:29:14Z</time>
      </trkpt>
      <trkpt lat="45.12734" lon="6.13917">
        <ele>2796.5</ele>
        <time>2021-03-10T12:29:15Z</time>
      </trkpt>
      <trkpt lat="45.12733" lon="6.13916">
        <ele>2796.5</ele>
        <time>2021-03-10T12:29:16Z</time>
      </trkpt>
      <trkpt lat="45.12732" lon="6.13918">
        <ele>2794.7</ele>
        <time>2021-03-10T12:29:17Z</time>
      </trkpt>
      <trkpt lat="45.12732" lon="6.13921">
        <ele>2794.7</ele>
        <time>2021-03-10T12:29:18Z</time>
      </trkpt>
      <trkpt lat="45.12731" lon="6.13923">
        <ele>2794.4</ele>
        <time>2021-03-10T12:29:19Z</time>
      </trkpt>
      <trkpt lat="45.1273" lon="6.1393">
        <ele>2793.7</ele>
        <time>2021-03-10T12:29:20Z</time>
      </trkpt>
      <trkpt lat="45.1273" lon="6.13941">
        <ele>2793.1</ele>
        <time>2021-03-10T12:29:21Z</time>
      </trkpt>
      <trkpt lat="45.12729" lon="6.13951">
        <ele>2792.6</ele>
        <time>2021-03-10T12:29:22Z</time>
      </trkpt>
      <trkpt lat="45.12729" lon="6.1396">
        <ele>2790.3</ele>
        <time>2021-03-10T12:29:23Z</time>
      </trkpt>
      <trkpt lat="45.12728" lon="6.13969">
        <ele>2790</ele>
        <time>2021-03-10T12:29:24Z</time>
      </trkpt>
      <trkpt lat="45.12727" lon="6.13984">
        <ele>2789.6</ele>
        <time>2021-03-10T12:29:25Z</time>
      </trkpt>
      <trkpt lat="45.12722" lon="6.13989">
        <ele>2785.7</ele>
        <time>2021-03-10T12:29:26Z</time>
      </trkpt>
      <trkpt lat="45.1272" lon="6.13993">
        <ele>2785.7</ele>
        <time>2021-03-10T12:29:27Z</time>
      </trkpt>
      <trkpt lat="45.12718" lon="6.13993">
        <ele>2783.7</ele>
        <time>2021-03-10T12:29:28Z</time>
      </trkpt>
      <trkpt lat="45.12717" lon="6.13991">
        <ele>2783.7</ele>
        <time>2021-03-10T12:29:29Z</time>
      </trkpt>
      <trkpt lat="45.12717" lon="6.13989">
        <ele>2781.9</ele>
        <time>2021-03-10T12:29:30Z</time>
      </trkpt>
      <trkpt lat="45.12715" lon="6.13984">
        <ele>2782</ele>
        <time>2021-03-10T12:29:31Z</time>
      </trkpt>
      <trkpt lat="45.12708" lon="6.13979">
        <ele>2778.9</ele>
        <time>2021-03-10T12:29:32Z</time>
      </trkpt>
      <trkpt lat="45.12706" lon="6.13974">
        <ele>2777.6</ele>
        <time>2021-03-10T12:29:33Z</time>
      </trkpt>
      <trkpt lat="45.12703" lon="6.13965">
        <ele>2776.5</ele>
        <time>2021-03-10T12:29:34Z</time>
      </trkpt>
      <trkpt lat="45.127" lon="6.13959">
        <ele>2775.5</ele>
        <time>2021-03-10T12:29:35Z</time>
      </trkpt>
      <trkpt lat="45.12698" lon="6.13955">
        <ele>2774.2</ele>
        <time>2021-03-10T12:29:36Z</time>
      </trkpt>
      <trkpt lat="45.12697" lon="6.13954">
        <ele>2774.2</ele>
        <time>2021-03-10T12:29:37Z</time>
      </trkpt>
      <trkpt lat="45.12694" lon="6.13952">
        <ele>2772.5</ele>
        <time>2021-03-10T12:29:38Z</time>
      </trkpt>
      <trkpt lat="45.12693" lon="6.13951">
        <ele>2773</ele>
        <time>2021-03-10T12:29:39Z</time>
      </trkpt>
      <trkpt lat="45.12691" lon="6.13948">
        <ele>2771.3</ele>
        <time>2021-03-10T12:29:40Z</time>
      </trkpt>
      <trkpt lat="45.1269" lon="6.13949">
        <ele>2771.3</ele>
        <time>2021-03-10T12:29:41Z</time>
      </trkpt>
      <trkpt lat="45.12689" lon="6.13951">
        <ele>2769.8</ele>
        <time>2021-03-10T12:29:42Z</time>
      </trkpt>
      <trkpt lat="45.12689" lon="6.13953">
        <ele>2769.3</ele>
        <time>2021-03-10T12:29:43Z</time>
      </trkpt>
      <trkpt lat="45.12688" lon="6.13955">
        <ele>2769.3</ele>
        <time>2021-03-10T12:29:44Z</time>
      </trkpt>
      <trkpt lat="45.12687" lon="6.13962">
        <ele>2768.3</ele>
        <time>2021-03-10T12:29:45Z</time>
      </trkpt>
      <trkpt lat="45.12687" lon="6.13967">
        <ele>2766.5</ele>
        <time>2021-03-10T12:29:46Z</time>
      </trkpt>
      <trkpt lat="45.12685" lon="6.13971">
        <ele>2766.1</ele>
        <time>2021-03-10T12:29:47Z</time>
      </trkpt>
      <trkpt lat="45.12685" lon="6.13972">
        <ele>2766.1</ele>
        <time>2021-03-10T12:29:48Z</time>
      </trkpt>
      <trkpt lat="45.12681" lon="6.13969">
        <ele>2764.8</ele>
        <time>2021-03-10T12:29:49Z</time>
      </trkpt>
      <trkpt lat="45.12679" lon="6.13968">
        <ele>2763.8</ele>
        <time>2021-03-10T12:29:50Z</time>
      </trkpt>
      <trkpt lat="45.12676" lon="6.13965">
        <ele>2762.3</ele>
        <time>2021-03-10T12:29:51Z</time>
      </trkpt>
      <trkpt lat="45.12673" lon="6.13963">
        <ele>2761.3</ele>
        <time>2021-03-10T12:29:52Z</time>
      </trkpt>
      <trkpt lat="45.1267" lon="6.13963">
        <ele>2759.8</ele>
        <time>2021-03-10T12:29:53Z</time>
      </trkpt>
      <trkpt lat="45.12667" lon="6.13967">
        <ele>2757.8</ele>
        <time>2021-03-10T12:29:54Z</time>
      </trkpt>
      <trkpt lat="45.12664" lon="6.13973">
        <ele>2755.4</ele>
        <time>2021-03-10T12:29:55Z</time>
      </trkpt>
      <trkpt lat="45.12662" lon="6.13979">
        <ele>2753.5</ele>
        <time>2021-03-10T12:29:56Z</time>
      </trkpt>
      <trkpt lat="45.1266" lon="6.13984">
        <ele>2753.1</ele>
        <time>2021-03-10T12:29:57Z</time>
      </trkpt>
      <trkpt lat="45.12657" lon="6.13983">
        <ele>2751.7</ele>
        <time>2021-03-10T12:29:58Z</time>
      </trkpt>
      <trkpt lat="45.12656" lon="6.13981">
        <ele>2750.7</ele>
        <time>2021-03-10T12:29:59Z</time>
      </trkpt>
      <trkpt lat="45.12654" lon="6.13975">
        <ele>2751.2</ele>
        <time>2021-03-10T12:30:00Z</time>
      </trkpt>
      <trkpt lat="45.12653" lon="6.13968">
        <ele>2751.7</ele>
        <time>2021-03-10T12:30:01Z</time>
      </trkpt>
      <trkpt lat="45.12652" lon="6.13963">
        <ele>2751.3</ele>
        <time>2021-03-10T12:30:02Z</time>
      </trkpt>
      <trkpt lat="45.12651" lon="6.1396">
        <ele>2751.9</ele>
        <time>2021-03-10T12:30:03Z</time>
      </trkpt>
      <trkpt lat="45.12648" lon="6.13957">
        <ele>2750.5</ele>
        <time>2021-03-10T12:30:04Z</time>
      </trkpt>
      <trkpt lat="45.12647" lon="6.13956">
        <ele>2749.2</ele>
        <time>2021-03-10T12:30:05Z</time>
      </trkpt>
      <trkpt lat="45.12644" lon="6.13953">
        <ele>2748.4</ele>
        <time>2021-03-10T12:30:06Z</time>
      </trkpt>
      <trkpt lat="45.12642" lon="6.13949">
        <ele>2749</ele>
        <time>2021-03-10T12:30:07Z</time>
      </trkpt>
      <trkpt lat="45.12638" lon="6.13948">
        <ele>2746.2</ele>
        <time>2021-03-10T12:30:08Z</time>
      </trkpt>
      <trkpt lat="45.12636" lon="6.13948">
        <ele>2746.2</ele>
        <time>2021-03-10T12:30:09Z</time>
      </trkpt>
      <trkpt lat="45.12634" lon="6.1395">
        <ele>2744.7</ele>
        <time>2021-03-10T12:30:10Z</time>
      </trkpt>
      <trkpt lat="45.12633" lon="6.13954">
        <ele>2744</ele>
        <time>2021-03-10T12:30:11Z</time>
      </trkpt>
      <trkpt lat="45.12632" lon="6.13958">
        <ele>2743.3</ele>
        <time>2021-03-10T12:30:12Z</time>
      </trkpt>
      <trkpt lat="45.1263" lon="6.13962">
        <ele>2741.2</ele>
        <time>2021-03-10T12:30:13Z</time>
      </trkpt>
      <trkpt lat="45.12628" lon="6.13964">
        <ele>2740</ele>
        <time>2021-03-10T12:30:14Z</time>
      </trkpt>
      <trkpt lat="45.12623" lon="6.13967">
        <ele>2738.2</ele>
        <time>2021-03-10T12:30:15Z</time>
      </trkpt>
      <trkpt lat="45.12618" lon="6.13971">
        <ele>2735.3</ele>
        <time>2021-03-10T12:30:16Z</time>
      </trkpt>
      <trkpt lat="45.12612" lon="6.13975">
        <ele>2732.2</ele>
        <time>2021-03-10T12:30:17Z</time>
      </trkpt>
      <trkpt lat="45.12608" lon="6.13978">
        <ele>2730.4</ele>
        <time>2021-03-10T12:30:18Z</time>
      </trkpt>
      <trkpt lat="45.12604" lon="6.13979">
        <ele>2727.9</ele>
        <time>2021-03-10T12:30:19Z</time>
      </trkpt>
      <trkpt lat="45.12602" lon="6.13979">
        <ele>2727.9</ele>
        <time>2021-03-10T12:30:20Z</time>
      </trkpt>
      <trkpt lat="45.12602" lon="6.13978">
        <ele>2727.9</ele>
        <time>2021-03-10T12:30:21Z</time>
      </trkpt>
      <trkpt lat="45.12602" lon="6.13978">
        <ele>2727.9</ele>
        <time>2021-03-10T12:30:22Z</time>
      </trkpt>
      <trkpt lat="45.12602" lon="6.13978">
        <ele>2727.9</ele>
        <time>2021-03-10T12:30:23Z</time>
      </trkpt>
      <trkpt lat="45.12602" lon="6.13978">
        <ele>2727.9</ele>
        <time>2021-03-10T12:30:24Z</time>
      </trkpt>
      <trkpt lat="45.12602" lon="6.13979">
        <ele>2727.9</ele>
        <time>2021-03-10T12:30:25Z</time>
      </trkpt>
      <trkpt lat="45.12602" lon="6.13979">
        <ele>2727.9</ele>
        <time>2021-03-10T12:30:26Z</time>
      </trkpt>
      <trkpt lat="45.12602" lon="6.13979">
        <ele>2727.9</ele>
        <time>2021-03-10T12:30:27Z</time>
      </trkpt>
      <trkpt lat="45.12602" lon="6.13979">
        <ele>2727.9</ele>
        <time>2021-03-10T12:30:28Z</time>
      </trkpt>
      <trkpt lat="45.12602" lon="6.13979">
        <ele>2727.9</ele>
        <time>2021-03-10T12:30:29Z</time>
      </trkpt>
      <trkpt lat="45.12602" lon="6.13979">
        <ele>2727.9</ele>
        <time>2021-03-10T12:30:30Z</time>
      </trkpt>
      <trkpt lat="45.12596" lon="6.13973">
        <ele>2725.2</ele>
        <time>2021-03-10T12:31:17Z</time>
      </trkpt>
      <trkpt lat="45.12593" lon="6.13975">
        <ele>2725.2</ele>
        <time>2021-03-10T12:31:18Z</time>
      </trkpt>
      <trkpt lat="45.12591" lon="6.13978">
        <ele>2723.5</ele>
        <time>2021-03-10T12:31:19Z</time>
      </trkpt>
      <trkpt lat="45.12588" lon="6.13982">
        <ele>2721.6</ele>
        <time>2021-03-10T12:31:20Z</time>
      </trkpt>
      <trkpt lat="45.12588" lon="6.13989">
        <ele>2721.2</ele>
        <time>2021-03-10T12:31:21Z</time>
      </trkpt>
      <trkpt lat="45.12588" lon="6.13997">
        <ele>2720.2</ele>
        <time>2021-03-10T12:31:22Z</time>
      </trkpt>
      <trkpt lat="45.12588" lon="6.14005">
        <ele>2719.4</ele>
        <time>2021-03-10T12:31:23Z</time>
      </trkpt>
      <trkpt lat="45.12589" lon="6.14013">
        <ele>2718.8</ele>
        <time>2021-03-10T12:31:24Z</time>
      </trkpt>
      <trkpt lat="45.12589" lon="6.14023">
        <ele>2718.4</ele>
        <time>2021-03-10T12:31:25Z</time>
      </trkpt>
      <trkpt lat="45.1259" lon="6.14032">
        <ele>2718.2</ele>
        <time>2021-03-10T12:31:26Z</time>
      </trkpt>
      <trkpt lat="45.12589" lon="6.1404">
        <ele>2718.4</ele>
        <time>2021-03-10T12:31:27Z</time>
      </trkpt>
      <trkpt lat="45.12587" lon="6.14045">
        <ele>2718.5</ele>
        <time>2021-03-10T12:31:28Z</time>
      </trkpt>
      <trkpt lat="45.12585" lon="6.14049">
        <ele>2717.3</ele>
        <time>2021-03-10T12:31:29Z</time>
      </trkpt>
      <trkpt lat="45.12581" lon="6.14051">
        <ele>2716.1</ele>
        <time>2021-03-10T12:31:30Z</time>
      </trkpt>
      <trkpt lat="45.12578" lon="6.14054">
        <ele>2714.8</ele>
        <time>2021-03-10T12:31:31Z</time>
      </trkpt>
      <trkpt lat="45.12575" lon="6.14056">
        <ele>2713.8</ele>
        <time>2021-03-10T12:31:32Z</time>
      </trkpt>
      <trkpt lat="45.12571" lon="6.14059">
        <ele>2711.6</ele>
        <time>2021-03-10T12:31:33Z</time>
      </trkpt>
      <trkpt lat="45.12568" lon="6.14061">
        <ele>2710.3</ele>
        <time>2021-03-10T12:31:34Z</time>
      </trkpt>
      <trkpt lat="45.12565" lon="6.14064">
        <ele>2709.4</ele>
        <time>2021-03-10T12:31:35Z</time>
      </trkpt>
      <trkpt lat="45.12562" lon="6.14067">
        <ele>2708</ele>
        <time>2021-03-10T12:31:36Z</time>
      </trkpt>
      <trkpt lat="45.12558" lon="6.1407">
        <ele>2707.1</ele>
        <time>2021-03-10T12:31:37Z</time>
      </trkpt>
      <trkpt lat="45.12555" lon="6.14073">
        <ele>2706.1</ele>
        <time>2021-03-10T12:31:38Z</time>
      </trkpt>
      <trkpt lat="45.12551" lon="6.14076">
        <ele>2705.2</ele>
        <time>2021-03-10T12:31:39Z</time>
      </trkpt>
      <trkpt lat="45.12548" lon="6.1408">
        <ele>2704.3</ele>
        <time>2021-03-10T12:31:40Z</time>
      </trkpt>
      <trkpt lat="45.12544" lon="6.14085">
        <ele>2702.3</ele>
        <time>2021-03-10T12:31:41Z</time>
      </trkpt>
      <trkpt lat="45.1254" lon="6.1409">
        <ele>2701.8</ele>
        <time>2021-03-10T12:31:42Z</time>
      </trkpt>
      <trkpt lat="45.12535" lon="6.14096">
        <ele>2700.1</ele>
        <time>2021-03-10T12:31:43Z</time>
      </trkpt>
      <trkpt lat="45.12529" lon="6.14101">
        <ele>2698.1</ele>
        <time>2021-03-10T12:31:44Z</time>
      </trkpt>
      <trkpt lat="45.12526" lon="6.14105">
        <ele>2697.4</ele>
        <time>2021-03-10T12:31:45Z</time>
      </trkpt>
      <trkpt lat="45.12521" lon="6.14109">
        <ele>2696.7</ele>
        <time>2021-03-10T12:31:46Z</time>
      </trkpt>
      <trkpt lat="45.12517" lon="6.14112">
        <ele>2696.2</ele>
        <time>2021-03-10T12:31:47Z</time>
      </trkpt>
      <trkpt lat="45.12515" lon="6.14115">
        <ele>2695.8</ele>
        <time>2021-03-10T12:31:48Z</time>
      </trkpt>
      <trkpt lat="45.1251" lon="6.14119">
        <ele>2694.1</ele>
        <time>2021-03-10T12:31:49Z</time>
      </trkpt>
      <trkpt lat="45.12506" lon="6.14123">
        <ele>2692.7</ele>
        <time>2021-03-10T12:31:50Z</time>
      </trkpt>
      <trkpt lat="45.12501" lon="6.14128">
        <ele>2691</ele>
        <time>2021-03-10T12:31:51Z</time>
      </trkpt>
      <trkpt lat="45.12497" lon="6.14133">
        <ele>2690</ele>
        <time>2021-03-10T12:31:52Z</time>
      </trkpt>
      <trkpt lat="45.12493" lon="6.14137">
        <ele>2689.5</ele>
        <time>2021-03-10T12:31:53Z</time>
      </trkpt>
      <trkpt lat="45.12491" lon="6.1414">
        <ele>2688.1</ele>
        <time>2021-03-10T12:31:54Z</time>
      </trkpt>
      <trkpt lat="45.12488" lon="6.14142">
        <ele>2687.4</ele>
        <time>2021-03-10T12:31:55Z</time>
      </trkpt>
      <trkpt lat="45.12486" lon="6.14145">
        <ele>2686.6</ele>
        <time>2021-03-10T12:31:56Z</time>
      </trkpt>
      <trkpt lat="45.12482" lon="6.14149">
        <ele>2685.1</ele>
        <time>2021-03-10T12:31:57Z</time>
      </trkpt>
      <trkpt lat="45.1248" lon="6.14152">
        <ele>2684.2</ele>
        <time>2021-03-10T12:31:58Z</time>
      </trkpt>
      <trkpt lat="45.12477" lon="6.14155">
        <ele>2683.2</ele>
        <time>2021-03-10T12:31:59Z</time>
      </trkpt>
      <trkpt lat="45.12474" lon="6.14157">
        <ele>2681.6</ele>
        <time>2021-03-10T12:32:00Z</time>
      </trkpt>
      <trkpt lat="45.12471" lon="6.14161">
        <ele>2680.7</ele>
        <time>2021-03-10T12:32:01Z</time>
      </trkpt>
      <trkpt lat="45.12469" lon="6.14165">
        <ele>2681.3</ele>
        <time>2021-03-10T12:32:02Z</time>
      </trkpt>
      <trkpt lat="45.12468" lon="6.14169">
        <ele>2680.3</ele>
        <time>2021-03-10T12:32:03Z</time>
      </trkpt>
      <trkpt lat="45.12467" lon="6.14169">
        <ele>2680.3</ele>
        <time>2021-03-10T12:32:04Z</time>
      </trkpt>
      <trkpt lat="45.12466" lon="6.1417">
        <ele>2680.9</ele>
        <time>2021-03-10T12:32:05Z</time>
      </trkpt>
      <trkpt lat="45.12465" lon="6.1417">
        <ele>2679.5</ele>
        <time>2021-03-10T12:32:06Z</time>
      </trkpt>
      <trkpt lat="45.12464" lon="6.14171">
        <ele>2679.5</ele>
        <time>2021-03-10T12:32:07Z</time>
      </trkpt>
      <trkpt lat="45.1246" lon="6.14168">
        <ele>2677.5</ele>
        <time>2021-03-10T12:32:08Z</time>
      </trkpt>
      <trkpt lat="45.12459" lon="6.14166">
        <ele>2675.6</ele>
        <time>2021-03-10T12:32:09Z</time>
      </trkpt>
      <trkpt lat="45.12455" lon="6.14163">
        <ele>2674.3</ele>
        <time>2021-03-10T12:32:10Z</time>
      </trkpt>
      <trkpt lat="45.12451" lon="6.14162">
        <ele>2673.1</ele>
        <time>2021-03-10T12:32:11Z</time>
      </trkpt>
      <trkpt lat="45.12447" lon="6.14161">
        <ele>2670.1</ele>
        <time>2021-03-10T12:32:12Z</time>
      </trkpt>
      <trkpt lat="45.12446" lon="6.1416">
        <ele>2670.1</ele>
        <time>2021-03-10T12:32:13Z</time>
      </trkpt>
      <trkpt lat="45.12443" lon="6.14158">
        <ele>2668.8</ele>
        <time>2021-03-10T12:32:14Z</time>
      </trkpt>
      <trkpt lat="45.12442" lon="6.14157">
        <ele>2668.3</ele>
        <time>2021-03-10T12:32:15Z</time>
      </trkpt>
      <trkpt lat="45.12439" lon="6.14155">
        <ele>2667.1</ele>
        <time>2021-03-10T12:32:16Z</time>
      </trkpt>
      <trkpt lat="45.12436" lon="6.14153">
        <ele>2665.9</ele>
        <time>2021-03-10T12:32:17Z</time>
      </trkpt>
      <trkpt lat="45.12431" lon="6.14151">
        <ele>2663.5</ele>
        <time>2021-03-10T12:32:18Z</time>
      </trkpt>
      <trkpt lat="45.12419" lon="6.14149">
        <ele>2659.5</ele>
        <time>2021-03-10T12:32:19Z</time>
      </trkpt>
      <trkpt lat="45.12416" lon="6.14145">
        <ele>2658</ele>
        <time>2021-03-10T12:32:20Z</time>
      </trkpt>
      <trkpt lat="45.1241" lon="6.1414">
        <ele>2655.4</ele>
        <time>2021-03-10T12:32:21Z</time>
      </trkpt>
      <trkpt lat="45.12406" lon="6.14137">
        <ele>2654.6</ele>
        <time>2021-03-10T12:32:22Z</time>
      </trkpt>
      <trkpt lat="45.12399" lon="6.14144">
        <ele>2653.2</ele>
        <time>2021-03-10T12:32:23Z</time>
      </trkpt>
      <trkpt lat="45.12395" lon="6.14141">
        <ele>2651.5</ele>
        <time>2021-03-10T12:32:24Z</time>
      </trkpt>
      <trkpt lat="45.12393" lon="6.1414">
        <ele>2651.3</ele>
        <time>2021-03-10T12:32:25Z</time>
      </trkpt>
      <trkpt lat="45.12387" lon="6.14138">
        <ele>2649.5</ele>
        <time>2021-03-10T12:32:26Z</time>
      </trkpt>
      <trkpt lat="45.12384" lon="6.14135">
        <ele>2648.5</ele>
        <time>2021-03-10T12:32:27Z</time>
      </trkpt>
      <trkpt lat="45.1238" lon="6.14132">
        <ele>2646.9</ele>
        <time>2021-03-10T12:32:28Z</time>
      </trkpt>
      <trkpt lat="45.12379" lon="6.14131">
        <ele>2646.8</ele>
        <time>2021-03-10T12:32:29Z</time>
      </trkpt>
      <trkpt lat="45.12378" lon="6.14131">
        <ele>2646.8</ele>
        <time>2021-03-10T12:32:30Z</time>
      </trkpt>
      <trkpt lat="45.12377" lon="6.14131">
        <ele>2646.1</ele>
        <time>2021-03-10T12:32:31Z</time>
      </trkpt>
      <trkpt lat="45.12376" lon="6.14131">
        <ele>2646.1</ele>
        <time>2021-03-10T12:32:32Z</time>
      </trkpt>
      <trkpt lat="45.12375" lon="6.14131">
        <ele>2646.1</ele>
        <time>2021-03-10T12:32:33Z</time>
      </trkpt>
      <trkpt lat="45.12375" lon="6.14131">
        <ele>2645.3</ele>
        <time>2021-03-10T12:32:34Z</time>
      </trkpt>
      <trkpt lat="45.12374" lon="6.14131">
        <ele>2645.3</ele>
        <time>2021-03-10T12:32:35Z</time>
      </trkpt>
      <trkpt lat="45.12373" lon="6.1413">
        <ele>2645.3</ele>
        <time>2021-03-10T12:32:36Z</time>
      </trkpt>
      <trkpt lat="45.12372" lon="6.1413">
        <ele>2645.3</ele>
        <time>2021-03-10T12:32:37Z</time>
      </trkpt>
      <trkpt lat="45.12371" lon="6.1413">
        <ele>2644.6</ele>
        <time>2021-03-10T12:32:38Z</time>
      </trkpt>
      <trkpt lat="45.1237" lon="6.1413">
        <ele>2644.6</ele>
        <time>2021-03-10T12:32:39Z</time>
      </trkpt>
      <trkpt lat="45.12369" lon="6.1413">
        <ele>2644.6</ele>
        <time>2021-03-10T12:32:40Z</time>
      </trkpt>
      <trkpt lat="45.12369" lon="6.1413">
        <ele>2643.8</ele>
        <time>2021-03-10T12:32:41Z</time>
      </trkpt>
      <trkpt lat="45.12368" lon="6.14129">
        <ele>2643.8</ele>
        <time>2021-03-10T12:33:29Z</time>
      </trkpt>
      <trkpt lat="45.12367" lon="6.14129">
        <ele>2643.8</ele>
        <time>2021-03-10T12:33:30Z</time>
      </trkpt>
      <trkpt lat="45.12361" lon="6.14129">
        <ele>2642.2</ele>
        <time>2021-03-10T12:33:31Z</time>
      </trkpt>
      <trkpt lat="45.12354" lon="6.14127">
        <ele>2640.7</ele>
        <time>2021-03-10T12:33:32Z</time>
      </trkpt>
      <trkpt lat="45.12348" lon="6.14125">
        <ele>2639.3</ele>
        <time>2021-03-10T12:33:33Z</time>
      </trkpt>
      <trkpt lat="45.12344" lon="6.14123">
        <ele>2638.3</ele>
        <time>2021-03-10T12:33:34Z</time>
      </trkpt>
      <trkpt lat="45.1234" lon="6.1412">
        <ele>2637.7</ele>
        <time>2021-03-10T12:33:35Z</time>
      </trkpt>
      <trkpt lat="45.12337" lon="6.1412">
        <ele>2637.1</ele>
        <time>2021-03-10T12:33:36Z</time>
      </trkpt>
      <trkpt lat="45.12337" lon="6.14119">
        <ele>2637.3</ele>
        <time>2021-03-10T12:33:37Z</time>
      </trkpt>
      <trkpt lat="45.12334" lon="6.14117">
        <ele>2636.6</ele>
        <time>2021-03-10T12:33:38Z</time>
      </trkpt>
      <trkpt lat="45.12333" lon="6.14116">
        <ele>2636.6</ele>
        <time>2021-03-10T12:33:39Z</time>
      </trkpt>
      <trkpt lat="45.1233" lon="6.14114">
        <ele>2636.2</ele>
        <time>2021-03-10T12:33:40Z</time>
      </trkpt>
      <trkpt lat="45.12326" lon="6.14112">
        <ele>2635.5</ele>
        <time>2021-03-10T12:33:41Z</time>
      </trkpt>
      <trkpt lat="45.12322" lon="6.14115">
        <ele>2634</ele>
        <time>2021-03-10T12:33:42Z</time>
      </trkpt>
      <trkpt lat="45.12321" lon="6.14117">
        <ele>2634</ele>
        <time>2021-03-10T12:33:43Z</time>
      </trkpt>
      <trkpt lat="45.12318" lon="6.14123">
        <ele>2633.1</ele>
        <time>2021-03-10T12:33:44Z</time>
      </trkpt>
      <trkpt lat="45.12316" lon="6.14127">
        <ele>2632.2</ele>
        <time>2021-03-10T12:33:45Z</time>
      </trkpt>
      <trkpt lat="45.12314" lon="6.14133">
        <ele>2630.9</ele>
        <time>2021-03-10T12:33:46Z</time>
      </trkpt>
      <trkpt lat="45.12312" lon="6.14138">
        <ele>2630.6</ele>
        <time>2021-03-10T12:33:47Z</time>
      </trkpt>
      <trkpt lat="45.1231" lon="6.14143">
        <ele>2629.6</ele>
        <time>2021-03-10T12:33:48Z</time>
      </trkpt>
      <trkpt lat="45.12308" lon="6.14147">
        <ele>2628.6</ele>
        <time>2021-03-10T12:33:49Z</time>
      </trkpt>
      <trkpt lat="45.12304" lon="6.14149">
        <ele>2627.7</ele>
        <time>2021-03-10T12:33:50Z</time>
      </trkpt>
      <trkpt lat="45.123" lon="6.14151">
        <ele>2626.9</ele>
        <time>2021-03-10T12:33:51Z</time>
      </trkpt>
      <trkpt lat="45.12296" lon="6.14155">
        <ele>2626.1</ele>
        <time>2021-03-10T12:33:52Z</time>
      </trkpt>
      <trkpt lat="45.12295" lon="6.1416">
        <ele>2625.3</ele>
        <time>2021-03-10T12:33:53Z</time>
      </trkpt>
      <trkpt lat="45.12291" lon="6.14163">
        <ele>2624.6</ele>
        <time>2021-03-10T12:33:54Z</time>
      </trkpt>
      <trkpt lat="45.12291" lon="6.14165">
        <ele>2624.6</ele>
        <time>2021-03-10T12:33:55Z</time>
      </trkpt>
      <trkpt lat="45.1229" lon="6.14176">
        <ele>2624.5</ele>
        <time>2021-03-10T12:33:56Z</time>
      </trkpt>
      <trkpt lat="45.1229" lon="6.14184">
        <ele>2623.7</ele>
        <time>2021-03-10T12:33:57Z</time>
      </trkpt>
      <trkpt lat="45.12287" lon="6.14189">
        <ele>2623.6</ele>
        <time>2021-03-10T12:33:58Z</time>
      </trkpt>
      <trkpt lat="45.12287" lon="6.14191">
        <ele>2622.7</ele>
        <time>2021-03-10T12:33:59Z</time>
      </trkpt>
      <trkpt lat="45.12284" lon="6.1419">
        <ele>2621.9</ele>
        <time>2021-03-10T12:34:00Z</time>
      </trkpt>
      <trkpt lat="45.1228" lon="6.14186">
        <ele>2621</ele>
        <time>2021-03-10T12:34:01Z</time>
      </trkpt>
      <trkpt lat="45.12277" lon="6.14182">
        <ele>2620.2</ele>
        <time>2021-03-10T12:34:02Z</time>
      </trkpt>
      <trkpt lat="45.12272" lon="6.14179">
        <ele>2619.3</ele>
        <time>2021-03-10T12:34:03Z</time>
      </trkpt>
      <trkpt lat="45.12271" lon="6.14184">
        <ele>2618.3</ele>
        <time>2021-03-10T12:34:04Z</time>
      </trkpt>
      <trkpt lat="45.12271" lon="6.1419">
        <ele>2618.2</ele>
        <time>2021-03-10T12:34:05Z</time>
      </trkpt>
      <trkpt lat="45.12271" lon="6.14196">
        <ele>2618.1</ele>
        <time>2021-03-10T12:34:06Z</time>
      </trkpt>
      <trkpt lat="45.12271" lon="6.14202">
        <ele>2617.8</ele>
        <time>2021-03-10T12:34:07Z</time>
      </trkpt>
      <trkpt lat="45.12272" lon="6.14206">
        <ele>2618.7</ele>
        <time>2021-03-10T12:34:08Z</time>
      </trkpt>
      <trkpt lat="45.12272" lon="6.14207">
        <ele>2618.7</ele>
        <time>2021-03-10T12:34:09Z</time>
      </trkpt>
      <trkpt lat="45.12272" lon="6.14209">
        <ele>2618.6</ele>
        <time>2021-03-10T12:34:10Z</time>
      </trkpt>
      <trkpt lat="45.12271" lon="6.14212">
        <ele>2617.6</ele>
        <time>2021-03-10T12:34:11Z</time>
      </trkpt>
      <trkpt lat="45.1227" lon="6.14216">
        <ele>2617.5</ele>
        <time>2021-03-10T12:34:12Z</time>
      </trkpt>
      <trkpt lat="45.12269" lon="6.14222">
        <ele>2617.3</ele>
        <time>2021-03-10T12:34:13Z</time>
      </trkpt>
      <trkpt lat="45.12269" lon="6.14228">
        <ele>2616.1</ele>
        <time>2021-03-10T12:34:14Z</time>
      </trkpt>
      <trkpt lat="45.12269" lon="6.14233">
        <ele>2616</ele>
        <time>2021-03-10T12:34:15Z</time>
      </trkpt>
      <trkpt lat="45.12268" lon="6.14237">
        <ele>2615.9</ele>
        <time>2021-03-10T12:34:16Z</time>
      </trkpt>
      <trkpt lat="45.12266" lon="6.14241">
        <ele>2615.8</ele>
        <time>2021-03-10T12:34:17Z</time>
      </trkpt>
      <trkpt lat="45.12265" lon="6.14242">
        <ele>2614.7</ele>
        <time>2021-03-10T12:34:18Z</time>
      </trkpt>
      <trkpt lat="45.12262" lon="6.1424">
        <ele>2613.7</ele>
        <time>2021-03-10T12:34:19Z</time>
      </trkpt>
      <trkpt lat="45.1226" lon="6.1424">
        <ele>2613.7</ele>
        <time>2021-03-10T12:34:20Z</time>
      </trkpt>
      <trkpt lat="45.12257" lon="6.14238">
        <ele>2612.9</ele>
        <time>2021-03-10T12:34:21Z</time>
      </trkpt>
      <trkpt lat="45.12254" lon="6.14241">
        <ele>2611.7</ele>
        <time>2021-03-10T12:34:22Z</time>
      </trkpt>
      <trkpt lat="45.12253" lon="6.14243">
        <ele>2610.6</ele>
        <time>2021-03-10T12:34:23Z</time>
      </trkpt>
      <trkpt lat="45.12254" lon="6.14247">
        <ele>2611.5</ele>
        <time>2021-03-10T12:34:24Z</time>
      </trkpt>
      <trkpt lat="45.12255" lon="6.14252">
        <ele>2611.1</ele>
        <time>2021-03-10T12:34:25Z</time>
      </trkpt>
      <trkpt lat="45.12255" lon="6.14256">
        <ele>2610.9</ele>
        <time>2021-03-10T12:34:26Z</time>
      </trkpt>
      <trkpt lat="45.12254" lon="6.14258">
        <ele>2610.9</ele>
        <time>2021-03-10T12:34:27Z</time>
      </trkpt>
      <trkpt lat="45.12252" lon="6.1426">
        <ele>2609.7</ele>
        <time>2021-03-10T12:34:28Z</time>
      </trkpt>
      <trkpt lat="45.1225" lon="6.14263">
        <ele>2608.2</ele>
        <time>2021-03-10T12:34:29Z</time>
      </trkpt>
      <trkpt lat="45.12249" lon="6.14264">
        <ele>2608.2</ele>
        <time>2021-03-10T12:34:30Z</time>
      </trkpt>
      <trkpt lat="45.12249" lon="6.14268">
        <ele>2608</ele>
        <time>2021-03-10T12:34:31Z</time>
      </trkpt>
      <trkpt lat="45.12249" lon="6.14269">
        <ele>2607.7</ele>
        <time>2021-03-10T12:34:32Z</time>
      </trkpt>
      <trkpt lat="45.12247" lon="6.14269">
        <ele>2606.6</ele>
        <time>2021-03-10T12:34:33Z</time>
      </trkpt>
      <trkpt lat="45.12246" lon="6.14267">
        <ele>2606.6</ele>
        <time>2021-03-10T12:34:34Z</time>
      </trkpt>
      <trkpt lat="45.12244" lon="6.14263">
        <ele>2605.6</ele>
        <time>2021-03-10T12:34:35Z</time>
      </trkpt>
      <trkpt lat="45.12244" lon="6.14262">
        <ele>2605.6</ele>
        <time>2021-03-10T12:34:36Z</time>
      </trkpt>
      <trkpt lat="45.12244" lon="6.1426">
        <ele>2605.6</ele>
        <time>2021-03-10T12:34:37Z</time>
      </trkpt>
      <trkpt lat="45.12243" lon="6.14259">
        <ele>2605.9</ele>
        <time>2021-03-10T12:34:38Z</time>
      </trkpt>
      <trkpt lat="45.12243" lon="6.14259">
        <ele>2605.9</ele>
        <time>2021-03-10T12:34:39Z</time>
      </trkpt>
      <trkpt lat="45.12243" lon="6.14259">
        <ele>2605.9</ele>
        <time>2021-03-10T12:34:40Z</time>
      </trkpt>
      <trkpt lat="45.12243" lon="6.14259">
        <ele>2605.9</ele>
        <time>2021-03-10T12:34:41Z</time>
      </trkpt>
      <trkpt lat="45.12243" lon="6.14259">
        <ele>2605.9</ele>
        <time>2021-03-10T12:34:42Z</time>
      </trkpt>
      <trkpt lat="45.12243" lon="6.14259">
        <ele>2605.9</ele>
        <time>2021-03-10T12:34:43Z</time>
      </trkpt>
      <trkpt lat="45.12243" lon="6.14259">
        <ele>2605.9</ele>
        <time>2021-03-10T12:34:44Z</time>
      </trkpt>
      <trkpt lat="45.12243" lon="6.14259">
        <ele>2605.9</ele>
        <time>2021-03-10T12:34:45Z</time>
      </trkpt>
      <trkpt lat="45.12243" lon="6.14259">
        <ele>2605.9</ele>
        <time>2021-03-10T12:34:46Z</time>
      </trkpt>
      <trkpt lat="45.12233" lon="6.14252">
        <ele>2602.9</ele>
        <time>2021-03-10T12:34:53Z</time>
      </trkpt>
      <trkpt lat="45.1223" lon="6.1425">
        <ele>2602.2</ele>
        <time>2021-03-10T12:34:54Z</time>
      </trkpt>
      <trkpt lat="45.12227" lon="6.14249">
        <ele>2601</ele>
        <time>2021-03-10T12:34:55Z</time>
      </trkpt>
      <trkpt lat="45.12224" lon="6.14249">
        <ele>2599.7</ele>
        <time>2021-03-10T12:34:56Z</time>
      </trkpt>
      <trkpt lat="45.12221" lon="6.1425">
        <ele>2598.3</ele>
        <time>2021-03-10T12:34:57Z</time>
      </trkpt>
      <trkpt lat="45.12217" lon="6.14252">
        <ele>2595.7</ele>
        <time>2021-03-10T12:34:58Z</time>
      </trkpt>
      <trkpt lat="45.12213" lon="6.14253">
        <ele>2594</ele>
        <time>2021-03-10T12:34:59Z</time>
      </trkpt>
      <trkpt lat="45.12209" lon="6.14256">
        <ele>2592.9</ele>
        <time>2021-03-10T12:35:00Z</time>
      </trkpt>
      <trkpt lat="45.12206" lon="6.14261">
        <ele>2590.6</ele>
        <time>2021-03-10T12:35:01Z</time>
      </trkpt>
      <trkpt lat="45.12205" lon="6.14267">
        <ele>2588.7</ele>
        <time>2021-03-10T12:35:02Z</time>
      </trkpt>
      <trkpt lat="45.12204" lon="6.14274">
        <ele>2587.2</ele>
        <time>2021-03-10T12:35:03Z</time>
      </trkpt>
      <trkpt lat="45.12207" lon="6.14291">
        <ele>2585.8</ele>
        <time>2021-03-10T12:35:04Z</time>
      </trkpt>
      <trkpt lat="45.12205" lon="6.14296">
        <ele>2583.7</ele>
        <time>2021-03-10T12:35:05Z</time>
      </trkpt>
      <trkpt lat="45.122" lon="6.14292">
        <ele>2583</ele>
        <time>2021-03-10T12:35:06Z</time>
      </trkpt>
      <trkpt lat="45.12196" lon="6.14289">
        <ele>2582.3</ele>
        <time>2021-03-10T12:35:07Z</time>
      </trkpt>
      <trkpt lat="45.12194" lon="6.14288">
        <ele>2580.9</ele>
        <time>2021-03-10T12:35:08Z</time>
      </trkpt>
      <trkpt lat="45.12189" lon="6.14289">
        <ele>2578.2</ele>
        <time>2021-03-10T12:35:09Z</time>
      </trkpt>
      <trkpt lat="45.12189" lon="6.14294">
        <ele>2577.4</ele>
        <time>2021-03-10T12:35:10Z</time>
      </trkpt>
      <trkpt lat="45.12189" lon="6.14303">
        <ele>2574.9</ele>
        <time>2021-03-10T12:35:11Z</time>
      </trkpt>
      <trkpt lat="45.12188" lon="6.14307">
        <ele>2574.9</ele>
        <time>2021-03-10T12:35:12Z</time>
      </trkpt>
      <trkpt lat="45.12184" lon="6.1431">
        <ele>2571.2</ele>
        <time>2021-03-10T12:35:13Z</time>
      </trkpt>
      <trkpt lat="45.12182" lon="6.14312">
        <ele>2570.3</ele>
        <time>2021-03-10T12:35:14Z</time>
      </trkpt>
      <trkpt lat="45.1218" lon="6.14317">
        <ele>2568</ele>
        <time>2021-03-10T12:35:15Z</time>
      </trkpt>
      <trkpt lat="45.12175" lon="6.14323">
        <ele>2564.6</ele>
        <time>2021-03-10T12:35:16Z</time>
      </trkpt>
      <trkpt lat="45.12174" lon="6.1432">
        <ele>2565.5</ele>
        <time>2021-03-10T12:35:17Z</time>
      </trkpt>
      <trkpt lat="45.12172" lon="6.1432">
        <ele>2565.5</ele>
        <time>2021-03-10T12:35:18Z</time>
      </trkpt>
      <trkpt lat="45.12171" lon="6.14322">
        <ele>2563.4</ele>
        <time>2021-03-10T12:35:19Z</time>
      </trkpt>
      <trkpt lat="45.1217" lon="6.14322">
        <ele>2563.4</ele>
        <time>2021-03-10T12:35:20Z</time>
      </trkpt>
      <trkpt lat="45.12169" lon="6.14322">
        <ele>2562.2</ele>
        <time>2021-03-10T12:35:21Z</time>
      </trkpt>
      <trkpt lat="45.12168" lon="6.14322">
        <ele>2562.2</ele>
        <time>2021-03-10T12:35:22Z</time>
      </trkpt>
      <trkpt lat="45.12167" lon="6.14322">
        <ele>2562.2</ele>
        <time>2021-03-10T12:35:23Z</time>
      </trkpt>
      <trkpt lat="45.12166" lon="6.14322">
        <ele>2561.1</ele>
        <time>2021-03-10T12:35:24Z</time>
      </trkpt>
      <trkpt lat="45.12165" lon="6.14323">
        <ele>2561.1</ele>
        <time>2021-03-10T12:35:25Z</time>
      </trkpt>
      <trkpt lat="45.12164" lon="6.14323">
        <ele>2561.1</ele>
        <time>2021-03-10T12:35:26Z</time>
      </trkpt>
      <trkpt lat="45.12163" lon="6.14323">
        <ele>2560.1</ele>
        <time>2021-03-10T12:35:27Z</time>
      </trkpt>
      <trkpt lat="45.12162" lon="6.14323">
        <ele>2560.1</ele>
        <time>2021-03-10T12:35:28Z</time>
      </trkpt>
      <trkpt lat="45.12161" lon="6.14323">
        <ele>2560.1</ele>
        <time>2021-03-10T12:35:29Z</time>
      </trkpt>
      <trkpt lat="45.1216" lon="6.14323">
        <ele>2559.1</ele>
        <time>2021-03-10T12:36:59Z</time>
      </trkpt>
      <trkpt lat="45.12159" lon="6.14323">
        <ele>2559.1</ele>
        <time>2021-03-10T12:37:00Z</time>
      </trkpt>
      <trkpt lat="45.12154" lon="6.14324">
        <ele>2558.3</ele>
        <time>2021-03-10T12:37:01Z</time>
      </trkpt>
      <trkpt lat="45.1215" lon="6.14325">
        <ele>2557</ele>
        <time>2021-03-10T12:37:02Z</time>
      </trkpt>
      <trkpt lat="45.12146" lon="6.14327">
        <ele>2555.6</ele>
        <time>2021-03-10T12:37:03Z</time>
      </trkpt>
      <trkpt lat="45.12144" lon="6.14335">
        <ele>2553.4</ele>
        <time>2021-03-10T12:37:04Z</time>
      </trkpt>
      <trkpt lat="45.12142" lon="6.14339">
        <ele>2552.5</ele>
        <time>2021-03-10T12:37:05Z</time>
      </trkpt>
      <trkpt lat="45.12142" lon="6.14341">
        <ele>2552</ele>
        <time>2021-03-10T12:37:06Z</time>
      </trkpt>
      <trkpt lat="45.12136" lon="6.14346">
        <ele>2550.5</ele>
        <time>2021-03-10T12:37:07Z</time>
      </trkpt>
      <trkpt lat="45.12133" lon="6.1435">
        <ele>2549.1</ele>
        <time>2021-03-10T12:37:08Z</time>
      </trkpt>
      <trkpt lat="45.1213" lon="6.14354">
        <ele>2547.6</ele>
        <time>2021-03-10T12:37:09Z</time>
      </trkpt>
      <trkpt lat="45.12129" lon="6.1436">
        <ele>2545.1</ele>
        <time>2021-03-10T12:37:10Z</time>
      </trkpt>
      <trkpt lat="45.12124" lon="6.14366">
        <ele>2543.7</ele>
        <time>2021-03-10T12:37:11Z</time>
      </trkpt>
      <trkpt lat="45.12118" lon="6.14369">
        <ele>2542</ele>
        <time>2021-03-10T12:37:12Z</time>
      </trkpt>
      <trkpt lat="45.12114" lon="6.14369">
        <ele>2541.6</ele>
        <time>2021-03-10T12:37:13Z</time>
      </trkpt>
      <trkpt lat="45.12111" lon="6.1437">
        <ele>2541.1</ele>
        <time>2021-03-10T12:37:14Z</time>
      </trkpt>
      <trkpt lat="45.12114" lon="6.14378">
        <ele>2539</ele>
        <time>2021-03-10T12:37:15Z</time>
      </trkpt>
      <trkpt lat="45.12111" lon="6.14386">
        <ele>2536.4</ele>
        <time>2021-03-10T12:37:16Z</time>
      </trkpt>
      <trkpt lat="45.1211" lon="6.1439">
        <ele>2535.2</ele>
        <time>2021-03-10T12:37:17Z</time>
      </trkpt>
      <trkpt lat="45.12106" lon="6.14395">
        <ele>2533.6</ele>
        <time>2021-03-10T12:37:18Z</time>
      </trkpt>
      <trkpt lat="45.12111" lon="6.14407">
        <ele>2530.5</ele>
        <time>2021-03-10T12:37:19Z</time>
      </trkpt>
      <trkpt lat="45.12111" lon="6.14417">
        <ele>2528.3</ele>
        <time>2021-03-10T12:37:20Z</time>
      </trkpt>
      <trkpt lat="45.1211" lon="6.14426">
        <ele>2526.2</ele>
        <time>2021-03-10T12:37:21Z</time>
      </trkpt>
      <trkpt lat="45.12111" lon="6.14434">
        <ele>2524.1</ele>
        <time>2021-03-10T12:37:22Z</time>
      </trkpt>
      <trkpt lat="45.12113" lon="6.14443">
        <ele>2522.5</ele>
        <time>2021-03-10T12:37:23Z</time>
      </trkpt>
      <trkpt lat="45.12115" lon="6.14455">
        <ele>2519.8</ele>
        <time>2021-03-10T12:37:24Z</time>
      </trkpt>
      <trkpt lat="45.12116" lon="6.14459">
        <ele>2518.8</ele>
        <time>2021-03-10T12:37:25Z</time>
      </trkpt>
      <trkpt lat="45.12116" lon="6.14464">
        <ele>2517.7</ele>
        <time>2021-03-10T12:37:26Z</time>
      </trkpt>
      <trkpt lat="45.12115" lon="6.14469">
        <ele>2516.7</ele>
        <time>2021-03-10T12:37:27Z</time>
      </trkpt>
      <trkpt lat="45.12112" lon="6.14481">
        <ele>2512.8</ele>
        <time>2021-03-10T12:37:28Z</time>
      </trkpt>
      <trkpt lat="45.12109" lon="6.14485">
        <ele>2510.9</ele>
        <time>2021-03-10T12:37:29Z</time>
      </trkpt>
      <trkpt lat="45.12104" lon="6.1449">
        <ele>2508.3</ele>
        <time>2021-03-10T12:37:30Z</time>
      </trkpt>
      <trkpt lat="45.12098" lon="6.14492">
        <ele>2505.8</ele>
        <time>2021-03-10T12:37:31Z</time>
      </trkpt>
      <trkpt lat="45.12093" lon="6.14496">
        <ele>2505.1</ele>
        <time>2021-03-10T12:37:32Z</time>
      </trkpt>
      <trkpt lat="45.12089" lon="6.14499">
        <ele>2502.6</ele>
        <time>2021-03-10T12:37:33Z</time>
      </trkpt>
      <trkpt lat="45.12085" lon="6.14509">
        <ele>2499.7</ele>
        <time>2021-03-10T12:37:34Z</time>
      </trkpt>
      <trkpt lat="45.12079" lon="6.14512">
        <ele>2498.1</ele>
        <time>2021-03-10T12:37:35Z</time>
      </trkpt>
      <trkpt lat="45.12076" lon="6.14519">
        <ele>2496.2</ele>
        <time>2021-03-10T12:37:36Z</time>
      </trkpt>
      <trkpt lat="45.12072" lon="6.14524">
        <ele>2494.9</ele>
        <time>2021-03-10T12:37:37Z</time>
      </trkpt>
      <trkpt lat="45.12068" lon="6.14529">
        <ele>2493.1</ele>
        <time>2021-03-10T12:37:38Z</time>
      </trkpt>
      <trkpt lat="45.12065" lon="6.14534">
        <ele>2492</ele>
        <time>2021-03-10T12:37:39Z</time>
      </trkpt>
      <trkpt lat="45.12063" lon="6.14539">
        <ele>2491.5</ele>
        <time>2021-03-10T12:37:40Z</time>
      </trkpt>
      <trkpt lat="45.12059" lon="6.14543">
        <ele>2489.8</ele>
        <time>2021-03-10T12:37:41Z</time>
      </trkpt>
      <trkpt lat="45.12055" lon="6.14549">
        <ele>2488.5</ele>
        <time>2021-03-10T12:37:42Z</time>
      </trkpt>
      <trkpt lat="45.12053" lon="6.14556">
        <ele>2487.6</ele>
        <time>2021-03-10T12:37:43Z</time>
      </trkpt>
      <trkpt lat="45.12051" lon="6.14563">
        <ele>2486.4</ele>
        <time>2021-03-10T12:37:44Z</time>
      </trkpt>
      <trkpt lat="45.12048" lon="6.1457">
        <ele>2485.8</ele>
        <time>2021-03-10T12:37:45Z</time>
      </trkpt>
      <trkpt lat="45.12045" lon="6.14578">
        <ele>2484.6</ele>
        <time>2021-03-10T12:37:46Z</time>
      </trkpt>
      <trkpt lat="45.12042" lon="6.14586">
        <ele>2483.7</ele>
        <time>2021-03-10T12:37:47Z</time>
      </trkpt>
      <trkpt lat="45.12041" lon="6.14594">
        <ele>2482.5</ele>
        <time>2021-03-10T12:37:48Z</time>
      </trkpt>
      <trkpt lat="45.1204" lon="6.146">
        <ele>2481.9</ele>
        <time>2021-03-10T12:37:49Z</time>
      </trkpt>
      <trkpt lat="45.1204" lon="6.14605">
        <ele>2481.6</ele>
        <time>2021-03-10T12:37:50Z</time>
      </trkpt>
      <trkpt lat="45.12039" lon="6.14608">
        <ele>2481.3</ele>
        <time>2021-03-10T12:37:51Z</time>
      </trkpt>
      <trkpt lat="45.12039" lon="6.14607">
        <ele>2481.6</ele>
        <time>2021-03-10T12:37:52Z</time>
      </trkpt>
      <trkpt lat="45.12039" lon="6.14607">
        <ele>2481.6</ele>
        <time>2021-03-10T12:37:53Z</time>
      </trkpt>
      <trkpt lat="45.12039" lon="6.14607">
        <ele>2481.6</ele>
        <time>2021-03-10T12:37:54Z</time>
      </trkpt>
      <trkpt lat="45.12039" lon="6.14607">
        <ele>2481.6</ele>
        <time>2021-03-10T12:37:55Z</time>
      </trkpt>
      <trkpt lat="45.12039" lon="6.14607">
        <ele>2481.6</ele>
        <time>2021-03-10T12:37:56Z</time>
      </trkpt>
      <trkpt lat="45.12039" lon="6.14607">
        <ele>2481.6</ele>
        <time>2021-03-10T12:37:57Z</time>
      </trkpt>
      <trkpt lat="45.12039" lon="6.14607">
        <ele>2481.6</ele>
        <time>2021-03-10T12:37:58Z</time>
      </trkpt>
      <trkpt lat="45.12039" lon="6.14607">
        <ele>2481.6</ele>
        <time>2021-03-10T12:37:59Z</time>
      </trkpt>
      <trkpt lat="45.12039" lon="6.14607">
        <ele>2481.6</ele>
        <time>2021-03-10T12:38:00Z</time>
      </trkpt>
      <trkpt lat="45.12039" lon="6.14607">
        <ele>2481.6</ele>
        <time>2021-03-10T12:38:01Z</time>
      </trkpt>
      <trkpt lat="45.12039" lon="6.14607">
        <ele>2481.6</ele>
        <time>2021-03-10T12:38:02Z</time>
      </trkpt>
      <trkpt lat="45.12039" lon="6.14607">
        <ele>2481.6</ele>
        <time>2021-03-10T12:38:03Z</time>
      </trkpt>
      <trkpt lat="45.12033" lon="6.14616">
        <ele>2480.1</ele>
        <time>2021-03-10T12:38:08Z</time>
      </trkpt>
      <trkpt lat="45.12032" lon="6.1462">
        <ele>2479.3</ele>
        <time>2021-03-10T12:38:09Z</time>
      </trkpt>
      <trkpt lat="45.12031" lon="6.14621">
        <ele>2478.9</ele>
        <time>2021-03-10T12:38:10Z</time>
      </trkpt>
      <trkpt lat="45.12028" lon="6.14623">
        <ele>2478.4</ele>
        <time>2021-03-10T12:38:11Z</time>
      </trkpt>
      <trkpt lat="45.12027" lon="6.14623">
        <ele>2478.4</ele>
        <time>2021-03-10T12:38:12Z</time>
      </trkpt>
      <trkpt lat="45.12024" lon="6.14625">
        <ele>2477.9</ele>
        <time>2021-03-10T12:38:13Z</time>
      </trkpt>
      <trkpt lat="45.1202" lon="6.14627">
        <ele>2476.7</ele>
        <time>2021-03-10T12:38:14Z</time>
      </trkpt>
      <trkpt lat="45.12017" lon="6.1463">
        <ele>2476</ele>
        <time>2021-03-10T12:38:15Z</time>
      </trkpt>
      <trkpt lat="45.12013" lon="6.14634">
        <ele>2475.2</ele>
        <time>2021-03-10T12:38:16Z</time>
      </trkpt>
      <trkpt lat="45.12009" lon="6.14637">
        <ele>2474.9</ele>
        <time>2021-03-10T12:38:17Z</time>
      </trkpt>
      <trkpt lat="45.12005" lon="6.14639">
        <ele>2473.5</ele>
        <time>2021-03-10T12:38:18Z</time>
      </trkpt>
      <trkpt lat="45.12001" lon="6.1464">
        <ele>2473.2</ele>
        <time>2021-03-10T12:38:19Z</time>
      </trkpt>
      <trkpt lat="45.11998" lon="6.14642">
        <ele>2472.3</ele>
        <time>2021-03-10T12:38:20Z</time>
      </trkpt>
      <trkpt lat="45.11995" lon="6.14644">
        <ele>2472</ele>
        <time>2021-03-10T12:38:21Z</time>
      </trkpt>
      <trkpt lat="45.11992" lon="6.14644">
        <ele>2471.8</ele>
        <time>2021-03-10T12:38:22Z</time>
      </trkpt>
      <trkpt lat="45.11989" lon="6.14645">
        <ele>2471.5</ele>
        <time>2021-03-10T12:38:23Z</time>
      </trkpt>
      <trkpt lat="45.11987" lon="6.1465">
        <ele>2470.6</ele>
        <time>2021-03-10T12:38:24Z</time>
      </trkpt>
      <trkpt lat="45.11987" lon="6.14652">
        <ele>2470</ele>
        <time>2021-03-10T12:38:25Z</time>
      </trkpt>
      <trkpt lat="45.11988" lon="6.14657">
        <ele>2469.7</ele>
        <time>2021-03-10T12:38:26Z</time>
      </trkpt>
      <trkpt lat="45.11988" lon="6.14659">
        <ele>2469.7</ele>
        <time>2021-03-10T12:38:27Z</time>
      </trkpt>
      <trkpt lat="45.11987" lon="6.14664">
        <ele>2468</ele>
        <time>2021-03-10T12:38:28Z</time>
      </trkpt>
      <trkpt lat="45.11986" lon="6.14669">
        <ele>2467.2</ele>
        <time>2021-03-10T12:38:29Z</time>
      </trkpt>
      <trkpt lat="45.11983" lon="6.14673">
        <ele>2466.1</ele>
        <time>2021-03-10T12:38:30Z</time>
      </trkpt>
      <trkpt lat="45.1198" lon="6.14676">
        <ele>2465.9</ele>
        <time>2021-03-10T12:38:31Z</time>
      </trkpt>
      <trkpt lat="45.11971" lon="6.14677">
        <ele>2464</ele>
        <time>2021-03-10T12:38:32Z</time>
      </trkpt>
      <trkpt lat="45.11967" lon="6.14682">
        <ele>2462.8</ele>
        <time>2021-03-10T12:38:33Z</time>
      </trkpt>
      <trkpt lat="45.11962" lon="6.14691">
        <ele>2460.2</ele>
        <time>2021-03-10T12:38:34Z</time>
      </trkpt>
      <trkpt lat="45.11958" lon="6.14696">
        <ele>2458.8</ele>
        <time>2021-03-10T12:38:35Z</time>
      </trkpt>
      <trkpt lat="45.11955" lon="6.14704">
        <ele>2456.3</ele>
        <time>2021-03-10T12:38:36Z</time>
      </trkpt>
      <trkpt lat="45.11952" lon="6.14711">
        <ele>2454.7</ele>
        <time>2021-03-10T12:38:37Z</time>
      </trkpt>
      <trkpt lat="45.11953" lon="6.1472">
        <ele>2451</ele>
        <time>2021-03-10T12:38:38Z</time>
      </trkpt>
      <trkpt lat="45.11953" lon="6.14727">
        <ele>2449.8</ele>
        <time>2021-03-10T12:38:39Z</time>
      </trkpt>
      <trkpt lat="45.11951" lon="6.14733">
        <ele>2447.5</ele>
        <time>2021-03-10T12:38:40Z</time>
      </trkpt>
      <trkpt lat="45.11947" lon="6.14733">
        <ele>2446.5</ele>
        <time>2021-03-10T12:38:41Z</time>
      </trkpt>
      <trkpt lat="45.11942" lon="6.14735">
        <ele>2446</ele>
        <time>2021-03-10T12:38:42Z</time>
      </trkpt>
      <trkpt lat="45.11941" lon="6.14741">
        <ele>2444.4</ele>
        <time>2021-03-10T12:38:43Z</time>
      </trkpt>
      <trkpt lat="45.11945" lon="6.1475">
        <ele>2441.9</ele>
        <time>2021-03-10T12:38:44Z</time>
      </trkpt>
      <trkpt lat="45.11943" lon="6.14755">
        <ele>2440.1</ele>
        <time>2021-03-10T12:38:45Z</time>
      </trkpt>
      <trkpt lat="45.11941" lon="6.14761">
        <ele>2438.3</ele>
        <time>2021-03-10T12:38:46Z</time>
      </trkpt>
      <trkpt lat="45.11938" lon="6.14763">
        <ele>2436.6</ele>
        <time>2021-03-10T12:38:47Z</time>
      </trkpt>
      <trkpt lat="45.11933" lon="6.14761">
        <ele>2437.4</ele>
        <time>2021-03-10T12:38:48Z</time>
      </trkpt>
      <trkpt lat="45.11925" lon="6.14762">
        <ele>2435.9</ele>
        <time>2021-03-10T12:38:49Z</time>
      </trkpt>
      <trkpt lat="45.11921" lon="6.14759">
        <ele>2435.4</ele>
        <time>2021-03-10T12:38:50Z</time>
      </trkpt>
      <trkpt lat="45.11917" lon="6.14758">
        <ele>2434.5</ele>
        <time>2021-03-10T12:38:51Z</time>
      </trkpt>
      <trkpt lat="45.11911" lon="6.14759">
        <ele>2433.6</ele>
        <time>2021-03-10T12:38:52Z</time>
      </trkpt>
      <trkpt lat="45.11907" lon="6.14761">
        <ele>2433.1</ele>
        <time>2021-03-10T12:38:53Z</time>
      </trkpt>
      <trkpt lat="45.11904" lon="6.14764">
        <ele>2431.4</ele>
        <time>2021-03-10T12:38:54Z</time>
      </trkpt>
      <trkpt lat="45.11901" lon="6.14768">
        <ele>2429.6</ele>
        <time>2021-03-10T12:38:55Z</time>
      </trkpt>
      <trkpt lat="45.11899" lon="6.14771">
        <ele>2429.2</ele>
        <time>2021-03-10T12:38:56Z</time>
      </trkpt>
      <trkpt lat="45.11898" lon="6.14771">
        <ele>2427.9</ele>
        <time>2021-03-10T12:38:57Z</time>
      </trkpt>
      <trkpt lat="45.11898" lon="6.14772">
        <ele>2427.9</ele>
        <time>2021-03-10T12:38:58Z</time>
      </trkpt>
      <trkpt lat="45.11899" lon="6.14771">
        <ele>2427.9</ele>
        <time>2021-03-10T12:38:59Z</time>
      </trkpt>
      <trkpt lat="45.119" lon="6.14771">
        <ele>2429.6</ele>
        <time>2021-03-10T12:39:00Z</time>
      </trkpt>
      <trkpt lat="45.11901" lon="6.1477">
        <ele>2429.6</ele>
        <time>2021-03-10T12:39:01Z</time>
      </trkpt>
      <trkpt lat="45.11901" lon="6.1477">
        <ele>2429.6</ele>
        <time>2021-03-10T12:39:02Z</time>
      </trkpt>
      <trkpt lat="45.11902" lon="6.1477">
        <ele>2429.6</ele>
        <time>2021-03-10T12:39:03Z</time>
      </trkpt>
      <trkpt lat="45.11903" lon="6.14769">
        <ele>2430.1</ele>
        <time>2021-03-10T12:39:04Z</time>
      </trkpt>
      <trkpt lat="45.11904" lon="6.1477">
        <ele>2430.1</ele>
        <time>2021-03-10T12:39:05Z</time>
      </trkpt>
      <trkpt lat="45.11906" lon="6.14772">
        <ele>2429.3</ele>
        <time>2021-03-10T12:39:06Z</time>
      </trkpt>
      <trkpt lat="45.11908" lon="6.14773">
        <ele>2429.3</ele>
        <time>2021-03-10T12:39:07Z</time>
      </trkpt>
      <trkpt lat="45.1191" lon="6.14775">
        <ele>2429.8</ele>
        <time>2021-03-10T12:39:08Z</time>
      </trkpt>
      <trkpt lat="45.11912" lon="6.14776">
        <ele>2429.2</ele>
        <time>2021-03-10T12:39:09Z</time>
      </trkpt>
      <trkpt lat="45.11914" lon="6.14777">
        <ele>2429.2</ele>
        <time>2021-03-10T12:39:30Z</time>
      </trkpt>
      <trkpt lat="45.11915" lon="6.14779">
        <ele>2429.7</ele>
        <time>2021-03-10T12:39:31Z</time>
      </trkpt>
      <trkpt lat="45.1192" lon="6.14785">
        <ele>2428.1</ele>
        <time>2021-03-10T12:39:32Z</time>
      </trkpt>
      <trkpt lat="45.11923" lon="6.14789">
        <ele>2427.5</ele>
        <time>2021-03-10T12:39:33Z</time>
      </trkpt>
      <trkpt lat="45.11924" lon="6.14793">
        <ele>2426.8</ele>
        <time>2021-03-10T12:39:34Z</time>
      </trkpt>
      <trkpt lat="45.11924" lon="6.148">
        <ele>2425.4</ele>
        <time>2021-03-10T12:39:35Z</time>
      </trkpt>
      <trkpt lat="45.11922" lon="6.14806">
        <ele>2422.1</ele>
        <time>2021-03-10T12:39:36Z</time>
      </trkpt>
      <trkpt lat="45.1192" lon="6.14809">
        <ele>2421.6</ele>
        <time>2021-03-10T12:39:37Z</time>
      </trkpt>
      <trkpt lat="45.11917" lon="6.14811">
        <ele>2419.7</ele>
        <time>2021-03-10T12:39:38Z</time>
      </trkpt>
      <trkpt lat="45.11913" lon="6.14813">
        <ele>2419.3</ele>
        <time>2021-03-10T12:39:39Z</time>
      </trkpt>
      <trkpt lat="45.11893" lon="6.14802">
        <ele>2418.2</ele>
        <time>2021-03-10T12:39:40Z</time>
      </trkpt>
      <trkpt lat="45.1189" lon="6.14802">
        <ele>2417.6</ele>
        <time>2021-03-10T12:39:41Z</time>
      </trkpt>
      <trkpt lat="45.11883" lon="6.14803">
        <ele>2416.5</ele>
        <time>2021-03-10T12:39:42Z</time>
      </trkpt>
      <trkpt lat="45.11876" lon="6.14803">
        <ele>2415.6</ele>
        <time>2021-03-10T12:39:43Z</time>
      </trkpt>
      <trkpt lat="45.11872" lon="6.14801">
        <ele>2414.8</ele>
        <time>2021-03-10T12:39:44Z</time>
      </trkpt>
      <trkpt lat="45.11867" lon="6.14802">
        <ele>2414.6</ele>
        <time>2021-03-10T12:39:45Z</time>
      </trkpt>
      <trkpt lat="45.1186" lon="6.14807">
        <ele>2412.6</ele>
        <time>2021-03-10T12:39:46Z</time>
      </trkpt>
      <trkpt lat="45.11853" lon="6.1481">
        <ele>2410.8</ele>
        <time>2021-03-10T12:39:47Z</time>
      </trkpt>
      <trkpt lat="45.1185" lon="6.14812">
        <ele>2410.9</ele>
        <time>2021-03-10T12:39:48Z</time>
      </trkpt>
      <trkpt lat="45.11844" lon="6.14814">
        <ele>2411.3</ele>
        <time>2021-03-10T12:39:49Z</time>
      </trkpt>
      <trkpt lat="45.1184" lon="6.14816">
        <ele>2409.8</ele>
        <time>2021-03-10T12:39:50Z</time>
      </trkpt>
      <trkpt lat="45.11835" lon="6.14817">
        <ele>2410.6</ele>
        <time>2021-03-10T12:39:51Z</time>
      </trkpt>
      <trkpt lat="45.11832" lon="6.14819">
        <ele>2409.4</ele>
        <time>2021-03-10T12:39:52Z</time>
      </trkpt>
      <trkpt lat="45.11828" lon="6.14821">
        <ele>2409.9</ele>
        <time>2021-03-10T12:39:53Z</time>
      </trkpt>
      <trkpt lat="45.11823" lon="6.14825">
        <ele>2409.2</ele>
        <time>2021-03-10T12:39:54Z</time>
      </trkpt>
      <trkpt lat="45.11819" lon="6.14828">
        <ele>2408.1</ele>
        <time>2021-03-10T12:39:55Z</time>
      </trkpt>
      <trkpt lat="45.11813" lon="6.14835">
        <ele>2407.7</ele>
        <time>2021-03-10T12:39:56Z</time>
      </trkpt>
      <trkpt lat="45.11808" lon="6.1484">
        <ele>2405.5</ele>
        <time>2021-03-10T12:39:57Z</time>
      </trkpt>
      <trkpt lat="45.11804" lon="6.14845">
        <ele>2404.4</ele>
        <time>2021-03-10T12:39:58Z</time>
      </trkpt>
      <trkpt lat="45.118" lon="6.1485">
        <ele>2403.5</ele>
        <time>2021-03-10T12:39:59Z</time>
      </trkpt>
      <trkpt lat="45.11797" lon="6.14855">
        <ele>2402.5</ele>
        <time>2021-03-10T12:40:00Z</time>
      </trkpt>
      <trkpt lat="45.11794" lon="6.14857">
        <ele>2401.7</ele>
        <time>2021-03-10T12:40:01Z</time>
      </trkpt>
      <trkpt lat="45.11792" lon="6.14861">
        <ele>2402.8</ele>
        <time>2021-03-10T12:40:02Z</time>
      </trkpt>
      <trkpt lat="45.1179" lon="6.14865">
        <ele>2402.1</ele>
        <time>2021-03-10T12:40:03Z</time>
      </trkpt>
      <trkpt lat="45.11788" lon="6.14868">
        <ele>2400.3</ele>
        <time>2021-03-10T12:40:04Z</time>
      </trkpt>
      <trkpt lat="45.11786" lon="6.14871">
        <ele>2399.7</ele>
        <time>2021-03-10T12:40:05Z</time>
      </trkpt>
      <trkpt lat="45.11784" lon="6.14874">
        <ele>2399.3</ele>
        <time>2021-03-10T12:40:06Z</time>
      </trkpt>
      <trkpt lat="45.11782" lon="6.14877">
        <ele>2399.3</ele>
        <time>2021-03-10T12:40:07Z</time>
      </trkpt>
      <trkpt lat="45.11779" lon="6.14881">
        <ele>2399</ele>
        <time>2021-03-10T12:40:08Z</time>
      </trkpt>
      <trkpt lat="45.11778" lon="6.14882">
        <ele>2400.4</ele>
        <time>2021-03-10T12:40:09Z</time>
      </trkpt>
      <trkpt lat="45.11776" lon="6.14885">
        <ele>2398.6</ele>
        <time>2021-03-10T12:40:10Z</time>
      </trkpt>
      <trkpt lat="45.11775" lon="6.14886">
        <ele>2398.6</ele>
        <time>2021-03-10T12:40:11Z</time>
      </trkpt>
      <trkpt lat="45.11774" lon="6.14889">
        <ele>2398.3</ele>
        <time>2021-03-10T12:40:12Z</time>
      </trkpt>
      <trkpt lat="45.11773" lon="6.1489">
        <ele>2398.3</ele>
        <time>2021-03-10T12:40:13Z</time>
      </trkpt>
      <trkpt lat="45.11772" lon="6.14892">
        <ele>2397.9</ele>
        <time>2021-03-10T12:40:14Z</time>
      </trkpt>
      <trkpt lat="45.11771" lon="6.14894">
        <ele>2397.9</ele>
        <time>2021-03-10T12:40:15Z</time>
      </trkpt>
      <trkpt lat="45.11769" lon="6.14895">
        <ele>2397.9</ele>
        <time>2021-03-10T12:40:16Z</time>
      </trkpt>
      <trkpt lat="45.11768" lon="6.14897">
        <ele>2397.5</ele>
        <time>2021-03-10T12:40:17Z</time>
      </trkpt>
      <trkpt lat="45.11766" lon="6.14899">
        <ele>2397.5</ele>
        <time>2021-03-10T12:40:18Z</time>
      </trkpt>
      <trkpt lat="45.11765" lon="6.149">
        <ele>2397.2</ele>
        <time>2021-03-10T12:40:19Z</time>
      </trkpt>
      <trkpt lat="45.11763" lon="6.14901">
        <ele>2397.2</ele>
        <time>2021-03-10T12:40:20Z</time>
      </trkpt>
      <trkpt lat="45.11763" lon="6.14902">
        <ele>2398.6</ele>
        <time>2021-03-10T12:40:21Z</time>
      </trkpt>
      <trkpt lat="45.11762" lon="6.14903">
        <ele>2398.6</ele>
        <time>2021-03-10T12:40:22Z</time>
      </trkpt>
      <trkpt lat="45.11761" lon="6.14904">
        <ele>2398.6</ele>
        <time>2021-03-10T12:40:23Z</time>
      </trkpt>
      <trkpt lat="45.1176" lon="6.14905">
        <ele>2398.4</ele>
        <time>2021-03-10T12:40:24Z</time>
      </trkpt>
      <trkpt lat="45.11758" lon="6.14907">
        <ele>2398.4</ele>
        <time>2021-03-10T12:40:25Z</time>
      </trkpt>
      <trkpt lat="45.11757" lon="6.14908">
        <ele>2398.3</ele>
        <time>2021-03-10T12:40:26Z</time>
      </trkpt>
      <trkpt lat="45.11755" lon="6.14911">
        <ele>2398.3</ele>
        <time>2021-03-10T12:40:27Z</time>
      </trkpt>
      <trkpt lat="45.11752" lon="6.14915">
        <ele>2398.3</ele>
        <time>2021-03-10T12:40:28Z</time>
      </trkpt>
      <trkpt lat="45.1175" lon="6.14919">
        <ele>2398.3</ele>
        <time>2021-03-10T12:40:29Z</time>
      </trkpt>
      <trkpt lat="45.11747" lon="6.14923">
        <ele>2398.3</ele>
        <time>2021-03-10T12:40:30Z</time>
      </trkpt>
      <trkpt lat="45.11744" lon="6.14928">
        <ele>2398</ele>
        <time>2021-03-10T12:40:31Z</time>
      </trkpt>
      <trkpt lat="45.11741" lon="6.14933">
        <ele>2397.6</ele>
        <time>2021-03-10T12:40:32Z</time>
      </trkpt>
      <trkpt lat="45.11739" lon="6.14937">
        <ele>2396</ele>
        <time>2021-03-10T12:40:33Z</time>
      </trkpt>
      <trkpt lat="45.11738" lon="6.1494">
        <ele>2395.5</ele>
        <time>2021-03-10T12:40:34Z</time>
      </trkpt>
      <trkpt lat="45.11736" lon="6.14944">
        <ele>2393.9</ele>
        <time>2021-03-10T12:40:35Z</time>
      </trkpt>
      <trkpt lat="45.11735" lon="6.14947">
        <ele>2393.5</ele>
        <time>2021-03-10T12:40:36Z</time>
      </trkpt>
      <trkpt lat="45.11734" lon="6.1495">
        <ele>2393.5</ele>
        <time>2021-03-10T12:40:37Z</time>
      </trkpt>
      <trkpt lat="45.11731" lon="6.14955">
        <ele>2393.3</ele>
        <time>2021-03-10T12:40:38Z</time>
      </trkpt>
      <trkpt lat="45.11731" lon="6.14956">
        <ele>2391.9</ele>
        <time>2021-03-10T12:40:39Z</time>
      </trkpt>
      <trkpt lat="45.11729" lon="6.14959">
        <ele>2393.3</ele>
        <time>2021-03-10T12:40:40Z</time>
      </trkpt>
      <trkpt lat="45.11727" lon="6.14962">
        <ele>2391.9</ele>
        <time>2021-03-10T12:40:41Z</time>
      </trkpt>
      <trkpt lat="45.11724" lon="6.14966">
        <ele>2391.9</ele>
        <time>2021-03-10T12:40:42Z</time>
      </trkpt>
      <trkpt lat="45.11723" lon="6.14967">
        <ele>2393.3</ele>
        <time>2021-03-10T12:40:43Z</time>
      </trkpt>
      <trkpt lat="45.11721" lon="6.1497">
        <ele>2391.9</ele>
        <time>2021-03-10T12:40:44Z</time>
      </trkpt>
      <trkpt lat="45.1172" lon="6.1497">
        <ele>2393.3</ele>
        <time>2021-03-10T12:40:45Z</time>
      </trkpt>
      <trkpt lat="45.11719" lon="6.14972">
        <ele>2393.3</ele>
        <time>2021-03-10T12:40:46Z</time>
      </trkpt>
      <trkpt lat="45.11717" lon="6.14974">
        <ele>2393</ele>
        <time>2021-03-10T12:40:47Z</time>
      </trkpt>
      <trkpt lat="45.11716" lon="6.14975">
        <ele>2393</ele>
        <time>2021-03-10T12:40:48Z</time>
      </trkpt>
      <trkpt lat="45.11715" lon="6.14976">
        <ele>2394.3</ele>
        <time>2021-03-10T12:40:49Z</time>
      </trkpt>
      <trkpt lat="45.11712" lon="6.14979">
        <ele>2392.7</ele>
        <time>2021-03-10T12:40:50Z</time>
      </trkpt>
      <trkpt lat="45.11711" lon="6.1498">
        <ele>2394</ele>
        <time>2021-03-10T12:40:51Z</time>
      </trkpt>
      <trkpt lat="45.11708" lon="6.14984">
        <ele>2393.7</ele>
        <time>2021-03-10T12:40:52Z</time>
      </trkpt>
      <trkpt lat="45.11707" lon="6.14985">
        <ele>2393.7</ele>
        <time>2021-03-10T12:40:53Z</time>
      </trkpt>
      <trkpt lat="45.11705" lon="6.14987">
        <ele>2393.5</ele>
        <time>2021-03-10T12:40:54Z</time>
      </trkpt>
      <trkpt lat="45.11703" lon="6.1499">
        <ele>2393.5</ele>
        <time>2021-03-10T12:40:55Z</time>
      </trkpt>
      <trkpt lat="45.117" lon="6.14993">
        <ele>2393.4</ele>
        <time>2021-03-10T12:40:56Z</time>
      </trkpt>
      <trkpt lat="45.11698" lon="6.14996">
        <ele>2393.3</ele>
        <time>2021-03-10T12:40:57Z</time>
      </trkpt>
      <trkpt lat="45.11695" lon="6.14999">
        <ele>2393.4</ele>
        <time>2021-03-10T12:40:58Z</time>
      </trkpt>
      <trkpt lat="45.11692" lon="6.15002">
        <ele>2394.9</ele>
        <time>2021-03-10T12:40:59Z</time>
      </trkpt>
      <trkpt lat="45.11689" lon="6.15006">
        <ele>2395</ele>
        <time>2021-03-10T12:41:00Z</time>
      </trkpt>
      <trkpt lat="45.11686" lon="6.1501">
        <ele>2394.9</ele>
        <time>2021-03-10T12:41:01Z</time>
      </trkpt>
      <trkpt lat="45.11684" lon="6.15014">
        <ele>2394.8</ele>
        <time>2021-03-10T12:41:02Z</time>
      </trkpt>
      <trkpt lat="45.11681" lon="6.15018">
        <ele>2394.6</ele>
        <time>2021-03-10T12:41:03Z</time>
      </trkpt>
      <trkpt lat="45.11678" lon="6.15022">
        <ele>2394.3</ele>
        <time>2021-03-10T12:41:04Z</time>
      </trkpt>
      <trkpt lat="45.11676" lon="6.15027">
        <ele>2392.5</ele>
        <time>2021-03-10T12:41:05Z</time>
      </trkpt>
      <trkpt lat="45.11673" lon="6.15031">
        <ele>2392.3</ele>
        <time>2021-03-10T12:41:06Z</time>
      </trkpt>
      <trkpt lat="45.1167" lon="6.15036">
        <ele>2392.2</ele>
        <time>2021-03-10T12:41:07Z</time>
      </trkpt>
      <trkpt lat="45.11667" lon="6.1504">
        <ele>2392.2</ele>
        <time>2021-03-10T12:41:08Z</time>
      </trkpt>
      <trkpt lat="45.11664" lon="6.15046">
        <ele>2392.3</ele>
        <time>2021-03-10T12:41:09Z</time>
      </trkpt>
      <trkpt lat="45.11661" lon="6.1505">
        <ele>2390.5</ele>
        <time>2021-03-10T12:41:10Z</time>
      </trkpt>
      <trkpt lat="45.11658" lon="6.15054">
        <ele>2390.3</ele>
        <time>2021-03-10T12:41:11Z</time>
      </trkpt>
      <trkpt lat="45.11654" lon="6.15059">
        <ele>2389.9</ele>
        <time>2021-03-10T12:41:12Z</time>
      </trkpt>
      <trkpt lat="45.11651" lon="6.15065">
        <ele>2391</ele>
        <time>2021-03-10T12:41:13Z</time>
      </trkpt>
      <trkpt lat="45.11648" lon="6.1507">
        <ele>2390.6</ele>
        <time>2021-03-10T12:41:14Z</time>
      </trkpt>
      <trkpt lat="45.11646" lon="6.15075">
        <ele>2388.6</ele>
        <time>2021-03-10T12:41:15Z</time>
      </trkpt>
      <trkpt lat="45.11644" lon="6.15079">
        <ele>2388.3</ele>
        <time>2021-03-10T12:41:16Z</time>
      </trkpt>
      <trkpt lat="45.11642" lon="6.15084">
        <ele>2386.3</ele>
        <time>2021-03-10T12:41:17Z</time>
      </trkpt>
      <trkpt lat="45.11641" lon="6.15089">
        <ele>2384.2</ele>
        <time>2021-03-10T12:41:18Z</time>
      </trkpt>
      <trkpt lat="45.11639" lon="6.15093">
        <ele>2385.9</ele>
        <time>2021-03-10T12:41:19Z</time>
      </trkpt>
      <trkpt lat="45.11637" lon="6.15097">
        <ele>2382.3</ele>
        <time>2021-03-10T12:41:20Z</time>
      </trkpt>
      <trkpt lat="45.11635" lon="6.15101">
        <ele>2383.9</ele>
        <time>2021-03-10T12:41:21Z</time>
      </trkpt>
      <trkpt lat="45.11633" lon="6.15104">
        <ele>2382.2</ele>
        <time>2021-03-10T12:41:22Z</time>
      </trkpt>
      <trkpt lat="45.11632" lon="6.15108">
        <ele>2381.9</ele>
        <time>2021-03-10T12:41:23Z</time>
      </trkpt>
      <trkpt lat="45.1163" lon="6.15111">
        <ele>2381.4</ele>
        <time>2021-03-10T12:41:24Z</time>
      </trkpt>
      <trkpt lat="45.11628" lon="6.15114">
        <ele>2381.4</ele>
        <time>2021-03-10T12:41:25Z</time>
      </trkpt>
      <trkpt lat="45.11626" lon="6.15117">
        <ele>2380.8</ele>
        <time>2021-03-10T12:41:26Z</time>
      </trkpt>
      <trkpt lat="45.11623" lon="6.15121">
        <ele>2380.3</ele>
        <time>2021-03-10T12:41:27Z</time>
      </trkpt>
      <trkpt lat="45.11622" lon="6.15122">
        <ele>2380.3</ele>
        <time>2021-03-10T12:41:28Z</time>
      </trkpt>
      <trkpt lat="45.11619" lon="6.15126">
        <ele>2379.8</ele>
        <time>2021-03-10T12:41:29Z</time>
      </trkpt>
      <trkpt lat="45.11619" lon="6.15127">
        <ele>2379.8</ele>
        <time>2021-03-10T12:41:30Z</time>
      </trkpt>
      <trkpt lat="45.11616" lon="6.15131">
        <ele>2379.4</ele>
        <time>2021-03-10T12:41:31Z</time>
      </trkpt>
      <trkpt lat="45.11615" lon="6.15132">
        <ele>2377.7</ele>
        <time>2021-03-10T12:41:32Z</time>
      </trkpt>
      <trkpt lat="45.11612" lon="6.15136">
        <ele>2377.6</ele>
        <time>2021-03-10T12:41:33Z</time>
      </trkpt>
      <trkpt lat="45.11612" lon="6.15137">
        <ele>2379</ele>
        <time>2021-03-10T12:41:34Z</time>
      </trkpt>
      <trkpt lat="45.11609" lon="6.15141">
        <ele>2377.5</ele>
        <time>2021-03-10T12:41:35Z</time>
      </trkpt>
      <trkpt lat="45.11608" lon="6.15142">
        <ele>2379</ele>
        <time>2021-03-10T12:41:36Z</time>
      </trkpt>
      <trkpt lat="45.11607" lon="6.15145">
        <ele>2377.4</ele>
        <time>2021-03-10T12:41:37Z</time>
      </trkpt>
      <trkpt lat="45.11605" lon="6.15149">
        <ele>2377.4</ele>
        <time>2021-03-10T12:41:38Z</time>
      </trkpt>
      <trkpt lat="45.11603" lon="6.15153">
        <ele>2375.9</ele>
        <time>2021-03-10T12:41:39Z</time>
      </trkpt>
      <trkpt lat="45.11602" lon="6.15155">
        <ele>2377.3</ele>
        <time>2021-03-10T12:41:40Z</time>
      </trkpt>
      <trkpt lat="45.11601" lon="6.15158">
        <ele>2375.8</ele>
        <time>2021-03-10T12:41:41Z</time>
      </trkpt>
      <trkpt lat="45.116" lon="6.15159">
        <ele>2375.8</ele>
        <time>2021-03-10T12:41:42Z</time>
      </trkpt>
      <trkpt lat="45.11598" lon="6.15163">
        <ele>2375.6</ele>
        <time>2021-03-10T12:41:43Z</time>
      </trkpt>
      <trkpt lat="45.11597" lon="6.15164">
        <ele>2375.6</ele>
        <time>2021-03-10T12:41:44Z</time>
      </trkpt>
      <trkpt lat="45.11595" lon="6.15167">
        <ele>2375.3</ele>
        <time>2021-03-10T12:41:45Z</time>
      </trkpt>
      <trkpt lat="45.11594" lon="6.15169">
        <ele>2375.3</ele>
        <time>2021-03-10T12:41:46Z</time>
      </trkpt>
      <trkpt lat="45.11592" lon="6.15173">
        <ele>2375.1</ele>
        <time>2021-03-10T12:41:47Z</time>
      </trkpt>
      <trkpt lat="45.11591" lon="6.15175">
        <ele>2373.7</ele>
        <time>2021-03-10T12:41:48Z</time>
      </trkpt>
      <trkpt lat="45.11589" lon="6.15178">
        <ele>2375</ele>
        <time>2021-03-10T12:41:49Z</time>
      </trkpt>
      <trkpt lat="45.11586" lon="6.15182">
        <ele>2375</ele>
        <time>2021-03-10T12:41:50Z</time>
      </trkpt>
      <trkpt lat="45.11584" lon="6.15186">
        <ele>2375.2</ele>
        <time>2021-03-10T12:41:51Z</time>
      </trkpt>
      <trkpt lat="45.11581" lon="6.15191">
        <ele>2375.5</ele>
        <time>2021-03-10T12:41:52Z</time>
      </trkpt>
      <trkpt lat="45.11577" lon="6.15198">
        <ele>2374.5</ele>
        <time>2021-03-10T12:41:53Z</time>
      </trkpt>
      <trkpt lat="45.11574" lon="6.15203">
        <ele>2374.6</ele>
        <time>2021-03-10T12:41:54Z</time>
      </trkpt>
      <trkpt lat="45.11572" lon="6.15208">
        <ele>2374.6</ele>
        <time>2021-03-10T12:41:55Z</time>
      </trkpt>
      <trkpt lat="45.1157" lon="6.15212">
        <ele>2373.4</ele>
        <time>2021-03-10T12:41:56Z</time>
      </trkpt>
      <trkpt lat="45.11567" lon="6.15217">
        <ele>2372.3</ele>
        <time>2021-03-10T12:41:57Z</time>
      </trkpt>
      <trkpt lat="45.11565" lon="6.15222">
        <ele>2372.5</ele>
        <time>2021-03-10T12:41:58Z</time>
      </trkpt>
      <trkpt lat="45.11563" lon="6.15227">
        <ele>2371.5</ele>
        <time>2021-03-10T12:41:59Z</time>
      </trkpt>
      <trkpt lat="45.11562" lon="6.1523">
        <ele>2371.8</ele>
        <time>2021-03-10T12:42:00Z</time>
      </trkpt>
      <trkpt lat="45.1156" lon="6.15236">
        <ele>2370.4</ele>
        <time>2021-03-10T12:42:01Z</time>
      </trkpt>
      <trkpt lat="45.11559" lon="6.1524">
        <ele>2370.8</ele>
        <time>2021-03-10T12:42:02Z</time>
      </trkpt>
      <trkpt lat="45.11557" lon="6.15245">
        <ele>2369.9</ele>
        <time>2021-03-10T12:42:03Z</time>
      </trkpt>
      <trkpt lat="45.11556" lon="6.1525">
        <ele>2370.2</ele>
        <time>2021-03-10T12:42:04Z</time>
      </trkpt>
      <trkpt lat="45.11555" lon="6.15255">
        <ele>2369.3</ele>
        <time>2021-03-10T12:42:05Z</time>
      </trkpt>
      <trkpt lat="45.11554" lon="6.15259">
        <ele>2369.6</ele>
        <time>2021-03-10T12:42:06Z</time>
      </trkpt>
      <trkpt lat="45.11553" lon="6.15263">
        <ele>2368.8</ele>
        <time>2021-03-10T12:42:07Z</time>
      </trkpt>
      <trkpt lat="45.11552" lon="6.15267">
        <ele>2368.1</ele>
        <time>2021-03-10T12:42:08Z</time>
      </trkpt>
      <trkpt lat="45.11551" lon="6.15271">
        <ele>2368.6</ele>
        <time>2021-03-10T12:42:09Z</time>
      </trkpt>
      <trkpt lat="45.1155" lon="6.15275">
        <ele>2368</ele>
        <time>2021-03-10T12:42:10Z</time>
      </trkpt>
      <trkpt lat="45.11549" lon="6.1528">
        <ele>2367.4</ele>
        <time>2021-03-10T12:42:11Z</time>
      </trkpt>
      <trkpt lat="45.11548" lon="6.15284">
        <ele>2366.8</ele>
        <time>2021-03-10T12:42:12Z</time>
      </trkpt>
      <trkpt lat="45.11547" lon="6.15289">
        <ele>2367.2</ele>
        <time>2021-03-10T12:42:13Z</time>
      </trkpt>
      <trkpt lat="45.11547" lon="6.15294">
        <ele>2366.6</ele>
        <time>2021-03-10T12:42:14Z</time>
      </trkpt>
      <trkpt lat="45.11546" lon="6.15298">
        <ele>2365.9</ele>
        <time>2021-03-10T12:42:15Z</time>
      </trkpt>
      <trkpt lat="45.11546" lon="6.15304">
        <ele>2364.5</ele>
        <time>2021-03-10T12:42:16Z</time>
      </trkpt>
      <trkpt lat="45.11547" lon="6.15309">
        <ele>2363.8</ele>
        <time>2021-03-10T12:42:17Z</time>
      </trkpt>
      <trkpt lat="45.11547" lon="6.15314">
        <ele>2363.1</ele>
        <time>2021-03-10T12:42:18Z</time>
      </trkpt>
      <trkpt lat="45.11547" lon="6.15318">
        <ele>2362.5</ele>
        <time>2021-03-10T12:42:19Z</time>
      </trkpt>
      <trkpt lat="45.11548" lon="6.15323">
        <ele>2361.8</ele>
        <time>2021-03-10T12:42:20Z</time>
      </trkpt>
      <trkpt lat="45.11548" lon="6.15325">
        <ele>2360.2</ele>
        <time>2021-03-10T12:42:21Z</time>
      </trkpt>
      <trkpt lat="45.11549" lon="6.15329">
        <ele>2359.2</ele>
        <time>2021-03-10T12:42:22Z</time>
      </trkpt>
      <trkpt lat="45.11549" lon="6.15331">
        <ele>2359</ele>
        <time>2021-03-10T12:42:23Z</time>
      </trkpt>
      <trkpt lat="45.1155" lon="6.15334">
        <ele>2358</ele>
        <time>2021-03-10T12:42:24Z</time>
      </trkpt>
      <trkpt lat="45.11551" lon="6.15336">
        <ele>2357.8</ele>
        <time>2021-03-10T12:42:25Z</time>
      </trkpt>
      <trkpt lat="45.11552" lon="6.15339">
        <ele>2356.1</ele>
        <time>2021-03-10T12:42:26Z</time>
      </trkpt>
      <trkpt lat="45.11552" lon="6.1534">
        <ele>2355.9</ele>
        <time>2021-03-10T12:42:27Z</time>
      </trkpt>
      <trkpt lat="45.11553" lon="6.15343">
        <ele>2354.9</ele>
        <time>2021-03-10T12:42:28Z</time>
      </trkpt>
      <trkpt lat="45.11554" lon="6.15345">
        <ele>2354.7</ele>
        <time>2021-03-10T12:42:29Z</time>
      </trkpt>
      <trkpt lat="45.11554" lon="6.15347">
        <ele>2353.7</ele>
        <time>2021-03-10T12:42:30Z</time>
      </trkpt>
      <trkpt lat="45.11554" lon="6.15348">
        <ele>2352.8</ele>
        <time>2021-03-10T12:42:31Z</time>
      </trkpt>
      <trkpt lat="45.11554" lon="6.15349">
        <ele>2352.5</ele>
        <time>2021-03-10T12:42:32Z</time>
      </trkpt>
      <trkpt lat="45.11554" lon="6.15349">
        <ele>2352.3</ele>
        <time>2021-03-10T12:42:33Z</time>
      </trkpt>
      <trkpt lat="45.11554" lon="6.1535">
        <ele>2352</ele>
        <time>2021-03-10T12:42:34Z</time>
      </trkpt>
      <trkpt lat="45.11554" lon="6.15351">
        <ele>2351.2</ele>
        <time>2021-03-10T12:42:35Z</time>
      </trkpt>
      <trkpt lat="45.11554" lon="6.15352">
        <ele>2350.9</ele>
        <time>2021-03-10T12:42:36Z</time>
      </trkpt>
      <trkpt lat="45.11554" lon="6.15353">
        <ele>2350.7</ele>
        <time>2021-03-10T12:42:37Z</time>
      </trkpt>
      <trkpt lat="45.11554" lon="6.15355">
        <ele>2350.4</ele>
        <time>2021-03-10T12:42:38Z</time>
      </trkpt>
      <trkpt lat="45.11554" lon="6.15356">
        <ele>2349.6</ele>
        <time>2021-03-10T12:42:39Z</time>
      </trkpt>
      <trkpt lat="45.11554" lon="6.15358">
        <ele>2349.9</ele>
        <time>2021-03-10T12:42:40Z</time>
      </trkpt>
      <trkpt lat="45.11554" lon="6.15359">
        <ele>2349.7</ele>
        <time>2021-03-10T12:42:41Z</time>
      </trkpt>
      <trkpt lat="45.11554" lon="6.1536">
        <ele>2348.7</ele>
        <time>2021-03-10T12:42:42Z</time>
      </trkpt>
      <trkpt lat="45.11554" lon="6.15361">
        <ele>2348.5</ele>
        <time>2021-03-10T12:42:43Z</time>
      </trkpt>
      <trkpt lat="45.11554" lon="6.15362">
        <ele>2348.2</ele>
        <time>2021-03-10T12:42:44Z</time>
      </trkpt>
      <trkpt lat="45.11553" lon="6.15363">
        <ele>2348</ele>
        <time>2021-03-10T12:42:45Z</time>
      </trkpt>
      <trkpt lat="45.11553" lon="6.15364">
        <ele>2347.1</ele>
        <time>2021-03-10T12:42:46Z</time>
      </trkpt>
      <trkpt lat="45.11553" lon="6.15365">
        <ele>2346.9</ele>
        <time>2021-03-10T12:42:47Z</time>
      </trkpt>
      <trkpt lat="45.11552" lon="6.15367">
        <ele>2346.6</ele>
        <time>2021-03-10T12:42:48Z</time>
      </trkpt>
      <trkpt lat="45.11552" lon="6.1537">
        <ele>2345.8</ele>
        <time>2021-03-10T12:42:49Z</time>
      </trkpt>
      <trkpt lat="45.11552" lon="6.15371">
        <ele>2345.5</ele>
        <time>2021-03-10T12:42:50Z</time>
      </trkpt>
      <trkpt lat="45.11552" lon="6.15373">
        <ele>2344.7</ele>
        <time>2021-03-10T12:42:51Z</time>
      </trkpt>
      <trkpt lat="45.11553" lon="6.15379">
        <ele>2343.8</ele>
        <time>2021-03-10T12:42:52Z</time>
      </trkpt>
      <trkpt lat="45.11553" lon="6.15381">
        <ele>2342.9</ele>
        <time>2021-03-10T12:42:53Z</time>
      </trkpt>
      <trkpt lat="45.11554" lon="6.15385">
        <ele>2341.6</ele>
        <time>2021-03-10T12:42:54Z</time>
      </trkpt>
      <trkpt lat="45.11556" lon="6.15391">
        <ele>2340.8</ele>
        <time>2021-03-10T12:42:55Z</time>
      </trkpt>
      <trkpt lat="45.11556" lon="6.15395">
        <ele>2339.8</ele>
        <time>2021-03-10T12:42:56Z</time>
      </trkpt>
      <trkpt lat="45.11556" lon="6.15398">
        <ele>2339</ele>
        <time>2021-03-10T12:42:57Z</time>
      </trkpt>
      <trkpt lat="45.11556" lon="6.15399">
        <ele>2338.7</ele>
        <time>2021-03-10T12:42:58Z</time>
      </trkpt>
      <trkpt lat="45.11556" lon="6.15398">
        <ele>2338.5</ele>
        <time>2021-03-10T12:42:59Z</time>
      </trkpt>
      <trkpt lat="45.11555" lon="6.15397">
        <ele>2338.8</ele>
        <time>2021-03-10T12:43:00Z</time>
      </trkpt>
      <trkpt lat="45.11555" lon="6.15396">
        <ele>2338.6</ele>
        <time>2021-03-10T12:43:01Z</time>
      </trkpt>
      <trkpt lat="45.11555" lon="6.15395">
        <ele>2338.3</ele>
        <time>2021-03-10T12:43:02Z</time>
      </trkpt>
      <trkpt lat="45.11555" lon="6.15394">
        <ele>2338.1</ele>
        <time>2021-03-10T12:43:03Z</time>
      </trkpt>
      <trkpt lat="45.11555" lon="6.15392">
        <ele>2338.5</ele>
        <time>2021-03-10T12:43:04Z</time>
      </trkpt>
      <trkpt lat="45.11553" lon="6.15393">
        <ele>2338.6</ele>
        <time>2021-03-10T12:43:05Z</time>
      </trkpt>
      <trkpt lat="45.11552" lon="6.15393">
        <ele>2338.3</ele>
        <time>2021-03-10T12:43:06Z</time>
      </trkpt>
      <trkpt lat="45.11551" lon="6.15393">
        <ele>2338.1</ele>
        <time>2021-03-10T12:43:07Z</time>
      </trkpt>
      <trkpt lat="45.1155" lon="6.15393">
        <ele>2338.1</ele>
        <time>2021-03-10T12:43:08Z</time>
      </trkpt>
      <trkpt lat="45.11549" lon="6.15393">
        <ele>2337.8</ele>
        <time>2021-03-10T12:43:09Z</time>
      </trkpt>
      <trkpt lat="45.11548" lon="6.15393">
        <ele>2337.9</ele>
        <time>2021-03-10T12:44:36Z</time>
      </trkpt>
      <trkpt lat="45.11547" lon="6.15393">
        <ele>2337.7</ele>
        <time>2021-03-10T12:44:37Z</time>
      </trkpt>
      <trkpt lat="45.11543" lon="6.15396">
        <ele>2337</ele>
        <time>2021-03-10T12:44:38Z</time>
      </trkpt>
      <trkpt lat="45.1154" lon="6.154">
        <ele>2336.2</ele>
        <time>2021-03-10T12:44:39Z</time>
      </trkpt>
      <trkpt lat="45.11537" lon="6.15404">
        <ele>2335.6</ele>
        <time>2021-03-10T12:44:40Z</time>
      </trkpt>
      <trkpt lat="45.11535" lon="6.15409">
        <ele>2334.9</ele>
        <time>2021-03-10T12:44:41Z</time>
      </trkpt>
      <trkpt lat="45.11532" lon="6.15414">
        <ele>2334.4</ele>
        <time>2021-03-10T12:44:42Z</time>
      </trkpt>
      <trkpt lat="45.11528" lon="6.15419">
        <ele>2332.7</ele>
        <time>2021-03-10T12:44:43Z</time>
      </trkpt>
      <trkpt lat="45.11523" lon="6.15424">
        <ele>2332.4</ele>
        <time>2021-03-10T12:44:44Z</time>
      </trkpt>
      <trkpt lat="45.11519" lon="6.15428">
        <ele>2331.4</ele>
        <time>2021-03-10T12:44:45Z</time>
      </trkpt>
      <trkpt lat="45.11516" lon="6.15433">
        <ele>2330.4</ele>
        <time>2021-03-10T12:44:46Z</time>
      </trkpt>
      <trkpt lat="45.11513" lon="6.15439">
        <ele>2329.3</ele>
        <time>2021-03-10T12:44:47Z</time>
      </trkpt>
      <trkpt lat="45.11512" lon="6.15447">
        <ele>2327</ele>
        <time>2021-03-10T12:44:48Z</time>
      </trkpt>
      <trkpt lat="45.11509" lon="6.15451">
        <ele>2325.6</ele>
        <time>2021-03-10T12:44:49Z</time>
      </trkpt>
      <trkpt lat="45.11507" lon="6.15458">
        <ele>2323.6</ele>
        <time>2021-03-10T12:44:50Z</time>
      </trkpt>
      <trkpt lat="45.11502" lon="6.15463">
        <ele>2322.7</ele>
        <time>2021-03-10T12:44:51Z</time>
      </trkpt>
      <trkpt lat="45.11496" lon="6.15467">
        <ele>2321.8</ele>
        <time>2021-03-10T12:44:52Z</time>
      </trkpt>
      <trkpt lat="45.1149" lon="6.1547">
        <ele>2321.9</ele>
        <time>2021-03-10T12:44:53Z</time>
      </trkpt>
      <trkpt lat="45.11485" lon="6.15474">
        <ele>2320.5</ele>
        <time>2021-03-10T12:44:54Z</time>
      </trkpt>
      <trkpt lat="45.11479" lon="6.15477">
        <ele>2319</ele>
        <time>2021-03-10T12:44:55Z</time>
      </trkpt>
      <trkpt lat="45.11473" lon="6.1548">
        <ele>2317.5</ele>
        <time>2021-03-10T12:44:56Z</time>
      </trkpt>
      <trkpt lat="45.11467" lon="6.15483">
        <ele>2317.3</ele>
        <time>2021-03-10T12:44:57Z</time>
      </trkpt>
      <trkpt lat="45.11462" lon="6.15485">
        <ele>2315.7</ele>
        <time>2021-03-10T12:44:58Z</time>
      </trkpt>
      <trkpt lat="45.11458" lon="6.15489">
        <ele>2314.1</ele>
        <time>2021-03-10T12:44:59Z</time>
      </trkpt>
      <trkpt lat="45.11454" lon="6.15493">
        <ele>2312.5</ele>
        <time>2021-03-10T12:45:00Z</time>
      </trkpt>
      <trkpt lat="45.1145" lon="6.15495">
        <ele>2312.3</ele>
        <time>2021-03-10T12:45:01Z</time>
      </trkpt>
      <trkpt lat="45.11446" lon="6.15496">
        <ele>2312.2</ele>
        <time>2021-03-10T12:45:02Z</time>
      </trkpt>
      <trkpt lat="45.11442" lon="6.15499">
        <ele>2310.7</ele>
        <time>2021-03-10T12:45:03Z</time>
      </trkpt>
      <trkpt lat="45.11438" lon="6.15501">
        <ele>2309.3</ele>
        <time>2021-03-10T12:45:04Z</time>
      </trkpt>
      <trkpt lat="45.11433" lon="6.15504">
        <ele>2309.3</ele>
        <time>2021-03-10T12:45:05Z</time>
      </trkpt>
      <trkpt lat="45.11428" lon="6.15506">
        <ele>2307.9</ele>
        <time>2021-03-10T12:45:06Z</time>
      </trkpt>
      <trkpt lat="45.11423" lon="6.1551">
        <ele>2306.7</ele>
        <time>2021-03-10T12:45:07Z</time>
      </trkpt>
      <trkpt lat="45.11419" lon="6.15511">
        <ele>2306.7</ele>
        <time>2021-03-10T12:45:08Z</time>
      </trkpt>
      <trkpt lat="45.11414" lon="6.15513">
        <ele>2307</ele>
        <time>2021-03-10T12:45:09Z</time>
      </trkpt>
      <trkpt lat="45.11409" lon="6.15515">
        <ele>2305.6</ele>
        <time>2021-03-10T12:45:10Z</time>
      </trkpt>
      <trkpt lat="45.11405" lon="6.15517">
        <ele>2305.9</ele>
        <time>2021-03-10T12:45:11Z</time>
      </trkpt>
      <trkpt lat="45.11401" lon="6.15517">
        <ele>2306</ele>
        <time>2021-03-10T12:45:12Z</time>
      </trkpt>
      <trkpt lat="45.11398" lon="6.15519">
        <ele>2304.4</ele>
        <time>2021-03-10T12:45:13Z</time>
      </trkpt>
      <trkpt lat="45.11394" lon="6.15521">
        <ele>2304.5</ele>
        <time>2021-03-10T12:45:14Z</time>
      </trkpt>
      <trkpt lat="45.1139" lon="6.15522">
        <ele>2303</ele>
        <time>2021-03-10T12:45:15Z</time>
      </trkpt>
      <trkpt lat="45.11386" lon="6.15522">
        <ele>2303</ele>
        <time>2021-03-10T12:45:16Z</time>
      </trkpt>
      <trkpt lat="45.11383" lon="6.15523">
        <ele>2302.9</ele>
        <time>2021-03-10T12:45:17Z</time>
      </trkpt>
      <trkpt lat="45.11379" lon="6.15523">
        <ele>2302.9</ele>
        <time>2021-03-10T12:45:18Z</time>
      </trkpt>
      <trkpt lat="45.11377" lon="6.15523">
        <ele>2302.7</ele>
        <time>2021-03-10T12:45:19Z</time>
      </trkpt>
      <trkpt lat="45.11373" lon="6.15523">
        <ele>2302.5</ele>
        <time>2021-03-10T12:45:20Z</time>
      </trkpt>
      <trkpt lat="45.11371" lon="6.15523">
        <ele>2302.3</ele>
        <time>2021-03-10T12:45:21Z</time>
      </trkpt>
      <trkpt lat="45.11368" lon="6.15523">
        <ele>2302.1</ele>
        <time>2021-03-10T12:45:22Z</time>
      </trkpt>
      <trkpt lat="45.11364" lon="6.15522">
        <ele>2301.8</ele>
        <time>2021-03-10T12:45:23Z</time>
      </trkpt>
      <trkpt lat="45.11359" lon="6.15522">
        <ele>2301.6</ele>
        <time>2021-03-10T12:45:24Z</time>
      </trkpt>
      <trkpt lat="45.11355" lon="6.15522">
        <ele>2303.2</ele>
        <time>2021-03-10T12:45:25Z</time>
      </trkpt>
      <trkpt lat="45.11352" lon="6.15522">
        <ele>2301</ele>
        <time>2021-03-10T12:45:26Z</time>
      </trkpt>
      <trkpt lat="45.11348" lon="6.15523">
        <ele>2301</ele>
        <time>2021-03-10T12:45:27Z</time>
      </trkpt>
      <trkpt lat="45.11343" lon="6.15524">
        <ele>2301.1</ele>
        <time>2021-03-10T12:45:28Z</time>
      </trkpt>
      <trkpt lat="45.11339" lon="6.15525">
        <ele>2301.1</ele>
        <time>2021-03-10T12:45:29Z</time>
      </trkpt>
      <trkpt lat="45.11335" lon="6.15526">
        <ele>2301.3</ele>
        <time>2021-03-10T12:45:30Z</time>
      </trkpt>
      <trkpt lat="45.11332" lon="6.15526">
        <ele>2299.4</ele>
        <time>2021-03-10T12:45:31Z</time>
      </trkpt>
      <trkpt lat="45.11328" lon="6.15527">
        <ele>2299.5</ele>
        <time>2021-03-10T12:45:32Z</time>
      </trkpt>
      <trkpt lat="45.11325" lon="6.15527">
        <ele>2299.6</ele>
        <time>2021-03-10T12:45:33Z</time>
      </trkpt>
      <trkpt lat="45.11321" lon="6.15527">
        <ele>2299.7</ele>
        <time>2021-03-10T12:45:34Z</time>
      </trkpt>
      <trkpt lat="45.11318" lon="6.15526">
        <ele>2299.8</ele>
        <time>2021-03-10T12:45:35Z</time>
      </trkpt>
      <trkpt lat="45.11315" lon="6.15526">
        <ele>2299.8</ele>
        <time>2021-03-10T12:45:36Z</time>
      </trkpt>
      <trkpt lat="45.11311" lon="6.15526">
        <ele>2299.9</ele>
        <time>2021-03-10T12:45:37Z</time>
      </trkpt>
      <trkpt lat="45.11307" lon="6.15527">
        <ele>2299.8</ele>
        <time>2021-03-10T12:45:38Z</time>
      </trkpt>
      <trkpt lat="45.11303" lon="6.15527">
        <ele>2299.8</ele>
        <time>2021-03-10T12:45:39Z</time>
      </trkpt>
      <trkpt lat="45.11297" lon="6.15529">
        <ele>2299.7</ele>
        <time>2021-03-10T12:45:40Z</time>
      </trkpt>
      <trkpt lat="45.11292" lon="6.1553">
        <ele>2299.6</ele>
        <time>2021-03-10T12:45:41Z</time>
      </trkpt>
      <trkpt lat="45.11287" lon="6.15531">
        <ele>2297.4</ele>
        <time>2021-03-10T12:45:42Z</time>
      </trkpt>
      <trkpt lat="45.11282" lon="6.15532">
        <ele>2297.3</ele>
        <time>2021-03-10T12:45:43Z</time>
      </trkpt>
      <trkpt lat="45.11276" lon="6.15534">
        <ele>2297.1</ele>
        <time>2021-03-10T12:45:44Z</time>
      </trkpt>
      <trkpt lat="45.11271" lon="6.15535">
        <ele>2294.9</ele>
        <time>2021-03-10T12:45:45Z</time>
      </trkpt>
      <trkpt lat="45.11266" lon="6.15536">
        <ele>2294.6</ele>
        <time>2021-03-10T12:45:46Z</time>
      </trkpt>
      <trkpt lat="45.11261" lon="6.15537">
        <ele>2294.5</ele>
        <time>2021-03-10T12:45:47Z</time>
      </trkpt>
      <trkpt lat="45.11256" lon="6.15536">
        <ele>2294.1</ele>
        <time>2021-03-10T12:45:48Z</time>
      </trkpt>
      <trkpt lat="45.11251" lon="6.15537">
        <ele>2293.9</ele>
        <time>2021-03-10T12:45:49Z</time>
      </trkpt>
      <trkpt lat="45.11245" lon="6.15538">
        <ele>2293.5</ele>
        <time>2021-03-10T12:45:50Z</time>
      </trkpt>
      <trkpt lat="45.11242" lon="6.15543">
        <ele>2291.1</ele>
        <time>2021-03-10T12:45:51Z</time>
      </trkpt>
      <trkpt lat="45.11238" lon="6.15547">
        <ele>2289</ele>
        <time>2021-03-10T12:45:52Z</time>
      </trkpt>
      <trkpt lat="45.11236" lon="6.15551">
        <ele>2286.9</ele>
        <time>2021-03-10T12:45:53Z</time>
      </trkpt>
      <trkpt lat="45.11233" lon="6.15555">
        <ele>2285</ele>
        <time>2021-03-10T12:45:54Z</time>
      </trkpt>
      <trkpt lat="45.11232" lon="6.15556">
        <ele>2284.9</ele>
        <time>2021-03-10T12:45:55Z</time>
      </trkpt>
      <trkpt lat="45.1123" lon="6.15558">
        <ele>2282.7</ele>
        <time>2021-03-10T12:45:56Z</time>
      </trkpt>
      <trkpt lat="45.11228" lon="6.15559">
        <ele>2282.7</ele>
        <time>2021-03-10T12:45:57Z</time>
      </trkpt>
      <trkpt lat="45.11225" lon="6.15561">
        <ele>2280.7</ele>
        <time>2021-03-10T12:45:58Z</time>
      </trkpt>
      <trkpt lat="45.11224" lon="6.15562">
        <ele>2280.7</ele>
        <time>2021-03-10T12:45:59Z</time>
      </trkpt>
      <trkpt lat="45.11221" lon="6.15564">
        <ele>2280.5</ele>
        <time>2021-03-10T12:46:00Z</time>
      </trkpt>
      <trkpt lat="45.1122" lon="6.15565">
        <ele>2278.5</ele>
        <time>2021-03-10T12:46:01Z</time>
      </trkpt>
      <trkpt lat="45.11217" lon="6.15566">
        <ele>2278.3</ele>
        <time>2021-03-10T12:46:02Z</time>
      </trkpt>
      <trkpt lat="45.11214" lon="6.15567">
        <ele>2278.2</ele>
        <time>2021-03-10T12:46:03Z</time>
      </trkpt>
      <trkpt lat="45.11211" lon="6.15568">
        <ele>2278</ele>
        <time>2021-03-10T12:46:04Z</time>
      </trkpt>
      <trkpt lat="45.11208" lon="6.15569">
        <ele>2277.8</ele>
        <time>2021-03-10T12:46:05Z</time>
      </trkpt>
      <trkpt lat="45.11206" lon="6.15569">
        <ele>2276</ele>
        <time>2021-03-10T12:46:06Z</time>
      </trkpt>
      <trkpt lat="45.11203" lon="6.15571">
        <ele>2275.8</ele>
        <time>2021-03-10T12:46:07Z</time>
      </trkpt>
      <trkpt lat="45.11202" lon="6.15571">
        <ele>2275.5</ele>
        <time>2021-03-10T12:46:08Z</time>
      </trkpt>
      <trkpt lat="45.11199" lon="6.15572">
        <ele>2275.2</ele>
        <time>2021-03-10T12:46:09Z</time>
      </trkpt>
      <trkpt lat="45.11198" lon="6.15572">
        <ele>2275.2</ele>
        <time>2021-03-10T12:46:10Z</time>
      </trkpt>
      <trkpt lat="45.11195" lon="6.15572">
        <ele>2274.8</ele>
        <time>2021-03-10T12:46:11Z</time>
      </trkpt>
      <trkpt lat="45.11194" lon="6.15572">
        <ele>2274.8</ele>
        <time>2021-03-10T12:46:12Z</time>
      </trkpt>
      <trkpt lat="45.11191" lon="6.15572">
        <ele>2274</ele>
        <time>2021-03-10T12:46:13Z</time>
      </trkpt>
      <trkpt lat="45.11189" lon="6.15572">
        <ele>2274</ele>
        <time>2021-03-10T12:46:14Z</time>
      </trkpt>
      <trkpt lat="45.11186" lon="6.15572">
        <ele>2273.6</ele>
        <time>2021-03-10T12:46:15Z</time>
      </trkpt>
      <trkpt lat="45.11185" lon="6.15571">
        <ele>2273.2</ele>
        <time>2021-03-10T12:46:16Z</time>
      </trkpt>
      <trkpt lat="45.11181" lon="6.15571">
        <ele>2272.9</ele>
        <time>2021-03-10T12:46:17Z</time>
      </trkpt>
      <trkpt lat="45.11179" lon="6.1557">
        <ele>2272.9</ele>
        <time>2021-03-10T12:46:18Z</time>
      </trkpt>
      <trkpt lat="45.11176" lon="6.15569">
        <ele>2274.2</ele>
        <time>2021-03-10T12:46:19Z</time>
      </trkpt>
      <trkpt lat="45.11175" lon="6.15569">
        <ele>2273.8</ele>
        <time>2021-03-10T12:46:20Z</time>
      </trkpt>
      <trkpt lat="45.11172" lon="6.15567">
        <ele>2273.3</ele>
        <time>2021-03-10T12:46:21Z</time>
      </trkpt>
      <trkpt lat="45.11171" lon="6.15567">
        <ele>2273.3</ele>
        <time>2021-03-10T12:46:22Z</time>
      </trkpt>
      <trkpt lat="45.11168" lon="6.15565">
        <ele>2272.8</ele>
        <time>2021-03-10T12:46:23Z</time>
      </trkpt>
      <trkpt lat="45.11167" lon="6.15565">
        <ele>2272.8</ele>
        <time>2021-03-10T12:46:24Z</time>
      </trkpt>
      <trkpt lat="45.11165" lon="6.15564">
        <ele>2274</ele>
        <time>2021-03-10T12:46:25Z</time>
      </trkpt>
      <trkpt lat="45.11164" lon="6.15563">
        <ele>2274</ele>
        <time>2021-03-10T12:46:26Z</time>
      </trkpt>
      <trkpt lat="45.11162" lon="6.15562">
        <ele>2273.5</ele>
        <time>2021-03-10T12:46:27Z</time>
      </trkpt>
      <trkpt lat="45.11161" lon="6.15561">
        <ele>2273.5</ele>
        <time>2021-03-10T12:46:28Z</time>
      </trkpt>
      <trkpt lat="45.1116" lon="6.1556">
        <ele>2274.7</ele>
        <time>2021-03-10T12:46:29Z</time>
      </trkpt>
      <trkpt lat="45.1116" lon="6.1556">
        <ele>2274.7</ele>
        <time>2021-03-10T12:46:30Z</time>
      </trkpt>
      <trkpt lat="45.11159" lon="6.1556">
        <ele>2274.7</ele>
        <time>2021-03-10T12:46:31Z</time>
      </trkpt>
      <trkpt lat="45.11159" lon="6.1556">
        <ele>2274.7</ele>
        <time>2021-03-10T12:46:32Z</time>
      </trkpt>
      <trkpt lat="45.11158" lon="6.15559">
        <ele>2274.7</ele>
        <time>2021-03-10T12:46:33Z</time>
      </trkpt>
      <trkpt lat="45.11158" lon="6.15559">
        <ele>2274.7</ele>
        <time>2021-03-10T12:46:34Z</time>
      </trkpt>
      <trkpt lat="45.11158" lon="6.15559">
        <ele>2274.7</ele>
        <time>2021-03-10T12:46:35Z</time>
      </trkpt>
      <trkpt lat="45.11157" lon="6.15559">
        <ele>2274.2</ele>
        <time>2021-03-10T12:46:36Z</time>
      </trkpt>
      <trkpt lat="45.11157" lon="6.15559">
        <ele>2274.2</ele>
        <time>2021-03-10T12:46:37Z</time>
      </trkpt>
      <trkpt lat="45.11157" lon="6.15558">
        <ele>2274.2</ele>
        <time>2021-03-10T12:46:38Z</time>
      </trkpt>
      <trkpt lat="45.11156" lon="6.15558">
        <ele>2274.2</ele>
        <time>2021-03-10T12:46:39Z</time>
      </trkpt>
      <trkpt lat="45.11156" lon="6.15558">
        <ele>2274.2</ele>
        <time>2021-03-10T12:46:40Z</time>
      </trkpt>
      <trkpt lat="45.11156" lon="6.15558">
        <ele>2274.2</ele>
        <time>2021-03-10T12:47:29Z</time>
      </trkpt>
      <trkpt lat="45.11155" lon="6.15557">
        <ele>2274.2</ele>
        <time>2021-03-10T12:47:30Z</time>
      </trkpt>
      <trkpt lat="45.11152" lon="6.15555">
        <ele>2275.3</ele>
        <time>2021-03-10T12:47:31Z</time>
      </trkpt>
      <trkpt lat="45.11151" lon="6.15554">
        <ele>2274.7</ele>
        <time>2021-03-10T12:47:32Z</time>
      </trkpt>
      <trkpt lat="45.11148" lon="6.15551">
        <ele>2275.7</ele>
        <time>2021-03-10T12:47:33Z</time>
      </trkpt>
      <trkpt lat="45.11145" lon="6.15548">
        <ele>2275.7</ele>
        <time>2021-03-10T12:47:34Z</time>
      </trkpt>
      <trkpt lat="45.11142" lon="6.15545">
        <ele>2276.5</ele>
        <time>2021-03-10T12:47:35Z</time>
      </trkpt>
      <trkpt lat="45.11139" lon="6.1554">
        <ele>2276.4</ele>
        <time>2021-03-10T12:47:36Z</time>
      </trkpt>
      <trkpt lat="45.11135" lon="6.15535">
        <ele>2277.1</ele>
        <time>2021-03-10T12:47:37Z</time>
      </trkpt>
      <trkpt lat="45.1113" lon="6.15528">
        <ele>2279.3</ele>
        <time>2021-03-10T12:47:38Z</time>
      </trkpt>
      <trkpt lat="45.11126" lon="6.15524">
        <ele>2279.1</ele>
        <time>2021-03-10T12:47:39Z</time>
      </trkpt>
      <trkpt lat="45.11121" lon="6.15519">
        <ele>2279.7</ele>
        <time>2021-03-10T12:47:40Z</time>
      </trkpt>
      <trkpt lat="45.11118" lon="6.15513">
        <ele>2279.1</ele>
        <time>2021-03-10T12:47:41Z</time>
      </trkpt>
      <trkpt lat="45.11115" lon="6.15509">
        <ele>2280.4</ele>
        <time>2021-03-10T12:47:42Z</time>
      </trkpt>
      <trkpt lat="45.11113" lon="6.15508">
        <ele>2280.4</ele>
        <time>2021-03-10T12:47:43Z</time>
      </trkpt>
      <trkpt lat="45.11113" lon="6.15508">
        <ele>2280.4</ele>
        <time>2021-03-10T12:47:44Z</time>
      </trkpt>
      <trkpt lat="45.11112" lon="6.15509">
        <ele>2280.4</ele>
        <time>2021-03-10T12:47:45Z</time>
      </trkpt>
      <trkpt lat="45.11112" lon="6.15509">
        <ele>2279</ele>
        <time>2021-03-10T12:47:46Z</time>
      </trkpt>
      <trkpt lat="45.11111" lon="6.15509">
        <ele>2279</ele>
        <time>2021-03-10T12:47:47Z</time>
      </trkpt>
      <trkpt lat="45.11111" lon="6.15509">
        <ele>2277.8</ele>
        <time>2021-03-10T12:47:48Z</time>
      </trkpt>
      <trkpt lat="45.11111" lon="6.15509">
        <ele>2277.8</ele>
        <time>2021-03-10T12:47:49Z</time>
      </trkpt>
      <trkpt lat="45.1111" lon="6.1551">
        <ele>2277.8</ele>
        <time>2021-03-10T12:47:50Z</time>
      </trkpt>
      <trkpt lat="45.1111" lon="6.1551">
        <ele>2277.8</ele>
        <time>2021-03-10T12:47:51Z</time>
      </trkpt>
      <trkpt lat="45.11109" lon="6.1551">
        <ele>2277.8</ele>
        <time>2021-03-10T12:47:52Z</time>
      </trkpt>
      <trkpt lat="45.11109" lon="6.1551">
        <ele>2277.8</ele>
        <time>2021-03-10T12:47:53Z</time>
      </trkpt>
      <trkpt lat="45.11109" lon="6.1551">
        <ele>2276.4</ele>
        <time>2021-03-10T12:47:54Z</time>
      </trkpt>
      <trkpt lat="45.11108" lon="6.15511">
        <ele>2276.4</ele>
        <time>2021-03-10T12:49:17Z</time>
      </trkpt>
      <trkpt lat="45.11108" lon="6.15511">
        <ele>2276.4</ele>
        <time>2021-03-10T12:49:18Z</time>
      </trkpt>
      <trkpt lat="45.11104" lon="6.15506">
        <ele>2276.2</ele>
        <time>2021-03-10T12:49:19Z</time>
      </trkpt>
      <trkpt lat="45.11101" lon="6.155">
        <ele>2277.2</ele>
        <time>2021-03-10T12:49:20Z</time>
      </trkpt>
      <trkpt lat="45.11097" lon="6.15495">
        <ele>2277.1</ele>
        <time>2021-03-10T12:49:21Z</time>
      </trkpt>
      <trkpt lat="45.11094" lon="6.15487">
        <ele>2276.9</ele>
        <time>2021-03-10T12:49:22Z</time>
      </trkpt>
      <trkpt lat="45.11091" lon="6.15482">
        <ele>2278.2</ele>
        <time>2021-03-10T12:49:23Z</time>
      </trkpt>
      <trkpt lat="45.11088" lon="6.1548">
        <ele>2276.8</ele>
        <time>2021-03-10T12:49:24Z</time>
      </trkpt>
      <trkpt lat="45.11085" lon="6.15481">
        <ele>2275.3</ele>
        <time>2021-03-10T12:49:25Z</time>
      </trkpt>
      <trkpt lat="45.11084" lon="6.15483">
        <ele>2273.7</ele>
        <time>2021-03-10T12:49:26Z</time>
      </trkpt>
      <trkpt lat="45.11082" lon="6.15489">
        <ele>2269.7</ele>
        <time>2021-03-10T12:49:27Z</time>
      </trkpt>
      <trkpt lat="45.11079" lon="6.15492">
        <ele>2269.7</ele>
        <time>2021-03-10T12:49:28Z</time>
      </trkpt>
      <trkpt lat="45.11074" lon="6.15491">
        <ele>2267</ele>
        <time>2021-03-10T12:49:29Z</time>
      </trkpt>
      <trkpt lat="45.11071" lon="6.1549">
        <ele>2265.7</ele>
        <time>2021-03-10T12:49:30Z</time>
      </trkpt>
      <trkpt lat="45.11065" lon="6.15484">
        <ele>2264.3</ele>
        <time>2021-03-10T12:49:31Z</time>
      </trkpt>
      <trkpt lat="45.1106" lon="6.15479">
        <ele>2264.1</ele>
        <time>2021-03-10T12:49:32Z</time>
      </trkpt>
      <trkpt lat="45.11055" lon="6.15476">
        <ele>2262.6</ele>
        <time>2021-03-10T12:49:33Z</time>
      </trkpt>
      <trkpt lat="45.11047" lon="6.15476">
        <ele>2258.4</ele>
        <time>2021-03-10T12:49:34Z</time>
      </trkpt>
      <trkpt lat="45.11046" lon="6.15468">
        <ele>2261.1</ele>
        <time>2021-03-10T12:49:35Z</time>
      </trkpt>
      <trkpt lat="45.11041" lon="6.15465">
        <ele>2259.8</ele>
        <time>2021-03-10T12:49:36Z</time>
      </trkpt>
      <trkpt lat="45.11034" lon="6.1546">
        <ele>2258.3</ele>
        <time>2021-03-10T12:49:37Z</time>
      </trkpt>
      <trkpt lat="45.11028" lon="6.15457">
        <ele>2256.5</ele>
        <time>2021-03-10T12:49:38Z</time>
      </trkpt>
      <trkpt lat="45.11022" lon="6.15455">
        <ele>2253.4</ele>
        <time>2021-03-10T12:49:39Z</time>
      </trkpt>
      <trkpt lat="45.11017" lon="6.15453">
        <ele>2250.6</ele>
        <time>2021-03-10T12:49:40Z</time>
      </trkpt>
      <trkpt lat="45.11012" lon="6.15453">
        <ele>2249.3</ele>
        <time>2021-03-10T12:49:41Z</time>
      </trkpt>
      <trkpt lat="45.11005" lon="6.15449">
        <ele>2246.6</ele>
        <time>2021-03-10T12:49:42Z</time>
      </trkpt>
      <trkpt lat="45.10998" lon="6.15447">
        <ele>2244.9</ele>
        <time>2021-03-10T12:49:43Z</time>
      </trkpt>
      <trkpt lat="45.10991" lon="6.15445">
        <ele>2242.1</ele>
        <time>2021-03-10T12:49:44Z</time>
      </trkpt>
      <trkpt lat="45.10986" lon="6.15445">
        <ele>2240.9</ele>
        <time>2021-03-10T12:49:45Z</time>
      </trkpt>
      <trkpt lat="45.1098" lon="6.15445">
        <ele>2237.2</ele>
        <time>2021-03-10T12:49:46Z</time>
      </trkpt>
      <trkpt lat="45.10974" lon="6.15444">
        <ele>2235.5</ele>
        <time>2021-03-10T12:49:47Z</time>
      </trkpt>
      <trkpt lat="45.1097" lon="6.15442">
        <ele>2234.1</ele>
        <time>2021-03-10T12:49:48Z</time>
      </trkpt>
      <trkpt lat="45.10966" lon="6.15442">
        <ele>2231.5</ele>
        <time>2021-03-10T12:49:49Z</time>
      </trkpt>
      <trkpt lat="45.10963" lon="6.15443">
        <ele>2230.3</ele>
        <time>2021-03-10T12:49:50Z</time>
      </trkpt>
      <trkpt lat="45.1096" lon="6.15445">
        <ele>2227.9</ele>
        <time>2021-03-10T12:49:51Z</time>
      </trkpt>
      <trkpt lat="45.1096" lon="6.1545">
        <ele>2226.8</ele>
        <time>2021-03-10T12:49:52Z</time>
      </trkpt>
      <trkpt lat="45.10963" lon="6.15458">
        <ele>2225.9</ele>
        <time>2021-03-10T12:49:53Z</time>
      </trkpt>
      <trkpt lat="45.10963" lon="6.15463">
        <ele>2224.8</ele>
        <time>2021-03-10T12:49:54Z</time>
      </trkpt>
      <trkpt lat="45.10962" lon="6.15468">
        <ele>2223.7</ele>
        <time>2021-03-10T12:49:55Z</time>
      </trkpt>
      <trkpt lat="45.10958" lon="6.1547">
        <ele>2222.6</ele>
        <time>2021-03-10T12:49:56Z</time>
      </trkpt>
      <trkpt lat="45.10954" lon="6.15471">
        <ele>2219.3</ele>
        <time>2021-03-10T12:49:57Z</time>
      </trkpt>
      <trkpt lat="45.10949" lon="6.15472">
        <ele>2218.2</ele>
        <time>2021-03-10T12:49:58Z</time>
      </trkpt>
      <trkpt lat="45.10946" lon="6.15473">
        <ele>2217.1</ele>
        <time>2021-03-10T12:49:59Z</time>
      </trkpt>
      <trkpt lat="45.10943" lon="6.15474">
        <ele>2216</ele>
        <time>2021-03-10T12:50:00Z</time>
      </trkpt>
      <trkpt lat="45.1094" lon="6.15477">
        <ele>2213.9</ele>
        <time>2021-03-10T12:50:01Z</time>
      </trkpt>
      <trkpt lat="45.10936" lon="6.15485">
        <ele>2209.9</ele>
        <time>2021-03-10T12:50:02Z</time>
      </trkpt>
      <trkpt lat="45.10931" lon="6.15485">
        <ele>2208.9</ele>
        <time>2021-03-10T12:50:03Z</time>
      </trkpt>
      <trkpt lat="45.10928" lon="6.15483">
        <ele>2209</ele>
        <time>2021-03-10T12:50:04Z</time>
      </trkpt>
      <trkpt lat="45.10926" lon="6.1548">
        <ele>2208.1</ele>
        <time>2021-03-10T12:50:05Z</time>
      </trkpt>
      <trkpt lat="45.10923" lon="6.15477">
        <ele>2208.1</ele>
        <time>2021-03-10T12:50:06Z</time>
      </trkpt>
      <trkpt lat="45.10922" lon="6.15476">
        <ele>2208.1</ele>
        <time>2021-03-10T12:50:07Z</time>
      </trkpt>
      <trkpt lat="45.1092" lon="6.15473">
        <ele>2208</ele>
        <time>2021-03-10T12:50:08Z</time>
      </trkpt>
      <trkpt lat="45.10919" lon="6.15471">
        <ele>2208</ele>
        <time>2021-03-10T12:50:09Z</time>
      </trkpt>
      <trkpt lat="45.10918" lon="6.15469">
        <ele>2207.8</ele>
        <time>2021-03-10T12:50:10Z</time>
      </trkpt>
      <trkpt lat="45.10917" lon="6.15468">
        <ele>2207.8</ele>
        <time>2021-03-10T12:50:11Z</time>
      </trkpt>
      <trkpt lat="45.10916" lon="6.15467">
        <ele>2207.8</ele>
        <time>2021-03-10T12:50:12Z</time>
      </trkpt>
      <trkpt lat="45.10915" lon="6.15466">
        <ele>2208.8</ele>
        <time>2021-03-10T12:50:13Z</time>
      </trkpt>
      <trkpt lat="45.10914" lon="6.15465">
        <ele>2207.6</ele>
        <time>2021-03-10T12:50:14Z</time>
      </trkpt>
      <trkpt lat="45.10913" lon="6.15465">
        <ele>2207.6</ele>
        <time>2021-03-10T12:50:15Z</time>
      </trkpt>
      <trkpt lat="45.1091" lon="6.15463">
        <ele>2206.4</ele>
        <time>2021-03-10T12:50:16Z</time>
      </trkpt>
      <trkpt lat="45.10907" lon="6.1546">
        <ele>2206.4</ele>
        <time>2021-03-10T12:50:17Z</time>
      </trkpt>
      <trkpt lat="45.10904" lon="6.15457">
        <ele>2206.4</ele>
        <time>2021-03-10T12:50:18Z</time>
      </trkpt>
      <trkpt lat="45.109" lon="6.15452">
        <ele>2206.5</ele>
        <time>2021-03-10T12:50:19Z</time>
      </trkpt>
      <trkpt lat="45.10897" lon="6.15446">
        <ele>2206.6</ele>
        <time>2021-03-10T12:50:20Z</time>
      </trkpt>
      <trkpt lat="45.10896" lon="6.15442">
        <ele>2206.6</ele>
        <time>2021-03-10T12:50:21Z</time>
      </trkpt>
      <trkpt lat="45.10897" lon="6.15445">
        <ele>2206.6</ele>
        <time>2021-03-10T12:50:22Z</time>
      </trkpt>
      <trkpt lat="45.10898" lon="6.15449">
        <ele>2206.6</ele>
        <time>2021-03-10T12:50:23Z</time>
      </trkpt>
      <trkpt lat="45.10898" lon="6.15449">
        <ele>2205.5</ele>
        <time>2021-03-10T12:50:24Z</time>
      </trkpt>
      <trkpt lat="45.10898" lon="6.15449">
        <ele>2205.5</ele>
        <time>2021-03-10T12:50:25Z</time>
      </trkpt>
      <trkpt lat="45.10898" lon="6.15449">
        <ele>2205.5</ele>
        <time>2021-03-10T12:50:26Z</time>
      </trkpt>
      <trkpt lat="45.10898" lon="6.15449">
        <ele>2205.5</ele>
        <time>2021-03-10T12:50:27Z</time>
      </trkpt>
      <trkpt lat="45.10898" lon="6.15449">
        <ele>2205.5</ele>
        <time>2021-03-10T12:50:28Z</time>
      </trkpt>
      <trkpt lat="45.10898" lon="6.15449">
        <ele>2205.5</ele>
        <time>2021-03-10T12:50:29Z</time>
      </trkpt>
      <trkpt lat="45.10898" lon="6.15449">
        <ele>2205.5</ele>
        <time>2021-03-10T12:50:30Z</time>
      </trkpt>
      <trkpt lat="45.10898" lon="6.15449">
        <ele>2205.5</ele>
        <time>2021-03-10T12:50:31Z</time>
      </trkpt>
      <trkpt lat="45.10898" lon="6.15449">
        <ele>2205.5</ele>
        <time>2021-03-10T12:50:32Z</time>
      </trkpt>
      <trkpt lat="45.109" lon="6.15452">
        <ele>2206.5</ele>
        <time>2021-03-10T12:50:33Z</time>
      </trkpt>
      <trkpt lat="45.10899" lon="6.15458">
        <ele>2203.5</ele>
        <time>2021-03-10T12:50:34Z</time>
      </trkpt>
      <trkpt lat="45.10898" lon="6.15462">
        <ele>2203.5</ele>
        <time>2021-03-10T12:50:38Z</time>
      </trkpt>
      <trkpt lat="45.10897" lon="6.15465">
        <ele>2202.6</ele>
        <time>2021-03-10T12:50:39Z</time>
      </trkpt>
      <trkpt lat="45.10897" lon="6.1547">
        <ele>2200.5</ele>
        <time>2021-03-10T12:50:40Z</time>
      </trkpt>
      <trkpt lat="45.10896" lon="6.15482">
        <ele>2197.5</ele>
        <time>2021-03-10T12:50:41Z</time>
      </trkpt>
      <trkpt lat="45.10894" lon="6.15488">
        <ele>2195.7</ele>
        <time>2021-03-10T12:50:42Z</time>
      </trkpt>
      <trkpt lat="45.10891" lon="6.15488">
        <ele>2194.6</ele>
        <time>2021-03-10T12:50:43Z</time>
      </trkpt>
      <trkpt lat="45.10889" lon="6.15489">
        <ele>2193.4</ele>
        <time>2021-03-10T12:50:44Z</time>
      </trkpt>
      <trkpt lat="45.10886" lon="6.15497">
        <ele>2190.8</ele>
        <time>2021-03-10T12:50:45Z</time>
      </trkpt>
      <trkpt lat="45.10885" lon="6.15503">
        <ele>2188.9</ele>
        <time>2021-03-10T12:50:46Z</time>
      </trkpt>
      <trkpt lat="45.10883" lon="6.15506">
        <ele>2188.3</ele>
        <time>2021-03-10T12:50:47Z</time>
      </trkpt>
      <trkpt lat="45.10882" lon="6.15505">
        <ele>2188.3</ele>
        <time>2021-03-10T12:50:48Z</time>
      </trkpt>
      <trkpt lat="45.10877" lon="6.15508">
        <ele>2186.1</ele>
        <time>2021-03-10T12:50:49Z</time>
      </trkpt>
      <trkpt lat="45.10875" lon="6.15512">
        <ele>2184.4</ele>
        <time>2021-03-10T12:50:50Z</time>
      </trkpt>
      <trkpt lat="45.10873" lon="6.15516">
        <ele>2183.7</ele>
        <time>2021-03-10T12:50:51Z</time>
      </trkpt>
      <trkpt lat="45.10871" lon="6.15522">
        <ele>2181.3</ele>
        <time>2021-03-10T12:50:52Z</time>
      </trkpt>
      <trkpt lat="45.1087" lon="6.15529">
        <ele>2179.4</ele>
        <time>2021-03-10T12:50:53Z</time>
      </trkpt>
      <trkpt lat="45.10868" lon="6.15533">
        <ele>2178.8</ele>
        <time>2021-03-10T12:50:54Z</time>
      </trkpt>
      <trkpt lat="45.10864" lon="6.15538">
        <ele>2176.9</ele>
        <time>2021-03-10T12:50:55Z</time>
      </trkpt>
      <trkpt lat="45.10859" lon="6.15534">
        <ele>2174.9</ele>
        <time>2021-03-10T12:50:56Z</time>
      </trkpt>
      <trkpt lat="45.10852" lon="6.15532">
        <ele>2172.1</ele>
        <time>2021-03-10T12:50:57Z</time>
      </trkpt>
      <trkpt lat="45.10845" lon="6.15531">
        <ele>2168.1</ele>
        <time>2021-03-10T12:50:58Z</time>
      </trkpt>
      <trkpt lat="45.10839" lon="6.1553">
        <ele>2165.9</ele>
        <time>2021-03-10T12:50:59Z</time>
      </trkpt>
      <trkpt lat="45.10835" lon="6.1553">
        <ele>2164.5</ele>
        <time>2021-03-10T12:51:00Z</time>
      </trkpt>
      <trkpt lat="45.10832" lon="6.15526">
        <ele>2163.6</ele>
        <time>2021-03-10T12:51:01Z</time>
      </trkpt>
      <trkpt lat="45.1083" lon="6.15524">
        <ele>2162.2</ele>
        <time>2021-03-10T12:51:02Z</time>
      </trkpt>
      <trkpt lat="45.10821" lon="6.15523">
        <ele>2158.3</ele>
        <time>2021-03-10T12:51:03Z</time>
      </trkpt>
      <trkpt lat="45.10814" lon="6.15517">
        <ele>2157.5</ele>
        <time>2021-03-10T12:51:04Z</time>
      </trkpt>
      <trkpt lat="45.1081" lon="6.15513">
        <ele>2157.1</ele>
        <time>2021-03-10T12:51:05Z</time>
      </trkpt>
      <trkpt lat="45.10806" lon="6.15508">
        <ele>2156.7</ele>
        <time>2021-03-10T12:51:06Z</time>
      </trkpt>
      <trkpt lat="45.10803" lon="6.15505">
        <ele>2154.4</ele>
        <time>2021-03-10T12:51:07Z</time>
      </trkpt>
      <trkpt lat="45.10799" lon="6.15502">
        <ele>2154.1</ele>
        <time>2021-03-10T12:51:08Z</time>
      </trkpt>
      <trkpt lat="45.10796" lon="6.15499">
        <ele>2154</ele>
        <time>2021-03-10T12:51:09Z</time>
      </trkpt>
      <trkpt lat="45.10792" lon="6.15496">
        <ele>2153.9</ele>
        <time>2021-03-10T12:51:10Z</time>
      </trkpt>
      <trkpt lat="45.10787" lon="6.15494">
        <ele>2152.2</ele>
        <time>2021-03-10T12:51:11Z</time>
      </trkpt>
      <trkpt lat="45.10783" lon="6.15494">
        <ele>2151.3</ele>
        <time>2021-03-10T12:51:12Z</time>
      </trkpt>
      <trkpt lat="45.1078" lon="6.15492">
        <ele>2151.2</ele>
        <time>2021-03-10T12:51:13Z</time>
      </trkpt>
      <trkpt lat="45.10777" lon="6.15491">
        <ele>2150.3</ele>
        <time>2021-03-10T12:51:14Z</time>
      </trkpt>
      <trkpt lat="45.10774" lon="6.15494">
        <ele>2148.7</ele>
        <time>2021-03-10T12:51:15Z</time>
      </trkpt>
      <trkpt lat="45.10771" lon="6.15493">
        <ele>2148</ele>
        <time>2021-03-10T12:51:16Z</time>
      </trkpt>
      <trkpt lat="45.10769" lon="6.15497">
        <ele>2146.5</ele>
        <time>2021-03-10T12:51:17Z</time>
      </trkpt>
      <trkpt lat="45.10765" lon="6.155">
        <ele>2145.9</ele>
        <time>2021-03-10T12:51:18Z</time>
      </trkpt>
      <trkpt lat="45.10762" lon="6.15502">
        <ele>2144.5</ele>
        <time>2021-03-10T12:51:19Z</time>
      </trkpt>
      <trkpt lat="45.10758" lon="6.155">
        <ele>2144.2</ele>
        <time>2021-03-10T12:51:20Z</time>
      </trkpt>
      <trkpt lat="45.10754" lon="6.15497">
        <ele>2143.7</ele>
        <time>2021-03-10T12:51:21Z</time>
      </trkpt>
      <trkpt lat="45.1075" lon="6.15497">
        <ele>2143.1</ele>
        <time>2021-03-10T12:51:22Z</time>
      </trkpt>
      <trkpt lat="45.10745" lon="6.15497">
        <ele>2142</ele>
        <time>2021-03-10T12:51:23Z</time>
      </trkpt>
      <trkpt lat="45.1074" lon="6.15497">
        <ele>2141.5</ele>
        <time>2021-03-10T12:51:24Z</time>
      </trkpt>
      <trkpt lat="45.10735" lon="6.15499">
        <ele>2140.6</ele>
        <time>2021-03-10T12:51:25Z</time>
      </trkpt>
      <trkpt lat="45.10732" lon="6.15499">
        <ele>2140.2</ele>
        <time>2021-03-10T12:51:26Z</time>
      </trkpt>
      <trkpt lat="45.10728" lon="6.15501">
        <ele>2139</ele>
        <time>2021-03-10T12:51:27Z</time>
      </trkpt>
      <trkpt lat="45.10725" lon="6.15501">
        <ele>2138.4</ele>
        <time>2021-03-10T12:51:28Z</time>
      </trkpt>
      <trkpt lat="45.10722" lon="6.15501">
        <ele>2137.8</ele>
        <time>2021-03-10T12:51:29Z</time>
      </trkpt>
      <trkpt lat="45.10718" lon="6.15501">
        <ele>2137.2</ele>
        <time>2021-03-10T12:51:30Z</time>
      </trkpt>
      <trkpt lat="45.10717" lon="6.15501">
        <ele>2136.6</ele>
        <time>2021-03-10T12:51:31Z</time>
      </trkpt>
      <trkpt lat="45.10714" lon="6.155">
        <ele>2136.8</ele>
        <time>2021-03-10T12:51:32Z</time>
      </trkpt>
      <trkpt lat="45.10709" lon="6.15499">
        <ele>2136.3</ele>
        <time>2021-03-10T12:51:33Z</time>
      </trkpt>
      <trkpt lat="45.10706" lon="6.15498">
        <ele>2135.8</ele>
        <time>2021-03-10T12:51:34Z</time>
      </trkpt>
      <trkpt lat="45.10703" lon="6.15497">
        <ele>2135.3</ele>
        <time>2021-03-10T12:51:35Z</time>
      </trkpt>
      <trkpt lat="45.10699" lon="6.15497">
        <ele>2134.1</ele>
        <time>2021-03-10T12:51:36Z</time>
      </trkpt>
      <trkpt lat="45.10695" lon="6.15495">
        <ele>2134.1</ele>
        <time>2021-03-10T12:51:37Z</time>
      </trkpt>
      <trkpt lat="45.10692" lon="6.15492">
        <ele>2133.4</ele>
        <time>2021-03-10T12:51:38Z</time>
      </trkpt>
      <trkpt lat="45.10688" lon="6.15491">
        <ele>2133.5</ele>
        <time>2021-03-10T12:51:39Z</time>
      </trkpt>
      <trkpt lat="45.10685" lon="6.15489">
        <ele>2133.2</ele>
        <time>2021-03-10T12:51:40Z</time>
      </trkpt>
      <trkpt lat="45.10682" lon="6.15487">
        <ele>2133</ele>
        <time>2021-03-10T12:51:41Z</time>
      </trkpt>
      <trkpt lat="45.10677" lon="6.15488">
        <ele>2132.6</ele>
        <time>2021-03-10T12:51:42Z</time>
      </trkpt>
      <trkpt lat="45.10675" lon="6.1549">
        <ele>2132.3</ele>
        <time>2021-03-10T12:51:43Z</time>
      </trkpt>
      <trkpt lat="45.10672" lon="6.15491">
        <ele>2132</ele>
        <time>2021-03-10T12:51:44Z</time>
      </trkpt>
      <trkpt lat="45.1067" lon="6.15495">
        <ele>2131.6</ele>
        <time>2021-03-10T12:51:45Z</time>
      </trkpt>
      <trkpt lat="45.10667" lon="6.15498">
        <ele>2131.2</ele>
        <time>2021-03-10T12:51:46Z</time>
      </trkpt>
      <trkpt lat="45.10664" lon="6.155">
        <ele>2130.6</ele>
        <time>2021-03-10T12:51:47Z</time>
      </trkpt>
      <trkpt lat="45.10661" lon="6.15504">
        <ele>2130.1</ele>
        <time>2021-03-10T12:51:48Z</time>
      </trkpt>
      <trkpt lat="45.10657" lon="6.15506">
        <ele>2129.4</ele>
        <time>2021-03-10T12:51:49Z</time>
      </trkpt>
      <trkpt lat="45.10653" lon="6.15509">
        <ele>2128.5</ele>
        <time>2021-03-10T12:51:50Z</time>
      </trkpt>
      <trkpt lat="45.10649" lon="6.15508">
        <ele>2127.6</ele>
        <time>2021-03-10T12:51:51Z</time>
      </trkpt>
      <trkpt lat="45.10646" lon="6.15507">
        <ele>2126.9</ele>
        <time>2021-03-10T12:51:52Z</time>
      </trkpt>
      <trkpt lat="45.10644" lon="6.15506">
        <ele>2126.5</ele>
        <time>2021-03-10T12:51:53Z</time>
      </trkpt>
      <trkpt lat="45.10644" lon="6.15507">
        <ele>2126.2</ele>
        <time>2021-03-10T12:51:54Z</time>
      </trkpt>
      <trkpt lat="45.10643" lon="6.15507">
        <ele>2126</ele>
        <time>2021-03-10T12:51:55Z</time>
      </trkpt>
      <trkpt lat="45.10643" lon="6.15511">
        <ele>2125.4</ele>
        <time>2021-03-10T12:51:56Z</time>
      </trkpt>
      <trkpt lat="45.10644" lon="6.15513">
        <ele>2125</ele>
        <time>2021-03-10T12:51:57Z</time>
      </trkpt>
      <trkpt lat="45.10644" lon="6.15516">
        <ele>2124.4</ele>
        <time>2021-03-10T12:51:58Z</time>
      </trkpt>
      <trkpt lat="45.10644" lon="6.15522">
        <ele>2123.4</ele>
        <time>2021-03-10T12:51:59Z</time>
      </trkpt>
      <trkpt lat="45.10644" lon="6.15525">
        <ele>2123</ele>
        <time>2021-03-10T12:52:00Z</time>
      </trkpt>
      <trkpt lat="45.10644" lon="6.15529">
        <ele>2122.2</ele>
        <time>2021-03-10T12:52:01Z</time>
      </trkpt>
      <trkpt lat="45.10645" lon="6.15533">
        <ele>2121.6</ele>
        <time>2021-03-10T12:52:02Z</time>
      </trkpt>
      <trkpt lat="45.10646" lon="6.15537">
        <ele>2120.9</ele>
        <time>2021-03-10T12:52:03Z</time>
      </trkpt>
      <trkpt lat="45.10645" lon="6.15542">
        <ele>2120.1</ele>
        <time>2021-03-10T12:52:04Z</time>
      </trkpt>
      <trkpt lat="45.10644" lon="6.15544">
        <ele>2119.8</ele>
        <time>2021-03-10T12:52:05Z</time>
      </trkpt>
      <trkpt lat="45.10641" lon="6.15545">
        <ele>2119.3</ele>
        <time>2021-03-10T12:52:06Z</time>
      </trkpt>
      <trkpt lat="45.10638" lon="6.15543">
        <ele>2118.7</ele>
        <time>2021-03-10T12:52:07Z</time>
      </trkpt>
      <trkpt lat="45.10634" lon="6.15541">
        <ele>2118.1</ele>
        <time>2021-03-10T12:52:08Z</time>
      </trkpt>
      <trkpt lat="45.10631" lon="6.15539">
        <ele>2117.5</ele>
        <time>2021-03-10T12:52:09Z</time>
      </trkpt>
      <trkpt lat="45.10627" lon="6.15538">
        <ele>2116.9</ele>
        <time>2021-03-10T12:52:10Z</time>
      </trkpt>
      <trkpt lat="45.10622" lon="6.15538">
        <ele>2116.4</ele>
        <time>2021-03-10T12:52:11Z</time>
      </trkpt>
      <trkpt lat="45.10618" lon="6.1554">
        <ele>2116</ele>
        <time>2021-03-10T12:52:12Z</time>
      </trkpt>
      <trkpt lat="45.10615" lon="6.1554">
        <ele>2115.8</ele>
        <time>2021-03-10T12:52:13Z</time>
      </trkpt>
      <trkpt lat="45.10613" lon="6.15539">
        <ele>2115.6</ele>
        <time>2021-03-10T12:52:14Z</time>
      </trkpt>
      <trkpt lat="45.10613" lon="6.15538">
        <ele>2115.5</ele>
        <time>2021-03-10T12:52:15Z</time>
      </trkpt>
      <trkpt lat="45.10612" lon="6.15538">
        <ele>2115.5</ele>
        <time>2021-03-10T12:52:16Z</time>
      </trkpt>
      <trkpt lat="45.10609" lon="6.15537">
        <ele>2115.3</ele>
        <time>2021-03-10T12:52:17Z</time>
      </trkpt>
      <trkpt lat="45.10607" lon="6.15537">
        <ele>2115.2</ele>
        <time>2021-03-10T12:52:18Z</time>
      </trkpt>
      <trkpt lat="45.10603" lon="6.15537">
        <ele>2115</ele>
        <time>2021-03-10T12:52:19Z</time>
      </trkpt>
      <trkpt lat="45.10597" lon="6.15531">
        <ele>2114.8</ele>
        <time>2021-03-10T12:52:20Z</time>
      </trkpt>
      <trkpt lat="45.10591" lon="6.15529">
        <ele>2114.5</ele>
        <time>2021-03-10T12:52:21Z</time>
      </trkpt>
      <trkpt lat="45.10585" lon="6.15528">
        <ele>2114.2</ele>
        <time>2021-03-10T12:52:22Z</time>
      </trkpt>
      <trkpt lat="45.1058" lon="6.15526">
        <ele>2113.8</ele>
        <time>2021-03-10T12:52:23Z</time>
      </trkpt>
      <trkpt lat="45.10576" lon="6.15524">
        <ele>2113.4</ele>
        <time>2021-03-10T12:52:24Z</time>
      </trkpt>
      <trkpt lat="45.10571" lon="6.15523">
        <ele>2112.9</ele>
        <time>2021-03-10T12:52:25Z</time>
      </trkpt>
      <trkpt lat="45.10567" lon="6.15521">
        <ele>2112.5</ele>
        <time>2021-03-10T12:52:26Z</time>
      </trkpt>
      <trkpt lat="45.10564" lon="6.15519">
        <ele>2112.2</ele>
        <time>2021-03-10T12:52:27Z</time>
      </trkpt>
      <trkpt lat="45.10561" lon="6.15519">
        <ele>2111.8</ele>
        <time>2021-03-10T12:52:28Z</time>
      </trkpt>
      <trkpt lat="45.1056" lon="6.1552">
        <ele>2111.7</ele>
        <time>2021-03-10T12:52:29Z</time>
      </trkpt>
      <trkpt lat="45.10557" lon="6.15518">
        <ele>2111.3</ele>
        <time>2021-03-10T12:52:30Z</time>
      </trkpt>
      <trkpt lat="45.10554" lon="6.15515">
        <ele>2110.7</ele>
        <time>2021-03-10T12:52:31Z</time>
      </trkpt>
      <trkpt lat="45.10553" lon="6.15514">
        <ele>2110.5</ele>
        <time>2021-03-10T12:52:32Z</time>
      </trkpt>
      <trkpt lat="45.10551" lon="6.15512">
        <ele>2110.1</ele>
        <time>2021-03-10T12:52:33Z</time>
      </trkpt>
      <trkpt lat="45.10548" lon="6.15509">
        <ele>2109.6</ele>
        <time>2021-03-10T12:52:34Z</time>
      </trkpt>
      <trkpt lat="45.10547" lon="6.15509">
        <ele>2109.4</ele>
        <time>2021-03-10T12:52:35Z</time>
      </trkpt>
      <trkpt lat="45.10546" lon="6.15508">
        <ele>2109.2</ele>
        <time>2021-03-10T12:52:36Z</time>
      </trkpt>
      <trkpt lat="45.10545" lon="6.15507">
        <ele>2108.9</ele>
        <time>2021-03-10T12:52:37Z</time>
      </trkpt>
      <trkpt lat="45.10544" lon="6.15506">
        <ele>2108.7</ele>
        <time>2021-03-10T12:52:38Z</time>
      </trkpt>
      <trkpt lat="45.10543" lon="6.15505">
        <ele>2108.5</ele>
        <time>2021-03-10T12:52:39Z</time>
      </trkpt>
      <trkpt lat="45.10542" lon="6.15504">
        <ele>2108.3</ele>
        <time>2021-03-10T12:52:40Z</time>
      </trkpt>
      <trkpt lat="45.10541" lon="6.15504">
        <ele>2108.1</ele>
        <time>2021-03-10T12:52:41Z</time>
      </trkpt>
      <trkpt lat="45.10539" lon="6.15503">
        <ele>2107.9</ele>
        <time>2021-03-10T12:52:42Z</time>
      </trkpt>
      <trkpt lat="45.10533" lon="6.15502">
        <ele>2107.1</ele>
        <time>2021-03-10T12:52:43Z</time>
      </trkpt>
      <trkpt lat="45.10527" lon="6.155">
        <ele>2106.5</ele>
        <time>2021-03-10T12:52:44Z</time>
      </trkpt>
      <trkpt lat="45.10522" lon="6.15498">
        <ele>2106</ele>
        <time>2021-03-10T12:52:45Z</time>
      </trkpt>
      <trkpt lat="45.10516" lon="6.15496">
        <ele>2105.6</ele>
        <time>2021-03-10T12:52:46Z</time>
      </trkpt>
      <trkpt lat="45.10511" lon="6.15494">
        <ele>2105</ele>
        <time>2021-03-10T12:52:47Z</time>
      </trkpt>
      <trkpt lat="45.10505" lon="6.15491">
        <ele>2104.4</ele>
        <time>2021-03-10T12:52:48Z</time>
      </trkpt>
      <trkpt lat="45.105" lon="6.15489">
        <ele>2103.8</ele>
        <time>2021-03-10T12:52:49Z</time>
      </trkpt>
      <trkpt lat="45.10497" lon="6.15487">
        <ele>2103.3</ele>
        <time>2021-03-10T12:52:50Z</time>
      </trkpt>
      <trkpt lat="45.10494" lon="6.15485">
        <ele>2102.8</ele>
        <time>2021-03-10T12:52:51Z</time>
      </trkpt>
      <trkpt lat="45.1049" lon="6.15482">
        <ele>2102.4</ele>
        <time>2021-03-10T12:52:52Z</time>
      </trkpt>
      <trkpt lat="45.10489" lon="6.15481">
        <ele>2102.3</ele>
        <time>2021-03-10T12:52:53Z</time>
      </trkpt>
      <trkpt lat="45.10488" lon="6.15481">
        <ele>2102.2</ele>
        <time>2021-03-10T12:52:54Z</time>
      </trkpt>
      <trkpt lat="45.10487" lon="6.1548">
        <ele>2102</ele>
        <time>2021-03-10T12:52:55Z</time>
      </trkpt>
      <trkpt lat="45.10485" lon="6.15479">
        <ele>2101.9</ele>
        <time>2021-03-10T12:52:56Z</time>
      </trkpt>
      <trkpt lat="45.10484" lon="6.15478">
        <ele>2101.7</ele>
        <time>2021-03-10T12:52:57Z</time>
      </trkpt>
      <trkpt lat="45.10481" lon="6.15476">
        <ele>2101.5</ele>
        <time>2021-03-10T12:52:58Z</time>
      </trkpt>
      <trkpt lat="45.1048" lon="6.15476">
        <ele>2101.4</ele>
        <time>2021-03-10T12:52:59Z</time>
      </trkpt>
      <trkpt lat="45.10476" lon="6.15473">
        <ele>2101.5</ele>
        <time>2021-03-10T12:53:00Z</time>
      </trkpt>
      <trkpt lat="45.10474" lon="6.15472">
        <ele>2101.6</ele>
        <time>2021-03-10T12:53:01Z</time>
      </trkpt>
      <trkpt lat="45.10471" lon="6.15469">
        <ele>2101.7</ele>
        <time>2021-03-10T12:53:02Z</time>
      </trkpt>
      <trkpt lat="45.10468" lon="6.15467">
        <ele>2101.7</ele>
        <time>2021-03-10T12:53:03Z</time>
      </trkpt>
      <trkpt lat="45.10465" lon="6.15464">
        <ele>2101.7</ele>
        <time>2021-03-10T12:53:04Z</time>
      </trkpt>
      <trkpt lat="45.10462" lon="6.1546">
        <ele>2101.6</ele>
        <time>2021-03-10T12:53:05Z</time>
      </trkpt>
      <trkpt lat="45.10458" lon="6.15457">
        <ele>2101.3</ele>
        <time>2021-03-10T12:53:06Z</time>
      </trkpt>
      <trkpt lat="45.10455" lon="6.15454">
        <ele>2100.9</ele>
        <time>2021-03-10T12:53:07Z</time>
      </trkpt>
      <trkpt lat="45.10453" lon="6.15451">
        <ele>2100.5</ele>
        <time>2021-03-10T12:53:08Z</time>
      </trkpt>
      <trkpt lat="45.1045" lon="6.15449">
        <ele>2100</ele>
        <time>2021-03-10T12:53:09Z</time>
      </trkpt>
      <trkpt lat="45.10447" lon="6.15447">
        <ele>2099.3</ele>
        <time>2021-03-10T12:53:10Z</time>
      </trkpt>
      <trkpt lat="45.10446" lon="6.15446">
        <ele>2099.1</ele>
        <time>2021-03-10T12:53:11Z</time>
      </trkpt>
      <trkpt lat="45.10443" lon="6.15445">
        <ele>2098.5</ele>
        <time>2021-03-10T12:53:12Z</time>
      </trkpt>
      <trkpt lat="45.10436" lon="6.15444">
        <ele>2097.2</ele>
        <time>2021-03-10T12:53:13Z</time>
      </trkpt>
      <trkpt lat="45.10431" lon="6.15444">
        <ele>2096.5</ele>
        <time>2021-03-10T12:53:14Z</time>
      </trkpt>
      <trkpt lat="45.10428" lon="6.15442">
        <ele>2095.9</ele>
        <time>2021-03-10T12:53:15Z</time>
      </trkpt>
      <trkpt lat="45.10425" lon="6.1544">
        <ele>2095.3</ele>
        <time>2021-03-10T12:53:16Z</time>
      </trkpt>
      <trkpt lat="45.10422" lon="6.1544">
        <ele>2094.9</ele>
        <time>2021-03-10T12:53:17Z</time>
      </trkpt>
      <trkpt lat="45.10421" lon="6.15439">
        <ele>2094.6</ele>
        <time>2021-03-10T12:53:18Z</time>
      </trkpt>
      <trkpt lat="45.10419" lon="6.15438">
        <ele>2094.2</ele>
        <time>2021-03-10T12:53:19Z</time>
      </trkpt>
      <trkpt lat="45.10416" lon="6.15436">
        <ele>2093.6</ele>
        <time>2021-03-10T12:53:20Z</time>
      </trkpt>
      <trkpt lat="45.10415" lon="6.15435">
        <ele>2093.3</ele>
        <time>2021-03-10T12:53:21Z</time>
      </trkpt>
      <trkpt lat="45.10412" lon="6.15434">
        <ele>2092.7</ele>
        <time>2021-03-10T12:53:22Z</time>
      </trkpt>
      <trkpt lat="45.10411" lon="6.15434">
        <ele>2092.5</ele>
        <time>2021-03-10T12:53:23Z</time>
      </trkpt>
      <trkpt lat="45.1041" lon="6.15433">
        <ele>2092.1</ele>
        <time>2021-03-10T12:53:24Z</time>
      </trkpt>
      <trkpt lat="45.10408" lon="6.15432">
        <ele>2091.8</ele>
        <time>2021-03-10T12:53:25Z</time>
      </trkpt>
      <trkpt lat="45.10405" lon="6.15431">
        <ele>2090.9</ele>
        <time>2021-03-10T12:53:26Z</time>
      </trkpt>
      <trkpt lat="45.10404" lon="6.15431">
        <ele>2090.6</ele>
        <time>2021-03-10T12:53:27Z</time>
      </trkpt>
      <trkpt lat="45.10402" lon="6.1543">
        <ele>2090.1</ele>
        <time>2021-03-10T12:53:28Z</time>
      </trkpt>
      <trkpt lat="45.10401" lon="6.15429">
        <ele>2090</ele>
        <time>2021-03-10T12:53:29Z</time>
      </trkpt>
      <trkpt lat="45.10402" lon="6.15429">
        <ele>2089.9</ele>
        <time>2021-03-10T12:53:30Z</time>
      </trkpt>
      <trkpt lat="45.10402" lon="6.15429">
        <ele>2089.9</ele>
        <time>2021-03-10T12:53:31Z</time>
      </trkpt>
      <trkpt lat="45.10402" lon="6.15429">
        <ele>2089.9</ele>
        <time>2021-03-10T12:53:32Z</time>
      </trkpt>
      <trkpt lat="45.10402" lon="6.15429">
        <ele>2089.9</ele>
        <time>2021-03-10T12:53:33Z</time>
      </trkpt>
      <trkpt lat="45.10402" lon="6.15429">
        <ele>2089.9</ele>
        <time>2021-03-10T12:53:34Z</time>
      </trkpt>
      <trkpt lat="45.10402" lon="6.15429">
        <ele>2089.9</ele>
        <time>2021-03-10T12:53:35Z</time>
      </trkpt>
      <trkpt lat="45.10402" lon="6.15429">
        <ele>2089.9</ele>
        <time>2021-03-10T12:53:36Z</time>
      </trkpt>
      <trkpt lat="45.10402" lon="6.15429">
        <ele>2089.9</ele>
        <time>2021-03-10T12:53:37Z</time>
      </trkpt>
      <trkpt lat="45.10402" lon="6.15429">
        <ele>2089.9</ele>
        <time>2021-03-10T12:53:38Z</time>
      </trkpt>
      <trkpt lat="45.10402" lon="6.15429">
        <ele>2089.9</ele>
        <time>2021-03-10T12:53:39Z</time>
      </trkpt>
      <trkpt lat="45.10402" lon="6.15429">
        <ele>2089.9</ele>
        <time>2021-03-10T12:53:40Z</time>
      </trkpt>
      <trkpt lat="45.104" lon="6.15427">
        <ele>2089.4</ele>
        <time>2021-03-10T12:54:43Z</time>
      </trkpt>
      <trkpt lat="45.10399" lon="6.15425">
        <ele>2088.9</ele>
        <time>2021-03-10T12:54:44Z</time>
      </trkpt>
      <trkpt lat="45.10397" lon="6.1542">
        <ele>2088</ele>
        <time>2021-03-10T12:54:45Z</time>
      </trkpt>
      <trkpt lat="45.10397" lon="6.15419">
        <ele>2087.7</ele>
        <time>2021-03-10T12:54:46Z</time>
      </trkpt>
      <trkpt lat="45.10396" lon="6.15415">
        <ele>2086.9</ele>
        <time>2021-03-10T12:54:47Z</time>
      </trkpt>
      <trkpt lat="45.10394" lon="6.15411">
        <ele>2086.2</ele>
        <time>2021-03-10T12:54:48Z</time>
      </trkpt>
      <trkpt lat="45.10392" lon="6.15407">
        <ele>2085.4</ele>
        <time>2021-03-10T12:54:49Z</time>
      </trkpt>
      <trkpt lat="45.10387" lon="6.15404">
        <ele>2084.4</ele>
        <time>2021-03-10T12:54:50Z</time>
      </trkpt>
      <trkpt lat="45.10385" lon="6.15402">
        <ele>2083.8</ele>
        <time>2021-03-10T12:54:51Z</time>
      </trkpt>
      <trkpt lat="45.10384" lon="6.15402">
        <ele>2083.7</ele>
        <time>2021-03-10T12:54:52Z</time>
      </trkpt>
      <trkpt lat="45.10383" lon="6.15402">
        <ele>2083.6</ele>
        <time>2021-03-10T12:54:53Z</time>
      </trkpt>
      <trkpt lat="45.10382" lon="6.15403">
        <ele>2083.3</ele>
        <time>2021-03-10T12:54:54Z</time>
      </trkpt>
      <trkpt lat="45.10378" lon="6.15401">
        <ele>2082.5</ele>
        <time>2021-03-10T12:54:55Z</time>
      </trkpt>
      <trkpt lat="45.10376" lon="6.154">
        <ele>2082.2</ele>
        <time>2021-03-10T12:54:56Z</time>
      </trkpt>
      <trkpt lat="45.10374" lon="6.15396">
        <ele>2081.5</ele>
        <time>2021-03-10T12:54:57Z</time>
      </trkpt>
      <trkpt lat="45.10372" lon="6.15392">
        <ele>2080.8</ele>
        <time>2021-03-10T12:54:58Z</time>
      </trkpt>
      <trkpt lat="45.10369" lon="6.15389">
        <ele>2080</ele>
        <time>2021-03-10T12:54:59Z</time>
      </trkpt>
      <trkpt lat="45.10366" lon="6.15387">
        <ele>2079.3</ele>
        <time>2021-03-10T12:55:00Z</time>
      </trkpt>
      <trkpt lat="45.10363" lon="6.15385">
        <ele>2078.6</ele>
        <time>2021-03-10T12:55:01Z</time>
      </trkpt>
      <trkpt lat="45.1036" lon="6.15383">
        <ele>2077.8</ele>
        <time>2021-03-10T12:55:02Z</time>
      </trkpt>
      <trkpt lat="45.10359" lon="6.15382">
        <ele>2077.5</ele>
        <time>2021-03-10T12:55:03Z</time>
      </trkpt>
      <trkpt lat="45.10355" lon="6.15379">
        <ele>2076.6</ele>
        <time>2021-03-10T12:55:04Z</time>
      </trkpt>
      <trkpt lat="45.10354" lon="6.15378">
        <ele>2076.2</ele>
        <time>2021-03-10T12:55:05Z</time>
      </trkpt>
      <trkpt lat="45.10351" lon="6.15375">
        <ele>2075.4</ele>
        <time>2021-03-10T12:55:06Z</time>
      </trkpt>
      <trkpt lat="45.10348" lon="6.15372">
        <ele>2074.6</ele>
        <time>2021-03-10T12:55:07Z</time>
      </trkpt>
      <trkpt lat="45.10345" lon="6.15369">
        <ele>2073.8</ele>
        <time>2021-03-10T12:55:08Z</time>
      </trkpt>
      <trkpt lat="45.10342" lon="6.15366">
        <ele>2073.3</ele>
        <time>2021-03-10T12:55:09Z</time>
      </trkpt>
      <trkpt lat="45.1034" lon="6.15363">
        <ele>2072.7</ele>
        <time>2021-03-10T12:55:10Z</time>
      </trkpt>
      <trkpt lat="45.1034" lon="6.15362">
        <ele>2072.5</ele>
        <time>2021-03-10T12:55:11Z</time>
      </trkpt>
      <trkpt lat="45.10338" lon="6.15361">
        <ele>2072.2</ele>
        <time>2021-03-10T12:55:12Z</time>
      </trkpt>
      <trkpt lat="45.10337" lon="6.1536">
        <ele>2072</ele>
        <time>2021-03-10T12:55:13Z</time>
      </trkpt>
      <trkpt lat="45.10335" lon="6.1536">
        <ele>2071.8</ele>
        <time>2021-03-10T12:55:14Z</time>
      </trkpt>
      <trkpt lat="45.10334" lon="6.15359">
        <ele>2071.5</ele>
        <time>2021-03-10T12:55:15Z</time>
      </trkpt>
      <trkpt lat="45.10332" lon="6.15359">
        <ele>2071.2</ele>
        <time>2021-03-10T12:55:16Z</time>
      </trkpt>
      <trkpt lat="45.10329" lon="6.15359">
        <ele>2070.8</ele>
        <time>2021-03-10T12:55:17Z</time>
      </trkpt>
      <trkpt lat="45.10328" lon="6.15359">
        <ele>2070.6</ele>
        <time>2021-03-10T12:55:18Z</time>
      </trkpt>
      <trkpt lat="45.10325" lon="6.15358">
        <ele>2070.1</ele>
        <time>2021-03-10T12:55:19Z</time>
      </trkpt>
      <trkpt lat="45.10324" lon="6.15358">
        <ele>2069.9</ele>
        <time>2021-03-10T12:55:20Z</time>
      </trkpt>
      <trkpt lat="45.10321" lon="6.15358">
        <ele>2069.5</ele>
        <time>2021-03-10T12:55:21Z</time>
      </trkpt>
      <trkpt lat="45.1032" lon="6.15358">
        <ele>2069.4</ele>
        <time>2021-03-10T12:55:22Z</time>
      </trkpt>
      <trkpt lat="45.10316" lon="6.15358">
        <ele>2068.8</ele>
        <time>2021-03-10T12:55:23Z</time>
      </trkpt>
      <trkpt lat="45.10314" lon="6.15358">
        <ele>2068.6</ele>
        <time>2021-03-10T12:55:24Z</time>
      </trkpt>
      <trkpt lat="45.10312" lon="6.15359">
        <ele>2068.2</ele>
        <time>2021-03-10T12:55:25Z</time>
      </trkpt>
      <trkpt lat="45.10308" lon="6.1536">
        <ele>2067.8</ele>
        <time>2021-03-10T12:55:26Z</time>
      </trkpt>
      <trkpt lat="45.10307" lon="6.1536">
        <ele>2067.6</ele>
        <time>2021-03-10T12:55:27Z</time>
      </trkpt>
      <trkpt lat="45.10305" lon="6.1536">
        <ele>2067.4</ele>
        <time>2021-03-10T12:55:28Z</time>
      </trkpt>
      <trkpt lat="45.10304" lon="6.1536">
        <ele>2067.2</ele>
        <time>2021-03-10T12:55:29Z</time>
      </trkpt>
      <trkpt lat="45.10302" lon="6.1536">
        <ele>2067.1</ele>
        <time>2021-03-10T12:55:30Z</time>
      </trkpt>
      <trkpt lat="45.10301" lon="6.15361">
        <ele>2067</ele>
        <time>2021-03-10T12:55:31Z</time>
      </trkpt>
      <trkpt lat="45.103" lon="6.15361">
        <ele>2066.9</ele>
        <time>2021-03-10T12:55:32Z</time>
      </trkpt>
      <trkpt lat="45.10296" lon="6.15362">
        <ele>2066.5</ele>
        <time>2021-03-10T12:55:33Z</time>
      </trkpt>
      <trkpt lat="45.10295" lon="6.15363">
        <ele>2066.4</ele>
        <time>2021-03-10T12:55:34Z</time>
      </trkpt>
      <trkpt lat="45.10291" lon="6.15365">
        <ele>2066.1</ele>
        <time>2021-03-10T12:55:35Z</time>
      </trkpt>
      <trkpt lat="45.10288" lon="6.15368">
        <ele>2065.8</ele>
        <time>2021-03-10T12:55:36Z</time>
      </trkpt>
      <trkpt lat="45.10285" lon="6.15369">
        <ele>2065.6</ele>
        <time>2021-03-10T12:55:37Z</time>
      </trkpt>
      <trkpt lat="45.10281" lon="6.15369">
        <ele>2065.4</ele>
        <time>2021-03-10T12:55:38Z</time>
      </trkpt>
      <trkpt lat="45.1028" lon="6.15369">
        <ele>2065.4</ele>
        <time>2021-03-10T12:55:39Z</time>
      </trkpt>
      <trkpt lat="45.10276" lon="6.15369">
        <ele>2065.2</ele>
        <time>2021-03-10T12:55:40Z</time>
      </trkpt>
      <trkpt lat="45.10274" lon="6.15369">
        <ele>2065.1</ele>
        <time>2021-03-10T12:55:41Z</time>
      </trkpt>
      <trkpt lat="45.10271" lon="6.15369">
        <ele>2065</ele>
        <time>2021-03-10T12:55:42Z</time>
      </trkpt>
      <trkpt lat="45.1027" lon="6.15369">
        <ele>2064.9</ele>
        <time>2021-03-10T12:55:43Z</time>
      </trkpt>
      <trkpt lat="45.10269" lon="6.15369">
        <ele>2064.8</ele>
        <time>2021-03-10T12:55:44Z</time>
      </trkpt>
      <trkpt lat="45.10268" lon="6.15369">
        <ele>2064.8</ele>
        <time>2021-03-10T12:55:45Z</time>
      </trkpt>
      <trkpt lat="45.10266" lon="6.15369">
        <ele>2064.7</ele>
        <time>2021-03-10T12:55:46Z</time>
      </trkpt>
      <trkpt lat="45.10265" lon="6.15368">
        <ele>2064.6</ele>
        <time>2021-03-10T12:55:47Z</time>
      </trkpt>
      <trkpt lat="45.10264" lon="6.15368">
        <ele>2064.6</ele>
        <time>2021-03-10T12:55:48Z</time>
      </trkpt>
      <trkpt lat="45.10264" lon="6.15368">
        <ele>2064.5</ele>
        <time>2021-03-10T12:55:49Z</time>
      </trkpt>
      <trkpt lat="45.10262" lon="6.15367">
        <ele>2064.4</ele>
        <time>2021-03-10T12:55:50Z</time>
      </trkpt>
      <trkpt lat="45.10262" lon="6.15367">
        <ele>2064.4</ele>
        <time>2021-03-10T12:55:51Z</time>
      </trkpt>
      <trkpt lat="45.10262" lon="6.15366">
        <ele>2064.4</ele>
        <time>2021-03-10T12:55:52Z</time>
      </trkpt>
      <trkpt lat="45.10261" lon="6.15366">
        <ele>2064.3</ele>
        <time>2021-03-10T12:55:53Z</time>
      </trkpt>
      <trkpt lat="45.1026" lon="6.15366">
        <ele>2064.2</ele>
        <time>2021-03-10T12:55:54Z</time>
      </trkpt>
      <trkpt lat="45.10259" lon="6.15366">
        <ele>2064.2</ele>
        <time>2021-03-10T12:55:55Z</time>
      </trkpt>
      <trkpt lat="45.10258" lon="6.15366">
        <ele>2064.1</ele>
        <time>2021-03-10T12:55:56Z</time>
      </trkpt>
      <trkpt lat="45.10257" lon="6.15366">
        <ele>2064</ele>
        <time>2021-03-10T12:55:57Z</time>
      </trkpt>
      <trkpt lat="45.10251" lon="6.1537">
        <ele>2063.5</ele>
        <time>2021-03-10T12:55:58Z</time>
      </trkpt>
      <trkpt lat="45.10245" lon="6.15368">
        <ele>2063</ele>
        <time>2021-03-10T12:55:59Z</time>
      </trkpt>
      <trkpt lat="45.10241" lon="6.15367">
        <ele>2062.6</ele>
        <time>2021-03-10T12:56:00Z</time>
      </trkpt>
      <trkpt lat="45.10237" lon="6.15366">
        <ele>2062.3</ele>
        <time>2021-03-10T12:56:01Z</time>
      </trkpt>
      <trkpt lat="45.10232" lon="6.15364">
        <ele>2061.9</ele>
        <time>2021-03-10T12:56:02Z</time>
      </trkpt>
      <trkpt lat="45.10227" lon="6.15363">
        <ele>2061.8</ele>
        <time>2021-03-10T12:56:03Z</time>
      </trkpt>
      <trkpt lat="45.10221" lon="6.15362">
        <ele>2061.8</ele>
        <time>2021-03-10T12:56:04Z</time>
      </trkpt>
      <trkpt lat="45.10215" lon="6.15361">
        <ele>2061.8</ele>
        <time>2021-03-10T12:56:05Z</time>
      </trkpt>
      <trkpt lat="45.1021" lon="6.15358">
        <ele>2062</ele>
        <time>2021-03-10T12:56:06Z</time>
      </trkpt>
      <trkpt lat="45.10204" lon="6.15356">
        <ele>2062.1</ele>
        <time>2021-03-10T12:56:07Z</time>
      </trkpt>
      <trkpt lat="45.10199" lon="6.15353">
        <ele>2062.2</ele>
        <time>2021-03-10T12:56:08Z</time>
      </trkpt>
      <trkpt lat="45.10194" lon="6.1535">
        <ele>2062.2</ele>
        <time>2021-03-10T12:56:09Z</time>
      </trkpt>
      <trkpt lat="45.10189" lon="6.15348">
        <ele>2062.2</ele>
        <time>2021-03-10T12:56:10Z</time>
      </trkpt>
      <trkpt lat="45.10186" lon="6.15345">
        <ele>2062.1</ele>
        <time>2021-03-10T12:56:11Z</time>
      </trkpt>
      <trkpt lat="45.10183" lon="6.15343">
        <ele>2062.1</ele>
        <time>2021-03-10T12:56:12Z</time>
      </trkpt>
      <trkpt lat="45.1018" lon="6.15341">
        <ele>2062</ele>
        <time>2021-03-10T12:56:13Z</time>
      </trkpt>
      <trkpt lat="45.10178" lon="6.1534">
        <ele>2061.9</ele>
        <time>2021-03-10T12:56:14Z</time>
      </trkpt>
      <trkpt lat="45.10174" lon="6.15339">
        <ele>2061.7</ele>
        <time>2021-03-10T12:56:15Z</time>
      </trkpt>
      <trkpt lat="45.10173" lon="6.15339">
        <ele>2061.7</ele>
        <time>2021-03-10T12:56:16Z</time>
      </trkpt>
      <trkpt lat="45.10169" lon="6.15337">
        <ele>2061.4</ele>
        <time>2021-03-10T12:56:17Z</time>
      </trkpt>
      <trkpt lat="45.10168" lon="6.15336">
        <ele>2061.3</ele>
        <time>2021-03-10T12:56:18Z</time>
      </trkpt>
      <trkpt lat="45.10166" lon="6.15335">
        <ele>2061</ele>
        <time>2021-03-10T12:56:19Z</time>
      </trkpt>
      <trkpt lat="45.10163" lon="6.15333">
        <ele>2060.8</ele>
        <time>2021-03-10T12:56:20Z</time>
      </trkpt>
      <trkpt lat="45.1016" lon="6.15332">
        <ele>2060.4</ele>
        <time>2021-03-10T12:56:21Z</time>
      </trkpt>
      <trkpt lat="45.10159" lon="6.15331">
        <ele>2060.3</ele>
        <time>2021-03-10T12:56:22Z</time>
      </trkpt>
      <trkpt lat="45.10156" lon="6.15329">
        <ele>2059.8</ele>
        <time>2021-03-10T12:56:23Z</time>
      </trkpt>
      <trkpt lat="45.10155" lon="6.15328">
        <ele>2059.7</ele>
        <time>2021-03-10T12:56:24Z</time>
      </trkpt>
      <trkpt lat="45.10152" lon="6.15326">
        <ele>2059.1</ele>
        <time>2021-03-10T12:56:25Z</time>
      </trkpt>
      <trkpt lat="45.1015" lon="6.15325">
        <ele>2059</ele>
        <time>2021-03-10T12:56:26Z</time>
      </trkpt>
      <trkpt lat="45.10147" lon="6.15323">
        <ele>2058.4</ele>
        <time>2021-03-10T12:56:27Z</time>
      </trkpt>
      <trkpt lat="45.10146" lon="6.15322">
        <ele>2058.3</ele>
        <time>2021-03-10T12:56:28Z</time>
      </trkpt>
      <trkpt lat="45.10143" lon="6.1532">
        <ele>2057.7</ele>
        <time>2021-03-10T12:56:29Z</time>
      </trkpt>
      <trkpt lat="45.10141" lon="6.15319">
        <ele>2057.5</ele>
        <time>2021-03-10T12:56:30Z</time>
      </trkpt>
      <trkpt lat="45.10138" lon="6.15317">
        <ele>2057</ele>
        <time>2021-03-10T12:56:31Z</time>
      </trkpt>
      <trkpt lat="45.10135" lon="6.15315">
        <ele>2056.5</ele>
        <time>2021-03-10T12:56:32Z</time>
      </trkpt>
      <trkpt lat="45.10131" lon="6.15312">
        <ele>2056</ele>
        <time>2021-03-10T12:56:33Z</time>
      </trkpt>
      <trkpt lat="45.10128" lon="6.1531">
        <ele>2055.5</ele>
        <time>2021-03-10T12:56:34Z</time>
      </trkpt>
      <trkpt lat="45.10125" lon="6.15308">
        <ele>2055</ele>
        <time>2021-03-10T12:56:35Z</time>
      </trkpt>
      <trkpt lat="45.10122" lon="6.15306">
        <ele>2054.6</ele>
        <time>2021-03-10T12:56:36Z</time>
      </trkpt>
      <trkpt lat="45.10119" lon="6.15304">
        <ele>2054.2</ele>
        <time>2021-03-10T12:56:37Z</time>
      </trkpt>
      <trkpt lat="45.10117" lon="6.15302">
        <ele>2053.8</ele>
        <time>2021-03-10T12:56:38Z</time>
      </trkpt>
      <trkpt lat="45.10114" lon="6.153">
        <ele>2053.5</ele>
        <time>2021-03-10T12:56:39Z</time>
      </trkpt>
      <trkpt lat="45.10111" lon="6.15298">
        <ele>2053</ele>
        <time>2021-03-10T12:56:40Z</time>
      </trkpt>
      <trkpt lat="45.1011" lon="6.15298">
        <ele>2053</ele>
        <time>2021-03-10T12:56:41Z</time>
      </trkpt>
      <trkpt lat="45.10108" lon="6.15296">
        <ele>2051.7</ele>
        <time>2021-03-10T12:56:42Z</time>
      </trkpt>
      <trkpt lat="45.10108" lon="6.15296">
        <ele>2051.7</ele>
        <time>2021-03-10T12:56:43Z</time>
      </trkpt>
      <trkpt lat="45.10107" lon="6.15295">
        <ele>2051.7</ele>
        <time>2021-03-10T12:56:44Z</time>
      </trkpt>
      <trkpt lat="45.10106" lon="6.15294">
        <ele>2051.4</ele>
        <time>2021-03-10T12:56:45Z</time>
      </trkpt>
      <trkpt lat="45.10106" lon="6.15293">
        <ele>2051.4</ele>
        <time>2021-03-10T12:56:46Z</time>
      </trkpt>
      <trkpt lat="45.10106" lon="6.15292">
        <ele>2051.4</ele>
        <time>2021-03-10T12:56:47Z</time>
      </trkpt>
      <trkpt lat="45.10105" lon="6.15292">
        <ele>2051.4</ele>
        <time>2021-03-10T12:56:48Z</time>
      </trkpt>
      <trkpt lat="45.10105" lon="6.15291">
        <ele>2051.4</ele>
        <time>2021-03-10T12:56:49Z</time>
      </trkpt>
      <trkpt lat="45.10105" lon="6.1529">
        <ele>2051.4</ele>
        <time>2021-03-10T12:56:50Z</time>
      </trkpt>
      <trkpt lat="45.10105" lon="6.1529">
        <ele>2052.2</ele>
        <time>2021-03-10T12:56:51Z</time>
      </trkpt>
      <trkpt lat="45.10104" lon="6.15289">
        <ele>2052.2</ele>
        <time>2021-03-10T12:56:52Z</time>
      </trkpt>
      <trkpt lat="45.10104" lon="6.15289">
        <ele>2052.2</ele>
        <time>2021-03-10T12:56:53Z</time>
      </trkpt>
      <trkpt lat="45.10104" lon="6.15288">
        <ele>2052.2</ele>
        <time>2021-03-10T12:56:54Z</time>
      </trkpt>
      <trkpt lat="45.10104" lon="6.15287">
        <ele>2052.1</ele>
        <time>2021-03-10T12:56:55Z</time>
      </trkpt>
      <trkpt lat="45.10104" lon="6.15286">
        <ele>2052.1</ele>
        <time>2021-03-10T12:56:56Z</time>
      </trkpt>
      <trkpt lat="45.10104" lon="6.15286">
        <ele>2052.9</ele>
        <time>2021-03-10T12:56:57Z</time>
      </trkpt>
      <trkpt lat="45.10104" lon="6.15285">
        <ele>2052.9</ele>
        <time>2021-03-10T12:56:58Z</time>
      </trkpt>
      <trkpt lat="45.10103" lon="6.15282">
        <ele>2051.7</ele>
        <time>2021-03-10T12:57:00Z</time>
      </trkpt>
      <trkpt lat="45.10102" lon="6.15281">
        <ele>2052.4</ele>
        <time>2021-03-10T12:57:01Z</time>
      </trkpt>
      <trkpt lat="45.10102" lon="6.15279">
        <ele>2052.4</ele>
        <time>2021-03-10T12:57:02Z</time>
      </trkpt>
      <trkpt lat="45.10101" lon="6.15278">
        <ele>2052.3</ele>
        <time>2021-03-10T12:57:03Z</time>
      </trkpt>
      <trkpt lat="45.10101" lon="6.15276">
        <ele>2053</ele>
        <time>2021-03-10T12:57:04Z</time>
      </trkpt>
      <trkpt lat="45.10101" lon="6.15275">
        <ele>2053</ele>
        <time>2021-03-10T12:57:05Z</time>
      </trkpt>
      <trkpt lat="45.101" lon="6.15274">
        <ele>2051.8</ele>
        <time>2021-03-10T12:57:06Z</time>
      </trkpt>
      <trkpt lat="45.10099" lon="6.15272">
        <ele>2052.4</ele>
        <time>2021-03-10T12:57:07Z</time>
      </trkpt>
      <trkpt lat="45.10099" lon="6.1527">
        <ele>2052.4</ele>
        <time>2021-03-10T12:57:08Z</time>
      </trkpt>
      <trkpt lat="45.10098" lon="6.15268">
        <ele>2053</ele>
        <time>2021-03-10T12:57:09Z</time>
      </trkpt>
      <trkpt lat="45.10098" lon="6.15267">
        <ele>2053</ele>
        <time>2021-03-10T12:57:10Z</time>
      </trkpt>
      <trkpt lat="45.10097" lon="6.15266">
        <ele>2053</ele>
        <time>2021-03-10T12:57:11Z</time>
      </trkpt>
      <trkpt lat="45.10097" lon="6.15265">
        <ele>2051.8</ele>
        <time>2021-03-10T12:57:12Z</time>
      </trkpt>
      <trkpt lat="45.10097" lon="6.15264">
        <ele>2052.4</ele>
        <time>2021-03-10T12:57:13Z</time>
      </trkpt>
      <trkpt lat="45.10096" lon="6.15263">
        <ele>2052.4</ele>
        <time>2021-03-10T12:57:14Z</time>
      </trkpt>
      <trkpt lat="45.10096" lon="6.15262">
        <ele>2052.4</ele>
        <time>2021-03-10T12:57:15Z</time>
      </trkpt>
      <trkpt lat="45.10095" lon="6.15261">
        <ele>2052.4</ele>
        <time>2021-03-10T12:57:16Z</time>
      </trkpt>
      <trkpt lat="45.10094" lon="6.1526">
        <ele>2051.9</ele>
        <time>2021-03-10T12:57:17Z</time>
      </trkpt>
      <trkpt lat="45.10094" lon="6.15259">
        <ele>2051.9</ele>
        <time>2021-03-10T12:57:18Z</time>
      </trkpt>
      <trkpt lat="45.10093" lon="6.15258">
        <ele>2051.8</ele>
        <time>2021-03-10T12:57:19Z</time>
      </trkpt>
      <trkpt lat="45.10093" lon="6.15257">
        <ele>2051.8</ele>
        <time>2021-03-10T12:57:20Z</time>
      </trkpt>
      <trkpt lat="45.10093" lon="6.15257">
        <ele>2051.8</ele>
        <time>2021-03-10T12:57:21Z</time>
      </trkpt>
      <trkpt lat="45.10093" lon="6.15256">
        <ele>2051.8</ele>
        <time>2021-03-10T12:57:22Z</time>
      </trkpt>
      <trkpt lat="45.10093" lon="6.15256">
        <ele>2051.8</ele>
        <time>2021-03-10T12:57:23Z</time>
      </trkpt>
      <trkpt lat="45.10093" lon="6.15256">
        <ele>2051.8</ele>
        <time>2021-03-10T12:57:24Z</time>
      </trkpt>
      <trkpt lat="45.10093" lon="6.15256">
        <ele>2051.8</ele>
        <time>2021-03-10T12:57:25Z</time>
      </trkpt>
      <trkpt lat="45.10093" lon="6.15256">
        <ele>2051.7</ele>
        <time>2021-03-10T12:57:26Z</time>
      </trkpt>
      <trkpt lat="45.10093" lon="6.15256">
        <ele>2051.7</ele>
        <time>2021-03-10T12:57:27Z</time>
      </trkpt>
      <trkpt lat="45.10093" lon="6.15256">
        <ele>2051.7</ele>
        <time>2021-03-10T12:57:28Z</time>
      </trkpt>
      <trkpt lat="45.10093" lon="6.15256">
        <ele>2051.7</ele>
        <time>2021-03-10T12:57:29Z</time>
      </trkpt>
      <trkpt lat="45.10091" lon="6.15256">
        <ele>2050.5</ele>
        <time>2021-03-10T12:57:47Z</time>
      </trkpt>
      <trkpt lat="45.1009" lon="6.15255">
        <ele>2051.2</ele>
        <time>2021-03-10T12:57:48Z</time>
      </trkpt>
      <trkpt lat="45.1009" lon="6.15254">
        <ele>2051.2</ele>
        <time>2021-03-10T12:57:49Z</time>
      </trkpt>
      <trkpt lat="45.1009" lon="6.15253">
        <ele>2051.2</ele>
        <time>2021-03-10T12:57:50Z</time>
      </trkpt>
      <trkpt lat="45.10089" lon="6.15252">
        <ele>2051.2</ele>
        <time>2021-03-10T12:57:51Z</time>
      </trkpt>
      <trkpt lat="45.10089" lon="6.15251">
        <ele>2051.8</ele>
        <time>2021-03-10T12:57:52Z</time>
      </trkpt>
      <trkpt lat="45.10089" lon="6.1525">
        <ele>2051.8</ele>
        <time>2021-03-10T12:57:53Z</time>
      </trkpt>
      <trkpt lat="45.10088" lon="6.15249">
        <ele>2051.8</ele>
        <time>2021-03-10T12:57:54Z</time>
      </trkpt>
      <trkpt lat="45.10088" lon="6.15248">
        <ele>2051.8</ele>
        <time>2021-03-10T12:57:55Z</time>
      </trkpt>
      <trkpt lat="45.10088" lon="6.15247">
        <ele>2052.4</ele>
        <time>2021-03-10T12:57:56Z</time>
      </trkpt>
      <trkpt lat="45.10088" lon="6.15247">
        <ele>2052.4</ele>
        <time>2021-03-10T12:57:57Z</time>
      </trkpt>
      <trkpt lat="45.10088" lon="6.15246">
        <ele>2052.4</ele>
        <time>2021-03-10T12:57:58Z</time>
      </trkpt>
      <trkpt lat="45.10089" lon="6.15245">
        <ele>2052.4</ele>
        <time>2021-03-10T12:57:59Z</time>
      </trkpt>
      <trkpt lat="45.10089" lon="6.15244">
        <ele>2052.4</ele>
        <time>2021-03-10T12:58:00Z</time>
      </trkpt>
      <trkpt lat="45.10089" lon="6.15243">
        <ele>2052.4</ele>
        <time>2021-03-10T12:58:01Z</time>
      </trkpt>
      <trkpt lat="45.10089" lon="6.15242">
        <ele>2053</ele>
        <time>2021-03-10T12:58:02Z</time>
      </trkpt>
      <trkpt lat="45.10089" lon="6.15241">
        <ele>2053</ele>
        <time>2021-03-10T12:58:03Z</time>
      </trkpt>
      <trkpt lat="45.10089" lon="6.1524">
        <ele>2053</ele>
        <time>2021-03-10T12:58:04Z</time>
      </trkpt>
      <trkpt lat="45.10088" lon="6.15239">
        <ele>2052.9</ele>
        <time>2021-03-10T12:58:05Z</time>
      </trkpt>
      <trkpt lat="45.10088" lon="6.15238">
        <ele>2052.4</ele>
        <time>2021-03-10T12:58:06Z</time>
      </trkpt>
      <trkpt lat="45.10088" lon="6.15237">
        <ele>2052.4</ele>
        <time>2021-03-10T12:58:07Z</time>
      </trkpt>
      <trkpt lat="45.10088" lon="6.15236">
        <ele>2052.4</ele>
        <time>2021-03-10T12:58:08Z</time>
      </trkpt>
      <trkpt lat="45.10088" lon="6.15235">
        <ele>2052.4</ele>
        <time>2021-03-10T12:58:09Z</time>
      </trkpt>
      <trkpt lat="45.10088" lon="6.15234">
        <ele>2053.3</ele>
        <time>2021-03-10T12:58:10Z</time>
      </trkpt>
      <trkpt lat="45.10088" lon="6.15234">
        <ele>2054.4</ele>
        <time>2021-03-10T12:58:11Z</time>
      </trkpt>
      <trkpt lat="45.10088" lon="6.15234">
        <ele>2053.3</ele>
        <time>2021-03-10T12:58:12Z</time>
      </trkpt>
      <trkpt lat="45.10088" lon="6.15233">
        <ele>2053.3</ele>
        <time>2021-03-10T12:58:13Z</time>
      </trkpt>
      <trkpt lat="45.10088" lon="6.15232">
        <ele>2053.3</ele>
        <time>2021-03-10T12:58:14Z</time>
      </trkpt>
      <trkpt lat="45.10088" lon="6.15231">
        <ele>2053.3</ele>
        <time>2021-03-10T12:58:15Z</time>
      </trkpt>
      <trkpt lat="45.10088" lon="6.15231">
        <ele>2053.2</ele>
        <time>2021-03-10T12:58:16Z</time>
      </trkpt>
      <trkpt lat="45.10087" lon="6.1523">
        <ele>2053.2</ele>
        <time>2021-03-10T12:58:17Z</time>
      </trkpt>
      <trkpt lat="45.10087" lon="6.1523">
        <ele>2053.2</ele>
        <time>2021-03-10T12:58:18Z</time>
      </trkpt>
      <trkpt lat="45.10087" lon="6.1523">
        <ele>2053.2</ele>
        <time>2021-03-10T12:58:19Z</time>
      </trkpt>
      <trkpt lat="45.10086" lon="6.1523">
        <ele>2053.8</ele>
        <time>2021-03-10T12:58:20Z</time>
      </trkpt>
      <trkpt lat="45.10086" lon="6.1523">
        <ele>2053.8</ele>
        <time>2021-03-10T12:58:21Z</time>
      </trkpt>
      <trkpt lat="45.10086" lon="6.1523">
        <ele>2053.8</ele>
        <time>2021-03-10T12:58:22Z</time>
      </trkpt>
      <trkpt lat="45.10086" lon="6.1523">
        <ele>2053.8</ele>
        <time>2021-03-10T12:58:23Z</time>
      </trkpt>
      <trkpt lat="45.10086" lon="6.1523">
        <ele>2053.8</ele>
        <time>2021-03-10T12:58:24Z</time>
      </trkpt>
      <trkpt lat="45.10086" lon="6.1523">
        <ele>2053.8</ele>
        <time>2021-03-10T12:58:25Z</time>
      </trkpt>
      <trkpt lat="45.1008" lon="6.15225">
        <ele>2052.3</ele>
        <time>2021-03-10T12:59:26Z</time>
      </trkpt>
      <trkpt lat="45.1008" lon="6.15225">
        <ele>2052.3</ele>
        <time>2021-03-10T12:59:27Z</time>
      </trkpt>
      <trkpt lat="45.10079" lon="6.15224">
        <ele>2052.3</ele>
        <time>2021-03-10T12:59:28Z</time>
      </trkpt>
      <trkpt lat="45.10079" lon="6.15223">
        <ele>2052.3</ele>
        <time>2021-03-10T12:59:29Z</time>
      </trkpt>
      <trkpt lat="45.10079" lon="6.15222">
        <ele>2051.2</ele>
        <time>2021-03-10T12:59:30Z</time>
      </trkpt>
      <trkpt lat="45.10079" lon="6.15222">
        <ele>2051.2</ele>
        <time>2021-03-10T12:59:31Z</time>
      </trkpt>
      <trkpt lat="45.10079" lon="6.15221">
        <ele>2052</ele>
        <time>2021-03-10T12:59:32Z</time>
      </trkpt>
      <trkpt lat="45.10078" lon="6.1522">
        <ele>2052</ele>
        <time>2021-03-10T12:59:33Z</time>
      </trkpt>
      <trkpt lat="45.10078" lon="6.15219">
        <ele>2052</ele>
        <time>2021-03-10T12:59:34Z</time>
      </trkpt>
      <trkpt lat="45.10078" lon="6.15219">
        <ele>2052</ele>
        <time>2021-03-10T12:59:35Z</time>
      </trkpt>
      <trkpt lat="45.10078" lon="6.15218">
        <ele>2052</ele>
        <time>2021-03-10T12:59:36Z</time>
      </trkpt>
      <trkpt lat="45.10078" lon="6.15218">
        <ele>2051.9</ele>
        <time>2021-03-10T12:59:37Z</time>
      </trkpt>
      <trkpt lat="45.10078" lon="6.15218">
        <ele>2051.9</ele>
        <time>2021-03-10T12:59:38Z</time>
      </trkpt>
      <trkpt lat="45.10077" lon="6.15216">
        <ele>2052.8</ele>
        <time>2021-03-10T12:59:39Z</time>
      </trkpt>
      <trkpt lat="45.10077" lon="6.15215">
        <ele>2052.8</ele>
        <time>2021-03-10T12:59:40Z</time>
      </trkpt>
      <trkpt lat="45.10077" lon="6.15214">
        <ele>2052.8</ele>
        <time>2021-03-10T12:59:41Z</time>
      </trkpt>
      <trkpt lat="45.10077" lon="6.15213">
        <ele>2053.7</ele>
        <time>2021-03-10T12:59:42Z</time>
      </trkpt>
      <trkpt lat="45.10076" lon="6.15211">
        <ele>2053.7</ele>
        <time>2021-03-10T12:59:43Z</time>
      </trkpt>
      <trkpt lat="45.10076" lon="6.15209">
        <ele>2052.7</ele>
        <time>2021-03-10T12:59:44Z</time>
      </trkpt>
      <trkpt lat="45.10076" lon="6.15208">
        <ele>2053.7</ele>
        <time>2021-03-10T12:59:45Z</time>
      </trkpt>
      <trkpt lat="45.10076" lon="6.15207">
        <ele>2053.6</ele>
        <time>2021-03-10T12:59:46Z</time>
      </trkpt>
      <trkpt lat="45.10075" lon="6.15206">
        <ele>2053.6</ele>
        <time>2021-03-10T12:59:47Z</time>
      </trkpt>
      <trkpt lat="45.10074" lon="6.15205">
        <ele>2053.6</ele>
        <time>2021-03-10T12:59:48Z</time>
      </trkpt>
      <trkpt lat="45.10073" lon="6.15204">
        <ele>2054.6</ele>
        <time>2021-03-10T12:59:49Z</time>
      </trkpt>
      <trkpt lat="45.10072" lon="6.15203">
        <ele>2053.7</ele>
        <time>2021-03-10T12:59:50Z</time>
      </trkpt>
      <trkpt lat="45.10072" lon="6.15202">
        <ele>2053.7</ele>
        <time>2021-03-10T12:59:51Z</time>
      </trkpt>
      <trkpt lat="45.10071" lon="6.15201">
        <ele>2053.7</ele>
        <time>2021-03-10T12:59:52Z</time>
      </trkpt>
      <trkpt lat="45.1007" lon="6.152">
        <ele>2053.9</ele>
        <time>2021-03-10T12:59:53Z</time>
      </trkpt>
      <trkpt lat="45.10069" lon="6.15199">
        <ele>2053.9</ele>
        <time>2021-03-10T12:59:54Z</time>
      </trkpt>
      <trkpt lat="45.10068" lon="6.15198">
        <ele>2053.9</ele>
        <time>2021-03-10T12:59:55Z</time>
      </trkpt>
      <trkpt lat="45.10067" lon="6.15196">
        <ele>2053.2</ele>
        <time>2021-03-10T12:59:56Z</time>
      </trkpt>
      <trkpt lat="45.10066" lon="6.15195">
        <ele>2054.2</ele>
        <time>2021-03-10T12:59:57Z</time>
      </trkpt>
      <trkpt lat="45.10065" lon="6.15193">
        <ele>2054.2</ele>
        <time>2021-03-10T12:59:58Z</time>
      </trkpt>
      <trkpt lat="45.10064" lon="6.15192">
        <ele>2053.5</ele>
        <time>2021-03-10T12:59:59Z</time>
      </trkpt>
      <trkpt lat="45.10062" lon="6.15191">
        <ele>2054.4</ele>
        <time>2021-03-10T13:00:00Z</time>
      </trkpt>
      <trkpt lat="45.10061" lon="6.15189">
        <ele>2053.7</ele>
        <time>2021-03-10T13:00:01Z</time>
      </trkpt>
      <trkpt lat="45.1006" lon="6.15188">
        <ele>2053.7</ele>
        <time>2021-03-10T13:00:02Z</time>
      </trkpt>
      <trkpt lat="45.1006" lon="6.15187">
        <ele>2054.7</ele>
        <time>2021-03-10T13:00:03Z</time>
      </trkpt>
      <trkpt lat="45.10058" lon="6.15185">
        <ele>2053.9</ele>
        <time>2021-03-10T13:00:04Z</time>
      </trkpt>
      <trkpt lat="45.10057" lon="6.15184">
        <ele>2053.9</ele>
        <time>2021-03-10T13:00:05Z</time>
      </trkpt>
      <trkpt lat="45.10056" lon="6.15183">
        <ele>2053.9</ele>
        <time>2021-03-10T13:00:06Z</time>
      </trkpt>
      <trkpt lat="45.10052" lon="6.15182">
        <ele>2054.2</ele>
        <time>2021-03-10T13:00:07Z</time>
      </trkpt>
      <trkpt lat="45.10049" lon="6.15182">
        <ele>2053.5</ele>
        <time>2021-03-10T13:00:08Z</time>
      </trkpt>
      <trkpt lat="45.10046" lon="6.15182">
        <ele>2052.4</ele>
        <time>2021-03-10T13:00:09Z</time>
      </trkpt>
      <trkpt lat="45.10043" lon="6.15183">
        <ele>2051.3</ele>
        <time>2021-03-10T13:00:10Z</time>
      </trkpt>
      <trkpt lat="45.1004" lon="6.15184">
        <ele>2050.8</ele>
        <time>2021-03-10T13:00:11Z</time>
      </trkpt>
      <trkpt lat="45.10039" lon="6.15185">
        <ele>2050.3</ele>
        <time>2021-03-10T13:00:12Z</time>
      </trkpt>
      <trkpt lat="45.10036" lon="6.15185">
        <ele>2049.7</ele>
        <time>2021-03-10T13:00:13Z</time>
      </trkpt>
      <trkpt lat="45.10034" lon="6.15186">
        <ele>2049.7</ele>
        <time>2021-03-10T13:00:14Z</time>
      </trkpt>
      <trkpt lat="45.1003" lon="6.15187">
        <ele>2048.5</ele>
        <time>2021-03-10T13:00:15Z</time>
      </trkpt>
      <trkpt lat="45.10029" lon="6.15187">
        <ele>2048.5</ele>
        <time>2021-03-10T13:00:16Z</time>
      </trkpt>
      <trkpt lat="45.10026" lon="6.15188">
        <ele>2046.9</ele>
        <time>2021-03-10T13:00:17Z</time>
      </trkpt>
      <trkpt lat="45.10025" lon="6.15188">
        <ele>2046.8</ele>
        <time>2021-03-10T13:00:18Z</time>
      </trkpt>
      <trkpt lat="45.10023" lon="6.15188">
        <ele>2046.3</ele>
        <time>2021-03-10T13:00:19Z</time>
      </trkpt>
      <trkpt lat="45.10022" lon="6.15187">
        <ele>2047.4</ele>
        <time>2021-03-10T13:00:20Z</time>
      </trkpt>
      <trkpt lat="45.10021" lon="6.15186">
        <ele>2046.9</ele>
        <time>2021-03-10T13:00:21Z</time>
      </trkpt>
      <trkpt lat="45.10019" lon="6.15185">
        <ele>2046.9</ele>
        <time>2021-03-10T13:00:22Z</time>
      </trkpt>
      <trkpt lat="45.10016" lon="6.15183">
        <ele>2046.5</ele>
        <time>2021-03-10T13:00:23Z</time>
      </trkpt>
      <trkpt lat="45.10015" lon="6.15182">
        <ele>2047.3</ele>
        <time>2021-03-10T13:00:24Z</time>
      </trkpt>
      <trkpt lat="45.10013" lon="6.1518">
        <ele>2047.3</ele>
        <time>2021-03-10T13:00:25Z</time>
      </trkpt>
      <trkpt lat="45.1001" lon="6.15178">
        <ele>2048.2</ele>
        <time>2021-03-10T13:00:26Z</time>
      </trkpt>
      <trkpt lat="45.10006" lon="6.15174">
        <ele>2049</ele>
        <time>2021-03-10T13:00:27Z</time>
      </trkpt>
      <trkpt lat="45.10001" lon="6.1517">
        <ele>2048.8</ele>
        <time>2021-03-10T13:00:28Z</time>
      </trkpt>
      <trkpt lat="45.09996" lon="6.15167">
        <ele>2049.9</ele>
        <time>2021-03-10T13:00:29Z</time>
      </trkpt>
      <trkpt lat="45.0999" lon="6.15165">
        <ele>2051.1</ele>
        <time>2021-03-10T13:00:30Z</time>
      </trkpt>
      <trkpt lat="45.09985" lon="6.15163">
        <ele>2050.9</ele>
        <time>2021-03-10T13:00:31Z</time>
      </trkpt>
      <trkpt lat="45.09981" lon="6.15162">
        <ele>2050.6</ele>
        <time>2021-03-10T13:00:32Z</time>
      </trkpt>
      <trkpt lat="45.09976" lon="6.15162">
        <ele>2050.2</ele>
        <time>2021-03-10T13:00:33Z</time>
      </trkpt>
      <trkpt lat="45.09971" lon="6.15162">
        <ele>2050</ele>
        <time>2021-03-10T13:00:34Z</time>
      </trkpt>
      <trkpt lat="45.09967" lon="6.15163">
        <ele>2049.6</ele>
        <time>2021-03-10T13:00:35Z</time>
      </trkpt>
      <trkpt lat="45.09963" lon="6.15166">
        <ele>2049.4</ele>
        <time>2021-03-10T13:00:36Z</time>
      </trkpt>
      <trkpt lat="45.0996" lon="6.15169">
        <ele>2047.6</ele>
        <time>2021-03-10T13:00:37Z</time>
      </trkpt>
      <trkpt lat="45.09955" lon="6.15172">
        <ele>2045.9</ele>
        <time>2021-03-10T13:00:38Z</time>
      </trkpt>
      <trkpt lat="45.09951" lon="6.15174">
        <ele>2045.7</ele>
        <time>2021-03-10T13:00:39Z</time>
      </trkpt>
      <trkpt lat="45.09946" lon="6.15176">
        <ele>2044.1</ele>
        <time>2021-03-10T13:00:40Z</time>
      </trkpt>
      <trkpt lat="45.09943" lon="6.15179">
        <ele>2042.3</ele>
        <time>2021-03-10T13:00:41Z</time>
      </trkpt>
      <trkpt lat="45.09939" lon="6.15181">
        <ele>2042.2</ele>
        <time>2021-03-10T13:00:42Z</time>
      </trkpt>
      <trkpt lat="45.09936" lon="6.15183">
        <ele>2042</ele>
        <time>2021-03-10T13:00:43Z</time>
      </trkpt>
      <trkpt lat="45.09933" lon="6.15184">
        <ele>2040.4</ele>
        <time>2021-03-10T13:00:44Z</time>
      </trkpt>
      <trkpt lat="45.09931" lon="6.15186">
        <ele>2040.3</ele>
        <time>2021-03-10T13:00:45Z</time>
      </trkpt>
      <trkpt lat="45.09928" lon="6.15187">
        <ele>2040.3</ele>
        <time>2021-03-10T13:00:46Z</time>
      </trkpt>
      <trkpt lat="45.09924" lon="6.15188">
        <ele>2038.4</ele>
        <time>2021-03-10T13:00:47Z</time>
      </trkpt>
      <trkpt lat="45.09923" lon="6.15188">
        <ele>2038.3</ele>
        <time>2021-03-10T13:00:48Z</time>
      </trkpt>
      <trkpt lat="45.09919" lon="6.15188">
        <ele>2038.1</ele>
        <time>2021-03-10T13:00:49Z</time>
      </trkpt>
      <trkpt lat="45.09916" lon="6.15188">
        <ele>2037.8</ele>
        <time>2021-03-10T13:00:50Z</time>
      </trkpt>
      <trkpt lat="45.09912" lon="6.15188">
        <ele>2037.2</ele>
        <time>2021-03-10T13:00:51Z</time>
      </trkpt>
      <trkpt lat="45.09909" lon="6.15187">
        <ele>2038.5</ele>
        <time>2021-03-10T13:00:52Z</time>
      </trkpt>
      <trkpt lat="45.09906" lon="6.15186">
        <ele>2038.1</ele>
        <time>2021-03-10T13:00:53Z</time>
      </trkpt>
      <trkpt lat="45.09903" lon="6.15186">
        <ele>2037.8</ele>
        <time>2021-03-10T13:00:54Z</time>
      </trkpt>
      <trkpt lat="45.099" lon="6.15185">
        <ele>2037.4</ele>
        <time>2021-03-10T13:00:55Z</time>
      </trkpt>
      <trkpt lat="45.09897" lon="6.15185">
        <ele>2037.1</ele>
        <time>2021-03-10T13:00:56Z</time>
      </trkpt>
      <trkpt lat="45.09893" lon="6.15184">
        <ele>2036.6</ele>
        <time>2021-03-10T13:00:57Z</time>
      </trkpt>
      <trkpt lat="45.09892" lon="6.15184">
        <ele>2036.6</ele>
        <time>2021-03-10T13:00:58Z</time>
      </trkpt>
      <trkpt lat="45.09888" lon="6.15183">
        <ele>2035.6</ele>
        <time>2021-03-10T13:00:59Z</time>
      </trkpt>
      <trkpt lat="45.09886" lon="6.15183">
        <ele>2037.3</ele>
        <time>2021-03-10T13:01:00Z</time>
      </trkpt>
      <trkpt lat="45.09884" lon="6.15182">
        <ele>2036.8</ele>
        <time>2021-03-10T13:01:01Z</time>
      </trkpt>
      <trkpt lat="45.0988" lon="6.15181">
        <ele>2036.2</ele>
        <time>2021-03-10T13:01:02Z</time>
      </trkpt>
      <trkpt lat="45.09876" lon="6.1518">
        <ele>2035.7</ele>
        <time>2021-03-10T13:01:03Z</time>
      </trkpt>
      <trkpt lat="45.09873" lon="6.1518">
        <ele>2034.8</ele>
        <time>2021-03-10T13:01:04Z</time>
      </trkpt>
      <trkpt lat="45.09869" lon="6.15179">
        <ele>2034.3</ele>
        <time>2021-03-10T13:01:05Z</time>
      </trkpt>
      <trkpt lat="45.09866" lon="6.15179">
        <ele>2033.7</ele>
        <time>2021-03-10T13:01:06Z</time>
      </trkpt>
      <trkpt lat="45.09865" lon="6.1518">
        <ele>2033.7</ele>
        <time>2021-03-10T13:01:07Z</time>
      </trkpt>
      <trkpt lat="45.09861" lon="6.1518">
        <ele>2033.1</ele>
        <time>2021-03-10T13:01:08Z</time>
      </trkpt>
      <trkpt lat="45.0986" lon="6.15181">
        <ele>2032.4</ele>
        <time>2021-03-10T13:01:09Z</time>
      </trkpt>
      <trkpt lat="45.09857" lon="6.15182">
        <ele>2031.7</ele>
        <time>2021-03-10T13:01:10Z</time>
      </trkpt>
      <trkpt lat="45.09856" lon="6.15182">
        <ele>2031.7</ele>
        <time>2021-03-10T13:01:11Z</time>
      </trkpt>
      <trkpt lat="45.09853" lon="6.15183">
        <ele>2031.1</ele>
        <time>2021-03-10T13:01:12Z</time>
      </trkpt>
      <trkpt lat="45.0985" lon="6.15183">
        <ele>2028.6</ele>
        <time>2021-03-10T13:01:13Z</time>
      </trkpt>
      <trkpt lat="45.09847" lon="6.15183">
        <ele>2028</ele>
        <time>2021-03-10T13:01:14Z</time>
      </trkpt>
      <trkpt lat="45.09844" lon="6.15183">
        <ele>2029.2</ele>
        <time>2021-03-10T13:01:15Z</time>
      </trkpt>
      <trkpt lat="45.09841" lon="6.15181">
        <ele>2028.4</ele>
        <time>2021-03-10T13:01:16Z</time>
      </trkpt>
      <trkpt lat="45.0984" lon="6.15181">
        <ele>2028.4</ele>
        <time>2021-03-10T13:01:17Z</time>
      </trkpt>
      <trkpt lat="45.09837" lon="6.1518">
        <ele>2026.7</ele>
        <time>2021-03-10T13:01:18Z</time>
      </trkpt>
      <trkpt lat="45.09835" lon="6.15179">
        <ele>2026.7</ele>
        <time>2021-03-10T13:01:19Z</time>
      </trkpt>
      <trkpt lat="45.09832" lon="6.15178">
        <ele>2027.6</ele>
        <time>2021-03-10T13:01:20Z</time>
      </trkpt>
      <trkpt lat="45.09829" lon="6.15178">
        <ele>2026.7</ele>
        <time>2021-03-10T13:01:21Z</time>
      </trkpt>
      <trkpt lat="45.09826" lon="6.15177">
        <ele>2025.9</ele>
        <time>2021-03-10T13:01:22Z</time>
      </trkpt>
      <trkpt lat="45.09822" lon="6.15176">
        <ele>2025</ele>
        <time>2021-03-10T13:01:23Z</time>
      </trkpt>
      <trkpt lat="45.09819" lon="6.15175">
        <ele>2024.2</ele>
        <time>2021-03-10T13:01:24Z</time>
      </trkpt>
      <trkpt lat="45.09816" lon="6.15175">
        <ele>2023.4</ele>
        <time>2021-03-10T13:01:25Z</time>
      </trkpt>
      <trkpt lat="45.09813" lon="6.15174">
        <ele>2024.3</ele>
        <time>2021-03-10T13:01:26Z</time>
      </trkpt>
      <trkpt lat="45.0981" lon="6.15173">
        <ele>2023.4</ele>
        <time>2021-03-10T13:01:27Z</time>
      </trkpt>
      <trkpt lat="45.09807" lon="6.15172">
        <ele>2022.5</ele>
        <time>2021-03-10T13:01:28Z</time>
      </trkpt>
      <trkpt lat="45.09804" lon="6.15171">
        <ele>2021.4</ele>
        <time>2021-03-10T13:01:29Z</time>
      </trkpt>
      <trkpt lat="45.09801" lon="6.1517">
        <ele>2022.2</ele>
        <time>2021-03-10T13:01:30Z</time>
      </trkpt>
      <trkpt lat="45.09799" lon="6.15169">
        <ele>2021.1</ele>
        <time>2021-03-10T13:01:31Z</time>
      </trkpt>
      <trkpt lat="45.09796" lon="6.15167">
        <ele>2020</ele>
        <time>2021-03-10T13:01:32Z</time>
      </trkpt>
      <trkpt lat="45.09792" lon="6.15165">
        <ele>2020.8</ele>
        <time>2021-03-10T13:01:33Z</time>
      </trkpt>
      <trkpt lat="45.09791" lon="6.15165">
        <ele>2019.7</ele>
        <time>2021-03-10T13:01:34Z</time>
      </trkpt>
      <trkpt lat="45.09787" lon="6.15162">
        <ele>2018.7</ele>
        <time>2021-03-10T13:01:35Z</time>
      </trkpt>
      <trkpt lat="45.09786" lon="6.15162">
        <ele>2018.7</ele>
        <time>2021-03-10T13:01:36Z</time>
      </trkpt>
      <trkpt lat="45.09784" lon="6.1516">
        <ele>2019.4</ele>
        <time>2021-03-10T13:01:37Z</time>
      </trkpt>
      <trkpt lat="45.09783" lon="6.15159">
        <ele>2019.4</ele>
        <time>2021-03-10T13:01:38Z</time>
      </trkpt>
      <trkpt lat="45.09782" lon="6.15158">
        <ele>2018.2</ele>
        <time>2021-03-10T13:01:39Z</time>
      </trkpt>
      <trkpt lat="45.09781" lon="6.15157">
        <ele>2019.9</ele>
        <time>2021-03-10T13:01:40Z</time>
      </trkpt>
      <trkpt lat="45.09779" lon="6.15156">
        <ele>2019.8</ele>
        <time>2021-03-10T13:01:41Z</time>
      </trkpt>
      <trkpt lat="45.09778" lon="6.15155">
        <ele>2018.5</ele>
        <time>2021-03-10T13:01:42Z</time>
      </trkpt>
      <trkpt lat="45.09776" lon="6.15153">
        <ele>2017.2</ele>
        <time>2021-03-10T13:01:43Z</time>
      </trkpt>
      <trkpt lat="45.09775" lon="6.15153">
        <ele>2018.8</ele>
        <time>2021-03-10T13:01:44Z</time>
      </trkpt>
      <trkpt lat="45.09772" lon="6.15151">
        <ele>2017.4</ele>
        <time>2021-03-10T13:01:45Z</time>
      </trkpt>
      <trkpt lat="45.09771" lon="6.1515">
        <ele>2017.4</ele>
        <time>2021-03-10T13:01:46Z</time>
      </trkpt>
      <trkpt lat="45.0977" lon="6.15149">
        <ele>2016.1</ele>
        <time>2021-03-10T13:01:47Z</time>
      </trkpt>
      <trkpt lat="45.09769" lon="6.15148">
        <ele>2017.7</ele>
        <time>2021-03-10T13:01:48Z</time>
      </trkpt>
      <trkpt lat="45.09768" lon="6.15147">
        <ele>2017.7</ele>
        <time>2021-03-10T13:01:49Z</time>
      </trkpt>
      <trkpt lat="45.09768" lon="6.15147">
        <ele>2017.7</ele>
        <time>2021-03-10T13:01:50Z</time>
      </trkpt>
      <trkpt lat="45.09768" lon="6.15147">
        <ele>2017.7</ele>
        <time>2021-03-10T13:01:51Z</time>
      </trkpt>
      <trkpt lat="45.09768" lon="6.15147">
        <ele>2017.7</ele>
        <time>2021-03-10T13:01:52Z</time>
      </trkpt>
      <trkpt lat="45.09768" lon="6.15147">
        <ele>2017.7</ele>
        <time>2021-03-10T13:01:53Z</time>
      </trkpt>
      <trkpt lat="45.09768" lon="6.15147">
        <ele>2017.6</ele>
        <time>2021-03-10T13:01:54Z</time>
      </trkpt>
      <trkpt lat="45.09768" lon="6.15147">
        <ele>2017.6</ele>
        <time>2021-03-10T13:01:55Z</time>
      </trkpt>
      <trkpt lat="45.09768" lon="6.15147">
        <ele>2017.6</ele>
        <time>2021-03-10T13:01:56Z</time>
      </trkpt>
      <trkpt lat="45.09768" lon="6.15147">
        <ele>2017.6</ele>
        <time>2021-03-10T13:01:57Z</time>
      </trkpt>
      <trkpt lat="45.09768" lon="6.15147">
        <ele>2017.6</ele>
        <time>2021-03-10T13:01:58Z</time>
      </trkpt>
      <trkpt lat="45.09768" lon="6.15147">
        <ele>2017.6</ele>
        <time>2021-03-10T13:01:59Z</time>
      </trkpt>
      <trkpt lat="45.09762" lon="6.15137">
        <ele>2018.4</ele>
        <time>2021-03-10T13:02:16Z</time>
      </trkpt>
      <trkpt lat="45.09761" lon="6.15137">
        <ele>2018.4</ele>
        <time>2021-03-10T13:02:17Z</time>
      </trkpt>
      <trkpt lat="45.09761" lon="6.15136">
        <ele>2018.4</ele>
        <time>2021-03-10T13:02:18Z</time>
      </trkpt>
      <trkpt lat="45.09761" lon="6.15135">
        <ele>2018.8</ele>
        <time>2021-03-10T13:02:19Z</time>
      </trkpt>
      <trkpt lat="45.09761" lon="6.15135">
        <ele>2018.8</ele>
        <time>2021-03-10T13:02:20Z</time>
      </trkpt>
      <trkpt lat="45.0976" lon="6.15134">
        <ele>2018.8</ele>
        <time>2021-03-10T13:02:21Z</time>
      </trkpt>
      <trkpt lat="45.0976" lon="6.15134">
        <ele>2018.8</ele>
        <time>2021-03-10T13:02:22Z</time>
      </trkpt>
      <trkpt lat="45.0976" lon="6.15133">
        <ele>2018.8</ele>
        <time>2021-03-10T13:02:23Z</time>
      </trkpt>
      <trkpt lat="45.0976" lon="6.15132">
        <ele>2018.8</ele>
        <time>2021-03-10T13:02:24Z</time>
      </trkpt>
      <trkpt lat="45.0976" lon="6.15132">
        <ele>2018.8</ele>
        <time>2021-03-10T13:02:25Z</time>
      </trkpt>
      <trkpt lat="45.0976" lon="6.15132">
        <ele>2018.7</ele>
        <time>2021-03-10T13:02:26Z</time>
      </trkpt>
      <trkpt lat="45.0976" lon="6.15132">
        <ele>2018.7</ele>
        <time>2021-03-10T13:02:27Z</time>
      </trkpt>
      <trkpt lat="45.0976" lon="6.15131">
        <ele>2020.5</ele>
        <time>2021-03-10T13:02:28Z</time>
      </trkpt>
      <trkpt lat="45.09759" lon="6.1513">
        <ele>2020.5</ele>
        <time>2021-03-10T13:02:29Z</time>
      </trkpt>
      <trkpt lat="45.09758" lon="6.1513">
        <ele>2020.4</ele>
        <time>2021-03-10T13:02:30Z</time>
      </trkpt>
      <trkpt lat="45.09757" lon="6.15129">
        <ele>2019.1</ele>
        <time>2021-03-10T13:02:31Z</time>
      </trkpt>
      <trkpt lat="45.09756" lon="6.15128">
        <ele>2019.1</ele>
        <time>2021-03-10T13:02:32Z</time>
      </trkpt>
      <trkpt lat="45.09755" lon="6.15127">
        <ele>2019.4</ele>
        <time>2021-03-10T13:02:33Z</time>
      </trkpt>
      <trkpt lat="45.09752" lon="6.15125">
        <ele>2017.8</ele>
        <time>2021-03-10T13:02:34Z</time>
      </trkpt>
      <trkpt lat="45.09751" lon="6.15125">
        <ele>2017.7</ele>
        <time>2021-03-10T13:02:35Z</time>
      </trkpt>
      <trkpt lat="45.09747" lon="6.15123">
        <ele>2018</ele>
        <time>2021-03-10T13:02:36Z</time>
      </trkpt>
      <trkpt lat="45.09746" lon="6.15122">
        <ele>2018</ele>
        <time>2021-03-10T13:02:37Z</time>
      </trkpt>
      <trkpt lat="45.09745" lon="6.15121">
        <ele>2016.5</ele>
        <time>2021-03-10T13:02:38Z</time>
      </trkpt>
      <trkpt lat="45.09744" lon="6.1512">
        <ele>2016.5</ele>
        <time>2021-03-10T13:02:39Z</time>
      </trkpt>
      <trkpt lat="45.09744" lon="6.15119">
        <ele>2016.4</ele>
        <time>2021-03-10T13:02:40Z</time>
      </trkpt>
      <trkpt lat="45.09743" lon="6.15119">
        <ele>2016.4</ele>
        <time>2021-03-10T13:02:41Z</time>
      </trkpt>
      <trkpt lat="45.09743" lon="6.15118">
        <ele>2018.4</ele>
        <time>2021-03-10T13:02:42Z</time>
      </trkpt>
      <trkpt lat="45.09743" lon="6.15118">
        <ele>2018.4</ele>
        <time>2021-03-10T13:02:43Z</time>
      </trkpt>
      <trkpt lat="45.09743" lon="6.15118">
        <ele>2018.3</ele>
        <time>2021-03-10T13:02:44Z</time>
      </trkpt>
      <trkpt lat="45.09743" lon="6.15118">
        <ele>2018.3</ele>
        <time>2021-03-10T13:02:45Z</time>
      </trkpt>
      <trkpt lat="45.09743" lon="6.15118">
        <ele>2018.3</ele>
        <time>2021-03-10T13:02:46Z</time>
      </trkpt>
      <trkpt lat="45.09743" lon="6.15118">
        <ele>2018.3</ele>
        <time>2021-03-10T13:02:47Z</time>
      </trkpt>
      <trkpt lat="45.09743" lon="6.15118">
        <ele>2018.3</ele>
        <time>2021-03-10T13:02:48Z</time>
      </trkpt>
      <trkpt lat="45.09743" lon="6.15118">
        <ele>2018.3</ele>
        <time>2021-03-10T13:02:49Z</time>
      </trkpt>
      <trkpt lat="45.09743" lon="6.15118">
        <ele>2018.3</ele>
        <time>2021-03-10T13:02:50Z</time>
      </trkpt>
      <trkpt lat="45.09738" lon="6.15107">
        <ele>2019.2</ele>
        <time>2021-03-10T13:04:00Z</time>
      </trkpt>
      <trkpt lat="45.09738" lon="6.15105">
        <ele>2020.9</ele>
        <time>2021-03-10T13:04:01Z</time>
      </trkpt>
      <trkpt lat="45.09737" lon="6.15104">
        <ele>2020.9</ele>
        <time>2021-03-10T13:04:02Z</time>
      </trkpt>
      <trkpt lat="45.09737" lon="6.15103">
        <ele>2020.9</ele>
        <time>2021-03-10T13:04:03Z</time>
      </trkpt>
      <trkpt lat="45.09737" lon="6.15102">
        <ele>2020.9</ele>
        <time>2021-03-10T13:04:04Z</time>
      </trkpt>
      <trkpt lat="45.09737" lon="6.15101">
        <ele>2022.5</ele>
        <time>2021-03-10T13:04:05Z</time>
      </trkpt>
      <trkpt lat="45.09737" lon="6.151">
        <ele>2021.1</ele>
        <time>2021-03-10T13:04:06Z</time>
      </trkpt>
      <trkpt lat="45.09736" lon="6.15098">
        <ele>2021.1</ele>
        <time>2021-03-10T13:04:07Z</time>
      </trkpt>
      <trkpt lat="45.09736" lon="6.15096">
        <ele>2022.7</ele>
        <time>2021-03-10T13:04:08Z</time>
      </trkpt>
      <trkpt lat="45.09735" lon="6.15095">
        <ele>2022.7</ele>
        <time>2021-03-10T13:04:09Z</time>
      </trkpt>
      <trkpt lat="45.09735" lon="6.15095">
        <ele>2022.7</ele>
        <time>2021-03-10T13:04:10Z</time>
      </trkpt>
      <trkpt lat="45.09734" lon="6.15094">
        <ele>2022.7</ele>
        <time>2021-03-10T13:04:11Z</time>
      </trkpt>
      <trkpt lat="45.09733" lon="6.15094">
        <ele>2021.2</ele>
        <time>2021-03-10T13:04:12Z</time>
      </trkpt>
      <trkpt lat="45.09732" lon="6.15094">
        <ele>2021.2</ele>
        <time>2021-03-10T13:04:13Z</time>
      </trkpt>
      <trkpt lat="45.09732" lon="6.15094">
        <ele>2021.2</ele>
        <time>2021-03-10T13:04:14Z</time>
      </trkpt>
      <trkpt lat="45.09731" lon="6.15094">
        <ele>2021.2</ele>
        <time>2021-03-10T13:04:15Z</time>
      </trkpt>
      <trkpt lat="45.09731" lon="6.15094">
        <ele>2019.7</ele>
        <time>2021-03-10T13:04:16Z</time>
      </trkpt>
      <trkpt lat="45.0973" lon="6.15094">
        <ele>2019.7</ele>
        <time>2021-03-10T13:04:17Z</time>
      </trkpt>
      <trkpt lat="45.09729" lon="6.15093">
        <ele>2019.6</ele>
        <time>2021-03-10T13:04:18Z</time>
      </trkpt>
      <trkpt lat="45.09729" lon="6.15093">
        <ele>2019.6</ele>
        <time>2021-03-10T13:04:19Z</time>
      </trkpt>
      <trkpt lat="45.09728" lon="6.15093">
        <ele>2021.3</ele>
        <time>2021-03-10T13:04:20Z</time>
      </trkpt>
      <trkpt lat="45.09727" lon="6.15092">
        <ele>2019.7</ele>
        <time>2021-03-10T13:04:21Z</time>
      </trkpt>
      <trkpt lat="45.09726" lon="6.15091">
        <ele>2019.7</ele>
        <time>2021-03-10T13:04:22Z</time>
      </trkpt>
      <trkpt lat="45.09725" lon="6.15091">
        <ele>2019.7</ele>
        <time>2021-03-10T13:04:23Z</time>
      </trkpt>
      <trkpt lat="45.09724" lon="6.1509">
        <ele>2018.1</ele>
        <time>2021-03-10T13:04:24Z</time>
      </trkpt>
      <trkpt lat="45.09724" lon="6.1509">
        <ele>2018.1</ele>
        <time>2021-03-10T13:04:25Z</time>
      </trkpt>
      <trkpt lat="45.09723" lon="6.15089">
        <ele>2018.1</ele>
        <time>2021-03-10T13:04:26Z</time>
      </trkpt>
      <trkpt lat="45.09722" lon="6.15089">
        <ele>2018.1</ele>
        <time>2021-03-10T13:04:27Z</time>
      </trkpt>
      <trkpt lat="45.09721" lon="6.15089">
        <ele>2016.5</ele>
        <time>2021-03-10T13:04:28Z</time>
      </trkpt>
      <trkpt lat="45.0972" lon="6.15088">
        <ele>2018.3</ele>
        <time>2021-03-10T13:04:29Z</time>
      </trkpt>
      <trkpt lat="45.09719" lon="6.15088">
        <ele>2018.3</ele>
        <time>2021-03-10T13:04:30Z</time>
      </trkpt>
      <trkpt lat="45.09718" lon="6.15088">
        <ele>2016.7</ele>
        <time>2021-03-10T13:04:31Z</time>
      </trkpt>
      <trkpt lat="45.09718" lon="6.15087">
        <ele>2016.7</ele>
        <time>2021-03-10T13:04:32Z</time>
      </trkpt>
      <trkpt lat="45.09717" lon="6.15087">
        <ele>2016.7</ele>
        <time>2021-03-10T13:04:33Z</time>
      </trkpt>
      <trkpt lat="45.09716" lon="6.15087">
        <ele>2016.7</ele>
        <time>2021-03-10T13:04:34Z</time>
      </trkpt>
      <trkpt lat="45.09715" lon="6.15087">
        <ele>2015.2</ele>
        <time>2021-03-10T13:04:35Z</time>
      </trkpt>
      <trkpt lat="45.09715" lon="6.15087">
        <ele>2015.2</ele>
        <time>2021-03-10T13:04:36Z</time>
      </trkpt>
      <trkpt lat="45.09714" lon="6.15088">
        <ele>2015.2</ele>
        <time>2021-03-10T13:04:37Z</time>
      </trkpt>
      <trkpt lat="45.09713" lon="6.15088">
        <ele>2015.2</ele>
        <time>2021-03-10T13:04:38Z</time>
      </trkpt>
      <trkpt lat="45.09712" lon="6.15088">
        <ele>2013.7</ele>
        <time>2021-03-10T13:04:39Z</time>
      </trkpt>
      <trkpt lat="45.09712" lon="6.15087">
        <ele>2013.7</ele>
        <time>2021-03-10T13:04:40Z</time>
      </trkpt>
      <trkpt lat="45.09711" lon="6.15087">
        <ele>2013.7</ele>
        <time>2021-03-10T13:04:41Z</time>
      </trkpt>
      <trkpt lat="45.0971" lon="6.15086">
        <ele>2013.7</ele>
        <time>2021-03-10T13:04:42Z</time>
      </trkpt>
      <trkpt lat="45.09709" lon="6.15085">
        <ele>2012.3</ele>
        <time>2021-03-10T13:04:43Z</time>
      </trkpt>
      <trkpt lat="45.09709" lon="6.15084">
        <ele>2014.2</ele>
        <time>2021-03-10T13:04:44Z</time>
      </trkpt>
      <trkpt lat="45.09708" lon="6.15083">
        <ele>2014.2</ele>
        <time>2021-03-10T13:04:45Z</time>
      </trkpt>
      <trkpt lat="45.09707" lon="6.15083">
        <ele>2014.2</ele>
        <time>2021-03-10T13:04:46Z</time>
      </trkpt>
      <trkpt lat="45.09706" lon="6.15083">
        <ele>2012.8</ele>
        <time>2021-03-10T13:04:47Z</time>
      </trkpt>
      <trkpt lat="45.09705" lon="6.15082">
        <ele>2012.8</ele>
        <time>2021-03-10T13:04:48Z</time>
      </trkpt>
      <trkpt lat="45.09705" lon="6.15082">
        <ele>2012.8</ele>
        <time>2021-03-10T13:04:49Z</time>
      </trkpt>
      <trkpt lat="45.09704" lon="6.15082">
        <ele>2012.8</ele>
        <time>2021-03-10T13:04:50Z</time>
      </trkpt>
      <trkpt lat="45.09703" lon="6.15082">
        <ele>2011.5</ele>
        <time>2021-03-10T13:04:51Z</time>
      </trkpt>
      <trkpt lat="45.09702" lon="6.15082">
        <ele>2011.5</ele>
        <time>2021-03-10T13:04:52Z</time>
      </trkpt>
      <trkpt lat="45.09701" lon="6.15081">
        <ele>2011.5</ele>
        <time>2021-03-10T13:04:53Z</time>
      </trkpt>
      <trkpt lat="45.097" lon="6.15081">
        <ele>2010.2</ele>
        <time>2021-03-10T13:04:54Z</time>
      </trkpt>
      <trkpt lat="45.09699" lon="6.15081">
        <ele>2010.2</ele>
        <time>2021-03-10T13:04:55Z</time>
      </trkpt>
      <trkpt lat="45.09698" lon="6.1508">
        <ele>2010.2</ele>
        <time>2021-03-10T13:04:56Z</time>
      </trkpt>
      <trkpt lat="45.09697" lon="6.1508">
        <ele>2012.2</ele>
        <time>2021-03-10T13:04:57Z</time>
      </trkpt>
      <trkpt lat="45.09696" lon="6.15079">
        <ele>2010.8</ele>
        <time>2021-03-10T13:04:58Z</time>
      </trkpt>
      <trkpt lat="45.09696" lon="6.15079">
        <ele>2010.8</ele>
        <time>2021-03-10T13:04:59Z</time>
      </trkpt>
      <trkpt lat="45.09695" lon="6.15079">
        <ele>2010.8</ele>
        <time>2021-03-10T13:05:00Z</time>
      </trkpt>
      <trkpt lat="45.09694" lon="6.15079">
        <ele>2009.5</ele>
        <time>2021-03-10T13:05:01Z</time>
      </trkpt>
      <trkpt lat="45.09693" lon="6.15079">
        <ele>2009.5</ele>
        <time>2021-03-10T13:05:02Z</time>
      </trkpt>
      <trkpt lat="45.09692" lon="6.15078">
        <ele>2009.4</ele>
        <time>2021-03-10T13:05:03Z</time>
      </trkpt>
      <trkpt lat="45.09691" lon="6.15078">
        <ele>2009.4</ele>
        <time>2021-03-10T13:05:04Z</time>
      </trkpt>
      <trkpt lat="45.09691" lon="6.15079">
        <ele>2008.1</ele>
        <time>2021-03-10T13:05:05Z</time>
      </trkpt>
      <trkpt lat="45.0969" lon="6.15079">
        <ele>2008.1</ele>
        <time>2021-03-10T13:05:06Z</time>
      </trkpt>
      <trkpt lat="45.0969" lon="6.15078">
        <ele>2008</ele>
        <time>2021-03-10T13:05:07Z</time>
      </trkpt>
      <trkpt lat="45.09689" lon="6.15078">
        <ele>2008</ele>
        <time>2021-03-10T13:05:08Z</time>
      </trkpt>
      <trkpt lat="45.09689" lon="6.15078">
        <ele>2008</ele>
        <time>2021-03-10T13:05:09Z</time>
      </trkpt>
      <trkpt lat="45.09688" lon="6.15078">
        <ele>2006.7</ele>
        <time>2021-03-10T13:05:10Z</time>
      </trkpt>
      <trkpt lat="45.09687" lon="6.15078">
        <ele>2006.7</ele>
        <time>2021-03-10T13:05:11Z</time>
      </trkpt>
      <trkpt lat="45.09686" lon="6.15078">
        <ele>2006.7</ele>
        <time>2021-03-10T13:05:12Z</time>
      </trkpt>
      <trkpt lat="45.09685" lon="6.15077">
        <ele>2006.6</ele>
        <time>2021-03-10T13:05:13Z</time>
      </trkpt>
      <trkpt lat="45.09685" lon="6.15076">
        <ele>2005.4</ele>
        <time>2021-03-10T13:05:14Z</time>
      </trkpt>
      <trkpt lat="45.09684" lon="6.15076">
        <ele>2005.4</ele>
        <time>2021-03-10T13:05:15Z</time>
      </trkpt>
      <trkpt lat="45.09684" lon="6.15075">
        <ele>2007.6</ele>
        <time>2021-03-10T13:05:16Z</time>
      </trkpt>
      <trkpt lat="45.09683" lon="6.15075">
        <ele>2007.5</ele>
        <time>2021-03-10T13:05:17Z</time>
      </trkpt>
      <trkpt lat="45.09683" lon="6.15075">
        <ele>2007.5</ele>
        <time>2021-03-10T13:05:18Z</time>
      </trkpt>
      <trkpt lat="45.09683" lon="6.15074">
        <ele>2007.5</ele>
        <time>2021-03-10T13:05:19Z</time>
      </trkpt>
      <trkpt lat="45.09682" lon="6.15073">
        <ele>2006.4</ele>
        <time>2021-03-10T13:05:20Z</time>
      </trkpt>
      <trkpt lat="45.09681" lon="6.15073">
        <ele>2006.4</ele>
        <time>2021-03-10T13:05:21Z</time>
      </trkpt>
      <trkpt lat="45.09681" lon="6.15072">
        <ele>2006.4</ele>
        <time>2021-03-10T13:05:22Z</time>
      </trkpt>
      <trkpt lat="45.0968" lon="6.15072">
        <ele>2006.3</ele>
        <time>2021-03-10T13:05:23Z</time>
      </trkpt>
      <trkpt lat="45.0968" lon="6.15071">
        <ele>2006.3</ele>
        <time>2021-03-10T13:05:24Z</time>
      </trkpt>
      <trkpt lat="45.0968" lon="6.15071">
        <ele>2006.3</ele>
        <time>2021-03-10T13:05:25Z</time>
      </trkpt>
      <trkpt lat="45.0968" lon="6.15071">
        <ele>2006.3</ele>
        <time>2021-03-10T13:05:26Z</time>
      </trkpt>
      <trkpt lat="45.0968" lon="6.15072">
        <ele>2006.3</ele>
        <time>2021-03-10T13:05:27Z</time>
      </trkpt>
      <trkpt lat="45.0968" lon="6.15071">
        <ele>2008.5</ele>
        <time>2021-03-10T13:05:28Z</time>
      </trkpt>
      <trkpt lat="45.0968" lon="6.1507">
        <ele>2008.5</ele>
        <time>2021-03-10T13:05:29Z</time>
      </trkpt>
      <trkpt lat="45.09679" lon="6.15069">
        <ele>2008.4</ele>
        <time>2021-03-10T13:05:30Z</time>
      </trkpt>
      <trkpt lat="45.09679" lon="6.15069">
        <ele>2006.8</ele>
        <time>2021-03-10T13:05:31Z</time>
      </trkpt>
      <trkpt lat="45.09678" lon="6.15068">
        <ele>2006.7</ele>
        <time>2021-03-10T13:05:32Z</time>
      </trkpt>
      <trkpt lat="45.09678" lon="6.15068">
        <ele>2006.7</ele>
        <time>2021-03-10T13:05:33Z</time>
      </trkpt>
      <trkpt lat="45.09677" lon="6.15068">
        <ele>2006.7</ele>
        <time>2021-03-10T13:05:34Z</time>
      </trkpt>
      <trkpt lat="45.09677" lon="6.15067">
        <ele>2008.9</ele>
        <time>2021-03-10T13:05:35Z</time>
      </trkpt>
      <trkpt lat="45.09676" lon="6.15067">
        <ele>2008.9</ele>
        <time>2021-03-10T13:05:36Z</time>
      </trkpt>
      <trkpt lat="45.09676" lon="6.15066">
        <ele>2007.8</ele>
        <time>2021-03-10T13:05:37Z</time>
      </trkpt>
      <trkpt lat="45.09675" lon="6.15065">
        <ele>2007.8</ele>
        <time>2021-03-10T13:05:38Z</time>
      </trkpt>
      <trkpt lat="45.09675" lon="6.15064">
        <ele>2007.8</ele>
        <time>2021-03-10T13:05:39Z</time>
      </trkpt>
      <trkpt lat="45.09675" lon="6.15064">
        <ele>2007.8</ele>
        <time>2021-03-10T13:05:40Z</time>
      </trkpt>
      <trkpt lat="45.09675" lon="6.15064">
        <ele>2007.8</ele>
        <time>2021-03-10T13:05:41Z</time>
      </trkpt>
      <trkpt lat="45.09675" lon="6.15064">
        <ele>2007.8</ele>
        <time>2021-03-10T13:05:42Z</time>
      </trkpt>
      <trkpt lat="45.09675" lon="6.15064">
        <ele>2007.7</ele>
        <time>2021-03-10T13:05:43Z</time>
      </trkpt>
      <trkpt lat="45.09675" lon="6.15064">
        <ele>2007.7</ele>
        <time>2021-03-10T13:05:44Z</time>
      </trkpt>
      <trkpt lat="45.09675" lon="6.15064">
        <ele>2007.7</ele>
        <time>2021-03-10T13:05:45Z</time>
      </trkpt>
      <trkpt lat="45.09675" lon="6.15064">
        <ele>2007.7</ele>
        <time>2021-03-10T13:05:46Z</time>
      </trkpt>
      <trkpt lat="45.09675" lon="6.15064">
        <ele>2007.7</ele>
        <time>2021-03-10T13:05:47Z</time>
      </trkpt>
      <trkpt lat="45.09675" lon="6.15064">
        <ele>2007.7</ele>
        <time>2021-03-10T13:05:48Z</time>
      </trkpt>
      <trkpt lat="45.09675" lon="6.15064">
        <ele>2007.6</ele>
        <time>2021-03-10T13:05:49Z</time>
      </trkpt>
      <trkpt lat="45.09668" lon="6.15065">
        <ele>2005.2</ele>
        <time>2021-03-10T13:06:04Z</time>
      </trkpt>
      <trkpt lat="45.09668" lon="6.15065">
        <ele>2005.2</ele>
        <time>2021-03-10T13:06:05Z</time>
      </trkpt>
      <trkpt lat="45.09667" lon="6.15065">
        <ele>2005.2</ele>
        <time>2021-03-10T13:06:06Z</time>
      </trkpt>
      <trkpt lat="45.09666" lon="6.15065">
        <ele>2003.9</ele>
        <time>2021-03-10T13:06:07Z</time>
      </trkpt>
      <trkpt lat="45.09666" lon="6.15065">
        <ele>2003.9</ele>
        <time>2021-03-10T13:06:08Z</time>
      </trkpt>
      <trkpt lat="45.09665" lon="6.15065">
        <ele>2003.9</ele>
        <time>2021-03-10T13:06:09Z</time>
      </trkpt>
      <trkpt lat="45.09664" lon="6.15065">
        <ele>2003.9</ele>
        <time>2021-03-10T13:06:10Z</time>
      </trkpt>
      <trkpt lat="45.09663" lon="6.15065">
        <ele>2002.7</ele>
        <time>2021-03-10T13:06:11Z</time>
      </trkpt>
      <trkpt lat="45.09662" lon="6.15066">
        <ele>2002.7</ele>
        <time>2021-03-10T13:06:12Z</time>
      </trkpt>
      <trkpt lat="45.09662" lon="6.15066">
        <ele>2002.7</ele>
        <time>2021-03-10T13:06:13Z</time>
      </trkpt>
      <trkpt lat="45.09661" lon="6.15065">
        <ele>2001.6</ele>
        <time>2021-03-10T13:06:14Z</time>
      </trkpt>
      <trkpt lat="45.0966" lon="6.15065">
        <ele>2001.6</ele>
        <time>2021-03-10T13:06:15Z</time>
      </trkpt>
      <trkpt lat="45.09659" lon="6.15065">
        <ele>2001.5</ele>
        <time>2021-03-10T13:06:16Z</time>
      </trkpt>
      <trkpt lat="45.09658" lon="6.15065">
        <ele>2001.5</ele>
        <time>2021-03-10T13:06:17Z</time>
      </trkpt>
      <trkpt lat="45.09658" lon="6.15065">
        <ele>2000.5</ele>
        <time>2021-03-10T13:06:18Z</time>
      </trkpt>
      <trkpt lat="45.09657" lon="6.15065">
        <ele>2000.5</ele>
        <time>2021-03-10T13:06:19Z</time>
      </trkpt>
      <trkpt lat="45.09656" lon="6.15065">
        <ele>2000.5</ele>
        <time>2021-03-10T13:06:20Z</time>
      </trkpt>
      <trkpt lat="45.09656" lon="6.15065">
        <ele>2000.5</ele>
        <time>2021-03-10T13:06:21Z</time>
      </trkpt>
      <trkpt lat="45.09655" lon="6.15065">
        <ele>2000.5</ele>
        <time>2021-03-10T13:06:22Z</time>
      </trkpt>
      <trkpt lat="45.09655" lon="6.15064">
        <ele>1999.6</ele>
        <time>2021-03-10T13:06:23Z</time>
      </trkpt>
      <trkpt lat="45.09654" lon="6.15064">
        <ele>1999.5</ele>
        <time>2021-03-10T13:06:24Z</time>
      </trkpt>
      <trkpt lat="45.09654" lon="6.15064">
        <ele>1999.5</ele>
        <time>2021-03-10T13:06:25Z</time>
      </trkpt>
      <trkpt lat="45.09653" lon="6.15065">
        <ele>1999.5</ele>
        <time>2021-03-10T13:06:26Z</time>
      </trkpt>
      <trkpt lat="45.09653" lon="6.15065">
        <ele>1999.5</ele>
        <time>2021-03-10T13:06:27Z</time>
      </trkpt>
      <trkpt lat="45.09652" lon="6.15065">
        <ele>1999.5</ele>
        <time>2021-03-10T13:06:28Z</time>
      </trkpt>
      <trkpt lat="45.09652" lon="6.15065">
        <ele>1998.5</ele>
        <time>2021-03-10T13:06:29Z</time>
      </trkpt>
      <trkpt lat="45.09651" lon="6.15065">
        <ele>1998.5</ele>
        <time>2021-03-10T13:06:30Z</time>
      </trkpt>
      <trkpt lat="45.09651" lon="6.15065">
        <ele>1998.5</ele>
        <time>2021-03-10T13:06:31Z</time>
      </trkpt>
      <trkpt lat="45.0965" lon="6.15065">
        <ele>1998.5</ele>
        <time>2021-03-10T13:06:32Z</time>
      </trkpt>
      <trkpt lat="45.0965" lon="6.15065">
        <ele>1998.5</ele>
        <time>2021-03-10T13:06:33Z</time>
      </trkpt>
      <trkpt lat="45.09649" lon="6.15065">
        <ele>1998.5</ele>
        <time>2021-03-10T13:06:34Z</time>
      </trkpt>
      <trkpt lat="45.09649" lon="6.15065">
        <ele>1997.5</ele>
        <time>2021-03-10T13:06:35Z</time>
      </trkpt>
      <trkpt lat="45.09649" lon="6.15065">
        <ele>1997.5</ele>
        <time>2021-03-10T13:06:36Z</time>
      </trkpt>
      <trkpt lat="45.09648" lon="6.15066">
        <ele>1997.5</ele>
        <time>2021-03-10T13:06:37Z</time>
      </trkpt>
      <trkpt lat="45.09648" lon="6.15066">
        <ele>1997.4</ele>
        <time>2021-03-10T13:06:38Z</time>
      </trkpt>
      <trkpt lat="45.09647" lon="6.15066">
        <ele>1997.4</ele>
        <time>2021-03-10T13:06:39Z</time>
      </trkpt>
      <trkpt lat="45.09647" lon="6.15066">
        <ele>1997.4</ele>
        <time>2021-03-10T13:06:40Z</time>
      </trkpt>
      <trkpt lat="45.09646" lon="6.15067">
        <ele>1997.4</ele>
        <time>2021-03-10T13:06:41Z</time>
      </trkpt>
      <trkpt lat="45.09646" lon="6.15067">
        <ele>1996.4</ele>
        <time>2021-03-10T13:06:42Z</time>
      </trkpt>
      <trkpt lat="45.09645" lon="6.15067">
        <ele>1994</ele>
        <time>2021-03-10T13:06:43Z</time>
      </trkpt>
      <trkpt lat="45.09644" lon="6.15067">
        <ele>1994</ele>
        <time>2021-03-10T13:06:44Z</time>
      </trkpt>
      <trkpt lat="45.09644" lon="6.15068">
        <ele>1994</ele>
        <time>2021-03-10T13:06:45Z</time>
      </trkpt>
      <trkpt lat="45.09643" lon="6.15068">
        <ele>1994</ele>
        <time>2021-03-10T13:06:46Z</time>
      </trkpt>
      <trkpt lat="45.09642" lon="6.15068">
        <ele>1993</ele>
        <time>2021-03-10T13:06:47Z</time>
      </trkpt>
      <trkpt lat="45.09641" lon="6.15068">
        <ele>1992.9</ele>
        <time>2021-03-10T13:06:48Z</time>
      </trkpt>
      <trkpt lat="45.09641" lon="6.15068">
        <ele>1992.9</ele>
        <time>2021-03-10T13:06:49Z</time>
      </trkpt>
      <trkpt lat="45.0964" lon="6.15068">
        <ele>1992.9</ele>
        <time>2021-03-10T13:06:50Z</time>
      </trkpt>
      <trkpt lat="45.0964" lon="6.15068">
        <ele>1991.9</ele>
        <time>2021-03-10T13:06:51Z</time>
      </trkpt>
      <trkpt lat="45.09639" lon="6.15068">
        <ele>1991.9</ele>
        <time>2021-03-10T13:06:52Z</time>
      </trkpt>
      <trkpt lat="45.09639" lon="6.15068">
        <ele>1991.9</ele>
        <time>2021-03-10T13:06:53Z</time>
      </trkpt>
      <trkpt lat="45.09638" lon="6.15069">
        <ele>1991.9</ele>
        <time>2021-03-10T13:06:54Z</time>
      </trkpt>
      <trkpt lat="45.09638" lon="6.1507">
        <ele>1991.9</ele>
        <time>2021-03-10T13:06:55Z</time>
      </trkpt>
      <trkpt lat="45.09637" lon="6.1507">
        <ele>1991.9</ele>
        <time>2021-03-10T13:06:56Z</time>
      </trkpt>
      <trkpt lat="45.09637" lon="6.15071">
        <ele>1988.7</ele>
        <time>2021-03-10T13:06:57Z</time>
      </trkpt>
      <trkpt lat="45.09636" lon="6.15073">
        <ele>1988.7</ele>
        <time>2021-03-10T13:06:58Z</time>
      </trkpt>
      <trkpt lat="45.09636" lon="6.15074">
        <ele>1988.6</ele>
        <time>2021-03-10T13:06:59Z</time>
      </trkpt>
      <trkpt lat="45.09636" lon="6.15074">
        <ele>1988.6</ele>
        <time>2021-03-10T13:07:00Z</time>
      </trkpt>
      <trkpt lat="45.09635" lon="6.15075">
        <ele>1988.6</ele>
        <time>2021-03-10T13:07:01Z</time>
      </trkpt>
      <trkpt lat="45.09635" lon="6.15076">
        <ele>1986.3</ele>
        <time>2021-03-10T13:07:02Z</time>
      </trkpt>
      <trkpt lat="45.09635" lon="6.15077">
        <ele>1986.3</ele>
        <time>2021-03-10T13:07:03Z</time>
      </trkpt>
      <trkpt lat="45.09634" lon="6.15077">
        <ele>1986.3</ele>
        <time>2021-03-10T13:07:04Z</time>
      </trkpt>
      <trkpt lat="45.09634" lon="6.15078">
        <ele>1986.3</ele>
        <time>2021-03-10T13:07:05Z</time>
      </trkpt>
      <trkpt lat="45.09634" lon="6.15079">
        <ele>1985.5</ele>
        <time>2021-03-10T13:07:06Z</time>
      </trkpt>
      <trkpt lat="45.09633" lon="6.1508">
        <ele>1983.2</ele>
        <time>2021-03-10T13:07:07Z</time>
      </trkpt>
      <trkpt lat="45.09633" lon="6.15081">
        <ele>1983.2</ele>
        <time>2021-03-10T13:07:08Z</time>
      </trkpt>
      <trkpt lat="45.09633" lon="6.15082">
        <ele>1983.2</ele>
        <time>2021-03-10T13:07:09Z</time>
      </trkpt>
      <trkpt lat="45.09632" lon="6.15082">
        <ele>1983.2</ele>
        <time>2021-03-10T13:07:10Z</time>
      </trkpt>
      <trkpt lat="45.09632" lon="6.15082">
        <ele>1983.2</ele>
        <time>2021-03-10T13:07:11Z</time>
      </trkpt>
      <trkpt lat="45.09631" lon="6.15083">
        <ele>1983.2</ele>
        <time>2021-03-10T13:07:12Z</time>
      </trkpt>
      <trkpt lat="45.0963" lon="6.15082">
        <ele>1982.4</ele>
        <time>2021-03-10T13:07:13Z</time>
      </trkpt>
      <trkpt lat="45.0963" lon="6.15082">
        <ele>1982.4</ele>
        <time>2021-03-10T13:07:14Z</time>
      </trkpt>
      <trkpt lat="45.09629" lon="6.15082">
        <ele>1982.4</ele>
        <time>2021-03-10T13:07:15Z</time>
      </trkpt>
      <trkpt lat="45.09629" lon="6.15082">
        <ele>1982.4</ele>
        <time>2021-03-10T13:07:16Z</time>
      </trkpt>
      <trkpt lat="45.09628" lon="6.15083">
        <ele>1982.4</ele>
        <time>2021-03-10T13:07:17Z</time>
      </trkpt>
      <trkpt lat="45.09627" lon="6.15083">
        <ele>1981.7</ele>
        <time>2021-03-10T13:07:18Z</time>
      </trkpt>
      <trkpt lat="45.09627" lon="6.15084">
        <ele>1981.6</ele>
        <time>2021-03-10T13:07:19Z</time>
      </trkpt>
      <trkpt lat="45.09626" lon="6.15084">
        <ele>1981.6</ele>
        <time>2021-03-10T13:07:20Z</time>
      </trkpt>
      <trkpt lat="45.09626" lon="6.15084">
        <ele>1979.5</ele>
        <time>2021-03-10T13:07:21Z</time>
      </trkpt>
      <trkpt lat="45.09626" lon="6.15085">
        <ele>1979.5</ele>
        <time>2021-03-10T13:07:22Z</time>
      </trkpt>
      <trkpt lat="45.09626" lon="6.15086">
        <ele>1979.5</ele>
        <time>2021-03-10T13:07:23Z</time>
      </trkpt>
      <trkpt lat="45.09627" lon="6.15086">
        <ele>1979.5</ele>
        <time>2021-03-10T13:07:24Z</time>
      </trkpt>
      <trkpt lat="45.09627" lon="6.15087">
        <ele>1979.5</ele>
        <time>2021-03-10T13:07:25Z</time>
      </trkpt>
      <trkpt lat="45.09626" lon="6.15088">
        <ele>1979.4</ele>
        <time>2021-03-10T13:07:26Z</time>
      </trkpt>
      <trkpt lat="45.09626" lon="6.15088">
        <ele>1979.4</ele>
        <time>2021-03-10T13:07:27Z</time>
      </trkpt>
      <trkpt lat="45.09626" lon="6.15088">
        <ele>1979.4</ele>
        <time>2021-03-10T13:07:28Z</time>
      </trkpt>
      <trkpt lat="45.09626" lon="6.15089">
        <ele>1977.5</ele>
        <time>2021-03-10T13:07:29Z</time>
      </trkpt>
      <trkpt lat="45.09625" lon="6.1509">
        <ele>1977.4</ele>
        <time>2021-03-10T13:07:30Z</time>
      </trkpt>
      <trkpt lat="45.09625" lon="6.1509">
        <ele>1977.4</ele>
        <time>2021-03-10T13:07:31Z</time>
      </trkpt>
      <trkpt lat="45.09625" lon="6.15091">
        <ele>1976.7</ele>
        <time>2021-03-10T13:07:32Z</time>
      </trkpt>
      <trkpt lat="45.09624" lon="6.15091">
        <ele>1976.7</ele>
        <time>2021-03-10T13:07:33Z</time>
      </trkpt>
      <trkpt lat="45.09623" lon="6.15091">
        <ele>1976.7</ele>
        <time>2021-03-10T13:07:34Z</time>
      </trkpt>
      <trkpt lat="45.09623" lon="6.15091">
        <ele>1976.7</ele>
        <time>2021-03-10T13:07:35Z</time>
      </trkpt>
      <trkpt lat="45.09622" lon="6.15092">
        <ele>1976.7</ele>
        <time>2021-03-10T13:07:36Z</time>
      </trkpt>
      <trkpt lat="45.09622" lon="6.15092">
        <ele>1976.7</ele>
        <time>2021-03-10T13:07:37Z</time>
      </trkpt>
      <trkpt lat="45.09621" lon="6.15092">
        <ele>1976</ele>
        <time>2021-03-10T13:07:38Z</time>
      </trkpt>
      <trkpt lat="45.09621" lon="6.15092">
        <ele>1976</ele>
        <time>2021-03-10T13:07:39Z</time>
      </trkpt>
      <trkpt lat="45.0962" lon="6.15093">
        <ele>1974.2</ele>
        <time>2021-03-10T13:07:40Z</time>
      </trkpt>
      <trkpt lat="45.0962" lon="6.15094">
        <ele>1974.1</ele>
        <time>2021-03-10T13:07:41Z</time>
      </trkpt>
      <trkpt lat="45.0962" lon="6.15096">
        <ele>1974.1</ele>
        <time>2021-03-10T13:07:42Z</time>
      </trkpt>
      <trkpt lat="45.0962" lon="6.15097">
        <ele>1974.1</ele>
        <time>2021-03-10T13:07:43Z</time>
      </trkpt>
      <trkpt lat="45.0962" lon="6.15097">
        <ele>1972.4</ele>
        <time>2021-03-10T13:07:44Z</time>
      </trkpt>
      <trkpt lat="45.09621" lon="6.15098">
        <ele>1972.4</ele>
        <time>2021-03-10T13:07:45Z</time>
      </trkpt>
      <trkpt lat="45.09621" lon="6.15099">
        <ele>1972.3</ele>
        <time>2021-03-10T13:07:46Z</time>
      </trkpt>
      <trkpt lat="45.09621" lon="6.151">
        <ele>1972.3</ele>
        <time>2021-03-10T13:07:47Z</time>
      </trkpt>
      <trkpt lat="45.09622" lon="6.15101">
        <ele>1973</ele>
        <time>2021-03-10T13:07:48Z</time>
      </trkpt>
      <trkpt lat="45.09622" lon="6.15102">
        <ele>1971.3</ele>
        <time>2021-03-10T13:07:49Z</time>
      </trkpt>
      <trkpt lat="45.09622" lon="6.15103">
        <ele>1971.3</ele>
        <time>2021-03-10T13:07:50Z</time>
      </trkpt>
      <trkpt lat="45.09622" lon="6.15104">
        <ele>1971.2</ele>
        <time>2021-03-10T13:07:51Z</time>
      </trkpt>
      <trkpt lat="45.09622" lon="6.15104">
        <ele>1971.2</ele>
        <time>2021-03-10T13:07:52Z</time>
      </trkpt>
      <trkpt lat="45.09622" lon="6.15105">
        <ele>1971.2</ele>
        <time>2021-03-10T13:07:53Z</time>
      </trkpt>
      <trkpt lat="45.09621" lon="6.15106">
        <ele>1968.8</ele>
        <time>2021-03-10T13:07:54Z</time>
      </trkpt>
      <trkpt lat="45.09621" lon="6.15107">
        <ele>1968.7</ele>
        <time>2021-03-10T13:07:55Z</time>
      </trkpt>
      <trkpt lat="45.09621" lon="6.15108">
        <ele>1968.7</ele>
        <time>2021-03-10T13:07:56Z</time>
      </trkpt>
      <trkpt lat="45.0962" lon="6.15109">
        <ele>1968.7</ele>
        <time>2021-03-10T13:07:57Z</time>
      </trkpt>
      <trkpt lat="45.0962" lon="6.1511">
        <ele>1968.7</ele>
        <time>2021-03-10T13:07:58Z</time>
      </trkpt>
      <trkpt lat="45.0962" lon="6.15111">
        <ele>1966.8</ele>
        <time>2021-03-10T13:07:59Z</time>
      </trkpt>
      <trkpt lat="45.0962" lon="6.15112">
        <ele>1966.8</ele>
        <time>2021-03-10T13:08:00Z</time>
      </trkpt>
      <trkpt lat="45.0962" lon="6.15113">
        <ele>1966.8</ele>
        <time>2021-03-10T13:08:01Z</time>
      </trkpt>
      <trkpt lat="45.0962" lon="6.15114">
        <ele>1966.8</ele>
        <time>2021-03-10T13:08:02Z</time>
      </trkpt>
      <trkpt lat="45.0962" lon="6.15114">
        <ele>1966.8</ele>
        <time>2021-03-10T13:08:03Z</time>
      </trkpt>
      <trkpt lat="45.0962" lon="6.15115">
        <ele>1964.8</ele>
        <time>2021-03-10T13:08:04Z</time>
      </trkpt>
      <trkpt lat="45.0962" lon="6.15115">
        <ele>1964.8</ele>
        <time>2021-03-10T13:08:05Z</time>
      </trkpt>
      <trkpt lat="45.09619" lon="6.15116">
        <ele>1964.8</ele>
        <time>2021-03-10T13:08:06Z</time>
      </trkpt>
      <trkpt lat="45.09618" lon="6.15116">
        <ele>1964.1</ele>
        <time>2021-03-10T13:08:07Z</time>
      </trkpt>
      <trkpt lat="45.09618" lon="6.15117">
        <ele>1964.1</ele>
        <time>2021-03-10T13:08:08Z</time>
      </trkpt>
      <trkpt lat="45.09617" lon="6.15118">
        <ele>1964.1</ele>
        <time>2021-03-10T13:08:09Z</time>
      </trkpt>
      <trkpt lat="45.09617" lon="6.15119">
        <ele>1962.1</ele>
        <time>2021-03-10T13:08:10Z</time>
      </trkpt>
      <trkpt lat="45.09616" lon="6.1512">
        <ele>1962.1</ele>
        <time>2021-03-10T13:08:11Z</time>
      </trkpt>
      <trkpt lat="45.09616" lon="6.15121">
        <ele>1962.1</ele>
        <time>2021-03-10T13:08:12Z</time>
      </trkpt>
      <trkpt lat="45.09616" lon="6.15121">
        <ele>1962.1</ele>
        <time>2021-03-10T13:08:13Z</time>
      </trkpt>
      <trkpt lat="45.09615" lon="6.15121">
        <ele>1961.3</ele>
        <time>2021-03-10T13:08:14Z</time>
      </trkpt>
      <trkpt lat="45.09615" lon="6.15122">
        <ele>1961.3</ele>
        <time>2021-03-10T13:08:15Z</time>
      </trkpt>
      <trkpt lat="45.09614" lon="6.15123">
        <ele>1961.3</ele>
        <time>2021-03-10T13:08:16Z</time>
      </trkpt>
      <trkpt lat="45.09613" lon="6.15123">
        <ele>1959.4</ele>
        <time>2021-03-10T13:08:17Z</time>
      </trkpt>
      <trkpt lat="45.09613" lon="6.15124">
        <ele>1959.4</ele>
        <time>2021-03-10T13:08:18Z</time>
      </trkpt>
      <trkpt lat="45.09612" lon="6.15125">
        <ele>1958.6</ele>
        <time>2021-03-10T13:08:19Z</time>
      </trkpt>
      <trkpt lat="45.09611" lon="6.15125">
        <ele>1958.6</ele>
        <time>2021-03-10T13:08:20Z</time>
      </trkpt>
      <trkpt lat="45.09611" lon="6.15126">
        <ele>1958.6</ele>
        <time>2021-03-10T13:08:21Z</time>
      </trkpt>
      <trkpt lat="45.0961" lon="6.15126">
        <ele>1958.6</ele>
        <time>2021-03-10T13:08:22Z</time>
      </trkpt>
      <trkpt lat="45.09609" lon="6.15126">
        <ele>1957.8</ele>
        <time>2021-03-10T13:08:23Z</time>
      </trkpt>
      <trkpt lat="45.09608" lon="6.15127">
        <ele>1957.8</ele>
        <time>2021-03-10T13:08:24Z</time>
      </trkpt>
      <trkpt lat="45.09608" lon="6.15127">
        <ele>1957.8</ele>
        <time>2021-03-10T13:08:25Z</time>
      </trkpt>
      <trkpt lat="45.09608" lon="6.15127">
        <ele>1955.9</ele>
        <time>2021-03-10T13:08:26Z</time>
      </trkpt>
      <trkpt lat="45.09608" lon="6.15127">
        <ele>1955.9</ele>
        <time>2021-03-10T13:08:27Z</time>
      </trkpt>
      <trkpt lat="45.09607" lon="6.15128">
        <ele>1955.9</ele>
        <time>2021-03-10T13:08:28Z</time>
      </trkpt>
      <trkpt lat="45.09607" lon="6.15128">
        <ele>1955.9</ele>
        <time>2021-03-10T13:08:29Z</time>
      </trkpt>
      <trkpt lat="45.09607" lon="6.1513">
        <ele>1955.9</ele>
        <time>2021-03-10T13:08:30Z</time>
      </trkpt>
      <trkpt lat="45.09607" lon="6.15131">
        <ele>1955.8</ele>
        <time>2021-03-10T13:08:31Z</time>
      </trkpt>
      <trkpt lat="45.09607" lon="6.15132">
        <ele>1954.1</ele>
        <time>2021-03-10T13:08:32Z</time>
      </trkpt>
      <trkpt lat="45.09607" lon="6.15133">
        <ele>1954.1</ele>
        <time>2021-03-10T13:08:33Z</time>
      </trkpt>
      <trkpt lat="45.09607" lon="6.15135">
        <ele>1954</ele>
        <time>2021-03-10T13:08:34Z</time>
      </trkpt>
      <trkpt lat="45.09607" lon="6.15136">
        <ele>1952.3</ele>
        <time>2021-03-10T13:08:35Z</time>
      </trkpt>
      <trkpt lat="45.09606" lon="6.15137">
        <ele>1951.6</ele>
        <time>2021-03-10T13:08:36Z</time>
      </trkpt>
      <trkpt lat="45.09606" lon="6.15137">
        <ele>1951.5</ele>
        <time>2021-03-10T13:08:37Z</time>
      </trkpt>
      <trkpt lat="45.09605" lon="6.15138">
        <ele>1951.5</ele>
        <time>2021-03-10T13:08:38Z</time>
      </trkpt>
      <trkpt lat="45.09605" lon="6.15139">
        <ele>1951.5</ele>
        <time>2021-03-10T13:08:39Z</time>
      </trkpt>
      <trkpt lat="45.09604" lon="6.15139">
        <ele>1951.5</ele>
        <time>2021-03-10T13:08:40Z</time>
      </trkpt>
      <trkpt lat="45.09603" lon="6.1514">
        <ele>1950.7</ele>
        <time>2021-03-10T13:08:41Z</time>
      </trkpt>
      <trkpt lat="45.09603" lon="6.1514">
        <ele>1949.1</ele>
        <time>2021-03-10T13:08:42Z</time>
      </trkpt>
      <trkpt lat="45.09602" lon="6.15141">
        <ele>1949.1</ele>
        <time>2021-03-10T13:08:43Z</time>
      </trkpt>
      <trkpt lat="45.09602" lon="6.15142">
        <ele>1949</ele>
        <time>2021-03-10T13:08:44Z</time>
      </trkpt>
      <trkpt lat="45.09601" lon="6.15143">
        <ele>1949</ele>
        <time>2021-03-10T13:08:45Z</time>
      </trkpt>
      <trkpt lat="45.09601" lon="6.15144">
        <ele>1949</ele>
        <time>2021-03-10T13:08:46Z</time>
      </trkpt>
      <trkpt lat="45.09601" lon="6.15144">
        <ele>1949</ele>
        <time>2021-03-10T13:08:47Z</time>
      </trkpt>
      <trkpt lat="45.096" lon="6.15144">
        <ele>1948.3</ele>
        <time>2021-03-10T13:08:48Z</time>
      </trkpt>
      <trkpt lat="45.09599" lon="6.15144">
        <ele>1948.3</ele>
        <time>2021-03-10T13:08:49Z</time>
      </trkpt>
      <trkpt lat="45.09598" lon="6.15143">
        <ele>1948.3</ele>
        <time>2021-03-10T13:08:50Z</time>
      </trkpt>
      <trkpt lat="45.09598" lon="6.15142">
        <ele>1948.3</ele>
        <time>2021-03-10T13:08:51Z</time>
      </trkpt>
      <trkpt lat="45.09597" lon="6.15141">
        <ele>1947.7</ele>
        <time>2021-03-10T13:08:52Z</time>
      </trkpt>
      <trkpt lat="45.09596" lon="6.15141">
        <ele>1947.6</ele>
        <time>2021-03-10T13:08:53Z</time>
      </trkpt>
      <trkpt lat="45.09595" lon="6.1514">
        <ele>1947.6</ele>
        <time>2021-03-10T13:08:54Z</time>
      </trkpt>
      <trkpt lat="45.09595" lon="6.1514">
        <ele>1947.6</ele>
        <time>2021-03-10T13:08:55Z</time>
      </trkpt>
      <trkpt lat="45.09594" lon="6.1514">
        <ele>1947</ele>
        <time>2021-03-10T13:08:56Z</time>
      </trkpt>
      <trkpt lat="45.09593" lon="6.1514">
        <ele>1948.6</ele>
        <time>2021-03-10T13:08:57Z</time>
      </trkpt>
      <trkpt lat="45.09592" lon="6.1514">
        <ele>1948.6</ele>
        <time>2021-03-10T13:08:58Z</time>
      </trkpt>
      <trkpt lat="45.09591" lon="6.15139">
        <ele>1948</ele>
        <time>2021-03-10T13:08:59Z</time>
      </trkpt>
      <trkpt lat="45.0959" lon="6.15139">
        <ele>1948</ele>
        <time>2021-03-10T13:09:00Z</time>
      </trkpt>
      <trkpt lat="45.0959" lon="6.15139">
        <ele>1948</ele>
        <time>2021-03-10T13:09:01Z</time>
      </trkpt>
      <trkpt lat="45.09589" lon="6.15138">
        <ele>1947.9</ele>
        <time>2021-03-10T13:09:02Z</time>
      </trkpt>
      <trkpt lat="45.09588" lon="6.15138">
        <ele>1947.2</ele>
        <time>2021-03-10T13:09:03Z</time>
      </trkpt>
      <trkpt lat="45.09587" lon="6.15138">
        <ele>1947.2</ele>
        <time>2021-03-10T13:09:04Z</time>
      </trkpt>
      <trkpt lat="45.09586" lon="6.15138">
        <ele>1947.2</ele>
        <time>2021-03-10T13:09:05Z</time>
      </trkpt>
      <trkpt lat="45.09585" lon="6.15138">
        <ele>1946.4</ele>
        <time>2021-03-10T13:09:06Z</time>
      </trkpt>
      <trkpt lat="45.09584" lon="6.15138">
        <ele>1946.4</ele>
        <time>2021-03-10T13:09:07Z</time>
      </trkpt>
      <trkpt lat="45.09584" lon="6.15138">
        <ele>1946.4</ele>
        <time>2021-03-10T13:09:08Z</time>
      </trkpt>
      <trkpt lat="45.09583" lon="6.15138">
        <ele>1946.4</ele>
        <time>2021-03-10T13:09:09Z</time>
      </trkpt>
      <trkpt lat="45.09582" lon="6.15138">
        <ele>1945.6</ele>
        <time>2021-03-10T13:09:10Z</time>
      </trkpt>
      <trkpt lat="45.09581" lon="6.15138">
        <ele>1945.6</ele>
        <time>2021-03-10T13:09:11Z</time>
      </trkpt>
      <trkpt lat="45.0958" lon="6.15139">
        <ele>1945.6</ele>
        <time>2021-03-10T13:09:12Z</time>
      </trkpt>
      <trkpt lat="45.0958" lon="6.15139">
        <ele>1945.5</ele>
        <time>2021-03-10T13:09:13Z</time>
      </trkpt>
      <trkpt lat="45.09579" lon="6.15139">
        <ele>1944.8</ele>
        <time>2021-03-10T13:09:14Z</time>
      </trkpt>
      <trkpt lat="45.09578" lon="6.1514">
        <ele>1943</ele>
        <time>2021-03-10T13:09:15Z</time>
      </trkpt>
      <trkpt lat="45.09577" lon="6.1514">
        <ele>1943</ele>
        <time>2021-03-10T13:09:16Z</time>
      </trkpt>
      <trkpt lat="45.09576" lon="6.1514">
        <ele>1942.3</ele>
        <time>2021-03-10T13:09:17Z</time>
      </trkpt>
      <trkpt lat="45.09575" lon="6.1514">
        <ele>1942.3</ele>
        <time>2021-03-10T13:09:18Z</time>
      </trkpt>
      <trkpt lat="45.09574" lon="6.1514">
        <ele>1942.3</ele>
        <time>2021-03-10T13:09:19Z</time>
      </trkpt>
      <trkpt lat="45.09574" lon="6.15141">
        <ele>1942.3</ele>
        <time>2021-03-10T13:09:20Z</time>
      </trkpt>
      <trkpt lat="45.09573" lon="6.15141">
        <ele>1941.7</ele>
        <time>2021-03-10T13:09:21Z</time>
      </trkpt>
      <trkpt lat="45.09572" lon="6.15141">
        <ele>1941.6</ele>
        <time>2021-03-10T13:09:22Z</time>
      </trkpt>
      <trkpt lat="45.09572" lon="6.15141">
        <ele>1941.6</ele>
        <time>2021-03-10T13:09:23Z</time>
      </trkpt>
      <trkpt lat="45.09572" lon="6.15141">
        <ele>1941.6</ele>
        <time>2021-03-10T13:09:24Z</time>
      </trkpt>
      <trkpt lat="45.09571" lon="6.15141">
        <ele>1941.6</ele>
        <time>2021-03-10T13:09:25Z</time>
      </trkpt>
      <trkpt lat="45.09571" lon="6.15141">
        <ele>1941.6</ele>
        <time>2021-03-10T13:09:26Z</time>
      </trkpt>
      <trkpt lat="45.0957" lon="6.15141">
        <ele>1941.6</ele>
        <time>2021-03-10T13:09:27Z</time>
      </trkpt>
      <trkpt lat="45.0957" lon="6.15141">
        <ele>1940.9</ele>
        <time>2021-03-10T13:09:28Z</time>
      </trkpt>
      <trkpt lat="45.09569" lon="6.1514">
        <ele>1940.9</ele>
        <time>2021-03-10T13:09:29Z</time>
      </trkpt>
      <trkpt lat="45.09569" lon="6.1514">
        <ele>1942.7</ele>
        <time>2021-03-10T13:09:30Z</time>
      </trkpt>
      <trkpt lat="45.09569" lon="6.15139">
        <ele>1942.7</ele>
        <time>2021-03-10T13:09:31Z</time>
      </trkpt>
      <trkpt lat="45.09569" lon="6.15139">
        <ele>1942.6</ele>
        <time>2021-03-10T13:09:32Z</time>
      </trkpt>
      <trkpt lat="45.09568" lon="6.15138">
        <ele>1942.6</ele>
        <time>2021-03-10T13:09:33Z</time>
      </trkpt>
      <trkpt lat="45.09568" lon="6.15138">
        <ele>1942.6</ele>
        <time>2021-03-10T13:09:34Z</time>
      </trkpt>
      <trkpt lat="45.09568" lon="6.15138">
        <ele>1942.6</ele>
        <time>2021-03-10T13:09:35Z</time>
      </trkpt>
      <trkpt lat="45.09567" lon="6.15138">
        <ele>1942.6</ele>
        <time>2021-03-10T13:09:36Z</time>
      </trkpt>
      <trkpt lat="45.09567" lon="6.15137">
        <ele>1941.9</ele>
        <time>2021-03-10T13:09:37Z</time>
      </trkpt>
      <trkpt lat="45.09567" lon="6.15137">
        <ele>1941.9</ele>
        <time>2021-03-10T13:09:38Z</time>
      </trkpt>
      <trkpt lat="45.09567" lon="6.15137">
        <ele>1941.9</ele>
        <time>2021-03-10T13:09:39Z</time>
      </trkpt>
      <trkpt lat="45.09566" lon="6.15136">
        <ele>1941.9</ele>
        <time>2021-03-10T13:09:40Z</time>
      </trkpt>
      <trkpt lat="45.09566" lon="6.15136">
        <ele>1941.9</ele>
        <time>2021-03-10T13:09:41Z</time>
      </trkpt>
      <trkpt lat="45.09565" lon="6.15136">
        <ele>1941.9</ele>
        <time>2021-03-10T13:09:42Z</time>
      </trkpt>
      <trkpt lat="45.09564" lon="6.15135">
        <ele>1943.7</ele>
        <time>2021-03-10T13:09:44Z</time>
      </trkpt>
      <trkpt lat="45.09564" lon="6.15135">
        <ele>1942.9</ele>
        <time>2021-03-10T13:09:45Z</time>
      </trkpt>
      <trkpt lat="45.09563" lon="6.15135">
        <ele>1942.9</ele>
        <time>2021-03-10T13:09:46Z</time>
      </trkpt>
      <trkpt lat="45.09562" lon="6.15135">
        <ele>1942.9</ele>
        <time>2021-03-10T13:09:47Z</time>
      </trkpt>
      <trkpt lat="45.09562" lon="6.15135">
        <ele>1942.9</ele>
        <time>2021-03-10T13:09:48Z</time>
      </trkpt>
      <trkpt lat="45.09561" lon="6.15136">
        <ele>1942.9</ele>
        <time>2021-03-10T13:09:49Z</time>
      </trkpt>
      <trkpt lat="45.09561" lon="6.15136">
        <ele>1941</ele>
        <time>2021-03-10T13:09:50Z</time>
      </trkpt>
      <trkpt lat="45.09561" lon="6.15137">
        <ele>1940.2</ele>
        <time>2021-03-10T13:09:51Z</time>
      </trkpt>
      <trkpt lat="45.0956" lon="6.15137">
        <ele>1940.2</ele>
        <time>2021-03-10T13:09:52Z</time>
      </trkpt>
      <trkpt lat="45.09559" lon="6.15138">
        <ele>1940.2</ele>
        <time>2021-03-10T13:09:53Z</time>
      </trkpt>
      <trkpt lat="45.09559" lon="6.15138">
        <ele>1940.1</ele>
        <time>2021-03-10T13:09:54Z</time>
      </trkpt>
      <trkpt lat="45.09558" lon="6.15138">
        <ele>1940.1</ele>
        <time>2021-03-10T13:09:55Z</time>
      </trkpt>
      <trkpt lat="45.09558" lon="6.15139">
        <ele>1939.3</ele>
        <time>2021-03-10T13:09:56Z</time>
      </trkpt>
      <trkpt lat="45.09558" lon="6.15139">
        <ele>1939.2</ele>
        <time>2021-03-10T13:09:57Z</time>
      </trkpt>
      <trkpt lat="45.09558" lon="6.15139">
        <ele>1939.2</ele>
        <time>2021-03-10T13:09:58Z</time>
      </trkpt>
      <trkpt lat="45.09557" lon="6.1514">
        <ele>1939.2</ele>
        <time>2021-03-10T13:09:59Z</time>
      </trkpt>
      <trkpt lat="45.09556" lon="6.15141">
        <ele>1937.4</ele>
        <time>2021-03-10T13:10:00Z</time>
      </trkpt>
      <trkpt lat="45.09556" lon="6.15141">
        <ele>1937.3</ele>
        <time>2021-03-10T13:10:01Z</time>
      </trkpt>
      <trkpt lat="45.09555" lon="6.15141">
        <ele>1937.3</ele>
        <time>2021-03-10T13:10:02Z</time>
      </trkpt>
      <trkpt lat="45.09554" lon="6.15142">
        <ele>1936.4</ele>
        <time>2021-03-10T13:10:03Z</time>
      </trkpt>
      <trkpt lat="45.09554" lon="6.15142">
        <ele>1936.4</ele>
        <time>2021-03-10T13:10:04Z</time>
      </trkpt>
      <trkpt lat="45.09553" lon="6.15142">
        <ele>1936.4</ele>
        <time>2021-03-10T13:10:05Z</time>
      </trkpt>
      <trkpt lat="45.09552" lon="6.15143">
        <ele>1936.4</ele>
        <time>2021-03-10T13:10:06Z</time>
      </trkpt>
      <trkpt lat="45.09552" lon="6.15144">
        <ele>1936.4</ele>
        <time>2021-03-10T13:10:07Z</time>
      </trkpt>
      <trkpt lat="45.09552" lon="6.15144">
        <ele>1933.7</ele>
        <time>2021-03-10T13:10:08Z</time>
      </trkpt>
      <trkpt lat="45.09551" lon="6.15145">
        <ele>1933.6</ele>
        <time>2021-03-10T13:10:09Z</time>
      </trkpt>
      <trkpt lat="45.09551" lon="6.15146">
        <ele>1933.6</ele>
        <time>2021-03-10T13:10:10Z</time>
      </trkpt>
      <trkpt lat="45.0955" lon="6.15147">
        <ele>1933.6</ele>
        <time>2021-03-10T13:10:11Z</time>
      </trkpt>
      <trkpt lat="45.0955" lon="6.15147">
        <ele>1933.6</ele>
        <time>2021-03-10T13:10:12Z</time>
      </trkpt>
      <trkpt lat="45.09549" lon="6.15148">
        <ele>1933.6</ele>
        <time>2021-03-10T13:10:13Z</time>
      </trkpt>
      <trkpt lat="45.09549" lon="6.15148">
        <ele>1932.8</ele>
        <time>2021-03-10T13:10:14Z</time>
      </trkpt>
      <trkpt lat="45.09548" lon="6.15149">
        <ele>1930.8</ele>
        <time>2021-03-10T13:10:15Z</time>
      </trkpt>
      <trkpt lat="45.09547" lon="6.15149">
        <ele>1930.8</ele>
        <time>2021-03-10T13:10:16Z</time>
      </trkpt>
      <trkpt lat="45.09547" lon="6.15149">
        <ele>1930.8</ele>
        <time>2021-03-10T13:10:17Z</time>
      </trkpt>
      <trkpt lat="45.09546" lon="6.1515">
        <ele>1930.8</ele>
        <time>2021-03-10T13:10:18Z</time>
      </trkpt>
      <trkpt lat="45.09546" lon="6.15151">
        <ele>1930</ele>
        <time>2021-03-10T13:10:19Z</time>
      </trkpt>
      <trkpt lat="45.09545" lon="6.15152">
        <ele>1930</ele>
        <time>2021-03-10T13:10:20Z</time>
      </trkpt>
      <trkpt lat="45.09545" lon="6.15153">
        <ele>1928</ele>
        <time>2021-03-10T13:10:21Z</time>
      </trkpt>
      <trkpt lat="45.09545" lon="6.15154">
        <ele>1928</ele>
        <time>2021-03-10T13:10:22Z</time>
      </trkpt>
      <trkpt lat="45.09544" lon="6.15155">
        <ele>1928</ele>
        <time>2021-03-10T13:10:23Z</time>
      </trkpt>
      <trkpt lat="45.09544" lon="6.15156">
        <ele>1927.9</ele>
        <time>2021-03-10T13:10:24Z</time>
      </trkpt>
      <trkpt lat="45.09543" lon="6.15156">
        <ele>1927.9</ele>
        <time>2021-03-10T13:10:25Z</time>
      </trkpt>
      <trkpt lat="45.09542" lon="6.15157">
        <ele>1927.1</ele>
        <time>2021-03-10T13:10:26Z</time>
      </trkpt>
      <trkpt lat="45.09542" lon="6.15157">
        <ele>1925</ele>
        <time>2021-03-10T13:10:27Z</time>
      </trkpt>
      <trkpt lat="45.09541" lon="6.15158">
        <ele>1925</ele>
        <time>2021-03-10T13:10:28Z</time>
      </trkpt>
      <trkpt lat="45.0954" lon="6.15159">
        <ele>1925</ele>
        <time>2021-03-10T13:10:29Z</time>
      </trkpt>
      <trkpt lat="45.0954" lon="6.15159">
        <ele>1924.1</ele>
        <time>2021-03-10T13:10:30Z</time>
      </trkpt>
      <trkpt lat="45.09539" lon="6.1516">
        <ele>1924.1</ele>
        <time>2021-03-10T13:10:31Z</time>
      </trkpt>
      <trkpt lat="45.09539" lon="6.1516">
        <ele>1924.1</ele>
        <time>2021-03-10T13:10:32Z</time>
      </trkpt>
      <trkpt lat="45.09538" lon="6.1516">
        <ele>1924.1</ele>
        <time>2021-03-10T13:10:33Z</time>
      </trkpt>
      <trkpt lat="45.09538" lon="6.15161">
        <ele>1924</ele>
        <time>2021-03-10T13:10:34Z</time>
      </trkpt>
      <trkpt lat="45.09537" lon="6.15162">
        <ele>1921.9</ele>
        <time>2021-03-10T13:10:35Z</time>
      </trkpt>
      <trkpt lat="45.09537" lon="6.15163">
        <ele>1921</ele>
        <time>2021-03-10T13:10:36Z</time>
      </trkpt>
      <trkpt lat="45.09536" lon="6.15163">
        <ele>1921</ele>
        <time>2021-03-10T13:10:37Z</time>
      </trkpt>
      <trkpt lat="45.09536" lon="6.15163">
        <ele>1921</ele>
        <time>2021-03-10T13:10:38Z</time>
      </trkpt>
      <trkpt lat="45.09535" lon="6.15163">
        <ele>1920.9</ele>
        <time>2021-03-10T13:10:39Z</time>
      </trkpt>
      <trkpt lat="45.09535" lon="6.15163">
        <ele>1920.9</ele>
        <time>2021-03-10T13:10:40Z</time>
      </trkpt>
      <trkpt lat="45.09534" lon="6.15164">
        <ele>1920.9</ele>
        <time>2021-03-10T13:10:41Z</time>
      </trkpt>
      <trkpt lat="45.09534" lon="6.15164">
        <ele>1920.9</ele>
        <time>2021-03-10T13:10:42Z</time>
      </trkpt>
      <trkpt lat="45.09534" lon="6.15165">
        <ele>1920</ele>
        <time>2021-03-10T13:10:43Z</time>
      </trkpt>
      <trkpt lat="45.09534" lon="6.15165">
        <ele>1920.8</ele>
        <time>2021-03-10T13:10:44Z</time>
      </trkpt>
      <trkpt lat="45.09534" lon="6.15166">
        <ele>1920.8</ele>
        <time>2021-03-10T13:10:45Z</time>
      </trkpt>
      <trkpt lat="45.09534" lon="6.15167">
        <ele>1918.7</ele>
        <time>2021-03-10T13:10:46Z</time>
      </trkpt>
      <trkpt lat="45.09534" lon="6.15168">
        <ele>1918.7</ele>
        <time>2021-03-10T13:10:47Z</time>
      </trkpt>
      <trkpt lat="45.09535" lon="6.15169">
        <ele>1918.6</ele>
        <time>2021-03-10T13:10:48Z</time>
      </trkpt>
      <trkpt lat="45.09535" lon="6.15169">
        <ele>1918.6</ele>
        <time>2021-03-10T13:10:49Z</time>
      </trkpt>
      <trkpt lat="45.09535" lon="6.1517">
        <ele>1918.6</ele>
        <time>2021-03-10T13:10:50Z</time>
      </trkpt>
      <trkpt lat="45.09535" lon="6.1517">
        <ele>1916.4</ele>
        <time>2021-03-10T13:10:51Z</time>
      </trkpt>
      <trkpt lat="45.09535" lon="6.1517">
        <ele>1916.4</ele>
        <time>2021-03-10T13:10:52Z</time>
      </trkpt>
      <trkpt lat="45.09535" lon="6.1517">
        <ele>1916.4</ele>
        <time>2021-03-10T13:10:53Z</time>
      </trkpt>
      <trkpt lat="45.09535" lon="6.1517">
        <ele>1916.4</ele>
        <time>2021-03-10T13:10:54Z</time>
      </trkpt>
      <trkpt lat="45.09535" lon="6.1517">
        <ele>1916.4</ele>
        <time>2021-03-10T13:10:55Z</time>
      </trkpt>
      <trkpt lat="45.09535" lon="6.1517">
        <ele>1916.4</ele>
        <time>2021-03-10T13:10:56Z</time>
      </trkpt>
      <trkpt lat="45.09535" lon="6.1517">
        <ele>1916.4</ele>
        <time>2021-03-10T13:10:57Z</time>
      </trkpt>
      <trkpt lat="45.09535" lon="6.1517">
        <ele>1916.3</ele>
        <time>2021-03-10T13:10:58Z</time>
      </trkpt>
      <trkpt lat="45.09535" lon="6.1517">
        <ele>1916.3</ele>
        <time>2021-03-10T13:10:59Z</time>
      </trkpt>
      <trkpt lat="45.09522" lon="6.15177">
        <ele>1910.6</ele>
        <time>2021-03-10T13:11:38Z</time>
      </trkpt>
      <trkpt lat="45.09522" lon="6.15177">
        <ele>1910.6</ele>
        <time>2021-03-10T13:11:39Z</time>
      </trkpt>
      <trkpt lat="45.09522" lon="6.15177">
        <ele>1910.7</ele>
        <time>2021-03-10T13:11:40Z</time>
      </trkpt>
      <trkpt lat="45.09521" lon="6.15176">
        <ele>1910.7</ele>
        <time>2021-03-10T13:11:41Z</time>
      </trkpt>
      <trkpt lat="45.0952" lon="6.15176">
        <ele>1910.8</ele>
        <time>2021-03-10T13:11:42Z</time>
      </trkpt>
      <trkpt lat="45.0952" lon="6.15176">
        <ele>1910.8</ele>
        <time>2021-03-10T13:11:43Z</time>
      </trkpt>
      <trkpt lat="45.09519" lon="6.15176">
        <ele>1910.9</ele>
        <time>2021-03-10T13:11:44Z</time>
      </trkpt>
      <trkpt lat="45.09518" lon="6.15176">
        <ele>1911</ele>
        <time>2021-03-10T13:11:45Z</time>
      </trkpt>
      <trkpt lat="45.09518" lon="6.15175">
        <ele>1911</ele>
        <time>2021-03-10T13:11:46Z</time>
      </trkpt>
      <trkpt lat="45.09517" lon="6.15175">
        <ele>1911.1</ele>
        <time>2021-03-10T13:11:47Z</time>
      </trkpt>
      <trkpt lat="45.09517" lon="6.15175">
        <ele>1911.2</ele>
        <time>2021-03-10T13:11:48Z</time>
      </trkpt>
      <trkpt lat="45.09516" lon="6.15175">
        <ele>1911.2</ele>
        <time>2021-03-10T13:11:49Z</time>
      </trkpt>
      <trkpt lat="45.09516" lon="6.15175">
        <ele>1911.3</ele>
        <time>2021-03-10T13:11:50Z</time>
      </trkpt>
      <trkpt lat="45.09515" lon="6.15175">
        <ele>1911.4</ele>
        <time>2021-03-10T13:11:51Z</time>
      </trkpt>
      <trkpt lat="45.09515" lon="6.15175">
        <ele>1911.4</ele>
        <time>2021-03-10T13:11:52Z</time>
      </trkpt>
      <trkpt lat="45.09514" lon="6.15175">
        <ele>1911.4</ele>
        <time>2021-03-10T13:11:53Z</time>
      </trkpt>
      <trkpt lat="45.09513" lon="6.15175">
        <ele>1911.5</ele>
        <time>2021-03-10T13:11:54Z</time>
      </trkpt>
      <trkpt lat="45.09513" lon="6.15175">
        <ele>1911.6</ele>
        <time>2021-03-10T13:11:55Z</time>
      </trkpt>
      <trkpt lat="45.09512" lon="6.15176">
        <ele>1911.7</ele>
        <time>2021-03-10T13:11:56Z</time>
      </trkpt>
      <trkpt lat="45.09512" lon="6.15176">
        <ele>1911.8</ele>
        <time>2021-03-10T13:11:57Z</time>
      </trkpt>
      <trkpt lat="45.09511" lon="6.15177">
        <ele>1911.9</ele>
        <time>2021-03-10T13:11:58Z</time>
      </trkpt>
      <trkpt lat="45.0951" lon="6.15177">
        <ele>1911.9</ele>
        <time>2021-03-10T13:11:59Z</time>
      </trkpt>
      <trkpt lat="45.0951" lon="6.15177">
        <ele>1912</ele>
        <time>2021-03-10T13:12:00Z</time>
      </trkpt>
      <trkpt lat="45.09509" lon="6.15177">
        <ele>1912</ele>
        <time>2021-03-10T13:12:01Z</time>
      </trkpt>
      <trkpt lat="45.09509" lon="6.15177">
        <ele>1912.1</ele>
        <time>2021-03-10T13:12:02Z</time>
      </trkpt>
      <trkpt lat="45.09509" lon="6.15178">
        <ele>1912.1</ele>
        <time>2021-03-10T13:12:03Z</time>
      </trkpt>
      <trkpt lat="45.09508" lon="6.15178">
        <ele>1912.2</ele>
        <time>2021-03-10T13:12:04Z</time>
      </trkpt>
      <trkpt lat="45.09507" lon="6.15178">
        <ele>1912.3</ele>
        <time>2021-03-10T13:12:05Z</time>
      </trkpt>
      <trkpt lat="45.09506" lon="6.15178">
        <ele>1912.4</ele>
        <time>2021-03-10T13:12:06Z</time>
      </trkpt>
      <trkpt lat="45.09506" lon="6.15178">
        <ele>1912.4</ele>
        <time>2021-03-10T13:12:07Z</time>
      </trkpt>
      <trkpt lat="45.09505" lon="6.15178">
        <ele>1912.5</ele>
        <time>2021-03-10T13:12:08Z</time>
      </trkpt>
      <trkpt lat="45.09505" lon="6.15179">
        <ele>1912.6</ele>
        <time>2021-03-10T13:12:09Z</time>
      </trkpt>
      <trkpt lat="45.09504" lon="6.15179">
        <ele>1912.7</ele>
        <time>2021-03-10T13:12:10Z</time>
      </trkpt>
      <trkpt lat="45.09503" lon="6.1518">
        <ele>1912.8</ele>
        <time>2021-03-10T13:12:11Z</time>
      </trkpt>
      <trkpt lat="45.09503" lon="6.15181">
        <ele>1912.9</ele>
        <time>2021-03-10T13:12:12Z</time>
      </trkpt>
      <trkpt lat="45.09503" lon="6.15182">
        <ele>1912.9</ele>
        <time>2021-03-10T13:12:13Z</time>
      </trkpt>
      <trkpt lat="45.09503" lon="6.15183">
        <ele>1913</ele>
        <time>2021-03-10T13:12:14Z</time>
      </trkpt>
      <trkpt lat="45.09502" lon="6.15183">
        <ele>1913</ele>
        <time>2021-03-10T13:12:15Z</time>
      </trkpt>
      <trkpt lat="45.09502" lon="6.15183">
        <ele>1913.1</ele>
        <time>2021-03-10T13:12:16Z</time>
      </trkpt>
      <trkpt lat="45.09501" lon="6.15184">
        <ele>1913.1</ele>
        <time>2021-03-10T13:12:17Z</time>
      </trkpt>
      <trkpt lat="45.09501" lon="6.15184">
        <ele>1913.1</ele>
        <time>2021-03-10T13:12:18Z</time>
      </trkpt>
      <trkpt lat="45.095" lon="6.15184">
        <ele>1913.2</ele>
        <time>2021-03-10T13:12:19Z</time>
      </trkpt>
      <trkpt lat="45.095" lon="6.15185">
        <ele>1913.3</ele>
        <time>2021-03-10T13:12:20Z</time>
      </trkpt>
      <trkpt lat="45.09499" lon="6.15185">
        <ele>1913.4</ele>
        <time>2021-03-10T13:12:21Z</time>
      </trkpt>
      <trkpt lat="45.09498" lon="6.15185">
        <ele>1913.5</ele>
        <time>2021-03-10T13:12:22Z</time>
      </trkpt>
      <trkpt lat="45.09498" lon="6.15185">
        <ele>1913.6</ele>
        <time>2021-03-10T13:12:23Z</time>
      </trkpt>
      <trkpt lat="45.09497" lon="6.15186">
        <ele>1913.7</ele>
        <time>2021-03-10T13:12:24Z</time>
      </trkpt>
      <trkpt lat="45.09496" lon="6.15186">
        <ele>1913.7</ele>
        <time>2021-03-10T13:12:25Z</time>
      </trkpt>
      <trkpt lat="45.09496" lon="6.15186">
        <ele>1913.8</ele>
        <time>2021-03-10T13:12:26Z</time>
      </trkpt>
      <trkpt lat="45.09496" lon="6.15186">
        <ele>1913.8</ele>
        <time>2021-03-10T13:12:27Z</time>
      </trkpt>
      <trkpt lat="45.09496" lon="6.15186">
        <ele>1913.8</ele>
        <time>2021-03-10T13:12:28Z</time>
      </trkpt>
      <trkpt lat="45.09496" lon="6.15186">
        <ele>1913.8</ele>
        <time>2021-03-10T13:12:29Z</time>
      </trkpt>
      <trkpt lat="45.09496" lon="6.15186">
        <ele>1913.8</ele>
        <time>2021-03-10T13:12:30Z</time>
      </trkpt>
      <trkpt lat="45.09496" lon="6.15187">
        <ele>1913.8</ele>
        <time>2021-03-10T13:12:31Z</time>
      </trkpt>
      <trkpt lat="45.09495" lon="6.15186">
        <ele>1913.8</ele>
        <time>2021-03-10T13:12:32Z</time>
      </trkpt>
      <trkpt lat="45.09495" lon="6.15186">
        <ele>1913.9</ele>
        <time>2021-03-10T13:12:33Z</time>
      </trkpt>
      <trkpt lat="45.09495" lon="6.15185">
        <ele>1914</ele>
        <time>2021-03-10T13:12:34Z</time>
      </trkpt>
      <trkpt lat="45.09494" lon="6.15184">
        <ele>1914</ele>
        <time>2021-03-10T13:12:35Z</time>
      </trkpt>
      <trkpt lat="45.09494" lon="6.15184">
        <ele>1914.1</ele>
        <time>2021-03-10T13:12:36Z</time>
      </trkpt>
      <trkpt lat="45.09493" lon="6.15184">
        <ele>1914.1</ele>
        <time>2021-03-10T13:12:37Z</time>
      </trkpt>
      <trkpt lat="45.09492" lon="6.15184">
        <ele>1914.2</ele>
        <time>2021-03-10T13:12:38Z</time>
      </trkpt>
      <trkpt lat="45.09492" lon="6.15185">
        <ele>1914.3</ele>
        <time>2021-03-10T13:12:39Z</time>
      </trkpt>
      <trkpt lat="45.09491" lon="6.15185">
        <ele>1914.4</ele>
        <time>2021-03-10T13:12:40Z</time>
      </trkpt>
      <trkpt lat="45.09491" lon="6.15185">
        <ele>1914.4</ele>
        <time>2021-03-10T13:12:41Z</time>
      </trkpt>
      <trkpt lat="45.0949" lon="6.15185">
        <ele>1914.4</ele>
        <time>2021-03-10T13:12:42Z</time>
      </trkpt>
      <trkpt lat="45.0949" lon="6.15185">
        <ele>1914.5</ele>
        <time>2021-03-10T13:12:43Z</time>
      </trkpt>
      <trkpt lat="45.0949" lon="6.15185">
        <ele>1914.5</ele>
        <time>2021-03-10T13:12:44Z</time>
      </trkpt>
      <trkpt lat="45.0949" lon="6.15185">
        <ele>1914.5</ele>
        <time>2021-03-10T13:12:45Z</time>
      </trkpt>
      <trkpt lat="45.0949" lon="6.15185">
        <ele>1914.5</ele>
        <time>2021-03-10T13:12:46Z</time>
      </trkpt>
      <trkpt lat="45.0949" lon="6.15185">
        <ele>1914.5</ele>
        <time>2021-03-10T13:12:47Z</time>
      </trkpt>
      <trkpt lat="45.0949" lon="6.15185">
        <ele>1914.5</ele>
        <time>2021-03-10T13:12:48Z</time>
      </trkpt>
      <trkpt lat="45.0949" lon="6.15185">
        <ele>1914.5</ele>
        <time>2021-03-10T13:12:49Z</time>
      </trkpt>
      <trkpt lat="45.0949" lon="6.15185">
        <ele>1914.5</ele>
        <time>2021-03-10T13:12:50Z</time>
      </trkpt>
      <trkpt lat="45.0949" lon="6.15185">
        <ele>1914.5</ele>
        <time>2021-03-10T13:12:51Z</time>
      </trkpt>
      <trkpt lat="45.09486" lon="6.15173">
        <ele>1915.4</ele>
        <time>2021-03-10T13:32:29Z</time>
      </trkpt>
      <trkpt lat="45.09486" lon="6.15173">
        <ele>1915.4</ele>
        <time>2021-03-10T13:32:30Z</time>
      </trkpt>
      <trkpt lat="45.09486" lon="6.15173">
        <ele>1915.4</ele>
        <time>2021-03-10T13:32:31Z</time>
      </trkpt>
      <trkpt lat="45.09486" lon="6.15173">
        <ele>1915.4</ele>
        <time>2021-03-10T13:32:32Z</time>
      </trkpt>
      <trkpt lat="45.09486" lon="6.15173">
        <ele>1915.4</ele>
        <time>2021-03-10T13:32:33Z</time>
      </trkpt>
      <trkpt lat="45.09486" lon="6.15173">
        <ele>1915.4</ele>
        <time>2021-03-10T13:32:34Z</time>
      </trkpt>
      <trkpt lat="45.09486" lon="6.15173">
        <ele>1915.4</ele>
        <time>2021-03-10T13:32:35Z</time>
      </trkpt>
      <trkpt lat="45.09487" lon="6.15172">
        <ele>1915.6</ele>
        <time>2021-03-10T13:32:36Z</time>
      </trkpt>
      <trkpt lat="45.09487" lon="6.15171">
        <ele>1915.6</ele>
        <time>2021-03-10T13:32:37Z</time>
      </trkpt>
      <trkpt lat="45.09486" lon="6.1517">
        <ele>1915.7</ele>
        <time>2021-03-10T13:32:38Z</time>
      </trkpt>
      <trkpt lat="45.09486" lon="6.15169">
        <ele>1915.8</ele>
        <time>2021-03-10T13:32:39Z</time>
      </trkpt>
      <trkpt lat="45.09485" lon="6.15169">
        <ele>1915.8</ele>
        <time>2021-03-10T13:32:40Z</time>
      </trkpt>
      <trkpt lat="45.09485" lon="6.15169">
        <ele>1915.9</ele>
        <time>2021-03-10T13:32:41Z</time>
      </trkpt>
      <trkpt lat="45.09484" lon="6.15168">
        <ele>1915.9</ele>
        <time>2021-03-10T13:32:42Z</time>
      </trkpt>
      <trkpt lat="45.09484" lon="6.15168">
        <ele>1916</ele>
        <time>2021-03-10T13:32:43Z</time>
      </trkpt>
      <trkpt lat="45.09483" lon="6.15167">
        <ele>1916.1</ele>
        <time>2021-03-10T13:32:44Z</time>
      </trkpt>
      <trkpt lat="45.09482" lon="6.15166">
        <ele>1916.2</ele>
        <time>2021-03-10T13:32:45Z</time>
      </trkpt>
      <trkpt lat="45.09481" lon="6.15166">
        <ele>1916.3</ele>
        <time>2021-03-10T13:32:46Z</time>
      </trkpt>
      <trkpt lat="45.09481" lon="6.15165">
        <ele>1916.3</ele>
        <time>2021-03-10T13:32:47Z</time>
      </trkpt>
      <trkpt lat="45.0948" lon="6.15165">
        <ele>1916.4</ele>
        <time>2021-03-10T13:32:48Z</time>
      </trkpt>
      <trkpt lat="45.09479" lon="6.15164">
        <ele>1916.4</ele>
        <time>2021-03-10T13:32:49Z</time>
      </trkpt>
      <trkpt lat="45.09479" lon="6.15164">
        <ele>1916.5</ele>
        <time>2021-03-10T13:32:50Z</time>
      </trkpt>
      <trkpt lat="45.09478" lon="6.15163">
        <ele>1916.6</ele>
        <time>2021-03-10T13:32:51Z</time>
      </trkpt>
      <trkpt lat="45.09477" lon="6.15162">
        <ele>1916.7</ele>
        <time>2021-03-10T13:32:52Z</time>
      </trkpt>
      <trkpt lat="45.09477" lon="6.15161">
        <ele>1916.8</ele>
        <time>2021-03-10T13:32:53Z</time>
      </trkpt>
      <trkpt lat="45.09476" lon="6.15159">
        <ele>1916.9</ele>
        <time>2021-03-10T13:32:54Z</time>
      </trkpt>
      <trkpt lat="45.09475" lon="6.15158">
        <ele>1917</ele>
        <time>2021-03-10T13:32:55Z</time>
      </trkpt>
      <trkpt lat="45.09475" lon="6.15158">
        <ele>1917</ele>
        <time>2021-03-10T13:32:56Z</time>
      </trkpt>
      <trkpt lat="45.09474" lon="6.15157">
        <ele>1917.1</ele>
        <time>2021-03-10T13:32:57Z</time>
      </trkpt>
      <trkpt lat="45.09473" lon="6.15157">
        <ele>1917.2</ele>
        <time>2021-03-10T13:32:58Z</time>
      </trkpt>
      <trkpt lat="45.09472" lon="6.15157">
        <ele>1917.3</ele>
        <time>2021-03-10T13:32:59Z</time>
      </trkpt>
      <trkpt lat="45.09471" lon="6.15157">
        <ele>1917.4</ele>
        <time>2021-03-10T13:33:00Z</time>
      </trkpt>
      <trkpt lat="45.0947" lon="6.15157">
        <ele>1917.5</ele>
        <time>2021-03-10T13:33:01Z</time>
      </trkpt>
      <trkpt lat="45.0947" lon="6.15157">
        <ele>1917.5</ele>
        <time>2021-03-10T13:33:02Z</time>
      </trkpt>
      <trkpt lat="45.09469" lon="6.15156">
        <ele>1917.5</ele>
        <time>2021-03-10T13:33:03Z</time>
      </trkpt>
      <trkpt lat="45.09468" lon="6.15156">
        <ele>1917.6</ele>
        <time>2021-03-10T13:33:04Z</time>
      </trkpt>
      <trkpt lat="45.09468" lon="6.15155">
        <ele>1917.7</ele>
        <time>2021-03-10T13:33:05Z</time>
      </trkpt>
      <trkpt lat="45.09467" lon="6.15155">
        <ele>1917.8</ele>
        <time>2021-03-10T13:33:06Z</time>
      </trkpt>
      <trkpt lat="45.09466" lon="6.15155">
        <ele>1917.8</ele>
        <time>2021-03-10T13:33:07Z</time>
      </trkpt>
      <trkpt lat="45.09465" lon="6.15155">
        <ele>1917.9</ele>
        <time>2021-03-10T13:33:08Z</time>
      </trkpt>
      <trkpt lat="45.09465" lon="6.15154">
        <ele>1917.9</ele>
        <time>2021-03-10T13:33:09Z</time>
      </trkpt>
      <trkpt lat="45.09465" lon="6.15154">
        <ele>1918</ele>
        <time>2021-03-10T13:33:10Z</time>
      </trkpt>
      <trkpt lat="45.09465" lon="6.15153">
        <ele>1918</ele>
        <time>2021-03-10T13:33:11Z</time>
      </trkpt>
      <trkpt lat="45.09464" lon="6.15152">
        <ele>1918.1</ele>
        <time>2021-03-10T13:33:12Z</time>
      </trkpt>
      <trkpt lat="45.09464" lon="6.15151">
        <ele>1918.2</ele>
        <time>2021-03-10T13:33:13Z</time>
      </trkpt>
      <trkpt lat="45.09463" lon="6.15151">
        <ele>1918.2</ele>
        <time>2021-03-10T13:33:14Z</time>
      </trkpt>
      <trkpt lat="45.09462" lon="6.15151">
        <ele>1918.3</ele>
        <time>2021-03-10T13:33:15Z</time>
      </trkpt>
      <trkpt lat="45.09461" lon="6.1515">
        <ele>1918.4</ele>
        <time>2021-03-10T13:33:16Z</time>
      </trkpt>
      <trkpt lat="45.09461" lon="6.1515">
        <ele>1918.4</ele>
        <time>2021-03-10T13:33:17Z</time>
      </trkpt>
      <trkpt lat="45.0946" lon="6.1515">
        <ele>1918.5</ele>
        <time>2021-03-10T13:33:18Z</time>
      </trkpt>
      <trkpt lat="45.0946" lon="6.1515">
        <ele>1918.5</ele>
        <time>2021-03-10T13:33:19Z</time>
      </trkpt>
      <trkpt lat="45.09459" lon="6.1515">
        <ele>1918.5</ele>
        <time>2021-03-10T13:33:20Z</time>
      </trkpt>
      <trkpt lat="45.09459" lon="6.1515">
        <ele>1918.5</ele>
        <time>2021-03-10T13:33:21Z</time>
      </trkpt>
      <trkpt lat="45.09459" lon="6.15151">
        <ele>1918.6</ele>
        <time>2021-03-10T13:33:22Z</time>
      </trkpt>
      <trkpt lat="45.09459" lon="6.1515">
        <ele>1918.6</ele>
        <time>2021-03-10T13:33:23Z</time>
      </trkpt>
      <trkpt lat="45.09458" lon="6.1515">
        <ele>1918.6</ele>
        <time>2021-03-10T13:33:24Z</time>
      </trkpt>
      <trkpt lat="45.09458" lon="6.15149">
        <ele>1918.7</ele>
        <time>2021-03-10T13:33:25Z</time>
      </trkpt>
      <trkpt lat="45.09457" lon="6.15149">
        <ele>1918.8</ele>
        <time>2021-03-10T13:33:26Z</time>
      </trkpt>
      <trkpt lat="45.09456" lon="6.15148">
        <ele>1918.8</ele>
        <time>2021-03-10T13:33:27Z</time>
      </trkpt>
      <trkpt lat="45.09456" lon="6.15148">
        <ele>1918.8</ele>
        <time>2021-03-10T13:33:28Z</time>
      </trkpt>
      <trkpt lat="45.09456" lon="6.15148">
        <ele>1918.8</ele>
        <time>2021-03-10T13:33:29Z</time>
      </trkpt>
      <trkpt lat="45.09456" lon="6.15148">
        <ele>1918.8</ele>
        <time>2021-03-10T13:33:30Z</time>
      </trkpt>
      <trkpt lat="45.09455" lon="6.15147">
        <ele>1919</ele>
        <time>2021-03-10T13:33:31Z</time>
      </trkpt>
      <trkpt lat="45.09454" lon="6.15147">
        <ele>1919.1</ele>
        <time>2021-03-10T13:33:32Z</time>
      </trkpt>
      <trkpt lat="45.09453" lon="6.15147">
        <ele>1919.1</ele>
        <time>2021-03-10T13:33:33Z</time>
      </trkpt>
      <trkpt lat="45.09452" lon="6.15146">
        <ele>1919.2</ele>
        <time>2021-03-10T13:33:34Z</time>
      </trkpt>
      <trkpt lat="45.09451" lon="6.15146">
        <ele>1919.3</ele>
        <time>2021-03-10T13:33:35Z</time>
      </trkpt>
      <trkpt lat="45.09451" lon="6.15146">
        <ele>1919.3</ele>
        <time>2021-03-10T13:33:36Z</time>
      </trkpt>
      <trkpt lat="45.09449" lon="6.15145">
        <ele>1919.5</ele>
        <time>2021-03-10T13:33:37Z</time>
      </trkpt>
      <trkpt lat="45.09448" lon="6.15145">
        <ele>1919.5</ele>
        <time>2021-03-10T13:33:38Z</time>
      </trkpt>
      <trkpt lat="45.09447" lon="6.15145">
        <ele>1919.6</ele>
        <time>2021-03-10T13:33:39Z</time>
      </trkpt>
      <trkpt lat="45.09446" lon="6.15145">
        <ele>1919.7</ele>
        <time>2021-03-10T13:33:40Z</time>
      </trkpt>
      <trkpt lat="45.09444" lon="6.15145">
        <ele>1919.9</ele>
        <time>2021-03-10T13:33:41Z</time>
      </trkpt>
      <trkpt lat="45.09444" lon="6.15145">
        <ele>1919.9</ele>
        <time>2021-03-10T13:33:42Z</time>
      </trkpt>
      <trkpt lat="45.09443" lon="6.15145">
        <ele>1920</ele>
        <time>2021-03-10T13:33:43Z</time>
      </trkpt>
      <trkpt lat="45.09442" lon="6.15145">
        <ele>1920</ele>
        <time>2021-03-10T13:33:44Z</time>
      </trkpt>
      <trkpt lat="45.09441" lon="6.15145">
        <ele>1920.1</ele>
        <time>2021-03-10T13:33:45Z</time>
      </trkpt>
      <trkpt lat="45.0944" lon="6.15145">
        <ele>1920.2</ele>
        <time>2021-03-10T13:33:46Z</time>
      </trkpt>
      <trkpt lat="45.0944" lon="6.15144">
        <ele>1920.2</ele>
        <time>2021-03-10T13:33:47Z</time>
      </trkpt>
      <trkpt lat="45.09439" lon="6.15144">
        <ele>1920.3</ele>
        <time>2021-03-10T13:33:48Z</time>
      </trkpt>
      <trkpt lat="45.09438" lon="6.15143">
        <ele>1920.4</ele>
        <time>2021-03-10T13:33:49Z</time>
      </trkpt>
      <trkpt lat="45.09438" lon="6.15143">
        <ele>1920.4</ele>
        <time>2021-03-10T13:33:50Z</time>
      </trkpt>
      <trkpt lat="45.09437" lon="6.15143">
        <ele>1920.5</ele>
        <time>2021-03-10T13:33:51Z</time>
      </trkpt>
      <trkpt lat="45.09436" lon="6.15143">
        <ele>1920.6</ele>
        <time>2021-03-10T13:33:52Z</time>
      </trkpt>
      <trkpt lat="45.09435" lon="6.15142">
        <ele>1920.6</ele>
        <time>2021-03-10T13:33:53Z</time>
      </trkpt>
      <trkpt lat="45.09435" lon="6.15142">
        <ele>1920.7</ele>
        <time>2021-03-10T13:33:54Z</time>
      </trkpt>
      <trkpt lat="45.09434" lon="6.15141">
        <ele>1920.7</ele>
        <time>2021-03-10T13:33:55Z</time>
      </trkpt>
      <trkpt lat="45.09433" lon="6.15141">
        <ele>1920.8</ele>
        <time>2021-03-10T13:33:56Z</time>
      </trkpt>
      <trkpt lat="45.09432" lon="6.1514">
        <ele>1920.9</ele>
        <time>2021-03-10T13:33:57Z</time>
      </trkpt>
      <trkpt lat="45.09431" lon="6.15139">
        <ele>1921</ele>
        <time>2021-03-10T13:33:58Z</time>
      </trkpt>
      <trkpt lat="45.0943" lon="6.15139">
        <ele>1921.1</ele>
        <time>2021-03-10T13:33:59Z</time>
      </trkpt>
      <trkpt lat="45.09429" lon="6.15138">
        <ele>1921.2</ele>
        <time>2021-03-10T13:34:00Z</time>
      </trkpt>
      <trkpt lat="45.09428" lon="6.15138">
        <ele>1921.2</ele>
        <time>2021-03-10T13:34:01Z</time>
      </trkpt>
      <trkpt lat="45.09427" lon="6.15138">
        <ele>1921.3</ele>
        <time>2021-03-10T13:34:02Z</time>
      </trkpt>
      <trkpt lat="45.09426" lon="6.15137">
        <ele>1921.4</ele>
        <time>2021-03-10T13:34:03Z</time>
      </trkpt>
      <trkpt lat="45.09425" lon="6.15137">
        <ele>1921.5</ele>
        <time>2021-03-10T13:34:04Z</time>
      </trkpt>
      <trkpt lat="45.09424" lon="6.15137">
        <ele>1921.6</ele>
        <time>2021-03-10T13:34:05Z</time>
      </trkpt>
      <trkpt lat="45.09423" lon="6.15136">
        <ele>1921.7</ele>
        <time>2021-03-10T13:34:06Z</time>
      </trkpt>
      <trkpt lat="45.09422" lon="6.15136">
        <ele>1921.8</ele>
        <time>2021-03-10T13:34:07Z</time>
      </trkpt>
      <trkpt lat="45.09422" lon="6.15136">
        <ele>1921.8</ele>
        <time>2021-03-10T13:34:08Z</time>
      </trkpt>
      <trkpt lat="45.09421" lon="6.15136">
        <ele>1921.8</ele>
        <time>2021-03-10T13:34:09Z</time>
      </trkpt>
      <trkpt lat="45.0942" lon="6.15136">
        <ele>1921.9</ele>
        <time>2021-03-10T13:34:10Z</time>
      </trkpt>
      <trkpt lat="45.09419" lon="6.15135">
        <ele>1922</ele>
        <time>2021-03-10T13:34:11Z</time>
      </trkpt>
      <trkpt lat="45.09419" lon="6.15135">
        <ele>1922.1</ele>
        <time>2021-03-10T13:34:12Z</time>
      </trkpt>
      <trkpt lat="45.09418" lon="6.15134">
        <ele>1922.1</ele>
        <time>2021-03-10T13:34:13Z</time>
      </trkpt>
      <trkpt lat="45.09418" lon="6.15134">
        <ele>1922.2</ele>
        <time>2021-03-10T13:34:14Z</time>
      </trkpt>
      <trkpt lat="45.09417" lon="6.15133">
        <ele>1922.2</ele>
        <time>2021-03-10T13:34:15Z</time>
      </trkpt>
      <trkpt lat="45.09417" lon="6.15133">
        <ele>1922.3</ele>
        <time>2021-03-10T13:34:16Z</time>
      </trkpt>
      <trkpt lat="45.09417" lon="6.15132">
        <ele>1922.3</ele>
        <time>2021-03-10T13:34:17Z</time>
      </trkpt>
      <trkpt lat="45.09416" lon="6.15131">
        <ele>1922.4</ele>
        <time>2021-03-10T13:34:18Z</time>
      </trkpt>
      <trkpt lat="45.09416" lon="6.1513">
        <ele>1922.4</ele>
        <time>2021-03-10T13:34:19Z</time>
      </trkpt>
      <trkpt lat="45.09415" lon="6.15129">
        <ele>1922.5</ele>
        <time>2021-03-10T13:34:20Z</time>
      </trkpt>
      <trkpt lat="45.09415" lon="6.15128">
        <ele>1922.6</ele>
        <time>2021-03-10T13:34:21Z</time>
      </trkpt>
      <trkpt lat="45.09414" lon="6.15128">
        <ele>1922.6</ele>
        <time>2021-03-10T13:34:22Z</time>
      </trkpt>
      <trkpt lat="45.09413" lon="6.15128">
        <ele>1922.7</ele>
        <time>2021-03-10T13:34:23Z</time>
      </trkpt>
      <trkpt lat="45.09413" lon="6.15127">
        <ele>1922.7</ele>
        <time>2021-03-10T13:34:24Z</time>
      </trkpt>
      <trkpt lat="45.09412" lon="6.15127">
        <ele>1922.8</ele>
        <time>2021-03-10T13:34:25Z</time>
      </trkpt>
      <trkpt lat="45.09411" lon="6.15126">
        <ele>1922.9</ele>
        <time>2021-03-10T13:34:26Z</time>
      </trkpt>
      <trkpt lat="45.0941" lon="6.15125">
        <ele>1922.9</ele>
        <time>2021-03-10T13:34:27Z</time>
      </trkpt>
      <trkpt lat="45.09409" lon="6.15124">
        <ele>1923</ele>
        <time>2021-03-10T13:34:28Z</time>
      </trkpt>
      <trkpt lat="45.09409" lon="6.15123">
        <ele>1923.1</ele>
        <time>2021-03-10T13:34:29Z</time>
      </trkpt>
      <trkpt lat="45.09408" lon="6.15123">
        <ele>1923.1</ele>
        <time>2021-03-10T13:34:30Z</time>
      </trkpt>
      <trkpt lat="45.09408" lon="6.15122">
        <ele>1923.1</ele>
        <time>2021-03-10T13:34:31Z</time>
      </trkpt>
      <trkpt lat="45.09408" lon="6.15122">
        <ele>1923.1</ele>
        <time>2021-03-10T13:34:32Z</time>
      </trkpt>
      <trkpt lat="45.09408" lon="6.15122">
        <ele>1923.1</ele>
        <time>2021-03-10T13:34:33Z</time>
      </trkpt>
      <trkpt lat="45.09408" lon="6.15122">
        <ele>1923.1</ele>
        <time>2021-03-10T13:34:34Z</time>
      </trkpt>
      <trkpt lat="45.09408" lon="6.1512">
        <ele>1923.2</ele>
        <time>2021-03-10T13:34:35Z</time>
      </trkpt>
      <trkpt lat="45.09407" lon="6.15119">
        <ele>1923.3</ele>
        <time>2021-03-10T13:34:36Z</time>
      </trkpt>
      <trkpt lat="45.09407" lon="6.15119">
        <ele>1923.3</ele>
        <time>2021-03-10T13:34:37Z</time>
      </trkpt>
      <trkpt lat="45.09407" lon="6.15118">
        <ele>1923.4</ele>
        <time>2021-03-10T13:34:38Z</time>
      </trkpt>
      <trkpt lat="45.09406" lon="6.15117">
        <ele>1923.4</ele>
        <time>2021-03-10T13:34:39Z</time>
      </trkpt>
      <trkpt lat="45.09406" lon="6.15117">
        <ele>1923.5</ele>
        <time>2021-03-10T13:34:40Z</time>
      </trkpt>
      <trkpt lat="45.09407" lon="6.15116">
        <ele>1923.5</ele>
        <time>2021-03-10T13:34:41Z</time>
      </trkpt>
      <trkpt lat="45.09406" lon="6.15116">
        <ele>1923.5</ele>
        <time>2021-03-10T13:34:42Z</time>
      </trkpt>
      <trkpt lat="45.09406" lon="6.15116">
        <ele>1923.5</ele>
        <time>2021-03-10T13:34:43Z</time>
      </trkpt>
      <trkpt lat="45.09405" lon="6.15115">
        <ele>1923.6</ele>
        <time>2021-03-10T13:34:44Z</time>
      </trkpt>
      <trkpt lat="45.09404" lon="6.15115">
        <ele>1923.7</ele>
        <time>2021-03-10T13:34:45Z</time>
      </trkpt>
      <trkpt lat="45.09404" lon="6.15115">
        <ele>1923.7</ele>
        <time>2021-03-10T13:34:46Z</time>
      </trkpt>
      <trkpt lat="45.09404" lon="6.15115">
        <ele>1923.7</ele>
        <time>2021-03-10T13:34:47Z</time>
      </trkpt>
      <trkpt lat="45.09404" lon="6.15114">
        <ele>1923.7</ele>
        <time>2021-03-10T13:34:48Z</time>
      </trkpt>
      <trkpt lat="45.09404" lon="6.15114">
        <ele>1923.8</ele>
        <time>2021-03-10T13:34:49Z</time>
      </trkpt>
      <trkpt lat="45.09403" lon="6.15112">
        <ele>1923.9</ele>
        <time>2021-03-10T13:34:50Z</time>
      </trkpt>
      <trkpt lat="45.09402" lon="6.15112">
        <ele>1923.9</ele>
        <time>2021-03-10T13:34:51Z</time>
      </trkpt>
      <trkpt lat="45.09401" lon="6.15111">
        <ele>1923.9</ele>
        <time>2021-03-10T13:34:52Z</time>
      </trkpt>
      <trkpt lat="45.094" lon="6.15111">
        <ele>1924</ele>
        <time>2021-03-10T13:34:53Z</time>
      </trkpt>
      <trkpt lat="45.094" lon="6.1511">
        <ele>1924.1</ele>
        <time>2021-03-10T13:34:54Z</time>
      </trkpt>
      <trkpt lat="45.094" lon="6.15109">
        <ele>1924.1</ele>
        <time>2021-03-10T13:34:55Z</time>
      </trkpt>
      <trkpt lat="45.094" lon="6.15109">
        <ele>1924.1</ele>
        <time>2021-03-10T13:34:56Z</time>
      </trkpt>
      <trkpt lat="45.094" lon="6.15108">
        <ele>1924.2</ele>
        <time>2021-03-10T13:34:57Z</time>
      </trkpt>
      <trkpt lat="45.094" lon="6.15108">
        <ele>1924.2</ele>
        <time>2021-03-10T13:34:58Z</time>
      </trkpt>
      <trkpt lat="45.094" lon="6.15107">
        <ele>1924.3</ele>
        <time>2021-03-10T13:34:59Z</time>
      </trkpt>
      <trkpt lat="45.094" lon="6.15107">
        <ele>1924.3</ele>
        <time>2021-03-10T13:35:00Z</time>
      </trkpt>
      <trkpt lat="45.094" lon="6.15106">
        <ele>1924.3</ele>
        <time>2021-03-10T13:35:01Z</time>
      </trkpt>
      <trkpt lat="45.094" lon="6.15106">
        <ele>1924.4</ele>
        <time>2021-03-10T13:35:02Z</time>
      </trkpt>
      <trkpt lat="45.094" lon="6.15105">
        <ele>1924.4</ele>
        <time>2021-03-10T13:35:03Z</time>
      </trkpt>
      <trkpt lat="45.094" lon="6.15105">
        <ele>1924.4</ele>
        <time>2021-03-10T13:35:04Z</time>
      </trkpt>
      <trkpt lat="45.094" lon="6.15105">
        <ele>1924.4</ele>
        <time>2021-03-10T13:35:05Z</time>
      </trkpt>
      <trkpt lat="45.09389" lon="6.15102">
        <ele>1925.2</ele>
        <time>2021-03-10T13:35:46Z</time>
      </trkpt>
      <trkpt lat="45.09389" lon="6.15101">
        <ele>1925.2</ele>
        <time>2021-03-10T13:35:47Z</time>
      </trkpt>
      <trkpt lat="45.09389" lon="6.15101">
        <ele>1925.2</ele>
        <time>2021-03-10T13:35:48Z</time>
      </trkpt>
      <trkpt lat="45.09389" lon="6.15101">
        <ele>1925.3</ele>
        <time>2021-03-10T13:35:49Z</time>
      </trkpt>
      <trkpt lat="45.09388" lon="6.15102">
        <ele>1925.3</ele>
        <time>2021-03-10T13:35:50Z</time>
      </trkpt>
      <trkpt lat="45.09388" lon="6.15102">
        <ele>1925.3</ele>
        <time>2021-03-10T13:35:51Z</time>
      </trkpt>
      <trkpt lat="45.09388" lon="6.15102">
        <ele>1925.3</ele>
        <time>2021-03-10T13:35:52Z</time>
      </trkpt>
      <trkpt lat="45.09388" lon="6.15101">
        <ele>1925.3</ele>
        <time>2021-03-10T13:35:53Z</time>
      </trkpt>
      <trkpt lat="45.09388" lon="6.15101">
        <ele>1925.3</ele>
        <time>2021-03-10T13:35:54Z</time>
      </trkpt>
      <trkpt lat="45.09388" lon="6.15101">
        <ele>1925.3</ele>
        <time>2021-03-10T13:35:55Z</time>
      </trkpt>
      <trkpt lat="45.09387" lon="6.151">
        <ele>1925.4</ele>
        <time>2021-03-10T13:35:56Z</time>
      </trkpt>
      <trkpt lat="45.09387" lon="6.151">
        <ele>1925.4</ele>
        <time>2021-03-10T13:35:57Z</time>
      </trkpt>
      <trkpt lat="45.09387" lon="6.151">
        <ele>1925.4</ele>
        <time>2021-03-10T13:35:58Z</time>
      </trkpt>
      <trkpt lat="45.09387" lon="6.151">
        <ele>1925.4</ele>
        <time>2021-03-10T13:35:59Z</time>
      </trkpt>
      <trkpt lat="45.0938" lon="6.15101">
        <ele>1925.9</ele>
        <time>2021-03-10T13:36:07Z</time>
      </trkpt>
      <trkpt lat="45.09379" lon="6.15101">
        <ele>1925.9</ele>
        <time>2021-03-10T13:36:08Z</time>
      </trkpt>
      <trkpt lat="45.09378" lon="6.15102">
        <ele>1926</ele>
        <time>2021-03-10T13:36:09Z</time>
      </trkpt>
      <trkpt lat="45.09377" lon="6.15102">
        <ele>1926.1</ele>
        <time>2021-03-10T13:36:10Z</time>
      </trkpt>
      <trkpt lat="45.09376" lon="6.15102">
        <ele>1926.1</ele>
        <time>2021-03-10T13:36:11Z</time>
      </trkpt>
      <trkpt lat="45.09375" lon="6.15102">
        <ele>1926.2</ele>
        <time>2021-03-10T13:36:12Z</time>
      </trkpt>
      <trkpt lat="45.09375" lon="6.15102">
        <ele>1926.2</ele>
        <time>2021-03-10T13:36:13Z</time>
      </trkpt>
      <trkpt lat="45.09374" lon="6.15103">
        <ele>1926.3</ele>
        <time>2021-03-10T13:36:14Z</time>
      </trkpt>
      <trkpt lat="45.09372" lon="6.15104">
        <ele>1926.4</ele>
        <time>2021-03-10T13:36:15Z</time>
      </trkpt>
      <trkpt lat="45.09369" lon="6.15107">
        <ele>1926.6</ele>
        <time>2021-03-10T13:36:16Z</time>
      </trkpt>
      <trkpt lat="45.09368" lon="6.15108">
        <ele>1926.7</ele>
        <time>2021-03-10T13:36:17Z</time>
      </trkpt>
      <trkpt lat="45.09367" lon="6.15109">
        <ele>1926.8</ele>
        <time>2021-03-10T13:36:18Z</time>
      </trkpt>
      <trkpt lat="45.09365" lon="6.1511">
        <ele>1926.8</ele>
        <time>2021-03-10T13:36:19Z</time>
      </trkpt>
      <trkpt lat="45.09364" lon="6.1511">
        <ele>1926.9</ele>
        <time>2021-03-10T13:36:20Z</time>
      </trkpt>
      <trkpt lat="45.09363" lon="6.1511">
        <ele>1927</ele>
        <time>2021-03-10T13:36:21Z</time>
      </trkpt>
      <trkpt lat="45.09362" lon="6.1511">
        <ele>1927</ele>
        <time>2021-03-10T13:36:22Z</time>
      </trkpt>
      <trkpt lat="45.09361" lon="6.1511">
        <ele>1927.1</ele>
        <time>2021-03-10T13:36:23Z</time>
      </trkpt>
      <trkpt lat="45.09361" lon="6.1511">
        <ele>1927.1</ele>
        <time>2021-03-10T13:36:24Z</time>
      </trkpt>
      <trkpt lat="45.0936" lon="6.15109">
        <ele>1927.2</ele>
        <time>2021-03-10T13:36:25Z</time>
      </trkpt>
      <trkpt lat="45.09359" lon="6.15109">
        <ele>1927.2</ele>
        <time>2021-03-10T13:36:26Z</time>
      </trkpt>
      <trkpt lat="45.09357" lon="6.15108">
        <ele>1927.3</ele>
        <time>2021-03-10T13:36:27Z</time>
      </trkpt>
      <trkpt lat="45.09356" lon="6.15108">
        <ele>1927.4</ele>
        <time>2021-03-10T13:36:28Z</time>
      </trkpt>
      <trkpt lat="45.09355" lon="6.15108">
        <ele>1927.4</ele>
        <time>2021-03-10T13:36:29Z</time>
      </trkpt>
      <trkpt lat="45.09354" lon="6.15107">
        <ele>1927.5</ele>
        <time>2021-03-10T13:36:30Z</time>
      </trkpt>
      <trkpt lat="45.09353" lon="6.15107">
        <ele>1927.6</ele>
        <time>2021-03-10T13:36:31Z</time>
      </trkpt>
      <trkpt lat="45.09353" lon="6.15105">
        <ele>1927.6</ele>
        <time>2021-03-10T13:36:32Z</time>
      </trkpt>
      <trkpt lat="45.09352" lon="6.15104">
        <ele>1927.7</ele>
        <time>2021-03-10T13:36:33Z</time>
      </trkpt>
      <trkpt lat="45.09352" lon="6.15103">
        <ele>1927.7</ele>
        <time>2021-03-10T13:36:34Z</time>
      </trkpt>
      <trkpt lat="45.09352" lon="6.15101">
        <ele>1927.8</ele>
        <time>2021-03-10T13:36:35Z</time>
      </trkpt>
      <trkpt lat="45.09352" lon="6.151">
        <ele>1927.9</ele>
        <time>2021-03-10T13:36:36Z</time>
      </trkpt>
      <trkpt lat="45.09352" lon="6.15099">
        <ele>1927.9</ele>
        <time>2021-03-10T13:36:37Z</time>
      </trkpt>
      <trkpt lat="45.09352" lon="6.15098">
        <ele>1928</ele>
        <time>2021-03-10T13:36:38Z</time>
      </trkpt>
      <trkpt lat="45.09352" lon="6.15098">
        <ele>1928</ele>
        <time>2021-03-10T13:36:39Z</time>
      </trkpt>
      <trkpt lat="45.09353" lon="6.15098">
        <ele>1928</ele>
        <time>2021-03-10T13:36:40Z</time>
      </trkpt>
      <trkpt lat="45.09354" lon="6.15099">
        <ele>1928.1</ele>
        <time>2021-03-10T13:36:41Z</time>
      </trkpt>
      <trkpt lat="45.09353" lon="6.15101">
        <ele>1928.2</ele>
        <time>2021-03-10T13:36:42Z</time>
      </trkpt>
      <trkpt lat="45.09352" lon="6.15103">
        <ele>1928.3</ele>
        <time>2021-03-10T13:36:43Z</time>
      </trkpt>
      <trkpt lat="45.09351" lon="6.15104">
        <ele>1928.4</ele>
        <time>2021-03-10T13:36:44Z</time>
      </trkpt>
      <trkpt lat="45.0935" lon="6.15105">
        <ele>1928.5</ele>
        <time>2021-03-10T13:36:45Z</time>
      </trkpt>
      <trkpt lat="45.09349" lon="6.15104">
        <ele>1928.6</ele>
        <time>2021-03-10T13:36:46Z</time>
      </trkpt>
      <trkpt lat="45.09348" lon="6.15103">
        <ele>1928.7</ele>
        <time>2021-03-10T13:36:47Z</time>
      </trkpt>
      <trkpt lat="45.09348" lon="6.15101">
        <ele>1928.7</ele>
        <time>2021-03-10T13:36:48Z</time>
      </trkpt>
      <trkpt lat="45.09348" lon="6.151">
        <ele>1928.8</ele>
        <time>2021-03-10T13:36:49Z</time>
      </trkpt>
      <trkpt lat="45.09347" lon="6.15099">
        <ele>1928.8</ele>
        <time>2021-03-10T13:36:50Z</time>
      </trkpt>
      <trkpt lat="45.09347" lon="6.15098">
        <ele>1928.9</ele>
        <time>2021-03-10T13:36:51Z</time>
      </trkpt>
      <trkpt lat="45.09347" lon="6.15096">
        <ele>1929</ele>
        <time>2021-03-10T13:36:52Z</time>
      </trkpt>
      <trkpt lat="45.09347" lon="6.15095">
        <ele>1929.1</ele>
        <time>2021-03-10T13:36:53Z</time>
      </trkpt>
      <trkpt lat="45.09347" lon="6.15093">
        <ele>1929.2</ele>
        <time>2021-03-10T13:36:54Z</time>
      </trkpt>
      <trkpt lat="45.09346" lon="6.15092">
        <ele>1929.2</ele>
        <time>2021-03-10T13:36:55Z</time>
      </trkpt>
      <trkpt lat="45.09347" lon="6.15091">
        <ele>1929.3</ele>
        <time>2021-03-10T13:36:56Z</time>
      </trkpt>
      <trkpt lat="45.09346" lon="6.1509">
        <ele>1929.4</ele>
        <time>2021-03-10T13:36:57Z</time>
      </trkpt>
      <trkpt lat="45.09346" lon="6.15088">
        <ele>1929.4</ele>
        <time>2021-03-10T13:36:58Z</time>
      </trkpt>
      <trkpt lat="45.09346" lon="6.15088">
        <ele>1929.5</ele>
        <time>2021-03-10T13:36:59Z</time>
      </trkpt>
      <trkpt lat="45.09347" lon="6.15088">
        <ele>1929.5</ele>
        <time>2021-03-10T13:37:00Z</time>
      </trkpt>
      <trkpt lat="45.09347" lon="6.15087">
        <ele>1929.5</ele>
        <time>2021-03-10T13:37:01Z</time>
      </trkpt>
      <trkpt lat="45.09348" lon="6.15087">
        <ele>1929.6</ele>
        <time>2021-03-10T13:37:02Z</time>
      </trkpt>
      <trkpt lat="45.09348" lon="6.15087">
        <ele>1929.6</ele>
        <time>2021-03-10T13:37:03Z</time>
      </trkpt>
      <trkpt lat="45.09349" lon="6.15087">
        <ele>1929.7</ele>
        <time>2021-03-10T13:37:04Z</time>
      </trkpt>
      <trkpt lat="45.09348" lon="6.15086">
        <ele>1929.7</ele>
        <time>2021-03-10T13:37:05Z</time>
      </trkpt>
      <trkpt lat="45.09348" lon="6.15086">
        <ele>1929.8</ele>
        <time>2021-03-10T13:37:06Z</time>
      </trkpt>
      <trkpt lat="45.09347" lon="6.15086">
        <ele>1929.8</ele>
        <time>2021-03-10T13:37:07Z</time>
      </trkpt>
      <trkpt lat="45.09346" lon="6.15086">
        <ele>1929.9</ele>
        <time>2021-03-10T13:37:08Z</time>
      </trkpt>
      <trkpt lat="45.09346" lon="6.15085">
        <ele>1930</ele>
        <time>2021-03-10T13:37:09Z</time>
      </trkpt>
      <trkpt lat="45.09346" lon="6.15083">
        <ele>1930</ele>
        <time>2021-03-10T13:37:10Z</time>
      </trkpt>
      <trkpt lat="45.09345" lon="6.15083">
        <ele>1930.1</ele>
        <time>2021-03-10T13:37:11Z</time>
      </trkpt>
      <trkpt lat="45.09345" lon="6.15082">
        <ele>1930.2</ele>
        <time>2021-03-10T13:37:12Z</time>
      </trkpt>
      <trkpt lat="45.09344" lon="6.15081">
        <ele>1930.2</ele>
        <time>2021-03-10T13:37:13Z</time>
      </trkpt>
      <trkpt lat="45.09344" lon="6.1508">
        <ele>1930.3</ele>
        <time>2021-03-10T13:37:14Z</time>
      </trkpt>
      <trkpt lat="45.09343" lon="6.1508">
        <ele>1930.3</ele>
        <time>2021-03-10T13:37:15Z</time>
      </trkpt>
      <trkpt lat="45.09342" lon="6.1508">
        <ele>1930.4</ele>
        <time>2021-03-10T13:37:16Z</time>
      </trkpt>
      <trkpt lat="45.09341" lon="6.15079">
        <ele>1930.5</ele>
        <time>2021-03-10T13:37:17Z</time>
      </trkpt>
      <trkpt lat="45.0934" lon="6.15078">
        <ele>1930.6</ele>
        <time>2021-03-10T13:37:18Z</time>
      </trkpt>
      <trkpt lat="45.0934" lon="6.15078">
        <ele>1930.6</ele>
        <time>2021-03-10T13:37:19Z</time>
      </trkpt>
      <trkpt lat="45.09339" lon="6.15077">
        <ele>1930.7</ele>
        <time>2021-03-10T13:37:20Z</time>
      </trkpt>
      <trkpt lat="45.09338" lon="6.15077">
        <ele>1930.8</ele>
        <time>2021-03-10T13:37:21Z</time>
      </trkpt>
      <trkpt lat="45.09337" lon="6.15076">
        <ele>1930.9</ele>
        <time>2021-03-10T13:37:22Z</time>
      </trkpt>
      <trkpt lat="45.09337" lon="6.15075">
        <ele>1930.9</ele>
        <time>2021-03-10T13:37:23Z</time>
      </trkpt>
      <trkpt lat="45.09336" lon="6.15075">
        <ele>1931</ele>
        <time>2021-03-10T13:37:24Z</time>
      </trkpt>
      <trkpt lat="45.09335" lon="6.15074">
        <ele>1931.1</ele>
        <time>2021-03-10T13:37:25Z</time>
      </trkpt>
      <trkpt lat="45.09334" lon="6.15074">
        <ele>1931.2</ele>
        <time>2021-03-10T13:37:26Z</time>
      </trkpt>
      <trkpt lat="45.09334" lon="6.15074">
        <ele>1931.2</ele>
        <time>2021-03-10T13:37:27Z</time>
      </trkpt>
      <trkpt lat="45.09333" lon="6.15074">
        <ele>1931.3</ele>
        <time>2021-03-10T13:37:28Z</time>
      </trkpt>
      <trkpt lat="45.09332" lon="6.15075">
        <ele>1931.4</ele>
        <time>2021-03-10T13:37:29Z</time>
      </trkpt>
      <trkpt lat="45.0933" lon="6.15075">
        <ele>1931.5</ele>
        <time>2021-03-10T13:37:30Z</time>
      </trkpt>
      <trkpt lat="45.09329" lon="6.15076">
        <ele>1931.6</ele>
        <time>2021-03-10T13:37:31Z</time>
      </trkpt>
      <trkpt lat="45.09328" lon="6.15076">
        <ele>1931.7</ele>
        <time>2021-03-10T13:37:32Z</time>
      </trkpt>
      <trkpt lat="45.09328" lon="6.15076">
        <ele>1931.7</ele>
        <time>2021-03-10T13:37:33Z</time>
      </trkpt>
      <trkpt lat="45.09326" lon="6.15076">
        <ele>1931.9</ele>
        <time>2021-03-10T13:37:34Z</time>
      </trkpt>
      <trkpt lat="45.09325" lon="6.15077">
        <ele>1931.9</ele>
        <time>2021-03-10T13:37:35Z</time>
      </trkpt>
      <trkpt lat="45.09325" lon="6.15077">
        <ele>1932</ele>
        <time>2021-03-10T13:37:36Z</time>
      </trkpt>
      <trkpt lat="45.09324" lon="6.15077">
        <ele>1932.1</ele>
        <time>2021-03-10T13:37:37Z</time>
      </trkpt>
      <trkpt lat="45.09323" lon="6.15078">
        <ele>1932.2</ele>
        <time>2021-03-10T13:37:38Z</time>
      </trkpt>
      <trkpt lat="45.09321" lon="6.15079">
        <ele>1932.3</ele>
        <time>2021-03-10T13:37:39Z</time>
      </trkpt>
      <trkpt lat="45.0932" lon="6.15081">
        <ele>1932.5</ele>
        <time>2021-03-10T13:37:40Z</time>
      </trkpt>
      <trkpt lat="45.09319" lon="6.15081">
        <ele>1932.6</ele>
        <time>2021-03-10T13:37:41Z</time>
      </trkpt>
      <trkpt lat="45.09318" lon="6.15082">
        <ele>1932.7</ele>
        <time>2021-03-10T13:37:42Z</time>
      </trkpt>
      <trkpt lat="45.09316" lon="6.15083">
        <ele>1932.9</ele>
        <time>2021-03-10T13:37:43Z</time>
      </trkpt>
      <trkpt lat="45.09315" lon="6.15083">
        <ele>1932.9</ele>
        <time>2021-03-10T13:37:44Z</time>
      </trkpt>
      <trkpt lat="45.09314" lon="6.15083">
        <ele>1933</ele>
        <time>2021-03-10T13:37:45Z</time>
      </trkpt>
      <trkpt lat="45.09313" lon="6.15083">
        <ele>1933.1</ele>
        <time>2021-03-10T13:37:46Z</time>
      </trkpt>
      <trkpt lat="45.09313" lon="6.15082">
        <ele>1933.2</ele>
        <time>2021-03-10T13:37:47Z</time>
      </trkpt>
      <trkpt lat="45.09312" lon="6.15081">
        <ele>1933.2</ele>
        <time>2021-03-10T13:37:48Z</time>
      </trkpt>
      <trkpt lat="45.09311" lon="6.1508">
        <ele>1933.3</ele>
        <time>2021-03-10T13:37:49Z</time>
      </trkpt>
      <trkpt lat="45.09311" lon="6.1508">
        <ele>1933.4</ele>
        <time>2021-03-10T13:37:50Z</time>
      </trkpt>
      <trkpt lat="45.09311" lon="6.15079">
        <ele>1933.4</ele>
        <time>2021-03-10T13:37:51Z</time>
      </trkpt>
      <trkpt lat="45.0931" lon="6.15079">
        <ele>1933.5</ele>
        <time>2021-03-10T13:37:52Z</time>
      </trkpt>
      <trkpt lat="45.0931" lon="6.15079">
        <ele>1933.5</ele>
        <time>2021-03-10T13:37:53Z</time>
      </trkpt>
      <trkpt lat="45.09309" lon="6.15078">
        <ele>1933.6</ele>
        <time>2021-03-10T13:37:54Z</time>
      </trkpt>
      <trkpt lat="45.09308" lon="6.15077">
        <ele>1933.7</ele>
        <time>2021-03-10T13:37:55Z</time>
      </trkpt>
      <trkpt lat="45.09307" lon="6.15077">
        <ele>1933.8</ele>
        <time>2021-03-10T13:37:56Z</time>
      </trkpt>
      <trkpt lat="45.09307" lon="6.15077">
        <ele>1933.8</ele>
        <time>2021-03-10T13:37:57Z</time>
      </trkpt>
      <trkpt lat="45.09306" lon="6.15076">
        <ele>1933.9</ele>
        <time>2021-03-10T13:37:58Z</time>
      </trkpt>
      <trkpt lat="45.09305" lon="6.15076">
        <ele>1934</ele>
        <time>2021-03-10T13:37:59Z</time>
      </trkpt>
      <trkpt lat="45.09304" lon="6.15075">
        <ele>1934</ele>
        <time>2021-03-10T13:38:00Z</time>
      </trkpt>
      <trkpt lat="45.09303" lon="6.15075">
        <ele>1934.1</ele>
        <time>2021-03-10T13:38:01Z</time>
      </trkpt>
      <trkpt lat="45.09303" lon="6.15074">
        <ele>1934.2</ele>
        <time>2021-03-10T13:38:02Z</time>
      </trkpt>
      <trkpt lat="45.09302" lon="6.15074">
        <ele>1934.2</ele>
        <time>2021-03-10T13:38:03Z</time>
      </trkpt>
      <trkpt lat="45.09302" lon="6.15073">
        <ele>1934.3</ele>
        <time>2021-03-10T13:38:04Z</time>
      </trkpt>
      <trkpt lat="45.09302" lon="6.15072">
        <ele>1934.3</ele>
        <time>2021-03-10T13:38:05Z</time>
      </trkpt>
      <trkpt lat="45.09301" lon="6.15071">
        <ele>1934.4</ele>
        <time>2021-03-10T13:38:06Z</time>
      </trkpt>
      <trkpt lat="45.09301" lon="6.1507">
        <ele>1934.5</ele>
        <time>2021-03-10T13:38:07Z</time>
      </trkpt>
      <trkpt lat="45.093" lon="6.15068">
        <ele>1934.6</ele>
        <time>2021-03-10T13:38:08Z</time>
      </trkpt>
      <trkpt lat="45.093" lon="6.15067">
        <ele>1934.6</ele>
        <time>2021-03-10T13:38:09Z</time>
      </trkpt>
      <trkpt lat="45.093" lon="6.15066">
        <ele>1934.7</ele>
        <time>2021-03-10T13:38:10Z</time>
      </trkpt>
      <trkpt lat="45.093" lon="6.15065">
        <ele>1934.8</ele>
        <time>2021-03-10T13:38:11Z</time>
      </trkpt>
      <trkpt lat="45.093" lon="6.15064">
        <ele>1934.8</ele>
        <time>2021-03-10T13:38:12Z</time>
      </trkpt>
      <trkpt lat="45.093" lon="6.15063">
        <ele>1934.9</ele>
        <time>2021-03-10T13:38:13Z</time>
      </trkpt>
      <trkpt lat="45.09299" lon="6.15062">
        <ele>1934.9</ele>
        <time>2021-03-10T13:38:14Z</time>
      </trkpt>
      <trkpt lat="45.09299" lon="6.15061">
        <ele>1935</ele>
        <time>2021-03-10T13:38:15Z</time>
      </trkpt>
      <trkpt lat="45.09299" lon="6.1506">
        <ele>1935</ele>
        <time>2021-03-10T13:38:16Z</time>
      </trkpt>
      <trkpt lat="45.09299" lon="6.1506">
        <ele>1935.1</ele>
        <time>2021-03-10T13:38:17Z</time>
      </trkpt>
      <trkpt lat="45.09299" lon="6.1506">
        <ele>1935.1</ele>
        <time>2021-03-10T13:38:18Z</time>
      </trkpt>
      <trkpt lat="45.093" lon="6.1506">
        <ele>1935.2</ele>
        <time>2021-03-10T13:38:19Z</time>
      </trkpt>
      <trkpt lat="45.093" lon="6.1506">
        <ele>1935.2</ele>
        <time>2021-03-10T13:38:20Z</time>
      </trkpt>
      <trkpt lat="45.09301" lon="6.1506">
        <ele>1935.2</ele>
        <time>2021-03-10T13:38:21Z</time>
      </trkpt>
      <trkpt lat="45.093" lon="6.15059">
        <ele>1935.2</ele>
        <time>2021-03-10T13:38:22Z</time>
      </trkpt>
      <trkpt lat="45.09299" lon="6.15058">
        <ele>1935.3</ele>
        <time>2021-03-10T13:38:23Z</time>
      </trkpt>
      <trkpt lat="45.09299" lon="6.15058">
        <ele>1935.4</ele>
        <time>2021-03-10T13:38:24Z</time>
      </trkpt>
      <trkpt lat="45.09298" lon="6.15057">
        <ele>1935.4</ele>
        <time>2021-03-10T13:38:25Z</time>
      </trkpt>
      <trkpt lat="45.09298" lon="6.15057">
        <ele>1935.5</ele>
        <time>2021-03-10T13:38:26Z</time>
      </trkpt>
      <trkpt lat="45.09297" lon="6.15056">
        <ele>1935.5</ele>
        <time>2021-03-10T13:38:27Z</time>
      </trkpt>
      <trkpt lat="45.09296" lon="6.15056">
        <ele>1935.6</ele>
        <time>2021-03-10T13:38:28Z</time>
      </trkpt>
      <trkpt lat="45.09295" lon="6.15055">
        <ele>1935.7</ele>
        <time>2021-03-10T13:38:29Z</time>
      </trkpt>
      <trkpt lat="45.09295" lon="6.15054">
        <ele>1935.7</ele>
        <time>2021-03-10T13:38:30Z</time>
      </trkpt>
      <trkpt lat="45.09295" lon="6.15054">
        <ele>1935.7</ele>
        <time>2021-03-10T13:38:31Z</time>
      </trkpt>
      <trkpt lat="45.09295" lon="6.15054">
        <ele>1935.7</ele>
        <time>2021-03-10T13:38:32Z</time>
      </trkpt>
      <trkpt lat="45.09295" lon="6.15053">
        <ele>1935.8</ele>
        <time>2021-03-10T13:38:33Z</time>
      </trkpt>
      <trkpt lat="45.09295" lon="6.15053">
        <ele>1935.8</ele>
        <time>2021-03-10T13:38:34Z</time>
      </trkpt>
      <trkpt lat="45.09295" lon="6.15053">
        <ele>1935.8</ele>
        <time>2021-03-10T13:38:35Z</time>
      </trkpt>
      <trkpt lat="45.09295" lon="6.15053">
        <ele>1935.8</ele>
        <time>2021-03-10T13:38:36Z</time>
      </trkpt>
      <trkpt lat="45.09294" lon="6.15052">
        <ele>1935.8</ele>
        <time>2021-03-10T13:38:37Z</time>
      </trkpt>
      <trkpt lat="45.09294" lon="6.15052">
        <ele>1935.9</ele>
        <time>2021-03-10T13:38:38Z</time>
      </trkpt>
      <trkpt lat="45.09294" lon="6.15052">
        <ele>1935.9</ele>
        <time>2021-03-10T13:38:39Z</time>
      </trkpt>
      <trkpt lat="45.09285" lon="6.15052">
        <ele>1936.5</ele>
        <time>2021-03-10T13:38:52Z</time>
      </trkpt>
      <trkpt lat="45.09284" lon="6.15052">
        <ele>1936.6</ele>
        <time>2021-03-10T13:38:53Z</time>
      </trkpt>
      <trkpt lat="45.09283" lon="6.15051">
        <ele>1936.6</ele>
        <time>2021-03-10T13:38:54Z</time>
      </trkpt>
      <trkpt lat="45.09282" lon="6.15051">
        <ele>1936.7</ele>
        <time>2021-03-10T13:38:55Z</time>
      </trkpt>
      <trkpt lat="45.09281" lon="6.1505">
        <ele>1936.8</ele>
        <time>2021-03-10T13:38:56Z</time>
      </trkpt>
      <trkpt lat="45.09281" lon="6.1505">
        <ele>1936.8</ele>
        <time>2021-03-10T13:38:57Z</time>
      </trkpt>
      <trkpt lat="45.0928" lon="6.1505">
        <ele>1936.8</ele>
        <time>2021-03-10T13:38:58Z</time>
      </trkpt>
      <trkpt lat="45.0928" lon="6.15049">
        <ele>1936.9</ele>
        <time>2021-03-10T13:38:59Z</time>
      </trkpt>
      <trkpt lat="45.09279" lon="6.15049">
        <ele>1936.9</ele>
        <time>2021-03-10T13:39:00Z</time>
      </trkpt>
      <trkpt lat="45.09279" lon="6.15048">
        <ele>1937</ele>
        <time>2021-03-10T13:39:01Z</time>
      </trkpt>
      <trkpt lat="45.09278" lon="6.15048">
        <ele>1937</ele>
        <time>2021-03-10T13:39:02Z</time>
      </trkpt>
      <trkpt lat="45.09277" lon="6.15048">
        <ele>1937.1</ele>
        <time>2021-03-10T13:39:03Z</time>
      </trkpt>
      <trkpt lat="45.09276" lon="6.15048">
        <ele>1937.1</ele>
        <time>2021-03-10T13:39:04Z</time>
      </trkpt>
      <trkpt lat="45.09276" lon="6.15048">
        <ele>1937.2</ele>
        <time>2021-03-10T13:39:05Z</time>
      </trkpt>
      <trkpt lat="45.09275" lon="6.15049">
        <ele>1937.3</ele>
        <time>2021-03-10T13:39:06Z</time>
      </trkpt>
      <trkpt lat="45.09274" lon="6.15049">
        <ele>1937.3</ele>
        <time>2021-03-10T13:39:07Z</time>
      </trkpt>
      <trkpt lat="45.09273" lon="6.15049">
        <ele>1937.4</ele>
        <time>2021-03-10T13:39:08Z</time>
      </trkpt>
      <trkpt lat="45.09272" lon="6.15049">
        <ele>1937.4</ele>
        <time>2021-03-10T13:39:09Z</time>
      </trkpt>
      <trkpt lat="45.09271" lon="6.15049">
        <ele>1937.5</ele>
        <time>2021-03-10T13:39:10Z</time>
      </trkpt>
      <trkpt lat="45.0927" lon="6.15049">
        <ele>1937.6</ele>
        <time>2021-03-10T13:39:11Z</time>
      </trkpt>
      <trkpt lat="45.09269" lon="6.15049">
        <ele>1937.7</ele>
        <time>2021-03-10T13:39:12Z</time>
      </trkpt>
      <trkpt lat="45.09268" lon="6.1505">
        <ele>1937.7</ele>
        <time>2021-03-10T13:39:13Z</time>
      </trkpt>
      <trkpt lat="45.09267" lon="6.1505">
        <ele>1937.8</ele>
        <time>2021-03-10T13:39:14Z</time>
      </trkpt>
      <trkpt lat="45.09266" lon="6.1505">
        <ele>1937.9</ele>
        <time>2021-03-10T13:39:15Z</time>
      </trkpt>
      <trkpt lat="45.09266" lon="6.1505">
        <ele>1937.9</ele>
        <time>2021-03-10T13:39:16Z</time>
      </trkpt>
      <trkpt lat="45.09265" lon="6.15051">
        <ele>1938</ele>
        <time>2021-03-10T13:39:17Z</time>
      </trkpt>
      <trkpt lat="45.09264" lon="6.15052">
        <ele>1938</ele>
        <time>2021-03-10T13:39:18Z</time>
      </trkpt>
      <trkpt lat="45.09263" lon="6.15052">
        <ele>1938.1</ele>
        <time>2021-03-10T13:39:19Z</time>
      </trkpt>
      <trkpt lat="45.09263" lon="6.15052">
        <ele>1938.1</ele>
        <time>2021-03-10T13:39:20Z</time>
      </trkpt>
      <trkpt lat="45.09262" lon="6.15052">
        <ele>1938.2</ele>
        <time>2021-03-10T13:39:21Z</time>
      </trkpt>
      <trkpt lat="45.09261" lon="6.15052">
        <ele>1938.3</ele>
        <time>2021-03-10T13:39:22Z</time>
      </trkpt>
      <trkpt lat="45.0926" lon="6.15052">
        <ele>1938.3</ele>
        <time>2021-03-10T13:39:23Z</time>
      </trkpt>
      <trkpt lat="45.09259" lon="6.15052">
        <ele>1938.4</ele>
        <time>2021-03-10T13:39:24Z</time>
      </trkpt>
      <trkpt lat="45.09258" lon="6.15051">
        <ele>1938.5</ele>
        <time>2021-03-10T13:39:25Z</time>
      </trkpt>
      <trkpt lat="45.09257" lon="6.15051">
        <ele>1938.6</ele>
        <time>2021-03-10T13:39:26Z</time>
      </trkpt>
      <trkpt lat="45.09256" lon="6.15051">
        <ele>1938.7</ele>
        <time>2021-03-10T13:39:27Z</time>
      </trkpt>
      <trkpt lat="45.09255" lon="6.1505">
        <ele>1938.7</ele>
        <time>2021-03-10T13:39:28Z</time>
      </trkpt>
      <trkpt lat="45.09254" lon="6.1505">
        <ele>1938.8</ele>
        <time>2021-03-10T13:39:29Z</time>
      </trkpt>
      <trkpt lat="45.09253" lon="6.1505">
        <ele>1938.9</ele>
        <time>2021-03-10T13:39:30Z</time>
      </trkpt>
      <trkpt lat="45.09253" lon="6.1505">
        <ele>1938.9</ele>
        <time>2021-03-10T13:39:31Z</time>
      </trkpt>
      <trkpt lat="45.09252" lon="6.1505">
        <ele>1939</ele>
        <time>2021-03-10T13:39:32Z</time>
      </trkpt>
      <trkpt lat="45.09251" lon="6.1505">
        <ele>1939</ele>
        <time>2021-03-10T13:39:33Z</time>
      </trkpt>
      <trkpt lat="45.0925" lon="6.15049">
        <ele>1939.1</ele>
        <time>2021-03-10T13:39:34Z</time>
      </trkpt>
      <trkpt lat="45.0925" lon="6.15049">
        <ele>1939.1</ele>
        <time>2021-03-10T13:39:35Z</time>
      </trkpt>
      <trkpt lat="45.09249" lon="6.15049">
        <ele>1939.2</ele>
        <time>2021-03-10T13:39:36Z</time>
      </trkpt>
      <trkpt lat="45.09248" lon="6.15049">
        <ele>1939.3</ele>
        <time>2021-03-10T13:39:37Z</time>
      </trkpt>
      <trkpt lat="45.09246" lon="6.1505">
        <ele>1939.4</ele>
        <time>2021-03-10T13:39:38Z</time>
      </trkpt>
      <trkpt lat="45.09245" lon="6.15049">
        <ele>1939.5</ele>
        <time>2021-03-10T13:39:39Z</time>
      </trkpt>
      <trkpt lat="45.09244" lon="6.15049">
        <ele>1939.6</ele>
        <time>2021-03-10T13:39:40Z</time>
      </trkpt>
      <trkpt lat="45.09243" lon="6.15049">
        <ele>1939.7</ele>
        <time>2021-03-10T13:39:41Z</time>
      </trkpt>
      <trkpt lat="45.09243" lon="6.15048">
        <ele>1939.7</ele>
        <time>2021-03-10T13:39:42Z</time>
      </trkpt>
      <trkpt lat="45.09242" lon="6.15047">
        <ele>1939.8</ele>
        <time>2021-03-10T13:39:43Z</time>
      </trkpt>
      <trkpt lat="45.09241" lon="6.15047">
        <ele>1939.9</ele>
        <time>2021-03-10T13:39:44Z</time>
      </trkpt>
      <trkpt lat="45.0924" lon="6.15046">
        <ele>1940</ele>
        <time>2021-03-10T13:39:45Z</time>
      </trkpt>
      <trkpt lat="45.0924" lon="6.15046">
        <ele>1940.1</ele>
        <time>2021-03-10T13:39:46Z</time>
      </trkpt>
      <trkpt lat="45.09239" lon="6.15046">
        <ele>1940.1</ele>
        <time>2021-03-10T13:39:47Z</time>
      </trkpt>
      <trkpt lat="45.09239" lon="6.15046">
        <ele>1940.2</ele>
        <time>2021-03-10T13:39:48Z</time>
      </trkpt>
      <trkpt lat="45.09238" lon="6.15046">
        <ele>1940.2</ele>
        <time>2021-03-10T13:39:49Z</time>
      </trkpt>
      <trkpt lat="45.09237" lon="6.15045">
        <ele>1940.3</ele>
        <time>2021-03-10T13:39:50Z</time>
      </trkpt>
      <trkpt lat="45.09235" lon="6.15044">
        <ele>1940.5</ele>
        <time>2021-03-10T13:39:51Z</time>
      </trkpt>
      <trkpt lat="45.09234" lon="6.15043">
        <ele>1940.6</ele>
        <time>2021-03-10T13:39:52Z</time>
      </trkpt>
      <trkpt lat="45.09233" lon="6.15043">
        <ele>1940.7</ele>
        <time>2021-03-10T13:39:53Z</time>
      </trkpt>
      <trkpt lat="45.09232" lon="6.15043">
        <ele>1940.8</ele>
        <time>2021-03-10T13:39:54Z</time>
      </trkpt>
      <trkpt lat="45.09232" lon="6.15043">
        <ele>1940.8</ele>
        <time>2021-03-10T13:39:55Z</time>
      </trkpt>
      <trkpt lat="45.09231" lon="6.15043">
        <ele>1940.8</ele>
        <time>2021-03-10T13:39:56Z</time>
      </trkpt>
      <trkpt lat="45.09231" lon="6.15043">
        <ele>1940.9</ele>
        <time>2021-03-10T13:39:57Z</time>
      </trkpt>
      <trkpt lat="45.0923" lon="6.15042">
        <ele>1940.9</ele>
        <time>2021-03-10T13:39:58Z</time>
      </trkpt>
      <trkpt lat="45.0923" lon="6.15042">
        <ele>1941</ele>
        <time>2021-03-10T13:39:59Z</time>
      </trkpt>
      <trkpt lat="45.0923" lon="6.15042">
        <ele>1941</ele>
        <time>2021-03-10T13:40:00Z</time>
      </trkpt>
      <trkpt lat="45.09229" lon="6.15042">
        <ele>1941</ele>
        <time>2021-03-10T13:40:01Z</time>
      </trkpt>
      <trkpt lat="45.09229" lon="6.15042">
        <ele>1941.1</ele>
        <time>2021-03-10T13:40:02Z</time>
      </trkpt>
      <trkpt lat="45.09228" lon="6.15042">
        <ele>1941.1</ele>
        <time>2021-03-10T13:40:03Z</time>
      </trkpt>
      <trkpt lat="45.09228" lon="6.15042">
        <ele>1941.1</ele>
        <time>2021-03-10T13:40:04Z</time>
      </trkpt>
      <trkpt lat="45.09226" lon="6.15042">
        <ele>1941.3</ele>
        <time>2021-03-10T13:40:05Z</time>
      </trkpt>
      <trkpt lat="45.09225" lon="6.15042">
        <ele>1941.4</ele>
        <time>2021-03-10T13:40:06Z</time>
      </trkpt>
      <trkpt lat="45.09224" lon="6.15042">
        <ele>1941.4</ele>
        <time>2021-03-10T13:40:07Z</time>
      </trkpt>
      <trkpt lat="45.09222" lon="6.15042">
        <ele>1941.5</ele>
        <time>2021-03-10T13:40:08Z</time>
      </trkpt>
      <trkpt lat="45.0922" lon="6.15042">
        <ele>1941.7</ele>
        <time>2021-03-10T13:40:09Z</time>
      </trkpt>
      <trkpt lat="45.09219" lon="6.15041">
        <ele>1941.8</ele>
        <time>2021-03-10T13:40:10Z</time>
      </trkpt>
      <trkpt lat="45.09218" lon="6.15041">
        <ele>1941.9</ele>
        <time>2021-03-10T13:40:11Z</time>
      </trkpt>
      <trkpt lat="45.09216" lon="6.1504">
        <ele>1942</ele>
        <time>2021-03-10T13:40:12Z</time>
      </trkpt>
      <trkpt lat="45.09215" lon="6.15039">
        <ele>1942.1</ele>
        <time>2021-03-10T13:40:13Z</time>
      </trkpt>
      <trkpt lat="45.09214" lon="6.15039">
        <ele>1942.2</ele>
        <time>2021-03-10T13:40:14Z</time>
      </trkpt>
      <trkpt lat="45.09212" lon="6.15038">
        <ele>1942.3</ele>
        <time>2021-03-10T13:40:15Z</time>
      </trkpt>
      <trkpt lat="45.09211" lon="6.15037">
        <ele>1942.4</ele>
        <time>2021-03-10T13:40:16Z</time>
      </trkpt>
      <trkpt lat="45.0921" lon="6.15037">
        <ele>1942.5</ele>
        <time>2021-03-10T13:40:17Z</time>
      </trkpt>
      <trkpt lat="45.09209" lon="6.15036">
        <ele>1942.6</ele>
        <time>2021-03-10T13:40:18Z</time>
      </trkpt>
      <trkpt lat="45.09208" lon="6.15035">
        <ele>1942.7</ele>
        <time>2021-03-10T13:40:19Z</time>
      </trkpt>
      <trkpt lat="45.09207" lon="6.15035">
        <ele>1942.7</ele>
        <time>2021-03-10T13:40:20Z</time>
      </trkpt>
      <trkpt lat="45.09206" lon="6.15034">
        <ele>1942.8</ele>
        <time>2021-03-10T13:40:21Z</time>
      </trkpt>
      <trkpt lat="45.09205" lon="6.15033">
        <ele>1942.9</ele>
        <time>2021-03-10T13:40:22Z</time>
      </trkpt>
      <trkpt lat="45.09204" lon="6.15033">
        <ele>1943</ele>
        <time>2021-03-10T13:40:23Z</time>
      </trkpt>
      <trkpt lat="45.09203" lon="6.15033">
        <ele>1943</ele>
        <time>2021-03-10T13:40:24Z</time>
      </trkpt>
      <trkpt lat="45.09203" lon="6.15033">
        <ele>1943.1</ele>
        <time>2021-03-10T13:40:25Z</time>
      </trkpt>
      <trkpt lat="45.09202" lon="6.15032">
        <ele>1943.1</ele>
        <time>2021-03-10T13:40:26Z</time>
      </trkpt>
      <trkpt lat="45.09201" lon="6.15031">
        <ele>1943.2</ele>
        <time>2021-03-10T13:40:27Z</time>
      </trkpt>
      <trkpt lat="45.092" lon="6.15031">
        <ele>1943.3</ele>
        <time>2021-03-10T13:40:28Z</time>
      </trkpt>
      <trkpt lat="45.092" lon="6.1503">
        <ele>1943.3</ele>
        <time>2021-03-10T13:40:29Z</time>
      </trkpt>
      <trkpt lat="45.09199" lon="6.1503">
        <ele>1943.4</ele>
        <time>2021-03-10T13:40:30Z</time>
      </trkpt>
      <trkpt lat="45.09199" lon="6.15029">
        <ele>1943.4</ele>
        <time>2021-03-10T13:40:31Z</time>
      </trkpt>
      <trkpt lat="45.09199" lon="6.15029">
        <ele>1943.4</ele>
        <time>2021-03-10T13:40:32Z</time>
      </trkpt>
      <trkpt lat="45.09198" lon="6.15028">
        <ele>1943.5</ele>
        <time>2021-03-10T13:40:33Z</time>
      </trkpt>
      <trkpt lat="45.09198" lon="6.15027">
        <ele>1943.5</ele>
        <time>2021-03-10T13:40:34Z</time>
      </trkpt>
      <trkpt lat="45.09198" lon="6.15026">
        <ele>1943.6</ele>
        <time>2021-03-10T13:40:35Z</time>
      </trkpt>
      <trkpt lat="45.09198" lon="6.15025">
        <ele>1943.6</ele>
        <time>2021-03-10T13:40:36Z</time>
      </trkpt>
      <trkpt lat="45.09197" lon="6.15024">
        <ele>1943.7</ele>
        <time>2021-03-10T13:40:37Z</time>
      </trkpt>
      <trkpt lat="45.09197" lon="6.15024">
        <ele>1943.7</ele>
        <time>2021-03-10T13:40:38Z</time>
      </trkpt>
      <trkpt lat="45.09197" lon="6.15023">
        <ele>1943.8</ele>
        <time>2021-03-10T13:40:39Z</time>
      </trkpt>
      <trkpt lat="45.09196" lon="6.15022">
        <ele>1943.8</ele>
        <time>2021-03-10T13:40:40Z</time>
      </trkpt>
      <trkpt lat="45.09195" lon="6.15021">
        <ele>1943.9</ele>
        <time>2021-03-10T13:40:41Z</time>
      </trkpt>
      <trkpt lat="45.09195" lon="6.1502">
        <ele>1944</ele>
        <time>2021-03-10T13:40:42Z</time>
      </trkpt>
      <trkpt lat="45.09194" lon="6.15018">
        <ele>1944</ele>
        <time>2021-03-10T13:40:43Z</time>
      </trkpt>
      <trkpt lat="45.09194" lon="6.15017">
        <ele>1944.1</ele>
        <time>2021-03-10T13:40:44Z</time>
      </trkpt>
      <trkpt lat="45.09194" lon="6.15016">
        <ele>1944.2</ele>
        <time>2021-03-10T13:40:45Z</time>
      </trkpt>
      <trkpt lat="45.09193" lon="6.15015">
        <ele>1944.2</ele>
        <time>2021-03-10T13:40:46Z</time>
      </trkpt>
      <trkpt lat="45.09193" lon="6.15014">
        <ele>1944.3</ele>
        <time>2021-03-10T13:40:47Z</time>
      </trkpt>
      <trkpt lat="45.09193" lon="6.15013">
        <ele>1944.3</ele>
        <time>2021-03-10T13:40:48Z</time>
      </trkpt>
      <trkpt lat="45.09192" lon="6.15012">
        <ele>1944.4</ele>
        <time>2021-03-10T13:40:49Z</time>
      </trkpt>
      <trkpt lat="45.09192" lon="6.15011">
        <ele>1944.4</ele>
        <time>2021-03-10T13:40:50Z</time>
      </trkpt>
      <trkpt lat="45.09192" lon="6.1501">
        <ele>1944.5</ele>
        <time>2021-03-10T13:40:51Z</time>
      </trkpt>
      <trkpt lat="45.09192" lon="6.15009">
        <ele>1944.5</ele>
        <time>2021-03-10T13:40:52Z</time>
      </trkpt>
      <trkpt lat="45.09192" lon="6.15008">
        <ele>1944.6</ele>
        <time>2021-03-10T13:40:53Z</time>
      </trkpt>
      <trkpt lat="45.09192" lon="6.15007">
        <ele>1944.6</ele>
        <time>2021-03-10T13:40:54Z</time>
      </trkpt>
      <trkpt lat="45.09192" lon="6.15006">
        <ele>1944.7</ele>
        <time>2021-03-10T13:40:55Z</time>
      </trkpt>
      <trkpt lat="45.09191" lon="6.15004">
        <ele>1944.8</ele>
        <time>2021-03-10T13:40:56Z</time>
      </trkpt>
      <trkpt lat="45.09191" lon="6.15004">
        <ele>1944.8</ele>
        <time>2021-03-10T13:40:57Z</time>
      </trkpt>
      <trkpt lat="45.09191" lon="6.15003">
        <ele>1944.8</ele>
        <time>2021-03-10T13:40:58Z</time>
      </trkpt>
      <trkpt lat="45.0919" lon="6.15002">
        <ele>1944.9</ele>
        <time>2021-03-10T13:40:59Z</time>
      </trkpt>
      <trkpt lat="45.0919" lon="6.15001">
        <ele>1945</ele>
        <time>2021-03-10T13:41:00Z</time>
      </trkpt>
      <trkpt lat="45.0919" lon="6.14999">
        <ele>1945</ele>
        <time>2021-03-10T13:41:01Z</time>
      </trkpt>
      <trkpt lat="45.09189" lon="6.14998">
        <ele>1945.1</ele>
        <time>2021-03-10T13:41:02Z</time>
      </trkpt>
      <trkpt lat="45.09189" lon="6.14997">
        <ele>1945.1</ele>
        <time>2021-03-10T13:41:03Z</time>
      </trkpt>
      <trkpt lat="45.09189" lon="6.14996">
        <ele>1945.2</ele>
        <time>2021-03-10T13:41:04Z</time>
      </trkpt>
      <trkpt lat="45.09188" lon="6.14995">
        <ele>1945.3</ele>
        <time>2021-03-10T13:41:05Z</time>
      </trkpt>
      <trkpt lat="45.09188" lon="6.14994">
        <ele>1945.3</ele>
        <time>2021-03-10T13:41:06Z</time>
      </trkpt>
      <trkpt lat="45.09187" lon="6.14993">
        <ele>1945.4</ele>
        <time>2021-03-10T13:41:07Z</time>
      </trkpt>
      <trkpt lat="45.09187" lon="6.14992">
        <ele>1945.4</ele>
        <time>2021-03-10T13:41:08Z</time>
      </trkpt>
      <trkpt lat="45.09186" lon="6.1499">
        <ele>1945.5</ele>
        <time>2021-03-10T13:41:09Z</time>
      </trkpt>
      <trkpt lat="45.09186" lon="6.14989">
        <ele>1945.6</ele>
        <time>2021-03-10T13:41:10Z</time>
      </trkpt>
      <trkpt lat="45.09186" lon="6.14988">
        <ele>1945.6</ele>
        <time>2021-03-10T13:41:11Z</time>
      </trkpt>
      <trkpt lat="45.09186" lon="6.14987">
        <ele>1945.7</ele>
        <time>2021-03-10T13:41:12Z</time>
      </trkpt>
      <trkpt lat="45.09186" lon="6.14986">
        <ele>1945.7</ele>
        <time>2021-03-10T13:41:13Z</time>
      </trkpt>
      <trkpt lat="45.09185" lon="6.14985">
        <ele>1945.8</ele>
        <time>2021-03-10T13:41:14Z</time>
      </trkpt>
      <trkpt lat="45.09186" lon="6.14984">
        <ele>1945.8</ele>
        <time>2021-03-10T13:41:15Z</time>
      </trkpt>
      <trkpt lat="45.09185" lon="6.14983">
        <ele>1946</ele>
        <time>2021-03-10T13:41:16Z</time>
      </trkpt>
      <trkpt lat="45.09185" lon="6.14982">
        <ele>1946</ele>
        <time>2021-03-10T13:41:17Z</time>
      </trkpt>
      <trkpt lat="45.09185" lon="6.14982">
        <ele>1946.1</ele>
        <time>2021-03-10T13:41:18Z</time>
      </trkpt>
      <trkpt lat="45.09186" lon="6.14982">
        <ele>1946.1</ele>
        <time>2021-03-10T13:41:19Z</time>
      </trkpt>
      <trkpt lat="45.09186" lon="6.14981">
        <ele>1946.2</ele>
        <time>2021-03-10T13:41:20Z</time>
      </trkpt>
      <trkpt lat="45.09185" lon="6.14979">
        <ele>1946.3</ele>
        <time>2021-03-10T13:41:21Z</time>
      </trkpt>
      <trkpt lat="45.09184" lon="6.14978">
        <ele>1946.5</ele>
        <time>2021-03-10T13:41:22Z</time>
      </trkpt>
      <trkpt lat="45.09183" lon="6.14977">
        <ele>1946.7</ele>
        <time>2021-03-10T13:41:23Z</time>
      </trkpt>
      <trkpt lat="45.09181" lon="6.14975">
        <ele>1946.8</ele>
        <time>2021-03-10T13:41:24Z</time>
      </trkpt>
      <trkpt lat="45.09181" lon="6.14975">
        <ele>1947</ele>
        <time>2021-03-10T13:41:25Z</time>
      </trkpt>
      <trkpt lat="45.0918" lon="6.14974">
        <ele>1947.1</ele>
        <time>2021-03-10T13:41:26Z</time>
      </trkpt>
      <trkpt lat="45.09179" lon="6.14973">
        <ele>1947.2</ele>
        <time>2021-03-10T13:41:27Z</time>
      </trkpt>
      <trkpt lat="45.09179" lon="6.14972">
        <ele>1947.3</ele>
        <time>2021-03-10T13:41:28Z</time>
      </trkpt>
      <trkpt lat="45.09178" lon="6.14971">
        <ele>1947.4</ele>
        <time>2021-03-10T13:41:29Z</time>
      </trkpt>
      <trkpt lat="45.09177" lon="6.1497">
        <ele>1947.5</ele>
        <time>2021-03-10T13:41:30Z</time>
      </trkpt>
      <trkpt lat="45.09177" lon="6.14969">
        <ele>1947.5</ele>
        <time>2021-03-10T13:41:31Z</time>
      </trkpt>
      <trkpt lat="45.09177" lon="6.14969">
        <ele>1947.6</ele>
        <time>2021-03-10T13:41:32Z</time>
      </trkpt>
      <trkpt lat="45.09177" lon="6.14969">
        <ele>1947.6</ele>
        <time>2021-03-10T13:41:33Z</time>
      </trkpt>
      <trkpt lat="45.09177" lon="6.14969">
        <ele>1947.6</ele>
        <time>2021-03-10T13:41:34Z</time>
      </trkpt>
      <trkpt lat="45.09177" lon="6.14969">
        <ele>1947.6</ele>
        <time>2021-03-10T13:41:35Z</time>
      </trkpt>
      <trkpt lat="45.09176" lon="6.14968">
        <ele>1947.7</ele>
        <time>2021-03-10T13:41:36Z</time>
      </trkpt>
      <trkpt lat="45.09175" lon="6.14968">
        <ele>1947.8</ele>
        <time>2021-03-10T13:41:37Z</time>
      </trkpt>
      <trkpt lat="45.09174" lon="6.14967">
        <ele>1948</ele>
        <time>2021-03-10T13:41:38Z</time>
      </trkpt>
      <trkpt lat="45.09173" lon="6.14966">
        <ele>1948.1</ele>
        <time>2021-03-10T13:41:39Z</time>
      </trkpt>
      <trkpt lat="45.09173" lon="6.14966">
        <ele>1948.2</ele>
        <time>2021-03-10T13:41:40Z</time>
      </trkpt>
      <trkpt lat="45.09172" lon="6.14965">
        <ele>1948.2</ele>
        <time>2021-03-10T13:41:41Z</time>
      </trkpt>
      <trkpt lat="45.09172" lon="6.14965">
        <ele>1948.3</ele>
        <time>2021-03-10T13:41:42Z</time>
      </trkpt>
      <trkpt lat="45.09171" lon="6.14965">
        <ele>1948.4</ele>
        <time>2021-03-10T13:41:43Z</time>
      </trkpt>
      <trkpt lat="45.09171" lon="6.14964">
        <ele>1948.4</ele>
        <time>2021-03-10T13:41:44Z</time>
      </trkpt>
      <trkpt lat="45.09171" lon="6.14963">
        <ele>1948.5</ele>
        <time>2021-03-10T13:41:45Z</time>
      </trkpt>
      <trkpt lat="45.0917" lon="6.14962">
        <ele>1948.6</ele>
        <time>2021-03-10T13:41:46Z</time>
      </trkpt>
      <trkpt lat="45.0917" lon="6.14961">
        <ele>1948.7</ele>
        <time>2021-03-10T13:41:47Z</time>
      </trkpt>
      <trkpt lat="45.09169" lon="6.14961">
        <ele>1948.7</ele>
        <time>2021-03-10T13:41:48Z</time>
      </trkpt>
      <trkpt lat="45.09169" lon="6.1496">
        <ele>1948.8</ele>
        <time>2021-03-10T13:41:49Z</time>
      </trkpt>
      <trkpt lat="45.09168" lon="6.14959">
        <ele>1948.9</ele>
        <time>2021-03-10T13:41:50Z</time>
      </trkpt>
      <trkpt lat="45.09168" lon="6.14958">
        <ele>1949</ele>
        <time>2021-03-10T13:41:51Z</time>
      </trkpt>
      <trkpt lat="45.09167" lon="6.14958">
        <ele>1949.1</ele>
        <time>2021-03-10T13:41:52Z</time>
      </trkpt>
      <trkpt lat="45.09166" lon="6.14957">
        <ele>1949.2</ele>
        <time>2021-03-10T13:41:53Z</time>
      </trkpt>
      <trkpt lat="45.09165" lon="6.14957">
        <ele>1949.3</ele>
        <time>2021-03-10T13:41:54Z</time>
      </trkpt>
      <trkpt lat="45.09163" lon="6.14956">
        <ele>1949.5</ele>
        <time>2021-03-10T13:41:55Z</time>
      </trkpt>
      <trkpt lat="45.09162" lon="6.14955">
        <ele>1949.7</ele>
        <time>2021-03-10T13:41:56Z</time>
      </trkpt>
      <trkpt lat="45.0916" lon="6.14954">
        <ele>1949.9</ele>
        <time>2021-03-10T13:41:57Z</time>
      </trkpt>
      <trkpt lat="45.09159" lon="6.14953">
        <ele>1950</ele>
        <time>2021-03-10T13:41:58Z</time>
      </trkpt>
      <trkpt lat="45.09157" lon="6.14952">
        <ele>1950.2</ele>
        <time>2021-03-10T13:41:59Z</time>
      </trkpt>
      <trkpt lat="45.09156" lon="6.14951">
        <ele>1950.3</ele>
        <time>2021-03-10T13:42:00Z</time>
      </trkpt>
      <trkpt lat="45.09155" lon="6.14951">
        <ele>1950.4</ele>
        <time>2021-03-10T13:42:01Z</time>
      </trkpt>
      <trkpt lat="45.09154" lon="6.1495">
        <ele>1950.6</ele>
        <time>2021-03-10T13:42:02Z</time>
      </trkpt>
      <trkpt lat="45.09154" lon="6.14949">
        <ele>1950.7</ele>
        <time>2021-03-10T13:42:03Z</time>
      </trkpt>
      <trkpt lat="45.09153" lon="6.14948">
        <ele>1950.8</ele>
        <time>2021-03-10T13:42:04Z</time>
      </trkpt>
      <trkpt lat="45.09152" lon="6.14948">
        <ele>1950.8</ele>
        <time>2021-03-10T13:42:05Z</time>
      </trkpt>
      <trkpt lat="45.09151" lon="6.14947">
        <ele>1950.9</ele>
        <time>2021-03-10T13:42:06Z</time>
      </trkpt>
      <trkpt lat="45.09151" lon="6.14946">
        <ele>1951</ele>
        <time>2021-03-10T13:42:07Z</time>
      </trkpt>
      <trkpt lat="45.0915" lon="6.14945">
        <ele>1951.1</ele>
        <time>2021-03-10T13:42:08Z</time>
      </trkpt>
      <trkpt lat="45.0915" lon="6.14945">
        <ele>1951.2</ele>
        <time>2021-03-10T13:42:09Z</time>
      </trkpt>
      <trkpt lat="45.0915" lon="6.14944">
        <ele>1951.2</ele>
        <time>2021-03-10T13:42:10Z</time>
      </trkpt>
      <trkpt lat="45.09149" lon="6.14943">
        <ele>1951.3</ele>
        <time>2021-03-10T13:42:11Z</time>
      </trkpt>
      <trkpt lat="45.09149" lon="6.14943">
        <ele>1951.4</ele>
        <time>2021-03-10T13:42:12Z</time>
      </trkpt>
      <trkpt lat="45.09148" lon="6.14942">
        <ele>1951.4</ele>
        <time>2021-03-10T13:42:13Z</time>
      </trkpt>
      <trkpt lat="45.09148" lon="6.14941">
        <ele>1951.5</ele>
        <time>2021-03-10T13:42:14Z</time>
      </trkpt>
      <trkpt lat="45.09148" lon="6.1494">
        <ele>1951.6</ele>
        <time>2021-03-10T13:42:15Z</time>
      </trkpt>
      <trkpt lat="45.09148" lon="6.14939">
        <ele>1951.7</ele>
        <time>2021-03-10T13:42:16Z</time>
      </trkpt>
      <trkpt lat="45.09148" lon="6.14938">
        <ele>1951.7</ele>
        <time>2021-03-10T13:42:17Z</time>
      </trkpt>
      <trkpt lat="45.09148" lon="6.14938">
        <ele>1951.8</ele>
        <time>2021-03-10T13:42:18Z</time>
      </trkpt>
      <trkpt lat="45.09148" lon="6.14937">
        <ele>1951.8</ele>
        <time>2021-03-10T13:42:19Z</time>
      </trkpt>
      <trkpt lat="45.09147" lon="6.14936">
        <ele>1951.9</ele>
        <time>2021-03-10T13:42:20Z</time>
      </trkpt>
      <trkpt lat="45.09147" lon="6.14936">
        <ele>1951.9</ele>
        <time>2021-03-10T13:42:21Z</time>
      </trkpt>
      <trkpt lat="45.09147" lon="6.14935">
        <ele>1952</ele>
        <time>2021-03-10T13:42:22Z</time>
      </trkpt>
      <trkpt lat="45.09146" lon="6.14934">
        <ele>1952.1</ele>
        <time>2021-03-10T13:42:23Z</time>
      </trkpt>
      <trkpt lat="45.09145" lon="6.14933">
        <ele>1952.3</ele>
        <time>2021-03-10T13:42:24Z</time>
      </trkpt>
      <trkpt lat="45.09144" lon="6.14932">
        <ele>1952.4</ele>
        <time>2021-03-10T13:42:25Z</time>
      </trkpt>
      <trkpt lat="45.09142" lon="6.14931">
        <ele>1952.6</ele>
        <time>2021-03-10T13:42:26Z</time>
      </trkpt>
      <trkpt lat="45.09142" lon="6.1493">
        <ele>1952.7</ele>
        <time>2021-03-10T13:42:27Z</time>
      </trkpt>
      <trkpt lat="45.09141" lon="6.14929">
        <ele>1952.8</ele>
        <time>2021-03-10T13:42:28Z</time>
      </trkpt>
      <trkpt lat="45.0914" lon="6.14929">
        <ele>1952.8</ele>
        <time>2021-03-10T13:42:29Z</time>
      </trkpt>
      <trkpt lat="45.0914" lon="6.14928">
        <ele>1952.9</ele>
        <time>2021-03-10T13:42:30Z</time>
      </trkpt>
      <trkpt lat="45.09139" lon="6.14927">
        <ele>1953</ele>
        <time>2021-03-10T13:42:31Z</time>
      </trkpt>
      <trkpt lat="45.09138" lon="6.14927">
        <ele>1953.1</ele>
        <time>2021-03-10T13:42:32Z</time>
      </trkpt>
      <trkpt lat="45.09137" lon="6.14926">
        <ele>1953.2</ele>
        <time>2021-03-10T13:42:33Z</time>
      </trkpt>
      <trkpt lat="45.09137" lon="6.14925">
        <ele>1953.2</ele>
        <time>2021-03-10T13:42:34Z</time>
      </trkpt>
      <trkpt lat="45.09136" lon="6.14925">
        <ele>1953.3</ele>
        <time>2021-03-10T13:42:35Z</time>
      </trkpt>
      <trkpt lat="45.09135" lon="6.14924">
        <ele>1953.4</ele>
        <time>2021-03-10T13:42:36Z</time>
      </trkpt>
      <trkpt lat="45.09134" lon="6.14924">
        <ele>1953.5</ele>
        <time>2021-03-10T13:42:37Z</time>
      </trkpt>
      <trkpt lat="45.09133" lon="6.14923">
        <ele>1953.6</ele>
        <time>2021-03-10T13:42:38Z</time>
      </trkpt>
      <trkpt lat="45.09133" lon="6.14923">
        <ele>1953.7</ele>
        <time>2021-03-10T13:42:39Z</time>
      </trkpt>
      <trkpt lat="45.09131" lon="6.14922">
        <ele>1953.9</ele>
        <time>2021-03-10T13:42:40Z</time>
      </trkpt>
      <trkpt lat="45.0913" lon="6.14922">
        <ele>1953.9</ele>
        <time>2021-03-10T13:42:41Z</time>
      </trkpt>
      <trkpt lat="45.0913" lon="6.14922">
        <ele>1954</ele>
        <time>2021-03-10T13:42:42Z</time>
      </trkpt>
      <trkpt lat="45.09129" lon="6.14921">
        <ele>1954.1</ele>
        <time>2021-03-10T13:42:43Z</time>
      </trkpt>
      <trkpt lat="45.09129" lon="6.1492">
        <ele>1954.2</ele>
        <time>2021-03-10T13:42:44Z</time>
      </trkpt>
      <trkpt lat="45.09128" lon="6.1492">
        <ele>1954.2</ele>
        <time>2021-03-10T13:42:45Z</time>
      </trkpt>
      <trkpt lat="45.09128" lon="6.14919">
        <ele>1954.3</ele>
        <time>2021-03-10T13:42:46Z</time>
      </trkpt>
      <trkpt lat="45.09126" lon="6.14918">
        <ele>1954.4</ele>
        <time>2021-03-10T13:42:47Z</time>
      </trkpt>
      <trkpt lat="45.09126" lon="6.14917">
        <ele>1954.5</ele>
        <time>2021-03-10T13:42:48Z</time>
      </trkpt>
      <trkpt lat="45.09125" lon="6.14917">
        <ele>1954.6</ele>
        <time>2021-03-10T13:42:49Z</time>
      </trkpt>
      <trkpt lat="45.09124" lon="6.14916">
        <ele>1954.7</ele>
        <time>2021-03-10T13:42:50Z</time>
      </trkpt>
      <trkpt lat="45.09123" lon="6.14915">
        <ele>1954.8</ele>
        <time>2021-03-10T13:42:51Z</time>
      </trkpt>
      <trkpt lat="45.09122" lon="6.14915">
        <ele>1954.9</ele>
        <time>2021-03-10T13:42:52Z</time>
      </trkpt>
      <trkpt lat="45.09121" lon="6.14914">
        <ele>1955</ele>
        <time>2021-03-10T13:42:53Z</time>
      </trkpt>
      <trkpt lat="45.09121" lon="6.14914">
        <ele>1955</ele>
        <time>2021-03-10T13:42:54Z</time>
      </trkpt>
      <trkpt lat="45.09122" lon="6.14914">
        <ele>1955.1</ele>
        <time>2021-03-10T13:42:55Z</time>
      </trkpt>
      <trkpt lat="45.09122" lon="6.14913">
        <ele>1955.1</ele>
        <time>2021-03-10T13:42:56Z</time>
      </trkpt>
      <trkpt lat="45.09122" lon="6.14912">
        <ele>1955.2</ele>
        <time>2021-03-10T13:42:57Z</time>
      </trkpt>
      <trkpt lat="45.09121" lon="6.14911">
        <ele>1955.2</ele>
        <time>2021-03-10T13:42:58Z</time>
      </trkpt>
      <trkpt lat="45.0912" lon="6.1491">
        <ele>1955.3</ele>
        <time>2021-03-10T13:42:59Z</time>
      </trkpt>
      <trkpt lat="45.09119" lon="6.14909">
        <ele>1955.4</ele>
        <time>2021-03-10T13:43:00Z</time>
      </trkpt>
      <trkpt lat="45.09118" lon="6.14908">
        <ele>1955.6</ele>
        <time>2021-03-10T13:43:01Z</time>
      </trkpt>
      <trkpt lat="45.09117" lon="6.14908">
        <ele>1955.7</ele>
        <time>2021-03-10T13:43:02Z</time>
      </trkpt>
      <trkpt lat="45.09116" lon="6.14907">
        <ele>1955.8</ele>
        <time>2021-03-10T13:43:03Z</time>
      </trkpt>
      <trkpt lat="45.09115" lon="6.14906">
        <ele>1955.9</ele>
        <time>2021-03-10T13:43:04Z</time>
      </trkpt>
      <trkpt lat="45.09115" lon="6.14906">
        <ele>1955.9</ele>
        <time>2021-03-10T13:43:05Z</time>
      </trkpt>
      <trkpt lat="45.09114" lon="6.14905">
        <ele>1956</ele>
        <time>2021-03-10T13:43:06Z</time>
      </trkpt>
      <trkpt lat="45.09113" lon="6.14904">
        <ele>1956.1</ele>
        <time>2021-03-10T13:43:07Z</time>
      </trkpt>
      <trkpt lat="45.09112" lon="6.14903">
        <ele>1956.2</ele>
        <time>2021-03-10T13:43:08Z</time>
      </trkpt>
      <trkpt lat="45.09111" lon="6.14903">
        <ele>1956.2</ele>
        <time>2021-03-10T13:43:09Z</time>
      </trkpt>
      <trkpt lat="45.0911" lon="6.14901">
        <ele>1956.4</ele>
        <time>2021-03-10T13:43:10Z</time>
      </trkpt>
      <trkpt lat="45.0911" lon="6.149">
        <ele>1956.4</ele>
        <time>2021-03-10T13:43:11Z</time>
      </trkpt>
      <trkpt lat="45.09109" lon="6.149">
        <ele>1956.5</ele>
        <time>2021-03-10T13:43:12Z</time>
      </trkpt>
      <trkpt lat="45.09109" lon="6.14899">
        <ele>1956.5</ele>
        <time>2021-03-10T13:43:13Z</time>
      </trkpt>
      <trkpt lat="45.09108" lon="6.14898">
        <ele>1956.6</ele>
        <time>2021-03-10T13:43:14Z</time>
      </trkpt>
      <trkpt lat="45.09107" lon="6.14898">
        <ele>1956.7</ele>
        <time>2021-03-10T13:43:15Z</time>
      </trkpt>
      <trkpt lat="45.09106" lon="6.14897">
        <ele>1956.8</ele>
        <time>2021-03-10T13:43:16Z</time>
      </trkpt>
      <trkpt lat="45.09104" lon="6.14896">
        <ele>1956.9</ele>
        <time>2021-03-10T13:43:17Z</time>
      </trkpt>
      <trkpt lat="45.09104" lon="6.14895">
        <ele>1956.9</ele>
        <time>2021-03-10T13:43:18Z</time>
      </trkpt>
      <trkpt lat="45.09103" lon="6.14895">
        <ele>1957</ele>
        <time>2021-03-10T13:43:19Z</time>
      </trkpt>
      <trkpt lat="45.09102" lon="6.14894">
        <ele>1957.1</ele>
        <time>2021-03-10T13:43:20Z</time>
      </trkpt>
      <trkpt lat="45.09101" lon="6.14894">
        <ele>1957.1</ele>
        <time>2021-03-10T13:43:21Z</time>
      </trkpt>
      <trkpt lat="45.091" lon="6.14894">
        <ele>1957.2</ele>
        <time>2021-03-10T13:43:22Z</time>
      </trkpt>
      <trkpt lat="45.09099" lon="6.14894">
        <ele>1957.2</ele>
        <time>2021-03-10T13:43:23Z</time>
      </trkpt>
      <trkpt lat="45.09099" lon="6.14894">
        <ele>1957.3</ele>
        <time>2021-03-10T13:43:24Z</time>
      </trkpt>
      <trkpt lat="45.09098" lon="6.14893">
        <ele>1957.3</ele>
        <time>2021-03-10T13:43:25Z</time>
      </trkpt>
      <trkpt lat="45.09098" lon="6.14893">
        <ele>1957.3</ele>
        <time>2021-03-10T13:43:26Z</time>
      </trkpt>
      <trkpt lat="45.09097" lon="6.14892">
        <ele>1957.4</ele>
        <time>2021-03-10T13:43:27Z</time>
      </trkpt>
      <trkpt lat="45.09097" lon="6.14891">
        <ele>1957.4</ele>
        <time>2021-03-10T13:43:28Z</time>
      </trkpt>
      <trkpt lat="45.09097" lon="6.14891">
        <ele>1957.5</ele>
        <time>2021-03-10T13:43:29Z</time>
      </trkpt>
      <trkpt lat="45.09096" lon="6.1489">
        <ele>1957.5</ele>
        <time>2021-03-10T13:43:30Z</time>
      </trkpt>
      <trkpt lat="45.09096" lon="6.14889">
        <ele>1957.6</ele>
        <time>2021-03-10T13:43:31Z</time>
      </trkpt>
      <trkpt lat="45.09096" lon="6.14888">
        <ele>1957.6</ele>
        <time>2021-03-10T13:43:32Z</time>
      </trkpt>
      <trkpt lat="45.09096" lon="6.14888">
        <ele>1957.6</ele>
        <time>2021-03-10T13:43:33Z</time>
      </trkpt>
      <trkpt lat="45.09095" lon="6.14888">
        <ele>1957.6</ele>
        <time>2021-03-10T13:43:34Z</time>
      </trkpt>
      <trkpt lat="45.09095" lon="6.14888">
        <ele>1957.7</ele>
        <time>2021-03-10T13:43:35Z</time>
      </trkpt>
      <trkpt lat="45.09094" lon="6.14889">
        <ele>1957.7</ele>
        <time>2021-03-10T13:43:36Z</time>
      </trkpt>
      <trkpt lat="45.09093" lon="6.14889">
        <ele>1957.8</ele>
        <time>2021-03-10T13:43:37Z</time>
      </trkpt>
      <trkpt lat="45.09092" lon="6.14889">
        <ele>1957.9</ele>
        <time>2021-03-10T13:43:38Z</time>
      </trkpt>
      <trkpt lat="45.09091" lon="6.1489">
        <ele>1957.9</ele>
        <time>2021-03-10T13:43:39Z</time>
      </trkpt>
      <trkpt lat="45.0909" lon="6.1489">
        <ele>1958</ele>
        <time>2021-03-10T13:43:40Z</time>
      </trkpt>
      <trkpt lat="45.09088" lon="6.14891">
        <ele>1958.1</ele>
        <time>2021-03-10T13:43:41Z</time>
      </trkpt>
      <trkpt lat="45.09087" lon="6.14891">
        <ele>1958.2</ele>
        <time>2021-03-10T13:43:42Z</time>
      </trkpt>
      <trkpt lat="45.09086" lon="6.14892">
        <ele>1958.3</ele>
        <time>2021-03-10T13:43:43Z</time>
      </trkpt>
      <trkpt lat="45.09084" lon="6.14892">
        <ele>1958.4</ele>
        <time>2021-03-10T13:43:44Z</time>
      </trkpt>
      <trkpt lat="45.09083" lon="6.14893">
        <ele>1958.5</ele>
        <time>2021-03-10T13:43:45Z</time>
      </trkpt>
      <trkpt lat="45.09083" lon="6.14893">
        <ele>1958.5</ele>
        <time>2021-03-10T13:43:46Z</time>
      </trkpt>
      <trkpt lat="45.09082" lon="6.14894">
        <ele>1958.6</ele>
        <time>2021-03-10T13:43:47Z</time>
      </trkpt>
      <trkpt lat="45.09081" lon="6.14894">
        <ele>1958.6</ele>
        <time>2021-03-10T13:43:48Z</time>
      </trkpt>
      <trkpt lat="45.0908" lon="6.14895">
        <ele>1958.7</ele>
        <time>2021-03-10T13:43:49Z</time>
      </trkpt>
      <trkpt lat="45.09079" lon="6.14895">
        <ele>1958.8</ele>
        <time>2021-03-10T13:43:50Z</time>
      </trkpt>
      <trkpt lat="45.09078" lon="6.14896">
        <ele>1958.9</ele>
        <time>2021-03-10T13:43:51Z</time>
      </trkpt>
      <trkpt lat="45.09077" lon="6.14897">
        <ele>1958.9</ele>
        <time>2021-03-10T13:43:52Z</time>
      </trkpt>
      <trkpt lat="45.09076" lon="6.14898">
        <ele>1959</ele>
        <time>2021-03-10T13:43:53Z</time>
      </trkpt>
      <trkpt lat="45.09075" lon="6.14898">
        <ele>1959.1</ele>
        <time>2021-03-10T13:43:54Z</time>
      </trkpt>
      <trkpt lat="45.09074" lon="6.14899">
        <ele>1959.1</ele>
        <time>2021-03-10T13:43:55Z</time>
      </trkpt>
      <trkpt lat="45.09073" lon="6.14899">
        <ele>1959.2</ele>
        <time>2021-03-10T13:43:56Z</time>
      </trkpt>
      <trkpt lat="45.09072" lon="6.149">
        <ele>1959.2</ele>
        <time>2021-03-10T13:43:57Z</time>
      </trkpt>
      <trkpt lat="45.09071" lon="6.14901">
        <ele>1959.3</ele>
        <time>2021-03-10T13:43:58Z</time>
      </trkpt>
      <trkpt lat="45.0907" lon="6.14901">
        <ele>1959.4</ele>
        <time>2021-03-10T13:43:59Z</time>
      </trkpt>
      <trkpt lat="45.09069" lon="6.14902">
        <ele>1959.5</ele>
        <time>2021-03-10T13:44:00Z</time>
      </trkpt>
      <trkpt lat="45.09068" lon="6.14902">
        <ele>1959.5</ele>
        <time>2021-03-10T13:44:01Z</time>
      </trkpt>
      <trkpt lat="45.09066" lon="6.14902">
        <ele>1959.7</ele>
        <time>2021-03-10T13:44:02Z</time>
      </trkpt>
      <trkpt lat="45.09066" lon="6.14902">
        <ele>1959.7</ele>
        <time>2021-03-10T13:44:03Z</time>
      </trkpt>
      <trkpt lat="45.09065" lon="6.14902">
        <ele>1959.8</ele>
        <time>2021-03-10T13:44:04Z</time>
      </trkpt>
      <trkpt lat="45.09064" lon="6.14902">
        <ele>1959.8</ele>
        <time>2021-03-10T13:44:05Z</time>
      </trkpt>
      <trkpt lat="45.09063" lon="6.14902">
        <ele>1959.9</ele>
        <time>2021-03-10T13:44:06Z</time>
      </trkpt>
      <trkpt lat="45.09062" lon="6.14902">
        <ele>1959.9</ele>
        <time>2021-03-10T13:44:07Z</time>
      </trkpt>
      <trkpt lat="45.09061" lon="6.14902">
        <ele>1960</ele>
        <time>2021-03-10T13:44:08Z</time>
      </trkpt>
      <trkpt lat="45.0906" lon="6.14902">
        <ele>1960.1</ele>
        <time>2021-03-10T13:44:09Z</time>
      </trkpt>
      <trkpt lat="45.09059" lon="6.14903">
        <ele>1960.2</ele>
        <time>2021-03-10T13:44:10Z</time>
      </trkpt>
      <trkpt lat="45.09058" lon="6.14903">
        <ele>1960.2</ele>
        <time>2021-03-10T13:44:11Z</time>
      </trkpt>
      <trkpt lat="45.09057" lon="6.14903">
        <ele>1960.3</ele>
        <time>2021-03-10T13:44:12Z</time>
      </trkpt>
      <trkpt lat="45.09057" lon="6.14903">
        <ele>1960.3</ele>
        <time>2021-03-10T13:44:13Z</time>
      </trkpt>
      <trkpt lat="45.09057" lon="6.14903">
        <ele>1960.4</ele>
        <time>2021-03-10T13:44:14Z</time>
      </trkpt>
      <trkpt lat="45.09056" lon="6.14903">
        <ele>1960.4</ele>
        <time>2021-03-10T13:44:15Z</time>
      </trkpt>
      <trkpt lat="45.09056" lon="6.14903">
        <ele>1960.4</ele>
        <time>2021-03-10T13:44:16Z</time>
      </trkpt>
      <trkpt lat="45.09056" lon="6.14903">
        <ele>1960.4</ele>
        <time>2021-03-10T13:44:17Z</time>
      </trkpt>
      <trkpt lat="45.09055" lon="6.14903">
        <ele>1960.5</ele>
        <time>2021-03-10T13:44:18Z</time>
      </trkpt>
      <trkpt lat="45.09055" lon="6.14903">
        <ele>1960.5</ele>
        <time>2021-03-10T13:44:19Z</time>
      </trkpt>
      <trkpt lat="45.09055" lon="6.14903">
        <ele>1960.5</ele>
        <time>2021-03-10T13:44:20Z</time>
      </trkpt>
      <trkpt lat="45.09053" lon="6.14904">
        <ele>1960.6</ele>
        <time>2021-03-10T13:44:21Z</time>
      </trkpt>
      <trkpt lat="45.09052" lon="6.14904">
        <ele>1960.7</ele>
        <time>2021-03-10T13:44:22Z</time>
      </trkpt>
      <trkpt lat="45.0905" lon="6.14906">
        <ele>1960.9</ele>
        <time>2021-03-10T13:44:23Z</time>
      </trkpt>
      <trkpt lat="45.0905" lon="6.14906">
        <ele>1960.9</ele>
        <time>2021-03-10T13:44:24Z</time>
      </trkpt>
      <trkpt lat="45.09049" lon="6.14907">
        <ele>1961</ele>
        <time>2021-03-10T13:44:25Z</time>
      </trkpt>
      <trkpt lat="45.09048" lon="6.14907">
        <ele>1961.1</ele>
        <time>2021-03-10T13:44:26Z</time>
      </trkpt>
      <trkpt lat="45.09047" lon="6.14907">
        <ele>1961.2</ele>
        <time>2021-03-10T13:44:27Z</time>
      </trkpt>
      <trkpt lat="45.09046" lon="6.14907">
        <ele>1961.3</ele>
        <time>2021-03-10T13:44:28Z</time>
      </trkpt>
      <trkpt lat="45.09045" lon="6.14908">
        <ele>1961.4</ele>
        <time>2021-03-10T13:44:29Z</time>
      </trkpt>
      <trkpt lat="45.09044" lon="6.14908">
        <ele>1961.4</ele>
        <time>2021-03-10T13:44:30Z</time>
      </trkpt>
      <trkpt lat="45.09043" lon="6.14908">
        <ele>1961.5</ele>
        <time>2021-03-10T13:44:31Z</time>
      </trkpt>
      <trkpt lat="45.09042" lon="6.14909">
        <ele>1961.6</ele>
        <time>2021-03-10T13:44:32Z</time>
      </trkpt>
      <trkpt lat="45.09041" lon="6.14909">
        <ele>1961.7</ele>
        <time>2021-03-10T13:44:33Z</time>
      </trkpt>
      <trkpt lat="45.0904" lon="6.14909">
        <ele>1961.8</ele>
        <time>2021-03-10T13:44:34Z</time>
      </trkpt>
      <trkpt lat="45.09037" lon="6.1491">
        <ele>1962</ele>
        <time>2021-03-10T13:44:35Z</time>
      </trkpt>
      <trkpt lat="45.09037" lon="6.1491">
        <ele>1962.1</ele>
        <time>2021-03-10T13:44:36Z</time>
      </trkpt>
      <trkpt lat="45.09036" lon="6.1491">
        <ele>1962.2</ele>
        <time>2021-03-10T13:44:37Z</time>
      </trkpt>
      <trkpt lat="45.09034" lon="6.14911">
        <ele>1962.3</ele>
        <time>2021-03-10T13:44:38Z</time>
      </trkpt>
      <trkpt lat="45.09033" lon="6.14911">
        <ele>1962.4</ele>
        <time>2021-03-10T13:44:39Z</time>
      </trkpt>
      <trkpt lat="45.09033" lon="6.14912">
        <ele>1962.4</ele>
        <time>2021-03-10T13:44:40Z</time>
      </trkpt>
      <trkpt lat="45.09032" lon="6.14912">
        <ele>1962.5</ele>
        <time>2021-03-10T13:44:41Z</time>
      </trkpt>
      <trkpt lat="45.09031" lon="6.14912">
        <ele>1962.6</ele>
        <time>2021-03-10T13:44:42Z</time>
      </trkpt>
      <trkpt lat="45.0903" lon="6.14913">
        <ele>1962.7</ele>
        <time>2021-03-10T13:44:43Z</time>
      </trkpt>
      <trkpt lat="45.0903" lon="6.14913">
        <ele>1962.7</ele>
        <time>2021-03-10T13:44:44Z</time>
      </trkpt>
      <trkpt lat="45.09029" lon="6.14913">
        <ele>1962.8</ele>
        <time>2021-03-10T13:44:45Z</time>
      </trkpt>
      <trkpt lat="45.09028" lon="6.14913">
        <ele>1962.9</ele>
        <time>2021-03-10T13:44:46Z</time>
      </trkpt>
      <trkpt lat="45.09027" lon="6.14914">
        <ele>1963</ele>
        <time>2021-03-10T13:44:47Z</time>
      </trkpt>
      <trkpt lat="45.09026" lon="6.14914">
        <ele>1963.1</ele>
        <time>2021-03-10T13:44:48Z</time>
      </trkpt>
      <trkpt lat="45.09025" lon="6.14915">
        <ele>1963.2</ele>
        <time>2021-03-10T13:44:49Z</time>
      </trkpt>
      <trkpt lat="45.09024" lon="6.14915">
        <ele>1963.3</ele>
        <time>2021-03-10T13:44:50Z</time>
      </trkpt>
      <trkpt lat="45.09023" lon="6.14916">
        <ele>1963.4</ele>
        <time>2021-03-10T13:44:51Z</time>
      </trkpt>
      <trkpt lat="45.09023" lon="6.14916">
        <ele>1963.5</ele>
        <time>2021-03-10T13:44:52Z</time>
      </trkpt>
      <trkpt lat="45.09022" lon="6.14917">
        <ele>1963.6</ele>
        <time>2021-03-10T13:44:53Z</time>
      </trkpt>
      <trkpt lat="45.09021" lon="6.14918">
        <ele>1963.7</ele>
        <time>2021-03-10T13:44:54Z</time>
      </trkpt>
      <trkpt lat="45.0902" lon="6.14919">
        <ele>1963.8</ele>
        <time>2021-03-10T13:44:55Z</time>
      </trkpt>
      <trkpt lat="45.0902" lon="6.1492">
        <ele>1963.9</ele>
        <time>2021-03-10T13:44:56Z</time>
      </trkpt>
      <trkpt lat="45.09019" lon="6.14921">
        <ele>1964</ele>
        <time>2021-03-10T13:44:57Z</time>
      </trkpt>
      <trkpt lat="45.09019" lon="6.14922">
        <ele>1964.1</ele>
        <time>2021-03-10T13:44:58Z</time>
      </trkpt>
      <trkpt lat="45.09018" lon="6.14923">
        <ele>1964.2</ele>
        <time>2021-03-10T13:44:59Z</time>
      </trkpt>
      <trkpt lat="45.09018" lon="6.14924">
        <ele>1964.3</ele>
        <time>2021-03-10T13:45:00Z</time>
      </trkpt>
      <trkpt lat="45.09017" lon="6.14926">
        <ele>1964.4</ele>
        <time>2021-03-10T13:45:01Z</time>
      </trkpt>
      <trkpt lat="45.09016" lon="6.14927">
        <ele>1964.5</ele>
        <time>2021-03-10T13:45:02Z</time>
      </trkpt>
      <trkpt lat="45.09015" lon="6.14928">
        <ele>1964.6</ele>
        <time>2021-03-10T13:45:03Z</time>
      </trkpt>
      <trkpt lat="45.09014" lon="6.14929">
        <ele>1964.8</ele>
        <time>2021-03-10T13:45:04Z</time>
      </trkpt>
      <trkpt lat="45.09013" lon="6.14931">
        <ele>1965</ele>
        <time>2021-03-10T13:45:05Z</time>
      </trkpt>
      <trkpt lat="45.09013" lon="6.14932">
        <ele>1965.1</ele>
        <time>2021-03-10T13:45:06Z</time>
      </trkpt>
      <trkpt lat="45.09012" lon="6.14933">
        <ele>1965.2</ele>
        <time>2021-03-10T13:45:07Z</time>
      </trkpt>
      <trkpt lat="45.09011" lon="6.14935">
        <ele>1965.4</ele>
        <time>2021-03-10T13:45:08Z</time>
      </trkpt>
      <trkpt lat="45.09011" lon="6.14936">
        <ele>1965.4</ele>
        <time>2021-03-10T13:45:09Z</time>
      </trkpt>
      <trkpt lat="45.09011" lon="6.14937">
        <ele>1965.5</ele>
        <time>2021-03-10T13:45:10Z</time>
      </trkpt>
      <trkpt lat="45.0901" lon="6.14938">
        <ele>1965.6</ele>
        <time>2021-03-10T13:45:11Z</time>
      </trkpt>
      <trkpt lat="45.0901" lon="6.14939">
        <ele>1965.7</ele>
        <time>2021-03-10T13:45:12Z</time>
      </trkpt>
      <trkpt lat="45.0901" lon="6.1494">
        <ele>1965.8</ele>
        <time>2021-03-10T13:45:13Z</time>
      </trkpt>
      <trkpt lat="45.09009" lon="6.14941">
        <ele>1965.9</ele>
        <time>2021-03-10T13:45:14Z</time>
      </trkpt>
      <trkpt lat="45.09009" lon="6.14942">
        <ele>1966</ele>
        <time>2021-03-10T13:45:15Z</time>
      </trkpt>
      <trkpt lat="45.09008" lon="6.14943">
        <ele>1966.1</ele>
        <time>2021-03-10T13:45:16Z</time>
      </trkpt>
      <trkpt lat="45.09007" lon="6.14944">
        <ele>1966.2</ele>
        <time>2021-03-10T13:45:17Z</time>
      </trkpt>
      <trkpt lat="45.09007" lon="6.14944">
        <ele>1966.3</ele>
        <time>2021-03-10T13:45:18Z</time>
      </trkpt>
      <trkpt lat="45.09006" lon="6.14944">
        <ele>1966.4</ele>
        <time>2021-03-10T13:45:19Z</time>
      </trkpt>
      <trkpt lat="45.09005" lon="6.14945">
        <ele>1966.5</ele>
        <time>2021-03-10T13:45:20Z</time>
      </trkpt>
      <trkpt lat="45.09005" lon="6.14945">
        <ele>1966.6</ele>
        <time>2021-03-10T13:45:21Z</time>
      </trkpt>
      <trkpt lat="45.09004" lon="6.14946">
        <ele>1966.7</ele>
        <time>2021-03-10T13:45:22Z</time>
      </trkpt>
      <trkpt lat="45.09003" lon="6.14946">
        <ele>1966.8</ele>
        <time>2021-03-10T13:45:23Z</time>
      </trkpt>
      <trkpt lat="45.09002" lon="6.14946">
        <ele>1966.9</ele>
        <time>2021-03-10T13:45:24Z</time>
      </trkpt>
      <trkpt lat="45.09002" lon="6.14947">
        <ele>1966.9</ele>
        <time>2021-03-10T13:45:25Z</time>
      </trkpt>
      <trkpt lat="45.09001" lon="6.14947">
        <ele>1967</ele>
        <time>2021-03-10T13:45:26Z</time>
      </trkpt>
      <trkpt lat="45.09" lon="6.14946">
        <ele>1967.1</ele>
        <time>2021-03-10T13:45:27Z</time>
      </trkpt>
      <trkpt lat="45.08999" lon="6.14946">
        <ele>1967.2</ele>
        <time>2021-03-10T13:45:28Z</time>
      </trkpt>
      <trkpt lat="45.08999" lon="6.14945">
        <ele>1967.3</ele>
        <time>2021-03-10T13:45:29Z</time>
      </trkpt>
      <trkpt lat="45.08998" lon="6.14945">
        <ele>1967.4</ele>
        <time>2021-03-10T13:45:30Z</time>
      </trkpt>
      <trkpt lat="45.08998" lon="6.14944">
        <ele>1967.5</ele>
        <time>2021-03-10T13:45:31Z</time>
      </trkpt>
      <trkpt lat="45.08997" lon="6.14943">
        <ele>1967.6</ele>
        <time>2021-03-10T13:45:32Z</time>
      </trkpt>
      <trkpt lat="45.08997" lon="6.14942">
        <ele>1967.7</ele>
        <time>2021-03-10T13:45:33Z</time>
      </trkpt>
      <trkpt lat="45.08996" lon="6.14941">
        <ele>1967.8</ele>
        <time>2021-03-10T13:45:34Z</time>
      </trkpt>
      <trkpt lat="45.08996" lon="6.1494">
        <ele>1967.8</ele>
        <time>2021-03-10T13:45:35Z</time>
      </trkpt>
      <trkpt lat="45.08996" lon="6.14939">
        <ele>1967.9</ele>
        <time>2021-03-10T13:45:36Z</time>
      </trkpt>
      <trkpt lat="45.08995" lon="6.14938">
        <ele>1968</ele>
        <time>2021-03-10T13:45:37Z</time>
      </trkpt>
      <trkpt lat="45.08995" lon="6.14937">
        <ele>1968.1</ele>
        <time>2021-03-10T13:45:38Z</time>
      </trkpt>
      <trkpt lat="45.08995" lon="6.14936">
        <ele>1968.2</ele>
        <time>2021-03-10T13:45:39Z</time>
      </trkpt>
      <trkpt lat="45.08995" lon="6.14935">
        <ele>1968.3</ele>
        <time>2021-03-10T13:45:40Z</time>
      </trkpt>
      <trkpt lat="45.08995" lon="6.14934">
        <ele>1968.4</ele>
        <time>2021-03-10T13:45:41Z</time>
      </trkpt>
      <trkpt lat="45.08995" lon="6.14933">
        <ele>1968.5</ele>
        <time>2021-03-10T13:45:42Z</time>
      </trkpt>
      <trkpt lat="45.08995" lon="6.14932">
        <ele>1968.5</ele>
        <time>2021-03-10T13:45:43Z</time>
      </trkpt>
      <trkpt lat="45.08995" lon="6.14931">
        <ele>1968.6</ele>
        <time>2021-03-10T13:45:44Z</time>
      </trkpt>
      <trkpt lat="45.08996" lon="6.14929">
        <ele>1968.8</ele>
        <time>2021-03-10T13:45:45Z</time>
      </trkpt>
      <trkpt lat="45.08996" lon="6.14928">
        <ele>1968.9</ele>
        <time>2021-03-10T13:45:46Z</time>
      </trkpt>
      <trkpt lat="45.08997" lon="6.14927">
        <ele>1969</ele>
        <time>2021-03-10T13:45:47Z</time>
      </trkpt>
      <trkpt lat="45.08997" lon="6.14927">
        <ele>1969.1</ele>
        <time>2021-03-10T13:45:48Z</time>
      </trkpt>
      <trkpt lat="45.08998" lon="6.14925">
        <ele>1969.2</ele>
        <time>2021-03-10T13:45:49Z</time>
      </trkpt>
      <trkpt lat="45.08998" lon="6.14924">
        <ele>1969.3</ele>
        <time>2021-03-10T13:45:50Z</time>
      </trkpt>
      <trkpt lat="45.08999" lon="6.14923">
        <ele>1969.4</ele>
        <time>2021-03-10T13:45:51Z</time>
      </trkpt>
      <trkpt lat="45.08999" lon="6.14921">
        <ele>1969.5</ele>
        <time>2021-03-10T13:45:52Z</time>
      </trkpt>
      <trkpt lat="45.08999" lon="6.1492">
        <ele>1969.6</ele>
        <time>2021-03-10T13:45:53Z</time>
      </trkpt>
      <trkpt lat="45.08999" lon="6.14919">
        <ele>1969.7</ele>
        <time>2021-03-10T13:45:54Z</time>
      </trkpt>
      <trkpt lat="45.08999" lon="6.14917">
        <ele>1969.8</ele>
        <time>2021-03-10T13:45:55Z</time>
      </trkpt>
      <trkpt lat="45.09" lon="6.14916">
        <ele>1969.9</ele>
        <time>2021-03-10T13:45:56Z</time>
      </trkpt>
      <trkpt lat="45.09" lon="6.14915">
        <ele>1970</ele>
        <time>2021-03-10T13:45:57Z</time>
      </trkpt>
      <trkpt lat="45.09" lon="6.14914">
        <ele>1970</ele>
        <time>2021-03-10T13:45:58Z</time>
      </trkpt>
      <trkpt lat="45.09" lon="6.14913">
        <ele>1970.1</ele>
        <time>2021-03-10T13:45:59Z</time>
      </trkpt>
      <trkpt lat="45.09001" lon="6.14912">
        <ele>1970.2</ele>
        <time>2021-03-10T13:46:00Z</time>
      </trkpt>
      <trkpt lat="45.09001" lon="6.1491">
        <ele>1970.3</ele>
        <time>2021-03-10T13:46:01Z</time>
      </trkpt>
      <trkpt lat="45.09002" lon="6.14909">
        <ele>1970.4</ele>
        <time>2021-03-10T13:46:02Z</time>
      </trkpt>
      <trkpt lat="45.09002" lon="6.14908">
        <ele>1970.5</ele>
        <time>2021-03-10T13:46:03Z</time>
      </trkpt>
      <trkpt lat="45.09002" lon="6.14907">
        <ele>1970.6</ele>
        <time>2021-03-10T13:46:04Z</time>
      </trkpt>
      <trkpt lat="45.09003" lon="6.14906">
        <ele>1970.7</ele>
        <time>2021-03-10T13:46:05Z</time>
      </trkpt>
      <trkpt lat="45.09005" lon="6.14905">
        <ele>1970.8</ele>
        <time>2021-03-10T13:46:06Z</time>
      </trkpt>
      <trkpt lat="45.09006" lon="6.14905">
        <ele>1970.9</ele>
        <time>2021-03-10T13:46:07Z</time>
      </trkpt>
      <trkpt lat="45.09007" lon="6.14904">
        <ele>1971</ele>
        <time>2021-03-10T13:46:08Z</time>
      </trkpt>
      <trkpt lat="45.09008" lon="6.14904">
        <ele>1971.1</ele>
        <time>2021-03-10T13:46:09Z</time>
      </trkpt>
      <trkpt lat="45.09008" lon="6.14903">
        <ele>1971.2</ele>
        <time>2021-03-10T13:46:10Z</time>
      </trkpt>
      <trkpt lat="45.09009" lon="6.14902">
        <ele>1971.2</ele>
        <time>2021-03-10T13:46:11Z</time>
      </trkpt>
      <trkpt lat="45.09009" lon="6.14901">
        <ele>1971.3</ele>
        <time>2021-03-10T13:46:12Z</time>
      </trkpt>
      <trkpt lat="45.09009" lon="6.149">
        <ele>1971.3</ele>
        <time>2021-03-10T13:46:13Z</time>
      </trkpt>
      <trkpt lat="45.09009" lon="6.14899">
        <ele>1971.4</ele>
        <time>2021-03-10T13:46:14Z</time>
      </trkpt>
      <trkpt lat="45.0901" lon="6.14898">
        <ele>1971.5</ele>
        <time>2021-03-10T13:46:15Z</time>
      </trkpt>
      <trkpt lat="45.0901" lon="6.14897">
        <ele>1971.5</ele>
        <time>2021-03-10T13:46:16Z</time>
      </trkpt>
      <trkpt lat="45.09011" lon="6.14896">
        <ele>1971.6</ele>
        <time>2021-03-10T13:46:17Z</time>
      </trkpt>
      <trkpt lat="45.09012" lon="6.14896">
        <ele>1971.7</ele>
        <time>2021-03-10T13:46:18Z</time>
      </trkpt>
      <trkpt lat="45.09012" lon="6.14895">
        <ele>1971.8</ele>
        <time>2021-03-10T13:46:19Z</time>
      </trkpt>
      <trkpt lat="45.09013" lon="6.14894">
        <ele>1971.2</ele>
        <time>2021-03-10T13:46:20Z</time>
      </trkpt>
      <trkpt lat="45.09014" lon="6.14893">
        <ele>1971.4</ele>
        <time>2021-03-10T13:46:21Z</time>
      </trkpt>
      <trkpt lat="45.09015" lon="6.14893">
        <ele>1971.7</ele>
        <time>2021-03-10T13:46:22Z</time>
      </trkpt>
      <trkpt lat="45.09015" lon="6.14892">
        <ele>1971.9</ele>
        <time>2021-03-10T13:46:23Z</time>
      </trkpt>
      <trkpt lat="45.09016" lon="6.14892">
        <ele>1972.2</ele>
        <time>2021-03-10T13:46:24Z</time>
      </trkpt>
      <trkpt lat="45.09016" lon="6.14891">
        <ele>1971.6</ele>
        <time>2021-03-10T13:46:25Z</time>
      </trkpt>
      <trkpt lat="45.09016" lon="6.1489">
        <ele>1973.1</ele>
        <time>2021-03-10T13:46:26Z</time>
      </trkpt>
      <trkpt lat="45.09016" lon="6.14889">
        <ele>1973.3</ele>
        <time>2021-03-10T13:46:27Z</time>
      </trkpt>
      <trkpt lat="45.09016" lon="6.14888">
        <ele>1973.5</ele>
        <time>2021-03-10T13:46:28Z</time>
      </trkpt>
      <trkpt lat="45.09017" lon="6.14887">
        <ele>1975</ele>
        <time>2021-03-10T13:46:29Z</time>
      </trkpt>
      <trkpt lat="45.09017" lon="6.14886">
        <ele>1975.2</ele>
        <time>2021-03-10T13:46:30Z</time>
      </trkpt>
      <trkpt lat="45.09018" lon="6.14885">
        <ele>1975.4</ele>
        <time>2021-03-10T13:46:31Z</time>
      </trkpt>
      <trkpt lat="45.09019" lon="6.14884">
        <ele>1974.9</ele>
        <time>2021-03-10T13:46:32Z</time>
      </trkpt>
      <trkpt lat="45.0902" lon="6.14883">
        <ele>1975.2</ele>
        <time>2021-03-10T13:46:33Z</time>
      </trkpt>
      <trkpt lat="45.09021" lon="6.14882">
        <ele>1976.5</ele>
        <time>2021-03-10T13:46:34Z</time>
      </trkpt>
      <trkpt lat="45.09021" lon="6.14882">
        <ele>1976.7</ele>
        <time>2021-03-10T13:46:35Z</time>
      </trkpt>
      <trkpt lat="45.09022" lon="6.14881">
        <ele>1976.3</ele>
        <time>2021-03-10T13:46:36Z</time>
      </trkpt>
      <trkpt lat="45.09023" lon="6.1488">
        <ele>1976.5</ele>
        <time>2021-03-10T13:46:37Z</time>
      </trkpt>
      <trkpt lat="45.09024" lon="6.1488">
        <ele>1976.7</ele>
        <time>2021-03-10T13:46:38Z</time>
      </trkpt>
      <trkpt lat="45.09025" lon="6.14879">
        <ele>1977</ele>
        <time>2021-03-10T13:46:39Z</time>
      </trkpt>
      <trkpt lat="45.09025" lon="6.14879">
        <ele>1976.5</ele>
        <time>2021-03-10T13:46:40Z</time>
      </trkpt>
      <trkpt lat="45.09026" lon="6.14878">
        <ele>1976.7</ele>
        <time>2021-03-10T13:46:41Z</time>
      </trkpt>
      <trkpt lat="45.09026" lon="6.14878">
        <ele>1977</ele>
        <time>2021-03-10T13:46:42Z</time>
      </trkpt>
      <trkpt lat="45.09026" lon="6.14878">
        <ele>1977</ele>
        <time>2021-03-10T13:46:43Z</time>
      </trkpt>
      <trkpt lat="45.09026" lon="6.14878">
        <ele>1977</ele>
        <time>2021-03-10T13:46:44Z</time>
      </trkpt>
      <trkpt lat="45.09026" lon="6.14878">
        <ele>1977</ele>
        <time>2021-03-10T13:46:45Z</time>
      </trkpt>
      <trkpt lat="45.09026" lon="6.14878">
        <ele>1977</ele>
        <time>2021-03-10T13:46:46Z</time>
      </trkpt>
      <trkpt lat="45.09026" lon="6.14878">
        <ele>1977</ele>
        <time>2021-03-10T13:46:47Z</time>
      </trkpt>
      <trkpt lat="45.09026" lon="6.14879">
        <ele>1977</ele>
        <time>2021-03-10T13:46:48Z</time>
      </trkpt>
      <trkpt lat="45.09026" lon="6.14879">
        <ele>1977</ele>
        <time>2021-03-10T13:46:49Z</time>
      </trkpt>
      <trkpt lat="45.09026" lon="6.14879">
        <ele>1977</ele>
        <time>2021-03-10T13:46:50Z</time>
      </trkpt>
      <trkpt lat="45.09033" lon="6.14873">
        <ele>1977.5</ele>
        <time>2021-03-10T13:47:57Z</time>
      </trkpt>
      <trkpt lat="45.09033" lon="6.14872">
        <ele>1977.5</ele>
        <time>2021-03-10T13:47:58Z</time>
      </trkpt>
      <trkpt lat="45.09033" lon="6.14872">
        <ele>1977.6</ele>
        <time>2021-03-10T13:47:59Z</time>
      </trkpt>
      <trkpt lat="45.09033" lon="6.14871">
        <ele>1977.6</ele>
        <time>2021-03-10T13:48:00Z</time>
      </trkpt>
      <trkpt lat="45.09034" lon="6.1487">
        <ele>1977.6</ele>
        <time>2021-03-10T13:48:01Z</time>
      </trkpt>
      <trkpt lat="45.09034" lon="6.14869">
        <ele>1977.7</ele>
        <time>2021-03-10T13:48:02Z</time>
      </trkpt>
      <trkpt lat="45.09035" lon="6.14868">
        <ele>1977.7</ele>
        <time>2021-03-10T13:48:03Z</time>
      </trkpt>
      <trkpt lat="45.09035" lon="6.14868">
        <ele>1977.7</ele>
        <time>2021-03-10T13:48:04Z</time>
      </trkpt>
      <trkpt lat="45.09034" lon="6.14867">
        <ele>1977.8</ele>
        <time>2021-03-10T13:48:05Z</time>
      </trkpt>
      <trkpt lat="45.09034" lon="6.14866">
        <ele>1977.8</ele>
        <time>2021-03-10T13:48:06Z</time>
      </trkpt>
      <trkpt lat="45.09033" lon="6.14866">
        <ele>1977.9</ele>
        <time>2021-03-10T13:48:07Z</time>
      </trkpt>
      <trkpt lat="45.09032" lon="6.14866">
        <ele>1977.9</ele>
        <time>2021-03-10T13:48:08Z</time>
      </trkpt>
      <trkpt lat="45.09031" lon="6.14867">
        <ele>1978</ele>
        <time>2021-03-10T13:48:09Z</time>
      </trkpt>
      <trkpt lat="45.0903" lon="6.14867">
        <ele>1978</ele>
        <time>2021-03-10T13:48:10Z</time>
      </trkpt>
      <trkpt lat="45.09029" lon="6.14868">
        <ele>1978.1</ele>
        <time>2021-03-10T13:48:11Z</time>
      </trkpt>
      <trkpt lat="45.09029" lon="6.14869">
        <ele>1978.1</ele>
        <time>2021-03-10T13:48:12Z</time>
      </trkpt>
      <trkpt lat="45.09028" lon="6.1487">
        <ele>1978.2</ele>
        <time>2021-03-10T13:48:13Z</time>
      </trkpt>
      <trkpt lat="45.09028" lon="6.1487">
        <ele>1978.2</ele>
        <time>2021-03-10T13:48:14Z</time>
      </trkpt>
      <trkpt lat="45.09026" lon="6.14871">
        <ele>1978.3</ele>
        <time>2021-03-10T13:48:15Z</time>
      </trkpt>
      <trkpt lat="45.09025" lon="6.14872">
        <ele>1978.4</ele>
        <time>2021-03-10T13:48:16Z</time>
      </trkpt>
      <trkpt lat="45.09024" lon="6.14872">
        <ele>1978.5</ele>
        <time>2021-03-10T13:48:17Z</time>
      </trkpt>
      <trkpt lat="45.09023" lon="6.14873">
        <ele>1978.5</ele>
        <time>2021-03-10T13:48:18Z</time>
      </trkpt>
      <trkpt lat="45.09023" lon="6.14873">
        <ele>1978.6</ele>
        <time>2021-03-10T13:48:19Z</time>
      </trkpt>
      <trkpt lat="45.09022" lon="6.14873">
        <ele>1978.6</ele>
        <time>2021-03-10T13:48:20Z</time>
      </trkpt>
      <trkpt lat="45.09021" lon="6.14874">
        <ele>1978.7</ele>
        <time>2021-03-10T13:48:21Z</time>
      </trkpt>
      <trkpt lat="45.0902" lon="6.14875">
        <ele>1978.8</ele>
        <time>2021-03-10T13:48:22Z</time>
      </trkpt>
      <trkpt lat="45.09019" lon="6.14875">
        <ele>1978.8</ele>
        <time>2021-03-10T13:48:23Z</time>
      </trkpt>
      <trkpt lat="45.09018" lon="6.14876">
        <ele>1978.9</ele>
        <time>2021-03-10T13:48:24Z</time>
      </trkpt>
      <trkpt lat="45.09017" lon="6.14877">
        <ele>1979</ele>
        <time>2021-03-10T13:48:25Z</time>
      </trkpt>
      <trkpt lat="45.09017" lon="6.14878">
        <ele>1979</ele>
        <time>2021-03-10T13:48:26Z</time>
      </trkpt>
      <trkpt lat="45.09016" lon="6.14878">
        <ele>1979.1</ele>
        <time>2021-03-10T13:48:27Z</time>
      </trkpt>
      <trkpt lat="45.09015" lon="6.14879">
        <ele>1979.1</ele>
        <time>2021-03-10T13:48:28Z</time>
      </trkpt>
      <trkpt lat="45.09014" lon="6.14879">
        <ele>1979.2</ele>
        <time>2021-03-10T13:48:29Z</time>
      </trkpt>
      <trkpt lat="45.09014" lon="6.1488">
        <ele>1979.2</ele>
        <time>2021-03-10T13:48:30Z</time>
      </trkpt>
      <trkpt lat="45.09013" lon="6.1488">
        <ele>1979.3</ele>
        <time>2021-03-10T13:48:31Z</time>
      </trkpt>
      <trkpt lat="45.09012" lon="6.14881">
        <ele>1979.4</ele>
        <time>2021-03-10T13:48:32Z</time>
      </trkpt>
      <trkpt lat="45.09011" lon="6.14882">
        <ele>1979.4</ele>
        <time>2021-03-10T13:48:33Z</time>
      </trkpt>
      <trkpt lat="45.0901" lon="6.14882">
        <ele>1979.5</ele>
        <time>2021-03-10T13:48:34Z</time>
      </trkpt>
      <trkpt lat="45.09009" lon="6.14883">
        <ele>1979.6</ele>
        <time>2021-03-10T13:48:35Z</time>
      </trkpt>
      <trkpt lat="45.09008" lon="6.14884">
        <ele>1979.7</ele>
        <time>2021-03-10T13:48:36Z</time>
      </trkpt>
      <trkpt lat="45.09007" lon="6.14885">
        <ele>1979.7</ele>
        <time>2021-03-10T13:48:37Z</time>
      </trkpt>
      <trkpt lat="45.09006" lon="6.14885">
        <ele>1979.8</ele>
        <time>2021-03-10T13:48:38Z</time>
      </trkpt>
      <trkpt lat="45.09005" lon="6.14886">
        <ele>1979.9</ele>
        <time>2021-03-10T13:48:39Z</time>
      </trkpt>
      <trkpt lat="45.09005" lon="6.14887">
        <ele>1979.9</ele>
        <time>2021-03-10T13:48:40Z</time>
      </trkpt>
      <trkpt lat="45.09004" lon="6.14887">
        <ele>1980</ele>
        <time>2021-03-10T13:48:41Z</time>
      </trkpt>
      <trkpt lat="45.09003" lon="6.14888">
        <ele>1980</ele>
        <time>2021-03-10T13:48:42Z</time>
      </trkpt>
      <trkpt lat="45.09002" lon="6.14888">
        <ele>1980.1</ele>
        <time>2021-03-10T13:48:43Z</time>
      </trkpt>
      <trkpt lat="45.09002" lon="6.14888">
        <ele>1980.2</ele>
        <time>2021-03-10T13:48:44Z</time>
      </trkpt>
      <trkpt lat="45.09001" lon="6.14889">
        <ele>1980.2</ele>
        <time>2021-03-10T13:48:45Z</time>
      </trkpt>
      <trkpt lat="45.09" lon="6.14889">
        <ele>1980.3</ele>
        <time>2021-03-10T13:48:46Z</time>
      </trkpt>
      <trkpt lat="45.08999" lon="6.1489">
        <ele>1980.4</ele>
        <time>2021-03-10T13:48:47Z</time>
      </trkpt>
      <trkpt lat="45.08998" lon="6.1489">
        <ele>1980.4</ele>
        <time>2021-03-10T13:48:48Z</time>
      </trkpt>
      <trkpt lat="45.08997" lon="6.14891">
        <ele>1980.5</ele>
        <time>2021-03-10T13:48:49Z</time>
      </trkpt>
      <trkpt lat="45.08996" lon="6.14892">
        <ele>1980.6</ele>
        <time>2021-03-10T13:48:50Z</time>
      </trkpt>
      <trkpt lat="45.08995" lon="6.14892">
        <ele>1980.6</ele>
        <time>2021-03-10T13:48:51Z</time>
      </trkpt>
      <trkpt lat="45.08994" lon="6.14893">
        <ele>1980.7</ele>
        <time>2021-03-10T13:48:52Z</time>
      </trkpt>
      <trkpt lat="45.08994" lon="6.14894">
        <ele>1980.8</ele>
        <time>2021-03-10T13:48:53Z</time>
      </trkpt>
      <trkpt lat="45.08993" lon="6.14894">
        <ele>1980.8</ele>
        <time>2021-03-10T13:48:54Z</time>
      </trkpt>
      <trkpt lat="45.08992" lon="6.14895">
        <ele>1980.9</ele>
        <time>2021-03-10T13:48:55Z</time>
      </trkpt>
      <trkpt lat="45.08991" lon="6.14896">
        <ele>1980.9</ele>
        <time>2021-03-10T13:48:56Z</time>
      </trkpt>
      <trkpt lat="45.08991" lon="6.14896">
        <ele>1981</ele>
        <time>2021-03-10T13:48:57Z</time>
      </trkpt>
      <trkpt lat="45.0899" lon="6.14897">
        <ele>1981</ele>
        <time>2021-03-10T13:48:58Z</time>
      </trkpt>
      <trkpt lat="45.08989" lon="6.14898">
        <ele>1981.1</ele>
        <time>2021-03-10T13:48:59Z</time>
      </trkpt>
      <trkpt lat="45.08988" lon="6.14899">
        <ele>1981.2</ele>
        <time>2021-03-10T13:49:00Z</time>
      </trkpt>
      <trkpt lat="45.08988" lon="6.14899">
        <ele>1981.3</ele>
        <time>2021-03-10T13:49:01Z</time>
      </trkpt>
      <trkpt lat="45.08987" lon="6.149">
        <ele>1981.3</ele>
        <time>2021-03-10T13:49:02Z</time>
      </trkpt>
      <trkpt lat="45.08987" lon="6.14901">
        <ele>1981.4</ele>
        <time>2021-03-10T13:49:03Z</time>
      </trkpt>
      <trkpt lat="45.08986" lon="6.14901">
        <ele>1981.4</ele>
        <time>2021-03-10T13:49:04Z</time>
      </trkpt>
      <trkpt lat="45.08985" lon="6.14902">
        <ele>1981.5</ele>
        <time>2021-03-10T13:49:05Z</time>
      </trkpt>
      <trkpt lat="45.08985" lon="6.14902">
        <ele>1981.5</ele>
        <time>2021-03-10T13:49:06Z</time>
      </trkpt>
      <trkpt lat="45.08984" lon="6.14902">
        <ele>1981.6</ele>
        <time>2021-03-10T13:49:07Z</time>
      </trkpt>
      <trkpt lat="45.08983" lon="6.14903">
        <ele>1981.6</ele>
        <time>2021-03-10T13:49:08Z</time>
      </trkpt>
      <trkpt lat="45.08983" lon="6.14904">
        <ele>1981.7</ele>
        <time>2021-03-10T13:49:09Z</time>
      </trkpt>
      <trkpt lat="45.08982" lon="6.14904">
        <ele>1981.7</ele>
        <time>2021-03-10T13:49:10Z</time>
      </trkpt>
      <trkpt lat="45.08981" lon="6.14905">
        <ele>1981.8</ele>
        <time>2021-03-10T13:49:11Z</time>
      </trkpt>
      <trkpt lat="45.08981" lon="6.14906">
        <ele>1981.8</ele>
        <time>2021-03-10T13:49:12Z</time>
      </trkpt>
      <trkpt lat="45.0898" lon="6.14906">
        <ele>1981.9</ele>
        <time>2021-03-10T13:49:13Z</time>
      </trkpt>
      <trkpt lat="45.0898" lon="6.14906">
        <ele>1981.9</ele>
        <time>2021-03-10T13:49:14Z</time>
      </trkpt>
      <trkpt lat="45.0898" lon="6.14906">
        <ele>1981.9</ele>
        <time>2021-03-10T13:49:15Z</time>
      </trkpt>
      <trkpt lat="45.0898" lon="6.14906">
        <ele>1981.9</ele>
        <time>2021-03-10T13:49:16Z</time>
      </trkpt>
      <trkpt lat="45.0898" lon="6.14906">
        <ele>1981.9</ele>
        <time>2021-03-10T13:49:17Z</time>
      </trkpt>
      <trkpt lat="45.0898" lon="6.14906">
        <ele>1981.9</ele>
        <time>2021-03-10T13:49:18Z</time>
      </trkpt>
      <trkpt lat="45.0898" lon="6.14906">
        <ele>1981.9</ele>
        <time>2021-03-10T13:49:19Z</time>
      </trkpt>
      <trkpt lat="45.0898" lon="6.14906">
        <ele>1981.9</ele>
        <time>2021-03-10T13:49:20Z</time>
      </trkpt>
      <trkpt lat="45.0898" lon="6.14906">
        <ele>1981.9</ele>
        <time>2021-03-10T13:49:21Z</time>
      </trkpt>
      <trkpt lat="45.0898" lon="6.14906">
        <ele>1981.9</ele>
        <time>2021-03-10T13:49:22Z</time>
      </trkpt>
      <trkpt lat="45.0898" lon="6.14906">
        <ele>1981.9</ele>
        <time>2021-03-10T13:49:23Z</time>
      </trkpt>
      <trkpt lat="45.08978" lon="6.14909">
        <ele>1982.1</ele>
        <time>2021-03-10T13:49:31Z</time>
      </trkpt>
      <trkpt lat="45.08977" lon="6.14909">
        <ele>1982.2</ele>
        <time>2021-03-10T13:49:32Z</time>
      </trkpt>
      <trkpt lat="45.08976" lon="6.14909">
        <ele>1982.2</ele>
        <time>2021-03-10T13:49:33Z</time>
      </trkpt>
      <trkpt lat="45.08976" lon="6.1491">
        <ele>1982.2</ele>
        <time>2021-03-10T13:49:34Z</time>
      </trkpt>
      <trkpt lat="45.08975" lon="6.1491">
        <ele>1982.3</ele>
        <time>2021-03-10T13:49:35Z</time>
      </trkpt>
      <trkpt lat="45.08974" lon="6.1491">
        <ele>1982.4</ele>
        <time>2021-03-10T13:49:36Z</time>
      </trkpt>
      <trkpt lat="45.08973" lon="6.14911">
        <ele>1982.4</ele>
        <time>2021-03-10T13:49:37Z</time>
      </trkpt>
      <trkpt lat="45.08973" lon="6.14911">
        <ele>1982.5</ele>
        <time>2021-03-10T13:49:38Z</time>
      </trkpt>
      <trkpt lat="45.08972" lon="6.14913">
        <ele>1982.6</ele>
        <time>2021-03-10T13:49:39Z</time>
      </trkpt>
      <trkpt lat="45.08971" lon="6.14913">
        <ele>1982.6</ele>
        <time>2021-03-10T13:49:40Z</time>
      </trkpt>
      <trkpt lat="45.0897" lon="6.14914">
        <ele>1982.7</ele>
        <time>2021-03-10T13:49:41Z</time>
      </trkpt>
      <trkpt lat="45.0897" lon="6.14915">
        <ele>1982.7</ele>
        <time>2021-03-10T13:49:42Z</time>
      </trkpt>
      <trkpt lat="45.08969" lon="6.14916">
        <ele>1982.8</ele>
        <time>2021-03-10T13:49:43Z</time>
      </trkpt>
      <trkpt lat="45.08969" lon="6.14916">
        <ele>1982.9</ele>
        <time>2021-03-10T13:49:44Z</time>
      </trkpt>
      <trkpt lat="45.08967" lon="6.14917">
        <ele>1983</ele>
        <time>2021-03-10T13:49:45Z</time>
      </trkpt>
      <trkpt lat="45.08967" lon="6.14918">
        <ele>1983</ele>
        <time>2021-03-10T13:49:46Z</time>
      </trkpt>
      <trkpt lat="45.08965" lon="6.14918">
        <ele>1983.1</ele>
        <time>2021-03-10T13:49:47Z</time>
      </trkpt>
      <trkpt lat="45.08964" lon="6.14919">
        <ele>1983.2</ele>
        <time>2021-03-10T13:49:48Z</time>
      </trkpt>
      <trkpt lat="45.08963" lon="6.14919">
        <ele>1983.3</ele>
        <time>2021-03-10T13:49:49Z</time>
      </trkpt>
      <trkpt lat="45.08962" lon="6.1492">
        <ele>1983.3</ele>
        <time>2021-03-10T13:49:50Z</time>
      </trkpt>
      <trkpt lat="45.08961" lon="6.1492">
        <ele>1983.4</ele>
        <time>2021-03-10T13:49:51Z</time>
      </trkpt>
      <trkpt lat="45.0896" lon="6.1492">
        <ele>1983.5</ele>
        <time>2021-03-10T13:49:52Z</time>
      </trkpt>
      <trkpt lat="45.08959" lon="6.14921">
        <ele>1983.6</ele>
        <time>2021-03-10T13:49:53Z</time>
      </trkpt>
      <trkpt lat="45.08958" lon="6.14921">
        <ele>1983.6</ele>
        <time>2021-03-10T13:49:54Z</time>
      </trkpt>
      <trkpt lat="45.08956" lon="6.14921">
        <ele>1983.7</ele>
        <time>2021-03-10T13:49:55Z</time>
      </trkpt>
      <trkpt lat="45.08955" lon="6.14921">
        <ele>1983.8</ele>
        <time>2021-03-10T13:49:56Z</time>
      </trkpt>
      <trkpt lat="45.08954" lon="6.14921">
        <ele>1983.9</ele>
        <time>2021-03-10T13:49:57Z</time>
      </trkpt>
      <trkpt lat="45.08953" lon="6.1492">
        <ele>1983.9</ele>
        <time>2021-03-10T13:49:58Z</time>
      </trkpt>
      <trkpt lat="45.08952" lon="6.1492">
        <ele>1984</ele>
        <time>2021-03-10T13:49:59Z</time>
      </trkpt>
      <trkpt lat="45.08951" lon="6.1492">
        <ele>1984</ele>
        <time>2021-03-10T13:50:00Z</time>
      </trkpt>
      <trkpt lat="45.0895" lon="6.1492">
        <ele>1984.1</ele>
        <time>2021-03-10T13:50:01Z</time>
      </trkpt>
      <trkpt lat="45.08949" lon="6.14919">
        <ele>1984.2</ele>
        <time>2021-03-10T13:50:02Z</time>
      </trkpt>
      <trkpt lat="45.08949" lon="6.14919">
        <ele>1984.2</ele>
        <time>2021-03-10T13:50:03Z</time>
      </trkpt>
      <trkpt lat="45.08948" lon="6.14919">
        <ele>1984.2</ele>
        <time>2021-03-10T13:50:04Z</time>
      </trkpt>
      <trkpt lat="45.08947" lon="6.14918">
        <ele>1984.3</ele>
        <time>2021-03-10T13:50:05Z</time>
      </trkpt>
      <trkpt lat="45.08946" lon="6.14918">
        <ele>1984.3</ele>
        <time>2021-03-10T13:50:06Z</time>
      </trkpt>
      <trkpt lat="45.08945" lon="6.14918">
        <ele>1984.4</ele>
        <time>2021-03-10T13:50:07Z</time>
      </trkpt>
      <trkpt lat="45.08944" lon="6.14917">
        <ele>1984.5</ele>
        <time>2021-03-10T13:50:08Z</time>
      </trkpt>
      <trkpt lat="45.08943" lon="6.14917">
        <ele>1984.5</ele>
        <time>2021-03-10T13:50:09Z</time>
      </trkpt>
      <trkpt lat="45.08943" lon="6.14917">
        <ele>1984.5</ele>
        <time>2021-03-10T13:50:10Z</time>
      </trkpt>
      <trkpt lat="45.08941" lon="6.14917">
        <ele>1984.6</ele>
        <time>2021-03-10T13:50:11Z</time>
      </trkpt>
      <trkpt lat="45.0894" lon="6.14917">
        <ele>1984.7</ele>
        <time>2021-03-10T13:50:12Z</time>
      </trkpt>
      <trkpt lat="45.08939" lon="6.14917">
        <ele>1984.7</ele>
        <time>2021-03-10T13:50:13Z</time>
      </trkpt>
      <trkpt lat="45.08938" lon="6.14917">
        <ele>1984.8</ele>
        <time>2021-03-10T13:50:14Z</time>
      </trkpt>
      <trkpt lat="45.08937" lon="6.14916">
        <ele>1984.8</ele>
        <time>2021-03-10T13:50:15Z</time>
      </trkpt>
      <trkpt lat="45.08936" lon="6.14916">
        <ele>1984.9</ele>
        <time>2021-03-10T13:50:16Z</time>
      </trkpt>
      <trkpt lat="45.08935" lon="6.14916">
        <ele>1984.9</ele>
        <time>2021-03-10T13:50:17Z</time>
      </trkpt>
      <trkpt lat="45.08935" lon="6.14916">
        <ele>1984.9</ele>
        <time>2021-03-10T13:50:18Z</time>
      </trkpt>
      <trkpt lat="45.08934" lon="6.14916">
        <ele>1985</ele>
        <time>2021-03-10T13:50:19Z</time>
      </trkpt>
      <trkpt lat="45.08933" lon="6.14916">
        <ele>1985</ele>
        <time>2021-03-10T13:50:20Z</time>
      </trkpt>
      <trkpt lat="45.08932" lon="6.14916">
        <ele>1985.1</ele>
        <time>2021-03-10T13:50:21Z</time>
      </trkpt>
      <trkpt lat="45.08931" lon="6.14916">
        <ele>1985.1</ele>
        <time>2021-03-10T13:50:22Z</time>
      </trkpt>
      <trkpt lat="45.0893" lon="6.14915">
        <ele>1985.2</ele>
        <time>2021-03-10T13:50:23Z</time>
      </trkpt>
      <trkpt lat="45.08929" lon="6.14915">
        <ele>1985.2</ele>
        <time>2021-03-10T13:50:24Z</time>
      </trkpt>
      <trkpt lat="45.08928" lon="6.14915">
        <ele>1985.2</ele>
        <time>2021-03-10T13:50:25Z</time>
      </trkpt>
      <trkpt lat="45.08928" lon="6.14915">
        <ele>1985.3</ele>
        <time>2021-03-10T13:50:26Z</time>
      </trkpt>
      <trkpt lat="45.08926" lon="6.14915">
        <ele>1985.3</ele>
        <time>2021-03-10T13:50:27Z</time>
      </trkpt>
      <trkpt lat="45.08926" lon="6.14915">
        <ele>1985.4</ele>
        <time>2021-03-10T13:50:28Z</time>
      </trkpt>
      <trkpt lat="45.08925" lon="6.14915">
        <ele>1985.4</ele>
        <time>2021-03-10T13:50:29Z</time>
      </trkpt>
      <trkpt lat="45.08924" lon="6.14915">
        <ele>1985.4</ele>
        <time>2021-03-10T13:50:30Z</time>
      </trkpt>
      <trkpt lat="45.08923" lon="6.14915">
        <ele>1985.5</ele>
        <time>2021-03-10T13:50:31Z</time>
      </trkpt>
      <trkpt lat="45.08922" lon="6.14915">
        <ele>1985.5</ele>
        <time>2021-03-10T13:50:32Z</time>
      </trkpt>
      <trkpt lat="45.08921" lon="6.14915">
        <ele>1985.6</ele>
        <time>2021-03-10T13:50:33Z</time>
      </trkpt>
      <trkpt lat="45.0892" lon="6.14914">
        <ele>1985.6</ele>
        <time>2021-03-10T13:50:34Z</time>
      </trkpt>
      <trkpt lat="45.08919" lon="6.14914">
        <ele>1985.7</ele>
        <time>2021-03-10T13:50:35Z</time>
      </trkpt>
      <trkpt lat="45.08918" lon="6.14914">
        <ele>1985.7</ele>
        <time>2021-03-10T13:50:36Z</time>
      </trkpt>
      <trkpt lat="45.08917" lon="6.14914">
        <ele>1985.8</ele>
        <time>2021-03-10T13:50:37Z</time>
      </trkpt>
      <trkpt lat="45.08916" lon="6.14914">
        <ele>1985.8</ele>
        <time>2021-03-10T13:50:38Z</time>
      </trkpt>
      <trkpt lat="45.08915" lon="6.14914">
        <ele>1985.9</ele>
        <time>2021-03-10T13:50:39Z</time>
      </trkpt>
      <trkpt lat="45.08914" lon="6.14913">
        <ele>1985.9</ele>
        <time>2021-03-10T13:50:40Z</time>
      </trkpt>
      <trkpt lat="45.08913" lon="6.14913">
        <ele>1986</ele>
        <time>2021-03-10T13:50:41Z</time>
      </trkpt>
      <trkpt lat="45.08913" lon="6.14913">
        <ele>1986</ele>
        <time>2021-03-10T13:50:42Z</time>
      </trkpt>
      <trkpt lat="45.08912" lon="6.14913">
        <ele>1986</ele>
        <time>2021-03-10T13:50:43Z</time>
      </trkpt>
      <trkpt lat="45.08911" lon="6.14913">
        <ele>1986.1</ele>
        <time>2021-03-10T13:50:44Z</time>
      </trkpt>
      <trkpt lat="45.0891" lon="6.14913">
        <ele>1986.1</ele>
        <time>2021-03-10T13:50:45Z</time>
      </trkpt>
      <trkpt lat="45.08909" lon="6.14913">
        <ele>1986.2</ele>
        <time>2021-03-10T13:50:46Z</time>
      </trkpt>
      <trkpt lat="45.08908" lon="6.14912">
        <ele>1986.3</ele>
        <time>2021-03-10T13:50:47Z</time>
      </trkpt>
      <trkpt lat="45.08907" lon="6.14912">
        <ele>1986.3</ele>
        <time>2021-03-10T13:50:48Z</time>
      </trkpt>
      <trkpt lat="45.08906" lon="6.14912">
        <ele>1986.4</ele>
        <time>2021-03-10T13:50:49Z</time>
      </trkpt>
      <trkpt lat="45.08905" lon="6.14912">
        <ele>1986.4</ele>
        <time>2021-03-10T13:50:50Z</time>
      </trkpt>
      <trkpt lat="45.08904" lon="6.14912">
        <ele>1986.5</ele>
        <time>2021-03-10T13:50:51Z</time>
      </trkpt>
      <trkpt lat="45.08903" lon="6.14911">
        <ele>1986.5</ele>
        <time>2021-03-10T13:50:52Z</time>
      </trkpt>
      <trkpt lat="45.08902" lon="6.14911">
        <ele>1986.6</ele>
        <time>2021-03-10T13:50:53Z</time>
      </trkpt>
      <trkpt lat="45.08902" lon="6.14911">
        <ele>1986.6</ele>
        <time>2021-03-10T13:50:54Z</time>
      </trkpt>
      <trkpt lat="45.089" lon="6.14911">
        <ele>1987</ele>
        <time>2021-03-10T13:50:55Z</time>
      </trkpt>
      <trkpt lat="45.08899" lon="6.14911">
        <ele>1987</ele>
        <time>2021-03-10T13:50:56Z</time>
      </trkpt>
      <trkpt lat="45.08898" lon="6.1491">
        <ele>1987</ele>
        <time>2021-03-10T13:50:57Z</time>
      </trkpt>
      <trkpt lat="45.08897" lon="6.1491">
        <ele>1987.4</ele>
        <time>2021-03-10T13:50:58Z</time>
      </trkpt>
      <trkpt lat="45.08897" lon="6.1491">
        <ele>1987.4</ele>
        <time>2021-03-10T13:50:59Z</time>
      </trkpt>
      <trkpt lat="45.08896" lon="6.1491">
        <ele>1987.4</ele>
        <time>2021-03-10T13:51:00Z</time>
      </trkpt>
      <trkpt lat="45.08894" lon="6.14909">
        <ele>1987.9</ele>
        <time>2021-03-10T13:51:01Z</time>
      </trkpt>
      <trkpt lat="45.08893" lon="6.14909">
        <ele>1987.9</ele>
        <time>2021-03-10T13:51:02Z</time>
      </trkpt>
      <trkpt lat="45.08892" lon="6.14908">
        <ele>1987.9</ele>
        <time>2021-03-10T13:51:03Z</time>
      </trkpt>
      <trkpt lat="45.08891" lon="6.14908">
        <ele>1989.2</ele>
        <time>2021-03-10T13:51:04Z</time>
      </trkpt>
      <trkpt lat="45.0889" lon="6.14908">
        <ele>1989.2</ele>
        <time>2021-03-10T13:51:05Z</time>
      </trkpt>
      <trkpt lat="45.08889" lon="6.14907">
        <ele>1989.2</ele>
        <time>2021-03-10T13:51:06Z</time>
      </trkpt>
      <trkpt lat="45.08888" lon="6.14907">
        <ele>1989.6</ele>
        <time>2021-03-10T13:51:07Z</time>
      </trkpt>
      <trkpt lat="45.08887" lon="6.14906">
        <ele>1989.6</ele>
        <time>2021-03-10T13:51:08Z</time>
      </trkpt>
      <trkpt lat="45.08886" lon="6.14906">
        <ele>1989.6</ele>
        <time>2021-03-10T13:51:09Z</time>
      </trkpt>
      <trkpt lat="45.08885" lon="6.14905">
        <ele>1989.9</ele>
        <time>2021-03-10T13:51:10Z</time>
      </trkpt>
      <trkpt lat="45.08884" lon="6.14905">
        <ele>1989.9</ele>
        <time>2021-03-10T13:51:11Z</time>
      </trkpt>
      <trkpt lat="45.08883" lon="6.14904">
        <ele>1989.9</ele>
        <time>2021-03-10T13:51:12Z</time>
      </trkpt>
      <trkpt lat="45.08881" lon="6.14904">
        <ele>1991.1</ele>
        <time>2021-03-10T13:51:13Z</time>
      </trkpt>
      <trkpt lat="45.08879" lon="6.14903">
        <ele>1991.3</ele>
        <time>2021-03-10T13:51:14Z</time>
      </trkpt>
      <trkpt lat="45.08878" lon="6.14903">
        <ele>1991.3</ele>
        <time>2021-03-10T13:51:15Z</time>
      </trkpt>
      <trkpt lat="45.08877" lon="6.14903">
        <ele>1991.3</ele>
        <time>2021-03-10T13:51:16Z</time>
      </trkpt>
      <trkpt lat="45.08875" lon="6.14902">
        <ele>1991.4</ele>
        <time>2021-03-10T13:51:17Z</time>
      </trkpt>
      <trkpt lat="45.08875" lon="6.14902">
        <ele>1991.4</ele>
        <time>2021-03-10T13:51:18Z</time>
      </trkpt>
      <trkpt lat="45.08874" lon="6.14902">
        <ele>1991.4</ele>
        <time>2021-03-10T13:51:19Z</time>
      </trkpt>
      <trkpt lat="45.08873" lon="6.14901">
        <ele>1991.6</ele>
        <time>2021-03-10T13:51:20Z</time>
      </trkpt>
      <trkpt lat="45.08872" lon="6.14901">
        <ele>1991.6</ele>
        <time>2021-03-10T13:51:21Z</time>
      </trkpt>
      <trkpt lat="45.08871" lon="6.14901">
        <ele>1991.6</ele>
        <time>2021-03-10T13:51:22Z</time>
      </trkpt>
      <trkpt lat="45.08871" lon="6.149">
        <ele>1991.6</ele>
        <time>2021-03-10T13:51:23Z</time>
      </trkpt>
      <trkpt lat="45.0887" lon="6.14899">
        <ele>1992.6</ele>
        <time>2021-03-10T13:51:24Z</time>
      </trkpt>
      <trkpt lat="45.08869" lon="6.14899">
        <ele>1992.6</ele>
        <time>2021-03-10T13:51:25Z</time>
      </trkpt>
      <trkpt lat="45.08868" lon="6.14899">
        <ele>1992.6</ele>
        <time>2021-03-10T13:51:26Z</time>
      </trkpt>
      <trkpt lat="45.08868" lon="6.14899">
        <ele>1992.6</ele>
        <time>2021-03-10T13:51:27Z</time>
      </trkpt>
      <trkpt lat="45.08867" lon="6.14898">
        <ele>1992.7</ele>
        <time>2021-03-10T13:51:28Z</time>
      </trkpt>
      <trkpt lat="45.08866" lon="6.14898">
        <ele>1992.7</ele>
        <time>2021-03-10T13:51:29Z</time>
      </trkpt>
      <trkpt lat="45.08865" lon="6.14898">
        <ele>1992.7</ele>
        <time>2021-03-10T13:51:30Z</time>
      </trkpt>
      <trkpt lat="45.08864" lon="6.14897">
        <ele>1992.8</ele>
        <time>2021-03-10T13:51:31Z</time>
      </trkpt>
      <trkpt lat="45.08863" lon="6.14897">
        <ele>1992.8</ele>
        <time>2021-03-10T13:51:32Z</time>
      </trkpt>
      <trkpt lat="45.08862" lon="6.14897">
        <ele>1992.8</ele>
        <time>2021-03-10T13:51:33Z</time>
      </trkpt>
      <trkpt lat="45.08861" lon="6.14896">
        <ele>1992.8</ele>
        <time>2021-03-10T13:51:34Z</time>
      </trkpt>
      <trkpt lat="45.08861" lon="6.14896">
        <ele>1992.8</ele>
        <time>2021-03-10T13:51:35Z</time>
      </trkpt>
      <trkpt lat="45.0886" lon="6.14895">
        <ele>1993.8</ele>
        <time>2021-03-10T13:51:36Z</time>
      </trkpt>
      <trkpt lat="45.08859" lon="6.14895">
        <ele>1993.8</ele>
        <time>2021-03-10T13:51:37Z</time>
      </trkpt>
      <trkpt lat="45.08858" lon="6.14894">
        <ele>1993.8</ele>
        <time>2021-03-10T13:51:38Z</time>
      </trkpt>
      <trkpt lat="45.08857" lon="6.14893">
        <ele>1993.8</ele>
        <time>2021-03-10T13:51:39Z</time>
      </trkpt>
      <trkpt lat="45.08856" lon="6.14893">
        <ele>1993.8</ele>
        <time>2021-03-10T13:51:40Z</time>
      </trkpt>
      <trkpt lat="45.08856" lon="6.14892">
        <ele>1993.8</ele>
        <time>2021-03-10T13:51:41Z</time>
      </trkpt>
      <trkpt lat="45.08855" lon="6.14891">
        <ele>1994.8</ele>
        <time>2021-03-10T13:51:42Z</time>
      </trkpt>
      <trkpt lat="45.08854" lon="6.1489">
        <ele>1994.8</ele>
        <time>2021-03-10T13:51:43Z</time>
      </trkpt>
      <trkpt lat="45.08853" lon="6.14889">
        <ele>1994.8</ele>
        <time>2021-03-10T13:51:44Z</time>
      </trkpt>
      <trkpt lat="45.08852" lon="6.14889">
        <ele>1994.8</ele>
        <time>2021-03-10T13:51:45Z</time>
      </trkpt>
      <trkpt lat="45.08851" lon="6.14888">
        <ele>1994.8</ele>
        <time>2021-03-10T13:51:46Z</time>
      </trkpt>
      <trkpt lat="45.0885" lon="6.14888">
        <ele>1994.8</ele>
        <time>2021-03-10T13:51:47Z</time>
      </trkpt>
      <trkpt lat="45.08849" lon="6.14887">
        <ele>1995.6</ele>
        <time>2021-03-10T13:51:48Z</time>
      </trkpt>
      <trkpt lat="45.08849" lon="6.14886">
        <ele>1995.7</ele>
        <time>2021-03-10T13:51:49Z</time>
      </trkpt>
      <trkpt lat="45.08848" lon="6.14885">
        <ele>1995.7</ele>
        <time>2021-03-10T13:51:50Z</time>
      </trkpt>
      <trkpt lat="45.08847" lon="6.14884">
        <ele>1995.7</ele>
        <time>2021-03-10T13:51:51Z</time>
      </trkpt>
      <trkpt lat="45.08846" lon="6.14883">
        <ele>1995.7</ele>
        <time>2021-03-10T13:51:52Z</time>
      </trkpt>
      <trkpt lat="45.08845" lon="6.14882">
        <ele>1996.4</ele>
        <time>2021-03-10T13:51:53Z</time>
      </trkpt>
      <trkpt lat="45.08844" lon="6.14881">
        <ele>1996.4</ele>
        <time>2021-03-10T13:51:54Z</time>
      </trkpt>
      <trkpt lat="45.08843" lon="6.1488">
        <ele>1996.4</ele>
        <time>2021-03-10T13:51:55Z</time>
      </trkpt>
      <trkpt lat="45.08842" lon="6.14879">
        <ele>1996.4</ele>
        <time>2021-03-10T13:51:56Z</time>
      </trkpt>
      <trkpt lat="45.08841" lon="6.14878">
        <ele>1997.1</ele>
        <time>2021-03-10T13:51:57Z</time>
      </trkpt>
      <trkpt lat="45.0884" lon="6.14877">
        <ele>1997.1</ele>
        <time>2021-03-10T13:51:58Z</time>
      </trkpt>
      <trkpt lat="45.08839" lon="6.14877">
        <ele>1997.1</ele>
        <time>2021-03-10T13:51:59Z</time>
      </trkpt>
      <trkpt lat="45.08839" lon="6.14876">
        <ele>1997.1</ele>
        <time>2021-03-10T13:52:00Z</time>
      </trkpt>
      <trkpt lat="45.08838" lon="6.14875">
        <ele>1997.1</ele>
        <time>2021-03-10T13:52:01Z</time>
      </trkpt>
      <trkpt lat="45.08837" lon="6.14874">
        <ele>1997.1</ele>
        <time>2021-03-10T13:52:02Z</time>
      </trkpt>
      <trkpt lat="45.08836" lon="6.14873">
        <ele>1997.7</ele>
        <time>2021-03-10T13:52:03Z</time>
      </trkpt>
      <trkpt lat="45.08835" lon="6.14872">
        <ele>1997.7</ele>
        <time>2021-03-10T13:52:04Z</time>
      </trkpt>
      <trkpt lat="45.08835" lon="6.14871">
        <ele>1997.7</ele>
        <time>2021-03-10T13:52:05Z</time>
      </trkpt>
      <trkpt lat="45.08834" lon="6.1487">
        <ele>1997.7</ele>
        <time>2021-03-10T13:52:06Z</time>
      </trkpt>
      <trkpt lat="45.08833" lon="6.1487">
        <ele>1998.3</ele>
        <time>2021-03-10T13:52:07Z</time>
      </trkpt>
      <trkpt lat="45.08832" lon="6.14869">
        <ele>1998.3</ele>
        <time>2021-03-10T13:52:08Z</time>
      </trkpt>
      <trkpt lat="45.08831" lon="6.14868">
        <ele>1998.3</ele>
        <time>2021-03-10T13:52:09Z</time>
      </trkpt>
      <trkpt lat="45.08831" lon="6.14867">
        <ele>1998.2</ele>
        <time>2021-03-10T13:52:10Z</time>
      </trkpt>
      <trkpt lat="45.0883" lon="6.14867">
        <ele>1998.2</ele>
        <time>2021-03-10T13:52:11Z</time>
      </trkpt>
      <trkpt lat="45.08829" lon="6.14866">
        <ele>1998.2</ele>
        <time>2021-03-10T13:52:12Z</time>
      </trkpt>
      <trkpt lat="45.08828" lon="6.14865">
        <ele>1998.8</ele>
        <time>2021-03-10T13:52:13Z</time>
      </trkpt>
      <trkpt lat="45.08828" lon="6.14864">
        <ele>1998.7</ele>
        <time>2021-03-10T13:52:14Z</time>
      </trkpt>
      <trkpt lat="45.08827" lon="6.14864">
        <ele>1998.7</ele>
        <time>2021-03-10T13:52:15Z</time>
      </trkpt>
      <trkpt lat="45.08826" lon="6.14863">
        <ele>1998.7</ele>
        <time>2021-03-10T13:52:16Z</time>
      </trkpt>
      <trkpt lat="45.08825" lon="6.14862">
        <ele>1998.7</ele>
        <time>2021-03-10T13:52:17Z</time>
      </trkpt>
      <trkpt lat="45.08825" lon="6.14861">
        <ele>1999.2</ele>
        <time>2021-03-10T13:52:18Z</time>
      </trkpt>
      <trkpt lat="45.08824" lon="6.1486">
        <ele>1999.2</ele>
        <time>2021-03-10T13:52:19Z</time>
      </trkpt>
      <trkpt lat="45.08823" lon="6.1486">
        <ele>1999.2</ele>
        <time>2021-03-10T13:52:20Z</time>
      </trkpt>
      <trkpt lat="45.08822" lon="6.14859">
        <ele>1999.2</ele>
        <time>2021-03-10T13:52:21Z</time>
      </trkpt>
      <trkpt lat="45.08821" lon="6.14859">
        <ele>1999.1</ele>
        <time>2021-03-10T13:52:22Z</time>
      </trkpt>
      <trkpt lat="45.08821" lon="6.14858">
        <ele>1999.1</ele>
        <time>2021-03-10T13:52:23Z</time>
      </trkpt>
      <trkpt lat="45.0882" lon="6.14857">
        <ele>1999.1</ele>
        <time>2021-03-10T13:52:24Z</time>
      </trkpt>
      <trkpt lat="45.0882" lon="6.14857">
        <ele>1999.5</ele>
        <time>2021-03-10T13:52:25Z</time>
      </trkpt>
      <trkpt lat="45.08819" lon="6.14856">
        <ele>1999.5</ele>
        <time>2021-03-10T13:52:26Z</time>
      </trkpt>
      <trkpt lat="45.08819" lon="6.14855">
        <ele>1999.4</ele>
        <time>2021-03-10T13:52:27Z</time>
      </trkpt>
      <trkpt lat="45.08818" lon="6.14854">
        <ele>1999.4</ele>
        <time>2021-03-10T13:52:28Z</time>
      </trkpt>
      <trkpt lat="45.08818" lon="6.14853">
        <ele>1999.4</ele>
        <time>2021-03-10T13:52:29Z</time>
      </trkpt>
      <trkpt lat="45.08818" lon="6.14852">
        <ele>1999.8</ele>
        <time>2021-03-10T13:52:30Z</time>
      </trkpt>
      <trkpt lat="45.08817" lon="6.14851">
        <ele>1999.8</ele>
        <time>2021-03-10T13:52:31Z</time>
      </trkpt>
      <trkpt lat="45.08817" lon="6.1485">
        <ele>1999.8</ele>
        <time>2021-03-10T13:52:32Z</time>
      </trkpt>
      <trkpt lat="45.08816" lon="6.14849">
        <ele>1999.8</ele>
        <time>2021-03-10T13:52:33Z</time>
      </trkpt>
      <trkpt lat="45.08816" lon="6.14848">
        <ele>2000.2</ele>
        <time>2021-03-10T13:52:34Z</time>
      </trkpt>
      <trkpt lat="45.08815" lon="6.14847">
        <ele>1999.9</ele>
        <time>2021-03-10T13:52:35Z</time>
      </trkpt>
      <trkpt lat="45.08815" lon="6.14846">
        <ele>1999.9</ele>
        <time>2021-03-10T13:52:36Z</time>
      </trkpt>
      <trkpt lat="45.08814" lon="6.14845">
        <ele>1999.9</ele>
        <time>2021-03-10T13:52:37Z</time>
      </trkpt>
      <trkpt lat="45.08814" lon="6.14844">
        <ele>2000.2</ele>
        <time>2021-03-10T13:52:38Z</time>
      </trkpt>
      <trkpt lat="45.08813" lon="6.14843">
        <ele>2000.2</ele>
        <time>2021-03-10T13:52:39Z</time>
      </trkpt>
      <trkpt lat="45.08813" lon="6.14841">
        <ele>2000.2</ele>
        <time>2021-03-10T13:52:40Z</time>
      </trkpt>
      <trkpt lat="45.08813" lon="6.1484">
        <ele>2000.2</ele>
        <time>2021-03-10T13:52:41Z</time>
      </trkpt>
      <trkpt lat="45.08813" lon="6.14839">
        <ele>2000.2</ele>
        <time>2021-03-10T13:52:42Z</time>
      </trkpt>
      <trkpt lat="45.08812" lon="6.14838">
        <ele>2000.2</ele>
        <time>2021-03-10T13:52:43Z</time>
      </trkpt>
      <trkpt lat="45.08812" lon="6.14837">
        <ele>2000.2</ele>
        <time>2021-03-10T13:52:44Z</time>
      </trkpt>
      <trkpt lat="45.08811" lon="6.14836">
        <ele>2000.2</ele>
        <time>2021-03-10T13:52:45Z</time>
      </trkpt>
      <trkpt lat="45.08811" lon="6.14835">
        <ele>2000.4</ele>
        <time>2021-03-10T13:52:46Z</time>
      </trkpt>
      <trkpt lat="45.08811" lon="6.14834">
        <ele>2000.4</ele>
        <time>2021-03-10T13:52:47Z</time>
      </trkpt>
      <trkpt lat="45.0881" lon="6.14833">
        <ele>2000.4</ele>
        <time>2021-03-10T13:52:48Z</time>
      </trkpt>
      <trkpt lat="45.08809" lon="6.14833">
        <ele>2000.1</ele>
        <time>2021-03-10T13:52:49Z</time>
      </trkpt>
      <trkpt lat="45.08809" lon="6.14832">
        <ele>2000.1</ele>
        <time>2021-03-10T13:52:50Z</time>
      </trkpt>
      <trkpt lat="45.08808" lon="6.14831">
        <ele>2000.3</ele>
        <time>2021-03-10T13:52:51Z</time>
      </trkpt>
      <trkpt lat="45.08808" lon="6.14829">
        <ele>2000.3</ele>
        <time>2021-03-10T13:52:52Z</time>
      </trkpt>
      <trkpt lat="45.08807" lon="6.14828">
        <ele>2000.3</ele>
        <time>2021-03-10T13:52:53Z</time>
      </trkpt>
      <trkpt lat="45.08807" lon="6.14827">
        <ele>2000.3</ele>
        <time>2021-03-10T13:52:54Z</time>
      </trkpt>
      <trkpt lat="45.08806" lon="6.14826">
        <ele>2000.1</ele>
        <time>2021-03-10T13:52:55Z</time>
      </trkpt>
      <trkpt lat="45.08805" lon="6.14825">
        <ele>2000.1</ele>
        <time>2021-03-10T13:52:56Z</time>
      </trkpt>
      <trkpt lat="45.08805" lon="6.14824">
        <ele>2000.1</ele>
        <time>2021-03-10T13:52:57Z</time>
      </trkpt>
      <trkpt lat="45.08804" lon="6.14823">
        <ele>2000.1</ele>
        <time>2021-03-10T13:52:58Z</time>
      </trkpt>
      <trkpt lat="45.08803" lon="6.14822">
        <ele>1999.7</ele>
        <time>2021-03-10T13:52:59Z</time>
      </trkpt>
      <trkpt lat="45.08802" lon="6.14821">
        <ele>1999.8</ele>
        <time>2021-03-10T13:53:00Z</time>
      </trkpt>
      <trkpt lat="45.08801" lon="6.14821">
        <ele>1999.8</ele>
        <time>2021-03-10T13:53:01Z</time>
      </trkpt>
      <trkpt lat="45.08801" lon="6.1482">
        <ele>1999.4</ele>
        <time>2021-03-10T13:53:02Z</time>
      </trkpt>
      <trkpt lat="45.088" lon="6.14819">
        <ele>1999.4</ele>
        <time>2021-03-10T13:53:03Z</time>
      </trkpt>
      <trkpt lat="45.08799" lon="6.14818">
        <ele>1999.4</ele>
        <time>2021-03-10T13:53:04Z</time>
      </trkpt>
      <trkpt lat="45.08799" lon="6.14818">
        <ele>1999.5</ele>
        <time>2021-03-10T13:53:05Z</time>
      </trkpt>
      <trkpt lat="45.08798" lon="6.14817">
        <ele>1999.5</ele>
        <time>2021-03-10T13:53:06Z</time>
      </trkpt>
      <trkpt lat="45.08797" lon="6.14816">
        <ele>1999.2</ele>
        <time>2021-03-10T13:53:07Z</time>
      </trkpt>
      <trkpt lat="45.08796" lon="6.14815">
        <ele>1999.2</ele>
        <time>2021-03-10T13:53:08Z</time>
      </trkpt>
      <trkpt lat="45.08795" lon="6.14815">
        <ele>1999.2</ele>
        <time>2021-03-10T13:53:09Z</time>
      </trkpt>
      <trkpt lat="45.08795" lon="6.14815">
        <ele>1999.2</ele>
        <time>2021-03-10T13:53:10Z</time>
      </trkpt>
      <trkpt lat="45.08794" lon="6.14814">
        <ele>1998.8</ele>
        <time>2021-03-10T13:53:11Z</time>
      </trkpt>
      <trkpt lat="45.08793" lon="6.14813">
        <ele>1998.8</ele>
        <time>2021-03-10T13:53:12Z</time>
      </trkpt>
      <trkpt lat="45.08792" lon="6.14813">
        <ele>1998.8</ele>
        <time>2021-03-10T13:53:13Z</time>
      </trkpt>
      <trkpt lat="45.08791" lon="6.14812">
        <ele>1998.5</ele>
        <time>2021-03-10T13:53:14Z</time>
      </trkpt>
      <trkpt lat="45.08791" lon="6.14811">
        <ele>1998.5</ele>
        <time>2021-03-10T13:53:15Z</time>
      </trkpt>
      <trkpt lat="45.0879" lon="6.1481">
        <ele>1998.5</ele>
        <time>2021-03-10T13:53:16Z</time>
      </trkpt>
      <trkpt lat="45.08789" lon="6.14809">
        <ele>1998.5</ele>
        <time>2021-03-10T13:53:17Z</time>
      </trkpt>
      <trkpt lat="45.08788" lon="6.14808">
        <ele>1998.1</ele>
        <time>2021-03-10T13:53:18Z</time>
      </trkpt>
      <trkpt lat="45.08787" lon="6.14807">
        <ele>1998.1</ele>
        <time>2021-03-10T13:53:19Z</time>
      </trkpt>
      <trkpt lat="45.08786" lon="6.14806">
        <ele>1998.1</ele>
        <time>2021-03-10T13:53:20Z</time>
      </trkpt>
      <trkpt lat="45.08786" lon="6.14805">
        <ele>1998.1</ele>
        <time>2021-03-10T13:53:21Z</time>
      </trkpt>
      <trkpt lat="45.08785" lon="6.14805">
        <ele>1997.7</ele>
        <time>2021-03-10T13:53:22Z</time>
      </trkpt>
      <trkpt lat="45.08784" lon="6.14804">
        <ele>1997.7</ele>
        <time>2021-03-10T13:53:23Z</time>
      </trkpt>
      <trkpt lat="45.08783" lon="6.14803">
        <ele>1997.7</ele>
        <time>2021-03-10T13:53:24Z</time>
      </trkpt>
      <trkpt lat="45.08783" lon="6.14803">
        <ele>1997.7</ele>
        <time>2021-03-10T13:53:25Z</time>
      </trkpt>
      <trkpt lat="45.08783" lon="6.14803">
        <ele>1997.7</ele>
        <time>2021-03-10T13:53:26Z</time>
      </trkpt>
      <trkpt lat="45.08783" lon="6.14803">
        <ele>1997.8</ele>
        <time>2021-03-10T13:53:27Z</time>
      </trkpt>
      <trkpt lat="45.08783" lon="6.14803">
        <ele>1997.8</ele>
        <time>2021-03-10T13:53:28Z</time>
      </trkpt>
      <trkpt lat="45.08783" lon="6.14803">
        <ele>1997.8</ele>
        <time>2021-03-10T13:53:29Z</time>
      </trkpt>
      <trkpt lat="45.08783" lon="6.14803">
        <ele>1997.8</ele>
        <time>2021-03-10T13:53:30Z</time>
      </trkpt>
      <trkpt lat="45.08783" lon="6.14803">
        <ele>1997.8</ele>
        <time>2021-03-10T13:53:31Z</time>
      </trkpt>
      <trkpt lat="45.08783" lon="6.14803">
        <ele>1997.8</ele>
        <time>2021-03-10T13:53:32Z</time>
      </trkpt>
      <trkpt lat="45.08783" lon="6.14803">
        <ele>1997.8</ele>
        <time>2021-03-10T13:53:33Z</time>
      </trkpt>
      <trkpt lat="45.08783" lon="6.14803">
        <ele>1997.9</ele>
        <time>2021-03-10T13:53:34Z</time>
      </trkpt>
      <trkpt lat="45.08783" lon="6.14803">
        <ele>1997.9</ele>
        <time>2021-03-10T13:53:35Z</time>
      </trkpt>
      <trkpt lat="45.0878" lon="6.14799">
        <ele>1997.6</ele>
        <time>2021-03-10T13:53:53Z</time>
      </trkpt>
      <trkpt lat="45.08779" lon="6.14798">
        <ele>1997.2</ele>
        <time>2021-03-10T13:53:54Z</time>
      </trkpt>
      <trkpt lat="45.08778" lon="6.14797">
        <ele>1997.2</ele>
        <time>2021-03-10T13:53:55Z</time>
      </trkpt>
      <trkpt lat="45.08777" lon="6.14796">
        <ele>1997.2</ele>
        <time>2021-03-10T13:53:56Z</time>
      </trkpt>
      <trkpt lat="45.08776" lon="6.14795">
        <ele>1996.9</ele>
        <time>2021-03-10T13:53:57Z</time>
      </trkpt>
      <trkpt lat="45.08775" lon="6.14794">
        <ele>1996.9</ele>
        <time>2021-03-10T13:53:58Z</time>
      </trkpt>
      <trkpt lat="45.08774" lon="6.14794">
        <ele>1997</ele>
        <time>2021-03-10T13:53:59Z</time>
      </trkpt>
      <trkpt lat="45.08773" lon="6.14793">
        <ele>1996.7</ele>
        <time>2021-03-10T13:54:00Z</time>
      </trkpt>
      <trkpt lat="45.08772" lon="6.14793">
        <ele>1996.7</ele>
        <time>2021-03-10T13:54:01Z</time>
      </trkpt>
      <trkpt lat="45.08771" lon="6.14792">
        <ele>1996.7</ele>
        <time>2021-03-10T13:54:02Z</time>
      </trkpt>
      <trkpt lat="45.0877" lon="6.14791">
        <ele>1996.7</ele>
        <time>2021-03-10T13:54:03Z</time>
      </trkpt>
      <trkpt lat="45.08769" lon="6.14791">
        <ele>1996.5</ele>
        <time>2021-03-10T13:54:04Z</time>
      </trkpt>
      <trkpt lat="45.08769" lon="6.1479">
        <ele>1996.5</ele>
        <time>2021-03-10T13:54:05Z</time>
      </trkpt>
      <trkpt lat="45.08768" lon="6.1479">
        <ele>1996.5</ele>
        <time>2021-03-10T13:54:06Z</time>
      </trkpt>
      <trkpt lat="45.08767" lon="6.14789">
        <ele>1996.3</ele>
        <time>2021-03-10T13:54:07Z</time>
      </trkpt>
      <trkpt lat="45.08765" lon="6.14788">
        <ele>1996.2</ele>
        <time>2021-03-10T13:54:08Z</time>
      </trkpt>
      <trkpt lat="45.08764" lon="6.14788">
        <ele>1996</ele>
        <time>2021-03-10T13:54:09Z</time>
      </trkpt>
      <trkpt lat="45.08763" lon="6.14788">
        <ele>1996</ele>
        <time>2021-03-10T13:54:10Z</time>
      </trkpt>
      <trkpt lat="45.08762" lon="6.14787">
        <ele>1996</ele>
        <time>2021-03-10T13:54:11Z</time>
      </trkpt>
      <trkpt lat="45.0876" lon="6.14788">
        <ele>1995.9</ele>
        <time>2021-03-10T13:54:12Z</time>
      </trkpt>
      <trkpt lat="45.08758" lon="6.14788">
        <ele>1995.7</ele>
        <time>2021-03-10T13:54:13Z</time>
      </trkpt>
      <trkpt lat="45.08757" lon="6.14788">
        <ele>1995.7</ele>
        <time>2021-03-10T13:54:14Z</time>
      </trkpt>
      <trkpt lat="45.08755" lon="6.14787">
        <ele>1995.5</ele>
        <time>2021-03-10T13:54:15Z</time>
      </trkpt>
      <trkpt lat="45.08754" lon="6.14787">
        <ele>1995.5</ele>
        <time>2021-03-10T13:54:16Z</time>
      </trkpt>
      <trkpt lat="45.08753" lon="6.14786">
        <ele>1995.5</ele>
        <time>2021-03-10T13:54:17Z</time>
      </trkpt>
      <trkpt lat="45.08753" lon="6.14786">
        <ele>1995.6</ele>
        <time>2021-03-10T13:54:18Z</time>
      </trkpt>
      <trkpt lat="45.08752" lon="6.14785">
        <ele>1995.4</ele>
        <time>2021-03-10T13:54:19Z</time>
      </trkpt>
      <trkpt lat="45.08751" lon="6.14785">
        <ele>1995.4</ele>
        <time>2021-03-10T13:54:20Z</time>
      </trkpt>
      <trkpt lat="45.0875" lon="6.14784">
        <ele>1995.4</ele>
        <time>2021-03-10T13:54:21Z</time>
      </trkpt>
      <trkpt lat="45.08749" lon="6.14783">
        <ele>1995.2</ele>
        <time>2021-03-10T13:54:22Z</time>
      </trkpt>
      <trkpt lat="45.08749" lon="6.14783">
        <ele>1995.1</ele>
        <time>2021-03-10T13:54:23Z</time>
      </trkpt>
      <trkpt lat="45.08748" lon="6.14782">
        <ele>1995.1</ele>
        <time>2021-03-10T13:54:24Z</time>
      </trkpt>
      <trkpt lat="45.08747" lon="6.14782">
        <ele>1995.1</ele>
        <time>2021-03-10T13:54:25Z</time>
      </trkpt>
      <trkpt lat="45.08746" lon="6.14781">
        <ele>1995.2</ele>
        <time>2021-03-10T14:05:40Z</time>
      </trkpt>
      <trkpt lat="45.08745" lon="6.1478">
        <ele>1995</ele>
        <time>2021-03-10T14:05:41Z</time>
      </trkpt>
      <trkpt lat="45.08745" lon="6.1478">
        <ele>1995</ele>
        <time>2021-03-10T14:05:42Z</time>
      </trkpt>
      <trkpt lat="45.08742" lon="6.14777">
        <ele>1994.6</ele>
        <time>2021-03-10T14:05:43Z</time>
      </trkpt>
      <trkpt lat="45.08739" lon="6.14774">
        <ele>1994.2</ele>
        <time>2021-03-10T14:05:44Z</time>
      </trkpt>
      <trkpt lat="45.08735" lon="6.14769">
        <ele>1993.8</ele>
        <time>2021-03-10T14:05:45Z</time>
      </trkpt>
      <trkpt lat="45.08731" lon="6.14765">
        <ele>1993.4</ele>
        <time>2021-03-10T14:05:46Z</time>
      </trkpt>
      <trkpt lat="45.08727" lon="6.1476">
        <ele>1992.8</ele>
        <time>2021-03-10T14:05:47Z</time>
      </trkpt>
      <trkpt lat="45.08724" lon="6.14756">
        <ele>1992.2</ele>
        <time>2021-03-10T14:05:48Z</time>
      </trkpt>
      <trkpt lat="45.0872" lon="6.14751">
        <ele>1991.6</ele>
        <time>2021-03-10T14:05:49Z</time>
      </trkpt>
      <trkpt lat="45.08716" lon="6.14747">
        <ele>1990.7</ele>
        <time>2021-03-10T14:05:50Z</time>
      </trkpt>
      <trkpt lat="45.08711" lon="6.14743">
        <ele>1990.1</ele>
        <time>2021-03-10T14:05:51Z</time>
      </trkpt>
      <trkpt lat="45.08707" lon="6.14738">
        <ele>1989.6</ele>
        <time>2021-03-10T14:05:52Z</time>
      </trkpt>
      <trkpt lat="45.08702" lon="6.14733">
        <ele>1988.9</ele>
        <time>2021-03-10T14:05:53Z</time>
      </trkpt>
      <trkpt lat="45.08698" lon="6.14727">
        <ele>1988</ele>
        <time>2021-03-10T14:05:54Z</time>
      </trkpt>
      <trkpt lat="45.08693" lon="6.14722">
        <ele>1987.3</ele>
        <time>2021-03-10T14:05:55Z</time>
      </trkpt>
      <trkpt lat="45.08687" lon="6.14718">
        <ele>1986.7</ele>
        <time>2021-03-10T14:05:56Z</time>
      </trkpt>
      <trkpt lat="45.08682" lon="6.14714">
        <ele>1986</ele>
        <time>2021-03-10T14:05:57Z</time>
      </trkpt>
      <trkpt lat="45.08678" lon="6.14709">
        <ele>1985.5</ele>
        <time>2021-03-10T14:05:58Z</time>
      </trkpt>
      <trkpt lat="45.08673" lon="6.14704">
        <ele>1984.8</ele>
        <time>2021-03-10T14:05:59Z</time>
      </trkpt>
      <trkpt lat="45.08669" lon="6.14699">
        <ele>1984.4</ele>
        <time>2021-03-10T14:06:00Z</time>
      </trkpt>
      <trkpt lat="45.08665" lon="6.14695">
        <ele>1984</ele>
        <time>2021-03-10T14:06:01Z</time>
      </trkpt>
      <trkpt lat="45.08661" lon="6.14692">
        <ele>1983.3</ele>
        <time>2021-03-10T14:06:02Z</time>
      </trkpt>
      <trkpt lat="45.08656" lon="6.1469">
        <ele>1983.1</ele>
        <time>2021-03-10T14:06:03Z</time>
      </trkpt>
      <trkpt lat="45.08651" lon="6.14688">
        <ele>1982.5</ele>
        <time>2021-03-10T14:06:04Z</time>
      </trkpt>
      <trkpt lat="45.08645" lon="6.14686">
        <ele>1982.2</ele>
        <time>2021-03-10T14:06:05Z</time>
      </trkpt>
      <trkpt lat="45.08641" lon="6.14682">
        <ele>1981.7</ele>
        <time>2021-03-10T14:06:06Z</time>
      </trkpt>
      <trkpt lat="45.08636" lon="6.14678">
        <ele>1981.1</ele>
        <time>2021-03-10T14:06:07Z</time>
      </trkpt>
      <trkpt lat="45.08632" lon="6.14672">
        <ele>1980.6</ele>
        <time>2021-03-10T14:06:08Z</time>
      </trkpt>
      <trkpt lat="45.08627" lon="6.14669">
        <ele>1979.9</ele>
        <time>2021-03-10T14:06:09Z</time>
      </trkpt>
      <trkpt lat="45.08622" lon="6.14664">
        <ele>1979.4</ele>
        <time>2021-03-10T14:06:10Z</time>
      </trkpt>
      <trkpt lat="45.08616" lon="6.14661">
        <ele>1978.6</ele>
        <time>2021-03-10T14:06:11Z</time>
      </trkpt>
      <trkpt lat="45.0861" lon="6.14658">
        <ele>1977.7</ele>
        <time>2021-03-10T14:06:12Z</time>
      </trkpt>
      <trkpt lat="45.08604" lon="6.14655">
        <ele>1976.7</ele>
        <time>2021-03-10T14:06:13Z</time>
      </trkpt>
      <trkpt lat="45.08599" lon="6.14651">
        <ele>1975.9</ele>
        <time>2021-03-10T14:06:14Z</time>
      </trkpt>
      <trkpt lat="45.08594" lon="6.14648">
        <ele>1975.4</ele>
        <time>2021-03-10T14:06:15Z</time>
      </trkpt>
      <trkpt lat="45.0859" lon="6.14646">
        <ele>1974.9</ele>
        <time>2021-03-10T14:06:16Z</time>
      </trkpt>
      <trkpt lat="45.08587" lon="6.14642">
        <ele>1974.6</ele>
        <time>2021-03-10T14:06:17Z</time>
      </trkpt>
      <trkpt lat="45.08583" lon="6.14638">
        <ele>1973.8</ele>
        <time>2021-03-10T14:06:18Z</time>
      </trkpt>
      <trkpt lat="45.08581" lon="6.14635">
        <ele>1973.5</ele>
        <time>2021-03-10T14:06:19Z</time>
      </trkpt>
      <trkpt lat="45.08578" lon="6.14632">
        <ele>1973.1</ele>
        <time>2021-03-10T14:06:20Z</time>
      </trkpt>
      <trkpt lat="45.08576" lon="6.1463">
        <ele>1972.8</ele>
        <time>2021-03-10T14:06:21Z</time>
      </trkpt>
      <trkpt lat="45.08572" lon="6.14628">
        <ele>1972.2</ele>
        <time>2021-03-10T14:06:22Z</time>
      </trkpt>
      <trkpt lat="45.08569" lon="6.14626">
        <ele>1972</ele>
        <time>2021-03-10T14:06:23Z</time>
      </trkpt>
      <trkpt lat="45.08565" lon="6.14623">
        <ele>1971.4</ele>
        <time>2021-03-10T14:06:24Z</time>
      </trkpt>
      <trkpt lat="45.08561" lon="6.14621">
        <ele>1970.8</ele>
        <time>2021-03-10T14:06:25Z</time>
      </trkpt>
      <trkpt lat="45.08559" lon="6.14617">
        <ele>1970.6</ele>
        <time>2021-03-10T14:06:26Z</time>
      </trkpt>
      <trkpt lat="45.08555" lon="6.14614">
        <ele>1969.8</ele>
        <time>2021-03-10T14:06:27Z</time>
      </trkpt>
      <trkpt lat="45.08551" lon="6.14611">
        <ele>1969.3</ele>
        <time>2021-03-10T14:06:28Z</time>
      </trkpt>
      <trkpt lat="45.08548" lon="6.14608">
        <ele>1968.8</ele>
        <time>2021-03-10T14:06:29Z</time>
      </trkpt>
      <trkpt lat="45.08544" lon="6.14603">
        <ele>1968.3</ele>
        <time>2021-03-10T14:06:30Z</time>
      </trkpt>
      <trkpt lat="45.0854" lon="6.146">
        <ele>1968.2</ele>
        <time>2021-03-10T14:06:31Z</time>
      </trkpt>
      <trkpt lat="45.08536" lon="6.14596">
        <ele>1967.7</ele>
        <time>2021-03-10T14:06:32Z</time>
      </trkpt>
      <trkpt lat="45.08533" lon="6.14592">
        <ele>1967.3</ele>
        <time>2021-03-10T14:06:33Z</time>
      </trkpt>
      <trkpt lat="45.08529" lon="6.14588">
        <ele>1966.9</ele>
        <time>2021-03-10T14:06:34Z</time>
      </trkpt>
      <trkpt lat="45.08526" lon="6.14584">
        <ele>1966.5</ele>
        <time>2021-03-10T14:06:35Z</time>
      </trkpt>
      <trkpt lat="45.08524" lon="6.14579">
        <ele>1966.1</ele>
        <time>2021-03-10T14:06:36Z</time>
      </trkpt>
      <trkpt lat="45.08522" lon="6.14574">
        <ele>1965.8</ele>
        <time>2021-03-10T14:06:37Z</time>
      </trkpt>
      <trkpt lat="45.0852" lon="6.1457">
        <ele>1965.4</ele>
        <time>2021-03-10T14:06:38Z</time>
      </trkpt>
      <trkpt lat="45.08518" lon="6.14565">
        <ele>1964.9</ele>
        <time>2021-03-10T14:06:39Z</time>
      </trkpt>
      <trkpt lat="45.08516" lon="6.14561">
        <ele>1964.7</ele>
        <time>2021-03-10T14:06:40Z</time>
      </trkpt>
      <trkpt lat="45.08515" lon="6.14557">
        <ele>1964.2</ele>
        <time>2021-03-10T14:06:41Z</time>
      </trkpt>
      <trkpt lat="45.08513" lon="6.14552">
        <ele>1963.8</ele>
        <time>2021-03-10T14:06:42Z</time>
      </trkpt>
      <trkpt lat="45.08511" lon="6.14548">
        <ele>1963.5</ele>
        <time>2021-03-10T14:06:43Z</time>
      </trkpt>
      <trkpt lat="45.08509" lon="6.14544">
        <ele>1963.1</ele>
        <time>2021-03-10T14:06:44Z</time>
      </trkpt>
      <trkpt lat="45.08507" lon="6.1454">
        <ele>1962.9</ele>
        <time>2021-03-10T14:06:45Z</time>
      </trkpt>
      <trkpt lat="45.08505" lon="6.14537">
        <ele>1962.4</ele>
        <time>2021-03-10T14:06:46Z</time>
      </trkpt>
      <trkpt lat="45.08504" lon="6.14533">
        <ele>1961.9</ele>
        <time>2021-03-10T14:06:47Z</time>
      </trkpt>
      <trkpt lat="45.08502" lon="6.14529">
        <ele>1961.7</ele>
        <time>2021-03-10T14:06:48Z</time>
      </trkpt>
      <trkpt lat="45.085" lon="6.14524">
        <ele>1961.3</ele>
        <time>2021-03-10T14:06:49Z</time>
      </trkpt>
      <trkpt lat="45.08498" lon="6.1452">
        <ele>1961.1</ele>
        <time>2021-03-10T14:06:50Z</time>
      </trkpt>
      <trkpt lat="45.08496" lon="6.14516">
        <ele>1960.8</ele>
        <time>2021-03-10T14:06:51Z</time>
      </trkpt>
      <trkpt lat="45.08494" lon="6.14511">
        <ele>1960.4</ele>
        <time>2021-03-10T14:06:52Z</time>
      </trkpt>
      <trkpt lat="45.08492" lon="6.14507">
        <ele>1960.3</ele>
        <time>2021-03-10T14:06:53Z</time>
      </trkpt>
      <trkpt lat="45.0849" lon="6.14502">
        <ele>1960</ele>
        <time>2021-03-10T14:06:54Z</time>
      </trkpt>
      <trkpt lat="45.08488" lon="6.14498">
        <ele>1959.6</ele>
        <time>2021-03-10T14:06:55Z</time>
      </trkpt>
      <trkpt lat="45.08486" lon="6.14494">
        <ele>1959.6</ele>
        <time>2021-03-10T14:06:56Z</time>
      </trkpt>
      <trkpt lat="45.08484" lon="6.14489">
        <ele>1959.2</ele>
        <time>2021-03-10T14:06:57Z</time>
      </trkpt>
      <trkpt lat="45.08481" lon="6.14485">
        <ele>1958.9</ele>
        <time>2021-03-10T14:06:58Z</time>
      </trkpt>
      <trkpt lat="45.08479" lon="6.14481">
        <ele>1958.6</ele>
        <time>2021-03-10T14:06:59Z</time>
      </trkpt>
      <trkpt lat="45.08477" lon="6.14475">
        <ele>1958.7</ele>
        <time>2021-03-10T14:07:00Z</time>
      </trkpt>
      <trkpt lat="45.08474" lon="6.14468">
        <ele>1958.4</ele>
        <time>2021-03-10T14:07:01Z</time>
      </trkpt>
      <trkpt lat="45.08472" lon="6.14463">
        <ele>1958</ele>
        <time>2021-03-10T14:07:02Z</time>
      </trkpt>
      <trkpt lat="45.08469" lon="6.14458">
        <ele>1957.6</ele>
        <time>2021-03-10T14:07:03Z</time>
      </trkpt>
      <trkpt lat="45.08465" lon="6.14456">
        <ele>1957.2</ele>
        <time>2021-03-10T14:07:04Z</time>
      </trkpt>
      <trkpt lat="45.08462" lon="6.14452">
        <ele>1956.8</ele>
        <time>2021-03-10T14:07:05Z</time>
      </trkpt>
      <trkpt lat="45.08459" lon="6.14447">
        <ele>1956.4</ele>
        <time>2021-03-10T14:07:06Z</time>
      </trkpt>
      <trkpt lat="45.08456" lon="6.14441">
        <ele>1955.9</ele>
        <time>2021-03-10T14:07:07Z</time>
      </trkpt>
      <trkpt lat="45.08452" lon="6.14437">
        <ele>1955.1</ele>
        <time>2021-03-10T14:07:08Z</time>
      </trkpt>
      <trkpt lat="45.08449" lon="6.14431">
        <ele>1954.5</ele>
        <time>2021-03-10T14:07:09Z</time>
      </trkpt>
      <trkpt lat="45.08445" lon="6.14425">
        <ele>1954</ele>
        <time>2021-03-10T14:07:10Z</time>
      </trkpt>
      <trkpt lat="45.08441" lon="6.14419">
        <ele>1953.4</ele>
        <time>2021-03-10T14:07:11Z</time>
      </trkpt>
      <trkpt lat="45.08438" lon="6.14412">
        <ele>1952.6</ele>
        <time>2021-03-10T14:07:12Z</time>
      </trkpt>
      <trkpt lat="45.08434" lon="6.14407">
        <ele>1952</ele>
        <time>2021-03-10T14:07:13Z</time>
      </trkpt>
      <trkpt lat="45.08432" lon="6.14403">
        <ele>1951.4</ele>
        <time>2021-03-10T14:07:14Z</time>
      </trkpt>
      <trkpt lat="45.08428" lon="6.14398">
        <ele>1950.4</ele>
        <time>2021-03-10T14:07:15Z</time>
      </trkpt>
      <trkpt lat="45.08423" lon="6.14396">
        <ele>1949.7</ele>
        <time>2021-03-10T14:07:16Z</time>
      </trkpt>
      <trkpt lat="45.08418" lon="6.14391">
        <ele>1948.5</ele>
        <time>2021-03-10T14:07:17Z</time>
      </trkpt>
      <trkpt lat="45.08414" lon="6.14387">
        <ele>1947.7</ele>
        <time>2021-03-10T14:07:18Z</time>
      </trkpt>
      <trkpt lat="45.08409" lon="6.14384">
        <ele>1946.7</ele>
        <time>2021-03-10T14:07:19Z</time>
      </trkpt>
      <trkpt lat="45.08405" lon="6.1438">
        <ele>1946.1</ele>
        <time>2021-03-10T14:07:20Z</time>
      </trkpt>
      <trkpt lat="45.084" lon="6.14378">
        <ele>1945.5</ele>
        <time>2021-03-10T14:07:21Z</time>
      </trkpt>
      <trkpt lat="45.08397" lon="6.14374">
        <ele>1945</ele>
        <time>2021-03-10T14:07:22Z</time>
      </trkpt>
      <trkpt lat="45.08395" lon="6.14373">
        <ele>1945</ele>
        <time>2021-03-10T14:07:23Z</time>
      </trkpt>
      <trkpt lat="45.08395" lon="6.14372">
        <ele>1945</ele>
        <time>2021-03-10T14:07:24Z</time>
      </trkpt>
      <trkpt lat="45.08395" lon="6.14371">
        <ele>1944.7</ele>
        <time>2021-03-10T14:07:25Z</time>
      </trkpt>
      <trkpt lat="45.08395" lon="6.1437">
        <ele>1944.7</ele>
        <time>2021-03-10T14:07:26Z</time>
      </trkpt>
      <trkpt lat="45.08395" lon="6.14369">
        <ele>1944.8</ele>
        <time>2021-03-10T14:07:27Z</time>
      </trkpt>
      <trkpt lat="45.08395" lon="6.14369">
        <ele>1944.8</ele>
        <time>2021-03-10T14:07:28Z</time>
      </trkpt>
      <trkpt lat="45.08395" lon="6.14368">
        <ele>1944.8</ele>
        <time>2021-03-10T14:07:29Z</time>
      </trkpt>
      <trkpt lat="45.08394" lon="6.14367">
        <ele>1944.3</ele>
        <time>2021-03-10T14:07:30Z</time>
      </trkpt>
      <trkpt lat="45.08394" lon="6.14366">
        <ele>1944.3</ele>
        <time>2021-03-10T14:07:31Z</time>
      </trkpt>
      <trkpt lat="45.08394" lon="6.14365">
        <ele>1944.3</ele>
        <time>2021-03-10T14:07:32Z</time>
      </trkpt>
      <trkpt lat="45.08394" lon="6.14364">
        <ele>1944.3</ele>
        <time>2021-03-10T14:07:33Z</time>
      </trkpt>
      <trkpt lat="45.08394" lon="6.14364">
        <ele>1944.3</ele>
        <time>2021-03-10T14:07:34Z</time>
      </trkpt>
      <trkpt lat="45.08394" lon="6.14363">
        <ele>1944.1</ele>
        <time>2021-03-10T14:07:46Z</time>
      </trkpt>
      <trkpt lat="45.08394" lon="6.14362">
        <ele>1944.1</ele>
        <time>2021-03-10T14:07:47Z</time>
      </trkpt>
      <trkpt lat="45.08392" lon="6.14358">
        <ele>1943.9</ele>
        <time>2021-03-10T14:07:48Z</time>
      </trkpt>
      <trkpt lat="45.0839" lon="6.14353">
        <ele>1943.4</ele>
        <time>2021-03-10T14:07:49Z</time>
      </trkpt>
      <trkpt lat="45.08388" lon="6.14348">
        <ele>1943</ele>
        <time>2021-03-10T14:07:50Z</time>
      </trkpt>
      <trkpt lat="45.08386" lon="6.14342">
        <ele>1942.7</ele>
        <time>2021-03-10T14:07:51Z</time>
      </trkpt>
      <trkpt lat="45.08383" lon="6.14337">
        <ele>1941.9</ele>
        <time>2021-03-10T14:07:52Z</time>
      </trkpt>
      <trkpt lat="45.08378" lon="6.14334">
        <ele>1941.3</ele>
        <time>2021-03-10T14:07:53Z</time>
      </trkpt>
      <trkpt lat="45.08374" lon="6.1433">
        <ele>1940.7</ele>
        <time>2021-03-10T14:07:54Z</time>
      </trkpt>
      <trkpt lat="45.08371" lon="6.14323">
        <ele>1939.8</ele>
        <time>2021-03-10T14:07:55Z</time>
      </trkpt>
      <trkpt lat="45.08368" lon="6.14322">
        <ele>1939.5</ele>
        <time>2021-03-10T14:07:56Z</time>
      </trkpt>
      <trkpt lat="45.08364" lon="6.1432">
        <ele>1938.5</ele>
        <time>2021-03-10T14:07:57Z</time>
      </trkpt>
      <trkpt lat="45.08358" lon="6.14316">
        <ele>1937.4</ele>
        <time>2021-03-10T14:07:58Z</time>
      </trkpt>
      <trkpt lat="45.08353" lon="6.14311">
        <ele>1936.7</ele>
        <time>2021-03-10T14:07:59Z</time>
      </trkpt>
      <trkpt lat="45.08347" lon="6.14308">
        <ele>1936</ele>
        <time>2021-03-10T14:08:00Z</time>
      </trkpt>
      <trkpt lat="45.08342" lon="6.14303">
        <ele>1934.5</ele>
        <time>2021-03-10T14:08:01Z</time>
      </trkpt>
      <trkpt lat="45.08338" lon="6.14297">
        <ele>1933.8</ele>
        <time>2021-03-10T14:08:02Z</time>
      </trkpt>
      <trkpt lat="45.08333" lon="6.14292">
        <ele>1932.6</ele>
        <time>2021-03-10T14:08:03Z</time>
      </trkpt>
      <trkpt lat="45.08327" lon="6.14289">
        <ele>1931.4</ele>
        <time>2021-03-10T14:08:04Z</time>
      </trkpt>
      <trkpt lat="45.08321" lon="6.14288">
        <ele>1930.6</ele>
        <time>2021-03-10T14:08:05Z</time>
      </trkpt>
      <trkpt lat="45.08321" lon="6.14282">
        <ele>1930.4</ele>
        <time>2021-03-10T14:08:06Z</time>
      </trkpt>
      <trkpt lat="45.08321" lon="6.14276">
        <ele>1929.9</ele>
        <time>2021-03-10T14:08:07Z</time>
      </trkpt>
      <trkpt lat="45.0832" lon="6.14269">
        <ele>1929.7</ele>
        <time>2021-03-10T14:08:08Z</time>
      </trkpt>
      <trkpt lat="45.08319" lon="6.14259">
        <ele>1928.8</ele>
        <time>2021-03-10T14:08:09Z</time>
      </trkpt>
      <trkpt lat="45.08317" lon="6.14249">
        <ele>1927.5</ele>
        <time>2021-03-10T14:08:10Z</time>
      </trkpt>
      <trkpt lat="45.08315" lon="6.14241">
        <ele>1926.2</ele>
        <time>2021-03-10T14:08:11Z</time>
      </trkpt>
      <trkpt lat="45.08313" lon="6.14232">
        <ele>1924.8</ele>
        <time>2021-03-10T14:08:12Z</time>
      </trkpt>
      <trkpt lat="45.08311" lon="6.14223">
        <ele>1924</ele>
        <time>2021-03-10T14:08:13Z</time>
      </trkpt>
      <trkpt lat="45.08309" lon="6.14215">
        <ele>1922.5</ele>
        <time>2021-03-10T14:08:14Z</time>
      </trkpt>
      <trkpt lat="45.08308" lon="6.14205">
        <ele>1921.7</ele>
        <time>2021-03-10T14:08:15Z</time>
      </trkpt>
      <trkpt lat="45.08308" lon="6.142">
        <ele>1920.7</ele>
        <time>2021-03-10T14:08:16Z</time>
      </trkpt>
      <trkpt lat="45.08307" lon="6.14189">
        <ele>1919.4</ele>
        <time>2021-03-10T14:08:17Z</time>
      </trkpt>
      <trkpt lat="45.08307" lon="6.1418">
        <ele>1919.1</ele>
        <time>2021-03-10T14:08:18Z</time>
      </trkpt>
      <trkpt lat="45.08306" lon="6.14172">
        <ele>1917.9</ele>
        <time>2021-03-10T14:08:19Z</time>
      </trkpt>
      <trkpt lat="45.08305" lon="6.14165">
        <ele>1917.5</ele>
        <time>2021-03-10T14:08:20Z</time>
      </trkpt>
      <trkpt lat="45.08304" lon="6.14158">
        <ele>1917.3</ele>
        <time>2021-03-10T14:08:21Z</time>
      </trkpt>
      <trkpt lat="45.08303" lon="6.14151">
        <ele>1916.5</ele>
        <time>2021-03-10T14:08:22Z</time>
      </trkpt>
      <trkpt lat="45.08302" lon="6.14144">
        <ele>1916.5</ele>
        <time>2021-03-10T14:08:23Z</time>
      </trkpt>
      <trkpt lat="45.08301" lon="6.1414">
        <ele>1916.4</ele>
        <time>2021-03-10T14:08:24Z</time>
      </trkpt>
      <trkpt lat="45.08299" lon="6.14136">
        <ele>1915.8</ele>
        <time>2021-03-10T14:08:25Z</time>
      </trkpt>
      <trkpt lat="45.08297" lon="6.14131">
        <ele>1915.1</ele>
        <time>2021-03-10T14:08:26Z</time>
      </trkpt>
      <trkpt lat="45.08295" lon="6.14123">
        <ele>1915</ele>
        <time>2021-03-10T14:08:27Z</time>
      </trkpt>
      <trkpt lat="45.08293" lon="6.14118">
        <ele>1914.3</ele>
        <time>2021-03-10T14:08:28Z</time>
      </trkpt>
      <trkpt lat="45.0829" lon="6.14113">
        <ele>1913.7</ele>
        <time>2021-03-10T14:08:29Z</time>
      </trkpt>
      <trkpt lat="45.08287" lon="6.14105">
        <ele>1912.9</ele>
        <time>2021-03-10T14:08:30Z</time>
      </trkpt>
      <trkpt lat="45.08285" lon="6.14102">
        <ele>1912.3</ele>
        <time>2021-03-10T14:08:31Z</time>
      </trkpt>
      <trkpt lat="45.08283" lon="6.14095">
        <ele>1912.2</ele>
        <time>2021-03-10T14:08:32Z</time>
      </trkpt>
      <trkpt lat="45.08279" lon="6.14091">
        <ele>1911</ele>
        <time>2021-03-10T14:08:33Z</time>
      </trkpt>
      <trkpt lat="45.08276" lon="6.14084">
        <ele>1910.9</ele>
        <time>2021-03-10T14:08:34Z</time>
      </trkpt>
      <trkpt lat="45.08274" lon="6.14078">
        <ele>1910.4</ele>
        <time>2021-03-10T14:08:35Z</time>
      </trkpt>
      <trkpt lat="45.08272" lon="6.14071">
        <ele>1909.9</ele>
        <time>2021-03-10T14:08:36Z</time>
      </trkpt>
      <trkpt lat="45.08269" lon="6.14064">
        <ele>1909.5</ele>
        <time>2021-03-10T14:08:37Z</time>
      </trkpt>
      <trkpt lat="45.08267" lon="6.14056">
        <ele>1909.2</ele>
        <time>2021-03-10T14:08:38Z</time>
      </trkpt>
      <trkpt lat="45.08265" lon="6.1405">
        <ele>1909.3</ele>
        <time>2021-03-10T14:08:39Z</time>
      </trkpt>
      <trkpt lat="45.08263" lon="6.14043">
        <ele>1909.2</ele>
        <time>2021-03-10T14:08:40Z</time>
      </trkpt>
      <trkpt lat="45.08261" lon="6.14036">
        <ele>1909.1</ele>
        <time>2021-03-10T14:08:41Z</time>
      </trkpt>
      <trkpt lat="45.08259" lon="6.1403">
        <ele>1909.3</ele>
        <time>2021-03-10T14:08:42Z</time>
      </trkpt>
      <trkpt lat="45.08257" lon="6.14023">
        <ele>1909.2</ele>
        <time>2021-03-10T14:08:43Z</time>
      </trkpt>
      <trkpt lat="45.08255" lon="6.1402">
        <ele>1908.8</ele>
        <time>2021-03-10T14:08:44Z</time>
      </trkpt>
      <trkpt lat="45.08253" lon="6.14013">
        <ele>1908.9</ele>
        <time>2021-03-10T14:08:45Z</time>
      </trkpt>
      <trkpt lat="45.08251" lon="6.14006">
        <ele>1908.5</ele>
        <time>2021-03-10T14:08:46Z</time>
      </trkpt>
      <trkpt lat="45.08249" lon="6.14">
        <ele>1908</ele>
        <time>2021-03-10T14:08:47Z</time>
      </trkpt>
      <trkpt lat="45.08246" lon="6.13994">
        <ele>1908.2</ele>
        <time>2021-03-10T14:08:48Z</time>
      </trkpt>
      <trkpt lat="45.08244" lon="6.13991">
        <ele>1907.6</ele>
        <time>2021-03-10T14:08:49Z</time>
      </trkpt>
      <trkpt lat="45.08242" lon="6.13986">
        <ele>1907.2</ele>
        <time>2021-03-10T14:08:50Z</time>
      </trkpt>
      <trkpt lat="45.0824" lon="6.13981">
        <ele>1907.3</ele>
        <time>2021-03-10T14:08:51Z</time>
      </trkpt>
      <trkpt lat="45.08238" lon="6.13975">
        <ele>1906.8</ele>
        <time>2021-03-10T14:08:52Z</time>
      </trkpt>
      <trkpt lat="45.08237" lon="6.13971">
        <ele>1906.9</ele>
        <time>2021-03-10T14:08:53Z</time>
      </trkpt>
      <trkpt lat="45.08235" lon="6.13966">
        <ele>1906.4</ele>
        <time>2021-03-10T14:08:54Z</time>
      </trkpt>
      <trkpt lat="45.08233" lon="6.13961">
        <ele>1905.8</ele>
        <time>2021-03-10T14:08:55Z</time>
      </trkpt>
      <trkpt lat="45.08231" lon="6.13955">
        <ele>1905.9</ele>
        <time>2021-03-10T14:08:56Z</time>
      </trkpt>
      <trkpt lat="45.0823" lon="6.13952">
        <ele>1905.3</ele>
        <time>2021-03-10T14:08:57Z</time>
      </trkpt>
      <trkpt lat="45.08227" lon="6.13946">
        <ele>1904.8</ele>
        <time>2021-03-10T14:08:58Z</time>
      </trkpt>
      <trkpt lat="45.08224" lon="6.13939">
        <ele>1904.2</ele>
        <time>2021-03-10T14:08:59Z</time>
      </trkpt>
      <trkpt lat="45.08222" lon="6.13935">
        <ele>1904.2</ele>
        <time>2021-03-10T14:09:00Z</time>
      </trkpt>
      <trkpt lat="45.08219" lon="6.13931">
        <ele>1902.9</ele>
        <time>2021-03-10T14:09:01Z</time>
      </trkpt>
      <trkpt lat="45.08216" lon="6.13928">
        <ele>1902.2</ele>
        <time>2021-03-10T14:09:02Z</time>
      </trkpt>
      <trkpt lat="45.08213" lon="6.13921">
        <ele>1901.6</ele>
        <time>2021-03-10T14:09:03Z</time>
      </trkpt>
      <trkpt lat="45.08209" lon="6.13915">
        <ele>1900.8</ele>
        <time>2021-03-10T14:09:04Z</time>
      </trkpt>
      <trkpt lat="45.08206" lon="6.13909">
        <ele>1900.2</ele>
        <time>2021-03-10T14:09:05Z</time>
      </trkpt>
      <trkpt lat="45.08203" lon="6.13901">
        <ele>1899.5</ele>
        <time>2021-03-10T14:09:06Z</time>
      </trkpt>
      <trkpt lat="45.08199" lon="6.13893">
        <ele>1899</ele>
        <time>2021-03-10T14:09:07Z</time>
      </trkpt>
      <trkpt lat="45.08195" lon="6.13886">
        <ele>1898.5</ele>
        <time>2021-03-10T14:09:08Z</time>
      </trkpt>
      <trkpt lat="45.08191" lon="6.13877">
        <ele>1897.3</ele>
        <time>2021-03-10T14:09:09Z</time>
      </trkpt>
      <trkpt lat="45.08187" lon="6.13867">
        <ele>1896.6</ele>
        <time>2021-03-10T14:09:10Z</time>
      </trkpt>
      <trkpt lat="45.08183" lon="6.13857">
        <ele>1895.8</ele>
        <time>2021-03-10T14:09:11Z</time>
      </trkpt>
      <trkpt lat="45.0818" lon="6.13849">
        <ele>1895</ele>
        <time>2021-03-10T14:09:12Z</time>
      </trkpt>
      <trkpt lat="45.08177" lon="6.1384">
        <ele>1894.2</ele>
        <time>2021-03-10T14:09:13Z</time>
      </trkpt>
      <trkpt lat="45.08174" lon="6.13833">
        <ele>1893.6</ele>
        <time>2021-03-10T14:09:14Z</time>
      </trkpt>
      <trkpt lat="45.08172" lon="6.13825">
        <ele>1892.9</ele>
        <time>2021-03-10T14:09:15Z</time>
      </trkpt>
      <trkpt lat="45.08169" lon="6.13816">
        <ele>1892.2</ele>
        <time>2021-03-10T14:09:16Z</time>
      </trkpt>
      <trkpt lat="45.08166" lon="6.13808">
        <ele>1891.4</ele>
        <time>2021-03-10T14:09:17Z</time>
      </trkpt>
      <trkpt lat="45.08164" lon="6.138">
        <ele>1891.3</ele>
        <time>2021-03-10T14:09:18Z</time>
      </trkpt>
      <trkpt lat="45.08163" lon="6.13796">
        <ele>1890.7</ele>
        <time>2021-03-10T14:09:19Z</time>
      </trkpt>
      <trkpt lat="45.08162" lon="6.13792">
        <ele>1890.6</ele>
        <time>2021-03-10T14:09:20Z</time>
      </trkpt>
      <trkpt lat="45.0816" lon="6.13787">
        <ele>1890</ele>
        <time>2021-03-10T14:09:21Z</time>
      </trkpt>
      <trkpt lat="45.08158" lon="6.13781">
        <ele>1889.5</ele>
        <time>2021-03-10T14:09:22Z</time>
      </trkpt>
      <trkpt lat="45.08157" lon="6.1378">
        <ele>1889.5</ele>
        <time>2021-03-10T14:09:23Z</time>
      </trkpt>
      <trkpt lat="45.08155" lon="6.13779">
        <ele>1889</ele>
        <time>2021-03-10T14:09:24Z</time>
      </trkpt>
      <trkpt lat="45.08153" lon="6.13774">
        <ele>1888.9</ele>
        <time>2021-03-10T14:09:25Z</time>
      </trkpt>
      <trkpt lat="45.08151" lon="6.1377">
        <ele>1888.4</ele>
        <time>2021-03-10T14:09:26Z</time>
      </trkpt>
      <trkpt lat="45.08148" lon="6.13767">
        <ele>1887.9</ele>
        <time>2021-03-10T14:09:27Z</time>
      </trkpt>
      <trkpt lat="45.08146" lon="6.13761">
        <ele>1887.8</ele>
        <time>2021-03-10T14:09:28Z</time>
      </trkpt>
      <trkpt lat="45.08143" lon="6.13755">
        <ele>1887.4</ele>
        <time>2021-03-10T14:09:29Z</time>
      </trkpt>
      <trkpt lat="45.08142" lon="6.13747">
        <ele>1886.9</ele>
        <time>2021-03-10T14:09:30Z</time>
      </trkpt>
      <trkpt lat="45.08138" lon="6.1374">
        <ele>1886.6</ele>
        <time>2021-03-10T14:09:31Z</time>
      </trkpt>
      <trkpt lat="45.08135" lon="6.13732">
        <ele>1886.1</ele>
        <time>2021-03-10T14:09:32Z</time>
      </trkpt>
      <trkpt lat="45.08131" lon="6.13726">
        <ele>1885.8</ele>
        <time>2021-03-10T14:09:33Z</time>
      </trkpt>
      <trkpt lat="45.08128" lon="6.13718">
        <ele>1885.3</ele>
        <time>2021-03-10T14:09:34Z</time>
      </trkpt>
      <trkpt lat="45.08125" lon="6.13711">
        <ele>1884.6</ele>
        <time>2021-03-10T14:09:35Z</time>
      </trkpt>
      <trkpt lat="45.08121" lon="6.13704">
        <ele>1884.2</ele>
        <time>2021-03-10T14:09:36Z</time>
      </trkpt>
      <trkpt lat="45.08118" lon="6.13701">
        <ele>1884</ele>
        <time>2021-03-10T14:09:37Z</time>
      </trkpt>
      <trkpt lat="45.08115" lon="6.13694">
        <ele>1883.8</ele>
        <time>2021-03-10T14:09:38Z</time>
      </trkpt>
      <trkpt lat="45.08112" lon="6.13688">
        <ele>1883.4</ele>
        <time>2021-03-10T14:09:39Z</time>
      </trkpt>
      <trkpt lat="45.0811" lon="6.13681">
        <ele>1883.3</ele>
        <time>2021-03-10T14:09:40Z</time>
      </trkpt>
      <trkpt lat="45.08108" lon="6.13674">
        <ele>1882.8</ele>
        <time>2021-03-10T14:09:41Z</time>
      </trkpt>
      <trkpt lat="45.08107" lon="6.13668">
        <ele>1882.3</ele>
        <time>2021-03-10T14:09:42Z</time>
      </trkpt>
      <trkpt lat="45.08105" lon="6.13664">
        <ele>1882</ele>
        <time>2021-03-10T14:09:43Z</time>
      </trkpt>
      <trkpt lat="45.08103" lon="6.13657">
        <ele>1881.5</ele>
        <time>2021-03-10T14:09:44Z</time>
      </trkpt>
      <trkpt lat="45.08101" lon="6.1365">
        <ele>1881</ele>
        <time>2021-03-10T14:09:45Z</time>
      </trkpt>
      <trkpt lat="45.08099" lon="6.13645">
        <ele>1880.6</ele>
        <time>2021-03-10T14:09:46Z</time>
      </trkpt>
      <trkpt lat="45.08097" lon="6.13641">
        <ele>1880.3</ele>
        <time>2021-03-10T14:09:47Z</time>
      </trkpt>
      <trkpt lat="45.08097" lon="6.13639">
        <ele>1880.1</ele>
        <time>2021-03-10T14:09:48Z</time>
      </trkpt>
      <trkpt lat="45.08096" lon="6.13633">
        <ele>1879.7</ele>
        <time>2021-03-10T14:09:49Z</time>
      </trkpt>
      <trkpt lat="45.08095" lon="6.13627">
        <ele>1879.3</ele>
        <time>2021-03-10T14:09:50Z</time>
      </trkpt>
      <trkpt lat="45.08094" lon="6.13621">
        <ele>1878.9</ele>
        <time>2021-03-10T14:09:51Z</time>
      </trkpt>
      <trkpt lat="45.08093" lon="6.13616">
        <ele>1878.4</ele>
        <time>2021-03-10T14:09:52Z</time>
      </trkpt>
      <trkpt lat="45.08091" lon="6.1361">
        <ele>1878</ele>
        <time>2021-03-10T14:09:53Z</time>
      </trkpt>
      <trkpt lat="45.0809" lon="6.13605">
        <ele>1877.7</ele>
        <time>2021-03-10T14:09:54Z</time>
      </trkpt>
      <trkpt lat="45.08088" lon="6.136">
        <ele>1877.3</ele>
        <time>2021-03-10T14:09:55Z</time>
      </trkpt>
      <trkpt lat="45.08086" lon="6.13596">
        <ele>1876.9</ele>
        <time>2021-03-10T14:09:56Z</time>
      </trkpt>
      <trkpt lat="45.08084" lon="6.13591">
        <ele>1876.6</ele>
        <time>2021-03-10T14:09:57Z</time>
      </trkpt>
      <trkpt lat="45.08083" lon="6.13587">
        <ele>1876.3</ele>
        <time>2021-03-10T14:09:58Z</time>
      </trkpt>
      <trkpt lat="45.08081" lon="6.13584">
        <ele>1876</ele>
        <time>2021-03-10T14:09:59Z</time>
      </trkpt>
      <trkpt lat="45.0808" lon="6.13579">
        <ele>1875.7</ele>
        <time>2021-03-10T14:10:00Z</time>
      </trkpt>
      <trkpt lat="45.08079" lon="6.13576">
        <ele>1875.4</ele>
        <time>2021-03-10T14:10:01Z</time>
      </trkpt>
      <trkpt lat="45.08078" lon="6.13572">
        <ele>1875.1</ele>
        <time>2021-03-10T14:10:02Z</time>
      </trkpt>
      <trkpt lat="45.08076" lon="6.13568">
        <ele>1874.8</ele>
        <time>2021-03-10T14:10:03Z</time>
      </trkpt>
      <trkpt lat="45.08075" lon="6.13564">
        <ele>1874.6</ele>
        <time>2021-03-10T14:10:04Z</time>
      </trkpt>
      <trkpt lat="45.08074" lon="6.1356">
        <ele>1874.3</ele>
        <time>2021-03-10T14:10:05Z</time>
      </trkpt>
      <trkpt lat="45.08073" lon="6.13557">
        <ele>1874</ele>
        <time>2021-03-10T14:10:06Z</time>
      </trkpt>
      <trkpt lat="45.08073" lon="6.13556">
        <ele>1874</ele>
        <time>2021-03-10T14:10:07Z</time>
      </trkpt>
      <trkpt lat="45.08073" lon="6.13556">
        <ele>1874</ele>
        <time>2021-03-10T14:10:08Z</time>
      </trkpt>
      <trkpt lat="45.08073" lon="6.13555">
        <ele>1873.9</ele>
        <time>2021-03-10T14:10:09Z</time>
      </trkpt>
      <trkpt lat="45.08073" lon="6.13555">
        <ele>1873.9</ele>
        <time>2021-03-10T14:10:10Z</time>
      </trkpt>
      <trkpt lat="45.08073" lon="6.13554">
        <ele>1873.9</ele>
        <time>2021-03-10T14:10:11Z</time>
      </trkpt>
      <trkpt lat="45.08073" lon="6.13554">
        <ele>1873.8</ele>
        <time>2021-03-10T14:10:12Z</time>
      </trkpt>
      <trkpt lat="45.08073" lon="6.13553">
        <ele>1873.8</ele>
        <time>2021-03-10T14:10:13Z</time>
      </trkpt>
      <trkpt lat="45.08073" lon="6.13553">
        <ele>1873.8</ele>
        <time>2021-03-10T14:10:14Z</time>
      </trkpt>
      <trkpt lat="45.08073" lon="6.13552">
        <ele>1873.7</ele>
        <time>2021-03-10T14:10:15Z</time>
      </trkpt>
      <trkpt lat="45.08073" lon="6.13551">
        <ele>1873.7</ele>
        <time>2021-03-10T14:10:16Z</time>
      </trkpt>
      <trkpt lat="45.08074" lon="6.13551">
        <ele>1873.7</ele>
        <time>2021-03-10T14:10:17Z</time>
      </trkpt>
      <trkpt lat="45.08074" lon="6.1355">
        <ele>1873.6</ele>
        <time>2021-03-10T14:10:18Z</time>
      </trkpt>
      <trkpt lat="45.08074" lon="6.1355">
        <ele>1873.6</ele>
        <time>2021-03-10T14:10:28Z</time>
      </trkpt>
      <trkpt lat="45.08074" lon="6.13549">
        <ele>1873.5</ele>
        <time>2021-03-10T14:10:29Z</time>
      </trkpt>
      <trkpt lat="45.08073" lon="6.13542">
        <ele>1873.1</ele>
        <time>2021-03-10T14:10:30Z</time>
      </trkpt>
      <trkpt lat="45.08071" lon="6.13535">
        <ele>1872.5</ele>
        <time>2021-03-10T14:10:31Z</time>
      </trkpt>
      <trkpt lat="45.08069" lon="6.13527">
        <ele>1871.9</ele>
        <time>2021-03-10T14:10:32Z</time>
      </trkpt>
      <trkpt lat="45.08065" lon="6.1352">
        <ele>1871.2</ele>
        <time>2021-03-10T14:10:33Z</time>
      </trkpt>
      <trkpt lat="45.08063" lon="6.13513">
        <ele>1870.6</ele>
        <time>2021-03-10T14:10:34Z</time>
      </trkpt>
      <trkpt lat="45.08061" lon="6.13506">
        <ele>1870</ele>
        <time>2021-03-10T14:10:35Z</time>
      </trkpt>
      <trkpt lat="45.0806" lon="6.13499">
        <ele>1869.5</ele>
        <time>2021-03-10T14:10:36Z</time>
      </trkpt>
      <trkpt lat="45.08058" lon="6.13493">
        <ele>1869.1</ele>
        <time>2021-03-10T14:10:37Z</time>
      </trkpt>
      <trkpt lat="45.08057" lon="6.13485">
        <ele>1868.4</ele>
        <time>2021-03-10T14:10:38Z</time>
      </trkpt>
      <trkpt lat="45.08054" lon="6.13477">
        <ele>1867.8</ele>
        <time>2021-03-10T14:10:39Z</time>
      </trkpt>
      <trkpt lat="45.08052" lon="6.13469">
        <ele>1867.1</ele>
        <time>2021-03-10T14:10:40Z</time>
      </trkpt>
      <trkpt lat="45.08049" lon="6.13459">
        <ele>1866.3</ele>
        <time>2021-03-10T14:10:41Z</time>
      </trkpt>
      <trkpt lat="45.08047" lon="6.13448">
        <ele>1865.5</ele>
        <time>2021-03-10T14:10:42Z</time>
      </trkpt>
      <trkpt lat="45.08045" lon="6.13439">
        <ele>1864.8</ele>
        <time>2021-03-10T14:10:43Z</time>
      </trkpt>
      <trkpt lat="45.08043" lon="6.1343">
        <ele>1864.1</ele>
        <time>2021-03-10T14:10:44Z</time>
      </trkpt>
      <trkpt lat="45.08041" lon="6.1342">
        <ele>1863.3</ele>
        <time>2021-03-10T14:10:45Z</time>
      </trkpt>
      <trkpt lat="45.08041" lon="6.13412">
        <ele>1862.7</ele>
        <time>2021-03-10T14:10:46Z</time>
      </trkpt>
      <trkpt lat="45.08041" lon="6.13406">
        <ele>1862.3</ele>
        <time>2021-03-10T14:10:47Z</time>
      </trkpt>
      <trkpt lat="45.08041" lon="6.13398">
        <ele>1861.7</ele>
        <time>2021-03-10T14:10:48Z</time>
      </trkpt>
      <trkpt lat="45.08043" lon="6.13394">
        <ele>1861</ele>
        <time>2021-03-10T14:10:49Z</time>
      </trkpt>
      <trkpt lat="45.08046" lon="6.13389">
        <ele>1859.4</ele>
        <time>2021-03-10T14:10:50Z</time>
      </trkpt>
      <trkpt lat="45.08047" lon="6.13385">
        <ele>1859</ele>
        <time>2021-03-10T14:10:51Z</time>
      </trkpt>
      <trkpt lat="45.08052" lon="6.13379">
        <ele>1857.1</ele>
        <time>2021-03-10T14:10:52Z</time>
      </trkpt>
      <trkpt lat="45.08054" lon="6.13372">
        <ele>1856.4</ele>
        <time>2021-03-10T14:10:53Z</time>
      </trkpt>
      <trkpt lat="45.08054" lon="6.13363">
        <ele>1854.4</ele>
        <time>2021-03-10T14:10:54Z</time>
      </trkpt>
      <trkpt lat="45.08058" lon="6.1336">
        <ele>1853.7</ele>
        <time>2021-03-10T14:10:55Z</time>
      </trkpt>
      <trkpt lat="45.08061" lon="6.13355">
        <ele>1853</ele>
        <time>2021-03-10T14:10:56Z</time>
      </trkpt>
      <trkpt lat="45.08063" lon="6.13349">
        <ele>1851.6</ele>
        <time>2021-03-10T14:10:57Z</time>
      </trkpt>
      <trkpt lat="45.08064" lon="6.13343">
        <ele>1851</ele>
        <time>2021-03-10T14:10:58Z</time>
      </trkpt>
      <trkpt lat="45.08068" lon="6.13341">
        <ele>1850.1</ele>
        <time>2021-03-10T14:10:59Z</time>
      </trkpt>
      <trkpt lat="45.08071" lon="6.13339">
        <ele>1850</ele>
        <time>2021-03-10T14:11:00Z</time>
      </trkpt>
      <trkpt lat="45.08074" lon="6.1334">
        <ele>1849.9</ele>
        <time>2021-03-10T14:11:01Z</time>
      </trkpt>
      <trkpt lat="45.08076" lon="6.13337">
        <ele>1849.3</ele>
        <time>2021-03-10T14:11:02Z</time>
      </trkpt>
      <trkpt lat="45.08077" lon="6.13333">
        <ele>1848.6</ele>
        <time>2021-03-10T14:11:03Z</time>
      </trkpt>
      <trkpt lat="45.08075" lon="6.13327">
        <ele>1847.9</ele>
        <time>2021-03-10T14:11:04Z</time>
      </trkpt>
      <trkpt lat="45.08075" lon="6.13322">
        <ele>1847.2</ele>
        <time>2021-03-10T14:11:05Z</time>
      </trkpt>
      <trkpt lat="45.08075" lon="6.13317">
        <ele>1846.6</ele>
        <time>2021-03-10T14:11:06Z</time>
      </trkpt>
      <trkpt lat="45.08075" lon="6.13315">
        <ele>1846</ele>
        <time>2021-03-10T14:11:07Z</time>
      </trkpt>
      <trkpt lat="45.08076" lon="6.13313">
        <ele>1845.9</ele>
        <time>2021-03-10T14:11:08Z</time>
      </trkpt>
      <trkpt lat="45.08076" lon="6.1331">
        <ele>1845.3</ele>
        <time>2021-03-10T14:11:09Z</time>
      </trkpt>
      <trkpt lat="45.08076" lon="6.13306">
        <ele>1844.7</ele>
        <time>2021-03-10T14:11:10Z</time>
      </trkpt>
      <trkpt lat="45.08077" lon="6.13305">
        <ele>1844.6</ele>
        <time>2021-03-10T14:11:11Z</time>
      </trkpt>
      <trkpt lat="45.08077" lon="6.13303">
        <ele>1844</ele>
        <time>2021-03-10T14:11:12Z</time>
      </trkpt>
      <trkpt lat="45.08078" lon="6.13302">
        <ele>1843.9</ele>
        <time>2021-03-10T14:11:13Z</time>
      </trkpt>
      <trkpt lat="45.08079" lon="6.13301">
        <ele>1843.9</ele>
        <time>2021-03-10T14:11:14Z</time>
      </trkpt>
      <trkpt lat="45.0808" lon="6.13301">
        <ele>1843.8</ele>
        <time>2021-03-10T14:11:15Z</time>
      </trkpt>
      <trkpt lat="45.0808" lon="6.133">
        <ele>1843.7</ele>
        <time>2021-03-10T14:11:16Z</time>
      </trkpt>
      <trkpt lat="45.0808" lon="6.13299">
        <ele>1843.6</ele>
        <time>2021-03-10T14:11:17Z</time>
      </trkpt>
      <trkpt lat="45.0808" lon="6.13299">
        <ele>1843</ele>
        <time>2021-03-10T14:11:18Z</time>
      </trkpt>
      <trkpt lat="45.0808" lon="6.13298">
        <ele>1843</ele>
        <time>2021-03-10T14:11:19Z</time>
      </trkpt>
      <trkpt lat="45.0808" lon="6.13297">
        <ele>1842.9</ele>
        <time>2021-03-10T14:11:20Z</time>
      </trkpt>
      <trkpt lat="45.0808" lon="6.13297">
        <ele>1842.8</ele>
        <time>2021-03-10T14:11:21Z</time>
      </trkpt>
      <trkpt lat="45.0808" lon="6.13297">
        <ele>1842.7</ele>
        <time>2021-03-10T14:11:22Z</time>
      </trkpt>
      <trkpt lat="45.08081" lon="6.13296">
        <ele>1842.6</ele>
        <time>2021-03-10T14:11:23Z</time>
      </trkpt>
      <trkpt lat="45.08081" lon="6.13296">
        <ele>1842.6</ele>
        <time>2021-03-10T14:11:24Z</time>
      </trkpt>
      <trkpt lat="45.08081" lon="6.13296">
        <ele>1842.5</ele>
        <time>2021-03-10T14:11:25Z</time>
      </trkpt>
      <trkpt lat="45.08081" lon="6.13296">
        <ele>1842.4</ele>
        <time>2021-03-10T14:11:26Z</time>
      </trkpt>
      <trkpt lat="45.08083" lon="6.13295">
        <ele>1842.3</ele>
        <time>2021-03-10T14:11:27Z</time>
      </trkpt>
      <trkpt lat="45.08086" lon="6.13294">
        <ele>1841.8</ele>
        <time>2021-03-10T14:11:28Z</time>
      </trkpt>
      <trkpt lat="45.08088" lon="6.13293">
        <ele>1841.7</ele>
        <time>2021-03-10T14:11:29Z</time>
      </trkpt>
      <trkpt lat="45.0809" lon="6.13291">
        <ele>1841.8</ele>
        <time>2021-03-10T14:11:30Z</time>
      </trkpt>
      <trkpt lat="45.08092" lon="6.13288">
        <ele>1841.3</ele>
        <time>2021-03-10T14:11:31Z</time>
      </trkpt>
      <trkpt lat="45.08093" lon="6.13284">
        <ele>1840.7</ele>
        <time>2021-03-10T14:11:32Z</time>
      </trkpt>
      <trkpt lat="45.08093" lon="6.13283">
        <ele>1840.7</ele>
        <time>2021-03-10T14:11:33Z</time>
      </trkpt>
      <trkpt lat="45.08093" lon="6.13283">
        <ele>1840.6</ele>
        <time>2021-03-10T14:11:34Z</time>
      </trkpt>
      <trkpt lat="45.08093" lon="6.13282">
        <ele>1840.5</ele>
        <time>2021-03-10T14:11:35Z</time>
      </trkpt>
      <trkpt lat="45.08094" lon="6.13281">
        <ele>1839.9</ele>
        <time>2021-03-10T14:11:37Z</time>
      </trkpt>
      <trkpt lat="45.08095" lon="6.13278">
        <ele>1840</ele>
        <time>2021-03-10T14:11:38Z</time>
      </trkpt>
      <trkpt lat="45.08096" lon="6.13275">
        <ele>1839.4</ele>
        <time>2021-03-10T14:11:39Z</time>
      </trkpt>
      <trkpt lat="45.08098" lon="6.13269">
        <ele>1839</ele>
        <time>2021-03-10T14:11:40Z</time>
      </trkpt>
      <trkpt lat="45.08101" lon="6.13264">
        <ele>1838.1</ele>
        <time>2021-03-10T14:11:41Z</time>
      </trkpt>
      <trkpt lat="45.08104" lon="6.13259">
        <ele>1837.8</ele>
        <time>2021-03-10T14:11:42Z</time>
      </trkpt>
      <trkpt lat="45.08106" lon="6.13255">
        <ele>1837.2</ele>
        <time>2021-03-10T14:11:43Z</time>
      </trkpt>
      <trkpt lat="45.08109" lon="6.1325">
        <ele>1837</ele>
        <time>2021-03-10T14:11:44Z</time>
      </trkpt>
      <trkpt lat="45.0811" lon="6.13244">
        <ele>1836.8</ele>
        <time>2021-03-10T14:11:45Z</time>
      </trkpt>
      <trkpt lat="45.08113" lon="6.13236">
        <ele>1836.2</ele>
        <time>2021-03-10T14:11:46Z</time>
      </trkpt>
      <trkpt lat="45.08116" lon="6.1323">
        <ele>1835.7</ele>
        <time>2021-03-10T14:11:47Z</time>
      </trkpt>
      <trkpt lat="45.08117" lon="6.13224">
        <ele>1835.2</ele>
        <time>2021-03-10T14:11:48Z</time>
      </trkpt>
      <trkpt lat="45.0812" lon="6.13219">
        <ele>1835.1</ele>
        <time>2021-03-10T14:11:49Z</time>
      </trkpt>
      <trkpt lat="45.08122" lon="6.13214">
        <ele>1834.6</ele>
        <time>2021-03-10T14:11:50Z</time>
      </trkpt>
      <trkpt lat="45.08122" lon="6.13209">
        <ele>1834.1</ele>
        <time>2021-03-10T14:11:51Z</time>
      </trkpt>
      <trkpt lat="45.08121" lon="6.13205">
        <ele>1833.7</ele>
        <time>2021-03-10T14:11:52Z</time>
      </trkpt>
      <trkpt lat="45.08119" lon="6.132">
        <ele>1833.2</ele>
        <time>2021-03-10T14:11:53Z</time>
      </trkpt>
      <trkpt lat="45.08118" lon="6.13198">
        <ele>1832.5</ele>
        <time>2021-03-10T14:11:54Z</time>
      </trkpt>
      <trkpt lat="45.08117" lon="6.13197">
        <ele>1832.4</ele>
        <time>2021-03-10T14:11:55Z</time>
      </trkpt>
      <trkpt lat="45.08116" lon="6.13197">
        <ele>1832.3</ele>
        <time>2021-03-10T14:11:56Z</time>
      </trkpt>
      <trkpt lat="45.08117" lon="6.13197">
        <ele>1832.2</ele>
        <time>2021-03-10T14:11:57Z</time>
      </trkpt>
      <trkpt lat="45.08117" lon="6.13197">
        <ele>1832.1</ele>
        <time>2021-03-10T14:11:58Z</time>
      </trkpt>
      <trkpt lat="45.08117" lon="6.13198">
        <ele>1832.1</ele>
        <time>2021-03-10T14:11:59Z</time>
      </trkpt>
      <trkpt lat="45.08117" lon="6.13198">
        <ele>1832</ele>
        <time>2021-03-10T14:12:00Z</time>
      </trkpt>
      <trkpt lat="45.08117" lon="6.13198">
        <ele>1831.9</ele>
        <time>2021-03-10T14:12:01Z</time>
      </trkpt>
      <trkpt lat="45.08117" lon="6.13198">
        <ele>1831.8</ele>
        <time>2021-03-10T14:12:02Z</time>
      </trkpt>
      <trkpt lat="45.08117" lon="6.13198">
        <ele>1831.7</ele>
        <time>2021-03-10T14:12:03Z</time>
      </trkpt>
      <trkpt lat="45.08117" lon="6.13198">
        <ele>1831.7</ele>
        <time>2021-03-10T14:12:04Z</time>
      </trkpt>
      <trkpt lat="45.08117" lon="6.13198">
        <ele>1831.6</ele>
        <time>2021-03-10T14:12:05Z</time>
      </trkpt>
      <trkpt lat="45.08117" lon="6.13198">
        <ele>1831.5</ele>
        <time>2021-03-10T14:12:06Z</time>
      </trkpt>
      <trkpt lat="45.08113" lon="6.13187">
        <ele>1829.8</ele>
        <time>2021-03-10T14:13:49Z</time>
      </trkpt>
      <trkpt lat="45.08112" lon="6.13183">
        <ele>1828.9</ele>
        <time>2021-03-10T14:13:50Z</time>
      </trkpt>
      <trkpt lat="45.08111" lon="6.13178">
        <ele>1828.4</ele>
        <time>2021-03-10T14:13:51Z</time>
      </trkpt>
      <trkpt lat="45.08108" lon="6.13171">
        <ele>1827.6</ele>
        <time>2021-03-10T14:13:52Z</time>
      </trkpt>
      <trkpt lat="45.08106" lon="6.13162">
        <ele>1826.8</ele>
        <time>2021-03-10T14:13:53Z</time>
      </trkpt>
      <trkpt lat="45.08103" lon="6.13151">
        <ele>1826.1</ele>
        <time>2021-03-10T14:13:54Z</time>
      </trkpt>
      <trkpt lat="45.081" lon="6.13141">
        <ele>1825.5</ele>
        <time>2021-03-10T14:13:55Z</time>
      </trkpt>
      <trkpt lat="45.08098" lon="6.13131">
        <ele>1824.9</ele>
        <time>2021-03-10T14:13:56Z</time>
      </trkpt>
      <trkpt lat="45.08095" lon="6.13122">
        <ele>1824.4</ele>
        <time>2021-03-10T14:13:57Z</time>
      </trkpt>
      <trkpt lat="45.08093" lon="6.13112">
        <ele>1823.9</ele>
        <time>2021-03-10T14:13:58Z</time>
      </trkpt>
      <trkpt lat="45.08091" lon="6.13104">
        <ele>1823.5</ele>
        <time>2021-03-10T14:13:59Z</time>
      </trkpt>
      <trkpt lat="45.08089" lon="6.13097">
        <ele>1823.2</ele>
        <time>2021-03-10T14:14:00Z</time>
      </trkpt>
      <trkpt lat="45.08089" lon="6.1309">
        <ele>1822.9</ele>
        <time>2021-03-10T14:14:01Z</time>
      </trkpt>
      <trkpt lat="45.08088" lon="6.13083">
        <ele>1822.6</ele>
        <time>2021-03-10T14:14:02Z</time>
      </trkpt>
      <trkpt lat="45.08088" lon="6.13075">
        <ele>1822.3</ele>
        <time>2021-03-10T14:14:03Z</time>
      </trkpt>
      <trkpt lat="45.0809" lon="6.13071">
        <ele>1822.1</ele>
        <time>2021-03-10T14:14:04Z</time>
      </trkpt>
      <trkpt lat="45.0809" lon="6.13062">
        <ele>1821.8</ele>
        <time>2021-03-10T14:14:05Z</time>
      </trkpt>
      <trkpt lat="45.08091" lon="6.13055">
        <ele>1821.6</ele>
        <time>2021-03-10T14:14:06Z</time>
      </trkpt>
      <trkpt lat="45.08093" lon="6.13049">
        <ele>1821.4</ele>
        <time>2021-03-10T14:14:07Z</time>
      </trkpt>
      <trkpt lat="45.08094" lon="6.1304">
        <ele>1821.1</ele>
        <time>2021-03-10T14:14:08Z</time>
      </trkpt>
      <trkpt lat="45.08096" lon="6.13036">
        <ele>1820.9</ele>
        <time>2021-03-10T14:14:09Z</time>
      </trkpt>
      <trkpt lat="45.08099" lon="6.13029">
        <ele>1820.7</ele>
        <time>2021-03-10T14:14:10Z</time>
      </trkpt>
      <trkpt lat="45.081" lon="6.13023">
        <ele>1820.5</ele>
        <time>2021-03-10T14:14:11Z</time>
      </trkpt>
      <trkpt lat="45.08101" lon="6.13016">
        <ele>1820.3</ele>
        <time>2021-03-10T14:14:12Z</time>
      </trkpt>
      <trkpt lat="45.08104" lon="6.13014">
        <ele>1820.2</ele>
        <time>2021-03-10T14:14:13Z</time>
      </trkpt>
      <trkpt lat="45.08105" lon="6.1301">
        <ele>1820</ele>
        <time>2021-03-10T14:14:14Z</time>
      </trkpt>
      <trkpt lat="45.08106" lon="6.13005">
        <ele>1819.8</ele>
        <time>2021-03-10T14:14:15Z</time>
      </trkpt>
      <trkpt lat="45.08107" lon="6.13001">
        <ele>1819.7</ele>
        <time>2021-03-10T14:14:16Z</time>
      </trkpt>
      <trkpt lat="45.08108" lon="6.12997">
        <ele>1819.5</ele>
        <time>2021-03-10T14:14:17Z</time>
      </trkpt>
      <trkpt lat="45.08109" lon="6.12993">
        <ele>1819.3</ele>
        <time>2021-03-10T14:14:18Z</time>
      </trkpt>
      <trkpt lat="45.08111" lon="6.12988">
        <ele>1819.1</ele>
        <time>2021-03-10T14:14:19Z</time>
      </trkpt>
      <trkpt lat="45.08112" lon="6.12981">
        <ele>1818.8</ele>
        <time>2021-03-10T14:14:20Z</time>
      </trkpt>
      <trkpt lat="45.08112" lon="6.12974">
        <ele>1818.5</ele>
        <time>2021-03-10T14:14:21Z</time>
      </trkpt>
      <trkpt lat="45.08113" lon="6.12968">
        <ele>1818.2</ele>
        <time>2021-03-10T14:14:22Z</time>
      </trkpt>
      <trkpt lat="45.08113" lon="6.1296">
        <ele>1817.8</ele>
        <time>2021-03-10T14:14:23Z</time>
      </trkpt>
      <trkpt lat="45.08111" lon="6.12945">
        <ele>1816.8</ele>
        <time>2021-03-10T14:14:24Z</time>
      </trkpt>
      <trkpt lat="45.08111" lon="6.12936">
        <ele>1816.2</ele>
        <time>2021-03-10T14:14:25Z</time>
      </trkpt>
      <trkpt lat="45.08113" lon="6.12928">
        <ele>1815.5</ele>
        <time>2021-03-10T14:14:26Z</time>
      </trkpt>
      <trkpt lat="45.08114" lon="6.12919">
        <ele>1814.8</ele>
        <time>2021-03-10T14:14:27Z</time>
      </trkpt>
      <trkpt lat="45.08115" lon="6.1291">
        <ele>1814.1</ele>
        <time>2021-03-10T14:14:28Z</time>
      </trkpt>
      <trkpt lat="45.08116" lon="6.12897">
        <ele>1813.1</ele>
        <time>2021-03-10T14:14:29Z</time>
      </trkpt>
      <trkpt lat="45.08116" lon="6.12882">
        <ele>1811.8</ele>
        <time>2021-03-10T14:14:30Z</time>
      </trkpt>
      <trkpt lat="45.08116" lon="6.12868">
        <ele>1810.6</ele>
        <time>2021-03-10T14:14:31Z</time>
      </trkpt>
      <trkpt lat="45.08115" lon="6.12855">
        <ele>1809.5</ele>
        <time>2021-03-10T14:14:32Z</time>
      </trkpt>
      <trkpt lat="45.08112" lon="6.12846">
        <ele>1808.6</ele>
        <time>2021-03-10T14:14:33Z</time>
      </trkpt>
      <trkpt lat="45.0811" lon="6.12832">
        <ele>1807.3</ele>
        <time>2021-03-10T14:14:34Z</time>
      </trkpt>
      <trkpt lat="45.08106" lon="6.12819">
        <ele>1806.2</ele>
        <time>2021-03-10T14:14:35Z</time>
      </trkpt>
      <trkpt lat="45.081" lon="6.12804">
        <ele>1804.8</ele>
        <time>2021-03-10T14:14:36Z</time>
      </trkpt>
      <trkpt lat="45.08095" lon="6.12792">
        <ele>1803.6</ele>
        <time>2021-03-10T14:14:37Z</time>
      </trkpt>
      <trkpt lat="45.0809" lon="6.12778">
        <ele>1802.5</ele>
        <time>2021-03-10T14:14:38Z</time>
      </trkpt>
      <trkpt lat="45.08084" lon="6.12767">
        <ele>1801.5</ele>
        <time>2021-03-10T14:14:39Z</time>
      </trkpt>
      <trkpt lat="45.08078" lon="6.12755">
        <ele>1800.4</ele>
        <time>2021-03-10T14:14:40Z</time>
      </trkpt>
      <trkpt lat="45.08072" lon="6.12744">
        <ele>1799.4</ele>
        <time>2021-03-10T14:14:41Z</time>
      </trkpt>
      <trkpt lat="45.08066" lon="6.12733">
        <ele>1798.4</ele>
        <time>2021-03-10T14:14:42Z</time>
      </trkpt>
      <trkpt lat="45.08061" lon="6.12724">
        <ele>1797.6</ele>
        <time>2021-03-10T14:14:43Z</time>
      </trkpt>
      <trkpt lat="45.08054" lon="6.12716">
        <ele>1796.7</ele>
        <time>2021-03-10T14:14:44Z</time>
      </trkpt>
      <trkpt lat="45.08048" lon="6.12708">
        <ele>1795.9</ele>
        <time>2021-03-10T14:14:45Z</time>
      </trkpt>
      <trkpt lat="45.08042" lon="6.12701">
        <ele>1795.2</ele>
        <time>2021-03-10T14:14:46Z</time>
      </trkpt>
      <trkpt lat="45.08036" lon="6.12695">
        <ele>1794.4</ele>
        <time>2021-03-10T14:14:47Z</time>
      </trkpt>
      <trkpt lat="45.0803" lon="6.12685">
        <ele>1793.6</ele>
        <time>2021-03-10T14:14:48Z</time>
      </trkpt>
      <trkpt lat="45.08024" lon="6.12674">
        <ele>1792.6</ele>
        <time>2021-03-10T14:14:49Z</time>
      </trkpt>
      <trkpt lat="45.08017" lon="6.12664">
        <ele>1791.5</ele>
        <time>2021-03-10T14:14:50Z</time>
      </trkpt>
      <trkpt lat="45.08012" lon="6.12654">
        <ele>1790.7</ele>
        <time>2021-03-10T14:14:51Z</time>
      </trkpt>
      <trkpt lat="45.08007" lon="6.12642">
        <ele>1789.8</ele>
        <time>2021-03-10T14:14:52Z</time>
      </trkpt>
      <trkpt lat="45.08003" lon="6.12633">
        <ele>1789.1</ele>
        <time>2021-03-10T14:14:53Z</time>
      </trkpt>
      <trkpt lat="45.07998" lon="6.12621">
        <ele>1788.4</ele>
        <time>2021-03-10T14:14:54Z</time>
      </trkpt>
      <trkpt lat="45.07994" lon="6.12611">
        <ele>1787.8</ele>
        <time>2021-03-10T14:14:55Z</time>
      </trkpt>
      <trkpt lat="45.07989" lon="6.12601">
        <ele>1787.2</ele>
        <time>2021-03-10T14:14:56Z</time>
      </trkpt>
      <trkpt lat="45.07985" lon="6.12595">
        <ele>1786.7</ele>
        <time>2021-03-10T14:14:57Z</time>
      </trkpt>
      <trkpt lat="45.0798" lon="6.12585">
        <ele>1786.1</ele>
        <time>2021-03-10T14:14:58Z</time>
      </trkpt>
      <trkpt lat="45.07975" lon="6.12576">
        <ele>1785.4</ele>
        <time>2021-03-10T14:14:59Z</time>
      </trkpt>
      <trkpt lat="45.07969" lon="6.12569">
        <ele>1784.8</ele>
        <time>2021-03-10T14:15:00Z</time>
      </trkpt>
      <trkpt lat="45.07964" lon="6.12562">
        <ele>1784.2</ele>
        <time>2021-03-10T14:15:01Z</time>
      </trkpt>
      <trkpt lat="45.07958" lon="6.12556">
        <ele>1783.6</ele>
        <time>2021-03-10T14:15:02Z</time>
      </trkpt>
      <trkpt lat="45.07953" lon="6.12548">
        <ele>1783</ele>
        <time>2021-03-10T14:15:03Z</time>
      </trkpt>
      <trkpt lat="45.07947" lon="6.1254">
        <ele>1782.3</ele>
        <time>2021-03-10T14:15:04Z</time>
      </trkpt>
      <trkpt lat="45.07944" lon="6.12531">
        <ele>1781.7</ele>
        <time>2021-03-10T14:15:05Z</time>
      </trkpt>
      <trkpt lat="45.07941" lon="6.12521">
        <ele>1781.1</ele>
        <time>2021-03-10T14:15:06Z</time>
      </trkpt>
      <trkpt lat="45.07937" lon="6.12515">
        <ele>1780.7</ele>
        <time>2021-03-10T14:15:07Z</time>
      </trkpt>
      <trkpt lat="45.07933" lon="6.12507">
        <ele>1780.2</ele>
        <time>2021-03-10T14:15:08Z</time>
      </trkpt>
      <trkpt lat="45.07929" lon="6.12499">
        <ele>1779.7</ele>
        <time>2021-03-10T14:15:09Z</time>
      </trkpt>
      <trkpt lat="45.07925" lon="6.1249">
        <ele>1779.2</ele>
        <time>2021-03-10T14:15:10Z</time>
      </trkpt>
      <trkpt lat="45.07922" lon="6.12482">
        <ele>1778.7</ele>
        <time>2021-03-10T14:15:11Z</time>
      </trkpt>
      <trkpt lat="45.07919" lon="6.12473">
        <ele>1778.2</ele>
        <time>2021-03-10T14:15:12Z</time>
      </trkpt>
      <trkpt lat="45.07916" lon="6.12463">
        <ele>1777.7</ele>
        <time>2021-03-10T14:15:13Z</time>
      </trkpt>
      <trkpt lat="45.07914" lon="6.12454">
        <ele>1777.2</ele>
        <time>2021-03-10T14:15:14Z</time>
      </trkpt>
      <trkpt lat="45.07912" lon="6.12444">
        <ele>1776.7</ele>
        <time>2021-03-10T14:15:15Z</time>
      </trkpt>
      <trkpt lat="45.0791" lon="6.12435">
        <ele>1776.2</ele>
        <time>2021-03-10T14:15:16Z</time>
      </trkpt>
      <trkpt lat="45.07909" lon="6.12424">
        <ele>1775.7</ele>
        <time>2021-03-10T14:15:17Z</time>
      </trkpt>
      <trkpt lat="45.07908" lon="6.12415">
        <ele>1775.2</ele>
        <time>2021-03-10T14:15:18Z</time>
      </trkpt>
      <trkpt lat="45.07906" lon="6.12404">
        <ele>1774.7</ele>
        <time>2021-03-10T14:15:19Z</time>
      </trkpt>
      <trkpt lat="45.07903" lon="6.12398">
        <ele>1774.3</ele>
        <time>2021-03-10T14:15:20Z</time>
      </trkpt>
      <trkpt lat="45.07899" lon="6.12388">
        <ele>1773.7</ele>
        <time>2021-03-10T14:15:21Z</time>
      </trkpt>
      <trkpt lat="45.07894" lon="6.12381">
        <ele>1773.1</ele>
        <time>2021-03-10T14:15:22Z</time>
      </trkpt>
      <trkpt lat="45.07888" lon="6.12375">
        <ele>1772.5</ele>
        <time>2021-03-10T14:15:23Z</time>
      </trkpt>
      <trkpt lat="45.07882" lon="6.1237">
        <ele>1772</ele>
        <time>2021-03-10T14:15:24Z</time>
      </trkpt>
      <trkpt lat="45.07879" lon="6.12366">
        <ele>1771.6</ele>
        <time>2021-03-10T14:15:25Z</time>
      </trkpt>
      <trkpt lat="45.07875" lon="6.1236">
        <ele>1771.2</ele>
        <time>2021-03-10T14:15:26Z</time>
      </trkpt>
      <trkpt lat="45.07872" lon="6.12353">
        <ele>1770.8</ele>
        <time>2021-03-10T14:15:27Z</time>
      </trkpt>
      <trkpt lat="45.07869" lon="6.12345">
        <ele>1770.3</ele>
        <time>2021-03-10T14:15:28Z</time>
      </trkpt>
      <trkpt lat="45.07867" lon="6.12339">
        <ele>1770</ele>
        <time>2021-03-10T14:15:29Z</time>
      </trkpt>
      <trkpt lat="45.07863" lon="6.12328">
        <ele>1769.5</ele>
        <time>2021-03-10T14:15:30Z</time>
      </trkpt>
      <trkpt lat="45.07862" lon="6.12324">
        <ele>1769.3</ele>
        <time>2021-03-10T14:15:31Z</time>
      </trkpt>
      <trkpt lat="45.07861" lon="6.12322">
        <ele>1769.2</ele>
        <time>2021-03-10T14:15:32Z</time>
      </trkpt>
      <trkpt lat="45.0786" lon="6.12315">
        <ele>1768.9</ele>
        <time>2021-03-10T14:15:33Z</time>
      </trkpt>
      <trkpt lat="45.07858" lon="6.12308">
        <ele>1768.6</ele>
        <time>2021-03-10T14:15:34Z</time>
      </trkpt>
      <trkpt lat="45.07857" lon="6.12301">
        <ele>1768.3</ele>
        <time>2021-03-10T14:15:35Z</time>
      </trkpt>
      <trkpt lat="45.07858" lon="6.12296">
        <ele>1768</ele>
        <time>2021-03-10T14:15:36Z</time>
      </trkpt>
      <trkpt lat="45.07857" lon="6.12288">
        <ele>1767.7</ele>
        <time>2021-03-10T14:15:37Z</time>
      </trkpt>
      <trkpt lat="45.07859" lon="6.12285">
        <ele>1767.5</ele>
        <time>2021-03-10T14:15:38Z</time>
      </trkpt>
      <trkpt lat="45.07857" lon="6.12275">
        <ele>1767</ele>
        <time>2021-03-10T14:15:39Z</time>
      </trkpt>
      <trkpt lat="45.07857" lon="6.12267">
        <ele>1766.7</ele>
        <time>2021-03-10T14:15:40Z</time>
      </trkpt>
      <trkpt lat="45.07856" lon="6.12259">
        <ele>1766.3</ele>
        <time>2021-03-10T14:15:41Z</time>
      </trkpt>
      <trkpt lat="45.07856" lon="6.12251">
        <ele>1765.9</ele>
        <time>2021-03-10T14:15:42Z</time>
      </trkpt>
      <trkpt lat="45.07856" lon="6.12245">
        <ele>1765.7</ele>
        <time>2021-03-10T14:15:43Z</time>
      </trkpt>
      <trkpt lat="45.07855" lon="6.12236">
        <ele>1765.3</ele>
        <time>2021-03-10T14:15:44Z</time>
      </trkpt>
      <trkpt lat="45.07855" lon="6.1223">
        <ele>1765</ele>
        <time>2021-03-10T14:15:45Z</time>
      </trkpt>
      <trkpt lat="45.07853" lon="6.12224">
        <ele>1764.7</ele>
        <time>2021-03-10T14:15:46Z</time>
      </trkpt>
      <trkpt lat="45.07852" lon="6.12214">
        <ele>1764.2</ele>
        <time>2021-03-10T14:15:47Z</time>
      </trkpt>
      <trkpt lat="45.0785" lon="6.12205">
        <ele>1763.8</ele>
        <time>2021-03-10T14:15:48Z</time>
      </trkpt>
      <trkpt lat="45.07849" lon="6.12199">
        <ele>1763.4</ele>
        <time>2021-03-10T14:15:49Z</time>
      </trkpt>
      <trkpt lat="45.07848" lon="6.1219">
        <ele>1763</ele>
        <time>2021-03-10T14:15:50Z</time>
      </trkpt>
      <trkpt lat="45.07847" lon="6.12179">
        <ele>1762.4</ele>
        <time>2021-03-10T14:15:51Z</time>
      </trkpt>
      <trkpt lat="45.07845" lon="6.12169">
        <ele>1761.9</ele>
        <time>2021-03-10T14:15:52Z</time>
      </trkpt>
      <trkpt lat="45.07843" lon="6.12158">
        <ele>1761.3</ele>
        <time>2021-03-10T14:15:53Z</time>
      </trkpt>
      <trkpt lat="45.07843" lon="6.12149">
        <ele>1760.8</ele>
        <time>2021-03-10T14:15:54Z</time>
      </trkpt>
      <trkpt lat="45.07841" lon="6.12137">
        <ele>1760.2</ele>
        <time>2021-03-10T14:15:55Z</time>
      </trkpt>
      <trkpt lat="45.07841" lon="6.12128">
        <ele>1759.8</ele>
        <time>2021-03-10T14:15:56Z</time>
      </trkpt>
      <trkpt lat="45.07839" lon="6.12118">
        <ele>1759.2</ele>
        <time>2021-03-10T14:15:57Z</time>
      </trkpt>
      <trkpt lat="45.07837" lon="6.12107">
        <ele>1758.6</ele>
        <time>2021-03-10T14:15:58Z</time>
      </trkpt>
      <trkpt lat="45.07836" lon="6.12102">
        <ele>1758.3</ele>
        <time>2021-03-10T14:15:59Z</time>
      </trkpt>
      <trkpt lat="45.07836" lon="6.12093">
        <ele>1757.9</ele>
        <time>2021-03-10T14:16:00Z</time>
      </trkpt>
      <trkpt lat="45.07834" lon="6.12084">
        <ele>1757.4</ele>
        <time>2021-03-10T14:16:01Z</time>
      </trkpt>
      <trkpt lat="45.07832" lon="6.12077">
        <ele>1757.1</ele>
        <time>2021-03-10T14:16:02Z</time>
      </trkpt>
      <trkpt lat="45.0783" lon="6.12068">
        <ele>1756.7</ele>
        <time>2021-03-10T14:16:03Z</time>
      </trkpt>
      <trkpt lat="45.07827" lon="6.12062">
        <ele>1756.5</ele>
        <time>2021-03-10T14:16:04Z</time>
      </trkpt>
      <trkpt lat="45.07824" lon="6.12058">
        <ele>1756.2</ele>
        <time>2021-03-10T14:16:05Z</time>
      </trkpt>
      <trkpt lat="45.0782" lon="6.12055">
        <ele>1756</ele>
        <time>2021-03-10T14:16:06Z</time>
      </trkpt>
      <trkpt lat="45.07818" lon="6.12049">
        <ele>1755.8</ele>
        <time>2021-03-10T14:16:07Z</time>
      </trkpt>
      <trkpt lat="45.07816" lon="6.12045">
        <ele>1755.5</ele>
        <time>2021-03-10T14:16:08Z</time>
      </trkpt>
      <trkpt lat="45.07815" lon="6.12043">
        <ele>1755.5</ele>
        <time>2021-03-10T14:16:09Z</time>
      </trkpt>
      <trkpt lat="45.07812" lon="6.12043">
        <ele>1755.3</ele>
        <time>2021-03-10T14:16:10Z</time>
      </trkpt>
      <trkpt lat="45.07811" lon="6.12042">
        <ele>1755.2</ele>
        <time>2021-03-10T14:16:11Z</time>
      </trkpt>
      <trkpt lat="45.07809" lon="6.12037">
        <ele>1755</ele>
        <time>2021-03-10T14:16:12Z</time>
      </trkpt>
      <trkpt lat="45.07808" lon="6.12036">
        <ele>1754.9</ele>
        <time>2021-03-10T14:16:13Z</time>
      </trkpt>
      <trkpt lat="45.07807" lon="6.12032">
        <ele>1754.5</ele>
        <time>2021-03-10T14:16:14Z</time>
      </trkpt>
      <trkpt lat="45.07806" lon="6.12028">
        <ele>1754.2</ele>
        <time>2021-03-10T14:16:15Z</time>
      </trkpt>
      <trkpt lat="45.07805" lon="6.12024">
        <ele>1753.8</ele>
        <time>2021-03-10T14:16:16Z</time>
      </trkpt>
      <trkpt lat="45.07803" lon="6.12019">
        <ele>1753.4</ele>
        <time>2021-03-10T14:16:17Z</time>
      </trkpt>
      <trkpt lat="45.07803" lon="6.12018">
        <ele>1753.3</ele>
        <time>2021-03-10T14:16:18Z</time>
      </trkpt>
      <trkpt lat="45.07801" lon="6.12014">
        <ele>1752.9</ele>
        <time>2021-03-10T14:16:19Z</time>
      </trkpt>
      <trkpt lat="45.07801" lon="6.12012">
        <ele>1752.8</ele>
        <time>2021-03-10T14:16:20Z</time>
      </trkpt>
      <trkpt lat="45.078" lon="6.12008">
        <ele>1752.5</ele>
        <time>2021-03-10T14:16:21Z</time>
      </trkpt>
      <trkpt lat="45.078" lon="6.12007">
        <ele>1752.4</ele>
        <time>2021-03-10T14:16:22Z</time>
      </trkpt>
      <trkpt lat="45.078" lon="6.12005">
        <ele>1752.2</ele>
        <time>2021-03-10T14:16:23Z</time>
      </trkpt>
      <trkpt lat="45.07799" lon="6.12003">
        <ele>1752</ele>
        <time>2021-03-10T14:16:24Z</time>
      </trkpt>
      <trkpt lat="45.07799" lon="6.12001">
        <ele>1751.8</ele>
        <time>2021-03-10T14:16:25Z</time>
      </trkpt>
      <trkpt lat="45.07799" lon="6.11998">
        <ele>1751.6</ele>
        <time>2021-03-10T14:16:26Z</time>
      </trkpt>
      <trkpt lat="45.07798" lon="6.11993">
        <ele>1751.2</ele>
        <time>2021-03-10T14:16:27Z</time>
      </trkpt>
      <trkpt lat="45.07798" lon="6.11991">
        <ele>1751</ele>
        <time>2021-03-10T14:16:28Z</time>
      </trkpt>
      <trkpt lat="45.07797" lon="6.11986">
        <ele>1750.6</ele>
        <time>2021-03-10T14:16:29Z</time>
      </trkpt>
      <trkpt lat="45.07796" lon="6.11985">
        <ele>1750.5</ele>
        <time>2021-03-10T14:16:30Z</time>
      </trkpt>
      <trkpt lat="45.07795" lon="6.11981">
        <ele>1750.1</ele>
        <time>2021-03-10T14:16:31Z</time>
      </trkpt>
      <trkpt lat="45.07794" lon="6.11977">
        <ele>1749.8</ele>
        <time>2021-03-10T14:16:32Z</time>
      </trkpt>
      <trkpt lat="45.07793" lon="6.11973">
        <ele>1749.5</ele>
        <time>2021-03-10T14:16:33Z</time>
      </trkpt>
      <trkpt lat="45.07791" lon="6.11968">
        <ele>1749.1</ele>
        <time>2021-03-10T14:16:34Z</time>
      </trkpt>
      <trkpt lat="45.0779" lon="6.11963">
        <ele>1748.6</ele>
        <time>2021-03-10T14:16:35Z</time>
      </trkpt>
      <trkpt lat="45.07788" lon="6.11957">
        <ele>1748.2</ele>
        <time>2021-03-10T14:16:36Z</time>
      </trkpt>
      <trkpt lat="45.07787" lon="6.11949">
        <ele>1747.7</ele>
        <time>2021-03-10T14:16:37Z</time>
      </trkpt>
      <trkpt lat="45.07786" lon="6.11943">
        <ele>1747.3</ele>
        <time>2021-03-10T14:16:38Z</time>
      </trkpt>
      <trkpt lat="45.07787" lon="6.11937">
        <ele>1747</ele>
        <time>2021-03-10T14:16:39Z</time>
      </trkpt>
      <trkpt lat="45.07786" lon="6.11932">
        <ele>1746.7</ele>
        <time>2021-03-10T14:16:40Z</time>
      </trkpt>
      <trkpt lat="45.07784" lon="6.11926">
        <ele>1746.3</ele>
        <time>2021-03-10T14:16:41Z</time>
      </trkpt>
      <trkpt lat="45.07785" lon="6.11921">
        <ele>1746</ele>
        <time>2021-03-10T14:16:42Z</time>
      </trkpt>
      <trkpt lat="45.07785" lon="6.11915">
        <ele>1745.6</ele>
        <time>2021-03-10T14:16:43Z</time>
      </trkpt>
      <trkpt lat="45.07786" lon="6.1191">
        <ele>1745.3</ele>
        <time>2021-03-10T14:16:44Z</time>
      </trkpt>
      <trkpt lat="45.07787" lon="6.11906">
        <ele>1745</ele>
        <time>2021-03-10T14:16:45Z</time>
      </trkpt>
      <trkpt lat="45.07787" lon="6.11899">
        <ele>1744.6</ele>
        <time>2021-03-10T14:16:46Z</time>
      </trkpt>
      <trkpt lat="45.07788" lon="6.11894">
        <ele>1744.2</ele>
        <time>2021-03-10T14:16:47Z</time>
      </trkpt>
      <trkpt lat="45.07788" lon="6.11889">
        <ele>1743.9</ele>
        <time>2021-03-10T14:16:48Z</time>
      </trkpt>
      <trkpt lat="45.07788" lon="6.11884">
        <ele>1743.5</ele>
        <time>2021-03-10T14:16:49Z</time>
      </trkpt>
      <trkpt lat="45.07788" lon="6.11879">
        <ele>1743.2</ele>
        <time>2021-03-10T14:16:50Z</time>
      </trkpt>
      <trkpt lat="45.07788" lon="6.11875">
        <ele>1742.9</ele>
        <time>2021-03-10T14:16:51Z</time>
      </trkpt>
      <trkpt lat="45.07788" lon="6.11872">
        <ele>1742.8</ele>
        <time>2021-03-10T14:16:52Z</time>
      </trkpt>
      <trkpt lat="45.07788" lon="6.11871">
        <ele>1742.7</ele>
        <time>2021-03-10T14:16:53Z</time>
      </trkpt>
      <trkpt lat="45.07788" lon="6.11871">
        <ele>1742.7</ele>
        <time>2021-03-10T14:16:54Z</time>
      </trkpt>
      <trkpt lat="45.07788" lon="6.11872">
        <ele>1742.6</ele>
        <time>2021-03-10T14:16:55Z</time>
      </trkpt>
      <trkpt lat="45.07788" lon="6.11871">
        <ele>1742.6</ele>
        <time>2021-03-10T14:16:56Z</time>
      </trkpt>
      <trkpt lat="45.07788" lon="6.11871">
        <ele>1742.6</ele>
        <time>2021-03-10T14:16:57Z</time>
      </trkpt>
      <trkpt lat="45.07788" lon="6.11871">
        <ele>1742.6</ele>
        <time>2021-03-10T14:16:58Z</time>
      </trkpt>
      <trkpt lat="45.07788" lon="6.1187">
        <ele>1742.6</ele>
        <time>2021-03-10T14:16:59Z</time>
      </trkpt>
      <trkpt lat="45.07788" lon="6.1187">
        <ele>1742.5</ele>
        <time>2021-03-10T14:17:00Z</time>
      </trkpt>
      <trkpt lat="45.07788" lon="6.11869">
        <ele>1742.5</ele>
        <time>2021-03-10T14:17:01Z</time>
      </trkpt>
      <trkpt lat="45.07789" lon="6.11868">
        <ele>1742.4</ele>
        <time>2021-03-10T14:17:02Z</time>
      </trkpt>
      <trkpt lat="45.07789" lon="6.11868">
        <ele>1742.4</ele>
        <time>2021-03-10T14:17:03Z</time>
      </trkpt>
      <trkpt lat="45.07791" lon="6.11853">
        <ele>1741.5</ele>
        <time>2021-03-10T14:17:34Z</time>
      </trkpt>
      <trkpt lat="45.07791" lon="6.11852">
        <ele>1741.5</ele>
        <time>2021-03-10T14:17:35Z</time>
      </trkpt>
      <trkpt lat="45.07791" lon="6.11852">
        <ele>1741.5</ele>
        <time>2021-03-10T14:17:36Z</time>
      </trkpt>
      <trkpt lat="45.07792" lon="6.11851">
        <ele>1741.4</ele>
        <time>2021-03-10T14:17:37Z</time>
      </trkpt>
      <trkpt lat="45.07792" lon="6.1185">
        <ele>1741.3</ele>
        <time>2021-03-10T14:17:38Z</time>
      </trkpt>
      <trkpt lat="45.07792" lon="6.11847">
        <ele>1741.2</ele>
        <time>2021-03-10T14:17:39Z</time>
      </trkpt>
      <trkpt lat="45.07793" lon="6.11845">
        <ele>1741.1</ele>
        <time>2021-03-10T14:17:40Z</time>
      </trkpt>
      <trkpt lat="45.07793" lon="6.11844">
        <ele>1741</ele>
        <time>2021-03-10T14:17:41Z</time>
      </trkpt>
      <trkpt lat="45.07793" lon="6.11841">
        <ele>1740.9</ele>
        <time>2021-03-10T14:17:42Z</time>
      </trkpt>
      <trkpt lat="45.07794" lon="6.11839">
        <ele>1740.8</ele>
        <time>2021-03-10T14:17:43Z</time>
      </trkpt>
      <trkpt lat="45.07794" lon="6.11837">
        <ele>1740.7</ele>
        <time>2021-03-10T14:17:44Z</time>
      </trkpt>
      <trkpt lat="45.07794" lon="6.11835">
        <ele>1740.6</ele>
        <time>2021-03-10T14:17:45Z</time>
      </trkpt>
      <trkpt lat="45.07795" lon="6.11833">
        <ele>1740.5</ele>
        <time>2021-03-10T14:17:46Z</time>
      </trkpt>
      <trkpt lat="45.07795" lon="6.11832">
        <ele>1740.4</ele>
        <time>2021-03-10T14:17:47Z</time>
      </trkpt>
      <trkpt lat="45.07795" lon="6.11831">
        <ele>1740.4</ele>
        <time>2021-03-10T14:17:48Z</time>
      </trkpt>
      <trkpt lat="45.07796" lon="6.11828">
        <ele>1740.2</ele>
        <time>2021-03-10T14:17:49Z</time>
      </trkpt>
      <trkpt lat="45.07796" lon="6.11826">
        <ele>1740.1</ele>
        <time>2021-03-10T14:17:50Z</time>
      </trkpt>
      <trkpt lat="45.07797" lon="6.11824">
        <ele>1740</ele>
        <time>2021-03-10T14:17:51Z</time>
      </trkpt>
      <trkpt lat="45.07799" lon="6.11819">
        <ele>1739.7</ele>
        <time>2021-03-10T14:17:52Z</time>
      </trkpt>
      <trkpt lat="45.078" lon="6.11817">
        <ele>1739.6</ele>
        <time>2021-03-10T14:17:53Z</time>
      </trkpt>
      <trkpt lat="45.07802" lon="6.11811">
        <ele>1739.4</ele>
        <time>2021-03-10T14:17:54Z</time>
      </trkpt>
      <trkpt lat="45.07805" lon="6.11803">
        <ele>1738.9</ele>
        <time>2021-03-10T14:17:55Z</time>
      </trkpt>
      <trkpt lat="45.0781" lon="6.1179">
        <ele>1739.3</ele>
        <time>2021-03-10T14:17:56Z</time>
      </trkpt>
      <trkpt lat="45.07814" lon="6.11777">
        <ele>1738.7</ele>
        <time>2021-03-10T14:17:57Z</time>
      </trkpt>
      <trkpt lat="45.07817" lon="6.11765">
        <ele>1737.7</ele>
        <time>2021-03-10T14:17:58Z</time>
      </trkpt>
      <trkpt lat="45.07819" lon="6.11754">
        <ele>1737.2</ele>
        <time>2021-03-10T14:17:59Z</time>
      </trkpt>
      <trkpt lat="45.07821" lon="6.11743">
        <ele>1736.7</ele>
        <time>2021-03-10T14:18:00Z</time>
      </trkpt>
      <trkpt lat="45.07822" lon="6.11732">
        <ele>1736.2</ele>
        <time>2021-03-10T14:18:01Z</time>
      </trkpt>
      <trkpt lat="45.07825" lon="6.11722">
        <ele>1735.8</ele>
        <time>2021-03-10T14:18:02Z</time>
      </trkpt>
      <trkpt lat="45.07827" lon="6.11712">
        <ele>1735.3</ele>
        <time>2021-03-10T14:18:03Z</time>
      </trkpt>
      <trkpt lat="45.07832" lon="6.11702">
        <ele>1734.9</ele>
        <time>2021-03-10T14:18:04Z</time>
      </trkpt>
      <trkpt lat="45.07834" lon="6.11692">
        <ele>1734.4</ele>
        <time>2021-03-10T14:18:05Z</time>
      </trkpt>
      <trkpt lat="45.07837" lon="6.11682">
        <ele>1733.9</ele>
        <time>2021-03-10T14:18:06Z</time>
      </trkpt>
      <trkpt lat="45.07838" lon="6.11675">
        <ele>1733.6</ele>
        <time>2021-03-10T14:18:07Z</time>
      </trkpt>
      <trkpt lat="45.0784" lon="6.11665">
        <ele>1733.2</ele>
        <time>2021-03-10T14:18:08Z</time>
      </trkpt>
      <trkpt lat="45.07841" lon="6.11656">
        <ele>1732.8</ele>
        <time>2021-03-10T14:18:09Z</time>
      </trkpt>
      <trkpt lat="45.07843" lon="6.1165">
        <ele>1733.6</ele>
        <time>2021-03-10T14:18:10Z</time>
      </trkpt>
      <trkpt lat="45.07846" lon="6.1165">
        <ele>1733.9</ele>
        <time>2021-03-10T14:18:11Z</time>
      </trkpt>
      <trkpt lat="45.07846" lon="6.11648">
        <ele>1734</ele>
        <time>2021-03-10T14:18:12Z</time>
      </trkpt>
      <trkpt lat="45.07846" lon="6.11648">
        <ele>1734</ele>
        <time>2021-03-10T14:18:13Z</time>
      </trkpt>
      <trkpt lat="45.07846" lon="6.11648">
        <ele>1734</ele>
        <time>2021-03-10T14:18:14Z</time>
      </trkpt>
      <trkpt lat="45.07846" lon="6.11648">
        <ele>1734</ele>
        <time>2021-03-10T14:18:15Z</time>
      </trkpt>
      <trkpt lat="45.07846" lon="6.11648">
        <ele>1734</ele>
        <time>2021-03-10T14:18:16Z</time>
      </trkpt>
      <trkpt lat="45.07846" lon="6.11648">
        <ele>1734</ele>
        <time>2021-03-10T14:18:17Z</time>
      </trkpt>
      <trkpt lat="45.07846" lon="6.11648">
        <ele>1734</ele>
        <time>2021-03-10T14:18:18Z</time>
      </trkpt>
      <trkpt lat="45.07846" lon="6.11648">
        <ele>1734</ele>
        <time>2021-03-10T14:18:19Z</time>
      </trkpt>
      <trkpt lat="45.07846" lon="6.11648">
        <ele>1734</ele>
        <time>2021-03-10T14:18:20Z</time>
      </trkpt>
      <trkpt lat="45.07846" lon="6.11648">
        <ele>1734</ele>
        <time>2021-03-10T14:18:21Z</time>
      </trkpt>
      <trkpt lat="45.07846" lon="6.11648">
        <ele>1734</ele>
        <time>2021-03-10T14:18:22Z</time>
      </trkpt>
      <trkpt lat="45.07858" lon="6.11656">
        <ele>1735.9</ele>
        <time>2021-03-10T14:22:53Z</time>
      </trkpt>
      <trkpt lat="45.07859" lon="6.11656">
        <ele>1736</ele>
        <time>2021-03-10T14:22:54Z</time>
      </trkpt>
      <trkpt lat="45.0786" lon="6.11655">
        <ele>1736.1</ele>
        <time>2021-03-10T14:22:55Z</time>
      </trkpt>
      <trkpt lat="45.0786" lon="6.11654">
        <ele>1736.2</ele>
        <time>2021-03-10T14:22:56Z</time>
      </trkpt>
      <trkpt lat="45.07861" lon="6.11654">
        <ele>1736.4</ele>
        <time>2021-03-10T14:22:57Z</time>
      </trkpt>
      <trkpt lat="45.07862" lon="6.11653">
        <ele>1736.5</ele>
        <time>2021-03-10T14:22:58Z</time>
      </trkpt>
      <trkpt lat="45.07862" lon="6.11652">
        <ele>1736.6</ele>
        <time>2021-03-10T14:22:59Z</time>
      </trkpt>
      <trkpt lat="45.07863" lon="6.11652">
        <ele>1736.7</ele>
        <time>2021-03-10T14:23:00Z</time>
      </trkpt>
      <trkpt lat="45.07863" lon="6.11652">
        <ele>1736.8</ele>
        <time>2021-03-10T14:23:01Z</time>
      </trkpt>
      <trkpt lat="45.07864" lon="6.11651">
        <ele>1736.8</ele>
        <time>2021-03-10T14:23:02Z</time>
      </trkpt>
      <trkpt lat="45.07864" lon="6.11651">
        <ele>1736.9</ele>
        <time>2021-03-10T14:23:03Z</time>
      </trkpt>
      <trkpt lat="45.07865" lon="6.11651">
        <ele>1737</ele>
        <time>2021-03-10T14:23:04Z</time>
      </trkpt>
      <trkpt lat="45.07865" lon="6.11651">
        <ele>1737.1</ele>
        <time>2021-03-10T14:23:05Z</time>
      </trkpt>
      <trkpt lat="45.07866" lon="6.11651">
        <ele>1737.2</ele>
        <time>2021-03-10T14:23:06Z</time>
      </trkpt>
      <trkpt lat="45.07867" lon="6.1165">
        <ele>1737.3</ele>
        <time>2021-03-10T14:23:07Z</time>
      </trkpt>
      <trkpt lat="45.07868" lon="6.1165">
        <ele>1737.5</ele>
        <time>2021-03-10T14:23:08Z</time>
      </trkpt>
      <trkpt lat="45.07868" lon="6.11649">
        <ele>1737.6</ele>
        <time>2021-03-10T14:23:09Z</time>
      </trkpt>
      <trkpt lat="45.07869" lon="6.11649">
        <ele>1737.7</ele>
        <time>2021-03-10T14:23:10Z</time>
      </trkpt>
      <trkpt lat="45.07869" lon="6.11648">
        <ele>1737.8</ele>
        <time>2021-03-10T14:23:11Z</time>
      </trkpt>
      <trkpt lat="45.0787" lon="6.11647">
        <ele>1737.9</ele>
        <time>2021-03-10T14:23:12Z</time>
      </trkpt>
      <trkpt lat="45.07871" lon="6.11646">
        <ele>1738</ele>
        <time>2021-03-10T14:23:13Z</time>
      </trkpt>
      <trkpt lat="45.07872" lon="6.11646">
        <ele>1738.2</ele>
        <time>2021-03-10T14:23:14Z</time>
      </trkpt>
      <trkpt lat="45.07872" lon="6.11645">
        <ele>1738.3</ele>
        <time>2021-03-10T14:23:15Z</time>
      </trkpt>
      <trkpt lat="45.07873" lon="6.11645">
        <ele>1738.4</ele>
        <time>2021-03-10T14:23:16Z</time>
      </trkpt>
      <trkpt lat="45.07874" lon="6.11645">
        <ele>1738.5</ele>
        <time>2021-03-10T14:23:17Z</time>
      </trkpt>
      <trkpt lat="45.07875" lon="6.11644">
        <ele>1738.7</ele>
        <time>2021-03-10T14:23:18Z</time>
      </trkpt>
      <trkpt lat="45.07876" lon="6.11644">
        <ele>1738.9</ele>
        <time>2021-03-10T14:23:19Z</time>
      </trkpt>
      <trkpt lat="45.07877" lon="6.11643">
        <ele>1738.9</ele>
        <time>2021-03-10T14:23:20Z</time>
      </trkpt>
      <trkpt lat="45.07877" lon="6.11643">
        <ele>1739</ele>
        <time>2021-03-10T14:23:21Z</time>
      </trkpt>
      <trkpt lat="45.07878" lon="6.11643">
        <ele>1739.1</ele>
        <time>2021-03-10T14:23:22Z</time>
      </trkpt>
      <trkpt lat="45.07879" lon="6.11643">
        <ele>1739.3</ele>
        <time>2021-03-10T14:23:23Z</time>
      </trkpt>
      <trkpt lat="45.0788" lon="6.11642">
        <ele>1739.4</ele>
        <time>2021-03-10T14:23:24Z</time>
      </trkpt>
      <trkpt lat="45.0788" lon="6.11642">
        <ele>1739.5</ele>
        <time>2021-03-10T14:23:25Z</time>
      </trkpt>
      <trkpt lat="45.07881" lon="6.11642">
        <ele>1739.6</ele>
        <time>2021-03-10T14:23:26Z</time>
      </trkpt>
      <trkpt lat="45.07882" lon="6.11641">
        <ele>1739.8</ele>
        <time>2021-03-10T14:23:27Z</time>
      </trkpt>
      <trkpt lat="45.07882" lon="6.11641">
        <ele>1739.9</ele>
        <time>2021-03-10T14:23:28Z</time>
      </trkpt>
      <trkpt lat="45.07882" lon="6.11641">
        <ele>1739.9</ele>
        <time>2021-03-10T14:23:29Z</time>
      </trkpt>
      <trkpt lat="45.07882" lon="6.1164">
        <ele>1740</ele>
        <time>2021-03-10T14:23:30Z</time>
      </trkpt>
      <trkpt lat="45.07883" lon="6.1164">
        <ele>1740.2</ele>
        <time>2021-03-10T14:23:31Z</time>
      </trkpt>
      <trkpt lat="45.07883" lon="6.11639">
        <ele>1740.3</ele>
        <time>2021-03-10T14:23:32Z</time>
      </trkpt>
      <trkpt lat="45.07884" lon="6.11639">
        <ele>1740.5</ele>
        <time>2021-03-10T14:23:33Z</time>
      </trkpt>
      <trkpt lat="45.07884" lon="6.11639">
        <ele>1740.5</ele>
        <time>2021-03-10T14:23:34Z</time>
      </trkpt>
      <trkpt lat="45.07883" lon="6.1164">
        <ele>1740.6</ele>
        <time>2021-03-10T14:23:35Z</time>
      </trkpt>
      <trkpt lat="45.07883" lon="6.1164">
        <ele>1740.6</ele>
        <time>2021-03-10T14:23:36Z</time>
      </trkpt>
      <trkpt lat="45.07882" lon="6.1164">
        <ele>1740.9</ele>
        <time>2021-03-10T14:23:37Z</time>
      </trkpt>
      <trkpt lat="45.07882" lon="6.1164">
        <ele>1740.9</ele>
        <time>2021-03-10T14:23:38Z</time>
      </trkpt>
      <trkpt lat="45.07882" lon="6.1164">
        <ele>1741</ele>
        <time>2021-03-10T14:23:39Z</time>
      </trkpt>
      <trkpt lat="45.07883" lon="6.1164">
        <ele>1741.1</ele>
        <time>2021-03-10T14:23:40Z</time>
      </trkpt>
      <trkpt lat="45.07884" lon="6.1164">
        <ele>1741.3</ele>
        <time>2021-03-10T14:23:41Z</time>
      </trkpt>
      <trkpt lat="45.07884" lon="6.11639">
        <ele>1741.4</ele>
        <time>2021-03-10T14:23:42Z</time>
      </trkpt>
      <trkpt lat="45.07885" lon="6.11639">
        <ele>1741.6</ele>
        <time>2021-03-10T14:23:43Z</time>
      </trkpt>
      <trkpt lat="45.07887" lon="6.11637">
        <ele>1742.2</ele>
        <time>2021-03-10T14:23:46Z</time>
      </trkpt>
      <trkpt lat="45.07888" lon="6.11637">
        <ele>1742.3</ele>
        <time>2021-03-10T14:23:47Z</time>
      </trkpt>
      <trkpt lat="45.07888" lon="6.11636">
        <ele>1742.4</ele>
        <time>2021-03-10T14:23:48Z</time>
      </trkpt>
      <trkpt lat="45.07888" lon="6.11636">
        <ele>1742.6</ele>
        <time>2021-03-10T14:23:49Z</time>
      </trkpt>
      <trkpt lat="45.07889" lon="6.11635">
        <ele>1742.7</ele>
        <time>2021-03-10T14:23:50Z</time>
      </trkpt>
      <trkpt lat="45.07889" lon="6.11634">
        <ele>1742.9</ele>
        <time>2021-03-10T14:23:51Z</time>
      </trkpt>
      <trkpt lat="45.0789" lon="6.11634">
        <ele>1743</ele>
        <time>2021-03-10T14:23:52Z</time>
      </trkpt>
      <trkpt lat="45.0789" lon="6.11633">
        <ele>1743.2</ele>
        <time>2021-03-10T14:23:53Z</time>
      </trkpt>
      <trkpt lat="45.07891" lon="6.11633">
        <ele>1743.4</ele>
        <time>2021-03-10T14:23:54Z</time>
      </trkpt>
      <trkpt lat="45.07892" lon="6.11632">
        <ele>1743.6</ele>
        <time>2021-03-10T14:23:55Z</time>
      </trkpt>
      <trkpt lat="45.07893" lon="6.11632">
        <ele>1743.8</ele>
        <time>2021-03-10T14:23:56Z</time>
      </trkpt>
      <trkpt lat="45.07894" lon="6.11631">
        <ele>1744.1</ele>
        <time>2021-03-10T14:23:57Z</time>
      </trkpt>
      <trkpt lat="45.07894" lon="6.1163">
        <ele>1744.3</ele>
        <time>2021-03-10T14:23:58Z</time>
      </trkpt>
      <trkpt lat="45.07895" lon="6.1163">
        <ele>1744.5</ele>
        <time>2021-03-10T14:23:59Z</time>
      </trkpt>
      <trkpt lat="45.07896" lon="6.11629">
        <ele>1744.7</ele>
        <time>2021-03-10T14:24:00Z</time>
      </trkpt>
      <trkpt lat="45.07897" lon="6.11629">
        <ele>1744.9</ele>
        <time>2021-03-10T14:24:01Z</time>
      </trkpt>
      <trkpt lat="45.07897" lon="6.11628">
        <ele>1745.1</ele>
        <time>2021-03-10T14:24:02Z</time>
      </trkpt>
      <trkpt lat="45.07898" lon="6.11628">
        <ele>1745.3</ele>
        <time>2021-03-10T14:24:03Z</time>
      </trkpt>
      <trkpt lat="45.07899" lon="6.11627">
        <ele>1745.5</ele>
        <time>2021-03-10T14:24:04Z</time>
      </trkpt>
      <trkpt lat="45.07899" lon="6.11626">
        <ele>1745.7</ele>
        <time>2021-03-10T14:24:05Z</time>
      </trkpt>
      <trkpt lat="45.07899" lon="6.11626">
        <ele>1745.8</ele>
        <time>2021-03-10T14:24:06Z</time>
      </trkpt>
      <trkpt lat="45.07899" lon="6.11625">
        <ele>1745.9</ele>
        <time>2021-03-10T14:24:07Z</time>
      </trkpt>
      <trkpt lat="45.079" lon="6.11625">
        <ele>1746</ele>
        <time>2021-03-10T14:24:08Z</time>
      </trkpt>
      <trkpt lat="45.079" lon="6.11624">
        <ele>1746.1</ele>
        <time>2021-03-10T14:24:09Z</time>
      </trkpt>
      <trkpt lat="45.07901" lon="6.11623">
        <ele>1746.3</ele>
        <time>2021-03-10T14:24:10Z</time>
      </trkpt>
      <trkpt lat="45.07901" lon="6.11623">
        <ele>1746.4</ele>
        <time>2021-03-10T14:24:11Z</time>
      </trkpt>
      <trkpt lat="45.07902" lon="6.11622">
        <ele>1746.7</ele>
        <time>2021-03-10T14:24:12Z</time>
      </trkpt>
      <trkpt lat="45.07903" lon="6.11621">
        <ele>1746.9</ele>
        <time>2021-03-10T14:24:13Z</time>
      </trkpt>
      <trkpt lat="45.07903" lon="6.1162">
        <ele>1747.1</ele>
        <time>2021-03-10T14:24:14Z</time>
      </trkpt>
      <trkpt lat="45.07904" lon="6.1162">
        <ele>1747.3</ele>
        <time>2021-03-10T14:24:15Z</time>
      </trkpt>
      <trkpt lat="45.07904" lon="6.11618">
        <ele>1747.5</ele>
        <time>2021-03-10T14:24:16Z</time>
      </trkpt>
      <trkpt lat="45.07905" lon="6.11617">
        <ele>1747.8</ele>
        <time>2021-03-10T14:24:17Z</time>
      </trkpt>
      <trkpt lat="45.07905" lon="6.11616">
        <ele>1748</ele>
        <time>2021-03-10T14:24:18Z</time>
      </trkpt>
      <trkpt lat="45.07906" lon="6.11615">
        <ele>1748.3</ele>
        <time>2021-03-10T14:24:19Z</time>
      </trkpt>
      <trkpt lat="45.07906" lon="6.11614">
        <ele>1748.5</ele>
        <time>2021-03-10T14:24:20Z</time>
      </trkpt>
      <trkpt lat="45.07906" lon="6.11613">
        <ele>1748.7</ele>
        <time>2021-03-10T14:24:21Z</time>
      </trkpt>
      <trkpt lat="45.07907" lon="6.11612">
        <ele>1748.9</ele>
        <time>2021-03-10T14:24:22Z</time>
      </trkpt>
      <trkpt lat="45.07907" lon="6.11611">
        <ele>1749.2</ele>
        <time>2021-03-10T14:24:23Z</time>
      </trkpt>
      <trkpt lat="45.07908" lon="6.1161">
        <ele>1749.5</ele>
        <time>2021-03-10T14:24:24Z</time>
      </trkpt>
      <trkpt lat="45.07908" lon="6.11609">
        <ele>1749.7</ele>
        <time>2021-03-10T14:24:25Z</time>
      </trkpt>
      <trkpt lat="45.07908" lon="6.11607">
        <ele>1750</ele>
        <time>2021-03-10T14:24:26Z</time>
      </trkpt>
      <trkpt lat="45.07909" lon="6.11606">
        <ele>1750.3</ele>
        <time>2021-03-10T14:24:27Z</time>
      </trkpt>
      <trkpt lat="45.07909" lon="6.11605">
        <ele>1750.5</ele>
        <time>2021-03-10T14:24:28Z</time>
      </trkpt>
      <trkpt lat="45.07909" lon="6.11604">
        <ele>1750.7</ele>
        <time>2021-03-10T14:24:29Z</time>
      </trkpt>
      <trkpt lat="45.07909" lon="6.11603">
        <ele>1750.9</ele>
        <time>2021-03-10T14:24:30Z</time>
      </trkpt>
      <trkpt lat="45.07909" lon="6.11602">
        <ele>1751.1</ele>
        <time>2021-03-10T14:24:31Z</time>
      </trkpt>
      <trkpt lat="45.07909" lon="6.11602">
        <ele>1751.2</ele>
        <time>2021-03-10T14:24:32Z</time>
      </trkpt>
      <trkpt lat="45.07909" lon="6.11601">
        <ele>1751.4</ele>
        <time>2021-03-10T14:24:33Z</time>
      </trkpt>
      <trkpt lat="45.07909" lon="6.116">
        <ele>1751.5</ele>
        <time>2021-03-10T14:24:34Z</time>
      </trkpt>
      <trkpt lat="45.07909" lon="6.116">
        <ele>1751.7</ele>
        <time>2021-03-10T14:24:35Z</time>
      </trkpt>
      <trkpt lat="45.0791" lon="6.11599">
        <ele>1751.8</ele>
        <time>2021-03-10T14:24:36Z</time>
      </trkpt>
      <trkpt lat="45.0791" lon="6.11599">
        <ele>1751.9</ele>
        <time>2021-03-10T14:24:37Z</time>
      </trkpt>
      <trkpt lat="45.0791" lon="6.11598">
        <ele>1752</ele>
        <time>2021-03-10T14:24:38Z</time>
      </trkpt>
      <trkpt lat="45.0791" lon="6.11598">
        <ele>1752.1</ele>
        <time>2021-03-10T14:24:39Z</time>
      </trkpt>
      <trkpt lat="45.07911" lon="6.11597">
        <ele>1752.3</ele>
        <time>2021-03-10T14:24:40Z</time>
      </trkpt>
      <trkpt lat="45.07911" lon="6.11597">
        <ele>1752.5</ele>
        <time>2021-03-10T14:24:41Z</time>
      </trkpt>
      <trkpt lat="45.07913" lon="6.11594">
        <ele>1753.2</ele>
        <time>2021-03-10T14:24:45Z</time>
      </trkpt>
      <trkpt lat="45.07913" lon="6.11593">
        <ele>1753.3</ele>
        <time>2021-03-10T14:24:46Z</time>
      </trkpt>
      <trkpt lat="45.07913" lon="6.11593">
        <ele>1753.5</ele>
        <time>2021-03-10T14:24:47Z</time>
      </trkpt>
      <trkpt lat="45.07914" lon="6.11592">
        <ele>1753.7</ele>
        <time>2021-03-10T14:24:48Z</time>
      </trkpt>
      <trkpt lat="45.07914" lon="6.11592">
        <ele>1753.9</ele>
        <time>2021-03-10T14:24:49Z</time>
      </trkpt>
      <trkpt lat="45.07915" lon="6.11592">
        <ele>1754.1</ele>
        <time>2021-03-10T14:24:50Z</time>
      </trkpt>
      <trkpt lat="45.07916" lon="6.11591">
        <ele>1754.3</ele>
        <time>2021-03-10T14:24:51Z</time>
      </trkpt>
      <trkpt lat="45.07916" lon="6.11591">
        <ele>1754.5</ele>
        <time>2021-03-10T14:24:52Z</time>
      </trkpt>
      <trkpt lat="45.07917" lon="6.1159">
        <ele>1754.7</ele>
        <time>2021-03-10T14:24:53Z</time>
      </trkpt>
      <trkpt lat="45.07917" lon="6.1159">
        <ele>1754.9</ele>
        <time>2021-03-10T14:24:54Z</time>
      </trkpt>
      <trkpt lat="45.07918" lon="6.1159">
        <ele>1755.1</ele>
        <time>2021-03-10T14:24:55Z</time>
      </trkpt>
      <trkpt lat="45.07918" lon="6.11589">
        <ele>1755.2</ele>
        <time>2021-03-10T14:24:56Z</time>
      </trkpt>
      <trkpt lat="45.07919" lon="6.11589">
        <ele>1755.4</ele>
        <time>2021-03-10T14:24:57Z</time>
      </trkpt>
      <trkpt lat="45.07919" lon="6.11588">
        <ele>1755.6</ele>
        <time>2021-03-10T14:24:58Z</time>
      </trkpt>
      <trkpt lat="45.0792" lon="6.11587">
        <ele>1755.8</ele>
        <time>2021-03-10T14:24:59Z</time>
      </trkpt>
      <trkpt lat="45.0792" lon="6.11587">
        <ele>1756</ele>
        <time>2021-03-10T14:25:00Z</time>
      </trkpt>
      <trkpt lat="45.0792" lon="6.11586">
        <ele>1756.1</ele>
        <time>2021-03-10T14:25:01Z</time>
      </trkpt>
      <trkpt lat="45.07921" lon="6.11585">
        <ele>1756.3</ele>
        <time>2021-03-10T14:25:02Z</time>
      </trkpt>
      <trkpt lat="45.07921" lon="6.11585">
        <ele>1756.6</ele>
        <time>2021-03-10T14:25:03Z</time>
      </trkpt>
      <trkpt lat="45.07922" lon="6.11584">
        <ele>1756.8</ele>
        <time>2021-03-10T14:25:04Z</time>
      </trkpt>
      <trkpt lat="45.07922" lon="6.11583">
        <ele>1757</ele>
        <time>2021-03-10T14:25:05Z</time>
      </trkpt>
      <trkpt lat="45.07923" lon="6.11583">
        <ele>1757.3</ele>
        <time>2021-03-10T14:25:06Z</time>
      </trkpt>
      <trkpt lat="45.07924" lon="6.11582">
        <ele>1757.5</ele>
        <time>2021-03-10T14:25:07Z</time>
      </trkpt>
      <trkpt lat="45.07924" lon="6.11581">
        <ele>1757.8</ele>
        <time>2021-03-10T14:25:08Z</time>
      </trkpt>
      <trkpt lat="45.07925" lon="6.1158">
        <ele>1758.1</ele>
        <time>2021-03-10T14:25:09Z</time>
      </trkpt>
      <trkpt lat="45.07926" lon="6.11579">
        <ele>1758.4</ele>
        <time>2021-03-10T14:25:10Z</time>
      </trkpt>
      <trkpt lat="45.07926" lon="6.11578">
        <ele>1758.6</ele>
        <time>2021-03-10T14:25:11Z</time>
      </trkpt>
      <trkpt lat="45.07927" lon="6.11577">
        <ele>1758.8</ele>
        <time>2021-03-10T14:25:12Z</time>
      </trkpt>
      <trkpt lat="45.07927" lon="6.11577">
        <ele>1759</ele>
        <time>2021-03-10T14:25:13Z</time>
      </trkpt>
      <trkpt lat="45.07928" lon="6.11576">
        <ele>1759.2</ele>
        <time>2021-03-10T14:25:14Z</time>
      </trkpt>
      <trkpt lat="45.07928" lon="6.11576">
        <ele>1759.4</ele>
        <time>2021-03-10T14:25:15Z</time>
      </trkpt>
      <trkpt lat="45.07929" lon="6.11575">
        <ele>1759.5</ele>
        <time>2021-03-10T14:25:16Z</time>
      </trkpt>
      <trkpt lat="45.07929" lon="6.11575">
        <ele>1759.7</ele>
        <time>2021-03-10T14:25:17Z</time>
      </trkpt>
      <trkpt lat="45.0793" lon="6.11575">
        <ele>1759.9</ele>
        <time>2021-03-10T14:25:18Z</time>
      </trkpt>
      <trkpt lat="45.0793" lon="6.11574">
        <ele>1760.1</ele>
        <time>2021-03-10T14:25:19Z</time>
      </trkpt>
      <trkpt lat="45.07931" lon="6.11574">
        <ele>1760.3</ele>
        <time>2021-03-10T14:25:20Z</time>
      </trkpt>
      <trkpt lat="45.07931" lon="6.11573">
        <ele>1760.5</ele>
        <time>2021-03-10T14:25:21Z</time>
      </trkpt>
      <trkpt lat="45.07932" lon="6.11573">
        <ele>1760.7</ele>
        <time>2021-03-10T14:25:22Z</time>
      </trkpt>
      <trkpt lat="45.07933" lon="6.11572">
        <ele>1760.8</ele>
        <time>2021-03-10T14:25:23Z</time>
      </trkpt>
      <trkpt lat="45.07933" lon="6.11572">
        <ele>1761</ele>
        <time>2021-03-10T14:25:24Z</time>
      </trkpt>
      <trkpt lat="45.07934" lon="6.11572">
        <ele>1761.2</ele>
        <time>2021-03-10T14:25:25Z</time>
      </trkpt>
      <trkpt lat="45.07934" lon="6.11571">
        <ele>1761.4</ele>
        <time>2021-03-10T14:25:26Z</time>
      </trkpt>
      <trkpt lat="45.07935" lon="6.11571">
        <ele>1761.6</ele>
        <time>2021-03-10T14:25:27Z</time>
      </trkpt>
      <trkpt lat="45.07935" lon="6.1157">
        <ele>1761.7</ele>
        <time>2021-03-10T14:25:28Z</time>
      </trkpt>
      <trkpt lat="45.07936" lon="6.11569">
        <ele>1761.9</ele>
        <time>2021-03-10T14:25:29Z</time>
      </trkpt>
      <trkpt lat="45.07936" lon="6.11569">
        <ele>1762.1</ele>
        <time>2021-03-10T14:25:30Z</time>
      </trkpt>
      <trkpt lat="45.07937" lon="6.11568">
        <ele>1762.2</ele>
        <time>2021-03-10T14:25:31Z</time>
      </trkpt>
      <trkpt lat="45.07937" lon="6.11568">
        <ele>1762.4</ele>
        <time>2021-03-10T14:25:32Z</time>
      </trkpt>
      <trkpt lat="45.07937" lon="6.11567">
        <ele>1762.6</ele>
        <time>2021-03-10T14:25:33Z</time>
      </trkpt>
      <trkpt lat="45.07938" lon="6.11566">
        <ele>1762.8</ele>
        <time>2021-03-10T14:25:34Z</time>
      </trkpt>
      <trkpt lat="45.07938" lon="6.11565">
        <ele>1763</ele>
        <time>2021-03-10T14:25:35Z</time>
      </trkpt>
      <trkpt lat="45.07938" lon="6.11565">
        <ele>1763.1</ele>
        <time>2021-03-10T14:25:36Z</time>
      </trkpt>
      <trkpt lat="45.07939" lon="6.11564">
        <ele>1763.3</ele>
        <time>2021-03-10T14:25:37Z</time>
      </trkpt>
      <trkpt lat="45.07939" lon="6.11564">
        <ele>1763.4</ele>
        <time>2021-03-10T14:25:38Z</time>
      </trkpt>
      <trkpt lat="45.0794" lon="6.11563">
        <ele>1763.6</ele>
        <time>2021-03-10T14:25:39Z</time>
      </trkpt>
      <trkpt lat="45.0794" lon="6.11563">
        <ele>1763.8</ele>
        <time>2021-03-10T14:25:40Z</time>
      </trkpt>
      <trkpt lat="45.07941" lon="6.11562">
        <ele>1764</ele>
        <time>2021-03-10T14:25:41Z</time>
      </trkpt>
      <trkpt lat="45.07941" lon="6.11562">
        <ele>1764.1</ele>
        <time>2021-03-10T14:25:42Z</time>
      </trkpt>
      <trkpt lat="45.07942" lon="6.11561">
        <ele>1764.3</ele>
        <time>2021-03-10T14:25:43Z</time>
      </trkpt>
      <trkpt lat="45.07942" lon="6.11561">
        <ele>1764.4</ele>
        <time>2021-03-10T14:25:44Z</time>
      </trkpt>
      <trkpt lat="45.07942" lon="6.1156">
        <ele>1764.6</ele>
        <time>2021-03-10T14:25:45Z</time>
      </trkpt>
      <trkpt lat="45.07943" lon="6.11559">
        <ele>1764.8</ele>
        <time>2021-03-10T14:25:46Z</time>
      </trkpt>
      <trkpt lat="45.07943" lon="6.11559">
        <ele>1764.9</ele>
        <time>2021-03-10T14:25:47Z</time>
      </trkpt>
      <trkpt lat="45.07943" lon="6.11558">
        <ele>1765.1</ele>
        <time>2021-03-10T14:25:48Z</time>
      </trkpt>
      <trkpt lat="45.07944" lon="6.11557">
        <ele>1765.3</ele>
        <time>2021-03-10T14:25:49Z</time>
      </trkpt>
      <trkpt lat="45.07944" lon="6.11557">
        <ele>1765.4</ele>
        <time>2021-03-10T14:25:50Z</time>
      </trkpt>
      <trkpt lat="45.07944" lon="6.11556">
        <ele>1765.5</ele>
        <time>2021-03-10T14:25:51Z</time>
      </trkpt>
      <trkpt lat="45.07944" lon="6.11556">
        <ele>1765.6</ele>
        <time>2021-03-10T14:25:52Z</time>
      </trkpt>
      <trkpt lat="45.07944" lon="6.11555">
        <ele>1765.7</ele>
        <time>2021-03-10T14:25:53Z</time>
      </trkpt>
      <trkpt lat="45.07944" lon="6.11554">
        <ele>1765.9</ele>
        <time>2021-03-10T14:25:54Z</time>
      </trkpt>
      <trkpt lat="45.07945" lon="6.11554">
        <ele>1766</ele>
        <time>2021-03-10T14:25:55Z</time>
      </trkpt>
      <trkpt lat="45.07945" lon="6.11553">
        <ele>1766.1</ele>
        <time>2021-03-10T14:25:56Z</time>
      </trkpt>
      <trkpt lat="45.07945" lon="6.11553">
        <ele>1766.3</ele>
        <time>2021-03-10T14:25:57Z</time>
      </trkpt>
      <trkpt lat="45.07945" lon="6.11552">
        <ele>1766.4</ele>
        <time>2021-03-10T14:25:59Z</time>
      </trkpt>
      <trkpt lat="45.07946" lon="6.11551">
        <ele>1766.6</ele>
        <time>2021-03-10T14:26:00Z</time>
      </trkpt>
      <trkpt lat="45.07946" lon="6.11551">
        <ele>1766.8</ele>
        <time>2021-03-10T14:26:01Z</time>
      </trkpt>
      <trkpt lat="45.07947" lon="6.1155">
        <ele>1766.9</ele>
        <time>2021-03-10T14:26:02Z</time>
      </trkpt>
      <trkpt lat="45.07947" lon="6.1155">
        <ele>1767</ele>
        <time>2021-03-10T14:26:03Z</time>
      </trkpt>
      <trkpt lat="45.07952" lon="6.11545">
        <ele>1768.9</ele>
        <time>2021-03-10T14:26:17Z</time>
      </trkpt>
      <trkpt lat="45.07953" lon="6.11544">
        <ele>1769.1</ele>
        <time>2021-03-10T14:26:18Z</time>
      </trkpt>
      <trkpt lat="45.07953" lon="6.11543">
        <ele>1769.3</ele>
        <time>2021-03-10T14:26:19Z</time>
      </trkpt>
      <trkpt lat="45.07953" lon="6.11543">
        <ele>1769.3</ele>
        <time>2021-03-10T14:26:20Z</time>
      </trkpt>
      <trkpt lat="45.07954" lon="6.11542">
        <ele>1769.5</ele>
        <time>2021-03-10T14:26:21Z</time>
      </trkpt>
      <trkpt lat="45.07954" lon="6.11541">
        <ele>1769.7</ele>
        <time>2021-03-10T14:26:22Z</time>
      </trkpt>
      <trkpt lat="45.07954" lon="6.1154">
        <ele>1769.9</ele>
        <time>2021-03-10T14:26:23Z</time>
      </trkpt>
      <trkpt lat="45.07955" lon="6.11539">
        <ele>1770.1</ele>
        <time>2021-03-10T14:26:24Z</time>
      </trkpt>
      <trkpt lat="45.07955" lon="6.11538">
        <ele>1770.3</ele>
        <time>2021-03-10T14:26:25Z</time>
      </trkpt>
      <trkpt lat="45.07955" lon="6.11537">
        <ele>1770.4</ele>
        <time>2021-03-10T14:26:26Z</time>
      </trkpt>
      <trkpt lat="45.07955" lon="6.11537">
        <ele>1770.6</ele>
        <time>2021-03-10T14:26:27Z</time>
      </trkpt>
      <trkpt lat="45.07955" lon="6.11536">
        <ele>1770.7</ele>
        <time>2021-03-10T14:26:28Z</time>
      </trkpt>
      <trkpt lat="45.07956" lon="6.11536">
        <ele>1770.8</ele>
        <time>2021-03-10T14:26:29Z</time>
      </trkpt>
      <trkpt lat="45.07956" lon="6.11535">
        <ele>1771.1</ele>
        <time>2021-03-10T14:26:30Z</time>
      </trkpt>
      <trkpt lat="45.07957" lon="6.11535">
        <ele>1771.2</ele>
        <time>2021-03-10T14:26:31Z</time>
      </trkpt>
      <trkpt lat="45.07957" lon="6.11534">
        <ele>1771.4</ele>
        <time>2021-03-10T14:26:32Z</time>
      </trkpt>
      <trkpt lat="45.07958" lon="6.11533">
        <ele>1771.5</ele>
        <time>2021-03-10T14:26:33Z</time>
      </trkpt>
      <trkpt lat="45.07958" lon="6.11533">
        <ele>1771.6</ele>
        <time>2021-03-10T14:26:34Z</time>
      </trkpt>
      <trkpt lat="45.07959" lon="6.11532">
        <ele>1771.8</ele>
        <time>2021-03-10T14:26:35Z</time>
      </trkpt>
      <trkpt lat="45.07959" lon="6.11531">
        <ele>1772</ele>
        <time>2021-03-10T14:26:36Z</time>
      </trkpt>
      <trkpt lat="45.07959" lon="6.1153">
        <ele>1772.2</ele>
        <time>2021-03-10T14:26:37Z</time>
      </trkpt>
      <trkpt lat="45.0796" lon="6.1153">
        <ele>1772.3</ele>
        <time>2021-03-10T14:26:38Z</time>
      </trkpt>
      <trkpt lat="45.0796" lon="6.11529">
        <ele>1772.5</ele>
        <time>2021-03-10T14:26:39Z</time>
      </trkpt>
      <trkpt lat="45.07961" lon="6.11528">
        <ele>1772.7</ele>
        <time>2021-03-10T14:26:40Z</time>
      </trkpt>
      <trkpt lat="45.07961" lon="6.11527">
        <ele>1772.8</ele>
        <time>2021-03-10T14:26:41Z</time>
      </trkpt>
      <trkpt lat="45.07961" lon="6.11527">
        <ele>1773</ele>
        <time>2021-03-10T14:26:42Z</time>
      </trkpt>
      <trkpt lat="45.07962" lon="6.11526">
        <ele>1773.1</ele>
        <time>2021-03-10T14:26:43Z</time>
      </trkpt>
      <trkpt lat="45.07962" lon="6.11525">
        <ele>1773.3</ele>
        <time>2021-03-10T14:26:44Z</time>
      </trkpt>
      <trkpt lat="45.07962" lon="6.11524">
        <ele>1773.5</ele>
        <time>2021-03-10T14:26:45Z</time>
      </trkpt>
      <trkpt lat="45.07963" lon="6.11523">
        <ele>1773.6</ele>
        <time>2021-03-10T14:26:46Z</time>
      </trkpt>
      <trkpt lat="45.07963" lon="6.11523">
        <ele>1773.8</ele>
        <time>2021-03-10T14:26:47Z</time>
      </trkpt>
      <trkpt lat="45.07963" lon="6.11522">
        <ele>1773.9</ele>
        <time>2021-03-10T14:26:48Z</time>
      </trkpt>
      <trkpt lat="45.07964" lon="6.11521">
        <ele>1774.1</ele>
        <time>2021-03-10T14:26:49Z</time>
      </trkpt>
      <trkpt lat="45.07964" lon="6.11521">
        <ele>1774.2</ele>
        <time>2021-03-10T14:26:50Z</time>
      </trkpt>
      <trkpt lat="45.07965" lon="6.1152">
        <ele>1774.3</ele>
        <time>2021-03-10T14:26:51Z</time>
      </trkpt>
      <trkpt lat="45.07965" lon="6.1152">
        <ele>1774.4</ele>
        <time>2021-03-10T14:26:52Z</time>
      </trkpt>
      <trkpt lat="45.07966" lon="6.11519">
        <ele>1774.6</ele>
        <time>2021-03-10T14:26:53Z</time>
      </trkpt>
      <trkpt lat="45.07966" lon="6.11519">
        <ele>1774.7</ele>
        <time>2021-03-10T14:26:54Z</time>
      </trkpt>
      <trkpt lat="45.07967" lon="6.11519">
        <ele>1774.9</ele>
        <time>2021-03-10T14:26:55Z</time>
      </trkpt>
      <trkpt lat="45.07968" lon="6.11518">
        <ele>1775.1</ele>
        <time>2021-03-10T14:26:56Z</time>
      </trkpt>
      <trkpt lat="45.07968" lon="6.11518">
        <ele>1775.3</ele>
        <time>2021-03-10T14:26:57Z</time>
      </trkpt>
      <trkpt lat="45.07969" lon="6.11517">
        <ele>1775.5</ele>
        <time>2021-03-10T14:26:58Z</time>
      </trkpt>
      <trkpt lat="45.0797" lon="6.11516">
        <ele>1775.8</ele>
        <time>2021-03-10T14:26:59Z</time>
      </trkpt>
      <trkpt lat="45.07971" lon="6.11515">
        <ele>1775.9</ele>
        <time>2021-03-10T14:27:00Z</time>
      </trkpt>
      <trkpt lat="45.07971" lon="6.11515">
        <ele>1776</ele>
        <time>2021-03-10T14:27:01Z</time>
      </trkpt>
      <trkpt lat="45.07972" lon="6.11514">
        <ele>1776.2</ele>
        <time>2021-03-10T14:27:02Z</time>
      </trkpt>
      <trkpt lat="45.07972" lon="6.11514">
        <ele>1776.4</ele>
        <time>2021-03-10T14:27:03Z</time>
      </trkpt>
      <trkpt lat="45.07973" lon="6.11514">
        <ele>1776.5</ele>
        <time>2021-03-10T14:27:04Z</time>
      </trkpt>
      <trkpt lat="45.07974" lon="6.11513">
        <ele>1776.8</ele>
        <time>2021-03-10T14:27:05Z</time>
      </trkpt>
      <trkpt lat="45.07974" lon="6.11513">
        <ele>1776.9</ele>
        <time>2021-03-10T14:27:06Z</time>
      </trkpt>
      <trkpt lat="45.07974" lon="6.11512">
        <ele>1776.9</ele>
        <time>2021-03-10T14:27:07Z</time>
      </trkpt>
      <trkpt lat="45.07975" lon="6.11512">
        <ele>1777</ele>
        <time>2021-03-10T14:27:08Z</time>
      </trkpt>
      <trkpt lat="45.07976" lon="6.11511">
        <ele>1777</ele>
        <time>2021-03-10T14:27:09Z</time>
      </trkpt>
      <trkpt lat="45.07976" lon="6.11511">
        <ele>1777</ele>
        <time>2021-03-10T14:27:10Z</time>
      </trkpt>
      <trkpt lat="45.07977" lon="6.11511">
        <ele>1777.1</ele>
        <time>2021-03-10T14:27:11Z</time>
      </trkpt>
      <trkpt lat="45.07977" lon="6.1151">
        <ele>1777.1</ele>
        <time>2021-03-10T14:27:12Z</time>
      </trkpt>
      <trkpt lat="45.07977" lon="6.1151">
        <ele>1777.1</ele>
        <time>2021-03-10T14:27:13Z</time>
      </trkpt>
      <trkpt lat="45.07977" lon="6.11509">
        <ele>1777.1</ele>
        <time>2021-03-10T14:27:14Z</time>
      </trkpt>
      <trkpt lat="45.07978" lon="6.11509">
        <ele>1777.2</ele>
        <time>2021-03-10T14:27:15Z</time>
      </trkpt>
      <trkpt lat="45.07978" lon="6.11508">
        <ele>1777.2</ele>
        <time>2021-03-10T14:27:16Z</time>
      </trkpt>
      <trkpt lat="45.07979" lon="6.11507">
        <ele>1777.3</ele>
        <time>2021-03-10T14:27:17Z</time>
      </trkpt>
      <trkpt lat="45.07979" lon="6.11507">
        <ele>1777.3</ele>
        <time>2021-03-10T14:27:18Z</time>
      </trkpt>
      <trkpt lat="45.0798" lon="6.11506">
        <ele>1777.3</ele>
        <time>2021-03-10T14:27:19Z</time>
      </trkpt>
      <trkpt lat="45.07981" lon="6.11506">
        <ele>1777.4</ele>
        <time>2021-03-10T14:27:20Z</time>
      </trkpt>
      <trkpt lat="45.07981" lon="6.11507">
        <ele>1777.4</ele>
        <time>2021-03-10T14:27:21Z</time>
      </trkpt>
      <trkpt lat="45.07982" lon="6.11507">
        <ele>1777.5</ele>
        <time>2021-03-10T14:27:22Z</time>
      </trkpt>
      <trkpt lat="45.07982" lon="6.11507">
        <ele>1777.5</ele>
        <time>2021-03-10T14:27:23Z</time>
      </trkpt>
      <trkpt lat="45.07983" lon="6.11506">
        <ele>1777.5</ele>
        <time>2021-03-10T14:27:24Z</time>
      </trkpt>
      <trkpt lat="45.07983" lon="6.11505">
        <ele>1777.5</ele>
        <time>2021-03-10T14:27:25Z</time>
      </trkpt>
      <trkpt lat="45.07984" lon="6.11505">
        <ele>1777.6</ele>
        <time>2021-03-10T14:27:26Z</time>
      </trkpt>
      <trkpt lat="45.07984" lon="6.11504">
        <ele>1777.6</ele>
        <time>2021-03-10T14:27:27Z</time>
      </trkpt>
      <trkpt lat="45.07984" lon="6.11503">
        <ele>1777.7</ele>
        <time>2021-03-10T14:27:28Z</time>
      </trkpt>
      <trkpt lat="45.07984" lon="6.11501">
        <ele>1777.7</ele>
        <time>2021-03-10T14:27:29Z</time>
      </trkpt>
      <trkpt lat="45.07984" lon="6.115">
        <ele>1777.8</ele>
        <time>2021-03-10T14:27:30Z</time>
      </trkpt>
      <trkpt lat="45.07984" lon="6.11498">
        <ele>1777.8</ele>
        <time>2021-03-10T14:27:31Z</time>
      </trkpt>
      <trkpt lat="45.07985" lon="6.11497">
        <ele>1777.9</ele>
        <time>2021-03-10T14:27:32Z</time>
      </trkpt>
      <trkpt lat="45.07985" lon="6.11495">
        <ele>1777.9</ele>
        <time>2021-03-10T14:27:33Z</time>
      </trkpt>
      <trkpt lat="45.07985" lon="6.11495">
        <ele>1778</ele>
        <time>2021-03-10T14:27:34Z</time>
      </trkpt>
      <trkpt lat="45.07985" lon="6.11493">
        <ele>1778</ele>
        <time>2021-03-10T14:27:35Z</time>
      </trkpt>
      <trkpt lat="45.07984" lon="6.11492">
        <ele>1778.1</ele>
        <time>2021-03-10T14:27:36Z</time>
      </trkpt>
      <trkpt lat="45.07984" lon="6.11491">
        <ele>1778.1</ele>
        <time>2021-03-10T14:27:37Z</time>
      </trkpt>
      <trkpt lat="45.07984" lon="6.11491">
        <ele>1778.1</ele>
        <time>2021-03-10T14:27:38Z</time>
      </trkpt>
      <trkpt lat="45.07983" lon="6.1149">
        <ele>1778.2</ele>
        <time>2021-03-10T14:27:39Z</time>
      </trkpt>
      <trkpt lat="45.07983" lon="6.11489">
        <ele>1778.2</ele>
        <time>2021-03-10T14:27:40Z</time>
      </trkpt>
      <trkpt lat="45.07983" lon="6.11488">
        <ele>1778.2</ele>
        <time>2021-03-10T14:27:41Z</time>
      </trkpt>
      <trkpt lat="45.07982" lon="6.11487">
        <ele>1778.3</ele>
        <time>2021-03-10T14:27:42Z</time>
      </trkpt>
      <trkpt lat="45.07982" lon="6.11487">
        <ele>1778.3</ele>
        <time>2021-03-10T14:27:43Z</time>
      </trkpt>
      <trkpt lat="45.07981" lon="6.11486">
        <ele>1778.4</ele>
        <time>2021-03-10T14:27:44Z</time>
      </trkpt>
      <trkpt lat="45.07981" lon="6.11485">
        <ele>1778.4</ele>
        <time>2021-03-10T14:27:45Z</time>
      </trkpt>
      <trkpt lat="45.07981" lon="6.11484">
        <ele>1778.4</ele>
        <time>2021-03-10T14:30:49Z</time>
      </trkpt>
      <trkpt lat="45.0798" lon="6.11483">
        <ele>1778.5</ele>
        <time>2021-03-10T14:30:50Z</time>
      </trkpt>
      <trkpt lat="45.0798" lon="6.11482">
        <ele>1778.5</ele>
        <time>2021-03-10T14:30:51Z</time>
      </trkpt>
      <trkpt lat="45.07979" lon="6.11482">
        <ele>1778.5</ele>
        <time>2021-03-10T14:30:52Z</time>
      </trkpt>
      <trkpt lat="45.07979" lon="6.11482">
        <ele>1778.5</ele>
        <time>2021-03-10T14:30:53Z</time>
      </trkpt>
      <trkpt lat="45.07978" lon="6.11483">
        <ele>1778.6</ele>
        <time>2021-03-10T14:30:54Z</time>
      </trkpt>
      <trkpt lat="45.07978" lon="6.11483">
        <ele>1778.6</ele>
        <time>2021-03-10T14:30:55Z</time>
      </trkpt>
      <trkpt lat="45.07978" lon="6.11483">
        <ele>1778.6</ele>
        <time>2021-03-10T14:30:56Z</time>
      </trkpt>
      <trkpt lat="45.07978" lon="6.11483">
        <ele>1778.6</ele>
        <time>2021-03-10T14:30:57Z</time>
      </trkpt>
      <trkpt lat="45.07978" lon="6.11483">
        <ele>1778.6</ele>
        <time>2021-03-10T14:30:58Z</time>
      </trkpt>
      <trkpt lat="45.07978" lon="6.11483">
        <ele>1778.6</ele>
        <time>2021-03-10T14:30:59Z</time>
      </trkpt>
      <trkpt lat="45.07978" lon="6.11483">
        <ele>1778.6</ele>
        <time>2021-03-10T14:31:00Z</time>
      </trkpt>
      <trkpt lat="45.07978" lon="6.11483">
        <ele>1778.6</ele>
        <time>2021-03-10T14:31:01Z</time>
      </trkpt>
      <trkpt lat="45.07978" lon="6.11483">
        <ele>1778.6</ele>
        <time>2021-03-10T14:31:02Z</time>
      </trkpt>
      <trkpt lat="45.07984" lon="6.11481">
        <ele>1778.9</ele>
        <time>2021-03-10T14:31:28Z</time>
      </trkpt>
      <trkpt lat="45.07986" lon="6.1148">
        <ele>1779</ele>
        <time>2021-03-10T14:31:29Z</time>
      </trkpt>
      <trkpt lat="45.07987" lon="6.11478">
        <ele>1779.1</ele>
        <time>2021-03-10T14:31:30Z</time>
      </trkpt>
      <trkpt lat="45.07988" lon="6.11477">
        <ele>1779.2</ele>
        <time>2021-03-10T14:31:31Z</time>
      </trkpt>
      <trkpt lat="45.07989" lon="6.11475">
        <ele>1779.3</ele>
        <time>2021-03-10T14:31:32Z</time>
      </trkpt>
      <trkpt lat="45.0799" lon="6.11473">
        <ele>1779.3</ele>
        <time>2021-03-10T14:31:33Z</time>
      </trkpt>
      <trkpt lat="45.07991" lon="6.11472">
        <ele>1779.4</ele>
        <time>2021-03-10T14:31:34Z</time>
      </trkpt>
      <trkpt lat="45.07992" lon="6.1147">
        <ele>1779.5</ele>
        <time>2021-03-10T14:31:35Z</time>
      </trkpt>
      <trkpt lat="45.07992" lon="6.11468">
        <ele>1779.6</ele>
        <time>2021-03-10T14:31:36Z</time>
      </trkpt>
      <trkpt lat="45.07993" lon="6.11466">
        <ele>1779.7</ele>
        <time>2021-03-10T14:31:37Z</time>
      </trkpt>
      <trkpt lat="45.07994" lon="6.11463">
        <ele>1779.8</ele>
        <time>2021-03-10T14:31:38Z</time>
      </trkpt>
      <trkpt lat="45.07994" lon="6.11462">
        <ele>1779.9</ele>
        <time>2021-03-10T14:31:39Z</time>
      </trkpt>
      <trkpt lat="45.07994" lon="6.11461">
        <ele>1779.9</ele>
        <time>2021-03-10T14:31:40Z</time>
      </trkpt>
      <trkpt lat="45.07995" lon="6.11459">
        <ele>1780</ele>
        <time>2021-03-10T14:31:41Z</time>
      </trkpt>
      <trkpt lat="45.07996" lon="6.11458">
        <ele>1780.1</ele>
        <time>2021-03-10T14:31:42Z</time>
      </trkpt>
      <trkpt lat="45.07997" lon="6.11457">
        <ele>1780.1</ele>
        <time>2021-03-10T14:31:43Z</time>
      </trkpt>
      <trkpt lat="45.07997" lon="6.11456">
        <ele>1780.1</ele>
        <time>2021-03-10T14:31:44Z</time>
      </trkpt>
      <trkpt lat="45.07998" lon="6.11455">
        <ele>1780.2</ele>
        <time>2021-03-10T14:31:45Z</time>
      </trkpt>
      <trkpt lat="45.07998" lon="6.11455">
        <ele>1780.2</ele>
        <time>2021-03-10T14:31:46Z</time>
      </trkpt>
      <trkpt lat="45.07999" lon="6.11454">
        <ele>1780.3</ele>
        <time>2021-03-10T14:31:47Z</time>
      </trkpt>
      <trkpt lat="45.07999" lon="6.11453">
        <ele>1780.3</ele>
        <time>2021-03-10T14:31:48Z</time>
      </trkpt>
      <trkpt lat="45.08" lon="6.11452">
        <ele>1780.4</ele>
        <time>2021-03-10T14:31:49Z</time>
      </trkpt>
      <trkpt lat="45.08" lon="6.1145">
        <ele>1780.4</ele>
        <time>2021-03-10T14:31:50Z</time>
      </trkpt>
      <trkpt lat="45.08" lon="6.11449">
        <ele>1780.5</ele>
        <time>2021-03-10T14:31:51Z</time>
      </trkpt>
      <trkpt lat="45.08001" lon="6.11447">
        <ele>1780.6</ele>
        <time>2021-03-10T14:31:52Z</time>
      </trkpt>
      <trkpt lat="45.08001" lon="6.11446">
        <ele>1780.6</ele>
        <time>2021-03-10T14:31:53Z</time>
      </trkpt>
      <trkpt lat="45.08002" lon="6.11445">
        <ele>1780.7</ele>
        <time>2021-03-10T14:31:54Z</time>
      </trkpt>
      <trkpt lat="45.08003" lon="6.11443">
        <ele>1780.7</ele>
        <time>2021-03-10T14:31:55Z</time>
      </trkpt>
      <trkpt lat="45.08004" lon="6.11442">
        <ele>1780.8</ele>
        <time>2021-03-10T14:31:56Z</time>
      </trkpt>
      <trkpt lat="45.08004" lon="6.11441">
        <ele>1780.8</ele>
        <time>2021-03-10T14:31:57Z</time>
      </trkpt>
      <trkpt lat="45.08005" lon="6.1144">
        <ele>1780.9</ele>
        <time>2021-03-10T14:31:58Z</time>
      </trkpt>
      <trkpt lat="45.08005" lon="6.11438">
        <ele>1780.9</ele>
        <time>2021-03-10T14:31:59Z</time>
      </trkpt>
      <trkpt lat="45.08006" lon="6.11434">
        <ele>1781.1</ele>
        <time>2021-03-10T14:32:00Z</time>
      </trkpt>
      <trkpt lat="45.08007" lon="6.11433">
        <ele>1781.1</ele>
        <time>2021-03-10T14:32:01Z</time>
      </trkpt>
      <trkpt lat="45.08008" lon="6.11428">
        <ele>1781.3</ele>
        <time>2021-03-10T14:32:02Z</time>
      </trkpt>
      <trkpt lat="45.08009" lon="6.11427">
        <ele>1781.3</ele>
        <time>2021-03-10T14:32:03Z</time>
      </trkpt>
      <trkpt lat="45.0801" lon="6.11424">
        <ele>1781.4</ele>
        <time>2021-03-10T14:32:04Z</time>
      </trkpt>
      <trkpt lat="45.0801" lon="6.11423">
        <ele>1781.5</ele>
        <time>2021-03-10T14:32:05Z</time>
      </trkpt>
      <trkpt lat="45.08011" lon="6.11422">
        <ele>1781.5</ele>
        <time>2021-03-10T14:32:06Z</time>
      </trkpt>
      <trkpt lat="45.08012" lon="6.1142">
        <ele>1781.6</ele>
        <time>2021-03-10T14:32:07Z</time>
      </trkpt>
      <trkpt lat="45.08012" lon="6.11418">
        <ele>1781.6</ele>
        <time>2021-03-10T14:32:08Z</time>
      </trkpt>
      <trkpt lat="45.08013" lon="6.11417">
        <ele>1781.7</ele>
        <time>2021-03-10T14:32:09Z</time>
      </trkpt>
      <trkpt lat="45.08013" lon="6.11416">
        <ele>1781.7</ele>
        <time>2021-03-10T14:32:10Z</time>
      </trkpt>
      <trkpt lat="45.08014" lon="6.11415">
        <ele>1781.7</ele>
        <time>2021-03-10T14:32:11Z</time>
      </trkpt>
      <trkpt lat="45.08014" lon="6.11414">
        <ele>1781.8</ele>
        <time>2021-03-10T14:32:12Z</time>
      </trkpt>
      <trkpt lat="45.08014" lon="6.11413">
        <ele>1781.8</ele>
        <time>2021-03-10T14:32:13Z</time>
      </trkpt>
      <trkpt lat="45.08015" lon="6.11411">
        <ele>1781.9</ele>
        <time>2021-03-10T14:32:14Z</time>
      </trkpt>
      <trkpt lat="45.08015" lon="6.11408">
        <ele>1781.9</ele>
        <time>2021-03-10T14:32:15Z</time>
      </trkpt>
      <trkpt lat="45.08016" lon="6.11406">
        <ele>1782</ele>
        <time>2021-03-10T14:32:16Z</time>
      </trkpt>
      <trkpt lat="45.08016" lon="6.11404">
        <ele>1782.1</ele>
        <time>2021-03-10T14:32:17Z</time>
      </trkpt>
      <trkpt lat="45.08017" lon="6.11402">
        <ele>1782.1</ele>
        <time>2021-03-10T14:32:18Z</time>
      </trkpt>
      <trkpt lat="45.08017" lon="6.11401">
        <ele>1782.2</ele>
        <time>2021-03-10T14:32:19Z</time>
      </trkpt>
      <trkpt lat="45.08018" lon="6.11399">
        <ele>1782.2</ele>
        <time>2021-03-10T14:32:20Z</time>
      </trkpt>
      <trkpt lat="45.08018" lon="6.11398">
        <ele>1782.3</ele>
        <time>2021-03-10T14:32:21Z</time>
      </trkpt>
      <trkpt lat="45.08018" lon="6.11397">
        <ele>1782.3</ele>
        <time>2021-03-10T14:32:22Z</time>
      </trkpt>
      <trkpt lat="45.08018" lon="6.11396">
        <ele>1782.3</ele>
        <time>2021-03-10T14:32:23Z</time>
      </trkpt>
      <trkpt lat="45.08019" lon="6.11395">
        <ele>1782.4</ele>
        <time>2021-03-10T14:32:24Z</time>
      </trkpt>
      <trkpt lat="45.08019" lon="6.11393">
        <ele>1782.4</ele>
        <time>2021-03-10T14:32:25Z</time>
      </trkpt>
      <trkpt lat="45.08019" lon="6.11392">
        <ele>1782.4</ele>
        <time>2021-03-10T14:32:26Z</time>
      </trkpt>
      <trkpt lat="45.0802" lon="6.11391">
        <ele>1782.5</ele>
        <time>2021-03-10T14:32:27Z</time>
      </trkpt>
      <trkpt lat="45.0802" lon="6.1139">
        <ele>1782.5</ele>
        <time>2021-03-10T14:32:28Z</time>
      </trkpt>
      <trkpt lat="45.08021" lon="6.11389">
        <ele>1782.5</ele>
        <time>2021-03-10T14:32:29Z</time>
      </trkpt>
      <trkpt lat="45.08021" lon="6.11388">
        <ele>1782.6</ele>
        <time>2021-03-10T14:32:30Z</time>
      </trkpt>
      <trkpt lat="45.08021" lon="6.11387">
        <ele>1782.6</ele>
        <time>2021-03-10T14:32:31Z</time>
      </trkpt>
      <trkpt lat="45.08022" lon="6.11386">
        <ele>1782.7</ele>
        <time>2021-03-10T14:32:32Z</time>
      </trkpt>
      <trkpt lat="45.08022" lon="6.11384">
        <ele>1782.7</ele>
        <time>2021-03-10T14:32:33Z</time>
      </trkpt>
      <trkpt lat="45.08022" lon="6.11383">
        <ele>1782.7</ele>
        <time>2021-03-10T14:32:34Z</time>
      </trkpt>
      <trkpt lat="45.08022" lon="6.11382">
        <ele>1782.8</ele>
        <time>2021-03-10T14:32:35Z</time>
      </trkpt>
      <trkpt lat="45.08023" lon="6.1138">
        <ele>1782.8</ele>
        <time>2021-03-10T14:32:36Z</time>
      </trkpt>
      <trkpt lat="45.08023" lon="6.11379">
        <ele>1782.9</ele>
        <time>2021-03-10T14:32:37Z</time>
      </trkpt>
      <trkpt lat="45.08023" lon="6.11378">
        <ele>1782.9</ele>
        <time>2021-03-10T14:32:38Z</time>
      </trkpt>
      <trkpt lat="45.08023" lon="6.11376">
        <ele>1782.9</ele>
        <time>2021-03-10T14:32:39Z</time>
      </trkpt>
      <trkpt lat="45.08023" lon="6.11375">
        <ele>1783</ele>
        <time>2021-03-10T14:32:40Z</time>
      </trkpt>
      <trkpt lat="45.08024" lon="6.11374">
        <ele>1783</ele>
        <time>2021-03-10T14:32:41Z</time>
      </trkpt>
      <trkpt lat="45.08024" lon="6.11371">
        <ele>1783.1</ele>
        <time>2021-03-10T14:32:42Z</time>
      </trkpt>
      <trkpt lat="45.08024" lon="6.1137">
        <ele>1783.2</ele>
        <time>2021-03-10T14:32:43Z</time>
      </trkpt>
      <trkpt lat="45.08024" lon="6.11368">
        <ele>1783.2</ele>
        <time>2021-03-10T14:32:44Z</time>
      </trkpt>
      <trkpt lat="45.08025" lon="6.11367">
        <ele>1783.3</ele>
        <time>2021-03-10T14:32:45Z</time>
      </trkpt>
      <trkpt lat="45.08025" lon="6.11365">
        <ele>1783.3</ele>
        <time>2021-03-10T14:32:46Z</time>
      </trkpt>
      <trkpt lat="45.08025" lon="6.11364">
        <ele>1783.4</ele>
        <time>2021-03-10T14:32:47Z</time>
      </trkpt>
      <trkpt lat="45.08025" lon="6.11362">
        <ele>1783.4</ele>
        <time>2021-03-10T14:32:48Z</time>
      </trkpt>
      <trkpt lat="45.08025" lon="6.11361">
        <ele>1783.4</ele>
        <time>2021-03-10T14:32:49Z</time>
      </trkpt>
      <trkpt lat="45.08025" lon="6.1136">
        <ele>1783.5</ele>
        <time>2021-03-10T14:32:50Z</time>
      </trkpt>
      <trkpt lat="45.08026" lon="6.11358">
        <ele>1783.5</ele>
        <time>2021-03-10T14:32:51Z</time>
      </trkpt>
      <trkpt lat="45.08026" lon="6.11356">
        <ele>1783.6</ele>
        <time>2021-03-10T14:32:52Z</time>
      </trkpt>
      <trkpt lat="45.08026" lon="6.11355">
        <ele>1783.6</ele>
        <time>2021-03-10T14:32:53Z</time>
      </trkpt>
      <trkpt lat="45.08027" lon="6.11354">
        <ele>1783.7</ele>
        <time>2021-03-10T14:32:54Z</time>
      </trkpt>
      <trkpt lat="45.08027" lon="6.11353">
        <ele>1783.7</ele>
        <time>2021-03-10T14:32:55Z</time>
      </trkpt>
      <trkpt lat="45.08028" lon="6.11352">
        <ele>1783.8</ele>
        <time>2021-03-10T14:32:56Z</time>
      </trkpt>
      <trkpt lat="45.08028" lon="6.11351">
        <ele>1783.8</ele>
        <time>2021-03-10T14:32:57Z</time>
      </trkpt>
      <trkpt lat="45.08029" lon="6.11349">
        <ele>1783.8</ele>
        <time>2021-03-10T14:32:58Z</time>
      </trkpt>
      <trkpt lat="45.08029" lon="6.11348">
        <ele>1783.9</ele>
        <time>2021-03-10T14:32:59Z</time>
      </trkpt>
      <trkpt lat="45.08029" lon="6.11346">
        <ele>1783.9</ele>
        <time>2021-03-10T14:33:00Z</time>
      </trkpt>
      <trkpt lat="45.0803" lon="6.11345">
        <ele>1784</ele>
        <time>2021-03-10T14:33:01Z</time>
      </trkpt>
      <trkpt lat="45.0803" lon="6.11344">
        <ele>1784</ele>
        <time>2021-03-10T14:33:02Z</time>
      </trkpt>
      <trkpt lat="45.0803" lon="6.11343">
        <ele>1784</ele>
        <time>2021-03-10T14:33:03Z</time>
      </trkpt>
      <trkpt lat="45.0803" lon="6.11343">
        <ele>1784</ele>
        <time>2021-03-10T14:33:04Z</time>
      </trkpt>
      <trkpt lat="45.0803" lon="6.11343">
        <ele>1784</ele>
        <time>2021-03-10T14:33:05Z</time>
      </trkpt>
      <trkpt lat="45.0803" lon="6.11343">
        <ele>1784</ele>
        <time>2021-03-10T14:33:06Z</time>
      </trkpt>
      <trkpt lat="45.0803" lon="6.11343">
        <ele>1784</ele>
        <time>2021-03-10T14:33:07Z</time>
      </trkpt>
      <trkpt lat="45.0803" lon="6.11343">
        <ele>1784</ele>
        <time>2021-03-10T14:33:08Z</time>
      </trkpt>
      <trkpt lat="45.0803" lon="6.11342">
        <ele>1784.1</ele>
        <time>2021-03-10T14:33:09Z</time>
      </trkpt>
      <trkpt lat="45.08031" lon="6.11341">
        <ele>1784.1</ele>
        <time>2021-03-10T14:33:10Z</time>
      </trkpt>
      <trkpt lat="45.08031" lon="6.1134">
        <ele>1784.2</ele>
        <time>2021-03-10T14:33:11Z</time>
      </trkpt>
      <trkpt lat="45.08032" lon="6.11337">
        <ele>1784.3</ele>
        <time>2021-03-10T14:33:12Z</time>
      </trkpt>
      <trkpt lat="45.08032" lon="6.11336">
        <ele>1784.3</ele>
        <time>2021-03-10T14:33:13Z</time>
      </trkpt>
      <trkpt lat="45.08032" lon="6.11335">
        <ele>1784.3</ele>
        <time>2021-03-10T14:33:14Z</time>
      </trkpt>
      <trkpt lat="45.08032" lon="6.11333">
        <ele>1784.4</ele>
        <time>2021-03-10T14:33:15Z</time>
      </trkpt>
      <trkpt lat="45.08032" lon="6.1133">
        <ele>1784.5</ele>
        <time>2021-03-10T14:33:16Z</time>
      </trkpt>
      <trkpt lat="45.08033" lon="6.11325">
        <ele>1784.7</ele>
        <time>2021-03-10T14:33:17Z</time>
      </trkpt>
      <trkpt lat="45.08033" lon="6.11323">
        <ele>1784.7</ele>
        <time>2021-03-10T14:33:18Z</time>
      </trkpt>
      <trkpt lat="45.08033" lon="6.11321">
        <ele>1784.8</ele>
        <time>2021-03-10T14:33:19Z</time>
      </trkpt>
      <trkpt lat="45.08034" lon="6.11319">
        <ele>1784.9</ele>
        <time>2021-03-10T14:33:20Z</time>
      </trkpt>
      <trkpt lat="45.08034" lon="6.11316">
        <ele>1784.9</ele>
        <time>2021-03-10T14:33:21Z</time>
      </trkpt>
      <trkpt lat="45.08035" lon="6.11315">
        <ele>1785</ele>
        <time>2021-03-10T14:33:22Z</time>
      </trkpt>
      <trkpt lat="45.08036" lon="6.11312">
        <ele>1785.1</ele>
        <time>2021-03-10T14:33:23Z</time>
      </trkpt>
      <trkpt lat="45.08036" lon="6.11311">
        <ele>1785.1</ele>
        <time>2021-03-10T14:33:24Z</time>
      </trkpt>
      <trkpt lat="45.08036" lon="6.1131">
        <ele>1785.2</ele>
        <time>2021-03-10T14:33:25Z</time>
      </trkpt>
      <trkpt lat="45.08037" lon="6.11307">
        <ele>1785.3</ele>
        <time>2021-03-10T14:33:26Z</time>
      </trkpt>
      <trkpt lat="45.08037" lon="6.11306">
        <ele>1785.3</ele>
        <time>2021-03-10T14:33:27Z</time>
      </trkpt>
      <trkpt lat="45.08038" lon="6.11304">
        <ele>1785.4</ele>
        <time>2021-03-10T14:33:28Z</time>
      </trkpt>
      <trkpt lat="45.08038" lon="6.11302">
        <ele>1785.4</ele>
        <time>2021-03-10T14:33:29Z</time>
      </trkpt>
      <trkpt lat="45.08039" lon="6.113">
        <ele>1785.5</ele>
        <time>2021-03-10T14:33:30Z</time>
      </trkpt>
      <trkpt lat="45.08039" lon="6.11297">
        <ele>1785.6</ele>
        <time>2021-03-10T14:33:31Z</time>
      </trkpt>
      <trkpt lat="45.0804" lon="6.11295">
        <ele>1785.6</ele>
        <time>2021-03-10T14:33:32Z</time>
      </trkpt>
      <trkpt lat="45.0804" lon="6.11293">
        <ele>1785.7</ele>
        <time>2021-03-10T14:33:33Z</time>
      </trkpt>
      <trkpt lat="45.08041" lon="6.11291">
        <ele>1785.7</ele>
        <time>2021-03-10T14:33:34Z</time>
      </trkpt>
      <trkpt lat="45.08041" lon="6.11288">
        <ele>1785.8</ele>
        <time>2021-03-10T14:33:35Z</time>
      </trkpt>
      <trkpt lat="45.08042" lon="6.11287">
        <ele>1785.8</ele>
        <time>2021-03-10T14:33:36Z</time>
      </trkpt>
      <trkpt lat="45.08042" lon="6.11286">
        <ele>1785.9</ele>
        <time>2021-03-10T14:33:37Z</time>
      </trkpt>
      <trkpt lat="45.08042" lon="6.11283">
        <ele>1785.9</ele>
        <time>2021-03-10T14:33:38Z</time>
      </trkpt>
      <trkpt lat="45.08042" lon="6.11281">
        <ele>1786</ele>
        <time>2021-03-10T14:33:39Z</time>
      </trkpt>
      <trkpt lat="45.08042" lon="6.11279">
        <ele>1786</ele>
        <time>2021-03-10T14:33:40Z</time>
      </trkpt>
      <trkpt lat="45.08042" lon="6.11278">
        <ele>1786</ele>
        <time>2021-03-10T14:33:41Z</time>
      </trkpt>
      <trkpt lat="45.08042" lon="6.11277">
        <ele>1786</ele>
        <time>2021-03-10T14:33:42Z</time>
      </trkpt>
      <trkpt lat="45.08041" lon="6.11276">
        <ele>1786.1</ele>
        <time>2021-03-10T14:33:43Z</time>
      </trkpt>
      <trkpt lat="45.08041" lon="6.11274">
        <ele>1786.1</ele>
        <time>2021-03-10T14:33:44Z</time>
      </trkpt>
      <trkpt lat="45.0804" lon="6.11273">
        <ele>1786.1</ele>
        <time>2021-03-10T14:33:45Z</time>
      </trkpt>
      <trkpt lat="45.0804" lon="6.11271">
        <ele>1786.1</ele>
        <time>2021-03-10T14:33:46Z</time>
      </trkpt>
      <trkpt lat="45.08039" lon="6.1127">
        <ele>1786.2</ele>
        <time>2021-03-10T14:33:47Z</time>
      </trkpt>
      <trkpt lat="45.08039" lon="6.11268">
        <ele>1786.2</ele>
        <time>2021-03-10T14:33:48Z</time>
      </trkpt>
      <trkpt lat="45.08038" lon="6.11267">
        <ele>1786.2</ele>
        <time>2021-03-10T14:33:49Z</time>
      </trkpt>
      <trkpt lat="45.08038" lon="6.11266">
        <ele>1786.2</ele>
        <time>2021-03-10T14:33:50Z</time>
      </trkpt>
      <trkpt lat="45.08037" lon="6.11265">
        <ele>1786.2</ele>
        <time>2021-03-10T14:33:51Z</time>
      </trkpt>
      <trkpt lat="45.08037" lon="6.11263">
        <ele>1786.2</ele>
        <time>2021-03-10T14:33:52Z</time>
      </trkpt>
      <trkpt lat="45.08037" lon="6.11262">
        <ele>1786.2</ele>
        <time>2021-03-10T14:33:53Z</time>
      </trkpt>
      <trkpt lat="45.08037" lon="6.1126">
        <ele>1786.3</ele>
        <time>2021-03-10T14:33:54Z</time>
      </trkpt>
      <trkpt lat="45.08037" lon="6.11258">
        <ele>1786.3</ele>
        <time>2021-03-10T14:33:55Z</time>
      </trkpt>
      <trkpt lat="45.08037" lon="6.11256">
        <ele>1786.3</ele>
        <time>2021-03-10T14:33:56Z</time>
      </trkpt>
      <trkpt lat="45.08037" lon="6.11254">
        <ele>1786.3</ele>
        <time>2021-03-10T14:33:57Z</time>
      </trkpt>
      <trkpt lat="45.08037" lon="6.11251">
        <ele>1786.3</ele>
        <time>2021-03-10T14:33:58Z</time>
      </trkpt>
      <trkpt lat="45.08037" lon="6.11248">
        <ele>1786.3</ele>
        <time>2021-03-10T14:33:59Z</time>
      </trkpt>
      <trkpt lat="45.08037" lon="6.11247">
        <ele>1786.4</ele>
        <time>2021-03-10T14:34:00Z</time>
      </trkpt>
      <trkpt lat="45.08037" lon="6.11246">
        <ele>1786.4</ele>
        <time>2021-03-10T14:34:01Z</time>
      </trkpt>
      <trkpt lat="45.08037" lon="6.11245">
        <ele>1786.4</ele>
        <time>2021-03-10T14:34:02Z</time>
      </trkpt>
      <trkpt lat="45.08036" lon="6.11243">
        <ele>1786.4</ele>
        <time>2021-03-10T14:34:03Z</time>
      </trkpt>
      <trkpt lat="45.08036" lon="6.11241">
        <ele>1786.4</ele>
        <time>2021-03-10T14:34:04Z</time>
      </trkpt>
      <trkpt lat="45.08036" lon="6.1124">
        <ele>1786.4</ele>
        <time>2021-03-10T14:34:05Z</time>
      </trkpt>
      <trkpt lat="45.08035" lon="6.11238">
        <ele>1786.4</ele>
        <time>2021-03-10T14:34:06Z</time>
      </trkpt>
      <trkpt lat="45.08034" lon="6.11236">
        <ele>1786.4</ele>
        <time>2021-03-10T14:34:07Z</time>
      </trkpt>
      <trkpt lat="45.08034" lon="6.11235">
        <ele>1786.4</ele>
        <time>2021-03-10T14:34:08Z</time>
      </trkpt>
      <trkpt lat="45.08033" lon="6.11233">
        <ele>1786.4</ele>
        <time>2021-03-10T14:34:09Z</time>
      </trkpt>
      <trkpt lat="45.08033" lon="6.11232">
        <ele>1786.4</ele>
        <time>2021-03-10T14:34:10Z</time>
      </trkpt>
      <trkpt lat="45.08032" lon="6.11231">
        <ele>1786.4</ele>
        <time>2021-03-10T14:34:11Z</time>
      </trkpt>
      <trkpt lat="45.08032" lon="6.1123">
        <ele>1786.4</ele>
        <time>2021-03-10T14:34:12Z</time>
      </trkpt>
      <trkpt lat="45.08032" lon="6.11228">
        <ele>1786.5</ele>
        <time>2021-03-10T14:34:13Z</time>
      </trkpt>
      <trkpt lat="45.08032" lon="6.11227">
        <ele>1786.5</ele>
        <time>2021-03-10T14:34:14Z</time>
      </trkpt>
      <trkpt lat="45.08032" lon="6.11226">
        <ele>1786.5</ele>
        <time>2021-03-10T14:34:15Z</time>
      </trkpt>
      <trkpt lat="45.08032" lon="6.11224">
        <ele>1786.5</ele>
        <time>2021-03-10T14:34:16Z</time>
      </trkpt>
      <trkpt lat="45.08032" lon="6.11223">
        <ele>1786.5</ele>
        <time>2021-03-10T14:34:17Z</time>
      </trkpt>
      <trkpt lat="45.08032" lon="6.11221">
        <ele>1786.5</ele>
        <time>2021-03-10T14:34:18Z</time>
      </trkpt>
      <trkpt lat="45.08031" lon="6.11218">
        <ele>1786.5</ele>
        <time>2021-03-10T14:34:19Z</time>
      </trkpt>
      <trkpt lat="45.08032" lon="6.11216">
        <ele>1786.5</ele>
        <time>2021-03-10T14:34:20Z</time>
      </trkpt>
      <trkpt lat="45.08032" lon="6.11214">
        <ele>1786.5</ele>
        <time>2021-03-10T14:34:21Z</time>
      </trkpt>
      <trkpt lat="45.08032" lon="6.11212">
        <ele>1786.5</ele>
        <time>2021-03-10T14:34:22Z</time>
      </trkpt>
      <trkpt lat="45.08032" lon="6.1121">
        <ele>1786.5</ele>
        <time>2021-03-10T14:34:23Z</time>
      </trkpt>
      <trkpt lat="45.08032" lon="6.11207">
        <ele>1786.5</ele>
        <time>2021-03-10T14:34:24Z</time>
      </trkpt>
      <trkpt lat="45.08032" lon="6.11205">
        <ele>1786.5</ele>
        <time>2021-03-10T14:34:25Z</time>
      </trkpt>
      <trkpt lat="45.08032" lon="6.11201">
        <ele>1786.5</ele>
        <time>2021-03-10T14:34:26Z</time>
      </trkpt>
      <trkpt lat="45.08032" lon="6.112">
        <ele>1786.5</ele>
        <time>2021-03-10T14:34:27Z</time>
      </trkpt>
      <trkpt lat="45.08032" lon="6.11197">
        <ele>1786.5</ele>
        <time>2021-03-10T14:34:28Z</time>
      </trkpt>
      <trkpt lat="45.08032" lon="6.11195">
        <ele>1786.5</ele>
        <time>2021-03-10T14:34:29Z</time>
      </trkpt>
      <trkpt lat="45.08032" lon="6.11193">
        <ele>1786.5</ele>
        <time>2021-03-10T14:34:30Z</time>
      </trkpt>
      <trkpt lat="45.08032" lon="6.11191">
        <ele>1786.5</ele>
        <time>2021-03-10T14:34:31Z</time>
      </trkpt>
      <trkpt lat="45.08032" lon="6.11189">
        <ele>1786.5</ele>
        <time>2021-03-10T14:34:32Z</time>
      </trkpt>
      <trkpt lat="45.08032" lon="6.11187">
        <ele>1786.4</ele>
        <time>2021-03-10T14:34:33Z</time>
      </trkpt>
      <trkpt lat="45.08032" lon="6.11184">
        <ele>1786.4</ele>
        <time>2021-03-10T14:34:34Z</time>
      </trkpt>
      <trkpt lat="45.08033" lon="6.11182">
        <ele>1786.4</ele>
        <time>2021-03-10T14:34:35Z</time>
      </trkpt>
      <trkpt lat="45.08033" lon="6.11179">
        <ele>1786.4</ele>
        <time>2021-03-10T14:34:36Z</time>
      </trkpt>
      <trkpt lat="45.08033" lon="6.11177">
        <ele>1786.4</ele>
        <time>2021-03-10T14:34:37Z</time>
      </trkpt>
      <trkpt lat="45.08033" lon="6.11172">
        <ele>1786.4</ele>
        <time>2021-03-10T14:34:38Z</time>
      </trkpt>
      <trkpt lat="45.08032" lon="6.11171">
        <ele>1786.4</ele>
        <time>2021-03-10T14:34:39Z</time>
      </trkpt>
      <trkpt lat="45.08032" lon="6.11169">
        <ele>1786.4</ele>
        <time>2021-03-10T14:34:40Z</time>
      </trkpt>
      <trkpt lat="45.08032" lon="6.11167">
        <ele>1786.4</ele>
        <time>2021-03-10T14:34:41Z</time>
      </trkpt>
      <trkpt lat="45.08032" lon="6.11164">
        <ele>1786.4</ele>
        <time>2021-03-10T14:34:42Z</time>
      </trkpt>
      <trkpt lat="45.08032" lon="6.11163">
        <ele>1786.4</ele>
        <time>2021-03-10T14:34:43Z</time>
      </trkpt>
      <trkpt lat="45.08032" lon="6.11161">
        <ele>1786.4</ele>
        <time>2021-03-10T14:34:44Z</time>
      </trkpt>
      <trkpt lat="45.08031" lon="6.11159">
        <ele>1786.4</ele>
        <time>2021-03-10T14:34:45Z</time>
      </trkpt>
      <trkpt lat="45.08031" lon="6.11157">
        <ele>1786.4</ele>
        <time>2021-03-10T14:34:46Z</time>
      </trkpt>
      <trkpt lat="45.08031" lon="6.11154">
        <ele>1786.4</ele>
        <time>2021-03-10T14:34:47Z</time>
      </trkpt>
      <trkpt lat="45.08031" lon="6.11153">
        <ele>1786.4</ele>
        <time>2021-03-10T14:34:48Z</time>
      </trkpt>
      <trkpt lat="45.08031" lon="6.11152">
        <ele>1786.4</ele>
        <time>2021-03-10T14:34:49Z</time>
      </trkpt>
      <trkpt lat="45.08031" lon="6.11149">
        <ele>1786.4</ele>
        <time>2021-03-10T14:34:50Z</time>
      </trkpt>
      <trkpt lat="45.08031" lon="6.11147">
        <ele>1786.4</ele>
        <time>2021-03-10T14:34:51Z</time>
      </trkpt>
      <trkpt lat="45.08031" lon="6.11145">
        <ele>1786.4</ele>
        <time>2021-03-10T14:34:52Z</time>
      </trkpt>
      <trkpt lat="45.08032" lon="6.11143">
        <ele>1786.4</ele>
        <time>2021-03-10T14:34:53Z</time>
      </trkpt>
      <trkpt lat="45.08032" lon="6.1114">
        <ele>1786.4</ele>
        <time>2021-03-10T14:34:54Z</time>
      </trkpt>
      <trkpt lat="45.08032" lon="6.11138">
        <ele>1786.4</ele>
        <time>2021-03-10T14:34:55Z</time>
      </trkpt>
      <trkpt lat="45.08032" lon="6.11137">
        <ele>1786.3</ele>
        <time>2021-03-10T14:34:56Z</time>
      </trkpt>
      <trkpt lat="45.08032" lon="6.11134">
        <ele>1786.3</ele>
        <time>2021-03-10T14:34:57Z</time>
      </trkpt>
      <trkpt lat="45.08032" lon="6.11133">
        <ele>1786.3</ele>
        <time>2021-03-10T14:34:58Z</time>
      </trkpt>
      <trkpt lat="45.08032" lon="6.11132">
        <ele>1786.3</ele>
        <time>2021-03-10T14:34:59Z</time>
      </trkpt>
      <trkpt lat="45.08032" lon="6.11131">
        <ele>1786.3</ele>
        <time>2021-03-10T14:35:00Z</time>
      </trkpt>
      <trkpt lat="45.08032" lon="6.11129">
        <ele>1786.3</ele>
        <time>2021-03-10T14:35:01Z</time>
      </trkpt>
      <trkpt lat="45.08032" lon="6.11128">
        <ele>1786.3</ele>
        <time>2021-03-10T14:35:02Z</time>
      </trkpt>
      <trkpt lat="45.08032" lon="6.11127">
        <ele>1786.3</ele>
        <time>2021-03-10T14:35:03Z</time>
      </trkpt>
      <trkpt lat="45.08032" lon="6.11126">
        <ele>1786.3</ele>
        <time>2021-03-10T14:35:04Z</time>
      </trkpt>
      <trkpt lat="45.08032" lon="6.11124">
        <ele>1786.3</ele>
        <time>2021-03-10T14:35:05Z</time>
      </trkpt>
      <trkpt lat="45.08032" lon="6.11124">
        <ele>1786.3</ele>
        <time>2021-03-10T14:35:06Z</time>
      </trkpt>
      <trkpt lat="45.08032" lon="6.11124">
        <ele>1786.3</ele>
        <time>2021-03-10T14:35:07Z</time>
      </trkpt>
      <trkpt lat="45.08032" lon="6.11124">
        <ele>1786.3</ele>
        <time>2021-03-10T14:35:08Z</time>
      </trkpt>
      <trkpt lat="45.08032" lon="6.11124">
        <ele>1786.3</ele>
        <time>2021-03-10T14:35:09Z</time>
      </trkpt>
      <trkpt lat="45.08032" lon="6.11124">
        <ele>1786.3</ele>
        <time>2021-03-10T14:35:10Z</time>
      </trkpt>
      <trkpt lat="45.08032" lon="6.11124">
        <ele>1786.3</ele>
        <time>2021-03-10T14:35:11Z</time>
      </trkpt>
      <trkpt lat="45.08032" lon="6.11124">
        <ele>1786.3</ele>
        <time>2021-03-10T14:35:12Z</time>
      </trkpt>
      <trkpt lat="45.08033" lon="6.11124">
        <ele>1786.3</ele>
        <time>2021-03-10T14:35:13Z</time>
      </trkpt>
      <trkpt lat="45.08034" lon="6.11123">
        <ele>1786.3</ele>
        <time>2021-03-10T14:35:14Z</time>
      </trkpt>
      <trkpt lat="45.08034" lon="6.11121">
        <ele>1786.3</ele>
        <time>2021-03-10T14:35:15Z</time>
      </trkpt>
      <trkpt lat="45.08034" lon="6.1112">
        <ele>1786.3</ele>
        <time>2021-03-10T14:35:16Z</time>
      </trkpt>
      <trkpt lat="45.08034" lon="6.11118">
        <ele>1786.3</ele>
        <time>2021-03-10T14:35:17Z</time>
      </trkpt>
      <trkpt lat="45.08034" lon="6.11116">
        <ele>1786.3</ele>
        <time>2021-03-10T14:35:18Z</time>
      </trkpt>
      <trkpt lat="45.08033" lon="6.11114">
        <ele>1786.3</ele>
        <time>2021-03-10T14:35:19Z</time>
      </trkpt>
      <trkpt lat="45.08033" lon="6.11111">
        <ele>1786.3</ele>
        <time>2021-03-10T14:35:20Z</time>
      </trkpt>
      <trkpt lat="45.08033" lon="6.11109">
        <ele>1786.3</ele>
        <time>2021-03-10T14:35:21Z</time>
      </trkpt>
      <trkpt lat="45.08033" lon="6.11107">
        <ele>1786.3</ele>
        <time>2021-03-10T14:35:22Z</time>
      </trkpt>
      <trkpt lat="45.08033" lon="6.11105">
        <ele>1786.3</ele>
        <time>2021-03-10T14:35:23Z</time>
      </trkpt>
      <trkpt lat="45.08033" lon="6.11104">
        <ele>1786.3</ele>
        <time>2021-03-10T14:35:24Z</time>
      </trkpt>
      <trkpt lat="45.08033" lon="6.11103">
        <ele>1786.3</ele>
        <time>2021-03-10T14:35:25Z</time>
      </trkpt>
      <trkpt lat="45.08033" lon="6.11101">
        <ele>1786.3</ele>
        <time>2021-03-10T14:35:26Z</time>
      </trkpt>
      <trkpt lat="45.08032" lon="6.111">
        <ele>1786.3</ele>
        <time>2021-03-10T14:35:27Z</time>
      </trkpt>
      <trkpt lat="45.08032" lon="6.11098">
        <ele>1786.3</ele>
        <time>2021-03-10T14:35:28Z</time>
      </trkpt>
      <trkpt lat="45.08031" lon="6.11095">
        <ele>1786.4</ele>
        <time>2021-03-10T14:35:29Z</time>
      </trkpt>
      <trkpt lat="45.08031" lon="6.11094">
        <ele>1786.4</ele>
        <time>2021-03-10T14:35:30Z</time>
      </trkpt>
      <trkpt lat="45.08031" lon="6.11093">
        <ele>1786.4</ele>
        <time>2021-03-10T14:35:31Z</time>
      </trkpt>
      <trkpt lat="45.08031" lon="6.11091">
        <ele>1786.4</ele>
        <time>2021-03-10T14:35:32Z</time>
      </trkpt>
      <trkpt lat="45.0803" lon="6.11088">
        <ele>1786.4</ele>
        <time>2021-03-10T14:35:33Z</time>
      </trkpt>
      <trkpt lat="45.0803" lon="6.11085">
        <ele>1786.4</ele>
        <time>2021-03-10T14:35:34Z</time>
      </trkpt>
      <trkpt lat="45.0803" lon="6.11084">
        <ele>1786.4</ele>
        <time>2021-03-10T14:35:35Z</time>
      </trkpt>
      <trkpt lat="45.0803" lon="6.11083">
        <ele>1786.4</ele>
        <time>2021-03-10T14:35:36Z</time>
      </trkpt>
      <trkpt lat="45.08029" lon="6.11081">
        <ele>1786.5</ele>
        <time>2021-03-10T14:35:37Z</time>
      </trkpt>
      <trkpt lat="45.08029" lon="6.11079">
        <ele>1786.5</ele>
        <time>2021-03-10T14:35:38Z</time>
      </trkpt>
      <trkpt lat="45.08028" lon="6.11076">
        <ele>1786.5</ele>
        <time>2021-03-10T14:35:39Z</time>
      </trkpt>
      <trkpt lat="45.08027" lon="6.11075">
        <ele>1786.5</ele>
        <time>2021-03-10T14:35:40Z</time>
      </trkpt>
      <trkpt lat="45.08027" lon="6.11074">
        <ele>1786.5</ele>
        <time>2021-03-10T14:35:41Z</time>
      </trkpt>
      <trkpt lat="45.08026" lon="6.11072">
        <ele>1786.5</ele>
        <time>2021-03-10T14:35:42Z</time>
      </trkpt>
      <trkpt lat="45.08026" lon="6.1107">
        <ele>1786.5</ele>
        <time>2021-03-10T14:35:43Z</time>
      </trkpt>
      <trkpt lat="45.08025" lon="6.11069">
        <ele>1786.5</ele>
        <time>2021-03-10T14:35:44Z</time>
      </trkpt>
      <trkpt lat="45.08025" lon="6.11067">
        <ele>1786.6</ele>
        <time>2021-03-10T14:35:45Z</time>
      </trkpt>
      <trkpt lat="45.08025" lon="6.11065">
        <ele>1786.6</ele>
        <time>2021-03-10T14:35:46Z</time>
      </trkpt>
      <trkpt lat="45.08024" lon="6.11063">
        <ele>1786.6</ele>
        <time>2021-03-10T14:35:47Z</time>
      </trkpt>
      <trkpt lat="45.08024" lon="6.11061">
        <ele>1786.6</ele>
        <time>2021-03-10T14:35:48Z</time>
      </trkpt>
      <trkpt lat="45.08024" lon="6.11059">
        <ele>1786.6</ele>
        <time>2021-03-10T14:35:49Z</time>
      </trkpt>
      <trkpt lat="45.08024" lon="6.11056">
        <ele>1786.6</ele>
        <time>2021-03-10T14:35:50Z</time>
      </trkpt>
      <trkpt lat="45.08024" lon="6.11054">
        <ele>1786.6</ele>
        <time>2021-03-10T14:35:51Z</time>
      </trkpt>
      <trkpt lat="45.08023" lon="6.11053">
        <ele>1786.6</ele>
        <time>2021-03-10T14:35:52Z</time>
      </trkpt>
      <trkpt lat="45.08023" lon="6.11052">
        <ele>1786.6</ele>
        <time>2021-03-10T14:35:53Z</time>
      </trkpt>
      <trkpt lat="45.08023" lon="6.11052">
        <ele>1786.6</ele>
        <time>2021-03-10T14:35:54Z</time>
      </trkpt>
      <trkpt lat="45.08023" lon="6.11052">
        <ele>1786.6</ele>
        <time>2021-03-10T14:35:55Z</time>
      </trkpt>
      <trkpt lat="45.08023" lon="6.11052">
        <ele>1786.6</ele>
        <time>2021-03-10T14:35:56Z</time>
      </trkpt>
      <trkpt lat="45.08023" lon="6.11052">
        <ele>1786.6</ele>
        <time>2021-03-10T14:35:57Z</time>
      </trkpt>
      <trkpt lat="45.08023" lon="6.11052">
        <ele>1786.6</ele>
        <time>2021-03-10T14:35:58Z</time>
      </trkpt>
      <trkpt lat="45.08023" lon="6.11052">
        <ele>1786.6</ele>
        <time>2021-03-10T14:35:59Z</time>
      </trkpt>
      <trkpt lat="45.08023" lon="6.11052">
        <ele>1786.6</ele>
        <time>2021-03-10T14:36:00Z</time>
      </trkpt>
      <trkpt lat="45.08021" lon="6.11056">
        <ele>1786.6</ele>
        <time>2021-03-10T14:36:01Z</time>
      </trkpt>
      <trkpt lat="45.0802" lon="6.11054">
        <ele>1786.7</ele>
        <time>2021-03-10T14:36:02Z</time>
      </trkpt>
      <trkpt lat="45.08019" lon="6.11051">
        <ele>1786.7</ele>
        <time>2021-03-10T14:36:26Z</time>
      </trkpt>
      <trkpt lat="45.08018" lon="6.11048">
        <ele>1786.7</ele>
        <time>2021-03-10T14:36:27Z</time>
      </trkpt>
      <trkpt lat="45.08017" lon="6.11045">
        <ele>1786.7</ele>
        <time>2021-03-10T14:36:28Z</time>
      </trkpt>
      <trkpt lat="45.08017" lon="6.11043">
        <ele>1786.7</ele>
        <time>2021-03-10T14:36:29Z</time>
      </trkpt>
      <trkpt lat="45.08017" lon="6.11041">
        <ele>1786.7</ele>
        <time>2021-03-10T14:36:30Z</time>
      </trkpt>
      <trkpt lat="45.08018" lon="6.11038">
        <ele>1786.7</ele>
        <time>2021-03-10T14:36:31Z</time>
      </trkpt>
      <trkpt lat="45.08018" lon="6.11036">
        <ele>1786.7</ele>
        <time>2021-03-10T14:36:32Z</time>
      </trkpt>
      <trkpt lat="45.08018" lon="6.11035">
        <ele>1786.7</ele>
        <time>2021-03-10T14:36:33Z</time>
      </trkpt>
      <trkpt lat="45.08018" lon="6.11033">
        <ele>1786.8</ele>
        <time>2021-03-10T14:36:34Z</time>
      </trkpt>
      <trkpt lat="45.08018" lon="6.11032">
        <ele>1786.8</ele>
        <time>2021-03-10T14:36:35Z</time>
      </trkpt>
      <trkpt lat="45.08019" lon="6.11031">
        <ele>1786.8</ele>
        <time>2021-03-10T14:36:36Z</time>
      </trkpt>
      <trkpt lat="45.08019" lon="6.11029">
        <ele>1786.8</ele>
        <time>2021-03-10T14:36:37Z</time>
      </trkpt>
      <trkpt lat="45.08019" lon="6.11028">
        <ele>1786.8</ele>
        <time>2021-03-10T14:36:38Z</time>
      </trkpt>
      <trkpt lat="45.0802" lon="6.11026">
        <ele>1786.8</ele>
        <time>2021-03-10T14:36:39Z</time>
      </trkpt>
      <trkpt lat="45.0802" lon="6.11025">
        <ele>1786.8</ele>
        <time>2021-03-10T14:36:40Z</time>
      </trkpt>
      <trkpt lat="45.0802" lon="6.11023">
        <ele>1786.8</ele>
        <time>2021-03-10T14:36:41Z</time>
      </trkpt>
      <trkpt lat="45.08019" lon="6.11022">
        <ele>1786.8</ele>
        <time>2021-03-10T14:36:42Z</time>
      </trkpt>
      <trkpt lat="45.08019" lon="6.11021">
        <ele>1786.9</ele>
        <time>2021-03-10T14:36:43Z</time>
      </trkpt>
      <trkpt lat="45.08018" lon="6.1102">
        <ele>1786.9</ele>
        <time>2021-03-10T14:36:44Z</time>
      </trkpt>
      <trkpt lat="45.08018" lon="6.11019">
        <ele>1786.9</ele>
        <time>2021-03-10T14:36:45Z</time>
      </trkpt>
      <trkpt lat="45.08018" lon="6.11017">
        <ele>1786.9</ele>
        <time>2021-03-10T14:36:46Z</time>
      </trkpt>
      <trkpt lat="45.08018" lon="6.11015">
        <ele>1786.9</ele>
        <time>2021-03-10T14:36:47Z</time>
      </trkpt>
      <trkpt lat="45.08018" lon="6.11014">
        <ele>1786.9</ele>
        <time>2021-03-10T14:36:48Z</time>
      </trkpt>
      <trkpt lat="45.08018" lon="6.11013">
        <ele>1786.9</ele>
        <time>2021-03-10T14:36:49Z</time>
      </trkpt>
      <trkpt lat="45.08017" lon="6.11011">
        <ele>1787</ele>
        <time>2021-03-10T14:36:50Z</time>
      </trkpt>
      <trkpt lat="45.08017" lon="6.1101">
        <ele>1787</ele>
        <time>2021-03-10T14:36:51Z</time>
      </trkpt>
      <trkpt lat="45.08017" lon="6.11008">
        <ele>1787</ele>
        <time>2021-03-10T14:36:52Z</time>
      </trkpt>
      <trkpt lat="45.08017" lon="6.11007">
        <ele>1787</ele>
        <time>2021-03-10T14:36:53Z</time>
      </trkpt>
      <trkpt lat="45.08017" lon="6.11006">
        <ele>1787</ele>
        <time>2021-03-10T14:36:54Z</time>
      </trkpt>
      <trkpt lat="45.08017" lon="6.11004">
        <ele>1787</ele>
        <time>2021-03-10T14:36:55Z</time>
      </trkpt>
      <trkpt lat="45.08017" lon="6.11003">
        <ele>1787</ele>
        <time>2021-03-10T14:36:56Z</time>
      </trkpt>
      <trkpt lat="45.08017" lon="6.11002">
        <ele>1787</ele>
        <time>2021-03-10T14:36:57Z</time>
      </trkpt>
      <trkpt lat="45.08017" lon="6.11">
        <ele>1787.1</ele>
        <time>2021-03-10T14:36:58Z</time>
      </trkpt>
      <trkpt lat="45.08017" lon="6.10998">
        <ele>1787.1</ele>
        <time>2021-03-10T14:36:59Z</time>
      </trkpt>
      <trkpt lat="45.08018" lon="6.10997">
        <ele>1787.1</ele>
        <time>2021-03-10T14:37:00Z</time>
      </trkpt>
      <trkpt lat="45.08018" lon="6.10995">
        <ele>1787.1</ele>
        <time>2021-03-10T14:37:01Z</time>
      </trkpt>
      <trkpt lat="45.08019" lon="6.10993">
        <ele>1787.2</ele>
        <time>2021-03-10T14:37:02Z</time>
      </trkpt>
      <trkpt lat="45.08019" lon="6.10992">
        <ele>1787.2</ele>
        <time>2021-03-10T14:37:03Z</time>
      </trkpt>
      <trkpt lat="45.0802" lon="6.10991">
        <ele>1787.2</ele>
        <time>2021-03-10T14:37:04Z</time>
      </trkpt>
      <trkpt lat="45.0802" lon="6.10988">
        <ele>1787.2</ele>
        <time>2021-03-10T14:37:05Z</time>
      </trkpt>
      <trkpt lat="45.08021" lon="6.10987">
        <ele>1787.3</ele>
        <time>2021-03-10T14:37:06Z</time>
      </trkpt>
      <trkpt lat="45.08022" lon="6.10986">
        <ele>1787.3</ele>
        <time>2021-03-10T14:37:07Z</time>
      </trkpt>
      <trkpt lat="45.08023" lon="6.10985">
        <ele>1787.3</ele>
        <time>2021-03-10T14:37:08Z</time>
      </trkpt>
      <trkpt lat="45.08024" lon="6.10983">
        <ele>1787.3</ele>
        <time>2021-03-10T14:37:09Z</time>
      </trkpt>
      <trkpt lat="45.08025" lon="6.10982">
        <ele>1787.4</ele>
        <time>2021-03-10T14:37:10Z</time>
      </trkpt>
      <trkpt lat="45.08026" lon="6.10981">
        <ele>1787.4</ele>
        <time>2021-03-10T14:37:11Z</time>
      </trkpt>
      <trkpt lat="45.08027" lon="6.1098">
        <ele>1787.4</ele>
        <time>2021-03-10T14:37:12Z</time>
      </trkpt>
      <trkpt lat="45.08028" lon="6.10979">
        <ele>1787.5</ele>
        <time>2021-03-10T14:37:13Z</time>
      </trkpt>
      <trkpt lat="45.08029" lon="6.10978">
        <ele>1787.5</ele>
        <time>2021-03-10T14:37:14Z</time>
      </trkpt>
      <trkpt lat="45.0803" lon="6.10977">
        <ele>1787.5</ele>
        <time>2021-03-10T14:37:15Z</time>
      </trkpt>
      <trkpt lat="45.08031" lon="6.10976">
        <ele>1787.6</ele>
        <time>2021-03-10T14:37:16Z</time>
      </trkpt>
      <trkpt lat="45.08032" lon="6.10975">
        <ele>1787.6</ele>
        <time>2021-03-10T14:37:17Z</time>
      </trkpt>
      <trkpt lat="45.08033" lon="6.10974">
        <ele>1787.6</ele>
        <time>2021-03-10T14:37:18Z</time>
      </trkpt>
      <trkpt lat="45.08033" lon="6.10973">
        <ele>1787.7</ele>
        <time>2021-03-10T14:37:19Z</time>
      </trkpt>
      <trkpt lat="45.08034" lon="6.10973">
        <ele>1787.7</ele>
        <time>2021-03-10T14:37:20Z</time>
      </trkpt>
      <trkpt lat="45.08034" lon="6.10973">
        <ele>1787.7</ele>
        <time>2021-03-10T14:37:21Z</time>
      </trkpt>
      <trkpt lat="45.08034" lon="6.10973">
        <ele>1787.7</ele>
        <time>2021-03-10T14:37:22Z</time>
      </trkpt>
      <trkpt lat="45.08034" lon="6.10973">
        <ele>1787.7</ele>
        <time>2021-03-10T14:37:23Z</time>
      </trkpt>
      <trkpt lat="45.08034" lon="6.10972">
        <ele>1787.7</ele>
        <time>2021-03-10T14:37:24Z</time>
      </trkpt>
      <trkpt lat="45.08034" lon="6.10972">
        <ele>1787.6</ele>
        <time>2021-03-10T14:37:25Z</time>
      </trkpt>
      <trkpt lat="45.08034" lon="6.10972">
        <ele>1787.6</ele>
        <time>2021-03-10T14:37:26Z</time>
      </trkpt>
      <trkpt lat="45.08034" lon="6.10972">
        <ele>1787.6</ele>
        <time>2021-03-10T14:37:27Z</time>
      </trkpt>
      <trkpt lat="45.08034" lon="6.10972">
        <ele>1787.6</ele>
        <time>2021-03-10T14:37:28Z</time>
      </trkpt>
      <trkpt lat="45.08035" lon="6.10973">
        <ele>1787.7</ele>
        <time>2021-03-10T14:37:29Z</time>
      </trkpt>
      <trkpt lat="45.08035" lon="6.10973">
        <ele>1787.7</ele>
        <time>2021-03-10T14:37:30Z</time>
      </trkpt>
      <trkpt lat="45.0804" lon="6.10969">
        <ele>1787.9</ele>
        <time>2021-03-10T14:37:41Z</time>
      </trkpt>
      <trkpt lat="45.0804" lon="6.10967">
        <ele>1788</ele>
        <time>2021-03-10T14:37:42Z</time>
      </trkpt>
      <trkpt lat="45.08041" lon="6.10966">
        <ele>1788</ele>
        <time>2021-03-10T14:37:43Z</time>
      </trkpt>
      <trkpt lat="45.08041" lon="6.10965">
        <ele>1788</ele>
        <time>2021-03-10T14:37:44Z</time>
      </trkpt>
      <trkpt lat="45.08042" lon="6.10964">
        <ele>1788.1</ele>
        <time>2021-03-10T14:37:45Z</time>
      </trkpt>
      <trkpt lat="45.08043" lon="6.10963">
        <ele>1788.1</ele>
        <time>2021-03-10T14:37:46Z</time>
      </trkpt>
      <trkpt lat="45.08044" lon="6.10962">
        <ele>1788.2</ele>
        <time>2021-03-10T14:37:47Z</time>
      </trkpt>
      <trkpt lat="45.08044" lon="6.10961">
        <ele>1788.2</ele>
        <time>2021-03-10T14:37:48Z</time>
      </trkpt>
      <trkpt lat="45.08045" lon="6.1096">
        <ele>1788.3</ele>
        <time>2021-03-10T14:37:49Z</time>
      </trkpt>
      <trkpt lat="45.08047" lon="6.10959">
        <ele>1788.4</ele>
        <time>2021-03-10T14:37:50Z</time>
      </trkpt>
      <trkpt lat="45.08048" lon="6.10958">
        <ele>1788.4</ele>
        <time>2021-03-10T14:37:51Z</time>
      </trkpt>
      <trkpt lat="45.08049" lon="6.10958">
        <ele>1788.5</ele>
        <time>2021-03-10T14:37:52Z</time>
      </trkpt>
      <trkpt lat="45.0805" lon="6.10957">
        <ele>1788.5</ele>
        <time>2021-03-10T14:37:53Z</time>
      </trkpt>
      <trkpt lat="45.08051" lon="6.10956">
        <ele>1788.6</ele>
        <time>2021-03-10T14:37:54Z</time>
      </trkpt>
      <trkpt lat="45.08052" lon="6.10956">
        <ele>1788.7</ele>
        <time>2021-03-10T14:37:55Z</time>
      </trkpt>
      <trkpt lat="45.08053" lon="6.10955">
        <ele>1788.7</ele>
        <time>2021-03-10T14:37:56Z</time>
      </trkpt>
      <trkpt lat="45.08053" lon="6.10954">
        <ele>1788.8</ele>
        <time>2021-03-10T14:37:57Z</time>
      </trkpt>
      <trkpt lat="45.08054" lon="6.10953">
        <ele>1788.8</ele>
        <time>2021-03-10T14:37:58Z</time>
      </trkpt>
      <trkpt lat="45.08055" lon="6.10953">
        <ele>1788.9</ele>
        <time>2021-03-10T14:37:59Z</time>
      </trkpt>
      <trkpt lat="45.08057" lon="6.10952">
        <ele>1789</ele>
        <time>2021-03-10T14:38:00Z</time>
      </trkpt>
      <trkpt lat="45.08057" lon="6.10952">
        <ele>1789.1</ele>
        <time>2021-03-10T14:38:01Z</time>
      </trkpt>
      <trkpt lat="45.08058" lon="6.10952">
        <ele>1789.1</ele>
        <time>2021-03-10T14:38:02Z</time>
      </trkpt>
      <trkpt lat="45.08059" lon="6.10952">
        <ele>1789.2</ele>
        <time>2021-03-10T14:38:03Z</time>
      </trkpt>
      <trkpt lat="45.0806" lon="6.10951">
        <ele>1789.3</ele>
        <time>2021-03-10T14:38:04Z</time>
      </trkpt>
      <trkpt lat="45.08061" lon="6.10951">
        <ele>1789.3</ele>
        <time>2021-03-10T14:38:05Z</time>
      </trkpt>
      <trkpt lat="45.08061" lon="6.1095">
        <ele>1789.4</ele>
        <time>2021-03-10T14:38:06Z</time>
      </trkpt>
      <trkpt lat="45.08062" lon="6.10949">
        <ele>1789.4</ele>
        <time>2021-03-10T14:38:07Z</time>
      </trkpt>
      <trkpt lat="45.08062" lon="6.10948">
        <ele>1789.5</ele>
        <time>2021-03-10T14:38:08Z</time>
      </trkpt>
      <trkpt lat="45.08062" lon="6.10948">
        <ele>1789.5</ele>
        <time>2021-03-10T14:38:09Z</time>
      </trkpt>
      <trkpt lat="45.08062" lon="6.10948">
        <ele>1789.5</ele>
        <time>2021-03-10T14:38:10Z</time>
      </trkpt>
      <trkpt lat="45.08062" lon="6.10948">
        <ele>1789.5</ele>
        <time>2021-03-10T14:38:11Z</time>
      </trkpt>
      <trkpt lat="45.08062" lon="6.10948">
        <ele>1789.5</ele>
        <time>2021-03-10T14:38:12Z</time>
      </trkpt>
      <trkpt lat="45.08062" lon="6.10948">
        <ele>1789.5</ele>
        <time>2021-03-10T14:38:13Z</time>
      </trkpt>
      <trkpt lat="45.08063" lon="6.10946">
        <ele>1789.6</ele>
        <time>2021-03-10T14:38:14Z</time>
      </trkpt>
      <trkpt lat="45.08063" lon="6.10945">
        <ele>1789.6</ele>
        <time>2021-03-10T14:38:15Z</time>
      </trkpt>
      <trkpt lat="45.08064" lon="6.10945">
        <ele>1789.7</ele>
        <time>2021-03-10T14:38:16Z</time>
      </trkpt>
      <trkpt lat="45.08065" lon="6.10944">
        <ele>1789.8</ele>
        <time>2021-03-10T14:38:17Z</time>
      </trkpt>
      <trkpt lat="45.08067" lon="6.10944">
        <ele>1789.9</ele>
        <time>2021-03-10T14:38:18Z</time>
      </trkpt>
      <trkpt lat="45.08067" lon="6.10943">
        <ele>1790</ele>
        <time>2021-03-10T14:38:19Z</time>
      </trkpt>
      <trkpt lat="45.08069" lon="6.10942">
        <ele>1790.1</ele>
        <time>2021-03-10T14:38:20Z</time>
      </trkpt>
      <trkpt lat="45.0807" lon="6.10941">
        <ele>1790.2</ele>
        <time>2021-03-10T14:38:21Z</time>
      </trkpt>
      <trkpt lat="45.0807" lon="6.10941">
        <ele>1790.3</ele>
        <time>2021-03-10T14:38:22Z</time>
      </trkpt>
      <trkpt lat="45.08072" lon="6.1094">
        <ele>1790.4</ele>
        <time>2021-03-10T14:38:23Z</time>
      </trkpt>
      <trkpt lat="45.08073" lon="6.10939">
        <ele>1790.5</ele>
        <time>2021-03-10T14:38:24Z</time>
      </trkpt>
      <trkpt lat="45.08074" lon="6.10939">
        <ele>1790.6</ele>
        <time>2021-03-10T14:38:25Z</time>
      </trkpt>
      <trkpt lat="45.08075" lon="6.10938">
        <ele>1790.8</ele>
        <time>2021-03-10T14:38:26Z</time>
      </trkpt>
      <trkpt lat="45.08076" lon="6.10937">
        <ele>1790.8</ele>
        <time>2021-03-10T14:38:27Z</time>
      </trkpt>
      <trkpt lat="45.08077" lon="6.10937">
        <ele>1790.9</ele>
        <time>2021-03-10T14:38:28Z</time>
      </trkpt>
      <trkpt lat="45.08078" lon="6.10936">
        <ele>1791</ele>
        <time>2021-03-10T14:38:29Z</time>
      </trkpt>
      <trkpt lat="45.08078" lon="6.10935">
        <ele>1791.1</ele>
        <time>2021-03-10T14:38:30Z</time>
      </trkpt>
      <trkpt lat="45.08079" lon="6.10934">
        <ele>1791.2</ele>
        <time>2021-03-10T14:38:31Z</time>
      </trkpt>
      <trkpt lat="45.0808" lon="6.10932">
        <ele>1791.3</ele>
        <time>2021-03-10T14:38:32Z</time>
      </trkpt>
      <trkpt lat="45.0808" lon="6.10931">
        <ele>1791.4</ele>
        <time>2021-03-10T14:38:33Z</time>
      </trkpt>
      <trkpt lat="45.08081" lon="6.1093">
        <ele>1791.5</ele>
        <time>2021-03-10T14:38:34Z</time>
      </trkpt>
      <trkpt lat="45.08082" lon="6.10929">
        <ele>1791.6</ele>
        <time>2021-03-10T14:38:35Z</time>
      </trkpt>
      <trkpt lat="45.08082" lon="6.10928">
        <ele>1791.7</ele>
        <time>2021-03-10T14:38:36Z</time>
      </trkpt>
      <trkpt lat="45.08083" lon="6.10927">
        <ele>1791.7</ele>
        <time>2021-03-10T14:38:37Z</time>
      </trkpt>
      <trkpt lat="45.08084" lon="6.10927">
        <ele>1791.8</ele>
        <time>2021-03-10T14:38:38Z</time>
      </trkpt>
      <trkpt lat="45.08084" lon="6.10926">
        <ele>1791.9</ele>
        <time>2021-03-10T14:38:39Z</time>
      </trkpt>
      <trkpt lat="45.08085" lon="6.10925">
        <ele>1791.9</ele>
        <time>2021-03-10T14:38:40Z</time>
      </trkpt>
      <trkpt lat="45.08086" lon="6.10925">
        <ele>1792</ele>
        <time>2021-03-10T14:38:41Z</time>
      </trkpt>
      <trkpt lat="45.08087" lon="6.10924">
        <ele>1792.1</ele>
        <time>2021-03-10T14:38:42Z</time>
      </trkpt>
      <trkpt lat="45.08088" lon="6.10924">
        <ele>1792.2</ele>
        <time>2021-03-10T14:38:43Z</time>
      </trkpt>
      <trkpt lat="45.08089" lon="6.10924">
        <ele>1792.3</ele>
        <time>2021-03-10T14:38:44Z</time>
      </trkpt>
      <trkpt lat="45.0809" lon="6.10923">
        <ele>1792.4</ele>
        <time>2021-03-10T14:38:45Z</time>
      </trkpt>
      <trkpt lat="45.0809" lon="6.10923">
        <ele>1792.5</ele>
        <time>2021-03-10T14:38:46Z</time>
      </trkpt>
      <trkpt lat="45.08091" lon="6.10922">
        <ele>1792.5</ele>
        <time>2021-03-10T14:38:47Z</time>
      </trkpt>
      <trkpt lat="45.08091" lon="6.10921">
        <ele>1792.6</ele>
        <time>2021-03-10T14:38:48Z</time>
      </trkpt>
      <trkpt lat="45.08092" lon="6.1092">
        <ele>1792.7</ele>
        <time>2021-03-10T14:38:49Z</time>
      </trkpt>
      <trkpt lat="45.08093" lon="6.1092">
        <ele>1792.8</ele>
        <time>2021-03-10T14:38:50Z</time>
      </trkpt>
      <trkpt lat="45.08094" lon="6.10919">
        <ele>1793.1</ele>
        <time>2021-03-10T14:38:51Z</time>
      </trkpt>
      <trkpt lat="45.08095" lon="6.10919">
        <ele>1793.1</ele>
        <time>2021-03-10T14:38:52Z</time>
      </trkpt>
      <trkpt lat="45.08096" lon="6.10919">
        <ele>1793.2</ele>
        <time>2021-03-10T14:38:53Z</time>
      </trkpt>
      <trkpt lat="45.08097" lon="6.10919">
        <ele>1793.3</ele>
        <time>2021-03-10T14:38:54Z</time>
      </trkpt>
      <trkpt lat="45.08098" lon="6.10918">
        <ele>1793.3</ele>
        <time>2021-03-10T14:38:55Z</time>
      </trkpt>
      <trkpt lat="45.08099" lon="6.10918">
        <ele>1793.4</ele>
        <time>2021-03-10T14:38:56Z</time>
      </trkpt>
      <trkpt lat="45.08101" lon="6.10917">
        <ele>1793.4</ele>
        <time>2021-03-10T14:38:57Z</time>
      </trkpt>
      <trkpt lat="45.08102" lon="6.10917">
        <ele>1793.5</ele>
        <time>2021-03-10T14:38:58Z</time>
      </trkpt>
      <trkpt lat="45.08103" lon="6.10917">
        <ele>1793.6</ele>
        <time>2021-03-10T14:38:59Z</time>
      </trkpt>
      <trkpt lat="45.08104" lon="6.10916">
        <ele>1793.6</ele>
        <time>2021-03-10T14:39:00Z</time>
      </trkpt>
      <trkpt lat="45.08105" lon="6.10916">
        <ele>1793.7</ele>
        <time>2021-03-10T14:39:01Z</time>
      </trkpt>
      <trkpt lat="45.08106" lon="6.10916">
        <ele>1793.8</ele>
        <time>2021-03-10T14:39:02Z</time>
      </trkpt>
      <trkpt lat="45.08107" lon="6.10915">
        <ele>1793.8</ele>
        <time>2021-03-10T14:39:03Z</time>
      </trkpt>
      <trkpt lat="45.08109" lon="6.10914">
        <ele>1793.9</ele>
        <time>2021-03-10T14:39:04Z</time>
      </trkpt>
      <trkpt lat="45.08109" lon="6.10913">
        <ele>1794</ele>
        <time>2021-03-10T14:39:05Z</time>
      </trkpt>
      <trkpt lat="45.0811" lon="6.10913">
        <ele>1794</ele>
        <time>2021-03-10T14:39:06Z</time>
      </trkpt>
      <trkpt lat="45.08112" lon="6.10912">
        <ele>1794.1</ele>
        <time>2021-03-10T14:39:07Z</time>
      </trkpt>
      <trkpt lat="45.08113" lon="6.10911">
        <ele>1794.2</ele>
        <time>2021-03-10T14:39:08Z</time>
      </trkpt>
      <trkpt lat="45.08114" lon="6.10911">
        <ele>1794.2</ele>
        <time>2021-03-10T14:39:09Z</time>
      </trkpt>
      <trkpt lat="45.08115" lon="6.10911">
        <ele>1794.3</ele>
        <time>2021-03-10T14:39:10Z</time>
      </trkpt>
      <trkpt lat="45.08116" lon="6.1091">
        <ele>1794.3</ele>
        <time>2021-03-10T14:39:11Z</time>
      </trkpt>
      <trkpt lat="45.08117" lon="6.1091">
        <ele>1794.4</ele>
        <time>2021-03-10T14:39:12Z</time>
      </trkpt>
      <trkpt lat="45.08118" lon="6.10909">
        <ele>1794.5</ele>
        <time>2021-03-10T14:39:13Z</time>
      </trkpt>
      <trkpt lat="45.0812" lon="6.10909">
        <ele>1794.5</ele>
        <time>2021-03-10T14:39:14Z</time>
      </trkpt>
      <trkpt lat="45.08122" lon="6.10908">
        <ele>1794.7</ele>
        <time>2021-03-10T14:39:15Z</time>
      </trkpt>
      <trkpt lat="45.08122" lon="6.10908">
        <ele>1794.7</ele>
        <time>2021-03-10T14:39:16Z</time>
      </trkpt>
      <trkpt lat="45.08123" lon="6.10908">
        <ele>1794.7</ele>
        <time>2021-03-10T14:39:17Z</time>
      </trkpt>
      <trkpt lat="45.08125" lon="6.10908">
        <ele>1794.8</ele>
        <time>2021-03-10T14:39:18Z</time>
      </trkpt>
      <trkpt lat="45.08126" lon="6.10908">
        <ele>1794.9</ele>
        <time>2021-03-10T14:39:19Z</time>
      </trkpt>
      <trkpt lat="45.08126" lon="6.10907">
        <ele>1794.9</ele>
        <time>2021-03-10T14:39:20Z</time>
      </trkpt>
      <trkpt lat="45.08128" lon="6.10907">
        <ele>1795</ele>
        <time>2021-03-10T14:39:21Z</time>
      </trkpt>
      <trkpt lat="45.08129" lon="6.10906">
        <ele>1795</ele>
        <time>2021-03-10T14:39:22Z</time>
      </trkpt>
      <trkpt lat="45.0813" lon="6.10906">
        <ele>1795.1</ele>
        <time>2021-03-10T14:39:23Z</time>
      </trkpt>
      <trkpt lat="45.08131" lon="6.10906">
        <ele>1795.2</ele>
        <time>2021-03-10T14:39:24Z</time>
      </trkpt>
      <trkpt lat="45.08132" lon="6.10907">
        <ele>1795.3</ele>
        <time>2021-03-10T14:39:25Z</time>
      </trkpt>
      <trkpt lat="45.08133" lon="6.10907">
        <ele>1795.3</ele>
        <time>2021-03-10T14:39:26Z</time>
      </trkpt>
      <trkpt lat="45.08134" lon="6.10907">
        <ele>1795.4</ele>
        <time>2021-03-10T14:39:27Z</time>
      </trkpt>
      <trkpt lat="45.08135" lon="6.10907">
        <ele>1795.5</ele>
        <time>2021-03-10T14:39:28Z</time>
      </trkpt>
      <trkpt lat="45.08137" lon="6.10908">
        <ele>1795.5</ele>
        <time>2021-03-10T14:39:29Z</time>
      </trkpt>
      <trkpt lat="45.08138" lon="6.10908">
        <ele>1795.6</ele>
        <time>2021-03-10T14:39:30Z</time>
      </trkpt>
      <trkpt lat="45.08139" lon="6.10908">
        <ele>1795.7</ele>
        <time>2021-03-10T14:39:31Z</time>
      </trkpt>
      <trkpt lat="45.0814" lon="6.10908">
        <ele>1795.8</ele>
        <time>2021-03-10T14:39:32Z</time>
      </trkpt>
      <trkpt lat="45.08141" lon="6.10909">
        <ele>1795.8</ele>
        <time>2021-03-10T14:39:33Z</time>
      </trkpt>
      <trkpt lat="45.08142" lon="6.10909">
        <ele>1795.9</ele>
        <time>2021-03-10T14:39:34Z</time>
      </trkpt>
      <trkpt lat="45.08143" lon="6.10909">
        <ele>1796</ele>
        <time>2021-03-10T14:39:35Z</time>
      </trkpt>
      <trkpt lat="45.08144" lon="6.10909">
        <ele>1796</ele>
        <time>2021-03-10T14:39:36Z</time>
      </trkpt>
      <trkpt lat="45.08145" lon="6.10909">
        <ele>1796.1</ele>
        <time>2021-03-10T14:39:37Z</time>
      </trkpt>
      <trkpt lat="45.08146" lon="6.10909">
        <ele>1796.2</ele>
        <time>2021-03-10T14:39:38Z</time>
      </trkpt>
      <trkpt lat="45.08147" lon="6.10909">
        <ele>1796.2</ele>
        <time>2021-03-10T14:39:39Z</time>
      </trkpt>
      <trkpt lat="45.08147" lon="6.10909">
        <ele>1796.3</ele>
        <time>2021-03-10T14:39:40Z</time>
      </trkpt>
      <trkpt lat="45.08148" lon="6.10909">
        <ele>1796.3</ele>
        <time>2021-03-10T14:39:41Z</time>
      </trkpt>
      <trkpt lat="45.08149" lon="6.10909">
        <ele>1796.4</ele>
        <time>2021-03-10T14:39:42Z</time>
      </trkpt>
      <trkpt lat="45.08149" lon="6.10909">
        <ele>1796.4</ele>
        <time>2021-03-10T14:39:43Z</time>
      </trkpt>
      <trkpt lat="45.0815" lon="6.10908">
        <ele>1796.5</ele>
        <time>2021-03-10T14:39:44Z</time>
      </trkpt>
      <trkpt lat="45.08151" lon="6.10908">
        <ele>1796.6</ele>
        <time>2021-03-10T14:39:45Z</time>
      </trkpt>
      <trkpt lat="45.08152" lon="6.10908">
        <ele>1796.6</ele>
        <time>2021-03-10T14:39:46Z</time>
      </trkpt>
      <trkpt lat="45.08154" lon="6.10908">
        <ele>1796.7</ele>
        <time>2021-03-10T14:39:47Z</time>
      </trkpt>
      <trkpt lat="45.08155" lon="6.10908">
        <ele>1796.8</ele>
        <time>2021-03-10T14:39:48Z</time>
      </trkpt>
      <trkpt lat="45.08156" lon="6.10908">
        <ele>1796.9</ele>
        <time>2021-03-10T14:39:49Z</time>
      </trkpt>
      <trkpt lat="45.08158" lon="6.10908">
        <ele>1797</ele>
        <time>2021-03-10T14:39:50Z</time>
      </trkpt>
      <trkpt lat="45.08159" lon="6.10909">
        <ele>1797.1</ele>
        <time>2021-03-10T14:39:51Z</time>
      </trkpt>
      <trkpt lat="45.0816" lon="6.10909">
        <ele>1797.2</ele>
        <time>2021-03-10T14:39:52Z</time>
      </trkpt>
      <trkpt lat="45.08161" lon="6.10909">
        <ele>1797.2</ele>
        <time>2021-03-10T14:39:53Z</time>
      </trkpt>
      <trkpt lat="45.08162" lon="6.10909">
        <ele>1797.3</ele>
        <time>2021-03-10T14:39:54Z</time>
      </trkpt>
      <trkpt lat="45.08163" lon="6.10909">
        <ele>1797.4</ele>
        <time>2021-03-10T14:39:55Z</time>
      </trkpt>
      <trkpt lat="45.08164" lon="6.10909">
        <ele>1797.5</ele>
        <time>2021-03-10T14:39:56Z</time>
      </trkpt>
      <trkpt lat="45.08165" lon="6.10909">
        <ele>1797.6</ele>
        <time>2021-03-10T14:39:57Z</time>
      </trkpt>
      <trkpt lat="45.08166" lon="6.10909">
        <ele>1797.7</ele>
        <time>2021-03-10T14:39:58Z</time>
      </trkpt>
      <trkpt lat="45.08168" lon="6.10909">
        <ele>1797.7</ele>
        <time>2021-03-10T14:39:59Z</time>
      </trkpt>
      <trkpt lat="45.08169" lon="6.10909">
        <ele>1797.8</ele>
        <time>2021-03-10T14:40:00Z</time>
      </trkpt>
      <trkpt lat="45.0817" lon="6.10908">
        <ele>1797.9</ele>
        <time>2021-03-10T14:40:01Z</time>
      </trkpt>
      <trkpt lat="45.08172" lon="6.10907">
        <ele>1798.1</ele>
        <time>2021-03-10T14:40:02Z</time>
      </trkpt>
      <trkpt lat="45.08172" lon="6.10906">
        <ele>1798.1</ele>
        <time>2021-03-10T14:40:03Z</time>
      </trkpt>
      <trkpt lat="45.08173" lon="6.10906">
        <ele>1798.2</ele>
        <time>2021-03-10T14:40:04Z</time>
      </trkpt>
      <trkpt lat="45.08175" lon="6.10905">
        <ele>1798.3</ele>
        <time>2021-03-10T14:40:05Z</time>
      </trkpt>
      <trkpt lat="45.08176" lon="6.10905">
        <ele>1798.4</ele>
        <time>2021-03-10T14:40:06Z</time>
      </trkpt>
      <trkpt lat="45.08177" lon="6.10904">
        <ele>1798.5</ele>
        <time>2021-03-10T14:40:07Z</time>
      </trkpt>
      <trkpt lat="45.08178" lon="6.10904">
        <ele>1798.6</ele>
        <time>2021-03-10T14:40:08Z</time>
      </trkpt>
      <trkpt lat="45.0818" lon="6.10903">
        <ele>1798.7</ele>
        <time>2021-03-10T14:40:09Z</time>
      </trkpt>
      <trkpt lat="45.08181" lon="6.10903">
        <ele>1798.8</ele>
        <time>2021-03-10T14:40:10Z</time>
      </trkpt>
      <trkpt lat="45.08182" lon="6.10902">
        <ele>1798.9</ele>
        <time>2021-03-10T14:40:11Z</time>
      </trkpt>
      <trkpt lat="45.08184" lon="6.10902">
        <ele>1799</ele>
        <time>2021-03-10T14:40:12Z</time>
      </trkpt>
      <trkpt lat="45.08185" lon="6.10901">
        <ele>1799.1</ele>
        <time>2021-03-10T14:40:13Z</time>
      </trkpt>
      <trkpt lat="45.08186" lon="6.10901">
        <ele>1799.1</ele>
        <time>2021-03-10T14:40:14Z</time>
      </trkpt>
      <trkpt lat="45.08187" lon="6.109">
        <ele>1799.2</ele>
        <time>2021-03-10T14:40:15Z</time>
      </trkpt>
      <trkpt lat="45.08188" lon="6.10899">
        <ele>1799.3</ele>
        <time>2021-03-10T14:40:16Z</time>
      </trkpt>
      <trkpt lat="45.08188" lon="6.10898">
        <ele>1799.4</ele>
        <time>2021-03-10T14:40:17Z</time>
      </trkpt>
      <trkpt lat="45.0819" lon="6.10898">
        <ele>1799.5</ele>
        <time>2021-03-10T14:40:18Z</time>
      </trkpt>
      <trkpt lat="45.08191" lon="6.10897">
        <ele>1799.6</ele>
        <time>2021-03-10T14:40:19Z</time>
      </trkpt>
      <trkpt lat="45.08192" lon="6.10897">
        <ele>1799.6</ele>
        <time>2021-03-10T14:40:20Z</time>
      </trkpt>
      <trkpt lat="45.08194" lon="6.10896">
        <ele>1799.8</ele>
        <time>2021-03-10T14:40:21Z</time>
      </trkpt>
      <trkpt lat="45.08195" lon="6.10896">
        <ele>1799.9</ele>
        <time>2021-03-10T14:40:22Z</time>
      </trkpt>
      <trkpt lat="45.08195" lon="6.10895">
        <ele>1799.9</ele>
        <time>2021-03-10T14:40:23Z</time>
      </trkpt>
      <trkpt lat="45.08196" lon="6.10895">
        <ele>1800</ele>
        <time>2021-03-10T14:40:24Z</time>
      </trkpt>
      <trkpt lat="45.08197" lon="6.10894">
        <ele>1800.1</ele>
        <time>2021-03-10T14:40:25Z</time>
      </trkpt>
      <trkpt lat="45.08198" lon="6.10893">
        <ele>1800.1</ele>
        <time>2021-03-10T14:40:26Z</time>
      </trkpt>
      <trkpt lat="45.08199" lon="6.10893">
        <ele>1800.2</ele>
        <time>2021-03-10T14:40:27Z</time>
      </trkpt>
      <trkpt lat="45.082" lon="6.10892">
        <ele>1800.3</ele>
        <time>2021-03-10T14:40:28Z</time>
      </trkpt>
      <trkpt lat="45.08201" lon="6.10891">
        <ele>1800.4</ele>
        <time>2021-03-10T14:40:29Z</time>
      </trkpt>
      <trkpt lat="45.08202" lon="6.10889">
        <ele>1800.5</ele>
        <time>2021-03-10T14:40:30Z</time>
      </trkpt>
      <trkpt lat="45.08203" lon="6.10888">
        <ele>1800.6</ele>
        <time>2021-03-10T14:40:31Z</time>
      </trkpt>
      <trkpt lat="45.08204" lon="6.10887">
        <ele>1800.7</ele>
        <time>2021-03-10T14:40:32Z</time>
      </trkpt>
      <trkpt lat="45.08205" lon="6.10886">
        <ele>1800.7</ele>
        <time>2021-03-10T14:40:33Z</time>
      </trkpt>
      <trkpt lat="45.08206" lon="6.10885">
        <ele>1800.8</ele>
        <time>2021-03-10T14:40:34Z</time>
      </trkpt>
      <trkpt lat="45.08207" lon="6.10884">
        <ele>1800.9</ele>
        <time>2021-03-10T14:40:35Z</time>
      </trkpt>
      <trkpt lat="45.08207" lon="6.10883">
        <ele>1801</ele>
        <time>2021-03-10T14:40:36Z</time>
      </trkpt>
      <trkpt lat="45.08208" lon="6.10882">
        <ele>1801.1</ele>
        <time>2021-03-10T14:40:37Z</time>
      </trkpt>
      <trkpt lat="45.08209" lon="6.10881">
        <ele>1801.1</ele>
        <time>2021-03-10T14:40:38Z</time>
      </trkpt>
      <trkpt lat="45.08209" lon="6.10879">
        <ele>1801.2</ele>
        <time>2021-03-10T14:40:39Z</time>
      </trkpt>
      <trkpt lat="45.0821" lon="6.10878">
        <ele>1801.3</ele>
        <time>2021-03-10T14:40:40Z</time>
      </trkpt>
      <trkpt lat="45.08211" lon="6.10877">
        <ele>1801.4</ele>
        <time>2021-03-10T14:40:41Z</time>
      </trkpt>
      <trkpt lat="45.08211" lon="6.10876">
        <ele>1801.4</ele>
        <time>2021-03-10T14:40:42Z</time>
      </trkpt>
      <trkpt lat="45.08212" lon="6.10875">
        <ele>1801.5</ele>
        <time>2021-03-10T14:40:43Z</time>
      </trkpt>
      <trkpt lat="45.08213" lon="6.10874">
        <ele>1801.6</ele>
        <time>2021-03-10T14:40:44Z</time>
      </trkpt>
      <trkpt lat="45.08214" lon="6.10873">
        <ele>1801.7</ele>
        <time>2021-03-10T14:40:45Z</time>
      </trkpt>
      <trkpt lat="45.08215" lon="6.10872">
        <ele>1801.8</ele>
        <time>2021-03-10T14:40:46Z</time>
      </trkpt>
      <trkpt lat="45.08216" lon="6.10871">
        <ele>1801.9</ele>
        <time>2021-03-10T14:40:47Z</time>
      </trkpt>
      <trkpt lat="45.08217" lon="6.1087">
        <ele>1801.9</ele>
        <time>2021-03-10T14:40:48Z</time>
      </trkpt>
      <trkpt lat="45.08217" lon="6.10869">
        <ele>1802</ele>
        <time>2021-03-10T14:40:49Z</time>
      </trkpt>
      <trkpt lat="45.08218" lon="6.10868">
        <ele>1802.1</ele>
        <time>2021-03-10T14:40:50Z</time>
      </trkpt>
      <trkpt lat="45.08219" lon="6.10867">
        <ele>1802.1</ele>
        <time>2021-03-10T14:40:51Z</time>
      </trkpt>
      <trkpt lat="45.0822" lon="6.10866">
        <ele>1802.2</ele>
        <time>2021-03-10T14:40:52Z</time>
      </trkpt>
      <trkpt lat="45.0822" lon="6.10866">
        <ele>1802.3</ele>
        <time>2021-03-10T14:40:53Z</time>
      </trkpt>
      <trkpt lat="45.08221" lon="6.10865">
        <ele>1802.4</ele>
        <time>2021-03-10T14:40:54Z</time>
      </trkpt>
      <trkpt lat="45.08222" lon="6.10864">
        <ele>1802.4</ele>
        <time>2021-03-10T14:40:55Z</time>
      </trkpt>
      <trkpt lat="45.08223" lon="6.10863">
        <ele>1802.5</ele>
        <time>2021-03-10T14:40:56Z</time>
      </trkpt>
      <trkpt lat="45.08224" lon="6.10862">
        <ele>1802.6</ele>
        <time>2021-03-10T14:40:57Z</time>
      </trkpt>
      <trkpt lat="45.08224" lon="6.10861">
        <ele>1802.7</ele>
        <time>2021-03-10T14:40:58Z</time>
      </trkpt>
      <trkpt lat="45.08225" lon="6.1086">
        <ele>1802.8</ele>
        <time>2021-03-10T14:40:59Z</time>
      </trkpt>
      <trkpt lat="45.08226" lon="6.1086">
        <ele>1802.8</ele>
        <time>2021-03-10T14:41:00Z</time>
      </trkpt>
      <trkpt lat="45.08227" lon="6.1086">
        <ele>1802.9</ele>
        <time>2021-03-10T14:41:01Z</time>
      </trkpt>
      <trkpt lat="45.08228" lon="6.10859">
        <ele>1803</ele>
        <time>2021-03-10T14:41:02Z</time>
      </trkpt>
      <trkpt lat="45.08229" lon="6.10859">
        <ele>1803</ele>
        <time>2021-03-10T14:41:03Z</time>
      </trkpt>
      <trkpt lat="45.0823" lon="6.10858">
        <ele>1803.1</ele>
        <time>2021-03-10T14:41:04Z</time>
      </trkpt>
      <trkpt lat="45.08231" lon="6.10858">
        <ele>1803.2</ele>
        <time>2021-03-10T14:41:05Z</time>
      </trkpt>
      <trkpt lat="45.08231" lon="6.10857">
        <ele>1803.2</ele>
        <time>2021-03-10T14:41:06Z</time>
      </trkpt>
      <trkpt lat="45.08232" lon="6.10856">
        <ele>1803.3</ele>
        <time>2021-03-10T14:41:07Z</time>
      </trkpt>
      <trkpt lat="45.08233" lon="6.10856">
        <ele>1803.4</ele>
        <time>2021-03-10T14:41:08Z</time>
      </trkpt>
      <trkpt lat="45.08234" lon="6.10855">
        <ele>1803.5</ele>
        <time>2021-03-10T14:41:09Z</time>
      </trkpt>
      <trkpt lat="45.08235" lon="6.10854">
        <ele>1803.6</ele>
        <time>2021-03-10T14:41:10Z</time>
      </trkpt>
      <trkpt lat="45.08236" lon="6.10853">
        <ele>1803.6</ele>
        <time>2021-03-10T14:41:11Z</time>
      </trkpt>
      <trkpt lat="45.08237" lon="6.10852">
        <ele>1803.7</ele>
        <time>2021-03-10T14:41:12Z</time>
      </trkpt>
      <trkpt lat="45.08238" lon="6.10851">
        <ele>1803.8</ele>
        <time>2021-03-10T14:41:13Z</time>
      </trkpt>
      <trkpt lat="45.08239" lon="6.1085">
        <ele>1803.9</ele>
        <time>2021-03-10T14:41:14Z</time>
      </trkpt>
      <trkpt lat="45.0824" lon="6.1085">
        <ele>1804</ele>
        <time>2021-03-10T14:41:15Z</time>
      </trkpt>
      <trkpt lat="45.08241" lon="6.10849">
        <ele>1804.1</ele>
        <time>2021-03-10T14:41:16Z</time>
      </trkpt>
      <trkpt lat="45.08242" lon="6.10848">
        <ele>1804.2</ele>
        <time>2021-03-10T14:41:17Z</time>
      </trkpt>
      <trkpt lat="45.08243" lon="6.10847">
        <ele>1804.2</ele>
        <time>2021-03-10T14:41:18Z</time>
      </trkpt>
      <trkpt lat="45.08244" lon="6.10847">
        <ele>1804.3</ele>
        <time>2021-03-10T14:41:19Z</time>
      </trkpt>
      <trkpt lat="45.08245" lon="6.10846">
        <ele>1804.4</ele>
        <time>2021-03-10T14:41:20Z</time>
      </trkpt>
      <trkpt lat="45.08246" lon="6.10845">
        <ele>1804.5</ele>
        <time>2021-03-10T14:41:21Z</time>
      </trkpt>
      <trkpt lat="45.08247" lon="6.10844">
        <ele>1804.6</ele>
        <time>2021-03-10T14:41:22Z</time>
      </trkpt>
      <trkpt lat="45.08248" lon="6.10843">
        <ele>1804.6</ele>
        <time>2021-03-10T14:41:23Z</time>
      </trkpt>
      <trkpt lat="45.08249" lon="6.10843">
        <ele>1804.7</ele>
        <time>2021-03-10T14:41:24Z</time>
      </trkpt>
      <trkpt lat="45.08249" lon="6.10842">
        <ele>1804.8</ele>
        <time>2021-03-10T14:41:25Z</time>
      </trkpt>
      <trkpt lat="45.0825" lon="6.10841">
        <ele>1804.8</ele>
        <time>2021-03-10T14:41:26Z</time>
      </trkpt>
      <trkpt lat="45.08251" lon="6.1084">
        <ele>1804.9</ele>
        <time>2021-03-10T14:41:27Z</time>
      </trkpt>
      <trkpt lat="45.08252" lon="6.10839">
        <ele>1805</ele>
        <time>2021-03-10T14:41:28Z</time>
      </trkpt>
      <trkpt lat="45.08253" lon="6.10838">
        <ele>1805.1</ele>
        <time>2021-03-10T14:41:29Z</time>
      </trkpt>
      <trkpt lat="45.08254" lon="6.10837">
        <ele>1805.2</ele>
        <time>2021-03-10T14:41:30Z</time>
      </trkpt>
      <trkpt lat="45.08255" lon="6.10837">
        <ele>1805.2</ele>
        <time>2021-03-10T14:41:31Z</time>
      </trkpt>
      <trkpt lat="45.08256" lon="6.10836">
        <ele>1805.3</ele>
        <time>2021-03-10T14:41:32Z</time>
      </trkpt>
      <trkpt lat="45.08256" lon="6.10835">
        <ele>1805.4</ele>
        <time>2021-03-10T14:41:33Z</time>
      </trkpt>
      <trkpt lat="45.08257" lon="6.10835">
        <ele>1805.5</ele>
        <time>2021-03-10T14:41:34Z</time>
      </trkpt>
      <trkpt lat="45.08259" lon="6.10834">
        <ele>1805.5</ele>
        <time>2021-03-10T14:41:35Z</time>
      </trkpt>
      <trkpt lat="45.0826" lon="6.10833">
        <ele>1805.6</ele>
        <time>2021-03-10T14:41:36Z</time>
      </trkpt>
      <trkpt lat="45.08261" lon="6.10833">
        <ele>1805.7</ele>
        <time>2021-03-10T14:41:37Z</time>
      </trkpt>
      <trkpt lat="45.08262" lon="6.10832">
        <ele>1805.8</ele>
        <time>2021-03-10T14:41:38Z</time>
      </trkpt>
      <trkpt lat="45.08263" lon="6.10832">
        <ele>1805.8</ele>
        <time>2021-03-10T14:41:39Z</time>
      </trkpt>
      <trkpt lat="45.08264" lon="6.10831">
        <ele>1805.9</ele>
        <time>2021-03-10T14:41:40Z</time>
      </trkpt>
      <trkpt lat="45.08264" lon="6.1083">
        <ele>1806</ele>
        <time>2021-03-10T14:41:41Z</time>
      </trkpt>
      <trkpt lat="45.08265" lon="6.1083">
        <ele>1806</ele>
        <time>2021-03-10T14:41:42Z</time>
      </trkpt>
      <trkpt lat="45.08267" lon="6.10829">
        <ele>1806.1</ele>
        <time>2021-03-10T14:41:43Z</time>
      </trkpt>
      <trkpt lat="45.08267" lon="6.10828">
        <ele>1806.2</ele>
        <time>2021-03-10T14:41:44Z</time>
      </trkpt>
      <trkpt lat="45.08268" lon="6.10827">
        <ele>1806.3</ele>
        <time>2021-03-10T14:41:45Z</time>
      </trkpt>
      <trkpt lat="45.08269" lon="6.10825">
        <ele>1806.4</ele>
        <time>2021-03-10T14:41:46Z</time>
      </trkpt>
      <trkpt lat="45.0827" lon="6.10824">
        <ele>1806.5</ele>
        <time>2021-03-10T14:41:47Z</time>
      </trkpt>
      <trkpt lat="45.08271" lon="6.10823">
        <ele>1806.5</ele>
        <time>2021-03-10T14:41:48Z</time>
      </trkpt>
      <trkpt lat="45.08272" lon="6.10822">
        <ele>1806.6</ele>
        <time>2021-03-10T14:41:49Z</time>
      </trkpt>
      <trkpt lat="45.08272" lon="6.10822">
        <ele>1806.7</ele>
        <time>2021-03-10T14:41:50Z</time>
      </trkpt>
      <trkpt lat="45.08274" lon="6.1082">
        <ele>1806.8</ele>
        <time>2021-03-10T14:41:51Z</time>
      </trkpt>
      <trkpt lat="45.08275" lon="6.10819">
        <ele>1806.9</ele>
        <time>2021-03-10T14:41:52Z</time>
      </trkpt>
      <trkpt lat="45.08275" lon="6.10818">
        <ele>1807</ele>
        <time>2021-03-10T14:41:53Z</time>
      </trkpt>
      <trkpt lat="45.08276" lon="6.10817">
        <ele>1807.1</ele>
        <time>2021-03-10T14:41:54Z</time>
      </trkpt>
      <trkpt lat="45.08277" lon="6.10816">
        <ele>1807.1</ele>
        <time>2021-03-10T14:41:55Z</time>
      </trkpt>
      <trkpt lat="45.08277" lon="6.10815">
        <ele>1807.2</ele>
        <time>2021-03-10T14:41:56Z</time>
      </trkpt>
      <trkpt lat="45.08278" lon="6.10814">
        <ele>1807.3</ele>
        <time>2021-03-10T14:41:57Z</time>
      </trkpt>
      <trkpt lat="45.08279" lon="6.10813">
        <ele>1807.4</ele>
        <time>2021-03-10T14:41:58Z</time>
      </trkpt>
      <trkpt lat="45.0828" lon="6.10812">
        <ele>1807.5</ele>
        <time>2021-03-10T14:41:59Z</time>
      </trkpt>
      <trkpt lat="45.08281" lon="6.10811">
        <ele>1807.6</ele>
        <time>2021-03-10T14:42:00Z</time>
      </trkpt>
      <trkpt lat="45.08282" lon="6.1081">
        <ele>1807.6</ele>
        <time>2021-03-10T14:42:01Z</time>
      </trkpt>
      <trkpt lat="45.08282" lon="6.1081">
        <ele>1807.7</ele>
        <time>2021-03-10T14:42:02Z</time>
      </trkpt>
      <trkpt lat="45.08283" lon="6.10809">
        <ele>1807.8</ele>
        <time>2021-03-10T14:42:03Z</time>
      </trkpt>
      <trkpt lat="45.08284" lon="6.10808">
        <ele>1807.9</ele>
        <time>2021-03-10T14:42:04Z</time>
      </trkpt>
      <trkpt lat="45.08285" lon="6.10807">
        <ele>1808</ele>
        <time>2021-03-10T14:42:05Z</time>
      </trkpt>
      <trkpt lat="45.08287" lon="6.10805">
        <ele>1808.2</ele>
        <time>2021-03-10T14:42:06Z</time>
      </trkpt>
      <trkpt lat="45.08288" lon="6.10804">
        <ele>1808.3</ele>
        <time>2021-03-10T14:42:07Z</time>
      </trkpt>
      <trkpt lat="45.08288" lon="6.10803">
        <ele>1808.4</ele>
        <time>2021-03-10T14:42:08Z</time>
      </trkpt>
      <trkpt lat="45.0829" lon="6.10801">
        <ele>1808.6</ele>
        <time>2021-03-10T14:42:09Z</time>
      </trkpt>
      <trkpt lat="45.0829" lon="6.10801">
        <ele>1808.6</ele>
        <time>2021-03-10T14:42:10Z</time>
      </trkpt>
      <trkpt lat="45.08291" lon="6.108">
        <ele>1808.7</ele>
        <time>2021-03-10T14:42:11Z</time>
      </trkpt>
      <trkpt lat="45.08292" lon="6.10799">
        <ele>1808.8</ele>
        <time>2021-03-10T14:42:12Z</time>
      </trkpt>
      <trkpt lat="45.08292" lon="6.10798">
        <ele>1808.9</ele>
        <time>2021-03-10T14:42:13Z</time>
      </trkpt>
      <trkpt lat="45.08293" lon="6.10797">
        <ele>1809</ele>
        <time>2021-03-10T14:42:14Z</time>
      </trkpt>
      <trkpt lat="45.08294" lon="6.10797">
        <ele>1809.1</ele>
        <time>2021-03-10T14:42:15Z</time>
      </trkpt>
      <trkpt lat="45.08295" lon="6.10796">
        <ele>1809.1</ele>
        <time>2021-03-10T14:42:16Z</time>
      </trkpt>
      <trkpt lat="45.08296" lon="6.10796">
        <ele>1809.3</ele>
        <time>2021-03-10T14:42:17Z</time>
      </trkpt>
      <trkpt lat="45.08297" lon="6.10795">
        <ele>1809.4</ele>
        <time>2021-03-10T14:42:18Z</time>
      </trkpt>
      <trkpt lat="45.08298" lon="6.10794">
        <ele>1809.5</ele>
        <time>2021-03-10T14:42:19Z</time>
      </trkpt>
      <trkpt lat="45.08299" lon="6.10794">
        <ele>1809.5</ele>
        <time>2021-03-10T14:42:20Z</time>
      </trkpt>
      <trkpt lat="45.083" lon="6.10794">
        <ele>1809.6</ele>
        <time>2021-03-10T14:42:21Z</time>
      </trkpt>
      <trkpt lat="45.08301" lon="6.10793">
        <ele>1809.7</ele>
        <time>2021-03-10T14:42:22Z</time>
      </trkpt>
      <trkpt lat="45.08302" lon="6.10793">
        <ele>1809.8</ele>
        <time>2021-03-10T14:42:23Z</time>
      </trkpt>
      <trkpt lat="45.08302" lon="6.10793">
        <ele>1809.9</ele>
        <time>2021-03-10T14:42:24Z</time>
      </trkpt>
      <trkpt lat="45.08303" lon="6.10792">
        <ele>1810</ele>
        <time>2021-03-10T14:42:25Z</time>
      </trkpt>
      <trkpt lat="45.08304" lon="6.10791">
        <ele>1810.1</ele>
        <time>2021-03-10T14:42:26Z</time>
      </trkpt>
      <trkpt lat="45.08306" lon="6.10791">
        <ele>1810.3</ele>
        <time>2021-03-10T14:42:27Z</time>
      </trkpt>
      <trkpt lat="45.08306" lon="6.10791">
        <ele>1810.4</ele>
        <time>2021-03-10T14:42:28Z</time>
      </trkpt>
      <trkpt lat="45.08307" lon="6.1079">
        <ele>1810.4</ele>
        <time>2021-03-10T14:42:29Z</time>
      </trkpt>
      <trkpt lat="45.08308" lon="6.10789">
        <ele>1810.5</ele>
        <time>2021-03-10T14:42:30Z</time>
      </trkpt>
      <trkpt lat="45.08309" lon="6.10788">
        <ele>1810.7</ele>
        <time>2021-03-10T14:42:31Z</time>
      </trkpt>
      <trkpt lat="45.0831" lon="6.10787">
        <ele>1810.8</ele>
        <time>2021-03-10T14:42:32Z</time>
      </trkpt>
      <trkpt lat="45.08311" lon="6.10787">
        <ele>1810.9</ele>
        <time>2021-03-10T14:42:33Z</time>
      </trkpt>
      <trkpt lat="45.08312" lon="6.10787">
        <ele>1811</ele>
        <time>2021-03-10T14:42:34Z</time>
      </trkpt>
      <trkpt lat="45.08313" lon="6.10786">
        <ele>1811.1</ele>
        <time>2021-03-10T14:42:35Z</time>
      </trkpt>
      <trkpt lat="45.08314" lon="6.10785">
        <ele>1811.2</ele>
        <time>2021-03-10T14:42:36Z</time>
      </trkpt>
      <trkpt lat="45.08315" lon="6.10784">
        <ele>1811.3</ele>
        <time>2021-03-10T14:42:37Z</time>
      </trkpt>
      <trkpt lat="45.08316" lon="6.10783">
        <ele>1811.4</ele>
        <time>2021-03-10T14:42:38Z</time>
      </trkpt>
      <trkpt lat="45.08316" lon="6.10782">
        <ele>1811.5</ele>
        <time>2021-03-10T14:42:39Z</time>
      </trkpt>
      <trkpt lat="45.08317" lon="6.10781">
        <ele>1811.6</ele>
        <time>2021-03-10T14:42:40Z</time>
      </trkpt>
      <trkpt lat="45.08318" lon="6.1078">
        <ele>1811.7</ele>
        <time>2021-03-10T14:42:41Z</time>
      </trkpt>
      <trkpt lat="45.08319" lon="6.10779">
        <ele>1811.8</ele>
        <time>2021-03-10T14:42:42Z</time>
      </trkpt>
      <trkpt lat="45.08319" lon="6.10778">
        <ele>1811.9</ele>
        <time>2021-03-10T14:42:43Z</time>
      </trkpt>
      <trkpt lat="45.0832" lon="6.10777">
        <ele>1811.9</ele>
        <time>2021-03-10T14:42:44Z</time>
      </trkpt>
      <trkpt lat="45.08321" lon="6.10776">
        <ele>1812.1</ele>
        <time>2021-03-10T14:42:45Z</time>
      </trkpt>
      <trkpt lat="45.08322" lon="6.10775">
        <ele>1812.1</ele>
        <time>2021-03-10T14:42:46Z</time>
      </trkpt>
      <trkpt lat="45.08323" lon="6.10775">
        <ele>1812.3</ele>
        <time>2021-03-10T14:42:47Z</time>
      </trkpt>
      <trkpt lat="45.08324" lon="6.10774">
        <ele>1812.3</ele>
        <time>2021-03-10T14:42:48Z</time>
      </trkpt>
      <trkpt lat="45.08325" lon="6.10774">
        <ele>1812.4</ele>
        <time>2021-03-10T14:42:49Z</time>
      </trkpt>
      <trkpt lat="45.08326" lon="6.10773">
        <ele>1812.5</ele>
        <time>2021-03-10T14:42:50Z</time>
      </trkpt>
      <trkpt lat="45.08327" lon="6.10772">
        <ele>1812.6</ele>
        <time>2021-03-10T14:42:51Z</time>
      </trkpt>
      <trkpt lat="45.08328" lon="6.10771">
        <ele>1812.7</ele>
        <time>2021-03-10T14:42:52Z</time>
      </trkpt>
      <trkpt lat="45.08328" lon="6.10771">
        <ele>1812.7</ele>
        <time>2021-03-10T14:42:53Z</time>
      </trkpt>
      <trkpt lat="45.08329" lon="6.1077">
        <ele>1812.8</ele>
        <time>2021-03-10T14:42:54Z</time>
      </trkpt>
      <trkpt lat="45.0833" lon="6.10769">
        <ele>1812.9</ele>
        <time>2021-03-10T14:42:55Z</time>
      </trkpt>
      <trkpt lat="45.08331" lon="6.10768">
        <ele>1813</ele>
        <time>2021-03-10T14:42:56Z</time>
      </trkpt>
      <trkpt lat="45.08331" lon="6.10767">
        <ele>1813</ele>
        <time>2021-03-10T14:42:57Z</time>
      </trkpt>
      <trkpt lat="45.08332" lon="6.10766">
        <ele>1813.1</ele>
        <time>2021-03-10T14:42:58Z</time>
      </trkpt>
      <trkpt lat="45.08332" lon="6.10765">
        <ele>1813.2</ele>
        <time>2021-03-10T14:42:59Z</time>
      </trkpt>
      <trkpt lat="45.08333" lon="6.10764">
        <ele>1813.2</ele>
        <time>2021-03-10T14:43:00Z</time>
      </trkpt>
      <trkpt lat="45.08334" lon="6.10763">
        <ele>1813.3</ele>
        <time>2021-03-10T14:43:01Z</time>
      </trkpt>
      <trkpt lat="45.08334" lon="6.10762">
        <ele>1813.4</ele>
        <time>2021-03-10T14:43:02Z</time>
      </trkpt>
      <trkpt lat="45.08336" lon="6.10761">
        <ele>1813.5</ele>
        <time>2021-03-10T14:43:03Z</time>
      </trkpt>
      <trkpt lat="45.08337" lon="6.10759">
        <ele>1813.6</ele>
        <time>2021-03-10T14:43:04Z</time>
      </trkpt>
      <trkpt lat="45.08338" lon="6.10759">
        <ele>1813.7</ele>
        <time>2021-03-10T14:43:05Z</time>
      </trkpt>
      <trkpt lat="45.08338" lon="6.10758">
        <ele>1813.8</ele>
        <time>2021-03-10T14:43:06Z</time>
      </trkpt>
      <trkpt lat="45.08339" lon="6.10757">
        <ele>1813.8</ele>
        <time>2021-03-10T14:43:07Z</time>
      </trkpt>
      <trkpt lat="45.08341" lon="6.10756">
        <ele>1813.9</ele>
        <time>2021-03-10T14:43:08Z</time>
      </trkpt>
      <trkpt lat="45.08342" lon="6.10756">
        <ele>1814</ele>
        <time>2021-03-10T14:43:09Z</time>
      </trkpt>
      <trkpt lat="45.08343" lon="6.10754">
        <ele>1814.1</ele>
        <time>2021-03-10T14:43:10Z</time>
      </trkpt>
      <trkpt lat="45.08344" lon="6.10753">
        <ele>1814.2</ele>
        <time>2021-03-10T14:43:11Z</time>
      </trkpt>
      <trkpt lat="45.08345" lon="6.10752">
        <ele>1814.3</ele>
        <time>2021-03-10T14:43:12Z</time>
      </trkpt>
      <trkpt lat="45.08346" lon="6.10751">
        <ele>1814.4</ele>
        <time>2021-03-10T14:43:13Z</time>
      </trkpt>
      <trkpt lat="45.08347" lon="6.10751">
        <ele>1814.5</ele>
        <time>2021-03-10T14:43:14Z</time>
      </trkpt>
      <trkpt lat="45.08348" lon="6.1075">
        <ele>1814.6</ele>
        <time>2021-03-10T14:43:15Z</time>
      </trkpt>
      <trkpt lat="45.08349" lon="6.10749">
        <ele>1814.6</ele>
        <time>2021-03-10T14:43:16Z</time>
      </trkpt>
      <trkpt lat="45.0835" lon="6.10748">
        <ele>1814.7</ele>
        <time>2021-03-10T14:43:17Z</time>
      </trkpt>
      <trkpt lat="45.08351" lon="6.10748">
        <ele>1814.8</ele>
        <time>2021-03-10T14:43:18Z</time>
      </trkpt>
      <trkpt lat="45.08352" lon="6.10747">
        <ele>1814.9</ele>
        <time>2021-03-10T14:43:19Z</time>
      </trkpt>
      <trkpt lat="45.08353" lon="6.10746">
        <ele>1815</ele>
        <time>2021-03-10T14:43:20Z</time>
      </trkpt>
      <trkpt lat="45.08354" lon="6.10745">
        <ele>1815.2</ele>
        <time>2021-03-10T14:43:21Z</time>
      </trkpt>
      <trkpt lat="45.08355" lon="6.10745">
        <ele>1815.3</ele>
        <time>2021-03-10T14:43:22Z</time>
      </trkpt>
      <trkpt lat="45.08356" lon="6.10744">
        <ele>1815.3</ele>
        <time>2021-03-10T14:43:23Z</time>
      </trkpt>
      <trkpt lat="45.08358" lon="6.10744">
        <ele>1815.5</ele>
        <time>2021-03-10T14:43:24Z</time>
      </trkpt>
      <trkpt lat="45.08359" lon="6.10744">
        <ele>1815.6</ele>
        <time>2021-03-10T14:43:25Z</time>
      </trkpt>
      <trkpt lat="45.0836" lon="6.10744">
        <ele>1815.7</ele>
        <time>2021-03-10T14:43:26Z</time>
      </trkpt>
      <trkpt lat="45.08361" lon="6.10743">
        <ele>1815.8</ele>
        <time>2021-03-10T14:43:27Z</time>
      </trkpt>
      <trkpt lat="45.08362" lon="6.10743">
        <ele>1815.8</ele>
        <time>2021-03-10T14:43:28Z</time>
      </trkpt>
      <trkpt lat="45.08363" lon="6.10743">
        <ele>1815.9</ele>
        <time>2021-03-10T14:43:29Z</time>
      </trkpt>
      <trkpt lat="45.08364" lon="6.10743">
        <ele>1816</ele>
        <time>2021-03-10T14:43:30Z</time>
      </trkpt>
      <trkpt lat="45.08365" lon="6.10742">
        <ele>1816.2</ele>
        <time>2021-03-10T14:43:31Z</time>
      </trkpt>
      <trkpt lat="45.08366" lon="6.10742">
        <ele>1816.3</ele>
        <time>2021-03-10T14:43:32Z</time>
      </trkpt>
      <trkpt lat="45.08367" lon="6.10741">
        <ele>1816.4</ele>
        <time>2021-03-10T14:43:33Z</time>
      </trkpt>
      <trkpt lat="45.08368" lon="6.1074">
        <ele>1816.5</ele>
        <time>2021-03-10T14:43:34Z</time>
      </trkpt>
      <trkpt lat="45.08368" lon="6.10739">
        <ele>1816.6</ele>
        <time>2021-03-10T14:43:35Z</time>
      </trkpt>
      <trkpt lat="45.0837" lon="6.10738">
        <ele>1816.7</ele>
        <time>2021-03-10T14:43:36Z</time>
      </trkpt>
      <trkpt lat="45.0837" lon="6.10738">
        <ele>1816.8</ele>
        <time>2021-03-10T14:43:37Z</time>
      </trkpt>
      <trkpt lat="45.08371" lon="6.10737">
        <ele>1816.9</ele>
        <time>2021-03-10T14:43:38Z</time>
      </trkpt>
      <trkpt lat="45.08372" lon="6.10737">
        <ele>1817</ele>
        <time>2021-03-10T14:43:39Z</time>
      </trkpt>
      <trkpt lat="45.08374" lon="6.10736">
        <ele>1817.2</ele>
        <time>2021-03-10T14:43:40Z</time>
      </trkpt>
      <trkpt lat="45.08375" lon="6.10736">
        <ele>1817.3</ele>
        <time>2021-03-10T14:43:41Z</time>
      </trkpt>
      <trkpt lat="45.08376" lon="6.10736">
        <ele>1817.4</ele>
        <time>2021-03-10T14:43:42Z</time>
      </trkpt>
      <trkpt lat="45.08377" lon="6.10734">
        <ele>1817.6</ele>
        <time>2021-03-10T14:43:43Z</time>
      </trkpt>
      <trkpt lat="45.08378" lon="6.10734">
        <ele>1817.6</ele>
        <time>2021-03-10T14:43:44Z</time>
      </trkpt>
      <trkpt lat="45.08378" lon="6.10733">
        <ele>1817.7</ele>
        <time>2021-03-10T14:43:45Z</time>
      </trkpt>
      <trkpt lat="45.08379" lon="6.10733">
        <ele>1817.8</ele>
        <time>2021-03-10T14:43:46Z</time>
      </trkpt>
      <trkpt lat="45.0838" lon="6.10732">
        <ele>1817.9</ele>
        <time>2021-03-10T14:43:47Z</time>
      </trkpt>
      <trkpt lat="45.08381" lon="6.10732">
        <ele>1818</ele>
        <time>2021-03-10T14:43:48Z</time>
      </trkpt>
      <trkpt lat="45.08382" lon="6.10732">
        <ele>1818.1</ele>
        <time>2021-03-10T14:43:49Z</time>
      </trkpt>
      <trkpt lat="45.08383" lon="6.10731">
        <ele>1818.3</ele>
        <time>2021-03-10T14:43:50Z</time>
      </trkpt>
      <trkpt lat="45.08384" lon="6.1073">
        <ele>1818.4</ele>
        <time>2021-03-10T14:43:51Z</time>
      </trkpt>
      <trkpt lat="45.08385" lon="6.1073">
        <ele>1818.5</ele>
        <time>2021-03-10T14:43:52Z</time>
      </trkpt>
      <trkpt lat="45.08386" lon="6.10729">
        <ele>1818.6</ele>
        <time>2021-03-10T14:43:53Z</time>
      </trkpt>
      <trkpt lat="45.08386" lon="6.10728">
        <ele>1818.8</ele>
        <time>2021-03-10T14:43:54Z</time>
      </trkpt>
      <trkpt lat="45.08387" lon="6.10727">
        <ele>1818.9</ele>
        <time>2021-03-10T14:43:55Z</time>
      </trkpt>
      <trkpt lat="45.08388" lon="6.10726">
        <ele>1819</ele>
        <time>2021-03-10T14:43:56Z</time>
      </trkpt>
      <trkpt lat="45.08389" lon="6.10725">
        <ele>1819.1</ele>
        <time>2021-03-10T14:43:57Z</time>
      </trkpt>
      <trkpt lat="45.0839" lon="6.10725">
        <ele>1819.3</ele>
        <time>2021-03-10T14:43:58Z</time>
      </trkpt>
      <trkpt lat="45.08391" lon="6.10724">
        <ele>1819.4</ele>
        <time>2021-03-10T14:43:59Z</time>
      </trkpt>
      <trkpt lat="45.08392" lon="6.10723">
        <ele>1819.5</ele>
        <time>2021-03-10T14:44:00Z</time>
      </trkpt>
      <trkpt lat="45.08392" lon="6.10722">
        <ele>1819.6</ele>
        <time>2021-03-10T14:44:01Z</time>
      </trkpt>
      <trkpt lat="45.08393" lon="6.10722">
        <ele>1819.7</ele>
        <time>2021-03-10T14:44:02Z</time>
      </trkpt>
      <trkpt lat="45.08394" lon="6.10721">
        <ele>1819.8</ele>
        <time>2021-03-10T14:44:03Z</time>
      </trkpt>
      <trkpt lat="45.08394" lon="6.1072">
        <ele>1819.9</ele>
        <time>2021-03-10T14:44:04Z</time>
      </trkpt>
      <trkpt lat="45.08395" lon="6.10719">
        <ele>1820</ele>
        <time>2021-03-10T14:44:05Z</time>
      </trkpt>
      <trkpt lat="45.08396" lon="6.10718">
        <ele>1820.2</ele>
        <time>2021-03-10T14:44:06Z</time>
      </trkpt>
      <trkpt lat="45.08397" lon="6.10717">
        <ele>1820.3</ele>
        <time>2021-03-10T14:44:07Z</time>
      </trkpt>
      <trkpt lat="45.08398" lon="6.10716">
        <ele>1820.4</ele>
        <time>2021-03-10T14:44:08Z</time>
      </trkpt>
      <trkpt lat="45.08399" lon="6.10716">
        <ele>1820.5</ele>
        <time>2021-03-10T14:44:09Z</time>
      </trkpt>
      <trkpt lat="45.08399" lon="6.10715">
        <ele>1820.6</ele>
        <time>2021-03-10T14:44:10Z</time>
      </trkpt>
      <trkpt lat="45.084" lon="6.10714">
        <ele>1820.8</ele>
        <time>2021-03-10T14:44:11Z</time>
      </trkpt>
      <trkpt lat="45.08401" lon="6.10713">
        <ele>1820.9</ele>
        <time>2021-03-10T14:44:12Z</time>
      </trkpt>
      <trkpt lat="45.08402" lon="6.10712">
        <ele>1821</ele>
        <time>2021-03-10T14:44:13Z</time>
      </trkpt>
      <trkpt lat="45.08403" lon="6.10711">
        <ele>1821.1</ele>
        <time>2021-03-10T14:44:14Z</time>
      </trkpt>
      <trkpt lat="45.08403" lon="6.1071">
        <ele>1821.2</ele>
        <time>2021-03-10T14:44:15Z</time>
      </trkpt>
      <trkpt lat="45.08404" lon="6.10709">
        <ele>1821.3</ele>
        <time>2021-03-10T14:44:16Z</time>
      </trkpt>
      <trkpt lat="45.08404" lon="6.10708">
        <ele>1821.4</ele>
        <time>2021-03-10T14:44:17Z</time>
      </trkpt>
      <trkpt lat="45.08405" lon="6.10707">
        <ele>1821.5</ele>
        <time>2021-03-10T14:44:18Z</time>
      </trkpt>
      <trkpt lat="45.08405" lon="6.10705">
        <ele>1821.6</ele>
        <time>2021-03-10T14:44:19Z</time>
      </trkpt>
      <trkpt lat="45.08406" lon="6.10704">
        <ele>1821.7</ele>
        <time>2021-03-10T14:44:20Z</time>
      </trkpt>
      <trkpt lat="45.08406" lon="6.10703">
        <ele>1821.8</ele>
        <time>2021-03-10T14:44:21Z</time>
      </trkpt>
      <trkpt lat="45.08407" lon="6.10702">
        <ele>1821.9</ele>
        <time>2021-03-10T14:44:22Z</time>
      </trkpt>
      <trkpt lat="45.08407" lon="6.10701">
        <ele>1822</ele>
        <time>2021-03-10T14:44:23Z</time>
      </trkpt>
      <trkpt lat="45.08408" lon="6.107">
        <ele>1822.1</ele>
        <time>2021-03-10T14:44:24Z</time>
      </trkpt>
      <trkpt lat="45.08409" lon="6.10699">
        <ele>1822.2</ele>
        <time>2021-03-10T14:44:25Z</time>
      </trkpt>
      <trkpt lat="45.08409" lon="6.10698">
        <ele>1822.3</ele>
        <time>2021-03-10T14:44:26Z</time>
      </trkpt>
      <trkpt lat="45.0841" lon="6.10697">
        <ele>1822.4</ele>
        <time>2021-03-10T14:44:27Z</time>
      </trkpt>
      <trkpt lat="45.0841" lon="6.10696">
        <ele>1822.5</ele>
        <time>2021-03-10T14:44:28Z</time>
      </trkpt>
      <trkpt lat="45.08411" lon="6.10695">
        <ele>1822.5</ele>
        <time>2021-03-10T14:44:29Z</time>
      </trkpt>
      <trkpt lat="45.08411" lon="6.10694">
        <ele>1822.6</ele>
        <time>2021-03-10T14:44:30Z</time>
      </trkpt>
      <trkpt lat="45.08412" lon="6.10693">
        <ele>1822.7</ele>
        <time>2021-03-10T14:44:31Z</time>
      </trkpt>
      <trkpt lat="45.08412" lon="6.10693">
        <ele>1822.7</ele>
        <time>2021-03-10T14:44:32Z</time>
      </trkpt>
      <trkpt lat="45.08412" lon="6.10693">
        <ele>1822.7</ele>
        <time>2021-03-10T14:44:33Z</time>
      </trkpt>
      <trkpt lat="45.08412" lon="6.10693">
        <ele>1822.7</ele>
        <time>2021-03-10T14:44:34Z</time>
      </trkpt>
      <trkpt lat="45.08412" lon="6.10693">
        <ele>1822.7</ele>
        <time>2021-03-10T14:44:35Z</time>
      </trkpt>
      <trkpt lat="45.08412" lon="6.10693">
        <ele>1822.7</ele>
        <time>2021-03-10T14:44:36Z</time>
      </trkpt>
      <trkpt lat="45.08412" lon="6.10693">
        <ele>1822.7</ele>
        <time>2021-03-10T14:44:37Z</time>
      </trkpt>
      <trkpt lat="45.08412" lon="6.10693">
        <ele>1822.7</ele>
        <time>2021-03-10T14:44:38Z</time>
      </trkpt>
      <trkpt lat="45.08412" lon="6.10693">
        <ele>1822.7</ele>
        <time>2021-03-10T14:44:39Z</time>
      </trkpt>
      <trkpt lat="45.08414" lon="6.10679">
        <ele>1823.6</ele>
        <time>2021-03-10T14:45:11Z</time>
      </trkpt>
      <trkpt lat="45.08414" lon="6.10678">
        <ele>1823.6</ele>
        <time>2021-03-10T14:45:12Z</time>
      </trkpt>
      <trkpt lat="45.08415" lon="6.10676">
        <ele>1823.7</ele>
        <time>2021-03-10T14:45:13Z</time>
      </trkpt>
      <trkpt lat="45.08414" lon="6.10674">
        <ele>1823.9</ele>
        <time>2021-03-10T14:45:14Z</time>
      </trkpt>
      <trkpt lat="45.08414" lon="6.10672">
        <ele>1824</ele>
        <time>2021-03-10T14:45:15Z</time>
      </trkpt>
      <trkpt lat="45.08414" lon="6.1067">
        <ele>1824.1</ele>
        <time>2021-03-10T14:45:16Z</time>
      </trkpt>
      <trkpt lat="45.08414" lon="6.10668">
        <ele>1824.2</ele>
        <time>2021-03-10T14:45:17Z</time>
      </trkpt>
      <trkpt lat="45.08414" lon="6.10666">
        <ele>1824.3</ele>
        <time>2021-03-10T14:45:18Z</time>
      </trkpt>
      <trkpt lat="45.08414" lon="6.10665">
        <ele>1824.4</ele>
        <time>2021-03-10T14:45:19Z</time>
      </trkpt>
      <trkpt lat="45.08415" lon="6.10664">
        <ele>1824.5</ele>
        <time>2021-03-10T14:45:20Z</time>
      </trkpt>
      <trkpt lat="45.08415" lon="6.10662">
        <ele>1824.6</ele>
        <time>2021-03-10T14:45:21Z</time>
      </trkpt>
      <trkpt lat="45.08416" lon="6.1066">
        <ele>1824.7</ele>
        <time>2021-03-10T14:45:22Z</time>
      </trkpt>
      <trkpt lat="45.08416" lon="6.10659">
        <ele>1824.8</ele>
        <time>2021-03-10T14:45:23Z</time>
      </trkpt>
      <trkpt lat="45.08416" lon="6.10658">
        <ele>1824.9</ele>
        <time>2021-03-10T14:45:24Z</time>
      </trkpt>
      <trkpt lat="45.08416" lon="6.10656">
        <ele>1825</ele>
        <time>2021-03-10T14:45:25Z</time>
      </trkpt>
      <trkpt lat="45.08416" lon="6.10655">
        <ele>1825.1</ele>
        <time>2021-03-10T14:45:26Z</time>
      </trkpt>
      <trkpt lat="45.08416" lon="6.10653">
        <ele>1825.1</ele>
        <time>2021-03-10T14:45:27Z</time>
      </trkpt>
      <trkpt lat="45.08417" lon="6.10652">
        <ele>1825.2</ele>
        <time>2021-03-10T14:45:28Z</time>
      </trkpt>
      <trkpt lat="45.08417" lon="6.10652">
        <ele>1825.2</ele>
        <time>2021-03-10T14:45:29Z</time>
      </trkpt>
      <trkpt lat="45.08417" lon="6.10651">
        <ele>1825.3</ele>
        <time>2021-03-10T14:45:30Z</time>
      </trkpt>
      <trkpt lat="45.08417" lon="6.1065">
        <ele>1825.4</ele>
        <time>2021-03-10T14:45:31Z</time>
      </trkpt>
      <trkpt lat="45.08417" lon="6.10649">
        <ele>1825.4</ele>
        <time>2021-03-10T14:45:32Z</time>
      </trkpt>
      <trkpt lat="45.08418" lon="6.10647">
        <ele>1825.5</ele>
        <time>2021-03-10T14:45:33Z</time>
      </trkpt>
      <trkpt lat="45.08419" lon="6.10647">
        <ele>1825.6</ele>
        <time>2021-03-10T14:45:34Z</time>
      </trkpt>
      <trkpt lat="45.0842" lon="6.10646">
        <ele>1825.7</ele>
        <time>2021-03-10T14:45:35Z</time>
      </trkpt>
      <trkpt lat="45.08421" lon="6.10645">
        <ele>1825.8</ele>
        <time>2021-03-10T14:45:36Z</time>
      </trkpt>
      <trkpt lat="45.08421" lon="6.10644">
        <ele>1825.9</ele>
        <time>2021-03-10T14:45:37Z</time>
      </trkpt>
      <trkpt lat="45.08422" lon="6.10643">
        <ele>1826</ele>
        <time>2021-03-10T14:45:38Z</time>
      </trkpt>
      <trkpt lat="45.08423" lon="6.10642">
        <ele>1826.1</ele>
        <time>2021-03-10T14:45:39Z</time>
      </trkpt>
      <trkpt lat="45.08424" lon="6.10642">
        <ele>1826.1</ele>
        <time>2021-03-10T14:45:40Z</time>
      </trkpt>
      <trkpt lat="45.08425" lon="6.10641">
        <ele>1826.2</ele>
        <time>2021-03-10T14:45:41Z</time>
      </trkpt>
      <trkpt lat="45.08426" lon="6.1064">
        <ele>1826.3</ele>
        <time>2021-03-10T14:45:42Z</time>
      </trkpt>
      <trkpt lat="45.08426" lon="6.10639">
        <ele>1826.4</ele>
        <time>2021-03-10T14:45:43Z</time>
      </trkpt>
      <trkpt lat="45.08427" lon="6.10638">
        <ele>1826.5</ele>
        <time>2021-03-10T14:45:44Z</time>
      </trkpt>
      <trkpt lat="45.08428" lon="6.10637">
        <ele>1826.6</ele>
        <time>2021-03-10T14:45:45Z</time>
      </trkpt>
      <trkpt lat="45.08429" lon="6.10636">
        <ele>1826.7</ele>
        <time>2021-03-10T14:45:46Z</time>
      </trkpt>
      <trkpt lat="45.08429" lon="6.10635">
        <ele>1826.7</ele>
        <time>2021-03-10T14:45:47Z</time>
      </trkpt>
      <trkpt lat="45.0843" lon="6.10634">
        <ele>1826.8</ele>
        <time>2021-03-10T14:45:48Z</time>
      </trkpt>
      <trkpt lat="45.08431" lon="6.10633">
        <ele>1826.9</ele>
        <time>2021-03-10T14:45:49Z</time>
      </trkpt>
      <trkpt lat="45.08431" lon="6.10632">
        <ele>1827</ele>
        <time>2021-03-10T14:45:50Z</time>
      </trkpt>
      <trkpt lat="45.08432" lon="6.10632">
        <ele>1827</ele>
        <time>2021-03-10T14:45:51Z</time>
      </trkpt>
      <trkpt lat="45.08433" lon="6.1063">
        <ele>1827.1</ele>
        <time>2021-03-10T14:45:52Z</time>
      </trkpt>
      <trkpt lat="45.08434" lon="6.10629">
        <ele>1827.2</ele>
        <time>2021-03-10T14:45:53Z</time>
      </trkpt>
      <trkpt lat="45.08434" lon="6.10628">
        <ele>1827.3</ele>
        <time>2021-03-10T14:45:54Z</time>
      </trkpt>
      <trkpt lat="45.08435" lon="6.10627">
        <ele>1827.4</ele>
        <time>2021-03-10T14:45:55Z</time>
      </trkpt>
      <trkpt lat="45.08436" lon="6.10626">
        <ele>1827.4</ele>
        <time>2021-03-10T14:45:56Z</time>
      </trkpt>
      <trkpt lat="45.08436" lon="6.10625">
        <ele>1827.5</ele>
        <time>2021-03-10T14:45:57Z</time>
      </trkpt>
      <trkpt lat="45.08437" lon="6.10624">
        <ele>1827.6</ele>
        <time>2021-03-10T14:45:58Z</time>
      </trkpt>
      <trkpt lat="45.08438" lon="6.10623">
        <ele>1827.7</ele>
        <time>2021-03-10T14:45:59Z</time>
      </trkpt>
      <trkpt lat="45.08439" lon="6.10623">
        <ele>1827.7</ele>
        <time>2021-03-10T14:46:00Z</time>
      </trkpt>
      <trkpt lat="45.0844" lon="6.10621">
        <ele>1827.9</ele>
        <time>2021-03-10T14:46:01Z</time>
      </trkpt>
      <trkpt lat="45.08441" lon="6.1062">
        <ele>1827.9</ele>
        <time>2021-03-10T14:46:02Z</time>
      </trkpt>
      <trkpt lat="45.08442" lon="6.10619">
        <ele>1828</ele>
        <time>2021-03-10T14:46:03Z</time>
      </trkpt>
      <trkpt lat="45.08443" lon="6.10618">
        <ele>1828.1</ele>
        <time>2021-03-10T14:46:04Z</time>
      </trkpt>
      <trkpt lat="45.08443" lon="6.10617">
        <ele>1828.1</ele>
        <time>2021-03-10T14:46:05Z</time>
      </trkpt>
      <trkpt lat="45.08444" lon="6.10616">
        <ele>1828.2</ele>
        <time>2021-03-10T14:46:06Z</time>
      </trkpt>
      <trkpt lat="45.08445" lon="6.10615">
        <ele>1828.3</ele>
        <time>2021-03-10T14:46:07Z</time>
      </trkpt>
      <trkpt lat="45.08445" lon="6.10614">
        <ele>1828.4</ele>
        <time>2021-03-10T14:46:08Z</time>
      </trkpt>
      <trkpt lat="45.08446" lon="6.10613">
        <ele>1828.4</ele>
        <time>2021-03-10T14:46:09Z</time>
      </trkpt>
      <trkpt lat="45.08447" lon="6.10612">
        <ele>1828.5</ele>
        <time>2021-03-10T14:46:10Z</time>
      </trkpt>
      <trkpt lat="45.08448" lon="6.10611">
        <ele>1828.6</ele>
        <time>2021-03-10T14:46:11Z</time>
      </trkpt>
      <trkpt lat="45.08448" lon="6.10611">
        <ele>1828.6</ele>
        <time>2021-03-10T14:46:12Z</time>
      </trkpt>
      <trkpt lat="45.08449" lon="6.1061">
        <ele>1828.7</ele>
        <time>2021-03-10T14:46:13Z</time>
      </trkpt>
      <trkpt lat="45.0845" lon="6.1061">
        <ele>1828.7</ele>
        <time>2021-03-10T14:46:14Z</time>
      </trkpt>
      <trkpt lat="45.08451" lon="6.10609">
        <ele>1828.8</ele>
        <time>2021-03-10T14:46:15Z</time>
      </trkpt>
      <trkpt lat="45.08452" lon="6.10608">
        <ele>1828.9</ele>
        <time>2021-03-10T14:46:16Z</time>
      </trkpt>
      <trkpt lat="45.08453" lon="6.10608">
        <ele>1829</ele>
        <time>2021-03-10T14:46:17Z</time>
      </trkpt>
      <trkpt lat="45.08454" lon="6.10607">
        <ele>1829</ele>
        <time>2021-03-10T14:46:18Z</time>
      </trkpt>
      <trkpt lat="45.08455" lon="6.10606">
        <ele>1829.1</ele>
        <time>2021-03-10T14:46:19Z</time>
      </trkpt>
      <trkpt lat="45.08457" lon="6.10606">
        <ele>1829.2</ele>
        <time>2021-03-10T14:46:20Z</time>
      </trkpt>
      <trkpt lat="45.08457" lon="6.10605">
        <ele>1829.3</ele>
        <time>2021-03-10T14:46:21Z</time>
      </trkpt>
      <trkpt lat="45.08458" lon="6.10605">
        <ele>1829.3</ele>
        <time>2021-03-10T14:46:22Z</time>
      </trkpt>
      <trkpt lat="45.08459" lon="6.10605">
        <ele>1829.4</ele>
        <time>2021-03-10T14:46:23Z</time>
      </trkpt>
      <trkpt lat="45.0846" lon="6.10604">
        <ele>1829.5</ele>
        <time>2021-03-10T14:46:24Z</time>
      </trkpt>
      <trkpt lat="45.08461" lon="6.10604">
        <ele>1829.5</ele>
        <time>2021-03-10T14:46:25Z</time>
      </trkpt>
      <trkpt lat="45.08462" lon="6.10604">
        <ele>1829.6</ele>
        <time>2021-03-10T14:46:26Z</time>
      </trkpt>
      <trkpt lat="45.08464" lon="6.10604">
        <ele>1829.7</ele>
        <time>2021-03-10T14:46:27Z</time>
      </trkpt>
      <trkpt lat="45.08465" lon="6.10604">
        <ele>1829.8</ele>
        <time>2021-03-10T14:46:28Z</time>
      </trkpt>
      <trkpt lat="45.08466" lon="6.10604">
        <ele>1829.8</ele>
        <time>2021-03-10T14:46:29Z</time>
      </trkpt>
      <trkpt lat="45.08467" lon="6.10604">
        <ele>1829.9</ele>
        <time>2021-03-10T14:46:30Z</time>
      </trkpt>
      <trkpt lat="45.08468" lon="6.10604">
        <ele>1830</ele>
        <time>2021-03-10T14:46:31Z</time>
      </trkpt>
      <trkpt lat="45.08469" lon="6.10604">
        <ele>1830.1</ele>
        <time>2021-03-10T14:46:32Z</time>
      </trkpt>
      <trkpt lat="45.08471" lon="6.10604">
        <ele>1830.1</ele>
        <time>2021-03-10T14:46:33Z</time>
      </trkpt>
      <trkpt lat="45.08471" lon="6.10604">
        <ele>1830.2</ele>
        <time>2021-03-10T14:46:34Z</time>
      </trkpt>
      <trkpt lat="45.08472" lon="6.10605">
        <ele>1830.2</ele>
        <time>2021-03-10T14:46:35Z</time>
      </trkpt>
      <trkpt lat="45.08471" lon="6.10605">
        <ele>1830.2</ele>
        <time>2021-03-10T14:46:36Z</time>
      </trkpt>
      <trkpt lat="45.08471" lon="6.10605">
        <ele>1830.3</ele>
        <time>2021-03-10T14:46:37Z</time>
      </trkpt>
      <trkpt lat="45.08471" lon="6.10605">
        <ele>1830.3</ele>
        <time>2021-03-10T14:46:38Z</time>
      </trkpt>
      <trkpt lat="45.0847" lon="6.10605">
        <ele>1830.3</ele>
        <time>2021-03-10T14:46:39Z</time>
      </trkpt>
      <trkpt lat="45.0847" lon="6.10605">
        <ele>1830.3</ele>
        <time>2021-03-10T14:46:40Z</time>
      </trkpt>
      <trkpt lat="45.0847" lon="6.10606">
        <ele>1830.3</ele>
        <time>2021-03-10T14:46:41Z</time>
      </trkpt>
      <trkpt lat="45.08469" lon="6.10606">
        <ele>1830.4</ele>
        <time>2021-03-10T14:46:42Z</time>
      </trkpt>
      <trkpt lat="45.08469" lon="6.10606">
        <ele>1830.4</ele>
        <time>2021-03-10T14:46:43Z</time>
      </trkpt>
      <trkpt lat="45.08469" lon="6.10606">
        <ele>1830.4</ele>
        <time>2021-03-10T14:46:44Z</time>
      </trkpt>
      <trkpt lat="45.08469" lon="6.10606">
        <ele>1830.4</ele>
        <time>2021-03-10T14:47:12Z</time>
      </trkpt>
      <trkpt lat="45.08468" lon="6.10606">
        <ele>1830.4</ele>
        <time>2021-03-10T14:47:13Z</time>
      </trkpt>
      <trkpt lat="45.08468" lon="6.10607">
        <ele>1830.5</ele>
        <time>2021-03-10T14:47:14Z</time>
      </trkpt>
      <trkpt lat="45.08468" lon="6.10607">
        <ele>1830.5</ele>
        <time>2021-03-10T14:47:15Z</time>
      </trkpt>
      <trkpt lat="45.08467" lon="6.10607">
        <ele>1830.5</ele>
        <time>2021-03-10T14:47:16Z</time>
      </trkpt>
      <trkpt lat="45.08467" lon="6.10607">
        <ele>1830.5</ele>
        <time>2021-03-10T14:47:17Z</time>
      </trkpt>
      <trkpt lat="45.08467" lon="6.10607">
        <ele>1830.5</ele>
        <time>2021-03-10T14:47:18Z</time>
      </trkpt>
      <trkpt lat="45.08468" lon="6.10607">
        <ele>1830.6</ele>
        <time>2021-03-10T14:47:19Z</time>
      </trkpt>
      <trkpt lat="45.08468" lon="6.10606">
        <ele>1830.6</ele>
        <time>2021-03-10T14:47:20Z</time>
      </trkpt>
      <trkpt lat="45.08468" lon="6.10606">
        <ele>1830.6</ele>
        <time>2021-03-10T14:47:21Z</time>
      </trkpt>
      <trkpt lat="45.08474" lon="6.10606">
        <ele>1831</ele>
        <time>2021-03-10T14:47:39Z</time>
      </trkpt>
      <trkpt lat="45.08474" lon="6.10606">
        <ele>1831</ele>
        <time>2021-03-10T14:47:40Z</time>
      </trkpt>
      <trkpt lat="45.08474" lon="6.10605">
        <ele>1831.1</ele>
        <time>2021-03-10T14:47:41Z</time>
      </trkpt>
      <trkpt lat="45.08474" lon="6.10605">
        <ele>1831.1</ele>
        <time>2021-03-10T14:47:42Z</time>
      </trkpt>
      <trkpt lat="45.08474" lon="6.10605">
        <ele>1831.1</ele>
        <time>2021-03-10T14:47:43Z</time>
      </trkpt>
      <trkpt lat="45.08472" lon="6.10604">
        <ele>1831.2</ele>
        <time>2021-03-10T14:47:44Z</time>
      </trkpt>
      <trkpt lat="45.08472" lon="6.10604">
        <ele>1831.2</ele>
        <time>2021-03-10T14:47:45Z</time>
      </trkpt>
      <trkpt lat="45.08472" lon="6.10604">
        <ele>1831.3</ele>
        <time>2021-03-10T14:47:46Z</time>
      </trkpt>
      <trkpt lat="45.08473" lon="6.10605">
        <ele>1831.3</ele>
        <time>2021-03-10T14:47:47Z</time>
      </trkpt>
      <trkpt lat="45.08474" lon="6.10605">
        <ele>1831.4</ele>
        <time>2021-03-10T14:47:48Z</time>
      </trkpt>
      <trkpt lat="45.08474" lon="6.10605">
        <ele>1831.4</ele>
        <time>2021-03-10T14:47:49Z</time>
      </trkpt>
      <trkpt lat="45.08486" lon="6.10606">
        <ele>1832.1</ele>
        <time>2021-03-10T14:48:03Z</time>
      </trkpt>
      <trkpt lat="45.08487" lon="6.10606">
        <ele>1832.2</ele>
        <time>2021-03-10T14:48:04Z</time>
      </trkpt>
      <trkpt lat="45.08487" lon="6.10606">
        <ele>1832.2</ele>
        <time>2021-03-10T14:48:05Z</time>
      </trkpt>
      <trkpt lat="45.08488" lon="6.10606">
        <ele>1832.3</ele>
        <time>2021-03-10T14:48:06Z</time>
      </trkpt>
      <trkpt lat="45.0849" lon="6.10605">
        <ele>1832.4</ele>
        <time>2021-03-10T14:48:07Z</time>
      </trkpt>
      <trkpt lat="45.08491" lon="6.10605">
        <ele>1832.5</ele>
        <time>2021-03-10T14:48:08Z</time>
      </trkpt>
      <trkpt lat="45.08491" lon="6.10605">
        <ele>1832.5</ele>
        <time>2021-03-10T14:48:09Z</time>
      </trkpt>
      <trkpt lat="45.08492" lon="6.10605">
        <ele>1832.6</ele>
        <time>2021-03-10T14:48:10Z</time>
      </trkpt>
      <trkpt lat="45.08493" lon="6.10605">
        <ele>1832.6</ele>
        <time>2021-03-10T14:48:11Z</time>
      </trkpt>
      <trkpt lat="45.08493" lon="6.10605">
        <ele>1832.7</ele>
        <time>2021-03-10T14:48:12Z</time>
      </trkpt>
      <trkpt lat="45.08494" lon="6.10604">
        <ele>1832.7</ele>
        <time>2021-03-10T14:48:13Z</time>
      </trkpt>
      <trkpt lat="45.08494" lon="6.10603">
        <ele>1832.7</ele>
        <time>2021-03-10T14:48:14Z</time>
      </trkpt>
      <trkpt lat="45.08495" lon="6.10603">
        <ele>1832.8</ele>
        <time>2021-03-10T14:48:15Z</time>
      </trkpt>
      <trkpt lat="45.08496" lon="6.10602">
        <ele>1832.9</ele>
        <time>2021-03-10T14:48:16Z</time>
      </trkpt>
      <trkpt lat="45.08496" lon="6.10601">
        <ele>1832.9</ele>
        <time>2021-03-10T14:48:17Z</time>
      </trkpt>
      <trkpt lat="45.08497" lon="6.106">
        <ele>1833</ele>
        <time>2021-03-10T14:48:18Z</time>
      </trkpt>
      <trkpt lat="45.08498" lon="6.106">
        <ele>1833</ele>
        <time>2021-03-10T14:48:19Z</time>
      </trkpt>
      <trkpt lat="45.08499" lon="6.106">
        <ele>1833.1</ele>
        <time>2021-03-10T14:48:20Z</time>
      </trkpt>
      <trkpt lat="45.08499" lon="6.10599">
        <ele>1833.2</ele>
        <time>2021-03-10T14:48:21Z</time>
      </trkpt>
      <trkpt lat="45.085" lon="6.10599">
        <ele>1833.2</ele>
        <time>2021-03-10T14:48:22Z</time>
      </trkpt>
      <trkpt lat="45.08501" lon="6.10599">
        <ele>1833.2</ele>
        <time>2021-03-10T14:48:23Z</time>
      </trkpt>
      <trkpt lat="45.08501" lon="6.10598">
        <ele>1833.3</ele>
        <time>2021-03-10T14:48:24Z</time>
      </trkpt>
      <trkpt lat="45.08502" lon="6.10598">
        <ele>1833.3</ele>
        <time>2021-03-10T14:48:25Z</time>
      </trkpt>
      <trkpt lat="45.08503" lon="6.10597">
        <ele>1833.4</ele>
        <time>2021-03-10T14:48:26Z</time>
      </trkpt>
      <trkpt lat="45.08503" lon="6.10596">
        <ele>1833.5</ele>
        <time>2021-03-10T14:48:27Z</time>
      </trkpt>
      <trkpt lat="45.08504" lon="6.10596">
        <ele>1833.5</ele>
        <time>2021-03-10T14:48:28Z</time>
      </trkpt>
      <trkpt lat="45.08505" lon="6.10595">
        <ele>1833.6</ele>
        <time>2021-03-10T14:48:29Z</time>
      </trkpt>
      <trkpt lat="45.08505" lon="6.10595">
        <ele>1833.6</ele>
        <time>2021-03-10T14:48:30Z</time>
      </trkpt>
      <trkpt lat="45.08506" lon="6.10595">
        <ele>1833.7</ele>
        <time>2021-03-10T14:48:31Z</time>
      </trkpt>
      <trkpt lat="45.08507" lon="6.10596">
        <ele>1833.7</ele>
        <time>2021-03-10T14:48:32Z</time>
      </trkpt>
      <trkpt lat="45.08508" lon="6.10596">
        <ele>1833.8</ele>
        <time>2021-03-10T14:48:33Z</time>
      </trkpt>
      <trkpt lat="45.08509" lon="6.10596">
        <ele>1833.8</ele>
        <time>2021-03-10T14:48:34Z</time>
      </trkpt>
      <trkpt lat="45.0851" lon="6.10596">
        <ele>1833.9</ele>
        <time>2021-03-10T14:48:35Z</time>
      </trkpt>
      <trkpt lat="45.08511" lon="6.10596">
        <ele>1834</ele>
        <time>2021-03-10T14:48:36Z</time>
      </trkpt>
      <trkpt lat="45.08513" lon="6.10596">
        <ele>1834.1</ele>
        <time>2021-03-10T14:48:37Z</time>
      </trkpt>
      <trkpt lat="45.08514" lon="6.10596">
        <ele>1834.2</ele>
        <time>2021-03-10T14:48:38Z</time>
      </trkpt>
      <trkpt lat="45.08515" lon="6.10597">
        <ele>1834.2</ele>
        <time>2021-03-10T14:48:39Z</time>
      </trkpt>
      <trkpt lat="45.08516" lon="6.10596">
        <ele>1834.3</ele>
        <time>2021-03-10T14:48:40Z</time>
      </trkpt>
      <trkpt lat="45.08517" lon="6.10595">
        <ele>1834.4</ele>
        <time>2021-03-10T14:48:41Z</time>
      </trkpt>
      <trkpt lat="45.08517" lon="6.10594">
        <ele>1834.4</ele>
        <time>2021-03-10T14:48:42Z</time>
      </trkpt>
      <trkpt lat="45.08518" lon="6.10594">
        <ele>1834.4</ele>
        <time>2021-03-10T14:48:43Z</time>
      </trkpt>
      <trkpt lat="45.08519" lon="6.10592">
        <ele>1834.5</ele>
        <time>2021-03-10T14:48:44Z</time>
      </trkpt>
      <trkpt lat="45.0852" lon="6.10591">
        <ele>1834.6</ele>
        <time>2021-03-10T14:48:45Z</time>
      </trkpt>
      <trkpt lat="45.08521" lon="6.10588">
        <ele>1834.7</ele>
        <time>2021-03-10T14:48:46Z</time>
      </trkpt>
      <trkpt lat="45.08521" lon="6.10587">
        <ele>1834.7</ele>
        <time>2021-03-10T14:48:47Z</time>
      </trkpt>
      <trkpt lat="45.08522" lon="6.10586">
        <ele>1834.8</ele>
        <time>2021-03-10T14:48:48Z</time>
      </trkpt>
      <trkpt lat="45.08522" lon="6.10584">
        <ele>1834.8</ele>
        <time>2021-03-10T14:48:49Z</time>
      </trkpt>
      <trkpt lat="45.08522" lon="6.10583">
        <ele>1834.9</ele>
        <time>2021-03-10T14:48:50Z</time>
      </trkpt>
      <trkpt lat="45.08522" lon="6.10582">
        <ele>1834.9</ele>
        <time>2021-03-10T14:48:51Z</time>
      </trkpt>
      <trkpt lat="45.08522" lon="6.10581">
        <ele>1834.9</ele>
        <time>2021-03-10T14:48:52Z</time>
      </trkpt>
      <trkpt lat="45.08521" lon="6.10579">
        <ele>1835</ele>
        <time>2021-03-10T14:48:53Z</time>
      </trkpt>
      <trkpt lat="45.08521" lon="6.10578">
        <ele>1835</ele>
        <time>2021-03-10T14:48:54Z</time>
      </trkpt>
      <trkpt lat="45.08521" lon="6.10578">
        <ele>1835</ele>
        <time>2021-03-10T14:48:55Z</time>
      </trkpt>
      <trkpt lat="45.08521" lon="6.10577">
        <ele>1835</ele>
        <time>2021-03-10T14:48:56Z</time>
      </trkpt>
      <trkpt lat="45.08521" lon="6.10576">
        <ele>1835</ele>
        <time>2021-03-10T14:48:57Z</time>
      </trkpt>
      <trkpt lat="45.08521" lon="6.10575">
        <ele>1835</ele>
        <time>2021-03-10T14:48:58Z</time>
      </trkpt>
      <trkpt lat="45.0852" lon="6.10574">
        <ele>1835.1</ele>
        <time>2021-03-10T14:48:59Z</time>
      </trkpt>
      <trkpt lat="45.0852" lon="6.10573">
        <ele>1835.1</ele>
        <time>2021-03-10T14:49:00Z</time>
      </trkpt>
      <trkpt lat="45.08519" lon="6.10571">
        <ele>1835.1</ele>
        <time>2021-03-10T14:49:01Z</time>
      </trkpt>
      <trkpt lat="45.08519" lon="6.1057">
        <ele>1835.1</ele>
        <time>2021-03-10T14:49:02Z</time>
      </trkpt>
      <trkpt lat="45.08518" lon="6.10569">
        <ele>1835.2</ele>
        <time>2021-03-10T14:49:03Z</time>
      </trkpt>
      <trkpt lat="45.08517" lon="6.10568">
        <ele>1835.2</ele>
        <time>2021-03-10T14:49:04Z</time>
      </trkpt>
      <trkpt lat="45.08517" lon="6.10567">
        <ele>1835.2</ele>
        <time>2021-03-10T14:49:05Z</time>
      </trkpt>
      <trkpt lat="45.08517" lon="6.10565">
        <ele>1835.2</ele>
        <time>2021-03-10T14:49:06Z</time>
      </trkpt>
      <trkpt lat="45.08516" lon="6.10563">
        <ele>1835.2</ele>
        <time>2021-03-10T14:49:07Z</time>
      </trkpt>
      <trkpt lat="45.08516" lon="6.10562">
        <ele>1835.2</ele>
        <time>2021-03-10T14:49:08Z</time>
      </trkpt>
      <trkpt lat="45.08516" lon="6.1056">
        <ele>1835.3</ele>
        <time>2021-03-10T14:49:09Z</time>
      </trkpt>
      <trkpt lat="45.08517" lon="6.10559">
        <ele>1835.3</ele>
        <time>2021-03-10T14:49:10Z</time>
      </trkpt>
      <trkpt lat="45.08517" lon="6.10557">
        <ele>1835.3</ele>
        <time>2021-03-10T14:49:11Z</time>
      </trkpt>
      <trkpt lat="45.08518" lon="6.10554">
        <ele>1835.3</ele>
        <time>2021-03-10T14:49:12Z</time>
      </trkpt>
      <trkpt lat="45.08518" lon="6.10553">
        <ele>1835.3</ele>
        <time>2021-03-10T14:49:13Z</time>
      </trkpt>
      <trkpt lat="45.08518" lon="6.10551">
        <ele>1835.3</ele>
        <time>2021-03-10T14:49:14Z</time>
      </trkpt>
      <trkpt lat="45.08518" lon="6.10549">
        <ele>1835.3</ele>
        <time>2021-03-10T14:49:15Z</time>
      </trkpt>
      <trkpt lat="45.08517" lon="6.10548">
        <ele>1835.3</ele>
        <time>2021-03-10T14:49:16Z</time>
      </trkpt>
      <trkpt lat="45.08517" lon="6.10546">
        <ele>1835.4</ele>
        <time>2021-03-10T14:49:17Z</time>
      </trkpt>
      <trkpt lat="45.08516" lon="6.10545">
        <ele>1835.4</ele>
        <time>2021-03-10T14:49:18Z</time>
      </trkpt>
      <trkpt lat="45.08515" lon="6.10544">
        <ele>1835.4</ele>
        <time>2021-03-10T14:49:19Z</time>
      </trkpt>
      <trkpt lat="45.08515" lon="6.10543">
        <ele>1835.4</ele>
        <time>2021-03-10T14:49:20Z</time>
      </trkpt>
      <trkpt lat="45.08514" lon="6.10542">
        <ele>1835.4</ele>
        <time>2021-03-10T14:49:21Z</time>
      </trkpt>
      <trkpt lat="45.08513" lon="6.10541">
        <ele>1835.4</ele>
        <time>2021-03-10T14:49:22Z</time>
      </trkpt>
      <trkpt lat="45.08512" lon="6.1054">
        <ele>1835.4</ele>
        <time>2021-03-10T14:49:23Z</time>
      </trkpt>
      <trkpt lat="45.08511" lon="6.10538">
        <ele>1835.4</ele>
        <time>2021-03-10T14:49:24Z</time>
      </trkpt>
      <trkpt lat="45.08511" lon="6.10537">
        <ele>1835.4</ele>
        <time>2021-03-10T14:49:25Z</time>
      </trkpt>
      <trkpt lat="45.0851" lon="6.10536">
        <ele>1835.4</ele>
        <time>2021-03-10T14:49:26Z</time>
      </trkpt>
      <trkpt lat="45.08509" lon="6.10535">
        <ele>1835.4</ele>
        <time>2021-03-10T14:49:27Z</time>
      </trkpt>
      <trkpt lat="45.08508" lon="6.10534">
        <ele>1835.5</ele>
        <time>2021-03-10T14:49:28Z</time>
      </trkpt>
      <trkpt lat="45.08507" lon="6.10531">
        <ele>1835.5</ele>
        <time>2021-03-10T14:49:29Z</time>
      </trkpt>
      <trkpt lat="45.08507" lon="6.1053">
        <ele>1835.5</ele>
        <time>2021-03-10T14:49:30Z</time>
      </trkpt>
      <trkpt lat="45.08507" lon="6.10529">
        <ele>1835.5</ele>
        <time>2021-03-10T14:49:31Z</time>
      </trkpt>
      <trkpt lat="45.08506" lon="6.10527">
        <ele>1835.5</ele>
        <time>2021-03-10T14:49:32Z</time>
      </trkpt>
      <trkpt lat="45.08505" lon="6.10526">
        <ele>1835.5</ele>
        <time>2021-03-10T14:49:33Z</time>
      </trkpt>
      <trkpt lat="45.08505" lon="6.10525">
        <ele>1835.5</ele>
        <time>2021-03-10T14:49:34Z</time>
      </trkpt>
      <trkpt lat="45.08504" lon="6.10522">
        <ele>1835.6</ele>
        <time>2021-03-10T14:49:35Z</time>
      </trkpt>
      <trkpt lat="45.08503" lon="6.10521">
        <ele>1835.6</ele>
        <time>2021-03-10T14:49:36Z</time>
      </trkpt>
      <trkpt lat="45.08503" lon="6.1052">
        <ele>1835.6</ele>
        <time>2021-03-10T14:49:37Z</time>
      </trkpt>
      <trkpt lat="45.08502" lon="6.10519">
        <ele>1835.6</ele>
        <time>2021-03-10T14:49:38Z</time>
      </trkpt>
      <trkpt lat="45.08501" lon="6.10518">
        <ele>1835.6</ele>
        <time>2021-03-10T14:49:39Z</time>
      </trkpt>
      <trkpt lat="45.085" lon="6.10517">
        <ele>1835.6</ele>
        <time>2021-03-10T14:49:40Z</time>
      </trkpt>
      <trkpt lat="45.08499" lon="6.10516">
        <ele>1835.7</ele>
        <time>2021-03-10T14:49:41Z</time>
      </trkpt>
      <trkpt lat="45.08499" lon="6.10514">
        <ele>1835.7</ele>
        <time>2021-03-10T14:49:42Z</time>
      </trkpt>
      <trkpt lat="45.08498" lon="6.10513">
        <ele>1835.7</ele>
        <time>2021-03-10T14:49:43Z</time>
      </trkpt>
      <trkpt lat="45.08498" lon="6.10512">
        <ele>1835.7</ele>
        <time>2021-03-10T14:49:44Z</time>
      </trkpt>
      <trkpt lat="45.08497" lon="6.10511">
        <ele>1835.7</ele>
        <time>2021-03-10T14:49:45Z</time>
      </trkpt>
      <trkpt lat="45.08496" lon="6.10509">
        <ele>1835.8</ele>
        <time>2021-03-10T14:49:46Z</time>
      </trkpt>
      <trkpt lat="45.08496" lon="6.10508">
        <ele>1835.8</ele>
        <time>2021-03-10T14:49:47Z</time>
      </trkpt>
      <trkpt lat="45.08495" lon="6.10507">
        <ele>1835.8</ele>
        <time>2021-03-10T14:49:48Z</time>
      </trkpt>
      <trkpt lat="45.08495" lon="6.10505">
        <ele>1835.8</ele>
        <time>2021-03-10T14:49:49Z</time>
      </trkpt>
      <trkpt lat="45.08495" lon="6.10503">
        <ele>1835.9</ele>
        <time>2021-03-10T14:49:50Z</time>
      </trkpt>
      <trkpt lat="45.08494" lon="6.10501">
        <ele>1835.9</ele>
        <time>2021-03-10T14:49:51Z</time>
      </trkpt>
      <trkpt lat="45.08494" lon="6.10499">
        <ele>1835.9</ele>
        <time>2021-03-10T14:49:52Z</time>
      </trkpt>
      <trkpt lat="45.08494" lon="6.10498">
        <ele>1836</ele>
        <time>2021-03-10T14:49:53Z</time>
      </trkpt>
      <trkpt lat="45.08494" lon="6.10497">
        <ele>1836</ele>
        <time>2021-03-10T14:49:54Z</time>
      </trkpt>
      <trkpt lat="45.08494" lon="6.10496">
        <ele>1836</ele>
        <time>2021-03-10T14:49:55Z</time>
      </trkpt>
      <trkpt lat="45.08494" lon="6.10495">
        <ele>1836</ele>
        <time>2021-03-10T14:49:56Z</time>
      </trkpt>
      <trkpt lat="45.08493" lon="6.10494">
        <ele>1836</ele>
        <time>2021-03-10T14:49:57Z</time>
      </trkpt>
      <trkpt lat="45.08493" lon="6.10492">
        <ele>1836.1</ele>
        <time>2021-03-10T14:49:58Z</time>
      </trkpt>
      <trkpt lat="45.08492" lon="6.10491">
        <ele>1836.1</ele>
        <time>2021-03-10T14:49:59Z</time>
      </trkpt>
      <trkpt lat="45.08492" lon="6.1049">
        <ele>1836.1</ele>
        <time>2021-03-10T14:50:00Z</time>
      </trkpt>
      <trkpt lat="45.08491" lon="6.10489">
        <ele>1836.2</ele>
        <time>2021-03-10T14:50:01Z</time>
      </trkpt>
      <trkpt lat="45.08491" lon="6.10488">
        <ele>1836.2</ele>
        <time>2021-03-10T14:50:02Z</time>
      </trkpt>
      <trkpt lat="45.0849" lon="6.10487">
        <ele>1836.2</ele>
        <time>2021-03-10T14:50:03Z</time>
      </trkpt>
      <trkpt lat="45.0849" lon="6.10486">
        <ele>1836.2</ele>
        <time>2021-03-10T14:50:04Z</time>
      </trkpt>
      <trkpt lat="45.08489" lon="6.10485">
        <ele>1836.3</ele>
        <time>2021-03-10T14:50:05Z</time>
      </trkpt>
      <trkpt lat="45.08488" lon="6.10484">
        <ele>1836.3</ele>
        <time>2021-03-10T14:50:06Z</time>
      </trkpt>
      <trkpt lat="45.08488" lon="6.10483">
        <ele>1836.3</ele>
        <time>2021-03-10T14:50:07Z</time>
      </trkpt>
      <trkpt lat="45.08488" lon="6.10481">
        <ele>1836.4</ele>
        <time>2021-03-10T14:50:08Z</time>
      </trkpt>
      <trkpt lat="45.08487" lon="6.1048">
        <ele>1836.4</ele>
        <time>2021-03-10T14:50:09Z</time>
      </trkpt>
      <trkpt lat="45.08487" lon="6.10478">
        <ele>1836.5</ele>
        <time>2021-03-10T14:50:10Z</time>
      </trkpt>
      <trkpt lat="45.08487" lon="6.10477">
        <ele>1836.5</ele>
        <time>2021-03-10T14:50:11Z</time>
      </trkpt>
      <trkpt lat="45.08487" lon="6.10475">
        <ele>1836.6</ele>
        <time>2021-03-10T14:50:12Z</time>
      </trkpt>
      <trkpt lat="45.08487" lon="6.10474">
        <ele>1836.6</ele>
        <time>2021-03-10T14:50:13Z</time>
      </trkpt>
      <trkpt lat="45.08486" lon="6.10473">
        <ele>1836.6</ele>
        <time>2021-03-10T14:50:14Z</time>
      </trkpt>
      <trkpt lat="45.08486" lon="6.10472">
        <ele>1836.7</ele>
        <time>2021-03-10T14:50:15Z</time>
      </trkpt>
      <trkpt lat="45.08485" lon="6.10471">
        <ele>1836.7</ele>
        <time>2021-03-10T14:50:16Z</time>
      </trkpt>
      <trkpt lat="45.08485" lon="6.10469">
        <ele>1836.8</ele>
        <time>2021-03-10T14:50:17Z</time>
      </trkpt>
      <trkpt lat="45.08484" lon="6.10468">
        <ele>1836.8</ele>
        <time>2021-03-10T14:50:18Z</time>
      </trkpt>
      <trkpt lat="45.08484" lon="6.10467">
        <ele>1836.8</ele>
        <time>2021-03-10T14:50:19Z</time>
      </trkpt>
      <trkpt lat="45.08483" lon="6.10466">
        <ele>1836.9</ele>
        <time>2021-03-10T14:50:20Z</time>
      </trkpt>
      <trkpt lat="45.08483" lon="6.10465">
        <ele>1836.9</ele>
        <time>2021-03-10T14:50:21Z</time>
      </trkpt>
      <trkpt lat="45.08482" lon="6.10464">
        <ele>1836.9</ele>
        <time>2021-03-10T14:50:22Z</time>
      </trkpt>
      <trkpt lat="45.08482" lon="6.10463">
        <ele>1837</ele>
        <time>2021-03-10T14:50:23Z</time>
      </trkpt>
      <trkpt lat="45.08481" lon="6.10462">
        <ele>1837</ele>
        <time>2021-03-10T14:50:24Z</time>
      </trkpt>
      <trkpt lat="45.08481" lon="6.10461">
        <ele>1837</ele>
        <time>2021-03-10T14:50:25Z</time>
      </trkpt>
      <trkpt lat="45.08481" lon="6.1046">
        <ele>1837.1</ele>
        <time>2021-03-10T14:50:26Z</time>
      </trkpt>
      <trkpt lat="45.08481" lon="6.10459">
        <ele>1837.1</ele>
        <time>2021-03-10T14:50:27Z</time>
      </trkpt>
      <trkpt lat="45.0848" lon="6.10457">
        <ele>1837.1</ele>
        <time>2021-03-10T14:50:28Z</time>
      </trkpt>
      <trkpt lat="45.0848" lon="6.10456">
        <ele>1837.2</ele>
        <time>2021-03-10T14:50:29Z</time>
      </trkpt>
      <trkpt lat="45.0848" lon="6.10454">
        <ele>1837.2</ele>
        <time>2021-03-10T14:50:30Z</time>
      </trkpt>
      <trkpt lat="45.08479" lon="6.10452">
        <ele>1837.3</ele>
        <time>2021-03-10T14:50:31Z</time>
      </trkpt>
      <trkpt lat="45.0848" lon="6.1045">
        <ele>1837.3</ele>
        <time>2021-03-10T14:50:32Z</time>
      </trkpt>
      <trkpt lat="45.0848" lon="6.10449">
        <ele>1837.4</ele>
        <time>2021-03-10T14:50:33Z</time>
      </trkpt>
      <trkpt lat="45.0848" lon="6.10447">
        <ele>1837.4</ele>
        <time>2021-03-10T14:50:34Z</time>
      </trkpt>
      <trkpt lat="45.08481" lon="6.10446">
        <ele>1837.4</ele>
        <time>2021-03-10T14:50:35Z</time>
      </trkpt>
      <trkpt lat="45.08481" lon="6.10445">
        <ele>1837.4</ele>
        <time>2021-03-10T14:50:36Z</time>
      </trkpt>
      <trkpt lat="45.08482" lon="6.10445">
        <ele>1837.4</ele>
        <time>2021-03-10T14:50:37Z</time>
      </trkpt>
      <trkpt lat="45.08482" lon="6.10444">
        <ele>1837.5</ele>
        <time>2021-03-10T14:50:38Z</time>
      </trkpt>
      <trkpt lat="45.08482" lon="6.10442">
        <ele>1837.5</ele>
        <time>2021-03-10T14:50:39Z</time>
      </trkpt>
      <trkpt lat="45.08482" lon="6.10441">
        <ele>1837.5</ele>
        <time>2021-03-10T14:50:40Z</time>
      </trkpt>
      <trkpt lat="45.08482" lon="6.10439">
        <ele>1837.5</ele>
        <time>2021-03-10T14:50:41Z</time>
      </trkpt>
      <trkpt lat="45.08482" lon="6.10437">
        <ele>1837.5</ele>
        <time>2021-03-10T14:50:42Z</time>
      </trkpt>
      <trkpt lat="45.08482" lon="6.10435">
        <ele>1837.5</ele>
        <time>2021-03-10T14:50:43Z</time>
      </trkpt>
      <trkpt lat="45.08482" lon="6.10434">
        <ele>1837.5</ele>
        <time>2021-03-10T14:50:44Z</time>
      </trkpt>
      <trkpt lat="45.08482" lon="6.10433">
        <ele>1837.5</ele>
        <time>2021-03-10T14:50:45Z</time>
      </trkpt>
      <trkpt lat="45.08482" lon="6.10431">
        <ele>1837.5</ele>
        <time>2021-03-10T14:50:46Z</time>
      </trkpt>
      <trkpt lat="45.08483" lon="6.10429">
        <ele>1837.6</ele>
        <time>2021-03-10T14:50:47Z</time>
      </trkpt>
      <trkpt lat="45.08483" lon="6.10428">
        <ele>1837.6</ele>
        <time>2021-03-10T14:50:48Z</time>
      </trkpt>
      <trkpt lat="45.08484" lon="6.10426">
        <ele>1837.6</ele>
        <time>2021-03-10T14:50:49Z</time>
      </trkpt>
      <trkpt lat="45.08484" lon="6.10424">
        <ele>1837.6</ele>
        <time>2021-03-10T14:50:50Z</time>
      </trkpt>
      <trkpt lat="45.08484" lon="6.10422">
        <ele>1837.6</ele>
        <time>2021-03-10T14:50:51Z</time>
      </trkpt>
      <trkpt lat="45.08484" lon="6.10421">
        <ele>1837.6</ele>
        <time>2021-03-10T14:50:52Z</time>
      </trkpt>
      <trkpt lat="45.08485" lon="6.10418">
        <ele>1837.6</ele>
        <time>2021-03-10T14:50:53Z</time>
      </trkpt>
      <trkpt lat="45.08485" lon="6.10417">
        <ele>1837.6</ele>
        <time>2021-03-10T14:50:54Z</time>
      </trkpt>
      <trkpt lat="45.08485" lon="6.10416">
        <ele>1837.6</ele>
        <time>2021-03-10T14:50:55Z</time>
      </trkpt>
      <trkpt lat="45.08485" lon="6.10414">
        <ele>1837.6</ele>
        <time>2021-03-10T14:50:56Z</time>
      </trkpt>
      <trkpt lat="45.08485" lon="6.10413">
        <ele>1837.6</ele>
        <time>2021-03-10T14:50:57Z</time>
      </trkpt>
      <trkpt lat="45.08486" lon="6.10411">
        <ele>1837.6</ele>
        <time>2021-03-10T14:50:58Z</time>
      </trkpt>
      <trkpt lat="45.08486" lon="6.10408">
        <ele>1837.6</ele>
        <time>2021-03-10T14:50:59Z</time>
      </trkpt>
      <trkpt lat="45.08487" lon="6.10407">
        <ele>1837.6</ele>
        <time>2021-03-10T14:51:00Z</time>
      </trkpt>
      <trkpt lat="45.08487" lon="6.10406">
        <ele>1837.6</ele>
        <time>2021-03-10T14:51:01Z</time>
      </trkpt>
      <trkpt lat="45.08487" lon="6.10405">
        <ele>1837.6</ele>
        <time>2021-03-10T14:51:02Z</time>
      </trkpt>
      <trkpt lat="45.08487" lon="6.10403">
        <ele>1837.6</ele>
        <time>2021-03-10T14:51:03Z</time>
      </trkpt>
      <trkpt lat="45.08487" lon="6.10401">
        <ele>1837.6</ele>
        <time>2021-03-10T14:51:04Z</time>
      </trkpt>
      <trkpt lat="45.08487" lon="6.104">
        <ele>1837.6</ele>
        <time>2021-03-10T14:51:05Z</time>
      </trkpt>
      <trkpt lat="45.08487" lon="6.10398">
        <ele>1837.6</ele>
        <time>2021-03-10T14:51:06Z</time>
      </trkpt>
      <trkpt lat="45.08487" lon="6.10397">
        <ele>1837.6</ele>
        <time>2021-03-10T14:51:07Z</time>
      </trkpt>
      <trkpt lat="45.08488" lon="6.10395">
        <ele>1837.6</ele>
        <time>2021-03-10T14:51:08Z</time>
      </trkpt>
      <trkpt lat="45.08488" lon="6.10393">
        <ele>1837.6</ele>
        <time>2021-03-10T14:51:09Z</time>
      </trkpt>
      <trkpt lat="45.08488" lon="6.10392">
        <ele>1837.6</ele>
        <time>2021-03-10T14:51:10Z</time>
      </trkpt>
      <trkpt lat="45.08488" lon="6.1039">
        <ele>1837.6</ele>
        <time>2021-03-10T14:51:11Z</time>
      </trkpt>
      <trkpt lat="45.08488" lon="6.10389">
        <ele>1837.6</ele>
        <time>2021-03-10T14:51:12Z</time>
      </trkpt>
      <trkpt lat="45.08488" lon="6.10387">
        <ele>1837.6</ele>
        <time>2021-03-10T14:51:13Z</time>
      </trkpt>
      <trkpt lat="45.08488" lon="6.10385">
        <ele>1837.6</ele>
        <time>2021-03-10T14:51:14Z</time>
      </trkpt>
      <trkpt lat="45.08488" lon="6.10384">
        <ele>1837.7</ele>
        <time>2021-03-10T14:51:15Z</time>
      </trkpt>
      <trkpt lat="45.08488" lon="6.10383">
        <ele>1837.7</ele>
        <time>2021-03-10T14:51:16Z</time>
      </trkpt>
      <trkpt lat="45.08488" lon="6.10382">
        <ele>1837.7</ele>
        <time>2021-03-10T14:51:17Z</time>
      </trkpt>
      <trkpt lat="45.08488" lon="6.10381">
        <ele>1837.7</ele>
        <time>2021-03-10T14:51:18Z</time>
      </trkpt>
      <trkpt lat="45.08488" lon="6.1038">
        <ele>1837.7</ele>
        <time>2021-03-10T14:51:19Z</time>
      </trkpt>
      <trkpt lat="45.08488" lon="6.10379">
        <ele>1837.7</ele>
        <time>2021-03-10T14:51:20Z</time>
      </trkpt>
      <trkpt lat="45.08488" lon="6.10379">
        <ele>1837.7</ele>
        <time>2021-03-10T14:51:21Z</time>
      </trkpt>
      <trkpt lat="45.08488" lon="6.10379">
        <ele>1837.7</ele>
        <time>2021-03-10T14:51:22Z</time>
      </trkpt>
      <trkpt lat="45.08488" lon="6.10379">
        <ele>1837.7</ele>
        <time>2021-03-10T14:51:23Z</time>
      </trkpt>
      <trkpt lat="45.08488" lon="6.10379">
        <ele>1837.7</ele>
        <time>2021-03-10T14:51:24Z</time>
      </trkpt>
      <trkpt lat="45.08488" lon="6.10379">
        <ele>1837.7</ele>
        <time>2021-03-10T14:51:25Z</time>
      </trkpt>
      <trkpt lat="45.08488" lon="6.10379">
        <ele>1837.7</ele>
        <time>2021-03-10T14:51:26Z</time>
      </trkpt>
      <trkpt lat="45.08488" lon="6.10379">
        <ele>1837.7</ele>
        <time>2021-03-10T14:51:27Z</time>
      </trkpt>
      <trkpt lat="45.08488" lon="6.10379">
        <ele>1837.7</ele>
        <time>2021-03-10T14:51:28Z</time>
      </trkpt>
      <trkpt lat="45.08488" lon="6.10367">
        <ele>1837.9</ele>
        <time>2021-03-10T14:51:43Z</time>
      </trkpt>
      <trkpt lat="45.08489" lon="6.10365">
        <ele>1838</ele>
        <time>2021-03-10T14:51:44Z</time>
      </trkpt>
      <trkpt lat="45.08488" lon="6.10362">
        <ele>1838</ele>
        <time>2021-03-10T14:51:45Z</time>
      </trkpt>
      <trkpt lat="45.08488" lon="6.10361">
        <ele>1838</ele>
        <time>2021-03-10T14:51:46Z</time>
      </trkpt>
      <trkpt lat="45.08488" lon="6.1036">
        <ele>1838.1</ele>
        <time>2021-03-10T14:51:47Z</time>
      </trkpt>
      <trkpt lat="45.08488" lon="6.10358">
        <ele>1838.1</ele>
        <time>2021-03-10T14:51:48Z</time>
      </trkpt>
      <trkpt lat="45.08488" lon="6.10357">
        <ele>1838.1</ele>
        <time>2021-03-10T14:51:49Z</time>
      </trkpt>
      <trkpt lat="45.08488" lon="6.10355">
        <ele>1838.2</ele>
        <time>2021-03-10T14:51:50Z</time>
      </trkpt>
      <trkpt lat="45.08488" lon="6.10353">
        <ele>1838.2</ele>
        <time>2021-03-10T14:51:51Z</time>
      </trkpt>
      <trkpt lat="45.08488" lon="6.10352">
        <ele>1838.2</ele>
        <time>2021-03-10T14:51:52Z</time>
      </trkpt>
      <trkpt lat="45.08488" lon="6.1035">
        <ele>1838.3</ele>
        <time>2021-03-10T14:51:53Z</time>
      </trkpt>
      <trkpt lat="45.08488" lon="6.10349">
        <ele>1838.3</ele>
        <time>2021-03-10T14:51:54Z</time>
      </trkpt>
      <trkpt lat="45.08488" lon="6.10347">
        <ele>1838.3</ele>
        <time>2021-03-10T14:51:55Z</time>
      </trkpt>
      <trkpt lat="45.08488" lon="6.10346">
        <ele>1838.4</ele>
        <time>2021-03-10T14:51:56Z</time>
      </trkpt>
      <trkpt lat="45.08488" lon="6.10345">
        <ele>1838.4</ele>
        <time>2021-03-10T14:51:57Z</time>
      </trkpt>
      <trkpt lat="45.08488" lon="6.10343">
        <ele>1838.4</ele>
        <time>2021-03-10T14:51:58Z</time>
      </trkpt>
      <trkpt lat="45.08488" lon="6.10342">
        <ele>1838.4</ele>
        <time>2021-03-10T14:51:59Z</time>
      </trkpt>
      <trkpt lat="45.08488" lon="6.1034">
        <ele>1838.5</ele>
        <time>2021-03-10T14:52:00Z</time>
      </trkpt>
      <trkpt lat="45.08488" lon="6.10338">
        <ele>1838.5</ele>
        <time>2021-03-10T14:52:01Z</time>
      </trkpt>
      <trkpt lat="45.08488" lon="6.10336">
        <ele>1838.6</ele>
        <time>2021-03-10T14:52:02Z</time>
      </trkpt>
      <trkpt lat="45.08488" lon="6.10334">
        <ele>1838.6</ele>
        <time>2021-03-10T14:52:03Z</time>
      </trkpt>
      <trkpt lat="45.08488" lon="6.10333">
        <ele>1838.7</ele>
        <time>2021-03-10T14:52:04Z</time>
      </trkpt>
      <trkpt lat="45.08487" lon="6.10331">
        <ele>1838.7</ele>
        <time>2021-03-10T14:52:05Z</time>
      </trkpt>
      <trkpt lat="45.08487" lon="6.1033">
        <ele>1838.8</ele>
        <time>2021-03-10T14:52:06Z</time>
      </trkpt>
      <trkpt lat="45.08487" lon="6.10328">
        <ele>1838.8</ele>
        <time>2021-03-10T14:52:07Z</time>
      </trkpt>
      <trkpt lat="45.08486" lon="6.10325">
        <ele>1838.9</ele>
        <time>2021-03-10T14:52:08Z</time>
      </trkpt>
      <trkpt lat="45.08486" lon="6.10323">
        <ele>1838.9</ele>
        <time>2021-03-10T14:52:09Z</time>
      </trkpt>
      <trkpt lat="45.08486" lon="6.10322">
        <ele>1839</ele>
        <time>2021-03-10T14:52:10Z</time>
      </trkpt>
      <trkpt lat="45.08486" lon="6.1032">
        <ele>1839</ele>
        <time>2021-03-10T14:52:11Z</time>
      </trkpt>
      <trkpt lat="45.08486" lon="6.10319">
        <ele>1839.1</ele>
        <time>2021-03-10T14:52:12Z</time>
      </trkpt>
      <trkpt lat="45.08486" lon="6.10318">
        <ele>1839.1</ele>
        <time>2021-03-10T14:52:13Z</time>
      </trkpt>
      <trkpt lat="45.08486" lon="6.10317">
        <ele>1839.1</ele>
        <time>2021-03-10T14:52:14Z</time>
      </trkpt>
      <trkpt lat="45.08486" lon="6.10316">
        <ele>1839.2</ele>
        <time>2021-03-10T14:52:15Z</time>
      </trkpt>
      <trkpt lat="45.08486" lon="6.10314">
        <ele>1839.2</ele>
        <time>2021-03-10T14:52:16Z</time>
      </trkpt>
      <trkpt lat="45.08486" lon="6.10313">
        <ele>1839.3</ele>
        <time>2021-03-10T14:52:17Z</time>
      </trkpt>
      <trkpt lat="45.08486" lon="6.10311">
        <ele>1839.3</ele>
        <time>2021-03-10T14:52:18Z</time>
      </trkpt>
      <trkpt lat="45.08485" lon="6.10309">
        <ele>1839.4</ele>
        <time>2021-03-10T14:52:19Z</time>
      </trkpt>
      <trkpt lat="45.08485" lon="6.10308">
        <ele>1839.4</ele>
        <time>2021-03-10T14:52:20Z</time>
      </trkpt>
      <trkpt lat="45.08485" lon="6.10306">
        <ele>1839.5</ele>
        <time>2021-03-10T14:52:21Z</time>
      </trkpt>
      <trkpt lat="45.08485" lon="6.10305">
        <ele>1839.5</ele>
        <time>2021-03-10T14:52:22Z</time>
      </trkpt>
      <trkpt lat="45.08485" lon="6.10303">
        <ele>1839.6</ele>
        <time>2021-03-10T14:52:23Z</time>
      </trkpt>
      <trkpt lat="45.08485" lon="6.10302">
        <ele>1839.6</ele>
        <time>2021-03-10T14:52:24Z</time>
      </trkpt>
      <trkpt lat="45.08485" lon="6.10299">
        <ele>1839.8</ele>
        <time>2021-03-10T14:52:25Z</time>
      </trkpt>
      <trkpt lat="45.08485" lon="6.10297">
        <ele>1839.8</ele>
        <time>2021-03-10T14:52:26Z</time>
      </trkpt>
      <trkpt lat="45.08485" lon="6.10296">
        <ele>1839.9</ele>
        <time>2021-03-10T14:52:27Z</time>
      </trkpt>
      <trkpt lat="45.08485" lon="6.10294">
        <ele>1839.9</ele>
        <time>2021-03-10T14:52:28Z</time>
      </trkpt>
      <trkpt lat="45.08484" lon="6.10293">
        <ele>1840</ele>
        <time>2021-03-10T14:52:29Z</time>
      </trkpt>
      <trkpt lat="45.08484" lon="6.10291">
        <ele>1840.1</ele>
        <time>2021-03-10T14:52:30Z</time>
      </trkpt>
      <trkpt lat="45.08484" lon="6.10288">
        <ele>1840.2</ele>
        <time>2021-03-10T14:52:31Z</time>
      </trkpt>
      <trkpt lat="45.08484" lon="6.10287">
        <ele>1840.2</ele>
        <time>2021-03-10T14:52:32Z</time>
      </trkpt>
      <trkpt lat="45.08484" lon="6.10286">
        <ele>1840.3</ele>
        <time>2021-03-10T14:52:33Z</time>
      </trkpt>
      <trkpt lat="45.08484" lon="6.10284">
        <ele>1840.4</ele>
        <time>2021-03-10T14:52:34Z</time>
      </trkpt>
      <trkpt lat="45.08483" lon="6.10282">
        <ele>1840.4</ele>
        <time>2021-03-10T14:52:35Z</time>
      </trkpt>
      <trkpt lat="45.08483" lon="6.1028">
        <ele>1840.5</ele>
        <time>2021-03-10T14:52:36Z</time>
      </trkpt>
      <trkpt lat="45.08483" lon="6.10278">
        <ele>1840.6</ele>
        <time>2021-03-10T14:52:37Z</time>
      </trkpt>
      <trkpt lat="45.08483" lon="6.10276">
        <ele>1840.7</ele>
        <time>2021-03-10T14:52:38Z</time>
      </trkpt>
      <trkpt lat="45.08483" lon="6.10274">
        <ele>1840.8</ele>
        <time>2021-03-10T14:52:39Z</time>
      </trkpt>
      <trkpt lat="45.08482" lon="6.10273">
        <ele>1840.9</ele>
        <time>2021-03-10T14:52:40Z</time>
      </trkpt>
      <trkpt lat="45.08482" lon="6.10272">
        <ele>1840.9</ele>
        <time>2021-03-10T14:52:41Z</time>
      </trkpt>
      <trkpt lat="45.08482" lon="6.10272">
        <ele>1840.9</ele>
        <time>2021-03-10T14:52:42Z</time>
      </trkpt>
      <trkpt lat="45.08482" lon="6.10272">
        <ele>1840.9</ele>
        <time>2021-03-10T14:52:43Z</time>
      </trkpt>
      <trkpt lat="45.08481" lon="6.1027">
        <ele>1841</ele>
        <time>2021-03-10T14:52:44Z</time>
      </trkpt>
      <trkpt lat="45.08482" lon="6.10269">
        <ele>1841.1</ele>
        <time>2021-03-10T14:52:45Z</time>
      </trkpt>
      <trkpt lat="45.08481" lon="6.10268">
        <ele>1841.1</ele>
        <time>2021-03-10T14:52:46Z</time>
      </trkpt>
      <trkpt lat="45.08481" lon="6.10267">
        <ele>1841.2</ele>
        <time>2021-03-10T14:52:47Z</time>
      </trkpt>
      <trkpt lat="45.08481" lon="6.10265">
        <ele>1841.3</ele>
        <time>2021-03-10T14:52:48Z</time>
      </trkpt>
      <trkpt lat="45.08481" lon="6.10264">
        <ele>1841.4</ele>
        <time>2021-03-10T14:52:49Z</time>
      </trkpt>
      <trkpt lat="45.08481" lon="6.10262">
        <ele>1841.4</ele>
        <time>2021-03-10T14:52:50Z</time>
      </trkpt>
      <trkpt lat="45.08481" lon="6.10261">
        <ele>1841.5</ele>
        <time>2021-03-10T14:52:51Z</time>
      </trkpt>
      <trkpt lat="45.08481" lon="6.10259">
        <ele>1841.6</ele>
        <time>2021-03-10T14:52:52Z</time>
      </trkpt>
      <trkpt lat="45.08481" lon="6.10258">
        <ele>1841.7</ele>
        <time>2021-03-10T14:52:53Z</time>
      </trkpt>
      <trkpt lat="45.08481" lon="6.10256">
        <ele>1841.8</ele>
        <time>2021-03-10T14:52:54Z</time>
      </trkpt>
      <trkpt lat="45.08481" lon="6.10255">
        <ele>1841.8</ele>
        <time>2021-03-10T14:52:55Z</time>
      </trkpt>
      <trkpt lat="45.08481" lon="6.10253">
        <ele>1841.9</ele>
        <time>2021-03-10T14:52:56Z</time>
      </trkpt>
      <trkpt lat="45.08481" lon="6.10252">
        <ele>1842</ele>
        <time>2021-03-10T14:52:57Z</time>
      </trkpt>
      <trkpt lat="45.08481" lon="6.1025">
        <ele>1842.1</ele>
        <time>2021-03-10T14:52:58Z</time>
      </trkpt>
      <trkpt lat="45.08481" lon="6.10249">
        <ele>1842.1</ele>
        <time>2021-03-10T14:52:59Z</time>
      </trkpt>
      <trkpt lat="45.08481" lon="6.10247">
        <ele>1842.2</ele>
        <time>2021-03-10T14:53:00Z</time>
      </trkpt>
      <trkpt lat="45.08481" lon="6.10246">
        <ele>1842.3</ele>
        <time>2021-03-10T14:53:01Z</time>
      </trkpt>
      <trkpt lat="45.08481" lon="6.10244">
        <ele>1842.4</ele>
        <time>2021-03-10T14:53:02Z</time>
      </trkpt>
      <trkpt lat="45.08481" lon="6.10242">
        <ele>1842.5</ele>
        <time>2021-03-10T14:53:03Z</time>
      </trkpt>
      <trkpt lat="45.08481" lon="6.10241">
        <ele>1842.5</ele>
        <time>2021-03-10T14:53:04Z</time>
      </trkpt>
      <trkpt lat="45.08481" lon="6.10239">
        <ele>1842.6</ele>
        <time>2021-03-10T14:53:05Z</time>
      </trkpt>
      <trkpt lat="45.08481" lon="6.10238">
        <ele>1842.7</ele>
        <time>2021-03-10T14:53:06Z</time>
      </trkpt>
      <trkpt lat="45.08481" lon="6.10236">
        <ele>1842.8</ele>
        <time>2021-03-10T14:53:07Z</time>
      </trkpt>
      <trkpt lat="45.08481" lon="6.10235">
        <ele>1842.9</ele>
        <time>2021-03-10T14:53:08Z</time>
      </trkpt>
      <trkpt lat="45.08481" lon="6.10234">
        <ele>1842.9</ele>
        <time>2021-03-10T14:53:09Z</time>
      </trkpt>
      <trkpt lat="45.08481" lon="6.10232">
        <ele>1843</ele>
        <time>2021-03-10T14:53:10Z</time>
      </trkpt>
      <trkpt lat="45.08481" lon="6.10231">
        <ele>1843.1</ele>
        <time>2021-03-10T14:53:11Z</time>
      </trkpt>
      <trkpt lat="45.08481" lon="6.1023">
        <ele>1843.1</ele>
        <time>2021-03-10T14:53:12Z</time>
      </trkpt>
      <trkpt lat="45.08481" lon="6.10228">
        <ele>1843.2</ele>
        <time>2021-03-10T14:53:13Z</time>
      </trkpt>
      <trkpt lat="45.08481" lon="6.10227">
        <ele>1843.3</ele>
        <time>2021-03-10T14:53:14Z</time>
      </trkpt>
      <trkpt lat="45.08481" lon="6.10225">
        <ele>1843.4</ele>
        <time>2021-03-10T14:53:15Z</time>
      </trkpt>
      <trkpt lat="45.0848" lon="6.10224">
        <ele>1843.4</ele>
        <time>2021-03-10T14:53:16Z</time>
      </trkpt>
      <trkpt lat="45.0848" lon="6.10223">
        <ele>1843.5</ele>
        <time>2021-03-10T14:53:17Z</time>
      </trkpt>
      <trkpt lat="45.08481" lon="6.10222">
        <ele>1843.5</ele>
        <time>2021-03-10T14:53:18Z</time>
      </trkpt>
      <trkpt lat="45.08481" lon="6.10221">
        <ele>1843.6</ele>
        <time>2021-03-10T14:53:19Z</time>
      </trkpt>
      <trkpt lat="45.08481" lon="6.10219">
        <ele>1843.6</ele>
        <time>2021-03-10T14:53:20Z</time>
      </trkpt>
      <trkpt lat="45.08481" lon="6.10218">
        <ele>1843.7</ele>
        <time>2021-03-10T14:53:21Z</time>
      </trkpt>
      <trkpt lat="45.08481" lon="6.10217">
        <ele>1843.7</ele>
        <time>2021-03-10T14:53:22Z</time>
      </trkpt>
      <trkpt lat="45.0848" lon="6.10215">
        <ele>1843.8</ele>
        <time>2021-03-10T14:53:23Z</time>
      </trkpt>
      <trkpt lat="45.0848" lon="6.10214">
        <ele>1843.9</ele>
        <time>2021-03-10T14:53:24Z</time>
      </trkpt>
      <trkpt lat="45.0848" lon="6.10213">
        <ele>1843.9</ele>
        <time>2021-03-10T14:53:25Z</time>
      </trkpt>
      <trkpt lat="45.0848" lon="6.10212">
        <ele>1844</ele>
        <time>2021-03-10T14:53:26Z</time>
      </trkpt>
      <trkpt lat="45.0848" lon="6.1021">
        <ele>1844</ele>
        <time>2021-03-10T14:53:27Z</time>
      </trkpt>
      <trkpt lat="45.0848" lon="6.10207">
        <ele>1844.1</ele>
        <time>2021-03-10T14:53:28Z</time>
      </trkpt>
      <trkpt lat="45.0848" lon="6.10206">
        <ele>1844.2</ele>
        <time>2021-03-10T14:53:29Z</time>
      </trkpt>
      <trkpt lat="45.0848" lon="6.10205">
        <ele>1844.2</ele>
        <time>2021-03-10T14:53:30Z</time>
      </trkpt>
      <trkpt lat="45.0848" lon="6.10204">
        <ele>1844.3</ele>
        <time>2021-03-10T14:53:31Z</time>
      </trkpt>
      <trkpt lat="45.0848" lon="6.10202">
        <ele>1844.3</ele>
        <time>2021-03-10T14:53:32Z</time>
      </trkpt>
      <trkpt lat="45.08479" lon="6.10201">
        <ele>1844.4</ele>
        <time>2021-03-10T14:53:33Z</time>
      </trkpt>
      <trkpt lat="45.0848" lon="6.102">
        <ele>1844.4</ele>
        <time>2021-03-10T14:53:34Z</time>
      </trkpt>
      <trkpt lat="45.0848" lon="6.102">
        <ele>1844.4</ele>
        <time>2021-03-10T14:53:35Z</time>
      </trkpt>
      <trkpt lat="45.0848" lon="6.10199">
        <ele>1844.5</ele>
        <time>2021-03-10T14:53:36Z</time>
      </trkpt>
      <trkpt lat="45.08481" lon="6.10198">
        <ele>1844.5</ele>
        <time>2021-03-10T14:53:37Z</time>
      </trkpt>
      <trkpt lat="45.08481" lon="6.10197">
        <ele>1844.6</ele>
        <time>2021-03-10T14:53:38Z</time>
      </trkpt>
      <trkpt lat="45.08482" lon="6.10196">
        <ele>1844.6</ele>
        <time>2021-03-10T14:53:39Z</time>
      </trkpt>
      <trkpt lat="45.08482" lon="6.10194">
        <ele>1844.7</ele>
        <time>2021-03-10T14:53:40Z</time>
      </trkpt>
      <trkpt lat="45.08482" lon="6.10193">
        <ele>1844.7</ele>
        <time>2021-03-10T14:53:41Z</time>
      </trkpt>
      <trkpt lat="45.08481" lon="6.10193">
        <ele>1844.7</ele>
        <time>2021-03-10T14:53:42Z</time>
      </trkpt>
      <trkpt lat="45.08481" lon="6.10193">
        <ele>1844.7</ele>
        <time>2021-03-10T14:53:43Z</time>
      </trkpt>
      <trkpt lat="45.08481" lon="6.10193">
        <ele>1844.7</ele>
        <time>2021-03-10T14:53:44Z</time>
      </trkpt>
      <trkpt lat="45.08481" lon="6.10193">
        <ele>1844.7</ele>
        <time>2021-03-10T14:53:45Z</time>
      </trkpt>
      <trkpt lat="45.08481" lon="6.10193">
        <ele>1844.7</ele>
        <time>2021-03-10T14:53:46Z</time>
      </trkpt>
      <trkpt lat="45.08481" lon="6.10193">
        <ele>1844.7</ele>
        <time>2021-03-10T14:53:47Z</time>
      </trkpt>
      <trkpt lat="45.08481" lon="6.10194">
        <ele>1844.8</ele>
        <time>2021-03-10T14:53:48Z</time>
      </trkpt>
      <trkpt lat="45.08481" lon="6.10194">
        <ele>1844.8</ele>
        <time>2021-03-10T14:53:49Z</time>
      </trkpt>
      <trkpt lat="45.08481" lon="6.10194">
        <ele>1844.8</ele>
        <time>2021-03-10T14:53:50Z</time>
      </trkpt>
      <trkpt lat="45.08481" lon="6.10187">
        <ele>1845.1</ele>
        <time>2021-03-10T14:53:57Z</time>
      </trkpt>
      <trkpt lat="45.08481" lon="6.10185">
        <ele>1845.1</ele>
        <time>2021-03-10T14:53:58Z</time>
      </trkpt>
      <trkpt lat="45.0848" lon="6.10184">
        <ele>1845.2</ele>
        <time>2021-03-10T14:53:59Z</time>
      </trkpt>
      <trkpt lat="45.0848" lon="6.10183">
        <ele>1845.2</ele>
        <time>2021-03-10T14:54:00Z</time>
      </trkpt>
      <trkpt lat="45.0848" lon="6.10181">
        <ele>1845.3</ele>
        <time>2021-03-10T14:54:01Z</time>
      </trkpt>
      <trkpt lat="45.08479" lon="6.10179">
        <ele>1845.4</ele>
        <time>2021-03-10T14:54:02Z</time>
      </trkpt>
      <trkpt lat="45.08479" lon="6.10176">
        <ele>1845.5</ele>
        <time>2021-03-10T14:54:03Z</time>
      </trkpt>
      <trkpt lat="45.08479" lon="6.10175">
        <ele>1845.5</ele>
        <time>2021-03-10T14:54:04Z</time>
      </trkpt>
      <trkpt lat="45.08478" lon="6.10174">
        <ele>1845.6</ele>
        <time>2021-03-10T14:54:05Z</time>
      </trkpt>
      <trkpt lat="45.08478" lon="6.10172">
        <ele>1845.6</ele>
        <time>2021-03-10T14:54:06Z</time>
      </trkpt>
      <trkpt lat="45.08478" lon="6.10171">
        <ele>1845.7</ele>
        <time>2021-03-10T14:54:07Z</time>
      </trkpt>
      <trkpt lat="45.08478" lon="6.10169">
        <ele>1845.8</ele>
        <time>2021-03-10T14:54:08Z</time>
      </trkpt>
      <trkpt lat="45.08478" lon="6.10166">
        <ele>1845.9</ele>
        <time>2021-03-10T14:54:09Z</time>
      </trkpt>
      <trkpt lat="45.08478" lon="6.10165">
        <ele>1845.9</ele>
        <time>2021-03-10T14:54:10Z</time>
      </trkpt>
      <trkpt lat="45.08478" lon="6.10164">
        <ele>1846</ele>
        <time>2021-03-10T14:54:11Z</time>
      </trkpt>
      <trkpt lat="45.08478" lon="6.10162">
        <ele>1846.1</ele>
        <time>2021-03-10T14:54:12Z</time>
      </trkpt>
      <trkpt lat="45.08478" lon="6.1016">
        <ele>1846.1</ele>
        <time>2021-03-10T14:54:13Z</time>
      </trkpt>
      <trkpt lat="45.08478" lon="6.10159">
        <ele>1846.2</ele>
        <time>2021-03-10T14:54:14Z</time>
      </trkpt>
      <trkpt lat="45.08478" lon="6.10156">
        <ele>1846.3</ele>
        <time>2021-03-10T14:54:15Z</time>
      </trkpt>
      <trkpt lat="45.08478" lon="6.10154">
        <ele>1846.4</ele>
        <time>2021-03-10T14:54:16Z</time>
      </trkpt>
      <trkpt lat="45.08478" lon="6.10153">
        <ele>1846.4</ele>
        <time>2021-03-10T14:54:17Z</time>
      </trkpt>
      <trkpt lat="45.08478" lon="6.10151">
        <ele>1846.5</ele>
        <time>2021-03-10T14:54:18Z</time>
      </trkpt>
      <trkpt lat="45.08478" lon="6.10149">
        <ele>1846.6</ele>
        <time>2021-03-10T14:54:19Z</time>
      </trkpt>
      <trkpt lat="45.08478" lon="6.10147">
        <ele>1846.7</ele>
        <time>2021-03-10T14:54:20Z</time>
      </trkpt>
      <trkpt lat="45.08478" lon="6.10145">
        <ele>1846.7</ele>
        <time>2021-03-10T14:54:21Z</time>
      </trkpt>
      <trkpt lat="45.08478" lon="6.10144">
        <ele>1846.8</ele>
        <time>2021-03-10T14:54:22Z</time>
      </trkpt>
      <trkpt lat="45.08478" lon="6.10141">
        <ele>1846.9</ele>
        <time>2021-03-10T14:54:23Z</time>
      </trkpt>
      <trkpt lat="45.08478" lon="6.1014">
        <ele>1846.9</ele>
        <time>2021-03-10T14:54:24Z</time>
      </trkpt>
      <trkpt lat="45.08478" lon="6.10138">
        <ele>1847</ele>
        <time>2021-03-10T14:54:25Z</time>
      </trkpt>
      <trkpt lat="45.08478" lon="6.10137">
        <ele>1847</ele>
        <time>2021-03-10T14:54:26Z</time>
      </trkpt>
      <trkpt lat="45.08478" lon="6.10135">
        <ele>1847.1</ele>
        <time>2021-03-10T14:54:27Z</time>
      </trkpt>
      <trkpt lat="45.08478" lon="6.10133">
        <ele>1847.1</ele>
        <time>2021-03-10T14:54:28Z</time>
      </trkpt>
      <trkpt lat="45.08478" lon="6.10132">
        <ele>1847.2</ele>
        <time>2021-03-10T14:54:29Z</time>
      </trkpt>
      <trkpt lat="45.08478" lon="6.1013">
        <ele>1847.2</ele>
        <time>2021-03-10T14:54:30Z</time>
      </trkpt>
      <trkpt lat="45.08477" lon="6.10128">
        <ele>1847.3</ele>
        <time>2021-03-10T14:54:31Z</time>
      </trkpt>
      <trkpt lat="45.08477" lon="6.10125">
        <ele>1847.4</ele>
        <time>2021-03-10T14:54:32Z</time>
      </trkpt>
      <trkpt lat="45.08477" lon="6.10124">
        <ele>1847.5</ele>
        <time>2021-03-10T14:54:33Z</time>
      </trkpt>
      <trkpt lat="45.08477" lon="6.10123">
        <ele>1847.5</ele>
        <time>2021-03-10T14:54:34Z</time>
      </trkpt>
      <trkpt lat="45.08477" lon="6.1012">
        <ele>1847.6</ele>
        <time>2021-03-10T14:54:35Z</time>
      </trkpt>
      <trkpt lat="45.08476" lon="6.10119">
        <ele>1847.7</ele>
        <time>2021-03-10T14:54:36Z</time>
      </trkpt>
      <trkpt lat="45.08476" lon="6.10118">
        <ele>1847.7</ele>
        <time>2021-03-10T14:54:37Z</time>
      </trkpt>
      <trkpt lat="45.08476" lon="6.10115">
        <ele>1847.8</ele>
        <time>2021-03-10T14:54:38Z</time>
      </trkpt>
      <trkpt lat="45.08476" lon="6.10113">
        <ele>1847.8</ele>
        <time>2021-03-10T14:54:39Z</time>
      </trkpt>
      <trkpt lat="45.08476" lon="6.10112">
        <ele>1847.9</ele>
        <time>2021-03-10T14:54:40Z</time>
      </trkpt>
      <trkpt lat="45.08476" lon="6.10111">
        <ele>1847.9</ele>
        <time>2021-03-10T14:54:41Z</time>
      </trkpt>
      <trkpt lat="45.08475" lon="6.10109">
        <ele>1848</ele>
        <time>2021-03-10T14:54:42Z</time>
      </trkpt>
      <trkpt lat="45.08475" lon="6.10108">
        <ele>1848</ele>
        <time>2021-03-10T14:54:43Z</time>
      </trkpt>
      <trkpt lat="45.08475" lon="6.10106">
        <ele>1848.1</ele>
        <time>2021-03-10T14:54:44Z</time>
      </trkpt>
      <trkpt lat="45.08475" lon="6.10104">
        <ele>1848.1</ele>
        <time>2021-03-10T14:54:45Z</time>
      </trkpt>
      <trkpt lat="45.08475" lon="6.10103">
        <ele>1848.2</ele>
        <time>2021-03-10T14:54:46Z</time>
      </trkpt>
      <trkpt lat="45.08475" lon="6.10102">
        <ele>1848.2</ele>
        <time>2021-03-10T14:54:47Z</time>
      </trkpt>
      <trkpt lat="45.08475" lon="6.101">
        <ele>1848.3</ele>
        <time>2021-03-10T14:54:48Z</time>
      </trkpt>
      <trkpt lat="45.08475" lon="6.10099">
        <ele>1848.3</ele>
        <time>2021-03-10T14:54:49Z</time>
      </trkpt>
      <trkpt lat="45.08475" lon="6.10096">
        <ele>1848.4</ele>
        <time>2021-03-10T14:54:50Z</time>
      </trkpt>
      <trkpt lat="45.08475" lon="6.10095">
        <ele>1848.4</ele>
        <time>2021-03-10T14:54:51Z</time>
      </trkpt>
      <trkpt lat="45.08475" lon="6.10093">
        <ele>1848.4</ele>
        <time>2021-03-10T14:54:52Z</time>
      </trkpt>
      <trkpt lat="45.08475" lon="6.10092">
        <ele>1848.5</ele>
        <time>2021-03-10T14:54:53Z</time>
      </trkpt>
      <trkpt lat="45.08475" lon="6.10091">
        <ele>1848.5</ele>
        <time>2021-03-10T14:54:54Z</time>
      </trkpt>
      <trkpt lat="45.08475" lon="6.10088">
        <ele>1848.6</ele>
        <time>2021-03-10T14:54:55Z</time>
      </trkpt>
      <trkpt lat="45.08475" lon="6.10087">
        <ele>1848.6</ele>
        <time>2021-03-10T14:54:56Z</time>
      </trkpt>
      <trkpt lat="45.08475" lon="6.10086">
        <ele>1848.6</ele>
        <time>2021-03-10T14:54:57Z</time>
      </trkpt>
      <trkpt lat="45.08475" lon="6.10085">
        <ele>1848.7</ele>
        <time>2021-03-10T14:54:58Z</time>
      </trkpt>
      <trkpt lat="45.08475" lon="6.10083">
        <ele>1848.7</ele>
        <time>2021-03-10T14:54:59Z</time>
      </trkpt>
      <trkpt lat="45.08475" lon="6.10082">
        <ele>1848.7</ele>
        <time>2021-03-10T14:55:00Z</time>
      </trkpt>
      <trkpt lat="45.08475" lon="6.1008">
        <ele>1848.7</ele>
        <time>2021-03-10T14:55:01Z</time>
      </trkpt>
      <trkpt lat="45.08475" lon="6.10079">
        <ele>1848.8</ele>
        <time>2021-03-10T14:55:02Z</time>
      </trkpt>
      <trkpt lat="45.08475" lon="6.10078">
        <ele>1848.8</ele>
        <time>2021-03-10T14:55:03Z</time>
      </trkpt>
      <trkpt lat="45.08475" lon="6.10077">
        <ele>1848.8</ele>
        <time>2021-03-10T14:55:04Z</time>
      </trkpt>
      <trkpt lat="45.08474" lon="6.10077">
        <ele>1848.8</ele>
        <time>2021-03-10T14:55:05Z</time>
      </trkpt>
      <trkpt lat="45.08474" lon="6.10076">
        <ele>1848.8</ele>
        <time>2021-03-10T14:55:06Z</time>
      </trkpt>
      <trkpt lat="45.08474" lon="6.10076">
        <ele>1848.8</ele>
        <time>2021-03-10T14:55:07Z</time>
      </trkpt>
      <trkpt lat="45.08474" lon="6.10075">
        <ele>1848.8</ele>
        <time>2021-03-10T14:55:08Z</time>
      </trkpt>
      <trkpt lat="45.08474" lon="6.10075">
        <ele>1848.8</ele>
        <time>2021-03-10T14:55:09Z</time>
      </trkpt>
      <trkpt lat="45.08473" lon="6.10074">
        <ele>1848.9</ele>
        <time>2021-03-10T14:55:10Z</time>
      </trkpt>
      <trkpt lat="45.08473" lon="6.10074">
        <ele>1848.9</ele>
        <time>2021-03-10T14:55:11Z</time>
      </trkpt>
      <trkpt lat="45.08473" lon="6.10073">
        <ele>1848.9</ele>
        <time>2021-03-10T14:55:12Z</time>
      </trkpt>
      <trkpt lat="45.08473" lon="6.10073">
        <ele>1848.9</ele>
        <time>2021-03-10T14:55:13Z</time>
      </trkpt>
      <trkpt lat="45.08473" lon="6.10072">
        <ele>1848.9</ele>
        <time>2021-03-10T14:55:14Z</time>
      </trkpt>
      <trkpt lat="45.08473" lon="6.10071">
        <ele>1848.9</ele>
        <time>2021-03-10T14:57:05Z</time>
      </trkpt>
      <trkpt lat="45.08472" lon="6.10071">
        <ele>1848.9</ele>
        <time>2021-03-10T14:57:06Z</time>
      </trkpt>
      <trkpt lat="45.08469" lon="6.10069">
        <ele>1848.9</ele>
        <time>2021-03-10T14:57:07Z</time>
      </trkpt>
      <trkpt lat="45.08468" lon="6.10068">
        <ele>1848.9</ele>
        <time>2021-03-10T14:57:08Z</time>
      </trkpt>
      <trkpt lat="45.08468" lon="6.10068">
        <ele>1848.9</ele>
        <time>2021-03-10T14:57:09Z</time>
      </trkpt>
      <trkpt lat="45.08468" lon="6.10068">
        <ele>1848.9</ele>
        <time>2021-03-10T14:57:10Z</time>
      </trkpt>
      <trkpt lat="45.08468" lon="6.10069">
        <ele>1848.9</ele>
        <time>2021-03-10T14:57:11Z</time>
      </trkpt>
      <trkpt lat="45.08468" lon="6.10069">
        <ele>1848.9</ele>
        <time>2021-03-10T14:57:12Z</time>
      </trkpt>
      <trkpt lat="45.08468" lon="6.10069">
        <ele>1848.9</ele>
        <time>2021-03-10T14:57:13Z</time>
      </trkpt>
      <trkpt lat="45.08468" lon="6.10069">
        <ele>1848.9</ele>
        <time>2021-03-10T14:57:14Z</time>
      </trkpt>
      <trkpt lat="45.08468" lon="6.10069">
        <ele>1848.9</ele>
        <time>2021-03-10T14:57:15Z</time>
      </trkpt>
      <trkpt lat="45.08468" lon="6.10069">
        <ele>1848.9</ele>
        <time>2021-03-10T14:57:16Z</time>
      </trkpt>
      <trkpt lat="45.08468" lon="6.10069">
        <ele>1848.9</ele>
        <time>2021-03-10T14:57:17Z</time>
      </trkpt>
      <trkpt lat="45.08473" lon="6.10073">
        <ele>1849</ele>
        <time>2021-03-10T14:57:48Z</time>
      </trkpt>
      <trkpt lat="45.08474" lon="6.10073">
        <ele>1848.9</ele>
        <time>2021-03-10T14:57:49Z</time>
      </trkpt>
      <trkpt lat="45.08475" lon="6.10073">
        <ele>1848.9</ele>
        <time>2021-03-10T14:57:50Z</time>
      </trkpt>
      <trkpt lat="45.08475" lon="6.10072">
        <ele>1848.9</ele>
        <time>2021-03-10T14:57:51Z</time>
      </trkpt>
      <trkpt lat="45.08475" lon="6.10071">
        <ele>1848.9</ele>
        <time>2021-03-10T14:57:52Z</time>
      </trkpt>
      <trkpt lat="45.08474" lon="6.1007">
        <ele>1848.9</ele>
        <time>2021-03-10T14:57:53Z</time>
      </trkpt>
      <trkpt lat="45.08474" lon="6.10069">
        <ele>1848.9</ele>
        <time>2021-03-10T14:57:54Z</time>
      </trkpt>
      <trkpt lat="45.08474" lon="6.10068">
        <ele>1848.9</ele>
        <time>2021-03-10T14:57:55Z</time>
      </trkpt>
      <trkpt lat="45.08474" lon="6.10068">
        <ele>1848.9</ele>
        <time>2021-03-10T14:57:56Z</time>
      </trkpt>
      <trkpt lat="45.08474" lon="6.10067">
        <ele>1848.9</ele>
        <time>2021-03-10T14:57:57Z</time>
      </trkpt>
      <trkpt lat="45.08474" lon="6.10066">
        <ele>1848.9</ele>
        <time>2021-03-10T14:57:58Z</time>
      </trkpt>
      <trkpt lat="45.08474" lon="6.10065">
        <ele>1848.9</ele>
        <time>2021-03-10T14:57:59Z</time>
      </trkpt>
      <trkpt lat="45.08474" lon="6.10064">
        <ele>1848.9</ele>
        <time>2021-03-10T15:01:01Z</time>
      </trkpt>
      <trkpt lat="45.08474" lon="6.10063">
        <ele>1848.8</ele>
        <time>2021-03-10T15:01:02Z</time>
      </trkpt>
      <trkpt lat="45.08474" lon="6.10062">
        <ele>1848.8</ele>
        <time>2021-03-10T15:01:03Z</time>
      </trkpt>
      <trkpt lat="45.08473" lon="6.10058">
        <ele>1848.7</ele>
        <time>2021-03-10T15:01:04Z</time>
      </trkpt>
      <trkpt lat="45.08473" lon="6.10057">
        <ele>1848.7</ele>
        <time>2021-03-10T15:01:05Z</time>
      </trkpt>
      <trkpt lat="45.08473" lon="6.10052">
        <ele>1848.5</ele>
        <time>2021-03-10T15:01:06Z</time>
      </trkpt>
      <trkpt lat="45.08474" lon="6.10051">
        <ele>1848.5</ele>
        <time>2021-03-10T15:01:07Z</time>
      </trkpt>
      <trkpt lat="45.08474" lon="6.10047">
        <ele>1848.4</ele>
        <time>2021-03-10T15:01:08Z</time>
      </trkpt>
      <trkpt lat="45.08474" lon="6.10045">
        <ele>1848.3</ele>
        <time>2021-03-10T15:01:09Z</time>
      </trkpt>
      <trkpt lat="45.08475" lon="6.10041">
        <ele>1848.2</ele>
        <time>2021-03-10T15:01:10Z</time>
      </trkpt>
      <trkpt lat="45.08475" lon="6.1004">
        <ele>1848.1</ele>
        <time>2021-03-10T15:01:11Z</time>
      </trkpt>
      <trkpt lat="45.08476" lon="6.10035">
        <ele>1847.9</ele>
        <time>2021-03-10T15:01:12Z</time>
      </trkpt>
      <trkpt lat="45.08476" lon="6.10033">
        <ele>1847.8</ele>
        <time>2021-03-10T15:01:13Z</time>
      </trkpt>
      <trkpt lat="45.08477" lon="6.10027">
        <ele>1847.5</ele>
        <time>2021-03-10T15:01:14Z</time>
      </trkpt>
      <trkpt lat="45.08477" lon="6.10026">
        <ele>1847.4</ele>
        <time>2021-03-10T15:01:15Z</time>
      </trkpt>
      <trkpt lat="45.08477" lon="6.10022">
        <ele>1847.3</ele>
        <time>2021-03-10T15:01:16Z</time>
      </trkpt>
      <trkpt lat="45.08477" lon="6.10018">
        <ele>1847.1</ele>
        <time>2021-03-10T15:01:17Z</time>
      </trkpt>
      <trkpt lat="45.08477" lon="6.10013">
        <ele>1846.8</ele>
        <time>2021-03-10T15:01:18Z</time>
      </trkpt>
      <trkpt lat="45.08477" lon="6.10009">
        <ele>1846.6</ele>
        <time>2021-03-10T15:01:19Z</time>
      </trkpt>
      <trkpt lat="45.08476" lon="6.10004">
        <ele>1846.4</ele>
        <time>2021-03-10T15:01:20Z</time>
      </trkpt>
      <trkpt lat="45.08476" lon="6.09999">
        <ele>1846.2</ele>
        <time>2021-03-10T15:01:21Z</time>
      </trkpt>
      <trkpt lat="45.08476" lon="6.09994">
        <ele>1846</ele>
        <time>2021-03-10T15:01:22Z</time>
      </trkpt>
      <trkpt lat="45.08475" lon="6.09989">
        <ele>1845.7</ele>
        <time>2021-03-10T15:01:23Z</time>
      </trkpt>
      <trkpt lat="45.08475" lon="6.09984">
        <ele>1845.5</ele>
        <time>2021-03-10T15:01:24Z</time>
      </trkpt>
      <trkpt lat="45.08475" lon="6.09978">
        <ele>1845.3</ele>
        <time>2021-03-10T15:01:25Z</time>
      </trkpt>
      <trkpt lat="45.08474" lon="6.09973">
        <ele>1845.1</ele>
        <time>2021-03-10T15:01:26Z</time>
      </trkpt>
      <trkpt lat="45.08473" lon="6.09968">
        <ele>1844.9</ele>
        <time>2021-03-10T15:01:27Z</time>
      </trkpt>
      <trkpt lat="45.08473" lon="6.09964">
        <ele>1844.7</ele>
        <time>2021-03-10T15:01:28Z</time>
      </trkpt>
      <trkpt lat="45.08473" lon="6.09959">
        <ele>1844.5</ele>
        <time>2021-03-10T15:01:29Z</time>
      </trkpt>
      <trkpt lat="45.08472" lon="6.09955">
        <ele>1844.4</ele>
        <time>2021-03-10T15:01:30Z</time>
      </trkpt>
      <trkpt lat="45.08471" lon="6.09949">
        <ele>1844.1</ele>
        <time>2021-03-10T15:01:31Z</time>
      </trkpt>
      <trkpt lat="45.08471" lon="6.09947">
        <ele>1844</ele>
        <time>2021-03-10T15:01:32Z</time>
      </trkpt>
      <trkpt lat="45.0847" lon="6.09942">
        <ele>1843.8</ele>
        <time>2021-03-10T15:01:33Z</time>
      </trkpt>
      <trkpt lat="45.08469" lon="6.09937">
        <ele>1843.6</ele>
        <time>2021-03-10T15:01:34Z</time>
      </trkpt>
      <trkpt lat="45.08468" lon="6.09931">
        <ele>1843.3</ele>
        <time>2021-03-10T15:01:36Z</time>
      </trkpt>
      <trkpt lat="45.08467" lon="6.09927">
        <ele>1843.1</ele>
        <time>2021-03-10T15:01:37Z</time>
      </trkpt>
      <trkpt lat="45.08466" lon="6.09921">
        <ele>1842.9</ele>
        <time>2021-03-10T15:01:38Z</time>
      </trkpt>
      <trkpt lat="45.08465" lon="6.09916">
        <ele>1842.7</ele>
        <time>2021-03-10T15:01:39Z</time>
      </trkpt>
      <trkpt lat="45.08465" lon="6.09911">
        <ele>1842.5</ele>
        <time>2021-03-10T15:01:40Z</time>
      </trkpt>
      <trkpt lat="45.08465" lon="6.09907">
        <ele>1842.3</ele>
        <time>2021-03-10T15:01:41Z</time>
      </trkpt>
      <trkpt lat="45.08465" lon="6.09902">
        <ele>1842.1</ele>
        <time>2021-03-10T15:01:42Z</time>
      </trkpt>
      <trkpt lat="45.08466" lon="6.09898">
        <ele>1841.9</ele>
        <time>2021-03-10T15:01:43Z</time>
      </trkpt>
      <trkpt lat="45.08467" lon="6.09894">
        <ele>1841.7</ele>
        <time>2021-03-10T15:01:44Z</time>
      </trkpt>
      <trkpt lat="45.08467" lon="6.0989">
        <ele>1841.5</ele>
        <time>2021-03-10T15:01:45Z</time>
      </trkpt>
      <trkpt lat="45.08468" lon="6.09885">
        <ele>1841.3</ele>
        <time>2021-03-10T15:01:46Z</time>
      </trkpt>
      <trkpt lat="45.08469" lon="6.09881">
        <ele>1841.2</ele>
        <time>2021-03-10T15:01:47Z</time>
      </trkpt>
      <trkpt lat="45.0847" lon="6.09876">
        <ele>1841</ele>
        <time>2021-03-10T15:01:48Z</time>
      </trkpt>
      <trkpt lat="45.08471" lon="6.0987">
        <ele>1840.8</ele>
        <time>2021-03-10T15:01:49Z</time>
      </trkpt>
      <trkpt lat="45.08471" lon="6.09865">
        <ele>1840.6</ele>
        <time>2021-03-10T15:01:50Z</time>
      </trkpt>
      <trkpt lat="45.08472" lon="6.0986">
        <ele>1840.4</ele>
        <time>2021-03-10T15:01:51Z</time>
      </trkpt>
      <trkpt lat="45.08472" lon="6.09856">
        <ele>1840.3</ele>
        <time>2021-03-10T15:01:52Z</time>
      </trkpt>
      <trkpt lat="45.08473" lon="6.09852">
        <ele>1840.2</ele>
        <time>2021-03-10T15:01:53Z</time>
      </trkpt>
      <trkpt lat="45.08473" lon="6.09847">
        <ele>1840.1</ele>
        <time>2021-03-10T15:01:54Z</time>
      </trkpt>
      <trkpt lat="45.08473" lon="6.09843">
        <ele>1839.9</ele>
        <time>2021-03-10T15:01:55Z</time>
      </trkpt>
      <trkpt lat="45.08473" lon="6.09838">
        <ele>1839.8</ele>
        <time>2021-03-10T15:01:56Z</time>
      </trkpt>
      <trkpt lat="45.08473" lon="6.09832">
        <ele>1839.6</ele>
        <time>2021-03-10T15:01:57Z</time>
      </trkpt>
      <trkpt lat="45.08473" lon="6.09826">
        <ele>1839.5</ele>
        <time>2021-03-10T15:01:58Z</time>
      </trkpt>
      <trkpt lat="45.08473" lon="6.09821">
        <ele>1839.3</ele>
        <time>2021-03-10T15:01:59Z</time>
      </trkpt>
      <trkpt lat="45.08473" lon="6.09815">
        <ele>1839.2</ele>
        <time>2021-03-10T15:02:00Z</time>
      </trkpt>
      <trkpt lat="45.08473" lon="6.09809">
        <ele>1839.1</ele>
        <time>2021-03-10T15:02:01Z</time>
      </trkpt>
      <trkpt lat="45.08473" lon="6.09804">
        <ele>1838.9</ele>
        <time>2021-03-10T15:02:02Z</time>
      </trkpt>
      <trkpt lat="45.08473" lon="6.09798">
        <ele>1838.8</ele>
        <time>2021-03-10T15:02:03Z</time>
      </trkpt>
      <trkpt lat="45.08474" lon="6.09796">
        <ele>1838.7</ele>
        <time>2021-03-10T15:02:04Z</time>
      </trkpt>
      <trkpt lat="45.08474" lon="6.09795">
        <ele>1838.7</ele>
        <time>2021-03-10T15:02:05Z</time>
      </trkpt>
      <trkpt lat="45.08474" lon="6.09795">
        <ele>1838.7</ele>
        <time>2021-03-10T15:02:06Z</time>
      </trkpt>
      <trkpt lat="45.08475" lon="6.09797">
        <ele>1838.7</ele>
        <time>2021-03-10T15:02:07Z</time>
      </trkpt>
      <trkpt lat="45.08475" lon="6.09797">
        <ele>1838.7</ele>
        <time>2021-03-10T15:02:08Z</time>
      </trkpt>
      <trkpt lat="45.08475" lon="6.09797">
        <ele>1838.7</ele>
        <time>2021-03-10T15:02:09Z</time>
      </trkpt>
      <trkpt lat="45.08475" lon="6.09797">
        <ele>1838.7</ele>
        <time>2021-03-10T15:02:10Z</time>
      </trkpt>
      <trkpt lat="45.08475" lon="6.09797">
        <ele>1838.7</ele>
        <time>2021-03-10T15:02:11Z</time>
      </trkpt>
      <trkpt lat="45.08475" lon="6.09797">
        <ele>1838.7</ele>
        <time>2021-03-10T15:02:12Z</time>
      </trkpt>
      <trkpt lat="45.08474" lon="6.09801">
        <ele>1838.6</ele>
        <time>2021-03-10T15:02:13Z</time>
      </trkpt>
      <trkpt lat="45.08474" lon="6.09802">
        <ele>1838.6</ele>
        <time>2021-03-10T15:02:14Z</time>
      </trkpt>
      <trkpt lat="45.08473" lon="6.09802">
        <ele>1838.5</ele>
        <time>2021-03-10T15:02:15Z</time>
      </trkpt>
      <trkpt lat="45.08473" lon="6.09801">
        <ele>1838.5</ele>
        <time>2021-03-10T15:02:16Z</time>
      </trkpt>
      <trkpt lat="45.08473" lon="6.098">
        <ele>1838.5</ele>
        <time>2021-03-10T15:02:17Z</time>
      </trkpt>
      <trkpt lat="45.08477" lon="6.09792">
        <ele>1838.3</ele>
        <time>2021-03-10T15:02:21Z</time>
      </trkpt>
      <trkpt lat="45.08478" lon="6.09789">
        <ele>1838.2</ele>
        <time>2021-03-10T15:02:22Z</time>
      </trkpt>
      <trkpt lat="45.0848" lon="6.09784">
        <ele>1838.1</ele>
        <time>2021-03-10T15:02:23Z</time>
      </trkpt>
      <trkpt lat="45.0848" lon="6.09782">
        <ele>1838.1</ele>
        <time>2021-03-10T15:02:24Z</time>
      </trkpt>
      <trkpt lat="45.08482" lon="6.09777">
        <ele>1837.9</ele>
        <time>2021-03-10T15:02:25Z</time>
      </trkpt>
      <trkpt lat="45.08483" lon="6.09776">
        <ele>1837.9</ele>
        <time>2021-03-10T15:02:26Z</time>
      </trkpt>
      <trkpt lat="45.08484" lon="6.09771">
        <ele>1837.7</ele>
        <time>2021-03-10T15:02:27Z</time>
      </trkpt>
      <trkpt lat="45.08485" lon="6.0977">
        <ele>1837.7</ele>
        <time>2021-03-10T15:02:28Z</time>
      </trkpt>
      <trkpt lat="45.08486" lon="6.09764">
        <ele>1837.5</ele>
        <time>2021-03-10T15:02:29Z</time>
      </trkpt>
      <trkpt lat="45.08487" lon="6.09762">
        <ele>1837.5</ele>
        <time>2021-03-10T15:02:30Z</time>
      </trkpt>
      <trkpt lat="45.08488" lon="6.09759">
        <ele>1837.4</ele>
        <time>2021-03-10T15:02:31Z</time>
      </trkpt>
      <trkpt lat="45.08489" lon="6.09755">
        <ele>1837.2</ele>
        <time>2021-03-10T15:02:32Z</time>
      </trkpt>
      <trkpt lat="45.0849" lon="6.0975">
        <ele>1837.1</ele>
        <time>2021-03-10T15:02:33Z</time>
      </trkpt>
      <trkpt lat="45.0849" lon="6.09746">
        <ele>1837</ele>
        <time>2021-03-10T15:02:34Z</time>
      </trkpt>
      <trkpt lat="45.08491" lon="6.09741">
        <ele>1836.9</ele>
        <time>2021-03-10T15:02:35Z</time>
      </trkpt>
      <trkpt lat="45.08492" lon="6.09736">
        <ele>1836.8</ele>
        <time>2021-03-10T15:02:36Z</time>
      </trkpt>
      <trkpt lat="45.08492" lon="6.09731">
        <ele>1836.7</ele>
        <time>2021-03-10T15:02:37Z</time>
      </trkpt>
      <trkpt lat="45.08493" lon="6.09727">
        <ele>1836.6</ele>
        <time>2021-03-10T15:02:38Z</time>
      </trkpt>
      <trkpt lat="45.08494" lon="6.09723">
        <ele>1836.5</ele>
        <time>2021-03-10T15:02:39Z</time>
      </trkpt>
      <trkpt lat="45.08495" lon="6.09719">
        <ele>1836.5</ele>
        <time>2021-03-10T15:02:40Z</time>
      </trkpt>
      <trkpt lat="45.08496" lon="6.09716">
        <ele>1836.4</ele>
        <time>2021-03-10T15:02:41Z</time>
      </trkpt>
      <trkpt lat="45.08498" lon="6.0971">
        <ele>1836.3</ele>
        <time>2021-03-10T15:02:42Z</time>
      </trkpt>
      <trkpt lat="45.08498" lon="6.09708">
        <ele>1836.2</ele>
        <time>2021-03-10T15:02:43Z</time>
      </trkpt>
      <trkpt lat="45.08499" lon="6.09704">
        <ele>1836.1</ele>
        <time>2021-03-10T15:02:44Z</time>
      </trkpt>
      <trkpt lat="45.085" lon="6.097">
        <ele>1836.1</ele>
        <time>2021-03-10T15:02:45Z</time>
      </trkpt>
      <trkpt lat="45.08502" lon="6.09695">
        <ele>1835.9</ele>
        <time>2021-03-10T15:02:46Z</time>
      </trkpt>
      <trkpt lat="45.08502" lon="6.09694">
        <ele>1835.9</ele>
        <time>2021-03-10T15:02:47Z</time>
      </trkpt>
      <trkpt lat="45.08504" lon="6.09689">
        <ele>1835.8</ele>
        <time>2021-03-10T15:02:48Z</time>
      </trkpt>
      <trkpt lat="45.08504" lon="6.09687">
        <ele>1835.7</ele>
        <time>2021-03-10T15:02:49Z</time>
      </trkpt>
      <trkpt lat="45.08506" lon="6.09682">
        <ele>1835.5</ele>
        <time>2021-03-10T15:02:50Z</time>
      </trkpt>
      <trkpt lat="45.08506" lon="6.0968">
        <ele>1835.5</ele>
        <time>2021-03-10T15:02:51Z</time>
      </trkpt>
      <trkpt lat="45.08507" lon="6.09676">
        <ele>1835.3</ele>
        <time>2021-03-10T15:02:52Z</time>
      </trkpt>
      <trkpt lat="45.08508" lon="6.09672">
        <ele>1835.2</ele>
        <time>2021-03-10T15:02:53Z</time>
      </trkpt>
      <trkpt lat="45.08509" lon="6.09668">
        <ele>1835</ele>
        <time>2021-03-10T15:02:54Z</time>
      </trkpt>
      <trkpt lat="45.08511" lon="6.09664">
        <ele>1834.9</ele>
        <time>2021-03-10T15:02:55Z</time>
      </trkpt>
      <trkpt lat="45.08512" lon="6.0966">
        <ele>1834.8</ele>
        <time>2021-03-10T15:02:56Z</time>
      </trkpt>
      <trkpt lat="45.08513" lon="6.09656">
        <ele>1834.6</ele>
        <time>2021-03-10T15:02:57Z</time>
      </trkpt>
      <trkpt lat="45.08515" lon="6.09652">
        <ele>1834.5</ele>
        <time>2021-03-10T15:02:58Z</time>
      </trkpt>
      <trkpt lat="45.08516" lon="6.09649">
        <ele>1834.4</ele>
        <time>2021-03-10T15:02:59Z</time>
      </trkpt>
      <trkpt lat="45.08518" lon="6.09644">
        <ele>1834.2</ele>
        <time>2021-03-10T15:03:00Z</time>
      </trkpt>
      <trkpt lat="45.08519" lon="6.0964">
        <ele>1834.1</ele>
        <time>2021-03-10T15:03:01Z</time>
      </trkpt>
      <trkpt lat="45.08521" lon="6.09636">
        <ele>1834</ele>
        <time>2021-03-10T15:03:02Z</time>
      </trkpt>
      <trkpt lat="45.08523" lon="6.09632">
        <ele>1833.9</ele>
        <time>2021-03-10T15:03:03Z</time>
      </trkpt>
      <trkpt lat="45.08524" lon="6.09627">
        <ele>1833.8</ele>
        <time>2021-03-10T15:03:04Z</time>
      </trkpt>
      <trkpt lat="45.08525" lon="6.09622">
        <ele>1833.7</ele>
        <time>2021-03-10T15:03:05Z</time>
      </trkpt>
      <trkpt lat="45.08526" lon="6.09618">
        <ele>1833.6</ele>
        <time>2021-03-10T15:03:06Z</time>
      </trkpt>
      <trkpt lat="45.08528" lon="6.09614">
        <ele>1833.6</ele>
        <time>2021-03-10T15:03:07Z</time>
      </trkpt>
      <trkpt lat="45.08529" lon="6.0961">
        <ele>1833.5</ele>
        <time>2021-03-10T15:03:08Z</time>
      </trkpt>
      <trkpt lat="45.08531" lon="6.09605">
        <ele>1833.4</ele>
        <time>2021-03-10T15:03:09Z</time>
      </trkpt>
      <trkpt lat="45.08532" lon="6.09603">
        <ele>1833.4</ele>
        <time>2021-03-10T15:03:10Z</time>
      </trkpt>
      <trkpt lat="45.08533" lon="6.09598">
        <ele>1833.3</ele>
        <time>2021-03-10T15:03:11Z</time>
      </trkpt>
      <trkpt lat="45.08533" lon="6.09596">
        <ele>1833.3</ele>
        <time>2021-03-10T15:03:12Z</time>
      </trkpt>
      <trkpt lat="45.08534" lon="6.09592">
        <ele>1833.3</ele>
        <time>2021-03-10T15:03:13Z</time>
      </trkpt>
      <trkpt lat="45.08533" lon="6.09587">
        <ele>1833.2</ele>
        <time>2021-03-10T15:03:14Z</time>
      </trkpt>
      <trkpt lat="45.08533" lon="6.09583">
        <ele>1833.2</ele>
        <time>2021-03-10T15:03:15Z</time>
      </trkpt>
      <trkpt lat="45.08533" lon="6.09578">
        <ele>1833.1</ele>
        <time>2021-03-10T15:03:16Z</time>
      </trkpt>
      <trkpt lat="45.08532" lon="6.09573">
        <ele>1833.1</ele>
        <time>2021-03-10T15:03:17Z</time>
      </trkpt>
      <trkpt lat="45.08532" lon="6.09567">
        <ele>1833</ele>
        <time>2021-03-10T15:03:18Z</time>
      </trkpt>
      <trkpt lat="45.08531" lon="6.09562">
        <ele>1833</ele>
        <time>2021-03-10T15:03:19Z</time>
      </trkpt>
      <trkpt lat="45.0853" lon="6.09557">
        <ele>1832.9</ele>
        <time>2021-03-10T15:03:20Z</time>
      </trkpt>
      <trkpt lat="45.0853" lon="6.09552">
        <ele>1832.9</ele>
        <time>2021-03-10T15:03:21Z</time>
      </trkpt>
      <trkpt lat="45.08529" lon="6.09546">
        <ele>1832.8</ele>
        <time>2021-03-10T15:03:22Z</time>
      </trkpt>
      <trkpt lat="45.08529" lon="6.09541">
        <ele>1832.8</ele>
        <time>2021-03-10T15:03:23Z</time>
      </trkpt>
      <trkpt lat="45.08529" lon="6.09536">
        <ele>1832.7</ele>
        <time>2021-03-10T15:03:24Z</time>
      </trkpt>
      <trkpt lat="45.0853" lon="6.09531">
        <ele>1832.7</ele>
        <time>2021-03-10T15:03:25Z</time>
      </trkpt>
      <trkpt lat="45.0853" lon="6.09529">
        <ele>1832.7</ele>
        <time>2021-03-10T15:03:26Z</time>
      </trkpt>
      <trkpt lat="45.08531" lon="6.09525">
        <ele>1832.6</ele>
        <time>2021-03-10T15:03:27Z</time>
      </trkpt>
      <trkpt lat="45.08532" lon="6.09525">
        <ele>1832.6</ele>
        <time>2021-03-10T15:03:28Z</time>
      </trkpt>
      <trkpt lat="45.08533" lon="6.09521">
        <ele>1832.6</ele>
        <time>2021-03-10T15:03:29Z</time>
      </trkpt>
      <trkpt lat="45.08534" lon="6.09519">
        <ele>1832.6</ele>
        <time>2021-03-10T15:03:30Z</time>
      </trkpt>
      <trkpt lat="45.08535" lon="6.09515">
        <ele>1832.6</ele>
        <time>2021-03-10T15:03:31Z</time>
      </trkpt>
      <trkpt lat="45.08535" lon="6.09513">
        <ele>1832.5</ele>
        <time>2021-03-10T15:03:32Z</time>
      </trkpt>
      <trkpt lat="45.08535" lon="6.09509">
        <ele>1832.5</ele>
        <time>2021-03-10T15:03:33Z</time>
      </trkpt>
      <trkpt lat="45.08534" lon="6.09504">
        <ele>1832.5</ele>
        <time>2021-03-10T15:03:34Z</time>
      </trkpt>
      <trkpt lat="45.08534" lon="6.09499">
        <ele>1832.5</ele>
        <time>2021-03-10T15:03:35Z</time>
      </trkpt>
      <trkpt lat="45.08535" lon="6.09495">
        <ele>1832.5</ele>
        <time>2021-03-10T15:03:36Z</time>
      </trkpt>
      <trkpt lat="45.08535" lon="6.0949">
        <ele>1832.5</ele>
        <time>2021-03-10T15:03:37Z</time>
      </trkpt>
      <trkpt lat="45.08536" lon="6.09486">
        <ele>1832.4</ele>
        <time>2021-03-10T15:03:38Z</time>
      </trkpt>
      <trkpt lat="45.08537" lon="6.09484">
        <ele>1832.4</ele>
        <time>2021-03-10T15:03:39Z</time>
      </trkpt>
      <trkpt lat="45.08538" lon="6.09479">
        <ele>1832.4</ele>
        <time>2021-03-10T15:03:40Z</time>
      </trkpt>
      <trkpt lat="45.08539" lon="6.09477">
        <ele>1832.4</ele>
        <time>2021-03-10T15:03:41Z</time>
      </trkpt>
      <trkpt lat="45.0854" lon="6.09474">
        <ele>1832.4</ele>
        <time>2021-03-10T15:03:42Z</time>
      </trkpt>
      <trkpt lat="45.08541" lon="6.0947">
        <ele>1832.4</ele>
        <time>2021-03-10T15:03:43Z</time>
      </trkpt>
      <trkpt lat="45.08542" lon="6.09466">
        <ele>1832.4</ele>
        <time>2021-03-10T15:03:44Z</time>
      </trkpt>
      <trkpt lat="45.08543" lon="6.09463">
        <ele>1832.4</ele>
        <time>2021-03-10T15:03:45Z</time>
      </trkpt>
      <trkpt lat="45.08544" lon="6.09459">
        <ele>1832.4</ele>
        <time>2021-03-10T15:03:46Z</time>
      </trkpt>
      <trkpt lat="45.08544" lon="6.09455">
        <ele>1832.4</ele>
        <time>2021-03-10T15:03:47Z</time>
      </trkpt>
      <trkpt lat="45.08545" lon="6.09449">
        <ele>1832.4</ele>
        <time>2021-03-10T15:03:48Z</time>
      </trkpt>
      <trkpt lat="45.08545" lon="6.09447">
        <ele>1832.4</ele>
        <time>2021-03-10T15:03:49Z</time>
      </trkpt>
      <trkpt lat="45.08544" lon="6.09442">
        <ele>1832.4</ele>
        <time>2021-03-10T15:03:50Z</time>
      </trkpt>
      <trkpt lat="45.08544" lon="6.09438">
        <ele>1832.5</ele>
        <time>2021-03-10T15:03:51Z</time>
      </trkpt>
      <trkpt lat="45.08544" lon="6.09433">
        <ele>1832.5</ele>
        <time>2021-03-10T15:03:52Z</time>
      </trkpt>
      <trkpt lat="45.08544" lon="6.09428">
        <ele>1832.6</ele>
        <time>2021-03-10T15:03:53Z</time>
      </trkpt>
      <trkpt lat="45.08545" lon="6.09427">
        <ele>1832.6</ele>
        <time>2021-03-10T15:03:54Z</time>
      </trkpt>
      <trkpt lat="45.08545" lon="6.09422">
        <ele>1832.7</ele>
        <time>2021-03-10T15:03:55Z</time>
      </trkpt>
      <trkpt lat="45.08545" lon="6.09421">
        <ele>1832.7</ele>
        <time>2021-03-10T15:03:56Z</time>
      </trkpt>
      <trkpt lat="45.08544" lon="6.09415">
        <ele>1832.8</ele>
        <time>2021-03-10T15:03:57Z</time>
      </trkpt>
      <trkpt lat="45.08543" lon="6.09413">
        <ele>1832.8</ele>
        <time>2021-03-10T15:03:58Z</time>
      </trkpt>
      <trkpt lat="45.08542" lon="6.09409">
        <ele>1832.9</ele>
        <time>2021-03-10T15:03:59Z</time>
      </trkpt>
      <trkpt lat="45.08542" lon="6.09407">
        <ele>1832.9</ele>
        <time>2021-03-10T15:04:00Z</time>
      </trkpt>
      <trkpt lat="45.08542" lon="6.09405">
        <ele>1833</ele>
        <time>2021-03-10T15:04:01Z</time>
      </trkpt>
      <trkpt lat="45.08542" lon="6.09403">
        <ele>1833</ele>
        <time>2021-03-10T15:04:02Z</time>
      </trkpt>
      <trkpt lat="45.08542" lon="6.09397">
        <ele>1833.1</ele>
        <time>2021-03-10T15:04:03Z</time>
      </trkpt>
      <trkpt lat="45.08542" lon="6.09396">
        <ele>1833.2</ele>
        <time>2021-03-10T15:04:04Z</time>
      </trkpt>
      <trkpt lat="45.08542" lon="6.09391">
        <ele>1833.3</ele>
        <time>2021-03-10T15:04:05Z</time>
      </trkpt>
      <trkpt lat="45.08543" lon="6.09389">
        <ele>1833.3</ele>
        <time>2021-03-10T15:04:06Z</time>
      </trkpt>
      <trkpt lat="45.08544" lon="6.09384">
        <ele>1833.4</ele>
        <time>2021-03-10T15:04:07Z</time>
      </trkpt>
      <trkpt lat="45.08544" lon="6.09382">
        <ele>1833.5</ele>
        <time>2021-03-10T15:04:08Z</time>
      </trkpt>
      <trkpt lat="45.08545" lon="6.09378">
        <ele>1833.6</ele>
        <time>2021-03-10T15:04:09Z</time>
      </trkpt>
      <trkpt lat="45.08545" lon="6.09376">
        <ele>1833.7</ele>
        <time>2021-03-10T15:04:10Z</time>
      </trkpt>
      <trkpt lat="45.08547" lon="6.09373">
        <ele>1833.8</ele>
        <time>2021-03-10T15:04:11Z</time>
      </trkpt>
      <trkpt lat="45.08547" lon="6.09371">
        <ele>1833.8</ele>
        <time>2021-03-10T15:04:12Z</time>
      </trkpt>
      <trkpt lat="45.08548" lon="6.09367">
        <ele>1834</ele>
        <time>2021-03-10T15:04:13Z</time>
      </trkpt>
      <trkpt lat="45.08549" lon="6.09366">
        <ele>1834</ele>
        <time>2021-03-10T15:04:14Z</time>
      </trkpt>
      <trkpt lat="45.08549" lon="6.09362">
        <ele>1834.1</ele>
        <time>2021-03-10T15:04:15Z</time>
      </trkpt>
      <trkpt lat="45.08549" lon="6.0936">
        <ele>1834.2</ele>
        <time>2021-03-10T15:04:16Z</time>
      </trkpt>
      <trkpt lat="45.0855" lon="6.09357">
        <ele>1834.3</ele>
        <time>2021-03-10T15:04:17Z</time>
      </trkpt>
      <trkpt lat="45.0855" lon="6.09355">
        <ele>1834.3</ele>
        <time>2021-03-10T15:04:18Z</time>
      </trkpt>
      <trkpt lat="45.08551" lon="6.09351">
        <ele>1834.5</ele>
        <time>2021-03-10T15:04:19Z</time>
      </trkpt>
      <trkpt lat="45.08552" lon="6.0935">
        <ele>1834.5</ele>
        <time>2021-03-10T15:04:20Z</time>
      </trkpt>
      <trkpt lat="45.08552" lon="6.09347">
        <ele>1834.6</ele>
        <time>2021-03-10T15:04:21Z</time>
      </trkpt>
      <trkpt lat="45.08553" lon="6.09345">
        <ele>1834.7</ele>
        <time>2021-03-10T15:04:22Z</time>
      </trkpt>
      <trkpt lat="45.08554" lon="6.09342">
        <ele>1834.8</ele>
        <time>2021-03-10T15:04:23Z</time>
      </trkpt>
      <trkpt lat="45.08555" lon="6.09341">
        <ele>1834.9</ele>
        <time>2021-03-10T15:04:24Z</time>
      </trkpt>
      <trkpt lat="45.08555" lon="6.0934">
        <ele>1834.9</ele>
        <time>2021-03-10T15:04:25Z</time>
      </trkpt>
      <trkpt lat="45.08556" lon="6.09337">
        <ele>1835</ele>
        <time>2021-03-10T15:04:26Z</time>
      </trkpt>
      <trkpt lat="45.08556" lon="6.09335">
        <ele>1835</ele>
        <time>2021-03-10T15:04:27Z</time>
      </trkpt>
      <trkpt lat="45.08557" lon="6.09333">
        <ele>1835.1</ele>
        <time>2021-03-10T15:04:28Z</time>
      </trkpt>
      <trkpt lat="45.08557" lon="6.09332">
        <ele>1835.1</ele>
        <time>2021-03-10T15:04:29Z</time>
      </trkpt>
      <trkpt lat="45.08558" lon="6.09329">
        <ele>1835.2</ele>
        <time>2021-03-10T15:04:30Z</time>
      </trkpt>
      <trkpt lat="45.08558" lon="6.09327">
        <ele>1835.2</ele>
        <time>2021-03-10T15:04:31Z</time>
      </trkpt>
      <trkpt lat="45.08558" lon="6.09325">
        <ele>1835.3</ele>
        <time>2021-03-10T15:04:32Z</time>
      </trkpt>
      <trkpt lat="45.08559" lon="6.09324">
        <ele>1835.3</ele>
        <time>2021-03-10T15:04:33Z</time>
      </trkpt>
      <trkpt lat="45.08559" lon="6.09322">
        <ele>1835.3</ele>
        <time>2021-03-10T15:04:34Z</time>
      </trkpt>
      <trkpt lat="45.0856" lon="6.09321">
        <ele>1835.3</ele>
        <time>2021-03-10T15:04:35Z</time>
      </trkpt>
      <trkpt lat="45.08561" lon="6.0932">
        <ele>1835.4</ele>
        <time>2021-03-10T15:04:36Z</time>
      </trkpt>
      <trkpt lat="45.08562" lon="6.09317">
        <ele>1835.4</ele>
        <time>2021-03-10T15:04:37Z</time>
      </trkpt>
      <trkpt lat="45.08562" lon="6.09315">
        <ele>1835.4</ele>
        <time>2021-03-10T15:04:38Z</time>
      </trkpt>
      <trkpt lat="45.08563" lon="6.09314">
        <ele>1835.4</ele>
        <time>2021-03-10T15:04:39Z</time>
      </trkpt>
      <trkpt lat="45.08563" lon="6.09312">
        <ele>1835.4</ele>
        <time>2021-03-10T15:04:40Z</time>
      </trkpt>
      <trkpt lat="45.08564" lon="6.09311">
        <ele>1835.4</ele>
        <time>2021-03-10T15:04:41Z</time>
      </trkpt>
      <trkpt lat="45.08564" lon="6.09309">
        <ele>1835.4</ele>
        <time>2021-03-10T15:04:42Z</time>
      </trkpt>
      <trkpt lat="45.08565" lon="6.09308">
        <ele>1835.4</ele>
        <time>2021-03-10T15:04:43Z</time>
      </trkpt>
      <trkpt lat="45.08565" lon="6.09307">
        <ele>1835.4</ele>
        <time>2021-03-10T15:04:44Z</time>
      </trkpt>
      <trkpt lat="45.08565" lon="6.09306">
        <ele>1835.4</ele>
        <time>2021-03-10T15:04:45Z</time>
      </trkpt>
      <trkpt lat="45.08565" lon="6.09305">
        <ele>1835.4</ele>
        <time>2021-03-10T15:04:46Z</time>
      </trkpt>
      <trkpt lat="45.08566" lon="6.09304">
        <ele>1835.4</ele>
        <time>2021-03-10T15:04:47Z</time>
      </trkpt>
      <trkpt lat="45.08566" lon="6.09303">
        <ele>1835.4</ele>
        <time>2021-03-10T15:04:48Z</time>
      </trkpt>
      <trkpt lat="45.08567" lon="6.09301">
        <ele>1835.4</ele>
        <time>2021-03-10T15:04:49Z</time>
      </trkpt>
      <trkpt lat="45.08567" lon="6.09299">
        <ele>1835.3</ele>
        <time>2021-03-10T15:04:50Z</time>
      </trkpt>
      <trkpt lat="45.08568" lon="6.09296">
        <ele>1835.3</ele>
        <time>2021-03-10T15:04:51Z</time>
      </trkpt>
      <trkpt lat="45.08569" lon="6.09295">
        <ele>1835.3</ele>
        <time>2021-03-10T15:04:52Z</time>
      </trkpt>
      <trkpt lat="45.08569" lon="6.09294">
        <ele>1835.3</ele>
        <time>2021-03-10T15:04:53Z</time>
      </trkpt>
      <trkpt lat="45.0857" lon="6.09292">
        <ele>1835.2</ele>
        <time>2021-03-10T15:04:54Z</time>
      </trkpt>
      <trkpt lat="45.0857" lon="6.0929">
        <ele>1835.2</ele>
        <time>2021-03-10T15:04:55Z</time>
      </trkpt>
      <trkpt lat="45.08571" lon="6.09287">
        <ele>1835.2</ele>
        <time>2021-03-10T15:04:56Z</time>
      </trkpt>
      <trkpt lat="45.08572" lon="6.09286">
        <ele>1835.2</ele>
        <time>2021-03-10T15:04:57Z</time>
      </trkpt>
      <trkpt lat="45.08572" lon="6.09285">
        <ele>1835.1</ele>
        <time>2021-03-10T15:04:58Z</time>
      </trkpt>
      <trkpt lat="45.08573" lon="6.09283">
        <ele>1835.1</ele>
        <time>2021-03-10T15:04:59Z</time>
      </trkpt>
      <trkpt lat="45.08574" lon="6.09281">
        <ele>1835.1</ele>
        <time>2021-03-10T15:05:00Z</time>
      </trkpt>
      <trkpt lat="45.08575" lon="6.09277">
        <ele>1835</ele>
        <time>2021-03-10T15:05:01Z</time>
      </trkpt>
      <trkpt lat="45.08575" lon="6.09276">
        <ele>1835</ele>
        <time>2021-03-10T15:05:02Z</time>
      </trkpt>
      <trkpt lat="45.08576" lon="6.09271">
        <ele>1834.9</ele>
        <time>2021-03-10T15:05:03Z</time>
      </trkpt>
      <trkpt lat="45.08577" lon="6.0927">
        <ele>1834.9</ele>
        <time>2021-03-10T15:05:04Z</time>
      </trkpt>
      <trkpt lat="45.08578" lon="6.09265">
        <ele>1834.8</ele>
        <time>2021-03-10T15:05:05Z</time>
      </trkpt>
      <trkpt lat="45.08578" lon="6.09264">
        <ele>1834.8</ele>
        <time>2021-03-10T15:05:06Z</time>
      </trkpt>
      <trkpt lat="45.08579" lon="6.09258">
        <ele>1834.7</ele>
        <time>2021-03-10T15:05:07Z</time>
      </trkpt>
      <trkpt lat="45.0858" lon="6.09257">
        <ele>1834.7</ele>
        <time>2021-03-10T15:05:08Z</time>
      </trkpt>
      <trkpt lat="45.08581" lon="6.09252">
        <ele>1834.7</ele>
        <time>2021-03-10T15:05:09Z</time>
      </trkpt>
      <trkpt lat="45.08581" lon="6.09251">
        <ele>1834.6</ele>
        <time>2021-03-10T15:05:10Z</time>
      </trkpt>
      <trkpt lat="45.08583" lon="6.09247">
        <ele>1834.6</ele>
        <time>2021-03-10T15:05:11Z</time>
      </trkpt>
      <trkpt lat="45.08583" lon="6.09246">
        <ele>1834.6</ele>
        <time>2021-03-10T15:05:12Z</time>
      </trkpt>
      <trkpt lat="45.08584" lon="6.09242">
        <ele>1834.5</ele>
        <time>2021-03-10T15:05:13Z</time>
      </trkpt>
      <trkpt lat="45.08584" lon="6.0924">
        <ele>1834.5</ele>
        <time>2021-03-10T15:05:14Z</time>
      </trkpt>
      <trkpt lat="45.08586" lon="6.09236">
        <ele>1834.5</ele>
        <time>2021-03-10T15:05:15Z</time>
      </trkpt>
      <trkpt lat="45.08586" lon="6.09235">
        <ele>1834.5</ele>
        <time>2021-03-10T15:05:16Z</time>
      </trkpt>
      <trkpt lat="45.08588" lon="6.0923">
        <ele>1834.5</ele>
        <time>2021-03-10T15:05:17Z</time>
      </trkpt>
      <trkpt lat="45.08588" lon="6.09229">
        <ele>1834.5</ele>
        <time>2021-03-10T15:05:18Z</time>
      </trkpt>
      <trkpt lat="45.08589" lon="6.09225">
        <ele>1834.5</ele>
        <time>2021-03-10T15:05:19Z</time>
      </trkpt>
      <trkpt lat="45.0859" lon="6.09224">
        <ele>1834.5</ele>
        <time>2021-03-10T15:05:20Z</time>
      </trkpt>
      <trkpt lat="45.08592" lon="6.0922">
        <ele>1834.5</ele>
        <time>2021-03-10T15:05:21Z</time>
      </trkpt>
      <trkpt lat="45.08592" lon="6.09219">
        <ele>1834.5</ele>
        <time>2021-03-10T15:05:22Z</time>
      </trkpt>
      <trkpt lat="45.08594" lon="6.09215">
        <ele>1834.5</ele>
        <time>2021-03-10T15:05:23Z</time>
      </trkpt>
      <trkpt lat="45.08595" lon="6.09214">
        <ele>1834.5</ele>
        <time>2021-03-10T15:05:24Z</time>
      </trkpt>
      <trkpt lat="45.08596" lon="6.09212">
        <ele>1834.5</ele>
        <time>2021-03-10T15:05:25Z</time>
      </trkpt>
      <trkpt lat="45.08597" lon="6.09211">
        <ele>1834.5</ele>
        <time>2021-03-10T15:05:26Z</time>
      </trkpt>
      <trkpt lat="45.08599" lon="6.09209">
        <ele>1834.5</ele>
        <time>2021-03-10T15:05:27Z</time>
      </trkpt>
      <trkpt lat="45.086" lon="6.09207">
        <ele>1834.5</ele>
        <time>2021-03-10T15:05:28Z</time>
      </trkpt>
      <trkpt lat="45.08601" lon="6.09206">
        <ele>1834.5</ele>
        <time>2021-03-10T15:05:29Z</time>
      </trkpt>
      <trkpt lat="45.08601" lon="6.09205">
        <ele>1834.5</ele>
        <time>2021-03-10T15:05:30Z</time>
      </trkpt>
      <trkpt lat="45.08602" lon="6.09205">
        <ele>1834.5</ele>
        <time>2021-03-10T15:05:31Z</time>
      </trkpt>
      <trkpt lat="45.08602" lon="6.09205">
        <ele>1834.5</ele>
        <time>2021-03-10T15:05:32Z</time>
      </trkpt>
      <trkpt lat="45.08602" lon="6.09205">
        <ele>1834.5</ele>
        <time>2021-03-10T15:05:33Z</time>
      </trkpt>
      <trkpt lat="45.08602" lon="6.09205">
        <ele>1834.5</ele>
        <time>2021-03-10T15:05:34Z</time>
      </trkpt>
      <trkpt lat="45.08602" lon="6.09205">
        <ele>1834.5</ele>
        <time>2021-03-10T15:05:35Z</time>
      </trkpt>
      <trkpt lat="45.08602" lon="6.09205">
        <ele>1834.5</ele>
        <time>2021-03-10T15:05:36Z</time>
      </trkpt>
      <trkpt lat="45.08602" lon="6.09205">
        <ele>1834.5</ele>
        <time>2021-03-10T15:05:37Z</time>
      </trkpt>
      <trkpt lat="45.08602" lon="6.09205">
        <ele>1834.5</ele>
        <time>2021-03-10T15:05:38Z</time>
      </trkpt>
      <trkpt lat="45.08602" lon="6.09205">
        <ele>1834.5</ele>
        <time>2021-03-10T15:05:39Z</time>
      </trkpt>
      <trkpt lat="45.08602" lon="6.09205">
        <ele>1834.5</ele>
        <time>2021-03-10T15:05:40Z</time>
      </trkpt>
      <trkpt lat="45.08603" lon="6.09206">
        <ele>1834.5</ele>
        <time>2021-03-10T15:05:41Z</time>
      </trkpt>
      <trkpt lat="45.08603" lon="6.09206">
        <ele>1834.5</ele>
        <time>2021-03-10T15:05:42Z</time>
      </trkpt>
      <trkpt lat="45.08601" lon="6.09202">
        <ele>1834.6</ele>
        <time>2021-03-10T15:06:04Z</time>
      </trkpt>
      <trkpt lat="45.08601" lon="6.09201">
        <ele>1834.6</ele>
        <time>2021-03-10T15:06:05Z</time>
      </trkpt>
      <trkpt lat="45.08602" lon="6.092">
        <ele>1834.6</ele>
        <time>2021-03-10T15:06:06Z</time>
      </trkpt>
      <trkpt lat="45.08602" lon="6.092">
        <ele>1834.6</ele>
        <time>2021-03-10T15:06:07Z</time>
      </trkpt>
      <trkpt lat="45.08602" lon="6.092">
        <ele>1834.6</ele>
        <time>2021-03-10T15:06:08Z</time>
      </trkpt>
      <trkpt lat="45.08602" lon="6.092">
        <ele>1834.6</ele>
        <time>2021-03-10T15:06:09Z</time>
      </trkpt>
      <trkpt lat="45.08602" lon="6.09199">
        <ele>1834.6</ele>
        <time>2021-03-10T15:06:10Z</time>
      </trkpt>
      <trkpt lat="45.08602" lon="6.09199">
        <ele>1834.6</ele>
        <time>2021-03-10T15:06:11Z</time>
      </trkpt>
      <trkpt lat="45.08602" lon="6.09199">
        <ele>1834.6</ele>
        <time>2021-03-10T15:06:12Z</time>
      </trkpt>
      <trkpt lat="45.08603" lon="6.09199">
        <ele>1834.6</ele>
        <time>2021-03-10T15:06:13Z</time>
      </trkpt>
      <trkpt lat="45.08603" lon="6.09199">
        <ele>1834.6</ele>
        <time>2021-03-10T15:06:14Z</time>
      </trkpt>
      <trkpt lat="45.08603" lon="6.09199">
        <ele>1834.6</ele>
        <time>2021-03-10T15:06:15Z</time>
      </trkpt>
      <trkpt lat="45.08604" lon="6.09199">
        <ele>1834.6</ele>
        <time>2021-03-10T15:06:16Z</time>
      </trkpt>
      <trkpt lat="45.08604" lon="6.09199">
        <ele>1834.6</ele>
        <time>2021-03-10T15:06:17Z</time>
      </trkpt>
      <trkpt lat="45.08605" lon="6.09199">
        <ele>1834.6</ele>
        <time>2021-03-10T15:06:18Z</time>
      </trkpt>
      <trkpt lat="45.08605" lon="6.09198">
        <ele>1834.7</ele>
        <time>2021-03-10T15:06:19Z</time>
      </trkpt>
      <trkpt lat="45.08606" lon="6.09197">
        <ele>1834.7</ele>
        <time>2021-03-10T15:06:20Z</time>
      </trkpt>
      <trkpt lat="45.08606" lon="6.09196">
        <ele>1834.7</ele>
        <time>2021-03-10T15:06:21Z</time>
      </trkpt>
      <trkpt lat="45.08607" lon="6.09195">
        <ele>1835</ele>
        <time>2021-03-10T15:06:22Z</time>
      </trkpt>
      <trkpt lat="45.08607" lon="6.09195">
        <ele>1835.1</ele>
        <time>2021-03-10T15:06:23Z</time>
      </trkpt>
      <trkpt lat="45.08608" lon="6.09194">
        <ele>1835.1</ele>
        <time>2021-03-10T15:06:24Z</time>
      </trkpt>
      <trkpt lat="45.08609" lon="6.09193">
        <ele>1835.1</ele>
        <time>2021-03-10T15:06:25Z</time>
      </trkpt>
      <trkpt lat="45.08609" lon="6.09193">
        <ele>1835.2</ele>
        <time>2021-03-10T15:06:26Z</time>
      </trkpt>
      <trkpt lat="45.0861" lon="6.09192">
        <ele>1835.5</ele>
        <time>2021-03-10T15:06:27Z</time>
      </trkpt>
      <trkpt lat="45.08611" lon="6.09191">
        <ele>1835.6</ele>
        <time>2021-03-10T15:06:28Z</time>
      </trkpt>
      <trkpt lat="45.08612" lon="6.0919">
        <ele>1835.6</ele>
        <time>2021-03-10T15:06:29Z</time>
      </trkpt>
      <trkpt lat="45.08613" lon="6.0919">
        <ele>1835.6</ele>
        <time>2021-03-10T15:06:30Z</time>
      </trkpt>
      <trkpt lat="45.08614" lon="6.09189">
        <ele>1836.1</ele>
        <time>2021-03-10T15:06:31Z</time>
      </trkpt>
      <trkpt lat="45.08614" lon="6.09188">
        <ele>1836.1</ele>
        <time>2021-03-10T15:06:32Z</time>
      </trkpt>
      <trkpt lat="45.08616" lon="6.09187">
        <ele>1836.1</ele>
        <time>2021-03-10T15:06:33Z</time>
      </trkpt>
      <trkpt lat="45.08617" lon="6.09186">
        <ele>1836.5</ele>
        <time>2021-03-10T15:06:34Z</time>
      </trkpt>
      <trkpt lat="45.08618" lon="6.09185">
        <ele>1836.6</ele>
        <time>2021-03-10T15:06:35Z</time>
      </trkpt>
      <trkpt lat="45.08619" lon="6.09185">
        <ele>1836.6</ele>
        <time>2021-03-10T15:06:36Z</time>
      </trkpt>
      <trkpt lat="45.0862" lon="6.09184">
        <ele>1837</ele>
        <time>2021-03-10T15:06:37Z</time>
      </trkpt>
      <trkpt lat="45.08621" lon="6.09184">
        <ele>1837</ele>
        <time>2021-03-10T15:06:38Z</time>
      </trkpt>
      <trkpt lat="45.08621" lon="6.09183">
        <ele>1837.1</ele>
        <time>2021-03-10T15:06:39Z</time>
      </trkpt>
      <trkpt lat="45.08622" lon="6.09183">
        <ele>1837.4</ele>
        <time>2021-03-10T15:06:40Z</time>
      </trkpt>
      <trkpt lat="45.08623" lon="6.09183">
        <ele>1837.5</ele>
        <time>2021-03-10T15:06:41Z</time>
      </trkpt>
      <trkpt lat="45.08624" lon="6.09182">
        <ele>1837.5</ele>
        <time>2021-03-10T15:06:42Z</time>
      </trkpt>
      <trkpt lat="45.08626" lon="6.09182">
        <ele>1837.9</ele>
        <time>2021-03-10T15:06:43Z</time>
      </trkpt>
      <trkpt lat="45.08627" lon="6.09182">
        <ele>1837.9</ele>
        <time>2021-03-10T15:06:44Z</time>
      </trkpt>
      <trkpt lat="45.08628" lon="6.09183">
        <ele>1838.3</ele>
        <time>2021-03-10T15:06:45Z</time>
      </trkpt>
      <trkpt lat="45.08628" lon="6.09182">
        <ele>1838.3</ele>
        <time>2021-03-10T15:06:46Z</time>
      </trkpt>
      <trkpt lat="45.08628" lon="6.09181">
        <ele>1838.3</ele>
        <time>2021-03-10T15:06:47Z</time>
      </trkpt>
      <trkpt lat="45.08629" lon="6.09181">
        <ele>1838.4</ele>
        <time>2021-03-10T15:06:48Z</time>
      </trkpt>
      <trkpt lat="45.08629" lon="6.0918">
        <ele>1838.4</ele>
        <time>2021-03-10T15:06:49Z</time>
      </trkpt>
      <trkpt lat="45.08629" lon="6.09179">
        <ele>1838.4</ele>
        <time>2021-03-10T15:06:50Z</time>
      </trkpt>
      <trkpt lat="45.0863" lon="6.09179">
        <ele>1838.4</ele>
        <time>2021-03-10T15:06:51Z</time>
      </trkpt>
      <trkpt lat="45.0863" lon="6.09179">
        <ele>1838.5</ele>
        <time>2021-03-10T15:06:52Z</time>
      </trkpt>
      <trkpt lat="45.0863" lon="6.09179">
        <ele>1838.5</ele>
        <time>2021-03-10T15:06:53Z</time>
      </trkpt>
      <trkpt lat="45.08631" lon="6.09179">
        <ele>1838.5</ele>
        <time>2021-03-10T15:06:54Z</time>
      </trkpt>
      <trkpt lat="45.08632" lon="6.09179">
        <ele>1838.9</ele>
        <time>2021-03-10T15:06:55Z</time>
      </trkpt>
      <trkpt lat="45.08633" lon="6.09178">
        <ele>1838.9</ele>
        <time>2021-03-10T15:06:56Z</time>
      </trkpt>
      <trkpt lat="45.08634" lon="6.09177">
        <ele>1839</ele>
        <time>2021-03-10T15:06:57Z</time>
      </trkpt>
      <trkpt lat="45.08634" lon="6.09176">
        <ele>1839.4</ele>
        <time>2021-03-10T15:06:58Z</time>
      </trkpt>
      <trkpt lat="45.08635" lon="6.09175">
        <ele>1839.5</ele>
        <time>2021-03-10T15:06:59Z</time>
      </trkpt>
      <trkpt lat="45.08636" lon="6.09174">
        <ele>1839.4</ele>
        <time>2021-03-10T15:07:00Z</time>
      </trkpt>
      <trkpt lat="45.08638" lon="6.09173">
        <ele>1839.9</ele>
        <time>2021-03-10T15:07:01Z</time>
      </trkpt>
      <trkpt lat="45.0864" lon="6.09173">
        <ele>1839.9</ele>
        <time>2021-03-10T15:07:02Z</time>
      </trkpt>
      <trkpt lat="45.0864" lon="6.09172">
        <ele>1840.4</ele>
        <time>2021-03-10T15:07:03Z</time>
      </trkpt>
      <trkpt lat="45.08641" lon="6.09172">
        <ele>1840.4</ele>
        <time>2021-03-10T15:07:04Z</time>
      </trkpt>
      <trkpt lat="45.08642" lon="6.09171">
        <ele>1840.4</ele>
        <time>2021-03-10T15:07:05Z</time>
      </trkpt>
      <trkpt lat="45.08643" lon="6.0917">
        <ele>1840.3</ele>
        <time>2021-03-10T15:07:06Z</time>
      </trkpt>
      <trkpt lat="45.08644" lon="6.0917">
        <ele>1840.8</ele>
        <time>2021-03-10T15:07:07Z</time>
      </trkpt>
      <trkpt lat="45.08645" lon="6.09169">
        <ele>1840.8</ele>
        <time>2021-03-10T15:07:08Z</time>
      </trkpt>
      <trkpt lat="45.08645" lon="6.09168">
        <ele>1840.9</ele>
        <time>2021-03-10T15:07:09Z</time>
      </trkpt>
      <trkpt lat="45.08645" lon="6.09168">
        <ele>1840.9</ele>
        <time>2021-03-10T15:07:10Z</time>
      </trkpt>
      <trkpt lat="45.08646" lon="6.09167">
        <ele>1840.9</ele>
        <time>2021-03-10T15:07:11Z</time>
      </trkpt>
      <trkpt lat="45.08647" lon="6.09166">
        <ele>1841.2</ele>
        <time>2021-03-10T15:07:12Z</time>
      </trkpt>
      <trkpt lat="45.08647" lon="6.09165">
        <ele>1841.3</ele>
        <time>2021-03-10T15:07:13Z</time>
      </trkpt>
      <trkpt lat="45.08648" lon="6.09165">
        <ele>1841.3</ele>
        <time>2021-03-10T15:07:14Z</time>
      </trkpt>
      <trkpt lat="45.08649" lon="6.09164">
        <ele>1841.7</ele>
        <time>2021-03-10T15:07:15Z</time>
      </trkpt>
      <trkpt lat="45.0865" lon="6.09163">
        <ele>1841.7</ele>
        <time>2021-03-10T15:07:16Z</time>
      </trkpt>
      <trkpt lat="45.08651" lon="6.09163">
        <ele>1841.8</ele>
        <time>2021-03-10T15:07:17Z</time>
      </trkpt>
      <trkpt lat="45.08652" lon="6.09162">
        <ele>1841.7</ele>
        <time>2021-03-10T15:07:18Z</time>
      </trkpt>
      <trkpt lat="45.08653" lon="6.09161">
        <ele>1842.1</ele>
        <time>2021-03-10T15:07:19Z</time>
      </trkpt>
      <trkpt lat="45.08654" lon="6.09161">
        <ele>1842.2</ele>
        <time>2021-03-10T15:07:20Z</time>
      </trkpt>
      <trkpt lat="45.08654" lon="6.0916">
        <ele>1842.2</ele>
        <time>2021-03-10T15:07:21Z</time>
      </trkpt>
      <trkpt lat="45.08655" lon="6.0916">
        <ele>1842.2</ele>
        <time>2021-03-10T15:07:22Z</time>
      </trkpt>
      <trkpt lat="45.08655" lon="6.09159">
        <ele>1842.2</ele>
        <time>2021-03-10T15:07:23Z</time>
      </trkpt>
      <trkpt lat="45.08655" lon="6.09158">
        <ele>1842.3</ele>
        <time>2021-03-10T15:07:24Z</time>
      </trkpt>
      <trkpt lat="45.08656" lon="6.09157">
        <ele>1842.6</ele>
        <time>2021-03-10T15:07:25Z</time>
      </trkpt>
      <trkpt lat="45.08656" lon="6.09156">
        <ele>1842.7</ele>
        <time>2021-03-10T15:07:26Z</time>
      </trkpt>
      <trkpt lat="45.08657" lon="6.09156">
        <ele>1842.7</ele>
        <time>2021-03-10T15:07:27Z</time>
      </trkpt>
      <trkpt lat="45.08657" lon="6.09156">
        <ele>1842.7</ele>
        <time>2021-03-10T15:07:28Z</time>
      </trkpt>
      <trkpt lat="45.08659" lon="6.09157">
        <ele>1843.2</ele>
        <time>2021-03-10T15:07:29Z</time>
      </trkpt>
      <trkpt lat="45.0866" lon="6.09157">
        <ele>1843.3</ele>
        <time>2021-03-10T15:07:30Z</time>
      </trkpt>
      <trkpt lat="45.08661" lon="6.09157">
        <ele>1843.3</ele>
        <time>2021-03-10T15:07:31Z</time>
      </trkpt>
      <trkpt lat="45.08661" lon="6.09156">
        <ele>1843.3</ele>
        <time>2021-03-10T15:07:32Z</time>
      </trkpt>
      <trkpt lat="45.08661" lon="6.09154">
        <ele>1843.3</ele>
        <time>2021-03-10T15:07:33Z</time>
      </trkpt>
      <trkpt lat="45.08662" lon="6.09152">
        <ele>1843.8</ele>
        <time>2021-03-10T15:07:34Z</time>
      </trkpt>
      <trkpt lat="45.08663" lon="6.09152">
        <ele>1843.8</ele>
        <time>2021-03-10T15:07:35Z</time>
      </trkpt>
      <trkpt lat="45.08664" lon="6.09151">
        <ele>1844.4</ele>
        <time>2021-03-10T15:07:36Z</time>
      </trkpt>
      <trkpt lat="45.08666" lon="6.09151">
        <ele>1844.4</ele>
        <time>2021-03-10T15:07:37Z</time>
      </trkpt>
      <trkpt lat="45.08667" lon="6.09151">
        <ele>1844.4</ele>
        <time>2021-03-10T15:07:38Z</time>
      </trkpt>
      <trkpt lat="45.08668" lon="6.09152">
        <ele>1845</ele>
        <time>2021-03-10T15:07:39Z</time>
      </trkpt>
      <trkpt lat="45.08668" lon="6.09151">
        <ele>1845</ele>
        <time>2021-03-10T15:07:40Z</time>
      </trkpt>
      <trkpt lat="45.08669" lon="6.09151">
        <ele>1845.1</ele>
        <time>2021-03-10T15:07:41Z</time>
      </trkpt>
      <trkpt lat="45.08669" lon="6.0915">
        <ele>1845.1</ele>
        <time>2021-03-10T15:07:42Z</time>
      </trkpt>
      <trkpt lat="45.0867" lon="6.09149">
        <ele>1845.1</ele>
        <time>2021-03-10T15:07:43Z</time>
      </trkpt>
      <trkpt lat="45.0867" lon="6.09148">
        <ele>1845.1</ele>
        <time>2021-03-10T15:07:44Z</time>
      </trkpt>
      <trkpt lat="45.08671" lon="6.09147">
        <ele>1845.7</ele>
        <time>2021-03-10T15:07:45Z</time>
      </trkpt>
      <trkpt lat="45.08671" lon="6.09146">
        <ele>1845.7</ele>
        <time>2021-03-10T15:07:46Z</time>
      </trkpt>
      <trkpt lat="45.08671" lon="6.09145">
        <ele>1845.7</ele>
        <time>2021-03-10T15:07:47Z</time>
      </trkpt>
      <trkpt lat="45.08671" lon="6.09144">
        <ele>1845.7</ele>
        <time>2021-03-10T15:07:48Z</time>
      </trkpt>
      <trkpt lat="45.08671" lon="6.09142">
        <ele>1845.7</ele>
        <time>2021-03-10T15:07:49Z</time>
      </trkpt>
      <trkpt lat="45.08671" lon="6.09141">
        <ele>1845.7</ele>
        <time>2021-03-10T15:07:50Z</time>
      </trkpt>
      <trkpt lat="45.08672" lon="6.09139">
        <ele>1845.7</ele>
        <time>2021-03-10T15:07:51Z</time>
      </trkpt>
      <trkpt lat="45.08672" lon="6.09139">
        <ele>1845.7</ele>
        <time>2021-03-10T15:07:52Z</time>
      </trkpt>
      <trkpt lat="45.08673" lon="6.09139">
        <ele>1845.7</ele>
        <time>2021-03-10T15:07:53Z</time>
      </trkpt>
      <trkpt lat="45.08673" lon="6.09138">
        <ele>1846.4</ele>
        <time>2021-03-10T15:07:54Z</time>
      </trkpt>
      <trkpt lat="45.08674" lon="6.09138">
        <ele>1846.4</ele>
        <time>2021-03-10T15:07:55Z</time>
      </trkpt>
      <trkpt lat="45.08675" lon="6.09138">
        <ele>1846.4</ele>
        <time>2021-03-10T15:07:56Z</time>
      </trkpt>
      <trkpt lat="45.08676" lon="6.09137">
        <ele>1846.5</ele>
        <time>2021-03-10T15:07:57Z</time>
      </trkpt>
      <trkpt lat="45.08677" lon="6.09137">
        <ele>1847.1</ele>
        <time>2021-03-10T15:07:58Z</time>
      </trkpt>
      <trkpt lat="45.08677" lon="6.09136">
        <ele>1847.1</ele>
        <time>2021-03-10T15:07:59Z</time>
      </trkpt>
      <trkpt lat="45.08678" lon="6.09135">
        <ele>1847.1</ele>
        <time>2021-03-10T15:08:00Z</time>
      </trkpt>
      <trkpt lat="45.08678" lon="6.09135">
        <ele>1847.1</ele>
        <time>2021-03-10T15:08:01Z</time>
      </trkpt>
      <trkpt lat="45.08679" lon="6.09136">
        <ele>1847.1</ele>
        <time>2021-03-10T15:08:02Z</time>
      </trkpt>
      <trkpt lat="45.08679" lon="6.09136">
        <ele>1847.8</ele>
        <time>2021-03-10T15:08:03Z</time>
      </trkpt>
      <trkpt lat="45.0868" lon="6.09135">
        <ele>1847.8</ele>
        <time>2021-03-10T15:08:04Z</time>
      </trkpt>
      <trkpt lat="45.08682" lon="6.09135">
        <ele>1847.8</ele>
        <time>2021-03-10T15:08:05Z</time>
      </trkpt>
      <trkpt lat="45.08683" lon="6.09134">
        <ele>1848.5</ele>
        <time>2021-03-10T15:08:06Z</time>
      </trkpt>
      <trkpt lat="45.08684" lon="6.09134">
        <ele>1848.5</ele>
        <time>2021-03-10T15:08:07Z</time>
      </trkpt>
      <trkpt lat="45.08684" lon="6.09133">
        <ele>1848.5</ele>
        <time>2021-03-10T15:08:08Z</time>
      </trkpt>
      <trkpt lat="45.08685" lon="6.09132">
        <ele>1848.6</ele>
        <time>2021-03-10T15:08:09Z</time>
      </trkpt>
      <trkpt lat="45.08685" lon="6.09131">
        <ele>1848.5</ele>
        <time>2021-03-10T15:08:10Z</time>
      </trkpt>
      <trkpt lat="45.08686" lon="6.0913">
        <ele>1849.2</ele>
        <time>2021-03-10T15:08:11Z</time>
      </trkpt>
      <trkpt lat="45.08686" lon="6.09129">
        <ele>1849.2</ele>
        <time>2021-03-10T15:08:12Z</time>
      </trkpt>
      <trkpt lat="45.08686" lon="6.09128">
        <ele>1849.2</ele>
        <time>2021-03-10T15:08:13Z</time>
      </trkpt>
      <trkpt lat="45.08687" lon="6.09127">
        <ele>1849.2</ele>
        <time>2021-03-10T15:08:14Z</time>
      </trkpt>
      <trkpt lat="45.08688" lon="6.09126">
        <ele>1849.3</ele>
        <time>2021-03-10T15:08:15Z</time>
      </trkpt>
      <trkpt lat="45.08688" lon="6.09125">
        <ele>1849.3</ele>
        <time>2021-03-10T15:08:16Z</time>
      </trkpt>
      <trkpt lat="45.08689" lon="6.09124">
        <ele>1849.9</ele>
        <time>2021-03-10T15:08:17Z</time>
      </trkpt>
      <trkpt lat="45.08689" lon="6.09124">
        <ele>1850</ele>
        <time>2021-03-10T15:08:18Z</time>
      </trkpt>
      <trkpt lat="45.0869" lon="6.09123">
        <ele>1850</ele>
        <time>2021-03-10T15:08:19Z</time>
      </trkpt>
      <trkpt lat="45.0869" lon="6.09122">
        <ele>1850</ele>
        <time>2021-03-10T15:08:20Z</time>
      </trkpt>
      <trkpt lat="45.0869" lon="6.09121">
        <ele>1850</ele>
        <time>2021-03-10T15:08:21Z</time>
      </trkpt>
      <trkpt lat="45.0869" lon="6.09121">
        <ele>1850</ele>
        <time>2021-03-10T15:08:22Z</time>
      </trkpt>
      <trkpt lat="45.08691" lon="6.0912">
        <ele>1850.1</ele>
        <time>2021-03-10T15:08:23Z</time>
      </trkpt>
      <trkpt lat="45.08692" lon="6.0912">
        <ele>1850.7</ele>
        <time>2021-03-10T15:08:24Z</time>
      </trkpt>
      <trkpt lat="45.08693" lon="6.09119">
        <ele>1850.8</ele>
        <time>2021-03-10T15:08:25Z</time>
      </trkpt>
      <trkpt lat="45.08694" lon="6.09119">
        <ele>1850.8</ele>
        <time>2021-03-10T15:08:26Z</time>
      </trkpt>
      <trkpt lat="45.08694" lon="6.09118">
        <ele>1850.8</ele>
        <time>2021-03-10T15:08:27Z</time>
      </trkpt>
      <trkpt lat="45.08695" lon="6.09117">
        <ele>1851.5</ele>
        <time>2021-03-10T15:08:28Z</time>
      </trkpt>
      <trkpt lat="45.08695" lon="6.09116">
        <ele>1851.5</ele>
        <time>2021-03-10T15:08:29Z</time>
      </trkpt>
      <trkpt lat="45.08695" lon="6.09116">
        <ele>1851.5</ele>
        <time>2021-03-10T15:08:30Z</time>
      </trkpt>
      <trkpt lat="45.08695" lon="6.09115">
        <ele>1851.6</ele>
        <time>2021-03-10T15:08:31Z</time>
      </trkpt>
      <trkpt lat="45.08695" lon="6.09115">
        <ele>1851.6</ele>
        <time>2021-03-10T15:08:32Z</time>
      </trkpt>
      <trkpt lat="45.08695" lon="6.09114">
        <ele>1851.6</ele>
        <time>2021-03-10T15:08:33Z</time>
      </trkpt>
      <trkpt lat="45.08696" lon="6.09114">
        <ele>1851.6</ele>
        <time>2021-03-10T15:08:34Z</time>
      </trkpt>
      <trkpt lat="45.08696" lon="6.09113">
        <ele>1851.6</ele>
        <time>2021-03-10T15:08:35Z</time>
      </trkpt>
      <trkpt lat="45.08697" lon="6.09113">
        <ele>1851.7</ele>
        <time>2021-03-10T15:08:36Z</time>
      </trkpt>
      <trkpt lat="45.08698" lon="6.09112">
        <ele>1852.3</ele>
        <time>2021-03-10T15:08:37Z</time>
      </trkpt>
      <trkpt lat="45.08699" lon="6.09111">
        <ele>1852.4</ele>
        <time>2021-03-10T15:08:38Z</time>
      </trkpt>
      <trkpt lat="45.08699" lon="6.0911">
        <ele>1852.4</ele>
        <time>2021-03-10T15:08:39Z</time>
      </trkpt>
      <trkpt lat="45.087" lon="6.0911">
        <ele>1852.4</ele>
        <time>2021-03-10T15:08:40Z</time>
      </trkpt>
      <trkpt lat="45.08701" lon="6.09109">
        <ele>1853</ele>
        <time>2021-03-10T15:08:41Z</time>
      </trkpt>
      <trkpt lat="45.08702" lon="6.09108">
        <ele>1853</ele>
        <time>2021-03-10T15:08:42Z</time>
      </trkpt>
      <trkpt lat="45.08704" lon="6.09108">
        <ele>1853.6</ele>
        <time>2021-03-10T15:08:43Z</time>
      </trkpt>
      <trkpt lat="45.08705" lon="6.09108">
        <ele>1853.6</ele>
        <time>2021-03-10T15:08:44Z</time>
      </trkpt>
      <trkpt lat="45.08706" lon="6.09107">
        <ele>1853.7</ele>
        <time>2021-03-10T15:08:45Z</time>
      </trkpt>
      <trkpt lat="45.08707" lon="6.09107">
        <ele>1854.2</ele>
        <time>2021-03-10T15:08:46Z</time>
      </trkpt>
      <trkpt lat="45.08708" lon="6.09106">
        <ele>1854.2</ele>
        <time>2021-03-10T15:08:47Z</time>
      </trkpt>
      <trkpt lat="45.08708" lon="6.09106">
        <ele>1854.2</ele>
        <time>2021-03-10T15:08:48Z</time>
      </trkpt>
      <trkpt lat="45.08708" lon="6.09105">
        <ele>1854.3</ele>
        <time>2021-03-10T15:08:49Z</time>
      </trkpt>
      <trkpt lat="45.08708" lon="6.09104">
        <ele>1854.3</ele>
        <time>2021-03-10T15:08:50Z</time>
      </trkpt>
      <trkpt lat="45.08708" lon="6.09103">
        <ele>1854.3</ele>
        <time>2021-03-10T15:08:51Z</time>
      </trkpt>
      <trkpt lat="45.08708" lon="6.09102">
        <ele>1854.3</ele>
        <time>2021-03-10T15:08:52Z</time>
      </trkpt>
      <trkpt lat="45.08709" lon="6.09101">
        <ele>1854.3</ele>
        <time>2021-03-10T15:08:53Z</time>
      </trkpt>
      <trkpt lat="45.0871" lon="6.09101">
        <ele>1854.9</ele>
        <time>2021-03-10T15:08:54Z</time>
      </trkpt>
      <trkpt lat="45.08711" lon="6.091">
        <ele>1854.9</ele>
        <time>2021-03-10T15:08:55Z</time>
      </trkpt>
      <trkpt lat="45.08711" lon="6.091">
        <ele>1854.9</ele>
        <time>2021-03-10T15:08:56Z</time>
      </trkpt>
      <trkpt lat="45.08712" lon="6.09099">
        <ele>1855</ele>
        <time>2021-03-10T15:08:57Z</time>
      </trkpt>
      <trkpt lat="45.08713" lon="6.09099">
        <ele>1855.5</ele>
        <time>2021-03-10T15:08:58Z</time>
      </trkpt>
      <trkpt lat="45.08714" lon="6.09098">
        <ele>1855.5</ele>
        <time>2021-03-10T15:08:59Z</time>
      </trkpt>
      <trkpt lat="45.08714" lon="6.09097">
        <ele>1855.6</ele>
        <time>2021-03-10T15:09:00Z</time>
      </trkpt>
      <trkpt lat="45.08715" lon="6.09097">
        <ele>1855.6</ele>
        <time>2021-03-10T15:09:01Z</time>
      </trkpt>
      <trkpt lat="45.08716" lon="6.09097">
        <ele>1855.6</ele>
        <time>2021-03-10T15:09:02Z</time>
      </trkpt>
      <trkpt lat="45.08717" lon="6.09096">
        <ele>1855.7</ele>
        <time>2021-03-10T15:09:03Z</time>
      </trkpt>
      <trkpt lat="45.08717" lon="6.09096">
        <ele>1855.7</ele>
        <time>2021-03-10T15:09:04Z</time>
      </trkpt>
      <trkpt lat="45.08718" lon="6.09095">
        <ele>1855.8</ele>
        <time>2021-03-10T15:09:05Z</time>
      </trkpt>
      <trkpt lat="45.08718" lon="6.09094">
        <ele>1855.8</ele>
        <time>2021-03-10T15:09:06Z</time>
      </trkpt>
      <trkpt lat="45.08719" lon="6.09093">
        <ele>1855.9</ele>
        <time>2021-03-10T15:09:07Z</time>
      </trkpt>
      <trkpt lat="45.08719" lon="6.09093">
        <ele>1855.9</ele>
        <time>2021-03-10T15:09:08Z</time>
      </trkpt>
      <trkpt lat="45.0872" lon="6.09092">
        <ele>1856</ele>
        <time>2021-03-10T15:09:09Z</time>
      </trkpt>
      <trkpt lat="45.08721" lon="6.09091">
        <ele>1856</ele>
        <time>2021-03-10T15:09:10Z</time>
      </trkpt>
      <trkpt lat="45.08722" lon="6.09091">
        <ele>1856.1</ele>
        <time>2021-03-10T15:09:11Z</time>
      </trkpt>
      <trkpt lat="45.08723" lon="6.0909">
        <ele>1856.1</ele>
        <time>2021-03-10T15:09:12Z</time>
      </trkpt>
      <trkpt lat="45.08723" lon="6.09089">
        <ele>1856.2</ele>
        <time>2021-03-10T15:09:13Z</time>
      </trkpt>
      <trkpt lat="45.08724" lon="6.09088">
        <ele>1856.3</ele>
        <time>2021-03-10T15:09:14Z</time>
      </trkpt>
      <trkpt lat="45.08724" lon="6.09086">
        <ele>1856.3</ele>
        <time>2021-03-10T15:09:15Z</time>
      </trkpt>
      <trkpt lat="45.08724" lon="6.09084">
        <ele>1856.4</ele>
        <time>2021-03-10T15:09:16Z</time>
      </trkpt>
      <trkpt lat="45.08724" lon="6.09083">
        <ele>1856.4</ele>
        <time>2021-03-10T15:09:17Z</time>
      </trkpt>
      <trkpt lat="45.08724" lon="6.09082">
        <ele>1856.5</ele>
        <time>2021-03-10T15:09:18Z</time>
      </trkpt>
      <trkpt lat="45.08724" lon="6.09081">
        <ele>1856.6</ele>
        <time>2021-03-10T15:09:19Z</time>
      </trkpt>
      <trkpt lat="45.08725" lon="6.09079">
        <ele>1856.6</ele>
        <time>2021-03-10T15:09:20Z</time>
      </trkpt>
      <trkpt lat="45.08725" lon="6.09079">
        <ele>1856.6</ele>
        <time>2021-03-10T15:09:21Z</time>
      </trkpt>
      <trkpt lat="45.08726" lon="6.09078">
        <ele>1856.7</ele>
        <time>2021-03-10T15:09:22Z</time>
      </trkpt>
      <trkpt lat="45.08727" lon="6.09078">
        <ele>1856.8</ele>
        <time>2021-03-10T15:09:23Z</time>
      </trkpt>
      <trkpt lat="45.08728" lon="6.09077">
        <ele>1856.8</ele>
        <time>2021-03-10T15:09:24Z</time>
      </trkpt>
      <trkpt lat="45.08728" lon="6.09077">
        <ele>1856.8</ele>
        <time>2021-03-10T15:09:25Z</time>
      </trkpt>
      <trkpt lat="45.08729" lon="6.09076">
        <ele>1856.9</ele>
        <time>2021-03-10T15:09:26Z</time>
      </trkpt>
      <trkpt lat="45.0873" lon="6.09076">
        <ele>1856.9</ele>
        <time>2021-03-10T15:09:27Z</time>
      </trkpt>
      <trkpt lat="45.08731" lon="6.09075">
        <ele>1857</ele>
        <time>2021-03-10T15:09:28Z</time>
      </trkpt>
      <trkpt lat="45.08732" lon="6.09075">
        <ele>1857.1</ele>
        <time>2021-03-10T15:09:29Z</time>
      </trkpt>
      <trkpt lat="45.08733" lon="6.09074">
        <ele>1857.1</ele>
        <time>2021-03-10T15:09:30Z</time>
      </trkpt>
      <trkpt lat="45.08734" lon="6.09074">
        <ele>1857.2</ele>
        <time>2021-03-10T15:09:31Z</time>
      </trkpt>
      <trkpt lat="45.08734" lon="6.09073">
        <ele>1857.2</ele>
        <time>2021-03-10T15:09:32Z</time>
      </trkpt>
      <trkpt lat="45.08735" lon="6.09073">
        <ele>1857.3</ele>
        <time>2021-03-10T15:09:33Z</time>
      </trkpt>
      <trkpt lat="45.08736" lon="6.09072">
        <ele>1857.3</ele>
        <time>2021-03-10T15:09:34Z</time>
      </trkpt>
      <trkpt lat="45.08736" lon="6.09071">
        <ele>1857.4</ele>
        <time>2021-03-10T15:09:35Z</time>
      </trkpt>
      <trkpt lat="45.08737" lon="6.0907">
        <ele>1857.4</ele>
        <time>2021-03-10T15:09:36Z</time>
      </trkpt>
      <trkpt lat="45.08737" lon="6.09069">
        <ele>1857.5</ele>
        <time>2021-03-10T15:09:37Z</time>
      </trkpt>
      <trkpt lat="45.08738" lon="6.09069">
        <ele>1857.5</ele>
        <time>2021-03-10T15:09:38Z</time>
      </trkpt>
      <trkpt lat="45.08739" lon="6.09068">
        <ele>1857.6</ele>
        <time>2021-03-10T15:09:39Z</time>
      </trkpt>
      <trkpt lat="45.0874" lon="6.09068">
        <ele>1857.6</ele>
        <time>2021-03-10T15:09:40Z</time>
      </trkpt>
      <trkpt lat="45.08741" lon="6.09067">
        <ele>1857.7</ele>
        <time>2021-03-10T15:09:41Z</time>
      </trkpt>
      <trkpt lat="45.08742" lon="6.09067">
        <ele>1857.7</ele>
        <time>2021-03-10T15:09:42Z</time>
      </trkpt>
      <trkpt lat="45.08742" lon="6.09066">
        <ele>1857.8</ele>
        <time>2021-03-10T15:09:43Z</time>
      </trkpt>
      <trkpt lat="45.08743" lon="6.09065">
        <ele>1857.9</ele>
        <time>2021-03-10T15:09:44Z</time>
      </trkpt>
      <trkpt lat="45.08743" lon="6.09065">
        <ele>1857.9</ele>
        <time>2021-03-10T15:09:45Z</time>
      </trkpt>
      <trkpt lat="45.08744" lon="6.09064">
        <ele>1857.9</ele>
        <time>2021-03-10T15:09:46Z</time>
      </trkpt>
      <trkpt lat="45.08744" lon="6.09064">
        <ele>1857.9</ele>
        <time>2021-03-10T15:09:47Z</time>
      </trkpt>
      <trkpt lat="45.08744" lon="6.09063">
        <ele>1858</ele>
        <time>2021-03-10T15:09:48Z</time>
      </trkpt>
      <trkpt lat="45.08745" lon="6.09063">
        <ele>1858</ele>
        <time>2021-03-10T15:09:49Z</time>
      </trkpt>
      <trkpt lat="45.08745" lon="6.09062">
        <ele>1858</ele>
        <time>2021-03-10T15:09:50Z</time>
      </trkpt>
      <trkpt lat="45.08746" lon="6.09062">
        <ele>1858.1</ele>
        <time>2021-03-10T15:09:51Z</time>
      </trkpt>
      <trkpt lat="45.08746" lon="6.09061">
        <ele>1858.1</ele>
        <time>2021-03-10T15:09:52Z</time>
      </trkpt>
      <trkpt lat="45.08746" lon="6.0906">
        <ele>1858.2</ele>
        <time>2021-03-10T15:09:53Z</time>
      </trkpt>
      <trkpt lat="45.08747" lon="6.09059">
        <ele>1858.2</ele>
        <time>2021-03-10T15:09:54Z</time>
      </trkpt>
      <trkpt lat="45.08747" lon="6.09058">
        <ele>1858.2</ele>
        <time>2021-03-10T15:09:55Z</time>
      </trkpt>
      <trkpt lat="45.08748" lon="6.09057">
        <ele>1858.3</ele>
        <time>2021-03-10T15:09:56Z</time>
      </trkpt>
      <trkpt lat="45.08748" lon="6.09057">
        <ele>1858.3</ele>
        <time>2021-03-10T15:09:57Z</time>
      </trkpt>
      <trkpt lat="45.08749" lon="6.09056">
        <ele>1858.4</ele>
        <time>2021-03-10T15:09:58Z</time>
      </trkpt>
      <trkpt lat="45.08749" lon="6.09055">
        <ele>1858.4</ele>
        <time>2021-03-10T15:09:59Z</time>
      </trkpt>
      <trkpt lat="45.0875" lon="6.09054">
        <ele>1858.5</ele>
        <time>2021-03-10T15:10:00Z</time>
      </trkpt>
      <trkpt lat="45.0875" lon="6.09053">
        <ele>1858.5</ele>
        <time>2021-03-10T15:10:01Z</time>
      </trkpt>
      <trkpt lat="45.08751" lon="6.09053">
        <ele>1858.6</ele>
        <time>2021-03-10T15:10:02Z</time>
      </trkpt>
      <trkpt lat="45.08751" lon="6.09052">
        <ele>1858.6</ele>
        <time>2021-03-10T15:10:03Z</time>
      </trkpt>
      <trkpt lat="45.08752" lon="6.09052">
        <ele>1858.7</ele>
        <time>2021-03-10T15:10:04Z</time>
      </trkpt>
      <trkpt lat="45.08752" lon="6.09051">
        <ele>1858.7</ele>
        <time>2021-03-10T15:10:05Z</time>
      </trkpt>
      <trkpt lat="45.08753" lon="6.0905">
        <ele>1858.8</ele>
        <time>2021-03-10T15:10:06Z</time>
      </trkpt>
      <trkpt lat="45.08753" lon="6.09048">
        <ele>1858.8</ele>
        <time>2021-03-10T15:10:07Z</time>
      </trkpt>
      <trkpt lat="45.08753" lon="6.09047">
        <ele>1858.9</ele>
        <time>2021-03-10T15:10:08Z</time>
      </trkpt>
      <trkpt lat="45.08754" lon="6.09046">
        <ele>1859</ele>
        <time>2021-03-10T15:10:09Z</time>
      </trkpt>
      <trkpt lat="45.08754" lon="6.09044">
        <ele>1859</ele>
        <time>2021-03-10T15:10:10Z</time>
      </trkpt>
      <trkpt lat="45.08754" lon="6.09043">
        <ele>1859.1</ele>
        <time>2021-03-10T15:10:11Z</time>
      </trkpt>
      <trkpt lat="45.08755" lon="6.09042">
        <ele>1859.2</ele>
        <time>2021-03-10T15:10:12Z</time>
      </trkpt>
      <trkpt lat="45.08755" lon="6.0904">
        <ele>1859.2</ele>
        <time>2021-03-10T15:10:13Z</time>
      </trkpt>
      <trkpt lat="45.08756" lon="6.0904">
        <ele>1859.3</ele>
        <time>2021-03-10T15:10:14Z</time>
      </trkpt>
      <trkpt lat="45.08756" lon="6.09039">
        <ele>1859.3</ele>
        <time>2021-03-10T15:10:15Z</time>
      </trkpt>
      <trkpt lat="45.08757" lon="6.09038">
        <ele>1859.4</ele>
        <time>2021-03-10T15:10:16Z</time>
      </trkpt>
      <trkpt lat="45.08758" lon="6.09037">
        <ele>1859.5</ele>
        <time>2021-03-10T15:10:17Z</time>
      </trkpt>
      <trkpt lat="45.08759" lon="6.09035">
        <ele>1859.5</ele>
        <time>2021-03-10T15:10:18Z</time>
      </trkpt>
      <trkpt lat="45.08759" lon="6.09034">
        <ele>1859.6</ele>
        <time>2021-03-10T15:10:19Z</time>
      </trkpt>
      <trkpt lat="45.0876" lon="6.09034">
        <ele>1859.7</ele>
        <time>2021-03-10T15:10:20Z</time>
      </trkpt>
      <trkpt lat="45.0876" lon="6.09033">
        <ele>1859.7</ele>
        <time>2021-03-10T15:10:21Z</time>
      </trkpt>
      <trkpt lat="45.08761" lon="6.09032">
        <ele>1859.8</ele>
        <time>2021-03-10T15:10:22Z</time>
      </trkpt>
      <trkpt lat="45.08762" lon="6.09032">
        <ele>1859.9</ele>
        <time>2021-03-10T15:10:23Z</time>
      </trkpt>
      <trkpt lat="45.08763" lon="6.09031">
        <ele>1859.9</ele>
        <time>2021-03-10T15:10:24Z</time>
      </trkpt>
      <trkpt lat="45.08764" lon="6.09031">
        <ele>1860</ele>
        <time>2021-03-10T15:10:25Z</time>
      </trkpt>
      <trkpt lat="45.08764" lon="6.09031">
        <ele>1860</ele>
        <time>2021-03-10T15:10:26Z</time>
      </trkpt>
      <trkpt lat="45.08765" lon="6.0903">
        <ele>1860.1</ele>
        <time>2021-03-10T15:10:27Z</time>
      </trkpt>
      <trkpt lat="45.08765" lon="6.09029">
        <ele>1860.1</ele>
        <time>2021-03-10T15:10:28Z</time>
      </trkpt>
      <trkpt lat="45.08766" lon="6.09028">
        <ele>1860.2</ele>
        <time>2021-03-10T15:10:29Z</time>
      </trkpt>
      <trkpt lat="45.08766" lon="6.09026">
        <ele>1860.3</ele>
        <time>2021-03-10T15:10:30Z</time>
      </trkpt>
      <trkpt lat="45.08766" lon="6.09025">
        <ele>1860.4</ele>
        <time>2021-03-10T15:10:31Z</time>
      </trkpt>
      <trkpt lat="45.08767" lon="6.09024">
        <ele>1860.4</ele>
        <time>2021-03-10T15:10:32Z</time>
      </trkpt>
      <trkpt lat="45.08767" lon="6.09023">
        <ele>1860.5</ele>
        <time>2021-03-10T15:10:33Z</time>
      </trkpt>
      <trkpt lat="45.08768" lon="6.09022">
        <ele>1860.5</ele>
        <time>2021-03-10T15:10:34Z</time>
      </trkpt>
      <trkpt lat="45.08768" lon="6.0902">
        <ele>1860.6</ele>
        <time>2021-03-10T15:10:35Z</time>
      </trkpt>
      <trkpt lat="45.08768" lon="6.09019">
        <ele>1860.7</ele>
        <time>2021-03-10T15:10:36Z</time>
      </trkpt>
      <trkpt lat="45.08769" lon="6.09018">
        <ele>1860.7</ele>
        <time>2021-03-10T15:10:37Z</time>
      </trkpt>
      <trkpt lat="45.08769" lon="6.09017">
        <ele>1860.8</ele>
        <time>2021-03-10T15:10:38Z</time>
      </trkpt>
      <trkpt lat="45.08769" lon="6.09016">
        <ele>1860.9</ele>
        <time>2021-03-10T15:10:39Z</time>
      </trkpt>
      <trkpt lat="45.08769" lon="6.09014">
        <ele>1860.9</ele>
        <time>2021-03-10T15:10:40Z</time>
      </trkpt>
      <trkpt lat="45.0877" lon="6.09012">
        <ele>1861</ele>
        <time>2021-03-10T15:10:41Z</time>
      </trkpt>
      <trkpt lat="45.0877" lon="6.09011">
        <ele>1861.1</ele>
        <time>2021-03-10T15:10:42Z</time>
      </trkpt>
      <trkpt lat="45.08771" lon="6.0901">
        <ele>1861.1</ele>
        <time>2021-03-10T15:10:43Z</time>
      </trkpt>
      <trkpt lat="45.08771" lon="6.0901">
        <ele>1861.2</ele>
        <time>2021-03-10T15:10:44Z</time>
      </trkpt>
      <trkpt lat="45.08772" lon="6.09009">
        <ele>1861.2</ele>
        <time>2021-03-10T15:10:45Z</time>
      </trkpt>
      <trkpt lat="45.08772" lon="6.09008">
        <ele>1861.3</ele>
        <time>2021-03-10T15:10:46Z</time>
      </trkpt>
      <trkpt lat="45.08773" lon="6.09006">
        <ele>1861.4</ele>
        <time>2021-03-10T15:10:47Z</time>
      </trkpt>
      <trkpt lat="45.08773" lon="6.09005">
        <ele>1861.4</ele>
        <time>2021-03-10T15:10:48Z</time>
      </trkpt>
      <trkpt lat="45.08774" lon="6.09004">
        <ele>1861.5</ele>
        <time>2021-03-10T15:10:49Z</time>
      </trkpt>
      <trkpt lat="45.08775" lon="6.09004">
        <ele>1861.6</ele>
        <time>2021-03-10T15:10:50Z</time>
      </trkpt>
      <trkpt lat="45.08775" lon="6.09003">
        <ele>1861.6</ele>
        <time>2021-03-10T15:10:51Z</time>
      </trkpt>
      <trkpt lat="45.08775" lon="6.09001">
        <ele>1861.7</ele>
        <time>2021-03-10T15:10:52Z</time>
      </trkpt>
      <trkpt lat="45.08776" lon="6.09">
        <ele>1861.7</ele>
        <time>2021-03-10T15:10:53Z</time>
      </trkpt>
      <trkpt lat="45.08776" lon="6.08999">
        <ele>1861.8</ele>
        <time>2021-03-10T15:10:54Z</time>
      </trkpt>
      <trkpt lat="45.08777" lon="6.08997">
        <ele>1861.9</ele>
        <time>2021-03-10T15:10:55Z</time>
      </trkpt>
      <trkpt lat="45.08777" lon="6.08996">
        <ele>1862</ele>
        <time>2021-03-10T15:10:56Z</time>
      </trkpt>
      <trkpt lat="45.08777" lon="6.08995">
        <ele>1862</ele>
        <time>2021-03-10T15:10:57Z</time>
      </trkpt>
      <trkpt lat="45.08777" lon="6.08994">
        <ele>1862.1</ele>
        <time>2021-03-10T15:10:58Z</time>
      </trkpt>
      <trkpt lat="45.08778" lon="6.08993">
        <ele>1862.1</ele>
        <time>2021-03-10T15:10:59Z</time>
      </trkpt>
      <trkpt lat="45.08779" lon="6.08992">
        <ele>1862.2</ele>
        <time>2021-03-10T15:11:00Z</time>
      </trkpt>
      <trkpt lat="45.0878" lon="6.08991">
        <ele>1862.3</ele>
        <time>2021-03-10T15:11:01Z</time>
      </trkpt>
      <trkpt lat="45.0878" lon="6.08991">
        <ele>1862.3</ele>
        <time>2021-03-10T15:11:02Z</time>
      </trkpt>
      <trkpt lat="45.08781" lon="6.0899">
        <ele>1862.4</ele>
        <time>2021-03-10T15:11:03Z</time>
      </trkpt>
      <trkpt lat="45.08782" lon="6.08989">
        <ele>1862.5</ele>
        <time>2021-03-10T15:11:04Z</time>
      </trkpt>
      <trkpt lat="45.08783" lon="6.08988">
        <ele>1862.6</ele>
        <time>2021-03-10T15:11:05Z</time>
      </trkpt>
      <trkpt lat="45.08784" lon="6.08987">
        <ele>1862.6</ele>
        <time>2021-03-10T15:11:06Z</time>
      </trkpt>
      <trkpt lat="45.08785" lon="6.08985">
        <ele>1862.8</ele>
        <time>2021-03-10T15:11:07Z</time>
      </trkpt>
      <trkpt lat="45.08786" lon="6.08984">
        <ele>1862.8</ele>
        <time>2021-03-10T15:11:08Z</time>
      </trkpt>
      <trkpt lat="45.08787" lon="6.08983">
        <ele>1862.9</ele>
        <time>2021-03-10T15:11:09Z</time>
      </trkpt>
      <trkpt lat="45.08787" lon="6.08982">
        <ele>1863</ele>
        <time>2021-03-10T15:11:10Z</time>
      </trkpt>
      <trkpt lat="45.08788" lon="6.08981">
        <ele>1863</ele>
        <time>2021-03-10T15:11:11Z</time>
      </trkpt>
      <trkpt lat="45.08789" lon="6.0898">
        <ele>1863.1</ele>
        <time>2021-03-10T15:11:12Z</time>
      </trkpt>
      <trkpt lat="45.0879" lon="6.08977">
        <ele>1863.3</ele>
        <time>2021-03-10T15:11:13Z</time>
      </trkpt>
      <trkpt lat="45.0879" lon="6.08976">
        <ele>1863.3</ele>
        <time>2021-03-10T15:11:14Z</time>
      </trkpt>
      <trkpt lat="45.08791" lon="6.08975">
        <ele>1863.4</ele>
        <time>2021-03-10T15:11:15Z</time>
      </trkpt>
      <trkpt lat="45.08791" lon="6.08974">
        <ele>1863.4</ele>
        <time>2021-03-10T15:11:16Z</time>
      </trkpt>
      <trkpt lat="45.08792" lon="6.08973">
        <ele>1863.5</ele>
        <time>2021-03-10T15:11:17Z</time>
      </trkpt>
      <trkpt lat="45.08793" lon="6.08972">
        <ele>1863.6</ele>
        <time>2021-03-10T15:11:18Z</time>
      </trkpt>
      <trkpt lat="45.08793" lon="6.0897">
        <ele>1863.7</ele>
        <time>2021-03-10T15:11:19Z</time>
      </trkpt>
      <trkpt lat="45.08794" lon="6.08969">
        <ele>1863.7</ele>
        <time>2021-03-10T15:11:20Z</time>
      </trkpt>
      <trkpt lat="45.08795" lon="6.08968">
        <ele>1863.8</ele>
        <time>2021-03-10T15:11:21Z</time>
      </trkpt>
      <trkpt lat="45.08797" lon="6.08966">
        <ele>1863.9</ele>
        <time>2021-03-10T15:11:22Z</time>
      </trkpt>
      <trkpt lat="45.08797" lon="6.08965">
        <ele>1864</ele>
        <time>2021-03-10T15:11:23Z</time>
      </trkpt>
      <trkpt lat="45.08798" lon="6.08965">
        <ele>1864</ele>
        <time>2021-03-10T15:11:24Z</time>
      </trkpt>
      <trkpt lat="45.08798" lon="6.08963">
        <ele>1864.1</ele>
        <time>2021-03-10T15:11:25Z</time>
      </trkpt>
      <trkpt lat="45.08798" lon="6.08962">
        <ele>1864.1</ele>
        <time>2021-03-10T15:11:26Z</time>
      </trkpt>
      <trkpt lat="45.08799" lon="6.08961">
        <ele>1864.2</ele>
        <time>2021-03-10T15:11:27Z</time>
      </trkpt>
      <trkpt lat="45.08799" lon="6.0896">
        <ele>1864.3</ele>
        <time>2021-03-10T15:11:28Z</time>
      </trkpt>
      <trkpt lat="45.088" lon="6.08959">
        <ele>1864.3</ele>
        <time>2021-03-10T15:11:29Z</time>
      </trkpt>
      <trkpt lat="45.08801" lon="6.08958">
        <ele>1864.4</ele>
        <time>2021-03-10T15:11:30Z</time>
      </trkpt>
      <trkpt lat="45.08801" lon="6.08957">
        <ele>1864.4</ele>
        <time>2021-03-10T15:11:31Z</time>
      </trkpt>
      <trkpt lat="45.08802" lon="6.08956">
        <ele>1864.5</ele>
        <time>2021-03-10T15:11:32Z</time>
      </trkpt>
      <trkpt lat="45.08803" lon="6.08955">
        <ele>1864.6</ele>
        <time>2021-03-10T15:11:33Z</time>
      </trkpt>
      <trkpt lat="45.08804" lon="6.08954">
        <ele>1864.7</ele>
        <time>2021-03-10T15:11:34Z</time>
      </trkpt>
      <trkpt lat="45.08805" lon="6.08954">
        <ele>1864.7</ele>
        <time>2021-03-10T15:11:35Z</time>
      </trkpt>
      <trkpt lat="45.08806" lon="6.08953">
        <ele>1864.7</ele>
        <time>2021-03-10T15:11:36Z</time>
      </trkpt>
      <trkpt lat="45.08806" lon="6.08953">
        <ele>1864.8</ele>
        <time>2021-03-10T15:11:37Z</time>
      </trkpt>
      <trkpt lat="45.08807" lon="6.08951">
        <ele>1864.9</ele>
        <time>2021-03-10T15:11:38Z</time>
      </trkpt>
      <trkpt lat="45.08808" lon="6.08951">
        <ele>1864.9</ele>
        <time>2021-03-10T15:11:39Z</time>
      </trkpt>
      <trkpt lat="45.08809" lon="6.0895">
        <ele>1865</ele>
        <time>2021-03-10T15:11:40Z</time>
      </trkpt>
      <trkpt lat="45.08809" lon="6.08949">
        <ele>1865</ele>
        <time>2021-03-10T15:11:41Z</time>
      </trkpt>
      <trkpt lat="45.0881" lon="6.08949">
        <ele>1865.1</ele>
        <time>2021-03-10T15:11:42Z</time>
      </trkpt>
      <trkpt lat="45.0881" lon="6.08948">
        <ele>1865.1</ele>
        <time>2021-03-10T15:11:43Z</time>
      </trkpt>
      <trkpt lat="45.08811" lon="6.08947">
        <ele>1865.2</ele>
        <time>2021-03-10T15:11:44Z</time>
      </trkpt>
      <trkpt lat="45.08811" lon="6.08946">
        <ele>1865.2</ele>
        <time>2021-03-10T15:11:45Z</time>
      </trkpt>
      <trkpt lat="45.08812" lon="6.08945">
        <ele>1865.3</ele>
        <time>2021-03-10T15:11:46Z</time>
      </trkpt>
      <trkpt lat="45.08813" lon="6.08944">
        <ele>1865.4</ele>
        <time>2021-03-10T15:11:47Z</time>
      </trkpt>
      <trkpt lat="45.08814" lon="6.08942">
        <ele>1865.5</ele>
        <time>2021-03-10T15:11:48Z</time>
      </trkpt>
      <trkpt lat="45.08814" lon="6.08941">
        <ele>1865.5</ele>
        <time>2021-03-10T15:11:49Z</time>
      </trkpt>
      <trkpt lat="45.08815" lon="6.0894">
        <ele>1865.6</ele>
        <time>2021-03-10T15:11:50Z</time>
      </trkpt>
      <trkpt lat="45.08816" lon="6.08939">
        <ele>1865.7</ele>
        <time>2021-03-10T15:11:51Z</time>
      </trkpt>
      <trkpt lat="45.08817" lon="6.08938">
        <ele>1865.7</ele>
        <time>2021-03-10T15:11:52Z</time>
      </trkpt>
      <trkpt lat="45.08817" lon="6.08938">
        <ele>1865.8</ele>
        <time>2021-03-10T15:11:53Z</time>
      </trkpt>
      <trkpt lat="45.08818" lon="6.08937">
        <ele>1865.9</ele>
        <time>2021-03-10T15:11:54Z</time>
      </trkpt>
      <trkpt lat="45.08819" lon="6.08936">
        <ele>1866</ele>
        <time>2021-03-10T15:11:55Z</time>
      </trkpt>
      <trkpt lat="45.0882" lon="6.08934">
        <ele>1866</ele>
        <time>2021-03-10T15:11:56Z</time>
      </trkpt>
      <trkpt lat="45.0882" lon="6.08933">
        <ele>1866.1</ele>
        <time>2021-03-10T15:11:57Z</time>
      </trkpt>
      <trkpt lat="45.08822" lon="6.08931">
        <ele>1866.2</ele>
        <time>2021-03-10T15:11:58Z</time>
      </trkpt>
      <trkpt lat="45.08822" lon="6.0893">
        <ele>1866.3</ele>
        <time>2021-03-10T15:11:59Z</time>
      </trkpt>
      <trkpt lat="45.08823" lon="6.0893">
        <ele>1866.3</ele>
        <time>2021-03-10T15:12:00Z</time>
      </trkpt>
      <trkpt lat="45.08825" lon="6.08928">
        <ele>1866.5</ele>
        <time>2021-03-10T15:12:01Z</time>
      </trkpt>
      <trkpt lat="45.08825" lon="6.08928">
        <ele>1866.5</ele>
        <time>2021-03-10T15:12:02Z</time>
      </trkpt>
      <trkpt lat="45.08826" lon="6.08927">
        <ele>1866.6</ele>
        <time>2021-03-10T15:12:03Z</time>
      </trkpt>
      <trkpt lat="45.08827" lon="6.08927">
        <ele>1866.6</ele>
        <time>2021-03-10T15:12:04Z</time>
      </trkpt>
      <trkpt lat="45.08828" lon="6.08926">
        <ele>1866.7</ele>
        <time>2021-03-10T15:12:05Z</time>
      </trkpt>
      <trkpt lat="45.08828" lon="6.08925">
        <ele>1866.8</ele>
        <time>2021-03-10T15:12:06Z</time>
      </trkpt>
      <trkpt lat="45.08829" lon="6.08924">
        <ele>1866.8</ele>
        <time>2021-03-10T15:12:07Z</time>
      </trkpt>
      <trkpt lat="45.0883" lon="6.08923">
        <ele>1866.9</ele>
        <time>2021-03-10T15:12:08Z</time>
      </trkpt>
      <trkpt lat="45.0883" lon="6.08922">
        <ele>1866.9</ele>
        <time>2021-03-10T15:12:09Z</time>
      </trkpt>
      <trkpt lat="45.08831" lon="6.0892">
        <ele>1867</ele>
        <time>2021-03-10T15:12:10Z</time>
      </trkpt>
      <trkpt lat="45.08831" lon="6.08919">
        <ele>1867.1</ele>
        <time>2021-03-10T15:12:11Z</time>
      </trkpt>
      <trkpt lat="45.08831" lon="6.08918">
        <ele>1867.1</ele>
        <time>2021-03-10T15:12:12Z</time>
      </trkpt>
      <trkpt lat="45.08831" lon="6.08916">
        <ele>1867.2</ele>
        <time>2021-03-10T15:12:13Z</time>
      </trkpt>
      <trkpt lat="45.08832" lon="6.08915">
        <ele>1867.3</ele>
        <time>2021-03-10T15:12:14Z</time>
      </trkpt>
      <trkpt lat="45.08832" lon="6.08913">
        <ele>1867.3</ele>
        <time>2021-03-10T15:12:15Z</time>
      </trkpt>
      <trkpt lat="45.08832" lon="6.08912">
        <ele>1867.4</ele>
        <time>2021-03-10T15:12:16Z</time>
      </trkpt>
      <trkpt lat="45.08832" lon="6.08911">
        <ele>1867.4</ele>
        <time>2021-03-10T15:12:17Z</time>
      </trkpt>
      <trkpt lat="45.08833" lon="6.0891">
        <ele>1867.5</ele>
        <time>2021-03-10T15:12:18Z</time>
      </trkpt>
      <trkpt lat="45.08833" lon="6.08909">
        <ele>1867.6</ele>
        <time>2021-03-10T15:12:19Z</time>
      </trkpt>
      <trkpt lat="45.08834" lon="6.08908">
        <ele>1867.6</ele>
        <time>2021-03-10T15:12:20Z</time>
      </trkpt>
      <trkpt lat="45.08834" lon="6.08907">
        <ele>1867.7</ele>
        <time>2021-03-10T15:12:21Z</time>
      </trkpt>
      <trkpt lat="45.08835" lon="6.08906">
        <ele>1867.7</ele>
        <time>2021-03-10T15:12:22Z</time>
      </trkpt>
      <trkpt lat="45.08835" lon="6.08905">
        <ele>1867.8</ele>
        <time>2021-03-10T15:12:23Z</time>
      </trkpt>
      <trkpt lat="45.08836" lon="6.08903">
        <ele>1867.8</ele>
        <time>2021-03-10T15:12:24Z</time>
      </trkpt>
      <trkpt lat="45.08837" lon="6.08902">
        <ele>1867.9</ele>
        <time>2021-03-10T15:12:25Z</time>
      </trkpt>
      <trkpt lat="45.08838" lon="6.08901">
        <ele>1868</ele>
        <time>2021-03-10T15:12:26Z</time>
      </trkpt>
      <trkpt lat="45.08838" lon="6.089">
        <ele>1868</ele>
        <time>2021-03-10T15:12:27Z</time>
      </trkpt>
      <trkpt lat="45.08839" lon="6.08899">
        <ele>1868.1</ele>
        <time>2021-03-10T15:12:28Z</time>
      </trkpt>
      <trkpt lat="45.08839" lon="6.08897">
        <ele>1868.1</ele>
        <time>2021-03-10T15:12:29Z</time>
      </trkpt>
      <trkpt lat="45.0884" lon="6.08896">
        <ele>1868.2</ele>
        <time>2021-03-10T15:12:30Z</time>
      </trkpt>
      <trkpt lat="45.0884" lon="6.08895">
        <ele>1868.2</ele>
        <time>2021-03-10T15:12:31Z</time>
      </trkpt>
      <trkpt lat="45.08841" lon="6.08894">
        <ele>1868.3</ele>
        <time>2021-03-10T15:12:32Z</time>
      </trkpt>
      <trkpt lat="45.08842" lon="6.08892">
        <ele>1868.3</ele>
        <time>2021-03-10T15:12:33Z</time>
      </trkpt>
      <trkpt lat="45.08842" lon="6.08891">
        <ele>1868.4</ele>
        <time>2021-03-10T15:12:34Z</time>
      </trkpt>
      <trkpt lat="45.08843" lon="6.0889">
        <ele>1868.4</ele>
        <time>2021-03-10T15:12:35Z</time>
      </trkpt>
      <trkpt lat="45.08844" lon="6.08889">
        <ele>1868.5</ele>
        <time>2021-03-10T15:12:36Z</time>
      </trkpt>
      <trkpt lat="45.08844" lon="6.08888">
        <ele>1868.5</ele>
        <time>2021-03-10T15:12:37Z</time>
      </trkpt>
      <trkpt lat="45.08845" lon="6.08887">
        <ele>1868.6</ele>
        <time>2021-03-10T15:12:38Z</time>
      </trkpt>
      <trkpt lat="45.08846" lon="6.08886">
        <ele>1868.6</ele>
        <time>2021-03-10T15:12:39Z</time>
      </trkpt>
      <trkpt lat="45.08847" lon="6.08885">
        <ele>1868.7</ele>
        <time>2021-03-10T15:12:40Z</time>
      </trkpt>
      <trkpt lat="45.08847" lon="6.08884">
        <ele>1868.7</ele>
        <time>2021-03-10T15:12:41Z</time>
      </trkpt>
      <trkpt lat="45.08848" lon="6.08883">
        <ele>1868.8</ele>
        <time>2021-03-10T15:12:42Z</time>
      </trkpt>
      <trkpt lat="45.08849" lon="6.08882">
        <ele>1868.8</ele>
        <time>2021-03-10T15:12:43Z</time>
      </trkpt>
      <trkpt lat="45.08849" lon="6.08881">
        <ele>1868.9</ele>
        <time>2021-03-10T15:12:44Z</time>
      </trkpt>
      <trkpt lat="45.0885" lon="6.08879">
        <ele>1868.9</ele>
        <time>2021-03-10T15:12:45Z</time>
      </trkpt>
      <trkpt lat="45.0885" lon="6.08878">
        <ele>1869</ele>
        <time>2021-03-10T15:12:46Z</time>
      </trkpt>
      <trkpt lat="45.08851" lon="6.08876">
        <ele>1869</ele>
        <time>2021-03-10T15:12:47Z</time>
      </trkpt>
      <trkpt lat="45.08851" lon="6.08875">
        <ele>1869.1</ele>
        <time>2021-03-10T15:12:48Z</time>
      </trkpt>
      <trkpt lat="45.08852" lon="6.08873">
        <ele>1869.1</ele>
        <time>2021-03-10T15:12:49Z</time>
      </trkpt>
      <trkpt lat="45.08853" lon="6.08872">
        <ele>1869.2</ele>
        <time>2021-03-10T15:12:50Z</time>
      </trkpt>
      <trkpt lat="45.08854" lon="6.0887">
        <ele>1869.2</ele>
        <time>2021-03-10T15:12:51Z</time>
      </trkpt>
      <trkpt lat="45.08855" lon="6.08869">
        <ele>1869.3</ele>
        <time>2021-03-10T15:12:52Z</time>
      </trkpt>
      <trkpt lat="45.08855" lon="6.08869">
        <ele>1869.3</ele>
        <time>2021-03-10T15:12:53Z</time>
      </trkpt>
      <trkpt lat="45.08856" lon="6.08868">
        <ele>1869.3</ele>
        <time>2021-03-10T15:12:54Z</time>
      </trkpt>
      <trkpt lat="45.08857" lon="6.08867">
        <ele>1869.4</ele>
        <time>2021-03-10T15:12:55Z</time>
      </trkpt>
      <trkpt lat="45.08858" lon="6.08866">
        <ele>1869.4</ele>
        <time>2021-03-10T15:12:56Z</time>
      </trkpt>
      <trkpt lat="45.08859" lon="6.08865">
        <ele>1869.4</ele>
        <time>2021-03-10T15:12:57Z</time>
      </trkpt>
      <trkpt lat="45.08859" lon="6.08863">
        <ele>1869.5</ele>
        <time>2021-03-10T15:12:58Z</time>
      </trkpt>
      <trkpt lat="45.0886" lon="6.08862">
        <ele>1869.5</ele>
        <time>2021-03-10T15:12:59Z</time>
      </trkpt>
      <trkpt lat="45.0886" lon="6.0886">
        <ele>1869.6</ele>
        <time>2021-03-10T15:13:00Z</time>
      </trkpt>
      <trkpt lat="45.0886" lon="6.08858">
        <ele>1869.6</ele>
        <time>2021-03-10T15:13:01Z</time>
      </trkpt>
      <trkpt lat="45.08861" lon="6.08857">
        <ele>1869.6</ele>
        <time>2021-03-10T15:13:02Z</time>
      </trkpt>
      <trkpt lat="45.08861" lon="6.08856">
        <ele>1869.7</ele>
        <time>2021-03-10T15:13:03Z</time>
      </trkpt>
      <trkpt lat="45.08862" lon="6.08855">
        <ele>1869.7</ele>
        <time>2021-03-10T15:13:04Z</time>
      </trkpt>
      <trkpt lat="45.08863" lon="6.08855">
        <ele>1869.7</ele>
        <time>2021-03-10T15:13:05Z</time>
      </trkpt>
      <trkpt lat="45.08864" lon="6.08854">
        <ele>1869.8</ele>
        <time>2021-03-10T15:13:06Z</time>
      </trkpt>
      <trkpt lat="45.08865" lon="6.08854">
        <ele>1869.8</ele>
        <time>2021-03-10T15:13:07Z</time>
      </trkpt>
      <trkpt lat="45.08866" lon="6.08853">
        <ele>1869.8</ele>
        <time>2021-03-10T15:13:08Z</time>
      </trkpt>
      <trkpt lat="45.08866" lon="6.08852">
        <ele>1869.8</ele>
        <time>2021-03-10T15:13:09Z</time>
      </trkpt>
      <trkpt lat="45.08867" lon="6.0885">
        <ele>1869.9</ele>
        <time>2021-03-10T15:13:10Z</time>
      </trkpt>
      <trkpt lat="45.08868" lon="6.08849">
        <ele>1869.9</ele>
        <time>2021-03-10T15:13:11Z</time>
      </trkpt>
      <trkpt lat="45.08869" lon="6.08848">
        <ele>1869.9</ele>
        <time>2021-03-10T15:13:12Z</time>
      </trkpt>
      <trkpt lat="45.08869" lon="6.08847">
        <ele>1869.9</ele>
        <time>2021-03-10T15:13:13Z</time>
      </trkpt>
      <trkpt lat="45.0887" lon="6.08846">
        <ele>1869.9</ele>
        <time>2021-03-10T15:13:14Z</time>
      </trkpt>
      <trkpt lat="45.0887" lon="6.08845">
        <ele>1870</ele>
        <time>2021-03-10T15:13:15Z</time>
      </trkpt>
      <trkpt lat="45.08871" lon="6.08844">
        <ele>1870</ele>
        <time>2021-03-10T15:13:16Z</time>
      </trkpt>
      <trkpt lat="45.08872" lon="6.08843">
        <ele>1870</ele>
        <time>2021-03-10T15:13:17Z</time>
      </trkpt>
      <trkpt lat="45.08872" lon="6.08842">
        <ele>1870</ele>
        <time>2021-03-10T15:13:18Z</time>
      </trkpt>
      <trkpt lat="45.08873" lon="6.08841">
        <ele>1870</ele>
        <time>2021-03-10T15:13:19Z</time>
      </trkpt>
      <trkpt lat="45.08874" lon="6.08841">
        <ele>1870.1</ele>
        <time>2021-03-10T15:13:20Z</time>
      </trkpt>
      <trkpt lat="45.08875" lon="6.08841">
        <ele>1870.1</ele>
        <time>2021-03-10T15:13:21Z</time>
      </trkpt>
      <trkpt lat="45.08876" lon="6.08841">
        <ele>1870.1</ele>
        <time>2021-03-10T15:13:22Z</time>
      </trkpt>
      <trkpt lat="45.08876" lon="6.0884">
        <ele>1870.1</ele>
        <time>2021-03-10T15:13:23Z</time>
      </trkpt>
      <trkpt lat="45.08877" lon="6.08839">
        <ele>1870.1</ele>
        <time>2021-03-10T15:13:24Z</time>
      </trkpt>
      <trkpt lat="45.08877" lon="6.08837">
        <ele>1870.1</ele>
        <time>2021-03-10T15:13:25Z</time>
      </trkpt>
      <trkpt lat="45.08877" lon="6.08836">
        <ele>1870.2</ele>
        <time>2021-03-10T15:13:26Z</time>
      </trkpt>
      <trkpt lat="45.08877" lon="6.08834">
        <ele>1870.2</ele>
        <time>2021-03-10T15:13:27Z</time>
      </trkpt>
      <trkpt lat="45.08876" lon="6.08832">
        <ele>1870.2</ele>
        <time>2021-03-10T15:13:28Z</time>
      </trkpt>
      <trkpt lat="45.08876" lon="6.08831">
        <ele>1870.2</ele>
        <time>2021-03-10T15:13:29Z</time>
      </trkpt>
      <trkpt lat="45.08875" lon="6.0883">
        <ele>1870.2</ele>
        <time>2021-03-10T15:13:30Z</time>
      </trkpt>
      <trkpt lat="45.08875" lon="6.0883">
        <ele>1870.2</ele>
        <time>2021-03-10T15:13:31Z</time>
      </trkpt>
      <trkpt lat="45.08875" lon="6.08829">
        <ele>1870.2</ele>
        <time>2021-03-10T15:13:32Z</time>
      </trkpt>
      <trkpt lat="45.08875" lon="6.08829">
        <ele>1870.2</ele>
        <time>2021-03-10T15:13:33Z</time>
      </trkpt>
      <trkpt lat="45.08875" lon="6.08829">
        <ele>1870.2</ele>
        <time>2021-03-10T15:13:34Z</time>
      </trkpt>
      <trkpt lat="45.08875" lon="6.08828">
        <ele>1870.3</ele>
        <time>2021-03-10T15:13:35Z</time>
      </trkpt>
      <trkpt lat="45.08875" lon="6.08827">
        <ele>1870.3</ele>
        <time>2021-03-10T15:13:36Z</time>
      </trkpt>
      <trkpt lat="45.08876" lon="6.08826">
        <ele>1870.3</ele>
        <time>2021-03-10T15:13:37Z</time>
      </trkpt>
      <trkpt lat="45.08876" lon="6.08825">
        <ele>1870.3</ele>
        <time>2021-03-10T15:13:38Z</time>
      </trkpt>
      <trkpt lat="45.08877" lon="6.08824">
        <ele>1870.3</ele>
        <time>2021-03-10T15:13:39Z</time>
      </trkpt>
      <trkpt lat="45.08878" lon="6.08822">
        <ele>1870.3</ele>
        <time>2021-03-10T15:13:40Z</time>
      </trkpt>
      <trkpt lat="45.08879" lon="6.08821">
        <ele>1870.3</ele>
        <time>2021-03-10T15:13:49Z</time>
      </trkpt>
      <trkpt lat="45.0888" lon="6.08819">
        <ele>1870.3</ele>
        <time>2021-03-10T15:13:50Z</time>
      </trkpt>
      <trkpt lat="45.08881" lon="6.08818">
        <ele>1870.3</ele>
        <time>2021-03-10T15:13:51Z</time>
      </trkpt>
      <trkpt lat="45.08882" lon="6.08816">
        <ele>1870.3</ele>
        <time>2021-03-10T15:13:52Z</time>
      </trkpt>
      <trkpt lat="45.08883" lon="6.08814">
        <ele>1870.4</ele>
        <time>2021-03-10T15:13:53Z</time>
      </trkpt>
      <trkpt lat="45.08884" lon="6.08812">
        <ele>1870.4</ele>
        <time>2021-03-10T15:13:54Z</time>
      </trkpt>
      <trkpt lat="45.08885" lon="6.0881">
        <ele>1870.4</ele>
        <time>2021-03-10T15:13:55Z</time>
      </trkpt>
      <trkpt lat="45.08886" lon="6.08808">
        <ele>1870.4</ele>
        <time>2021-03-10T15:13:56Z</time>
      </trkpt>
      <trkpt lat="45.08887" lon="6.08806">
        <ele>1870.4</ele>
        <time>2021-03-10T15:13:57Z</time>
      </trkpt>
      <trkpt lat="45.08888" lon="6.08804">
        <ele>1870.3</ele>
        <time>2021-03-10T15:13:58Z</time>
      </trkpt>
      <trkpt lat="45.08889" lon="6.08802">
        <ele>1870.3</ele>
        <time>2021-03-10T15:13:59Z</time>
      </trkpt>
      <trkpt lat="45.0889" lon="6.088">
        <ele>1870.3</ele>
        <time>2021-03-10T15:14:00Z</time>
      </trkpt>
      <trkpt lat="45.08891" lon="6.08798">
        <ele>1870.3</ele>
        <time>2021-03-10T15:14:01Z</time>
      </trkpt>
      <trkpt lat="45.08893" lon="6.08794">
        <ele>1870.3</ele>
        <time>2021-03-10T15:14:02Z</time>
      </trkpt>
      <trkpt lat="45.08894" lon="6.08793">
        <ele>1870.3</ele>
        <time>2021-03-10T15:14:03Z</time>
      </trkpt>
      <trkpt lat="45.08895" lon="6.0879">
        <ele>1870.3</ele>
        <time>2021-03-10T15:14:04Z</time>
      </trkpt>
      <trkpt lat="45.08896" lon="6.08789">
        <ele>1870.3</ele>
        <time>2021-03-10T15:14:05Z</time>
      </trkpt>
      <trkpt lat="45.08897" lon="6.08784">
        <ele>1870.2</ele>
        <time>2021-03-10T15:14:06Z</time>
      </trkpt>
      <trkpt lat="45.08898" lon="6.08782">
        <ele>1870.2</ele>
        <time>2021-03-10T15:14:07Z</time>
      </trkpt>
      <trkpt lat="45.08899" lon="6.08778">
        <ele>1870.1</ele>
        <time>2021-03-10T15:14:08Z</time>
      </trkpt>
      <trkpt lat="45.08899" lon="6.08777">
        <ele>1870.1</ele>
        <time>2021-03-10T15:14:09Z</time>
      </trkpt>
      <trkpt lat="45.089" lon="6.08775">
        <ele>1870.1</ele>
        <time>2021-03-10T15:14:10Z</time>
      </trkpt>
      <trkpt lat="45.08901" lon="6.08774">
        <ele>1870</ele>
        <time>2021-03-10T15:14:11Z</time>
      </trkpt>
      <trkpt lat="45.08902" lon="6.08773">
        <ele>1870</ele>
        <time>2021-03-10T15:14:12Z</time>
      </trkpt>
      <trkpt lat="45.08902" lon="6.08771">
        <ele>1870</ele>
        <time>2021-03-10T15:14:13Z</time>
      </trkpt>
      <trkpt lat="45.08902" lon="6.08769">
        <ele>1870</ele>
        <time>2021-03-10T15:14:14Z</time>
      </trkpt>
      <trkpt lat="45.08903" lon="6.08768">
        <ele>1869.9</ele>
        <time>2021-03-10T15:14:15Z</time>
      </trkpt>
      <trkpt lat="45.08903" lon="6.08767">
        <ele>1869.9</ele>
        <time>2021-03-10T15:14:16Z</time>
      </trkpt>
      <trkpt lat="45.08904" lon="6.08766">
        <ele>1869.9</ele>
        <time>2021-03-10T15:14:17Z</time>
      </trkpt>
      <trkpt lat="45.08904" lon="6.08765">
        <ele>1869.9</ele>
        <time>2021-03-10T15:14:18Z</time>
      </trkpt>
      <trkpt lat="45.08905" lon="6.08763">
        <ele>1869.8</ele>
        <time>2021-03-10T15:14:19Z</time>
      </trkpt>
      <trkpt lat="45.08906" lon="6.08761">
        <ele>1869.8</ele>
        <time>2021-03-10T15:14:20Z</time>
      </trkpt>
      <trkpt lat="45.08907" lon="6.08757">
        <ele>1869.7</ele>
        <time>2021-03-10T15:14:21Z</time>
      </trkpt>
      <trkpt lat="45.08907" lon="6.08755">
        <ele>1869.6</ele>
        <time>2021-03-10T15:14:22Z</time>
      </trkpt>
      <trkpt lat="45.08908" lon="6.08752">
        <ele>1869.6</ele>
        <time>2021-03-10T15:14:23Z</time>
      </trkpt>
      <trkpt lat="45.08909" lon="6.0875">
        <ele>1869.5</ele>
        <time>2021-03-10T15:14:24Z</time>
      </trkpt>
      <trkpt lat="45.0891" lon="6.08747">
        <ele>1869.5</ele>
        <time>2021-03-10T15:14:25Z</time>
      </trkpt>
      <trkpt lat="45.0891" lon="6.08746">
        <ele>1869.4</ele>
        <time>2021-03-10T15:14:26Z</time>
      </trkpt>
      <trkpt lat="45.08911" lon="6.08741">
        <ele>1869.2</ele>
        <time>2021-03-10T15:14:27Z</time>
      </trkpt>
      <trkpt lat="45.08911" lon="6.08739">
        <ele>1869.1</ele>
        <time>2021-03-10T15:14:28Z</time>
      </trkpt>
      <trkpt lat="45.08912" lon="6.08734">
        <ele>1868.9</ele>
        <time>2021-03-10T15:14:29Z</time>
      </trkpt>
      <trkpt lat="45.08913" lon="6.08732">
        <ele>1868.8</ele>
        <time>2021-03-10T15:14:30Z</time>
      </trkpt>
      <trkpt lat="45.08914" lon="6.08727">
        <ele>1868.5</ele>
        <time>2021-03-10T15:14:31Z</time>
      </trkpt>
      <trkpt lat="45.08914" lon="6.08725">
        <ele>1868.5</ele>
        <time>2021-03-10T15:14:32Z</time>
      </trkpt>
      <trkpt lat="45.08915" lon="6.08721">
        <ele>1868.2</ele>
        <time>2021-03-10T15:14:33Z</time>
      </trkpt>
      <trkpt lat="45.08916" lon="6.0872">
        <ele>1868.2</ele>
        <time>2021-03-10T15:14:34Z</time>
      </trkpt>
      <trkpt lat="45.08918" lon="6.08716">
        <ele>1868</ele>
        <time>2021-03-10T15:14:35Z</time>
      </trkpt>
      <trkpt lat="45.08918" lon="6.08715">
        <ele>1867.9</ele>
        <time>2021-03-10T15:14:36Z</time>
      </trkpt>
      <trkpt lat="45.08919" lon="6.0871">
        <ele>1867.7</ele>
        <time>2021-03-10T15:14:37Z</time>
      </trkpt>
      <trkpt lat="45.0892" lon="6.08709">
        <ele>1867.6</ele>
        <time>2021-03-10T15:14:38Z</time>
      </trkpt>
      <trkpt lat="45.08921" lon="6.08704">
        <ele>1867.4</ele>
        <time>2021-03-10T15:14:39Z</time>
      </trkpt>
      <trkpt lat="45.08921" lon="6.08703">
        <ele>1867.3</ele>
        <time>2021-03-10T15:14:40Z</time>
      </trkpt>
      <trkpt lat="45.08922" lon="6.08699">
        <ele>1867.2</ele>
        <time>2021-03-10T15:14:41Z</time>
      </trkpt>
      <trkpt lat="45.08922" lon="6.08695">
        <ele>1867</ele>
        <time>2021-03-10T15:14:42Z</time>
      </trkpt>
      <trkpt lat="45.08923" lon="6.08691">
        <ele>1866.8</ele>
        <time>2021-03-10T15:14:43Z</time>
      </trkpt>
      <trkpt lat="45.08923" lon="6.08687">
        <ele>1866.6</ele>
        <time>2021-03-10T15:14:44Z</time>
      </trkpt>
      <trkpt lat="45.08923" lon="6.08683">
        <ele>1866.4</ele>
        <time>2021-03-10T15:14:45Z</time>
      </trkpt>
      <trkpt lat="45.08924" lon="6.08679">
        <ele>1866.2</ele>
        <time>2021-03-10T15:14:46Z</time>
      </trkpt>
      <trkpt lat="45.08924" lon="6.08674">
        <ele>1866</ele>
        <time>2021-03-10T15:14:47Z</time>
      </trkpt>
      <trkpt lat="45.08925" lon="6.08672">
        <ele>1865.9</ele>
        <time>2021-03-10T15:14:48Z</time>
      </trkpt>
      <trkpt lat="45.08925" lon="6.08667">
        <ele>1865.7</ele>
        <time>2021-03-10T15:14:49Z</time>
      </trkpt>
      <trkpt lat="45.08925" lon="6.08663">
        <ele>1865.5</ele>
        <time>2021-03-10T15:14:50Z</time>
      </trkpt>
      <trkpt lat="45.08925" lon="6.08659">
        <ele>1865.4</ele>
        <time>2021-03-10T15:14:51Z</time>
      </trkpt>
      <trkpt lat="45.08925" lon="6.08655">
        <ele>1865.2</ele>
        <time>2021-03-10T15:14:52Z</time>
      </trkpt>
      <trkpt lat="45.08926" lon="6.0865">
        <ele>1864.9</ele>
        <time>2021-03-10T15:14:53Z</time>
      </trkpt>
      <trkpt lat="45.08926" lon="6.08648">
        <ele>1864.9</ele>
        <time>2021-03-10T15:14:54Z</time>
      </trkpt>
      <trkpt lat="45.08926" lon="6.08644">
        <ele>1864.7</ele>
        <time>2021-03-10T15:14:55Z</time>
      </trkpt>
      <trkpt lat="45.08926" lon="6.08639">
        <ele>1864.4</ele>
        <time>2021-03-10T15:14:56Z</time>
      </trkpt>
      <trkpt lat="45.08927" lon="6.08634">
        <ele>1864.2</ele>
        <time>2021-03-10T15:14:57Z</time>
      </trkpt>
      <trkpt lat="45.08927" lon="6.08629">
        <ele>1864</ele>
        <time>2021-03-10T15:14:58Z</time>
      </trkpt>
      <trkpt lat="45.08928" lon="6.08624">
        <ele>1863.8</ele>
        <time>2021-03-10T15:14:59Z</time>
      </trkpt>
      <trkpt lat="45.08929" lon="6.0862">
        <ele>1863.5</ele>
        <time>2021-03-10T15:15:00Z</time>
      </trkpt>
      <trkpt lat="45.0893" lon="6.08615">
        <ele>1863.4</ele>
        <time>2021-03-10T15:15:01Z</time>
      </trkpt>
      <trkpt lat="45.08931" lon="6.0861">
        <ele>1863.3</ele>
        <time>2021-03-10T15:15:02Z</time>
      </trkpt>
      <trkpt lat="45.08932" lon="6.08605">
        <ele>1863.1</ele>
        <time>2021-03-10T15:15:03Z</time>
      </trkpt>
      <trkpt lat="45.08933" lon="6.086">
        <ele>1863</ele>
        <time>2021-03-10T15:15:04Z</time>
      </trkpt>
      <trkpt lat="45.08934" lon="6.08595">
        <ele>1862.8</ele>
        <time>2021-03-10T15:15:05Z</time>
      </trkpt>
      <trkpt lat="45.08935" lon="6.08591">
        <ele>1862.7</ele>
        <time>2021-03-10T15:15:06Z</time>
      </trkpt>
      <trkpt lat="45.08936" lon="6.08586">
        <ele>1862.6</ele>
        <time>2021-03-10T15:15:07Z</time>
      </trkpt>
      <trkpt lat="45.08937" lon="6.08582">
        <ele>1862.4</ele>
        <time>2021-03-10T15:15:08Z</time>
      </trkpt>
      <trkpt lat="45.08938" lon="6.08577">
        <ele>1862.3</ele>
        <time>2021-03-10T15:15:09Z</time>
      </trkpt>
      <trkpt lat="45.08939" lon="6.08573">
        <ele>1862.2</ele>
        <time>2021-03-10T15:15:10Z</time>
      </trkpt>
      <trkpt lat="45.0894" lon="6.08568">
        <ele>1862.1</ele>
        <time>2021-03-10T15:15:11Z</time>
      </trkpt>
      <trkpt lat="45.08942" lon="6.08564">
        <ele>1862</ele>
        <time>2021-03-10T15:15:12Z</time>
      </trkpt>
      <trkpt lat="45.08943" lon="6.0856">
        <ele>1861.9</ele>
        <time>2021-03-10T15:15:13Z</time>
      </trkpt>
      <trkpt lat="45.08945" lon="6.08555">
        <ele>1861.8</ele>
        <time>2021-03-10T15:15:14Z</time>
      </trkpt>
      <trkpt lat="45.08947" lon="6.08551">
        <ele>1861.7</ele>
        <time>2021-03-10T15:15:15Z</time>
      </trkpt>
      <trkpt lat="45.08949" lon="6.08547">
        <ele>1861.6</ele>
        <time>2021-03-10T15:15:16Z</time>
      </trkpt>
      <trkpt lat="45.0895" lon="6.08544">
        <ele>1861.5</ele>
        <time>2021-03-10T15:15:17Z</time>
      </trkpt>
      <trkpt lat="45.08952" lon="6.0854">
        <ele>1861.4</ele>
        <time>2021-03-10T15:15:18Z</time>
      </trkpt>
      <trkpt lat="45.08954" lon="6.08536">
        <ele>1861.4</ele>
        <time>2021-03-10T15:15:19Z</time>
      </trkpt>
      <trkpt lat="45.08955" lon="6.08533">
        <ele>1861.3</ele>
        <time>2021-03-10T15:15:20Z</time>
      </trkpt>
      <trkpt lat="45.08957" lon="6.08529">
        <ele>1861.2</ele>
        <time>2021-03-10T15:15:21Z</time>
      </trkpt>
      <trkpt lat="45.08959" lon="6.08525">
        <ele>1861.2</ele>
        <time>2021-03-10T15:15:22Z</time>
      </trkpt>
      <trkpt lat="45.08961" lon="6.08523">
        <ele>1861.1</ele>
        <time>2021-03-10T15:15:23Z</time>
      </trkpt>
      <trkpt lat="45.08963" lon="6.0852">
        <ele>1861</ele>
        <time>2021-03-10T15:15:24Z</time>
      </trkpt>
      <trkpt lat="45.08967" lon="6.08519">
        <ele>1861</ele>
        <time>2021-03-10T15:15:25Z</time>
      </trkpt>
      <trkpt lat="45.08968" lon="6.08518">
        <ele>1861</ele>
        <time>2021-03-10T15:15:26Z</time>
      </trkpt>
      <trkpt lat="45.08971" lon="6.08518">
        <ele>1861.4</ele>
        <time>2021-03-10T15:15:27Z</time>
      </trkpt>
      <trkpt lat="45.08972" lon="6.08518">
        <ele>1861.4</ele>
        <time>2021-03-10T15:15:28Z</time>
      </trkpt>
      <trkpt lat="45.08973" lon="6.08518">
        <ele>1862.3</ele>
        <time>2021-03-10T15:15:29Z</time>
      </trkpt>
      <trkpt lat="45.08974" lon="6.08519">
        <ele>1862.3</ele>
        <time>2021-03-10T15:15:30Z</time>
      </trkpt>
      <trkpt lat="45.08975" lon="6.08519">
        <ele>1862.3</ele>
        <time>2021-03-10T15:15:31Z</time>
      </trkpt>
      <trkpt lat="45.08975" lon="6.08519">
        <ele>1862.3</ele>
        <time>2021-03-10T15:15:32Z</time>
      </trkpt>
      <trkpt lat="45.08975" lon="6.08519">
        <ele>1862.3</ele>
        <time>2021-03-10T15:15:33Z</time>
      </trkpt>
      <trkpt lat="45.08975" lon="6.08519">
        <ele>1862.3</ele>
        <time>2021-03-10T15:15:34Z</time>
      </trkpt>
      <trkpt lat="45.08975" lon="6.08519">
        <ele>1862.3</ele>
        <time>2021-03-10T15:15:35Z</time>
      </trkpt>
      <trkpt lat="45.08975" lon="6.08519">
        <ele>1862.3</ele>
        <time>2021-03-10T15:15:36Z</time>
      </trkpt>
      <trkpt lat="45.08975" lon="6.08519">
        <ele>1862.3</ele>
        <time>2021-03-10T15:15:37Z</time>
      </trkpt>
      <trkpt lat="45.08975" lon="6.08519">
        <ele>1862.3</ele>
        <time>2021-03-10T15:15:38Z</time>
      </trkpt>
      <trkpt lat="45.08975" lon="6.08519">
        <ele>1862.3</ele>
        <time>2021-03-10T15:15:39Z</time>
      </trkpt>
      <trkpt lat="45.08975" lon="6.08519">
        <ele>1862.3</ele>
        <time>2021-03-10T15:15:40Z</time>
      </trkpt>
      <trkpt lat="45.08975" lon="6.08519">
        <ele>1862.3</ele>
        <time>2021-03-10T15:15:41Z</time>
      </trkpt>
      <trkpt lat="45.08975" lon="6.08519">
        <ele>1862.3</ele>
        <time>2021-03-10T15:15:42Z</time>
      </trkpt>
      <trkpt lat="45.08978" lon="6.0852">
        <ele>1862.8</ele>
        <time>2021-03-10T15:16:01Z</time>
      </trkpt>
      <trkpt lat="45.08979" lon="6.0852">
        <ele>1862.8</ele>
        <time>2021-03-10T15:16:02Z</time>
      </trkpt>
      <trkpt lat="45.0898" lon="6.0852">
        <ele>1863.3</ele>
        <time>2021-03-10T15:16:03Z</time>
      </trkpt>
      <trkpt lat="45.0898" lon="6.08519">
        <ele>1863.3</ele>
        <time>2021-03-10T15:16:04Z</time>
      </trkpt>
      <trkpt lat="45.08982" lon="6.08519">
        <ele>1863.8</ele>
        <time>2021-03-10T15:16:05Z</time>
      </trkpt>
      <trkpt lat="45.08983" lon="6.08518">
        <ele>1863.8</ele>
        <time>2021-03-10T15:16:06Z</time>
      </trkpt>
      <trkpt lat="45.08984" lon="6.08518">
        <ele>1863.3</ele>
        <time>2021-03-10T15:16:07Z</time>
      </trkpt>
      <trkpt lat="45.08986" lon="6.08518">
        <ele>1863.7</ele>
        <time>2021-03-10T15:16:08Z</time>
      </trkpt>
      <trkpt lat="45.08987" lon="6.08518">
        <ele>1863.7</ele>
        <time>2021-03-10T15:16:09Z</time>
      </trkpt>
      <trkpt lat="45.08988" lon="6.08518">
        <ele>1863.7</ele>
        <time>2021-03-10T15:16:10Z</time>
      </trkpt>
      <trkpt lat="45.08989" lon="6.08517">
        <ele>1864.1</ele>
        <time>2021-03-10T15:16:11Z</time>
      </trkpt>
      <trkpt lat="45.0899" lon="6.08517">
        <ele>1864.1</ele>
        <time>2021-03-10T15:16:12Z</time>
      </trkpt>
      <trkpt lat="45.08991" lon="6.08517">
        <ele>1864.1</ele>
        <time>2021-03-10T15:16:13Z</time>
      </trkpt>
      <trkpt lat="45.08992" lon="6.08517">
        <ele>1864.6</ele>
        <time>2021-03-10T15:16:14Z</time>
      </trkpt>
      <trkpt lat="45.08993" lon="6.08516">
        <ele>1864.6</ele>
        <time>2021-03-10T15:16:15Z</time>
      </trkpt>
      <trkpt lat="45.08995" lon="6.08516">
        <ele>1865.1</ele>
        <time>2021-03-10T15:16:16Z</time>
      </trkpt>
      <trkpt lat="45.08996" lon="6.08516">
        <ele>1865.1</ele>
        <time>2021-03-10T15:16:17Z</time>
      </trkpt>
      <trkpt lat="45.08997" lon="6.08516">
        <ele>1865.1</ele>
        <time>2021-03-10T15:16:18Z</time>
      </trkpt>
      <trkpt lat="45.08997" lon="6.08516">
        <ele>1865.1</ele>
        <time>2021-03-10T15:16:19Z</time>
      </trkpt>
      <trkpt lat="45.08998" lon="6.08516">
        <ele>1865.6</ele>
        <time>2021-03-10T15:16:20Z</time>
      </trkpt>
      <trkpt lat="45.08999" lon="6.08515">
        <ele>1865.6</ele>
        <time>2021-03-10T15:16:21Z</time>
      </trkpt>
      <trkpt lat="45.09" lon="6.08516">
        <ele>1865.6</ele>
        <time>2021-03-10T15:16:22Z</time>
      </trkpt>
      <trkpt lat="45.09001" lon="6.08516">
        <ele>1866.1</ele>
        <time>2021-03-10T15:16:23Z</time>
      </trkpt>
      <trkpt lat="45.09002" lon="6.08516">
        <ele>1866.1</ele>
        <time>2021-03-10T15:16:24Z</time>
      </trkpt>
      <trkpt lat="45.09004" lon="6.08516">
        <ele>1866.1</ele>
        <time>2021-03-10T15:16:25Z</time>
      </trkpt>
      <trkpt lat="45.09005" lon="6.08517">
        <ele>1866.7</ele>
        <time>2021-03-10T15:16:26Z</time>
      </trkpt>
      <trkpt lat="45.09006" lon="6.08517">
        <ele>1866.7</ele>
        <time>2021-03-10T15:16:27Z</time>
      </trkpt>
      <trkpt lat="45.09007" lon="6.08517">
        <ele>1867.2</ele>
        <time>2021-03-10T15:16:28Z</time>
      </trkpt>
      <trkpt lat="45.09008" lon="6.08517">
        <ele>1867.2</ele>
        <time>2021-03-10T15:16:29Z</time>
      </trkpt>
      <trkpt lat="45.09009" lon="6.08518">
        <ele>1867.2</ele>
        <time>2021-03-10T15:16:30Z</time>
      </trkpt>
      <trkpt lat="45.0901" lon="6.08518">
        <ele>1867.7</ele>
        <time>2021-03-10T15:16:31Z</time>
      </trkpt>
      <trkpt lat="45.09011" lon="6.08518">
        <ele>1868.2</ele>
        <time>2021-03-10T15:16:32Z</time>
      </trkpt>
      <trkpt lat="45.09013" lon="6.08518">
        <ele>1868.2</ele>
        <time>2021-03-10T15:16:33Z</time>
      </trkpt>
      <trkpt lat="45.09014" lon="6.08518">
        <ele>1868.7</ele>
        <time>2021-03-10T15:16:34Z</time>
      </trkpt>
      <trkpt lat="45.09015" lon="6.08518">
        <ele>1868.2</ele>
        <time>2021-03-10T15:16:35Z</time>
      </trkpt>
      <trkpt lat="45.09016" lon="6.08518">
        <ele>1868.8</ele>
        <time>2021-03-10T15:16:36Z</time>
      </trkpt>
      <trkpt lat="45.09017" lon="6.08517">
        <ele>1868.8</ele>
        <time>2021-03-10T15:16:37Z</time>
      </trkpt>
      <trkpt lat="45.09018" lon="6.08516">
        <ele>1868.8</ele>
        <time>2021-03-10T15:16:38Z</time>
      </trkpt>
      <trkpt lat="45.09019" lon="6.08515">
        <ele>1869.4</ele>
        <time>2021-03-10T15:16:39Z</time>
      </trkpt>
      <trkpt lat="45.0902" lon="6.08515">
        <ele>1869.4</ele>
        <time>2021-03-10T15:16:40Z</time>
      </trkpt>
      <trkpt lat="45.0902" lon="6.08515">
        <ele>1869.4</ele>
        <time>2021-03-10T15:16:41Z</time>
      </trkpt>
      <trkpt lat="45.09021" lon="6.08514">
        <ele>1869.4</ele>
        <time>2021-03-10T15:16:42Z</time>
      </trkpt>
      <trkpt lat="45.09022" lon="6.08513">
        <ele>1868.9</ele>
        <time>2021-03-10T15:16:43Z</time>
      </trkpt>
      <trkpt lat="45.09022" lon="6.08513">
        <ele>1869.6</ele>
        <time>2021-03-10T15:16:44Z</time>
      </trkpt>
      <trkpt lat="45.09024" lon="6.08512">
        <ele>1869.6</ele>
        <time>2021-03-10T15:16:45Z</time>
      </trkpt>
      <trkpt lat="45.09025" lon="6.08512">
        <ele>1869.6</ele>
        <time>2021-03-10T15:16:46Z</time>
      </trkpt>
      <trkpt lat="45.09025" lon="6.08512">
        <ele>1870.3</ele>
        <time>2021-03-10T15:16:47Z</time>
      </trkpt>
      <trkpt lat="45.09026" lon="6.08512">
        <ele>1870.3</ele>
        <time>2021-03-10T15:16:48Z</time>
      </trkpt>
      <trkpt lat="45.09028" lon="6.08512">
        <ele>1870.3</ele>
        <time>2021-03-10T15:16:49Z</time>
      </trkpt>
      <trkpt lat="45.09028" lon="6.08512">
        <ele>1870.9</ele>
        <time>2021-03-10T15:16:50Z</time>
      </trkpt>
      <trkpt lat="45.09029" lon="6.08512">
        <ele>1870.9</ele>
        <time>2021-03-10T15:16:51Z</time>
      </trkpt>
      <trkpt lat="45.0903" lon="6.08512">
        <ele>1870.9</ele>
        <time>2021-03-10T15:16:52Z</time>
      </trkpt>
      <trkpt lat="45.0903" lon="6.08512">
        <ele>1870.9</ele>
        <time>2021-03-10T15:16:53Z</time>
      </trkpt>
      <trkpt lat="45.09031" lon="6.08512">
        <ele>1871.6</ele>
        <time>2021-03-10T15:16:54Z</time>
      </trkpt>
      <trkpt lat="45.09032" lon="6.08512">
        <ele>1871.6</ele>
        <time>2021-03-10T15:16:55Z</time>
      </trkpt>
      <trkpt lat="45.09033" lon="6.08512">
        <ele>1871.6</ele>
        <time>2021-03-10T15:16:56Z</time>
      </trkpt>
      <trkpt lat="45.09034" lon="6.08512">
        <ele>1871.6</ele>
        <time>2021-03-10T15:16:57Z</time>
      </trkpt>
      <trkpt lat="45.09034" lon="6.08512">
        <ele>1872.3</ele>
        <time>2021-03-10T15:16:58Z</time>
      </trkpt>
      <trkpt lat="45.09035" lon="6.08512">
        <ele>1872.3</ele>
        <time>2021-03-10T15:16:59Z</time>
      </trkpt>
      <trkpt lat="45.09035" lon="6.08512">
        <ele>1872.3</ele>
        <time>2021-03-10T15:17:00Z</time>
      </trkpt>
      <trkpt lat="45.09036" lon="6.08511">
        <ele>1872.3</ele>
        <time>2021-03-10T15:17:01Z</time>
      </trkpt>
      <trkpt lat="45.09037" lon="6.08511">
        <ele>1872.9</ele>
        <time>2021-03-10T15:17:02Z</time>
      </trkpt>
      <trkpt lat="45.09038" lon="6.08511">
        <ele>1872.9</ele>
        <time>2021-03-10T15:17:03Z</time>
      </trkpt>
      <trkpt lat="45.09039" lon="6.0851">
        <ele>1872.9</ele>
        <time>2021-03-10T15:17:04Z</time>
      </trkpt>
      <trkpt lat="45.0904" lon="6.0851">
        <ele>1872.9</ele>
        <time>2021-03-10T15:17:05Z</time>
      </trkpt>
      <trkpt lat="45.09041" lon="6.0851">
        <ele>1873.5</ele>
        <time>2021-03-10T15:17:06Z</time>
      </trkpt>
      <trkpt lat="45.09042" lon="6.0851">
        <ele>1873.5</ele>
        <time>2021-03-10T15:17:07Z</time>
      </trkpt>
      <trkpt lat="45.09043" lon="6.0851">
        <ele>1873.5</ele>
        <time>2021-03-10T15:17:08Z</time>
      </trkpt>
      <trkpt lat="45.09043" lon="6.0851">
        <ele>1873.5</ele>
        <time>2021-03-10T15:17:09Z</time>
      </trkpt>
      <trkpt lat="45.09044" lon="6.08511">
        <ele>1874.1</ele>
        <time>2021-03-10T15:17:10Z</time>
      </trkpt>
      <trkpt lat="45.09046" lon="6.08511">
        <ele>1874.1</ele>
        <time>2021-03-10T15:17:11Z</time>
      </trkpt>
      <trkpt lat="45.09047" lon="6.08511">
        <ele>1874.7</ele>
        <time>2021-03-10T15:17:12Z</time>
      </trkpt>
      <trkpt lat="45.09048" lon="6.08511">
        <ele>1874.7</ele>
        <time>2021-03-10T15:17:13Z</time>
      </trkpt>
      <trkpt lat="45.09049" lon="6.08511">
        <ele>1875.4</ele>
        <time>2021-03-10T15:17:14Z</time>
      </trkpt>
      <trkpt lat="45.0905" lon="6.08511">
        <ele>1875.4</ele>
        <time>2021-03-10T15:17:15Z</time>
      </trkpt>
      <trkpt lat="45.09051" lon="6.0851">
        <ele>1875.4</ele>
        <time>2021-03-10T15:17:16Z</time>
      </trkpt>
      <trkpt lat="45.09053" lon="6.0851">
        <ele>1875.5</ele>
        <time>2021-03-10T15:17:17Z</time>
      </trkpt>
      <trkpt lat="45.09054" lon="6.08509">
        <ele>1875.5</ele>
        <time>2021-03-10T15:17:18Z</time>
      </trkpt>
      <trkpt lat="45.09054" lon="6.08509">
        <ele>1875.5</ele>
        <time>2021-03-10T15:17:19Z</time>
      </trkpt>
      <trkpt lat="45.09056" lon="6.08508">
        <ele>1876.1</ele>
        <time>2021-03-10T15:17:20Z</time>
      </trkpt>
      <trkpt lat="45.09057" lon="6.08508">
        <ele>1876.1</ele>
        <time>2021-03-10T15:17:21Z</time>
      </trkpt>
      <trkpt lat="45.09058" lon="6.08507">
        <ele>1876.1</ele>
        <time>2021-03-10T15:17:22Z</time>
      </trkpt>
      <trkpt lat="45.09059" lon="6.08507">
        <ele>1876.7</ele>
        <time>2021-03-10T15:17:23Z</time>
      </trkpt>
      <trkpt lat="45.0906" lon="6.08506">
        <ele>1876.7</ele>
        <time>2021-03-10T15:17:24Z</time>
      </trkpt>
      <trkpt lat="45.09061" lon="6.08506">
        <ele>1876.7</ele>
        <time>2021-03-10T15:17:25Z</time>
      </trkpt>
      <trkpt lat="45.09062" lon="6.08505">
        <ele>1876.9</ele>
        <time>2021-03-10T15:17:26Z</time>
      </trkpt>
      <trkpt lat="45.09063" lon="6.08505">
        <ele>1876.9</ele>
        <time>2021-03-10T15:17:27Z</time>
      </trkpt>
      <trkpt lat="45.09063" lon="6.08504">
        <ele>1876.9</ele>
        <time>2021-03-10T15:17:28Z</time>
      </trkpt>
      <trkpt lat="45.09064" lon="6.08503">
        <ele>1876.9</ele>
        <time>2021-03-10T15:17:29Z</time>
      </trkpt>
      <trkpt lat="45.09065" lon="6.08503">
        <ele>1877.5</ele>
        <time>2021-03-10T15:17:30Z</time>
      </trkpt>
      <trkpt lat="45.09065" lon="6.08502">
        <ele>1877.5</ele>
        <time>2021-03-10T15:17:31Z</time>
      </trkpt>
      <trkpt lat="45.09066" lon="6.08502">
        <ele>1877.5</ele>
        <time>2021-03-10T15:17:32Z</time>
      </trkpt>
      <trkpt lat="45.09067" lon="6.08502">
        <ele>1878</ele>
        <time>2021-03-10T15:17:33Z</time>
      </trkpt>
      <trkpt lat="45.09069" lon="6.08502">
        <ele>1878</ele>
        <time>2021-03-10T15:17:34Z</time>
      </trkpt>
      <trkpt lat="45.0907" lon="6.08501">
        <ele>1878</ele>
        <time>2021-03-10T15:17:35Z</time>
      </trkpt>
      <trkpt lat="45.09071" lon="6.08501">
        <ele>1878.5</ele>
        <time>2021-03-10T15:17:36Z</time>
      </trkpt>
      <trkpt lat="45.09072" lon="6.08501">
        <ele>1878.2</ele>
        <time>2021-03-10T15:17:37Z</time>
      </trkpt>
      <trkpt lat="45.09073" lon="6.085">
        <ele>1878.2</ele>
        <time>2021-03-10T15:17:38Z</time>
      </trkpt>
      <trkpt lat="45.09074" lon="6.085">
        <ele>1878.7</ele>
        <time>2021-03-10T15:17:39Z</time>
      </trkpt>
      <trkpt lat="45.09075" lon="6.08499">
        <ele>1878.7</ele>
        <time>2021-03-10T15:17:40Z</time>
      </trkpt>
      <trkpt lat="45.09076" lon="6.08499">
        <ele>1878.7</ele>
        <time>2021-03-10T15:17:41Z</time>
      </trkpt>
      <trkpt lat="45.09077" lon="6.08499">
        <ele>1879.2</ele>
        <time>2021-03-10T15:17:42Z</time>
      </trkpt>
      <trkpt lat="45.09077" lon="6.08499">
        <ele>1879.2</ele>
        <time>2021-03-10T15:17:43Z</time>
      </trkpt>
      <trkpt lat="45.09078" lon="6.08499">
        <ele>1879.2</ele>
        <time>2021-03-10T15:17:44Z</time>
      </trkpt>
      <trkpt lat="45.09079" lon="6.08499">
        <ele>1879.2</ele>
        <time>2021-03-10T15:17:45Z</time>
      </trkpt>
      <trkpt lat="45.09079" lon="6.08499">
        <ele>1879.7</ele>
        <time>2021-03-10T15:17:46Z</time>
      </trkpt>
      <trkpt lat="45.0908" lon="6.08499">
        <ele>1879.7</ele>
        <time>2021-03-10T15:17:47Z</time>
      </trkpt>
      <trkpt lat="45.0908" lon="6.08498">
        <ele>1879.7</ele>
        <time>2021-03-10T15:17:48Z</time>
      </trkpt>
      <trkpt lat="45.09081" lon="6.08498">
        <ele>1879.7</ele>
        <time>2021-03-10T15:17:49Z</time>
      </trkpt>
      <trkpt lat="45.09082" lon="6.08498">
        <ele>1879.7</ele>
        <time>2021-03-10T15:17:50Z</time>
      </trkpt>
      <trkpt lat="45.09083" lon="6.08497">
        <ele>1880.2</ele>
        <time>2021-03-10T15:17:51Z</time>
      </trkpt>
      <trkpt lat="45.09084" lon="6.08496">
        <ele>1879.8</ele>
        <time>2021-03-10T15:17:52Z</time>
      </trkpt>
      <trkpt lat="45.09084" lon="6.08495">
        <ele>1879.8</ele>
        <time>2021-03-10T15:17:53Z</time>
      </trkpt>
      <trkpt lat="45.09085" lon="6.08495">
        <ele>1879.8</ele>
        <time>2021-03-10T15:17:54Z</time>
      </trkpt>
      <trkpt lat="45.09085" lon="6.08494">
        <ele>1879.8</ele>
        <time>2021-03-10T15:17:55Z</time>
      </trkpt>
      <trkpt lat="45.09086" lon="6.08493">
        <ele>1880.3</ele>
        <time>2021-03-10T15:17:56Z</time>
      </trkpt>
      <trkpt lat="45.09087" lon="6.08491">
        <ele>1880</ele>
        <time>2021-03-10T15:17:57Z</time>
      </trkpt>
      <trkpt lat="45.09087" lon="6.0849">
        <ele>1880</ele>
        <time>2021-03-10T15:17:58Z</time>
      </trkpt>
      <trkpt lat="45.09088" lon="6.08488">
        <ele>1880</ele>
        <time>2021-03-10T15:17:59Z</time>
      </trkpt>
      <trkpt lat="45.09088" lon="6.08487">
        <ele>1879.7</ele>
        <time>2021-03-10T15:18:00Z</time>
      </trkpt>
      <trkpt lat="45.09088" lon="6.08486">
        <ele>1879.7</ele>
        <time>2021-03-10T15:18:01Z</time>
      </trkpt>
      <trkpt lat="45.09088" lon="6.08485">
        <ele>1880.1</ele>
        <time>2021-03-10T15:18:02Z</time>
      </trkpt>
      <trkpt lat="45.09089" lon="6.08484">
        <ele>1880.1</ele>
        <time>2021-03-10T15:18:03Z</time>
      </trkpt>
      <trkpt lat="45.09089" lon="6.08483">
        <ele>1879.8</ele>
        <time>2021-03-10T15:18:04Z</time>
      </trkpt>
      <trkpt lat="45.0909" lon="6.08482">
        <ele>1879.8</ele>
        <time>2021-03-10T15:18:05Z</time>
      </trkpt>
      <trkpt lat="45.0909" lon="6.08481">
        <ele>1879.8</ele>
        <time>2021-03-10T15:18:06Z</time>
      </trkpt>
      <trkpt lat="45.0909" lon="6.08481">
        <ele>1879.8</ele>
        <time>2021-03-10T15:18:07Z</time>
      </trkpt>
      <trkpt lat="45.0909" lon="6.08481">
        <ele>1879.8</ele>
        <time>2021-03-10T15:18:08Z</time>
      </trkpt>
      <trkpt lat="45.0909" lon="6.08481">
        <ele>1879.8</ele>
        <time>2021-03-10T15:18:09Z</time>
      </trkpt>
      <trkpt lat="45.0909" lon="6.08481">
        <ele>1879.8</ele>
        <time>2021-03-10T15:18:10Z</time>
      </trkpt>
      <trkpt lat="45.0909" lon="6.08481">
        <ele>1879.8</ele>
        <time>2021-03-10T15:18:11Z</time>
      </trkpt>
      <trkpt lat="45.0909" lon="6.08481">
        <ele>1879.8</ele>
        <time>2021-03-10T15:18:12Z</time>
      </trkpt>
      <trkpt lat="45.0909" lon="6.08481">
        <ele>1879.8</ele>
        <time>2021-03-10T15:18:13Z</time>
      </trkpt>
      <trkpt lat="45.0909" lon="6.0848">
        <ele>1879.8</ele>
        <time>2021-03-10T15:18:14Z</time>
      </trkpt>
      <trkpt lat="45.09092" lon="6.08477">
        <ele>1879.8</ele>
        <time>2021-03-10T15:18:15Z</time>
      </trkpt>
      <trkpt lat="45.09094" lon="6.08474">
        <ele>1879.4</ele>
        <time>2021-03-10T15:18:16Z</time>
      </trkpt>
      <trkpt lat="45.09096" lon="6.08471">
        <ele>1879.4</ele>
        <time>2021-03-10T15:18:36Z</time>
      </trkpt>
      <trkpt lat="45.09098" lon="6.08468">
        <ele>1879.7</ele>
        <time>2021-03-10T15:18:37Z</time>
      </trkpt>
      <trkpt lat="45.09101" lon="6.08463">
        <ele>1879.6</ele>
        <time>2021-03-10T15:18:38Z</time>
      </trkpt>
      <trkpt lat="45.09101" lon="6.08462">
        <ele>1879.2</ele>
        <time>2021-03-10T15:18:39Z</time>
      </trkpt>
      <trkpt lat="45.09103" lon="6.08457">
        <ele>1878.8</ele>
        <time>2021-03-10T15:18:40Z</time>
      </trkpt>
      <trkpt lat="45.09103" lon="6.08455">
        <ele>1878.8</ele>
        <time>2021-03-10T15:18:41Z</time>
      </trkpt>
      <trkpt lat="45.09104" lon="6.0845">
        <ele>1878.4</ele>
        <time>2021-03-10T15:18:42Z</time>
      </trkpt>
      <trkpt lat="45.09104" lon="6.08449">
        <ele>1878.3</ele>
        <time>2021-03-10T15:18:43Z</time>
      </trkpt>
      <trkpt lat="45.09104" lon="6.08444">
        <ele>1877.9</ele>
        <time>2021-03-10T15:18:44Z</time>
      </trkpt>
      <trkpt lat="45.09104" lon="6.08443">
        <ele>1877.9</ele>
        <time>2021-03-10T15:18:45Z</time>
      </trkpt>
      <trkpt lat="45.09105" lon="6.08439">
        <ele>1877.5</ele>
        <time>2021-03-10T15:18:46Z</time>
      </trkpt>
      <trkpt lat="45.09105" lon="6.08437">
        <ele>1877.5</ele>
        <time>2021-03-10T15:18:47Z</time>
      </trkpt>
      <trkpt lat="45.09105" lon="6.08432">
        <ele>1876.7</ele>
        <time>2021-03-10T15:18:48Z</time>
      </trkpt>
      <trkpt lat="45.09105" lon="6.0843">
        <ele>1876.7</ele>
        <time>2021-03-10T15:18:49Z</time>
      </trkpt>
      <trkpt lat="45.09105" lon="6.08425">
        <ele>1876.3</ele>
        <time>2021-03-10T15:18:50Z</time>
      </trkpt>
      <trkpt lat="45.09105" lon="6.08424">
        <ele>1876.3</ele>
        <time>2021-03-10T15:18:51Z</time>
      </trkpt>
      <trkpt lat="45.09105" lon="6.08419">
        <ele>1875.5</ele>
        <time>2021-03-10T15:18:52Z</time>
      </trkpt>
      <trkpt lat="45.09105" lon="6.08417">
        <ele>1875.5</ele>
        <time>2021-03-10T15:18:53Z</time>
      </trkpt>
      <trkpt lat="45.09105" lon="6.08414">
        <ele>1875.2</ele>
        <time>2021-03-10T15:18:54Z</time>
      </trkpt>
      <trkpt lat="45.09105" lon="6.08408">
        <ele>1874.9</ele>
        <time>2021-03-10T15:18:55Z</time>
      </trkpt>
      <trkpt lat="45.09104" lon="6.08406">
        <ele>1874.5</ele>
        <time>2021-03-10T15:18:56Z</time>
      </trkpt>
      <trkpt lat="45.09105" lon="6.08402">
        <ele>1874.2</ele>
        <time>2021-03-10T15:18:57Z</time>
      </trkpt>
      <trkpt lat="45.09105" lon="6.08397">
        <ele>1873.9</ele>
        <time>2021-03-10T15:18:58Z</time>
      </trkpt>
      <trkpt lat="45.09105" lon="6.08395">
        <ele>1873.9</ele>
        <time>2021-03-10T15:18:59Z</time>
      </trkpt>
      <trkpt lat="45.09105" lon="6.08391">
        <ele>1873.6</ele>
        <time>2021-03-10T15:19:00Z</time>
      </trkpt>
      <trkpt lat="45.09105" lon="6.0839">
        <ele>1873.6</ele>
        <time>2021-03-10T15:19:01Z</time>
      </trkpt>
      <trkpt lat="45.09105" lon="6.08385">
        <ele>1872.9</ele>
        <time>2021-03-10T15:19:02Z</time>
      </trkpt>
      <trkpt lat="45.09106" lon="6.08383">
        <ele>1872.9</ele>
        <time>2021-03-10T15:19:03Z</time>
      </trkpt>
      <trkpt lat="45.09106" lon="6.08378">
        <ele>1872.5</ele>
        <time>2021-03-10T15:19:04Z</time>
      </trkpt>
      <trkpt lat="45.09106" lon="6.08377">
        <ele>1872.5</ele>
        <time>2021-03-10T15:19:05Z</time>
      </trkpt>
      <trkpt lat="45.09106" lon="6.08374">
        <ele>1872.2</ele>
        <time>2021-03-10T15:19:06Z</time>
      </trkpt>
      <trkpt lat="45.09107" lon="6.08372">
        <ele>1872</ele>
        <time>2021-03-10T15:19:07Z</time>
      </trkpt>
      <trkpt lat="45.09108" lon="6.0837">
        <ele>1872</ele>
        <time>2021-03-10T15:19:08Z</time>
      </trkpt>
      <trkpt lat="45.09108" lon="6.08367">
        <ele>1871.7</ele>
        <time>2021-03-10T15:19:09Z</time>
      </trkpt>
      <trkpt lat="45.09109" lon="6.08363">
        <ele>1871.4</ele>
        <time>2021-03-10T15:19:10Z</time>
      </trkpt>
      <trkpt lat="45.0911" lon="6.08361">
        <ele>1871.5</ele>
        <time>2021-03-10T15:19:11Z</time>
      </trkpt>
      <trkpt lat="45.0911" lon="6.08358">
        <ele>1871.2</ele>
        <time>2021-03-10T15:19:12Z</time>
      </trkpt>
      <trkpt lat="45.09111" lon="6.08353">
        <ele>1870.8</ele>
        <time>2021-03-10T15:19:13Z</time>
      </trkpt>
      <trkpt lat="45.09112" lon="6.08347">
        <ele>1870.5</ele>
        <time>2021-03-10T15:19:14Z</time>
      </trkpt>
      <trkpt lat="45.09113" lon="6.08339">
        <ele>1869.8</ele>
        <time>2021-03-10T15:19:15Z</time>
      </trkpt>
      <trkpt lat="45.09115" lon="6.0833">
        <ele>1869.1</ele>
        <time>2021-03-10T15:19:16Z</time>
      </trkpt>
      <trkpt lat="45.09116" lon="6.0832">
        <ele>1868.2</ele>
        <time>2021-03-10T15:19:17Z</time>
      </trkpt>
      <trkpt lat="45.09118" lon="6.0831">
        <ele>1867.7</ele>
        <time>2021-03-10T15:19:18Z</time>
      </trkpt>
      <trkpt lat="45.09119" lon="6.083">
        <ele>1867.2</ele>
        <time>2021-03-10T15:19:19Z</time>
      </trkpt>
      <trkpt lat="45.0912" lon="6.0829">
        <ele>1866.6</ele>
        <time>2021-03-10T15:19:20Z</time>
      </trkpt>
      <trkpt lat="45.09121" lon="6.0828">
        <ele>1866.2</ele>
        <time>2021-03-10T15:19:21Z</time>
      </trkpt>
      <trkpt lat="45.09121" lon="6.08273">
        <ele>1865.8</ele>
        <time>2021-03-10T15:19:22Z</time>
      </trkpt>
      <trkpt lat="45.09121" lon="6.08263">
        <ele>1865.3</ele>
        <time>2021-03-10T15:19:23Z</time>
      </trkpt>
      <trkpt lat="45.09121" lon="6.08257">
        <ele>1865.1</ele>
        <time>2021-03-10T15:19:24Z</time>
      </trkpt>
      <trkpt lat="45.09121" lon="6.08252">
        <ele>1864.8</ele>
        <time>2021-03-10T15:19:25Z</time>
      </trkpt>
      <trkpt lat="45.09122" lon="6.08243">
        <ele>1864</ele>
        <time>2021-03-10T15:19:26Z</time>
      </trkpt>
      <trkpt lat="45.09122" lon="6.08234">
        <ele>1863.6</ele>
        <time>2021-03-10T15:19:27Z</time>
      </trkpt>
      <trkpt lat="45.09124" lon="6.08224">
        <ele>1863.3</ele>
        <time>2021-03-10T15:19:28Z</time>
      </trkpt>
      <trkpt lat="45.09124" lon="6.08213">
        <ele>1862.9</ele>
        <time>2021-03-10T15:19:29Z</time>
      </trkpt>
      <trkpt lat="45.09125" lon="6.08204">
        <ele>1862.7</ele>
        <time>2021-03-10T15:19:30Z</time>
      </trkpt>
      <trkpt lat="45.09125" lon="6.08194">
        <ele>1862.4</ele>
        <time>2021-03-10T15:19:31Z</time>
      </trkpt>
      <trkpt lat="45.09126" lon="6.08186">
        <ele>1862</ele>
        <time>2021-03-10T15:19:32Z</time>
      </trkpt>
      <trkpt lat="45.09126" lon="6.08179">
        <ele>1861.8</ele>
        <time>2021-03-10T15:19:33Z</time>
      </trkpt>
      <trkpt lat="45.09127" lon="6.08172">
        <ele>1861.4</ele>
        <time>2021-03-10T15:19:34Z</time>
      </trkpt>
      <trkpt lat="45.09126" lon="6.08167">
        <ele>1861.1</ele>
        <time>2021-03-10T15:19:35Z</time>
      </trkpt>
      <trkpt lat="45.09126" lon="6.0816">
        <ele>1860.6</ele>
        <time>2021-03-10T15:19:36Z</time>
      </trkpt>
      <trkpt lat="45.09127" lon="6.08152">
        <ele>1860</ele>
        <time>2021-03-10T15:19:37Z</time>
      </trkpt>
      <trkpt lat="45.09128" lon="6.08148">
        <ele>1859.8</ele>
        <time>2021-03-10T15:19:38Z</time>
      </trkpt>
      <trkpt lat="45.09127" lon="6.08142">
        <ele>1859.5</ele>
        <time>2021-03-10T15:19:39Z</time>
      </trkpt>
      <trkpt lat="45.09126" lon="6.08138">
        <ele>1859.3</ele>
        <time>2021-03-10T15:19:40Z</time>
      </trkpt>
      <trkpt lat="45.09126" lon="6.08136">
        <ele>1859.3</ele>
        <time>2021-03-10T15:19:41Z</time>
      </trkpt>
      <trkpt lat="45.09126" lon="6.08134">
        <ele>1859</ele>
        <time>2021-03-10T15:19:42Z</time>
      </trkpt>
      <trkpt lat="45.09126" lon="6.08132">
        <ele>1859</ele>
        <time>2021-03-10T15:19:43Z</time>
      </trkpt>
      <trkpt lat="45.09125" lon="6.0813">
        <ele>1858.8</ele>
        <time>2021-03-10T15:19:44Z</time>
      </trkpt>
      <trkpt lat="45.09126" lon="6.08129">
        <ele>1858.8</ele>
        <time>2021-03-10T15:19:45Z</time>
      </trkpt>
      <trkpt lat="45.09127" lon="6.08127">
        <ele>1858.5</ele>
        <time>2021-03-10T15:19:46Z</time>
      </trkpt>
      <trkpt lat="45.09127" lon="6.08127">
        <ele>1858.5</ele>
        <time>2021-03-10T15:19:47Z</time>
      </trkpt>
      <trkpt lat="45.09128" lon="6.08127">
        <ele>1858.5</ele>
        <time>2021-03-10T15:19:48Z</time>
      </trkpt>
      <trkpt lat="45.09128" lon="6.08127">
        <ele>1858.5</ele>
        <time>2021-03-10T15:19:49Z</time>
      </trkpt>
      <trkpt lat="45.09128" lon="6.08127">
        <ele>1858.5</ele>
        <time>2021-03-10T15:19:50Z</time>
      </trkpt>
      <trkpt lat="45.09128" lon="6.08127">
        <ele>1858.5</ele>
        <time>2021-03-10T15:19:51Z</time>
      </trkpt>
      <trkpt lat="45.09128" lon="6.08127">
        <ele>1858.5</ele>
        <time>2021-03-10T15:19:52Z</time>
      </trkpt>
      <trkpt lat="45.09128" lon="6.08127">
        <ele>1858.5</ele>
        <time>2021-03-10T15:19:53Z</time>
      </trkpt>
      <trkpt lat="45.09128" lon="6.08127">
        <ele>1858.5</ele>
        <time>2021-03-10T15:19:54Z</time>
      </trkpt>
      <trkpt lat="45.09129" lon="6.08129">
        <ele>1858.9</ele>
        <time>2021-03-10T15:19:55Z</time>
      </trkpt>
      <trkpt lat="45.09129" lon="6.08128">
        <ele>1858.9</ele>
        <time>2021-03-10T15:19:56Z</time>
      </trkpt>
      <trkpt lat="45.09129" lon="6.08127">
        <ele>1858.7</ele>
        <time>2021-03-10T15:19:57Z</time>
      </trkpt>
      <trkpt lat="45.0913" lon="6.08126">
        <ele>1858.7</ele>
        <time>2021-03-10T15:19:58Z</time>
      </trkpt>
      <trkpt lat="45.09131" lon="6.08125">
        <ele>1858.9</ele>
        <time>2021-03-10T15:19:59Z</time>
      </trkpt>
      <trkpt lat="45.09132" lon="6.08124">
        <ele>1858.9</ele>
        <time>2021-03-10T15:20:00Z</time>
      </trkpt>
      <trkpt lat="45.09135" lon="6.08121">
        <ele>1858.8</ele>
        <time>2021-03-10T15:20:01Z</time>
      </trkpt>
      <trkpt lat="45.09137" lon="6.08121">
        <ele>1858.8</ele>
        <time>2021-03-10T15:20:02Z</time>
      </trkpt>
      <trkpt lat="45.0914" lon="6.0812">
        <ele>1859.2</ele>
        <time>2021-03-10T15:20:03Z</time>
      </trkpt>
      <trkpt lat="45.09143" lon="6.08118">
        <ele>1859</ele>
        <time>2021-03-10T15:20:04Z</time>
      </trkpt>
      <trkpt lat="45.09147" lon="6.08116">
        <ele>1859.2</ele>
        <time>2021-03-10T15:20:05Z</time>
      </trkpt>
      <trkpt lat="45.09152" lon="6.08115">
        <ele>1859.6</ele>
        <time>2021-03-10T15:20:06Z</time>
      </trkpt>
      <trkpt lat="45.09156" lon="6.08113">
        <ele>1859.4</ele>
        <time>2021-03-10T15:20:07Z</time>
      </trkpt>
      <trkpt lat="45.09161" lon="6.08109">
        <ele>1859.4</ele>
        <time>2021-03-10T15:20:08Z</time>
      </trkpt>
      <trkpt lat="45.09166" lon="6.08105">
        <ele>1859.2</ele>
        <time>2021-03-10T15:20:09Z</time>
      </trkpt>
      <trkpt lat="45.0917" lon="6.081">
        <ele>1859</ele>
        <time>2021-03-10T15:20:10Z</time>
      </trkpt>
      <trkpt lat="45.09175" lon="6.08095">
        <ele>1858.9</ele>
        <time>2021-03-10T15:20:11Z</time>
      </trkpt>
      <trkpt lat="45.09179" lon="6.08089">
        <ele>1858.2</ele>
        <time>2021-03-10T15:20:12Z</time>
      </trkpt>
      <trkpt lat="45.09181" lon="6.08083">
        <ele>1857.9</ele>
        <time>2021-03-10T15:20:13Z</time>
      </trkpt>
      <trkpt lat="45.09184" lon="6.08077">
        <ele>1857.7</ele>
        <time>2021-03-10T15:20:14Z</time>
      </trkpt>
      <trkpt lat="45.09187" lon="6.08072">
        <ele>1856.9</ele>
        <time>2021-03-10T15:20:15Z</time>
      </trkpt>
      <trkpt lat="45.0919" lon="6.08066">
        <ele>1856.7</ele>
        <time>2021-03-10T15:20:16Z</time>
      </trkpt>
      <trkpt lat="45.09194" lon="6.0806">
        <ele>1856.6</ele>
        <time>2021-03-10T15:20:17Z</time>
      </trkpt>
      <trkpt lat="45.09196" lon="6.08056">
        <ele>1856.4</ele>
        <time>2021-03-10T15:20:18Z</time>
      </trkpt>
      <trkpt lat="45.09198" lon="6.0805">
        <ele>1855.8</ele>
        <time>2021-03-10T15:20:19Z</time>
      </trkpt>
      <trkpt lat="45.092" lon="6.08045">
        <ele>1855.3</ele>
        <time>2021-03-10T15:20:20Z</time>
      </trkpt>
      <trkpt lat="45.09202" lon="6.08041">
        <ele>1855.1</ele>
        <time>2021-03-10T15:20:21Z</time>
      </trkpt>
      <trkpt lat="45.09204" lon="6.08037">
        <ele>1854.9</ele>
        <time>2021-03-10T15:20:22Z</time>
      </trkpt>
      <trkpt lat="45.09206" lon="6.08033">
        <ele>1854.9</ele>
        <time>2021-03-10T15:20:23Z</time>
      </trkpt>
      <trkpt lat="45.09208" lon="6.08029">
        <ele>1854.7</ele>
        <time>2021-03-10T15:20:24Z</time>
      </trkpt>
      <trkpt lat="45.0921" lon="6.08025">
        <ele>1854.4</ele>
        <time>2021-03-10T15:20:25Z</time>
      </trkpt>
      <trkpt lat="45.09212" lon="6.08022">
        <ele>1853.9</ele>
        <time>2021-03-10T15:20:26Z</time>
      </trkpt>
      <trkpt lat="45.09216" lon="6.08019">
        <ele>1854</ele>
        <time>2021-03-10T15:20:27Z</time>
      </trkpt>
      <trkpt lat="45.09219" lon="6.08016">
        <ele>1853.5</ele>
        <time>2021-03-10T15:20:28Z</time>
      </trkpt>
      <trkpt lat="45.09221" lon="6.08011">
        <ele>1853.3</ele>
        <time>2021-03-10T15:20:29Z</time>
      </trkpt>
      <trkpt lat="45.09224" lon="6.08006">
        <ele>1853.2</ele>
        <time>2021-03-10T15:20:30Z</time>
      </trkpt>
      <trkpt lat="45.09226" lon="6.08002">
        <ele>1853</ele>
        <time>2021-03-10T15:20:31Z</time>
      </trkpt>
      <trkpt lat="45.09229" lon="6.07997">
        <ele>1852.9</ele>
        <time>2021-03-10T15:20:32Z</time>
      </trkpt>
      <trkpt lat="45.09231" lon="6.07992">
        <ele>1852.8</ele>
        <time>2021-03-10T15:20:33Z</time>
      </trkpt>
      <trkpt lat="45.09234" lon="6.07987">
        <ele>1852.4</ele>
        <time>2021-03-10T15:20:34Z</time>
      </trkpt>
      <trkpt lat="45.09236" lon="6.07982">
        <ele>1852.3</ele>
        <time>2021-03-10T15:20:35Z</time>
      </trkpt>
      <trkpt lat="45.09239" lon="6.07978">
        <ele>1852.2</ele>
        <time>2021-03-10T15:20:36Z</time>
      </trkpt>
      <trkpt lat="45.0924" lon="6.07973">
        <ele>1852.1</ele>
        <time>2021-03-10T15:20:37Z</time>
      </trkpt>
      <trkpt lat="45.09242" lon="6.0797">
        <ele>1851.7</ele>
        <time>2021-03-10T15:20:38Z</time>
      </trkpt>
      <trkpt lat="45.09244" lon="6.07965">
        <ele>1851.6</ele>
        <time>2021-03-10T15:20:39Z</time>
      </trkpt>
      <trkpt lat="45.09244" lon="6.07963">
        <ele>1851.2</ele>
        <time>2021-03-10T15:20:40Z</time>
      </trkpt>
      <trkpt lat="45.09246" lon="6.07959">
        <ele>1850.8</ele>
        <time>2021-03-10T15:20:41Z</time>
      </trkpt>
      <trkpt lat="45.09246" lon="6.07957">
        <ele>1851</ele>
        <time>2021-03-10T15:20:42Z</time>
      </trkpt>
      <trkpt lat="45.09248" lon="6.07952">
        <ele>1850.6</ele>
        <time>2021-03-10T15:20:43Z</time>
      </trkpt>
      <trkpt lat="45.09249" lon="6.0795">
        <ele>1850.4</ele>
        <time>2021-03-10T15:20:44Z</time>
      </trkpt>
      <trkpt lat="45.09251" lon="6.07945">
        <ele>1850</ele>
        <time>2021-03-10T15:20:45Z</time>
      </trkpt>
      <trkpt lat="45.09251" lon="6.07943">
        <ele>1850</ele>
        <time>2021-03-10T15:20:46Z</time>
      </trkpt>
      <trkpt lat="45.09253" lon="6.0794">
        <ele>1849.7</ele>
        <time>2021-03-10T15:20:47Z</time>
      </trkpt>
      <trkpt lat="45.09254" lon="6.07936">
        <ele>1849.2</ele>
        <time>2021-03-10T15:20:48Z</time>
      </trkpt>
      <trkpt lat="45.09256" lon="6.07932">
        <ele>1849</ele>
        <time>2021-03-10T15:20:49Z</time>
      </trkpt>
      <trkpt lat="45.09258" lon="6.07929">
        <ele>1848.5</ele>
        <time>2021-03-10T15:20:50Z</time>
      </trkpt>
      <trkpt lat="45.0926" lon="6.07925">
        <ele>1848.4</ele>
        <time>2021-03-10T15:20:51Z</time>
      </trkpt>
      <trkpt lat="45.09262" lon="6.07922">
        <ele>1848.7</ele>
        <time>2021-03-10T15:20:52Z</time>
      </trkpt>
      <trkpt lat="45.09264" lon="6.07918">
        <ele>1848.5</ele>
        <time>2021-03-10T15:20:53Z</time>
      </trkpt>
      <trkpt lat="45.09267" lon="6.07914">
        <ele>1848.1</ele>
        <time>2021-03-10T15:20:54Z</time>
      </trkpt>
      <trkpt lat="45.0927" lon="6.07909">
        <ele>1848</ele>
        <time>2021-03-10T15:20:55Z</time>
      </trkpt>
      <trkpt lat="45.09272" lon="6.07901">
        <ele>1847.6</ele>
        <time>2021-03-10T15:20:56Z</time>
      </trkpt>
      <trkpt lat="45.09273" lon="6.07894">
        <ele>1847</ele>
        <time>2021-03-10T15:20:57Z</time>
      </trkpt>
      <trkpt lat="45.09275" lon="6.07888">
        <ele>1847</ele>
        <time>2021-03-10T15:20:58Z</time>
      </trkpt>
      <trkpt lat="45.09277" lon="6.07884">
        <ele>1847</ele>
        <time>2021-03-10T15:20:59Z</time>
      </trkpt>
      <trkpt lat="45.09278" lon="6.0788">
        <ele>1846.7</ele>
        <time>2021-03-10T15:21:00Z</time>
      </trkpt>
      <trkpt lat="45.09281" lon="6.07876">
        <ele>1846.7</ele>
        <time>2021-03-10T15:21:01Z</time>
      </trkpt>
      <trkpt lat="45.09282" lon="6.07872">
        <ele>1846.4</ele>
        <time>2021-03-10T15:21:02Z</time>
      </trkpt>
      <trkpt lat="45.09285" lon="6.07867">
        <ele>1846.4</ele>
        <time>2021-03-10T15:21:03Z</time>
      </trkpt>
      <trkpt lat="45.09286" lon="6.07862">
        <ele>1846.4</ele>
        <time>2021-03-10T15:21:04Z</time>
      </trkpt>
      <trkpt lat="45.09288" lon="6.07856">
        <ele>1846</ele>
        <time>2021-03-10T15:21:05Z</time>
      </trkpt>
      <trkpt lat="45.0929" lon="6.07849">
        <ele>1845.6</ele>
        <time>2021-03-10T15:21:06Z</time>
      </trkpt>
      <trkpt lat="45.09292" lon="6.07844">
        <ele>1845.2</ele>
        <time>2021-03-10T15:21:07Z</time>
      </trkpt>
      <trkpt lat="45.09294" lon="6.07838">
        <ele>1844.8</ele>
        <time>2021-03-10T15:21:08Z</time>
      </trkpt>
      <trkpt lat="45.09295" lon="6.07832">
        <ele>1844.8</ele>
        <time>2021-03-10T15:21:09Z</time>
      </trkpt>
      <trkpt lat="45.09296" lon="6.07829">
        <ele>1844.5</ele>
        <time>2021-03-10T15:21:10Z</time>
      </trkpt>
      <trkpt lat="45.09296" lon="6.07824">
        <ele>1844.2</ele>
        <time>2021-03-10T15:21:11Z</time>
      </trkpt>
      <trkpt lat="45.09295" lon="6.0782">
        <ele>1844</ele>
        <time>2021-03-10T15:21:12Z</time>
      </trkpt>
      <trkpt lat="45.09295" lon="6.07817">
        <ele>1843.7</ele>
        <time>2021-03-10T15:21:13Z</time>
      </trkpt>
      <trkpt lat="45.09295" lon="6.07813">
        <ele>1843.5</ele>
        <time>2021-03-10T15:21:14Z</time>
      </trkpt>
      <trkpt lat="45.09296" lon="6.07809">
        <ele>1843.2</ele>
        <time>2021-03-10T15:21:15Z</time>
      </trkpt>
      <trkpt lat="45.09296" lon="6.07807">
        <ele>1843.2</ele>
        <time>2021-03-10T15:21:16Z</time>
      </trkpt>
      <trkpt lat="45.09296" lon="6.07803">
        <ele>1842.9</ele>
        <time>2021-03-10T15:21:17Z</time>
      </trkpt>
      <trkpt lat="45.09296" lon="6.07801">
        <ele>1842.6</ele>
        <time>2021-03-10T15:21:18Z</time>
      </trkpt>
      <trkpt lat="45.09297" lon="6.07797">
        <ele>1842.4</ele>
        <time>2021-03-10T15:21:19Z</time>
      </trkpt>
      <trkpt lat="45.09297" lon="6.07792">
        <ele>1842.1</ele>
        <time>2021-03-10T15:21:20Z</time>
      </trkpt>
      <trkpt lat="45.09297" lon="6.0779">
        <ele>1842.1</ele>
        <time>2021-03-10T15:21:21Z</time>
      </trkpt>
      <trkpt lat="45.09297" lon="6.07785">
        <ele>1841.8</ele>
        <time>2021-03-10T15:21:22Z</time>
      </trkpt>
      <trkpt lat="45.09297" lon="6.07783">
        <ele>1841.5</ele>
        <time>2021-03-10T15:21:23Z</time>
      </trkpt>
      <trkpt lat="45.09298" lon="6.07778">
        <ele>1841.7</ele>
        <time>2021-03-10T15:21:24Z</time>
      </trkpt>
      <trkpt lat="45.09298" lon="6.07777">
        <ele>1841.7</ele>
        <time>2021-03-10T15:21:25Z</time>
      </trkpt>
      <trkpt lat="45.09298" lon="6.07772">
        <ele>1841.4</ele>
        <time>2021-03-10T15:21:26Z</time>
      </trkpt>
      <trkpt lat="45.09298" lon="6.0777">
        <ele>1841.1</ele>
        <time>2021-03-10T15:21:27Z</time>
      </trkpt>
      <trkpt lat="45.09299" lon="6.07765">
        <ele>1840.9</ele>
        <time>2021-03-10T15:21:28Z</time>
      </trkpt>
      <trkpt lat="45.09299" lon="6.07764">
        <ele>1840.9</ele>
        <time>2021-03-10T15:21:29Z</time>
      </trkpt>
      <trkpt lat="45.09299" lon="6.07758">
        <ele>1840.4</ele>
        <time>2021-03-10T15:21:30Z</time>
      </trkpt>
      <trkpt lat="45.09299" lon="6.07756">
        <ele>1840.4</ele>
        <time>2021-03-10T15:21:31Z</time>
      </trkpt>
      <trkpt lat="45.093" lon="6.07751">
        <ele>1840.1</ele>
        <time>2021-03-10T15:21:32Z</time>
      </trkpt>
      <trkpt lat="45.093" lon="6.07746">
        <ele>1839.9</ele>
        <time>2021-03-10T15:21:33Z</time>
      </trkpt>
      <trkpt lat="45.093" lon="6.07742">
        <ele>1839.7</ele>
        <time>2021-03-10T15:21:34Z</time>
      </trkpt>
      <trkpt lat="45.093" lon="6.07738">
        <ele>1839.5</ele>
        <time>2021-03-10T15:21:35Z</time>
      </trkpt>
      <trkpt lat="45.09301" lon="6.07734">
        <ele>1839.7</ele>
        <time>2021-03-10T15:21:36Z</time>
      </trkpt>
      <trkpt lat="45.09302" lon="6.0773">
        <ele>1839.5</ele>
        <time>2021-03-10T15:21:37Z</time>
      </trkpt>
      <trkpt lat="45.09303" lon="6.07725">
        <ele>1839.4</ele>
        <time>2021-03-10T15:21:38Z</time>
      </trkpt>
      <trkpt lat="45.09305" lon="6.0772">
        <ele>1839.7</ele>
        <time>2021-03-10T15:21:39Z</time>
      </trkpt>
      <trkpt lat="45.09306" lon="6.07715">
        <ele>1839.6</ele>
        <time>2021-03-10T15:21:40Z</time>
      </trkpt>
      <trkpt lat="45.09307" lon="6.07711">
        <ele>1839.9</ele>
        <time>2021-03-10T15:21:41Z</time>
      </trkpt>
      <trkpt lat="45.09308" lon="6.07707">
        <ele>1839.9</ele>
        <time>2021-03-10T15:21:42Z</time>
      </trkpt>
      <trkpt lat="45.09309" lon="6.07702">
        <ele>1839.9</ele>
        <time>2021-03-10T15:21:43Z</time>
      </trkpt>
      <trkpt lat="45.09309" lon="6.077">
        <ele>1839.9</ele>
        <time>2021-03-10T15:21:44Z</time>
      </trkpt>
      <trkpt lat="45.0931" lon="6.07696">
        <ele>1840.3</ele>
        <time>2021-03-10T15:21:45Z</time>
      </trkpt>
      <trkpt lat="45.09311" lon="6.07694">
        <ele>1840.3</ele>
        <time>2021-03-10T15:21:46Z</time>
      </trkpt>
      <trkpt lat="45.09312" lon="6.07691">
        <ele>1840.4</ele>
        <time>2021-03-10T15:21:47Z</time>
      </trkpt>
      <trkpt lat="45.09313" lon="6.07689">
        <ele>1840.7</ele>
        <time>2021-03-10T15:21:48Z</time>
      </trkpt>
      <trkpt lat="45.09315" lon="6.07685">
        <ele>1840.8</ele>
        <time>2021-03-10T15:21:49Z</time>
      </trkpt>
      <trkpt lat="45.09316" lon="6.07683">
        <ele>1841.1</ele>
        <time>2021-03-10T15:21:50Z</time>
      </trkpt>
      <trkpt lat="45.09319" lon="6.07679">
        <ele>1841.5</ele>
        <time>2021-03-10T15:21:51Z</time>
      </trkpt>
      <trkpt lat="45.09322" lon="6.07675">
        <ele>1841.8</ele>
        <time>2021-03-10T15:21:52Z</time>
      </trkpt>
      <trkpt lat="45.09324" lon="6.07671">
        <ele>1841.9</ele>
        <time>2021-03-10T15:21:53Z</time>
      </trkpt>
      <trkpt lat="45.09326" lon="6.07667">
        <ele>1842.2</ele>
        <time>2021-03-10T15:21:54Z</time>
      </trkpt>
      <trkpt lat="45.09327" lon="6.07662">
        <ele>1842.2</ele>
        <time>2021-03-10T15:21:55Z</time>
      </trkpt>
      <trkpt lat="45.09327" lon="6.0766">
        <ele>1842.2</ele>
        <time>2021-03-10T15:21:56Z</time>
      </trkpt>
      <trkpt lat="45.09326" lon="6.07656">
        <ele>1842.2</ele>
        <time>2021-03-10T15:21:57Z</time>
      </trkpt>
      <trkpt lat="45.09326" lon="6.07654">
        <ele>1842.2</ele>
        <time>2021-03-10T15:21:58Z</time>
      </trkpt>
      <trkpt lat="45.09325" lon="6.07649">
        <ele>1841.9</ele>
        <time>2021-03-10T15:21:59Z</time>
      </trkpt>
      <trkpt lat="45.09324" lon="6.07647">
        <ele>1841.9</ele>
        <time>2021-03-10T15:22:00Z</time>
      </trkpt>
      <trkpt lat="45.09324" lon="6.07643">
        <ele>1841.8</ele>
        <time>2021-03-10T15:22:01Z</time>
      </trkpt>
      <trkpt lat="45.09323" lon="6.07639">
        <ele>1841.7</ele>
        <time>2021-03-10T15:22:02Z</time>
      </trkpt>
      <trkpt lat="45.09323" lon="6.07635">
        <ele>1841.6</ele>
        <time>2021-03-10T15:22:03Z</time>
      </trkpt>
      <trkpt lat="45.09323" lon="6.07633">
        <ele>1841.4</ele>
        <time>2021-03-10T15:22:04Z</time>
      </trkpt>
      <trkpt lat="45.09324" lon="6.0763">
        <ele>1841.4</ele>
        <time>2021-03-10T15:22:05Z</time>
      </trkpt>
      <trkpt lat="45.09324" lon="6.07629">
        <ele>1841.3</ele>
        <time>2021-03-10T15:22:06Z</time>
      </trkpt>
      <trkpt lat="45.09324" lon="6.07628">
        <ele>1841.3</ele>
        <time>2021-03-10T15:22:07Z</time>
      </trkpt>
      <trkpt lat="45.09325" lon="6.07626">
        <ele>1841.3</ele>
        <time>2021-03-10T15:22:08Z</time>
      </trkpt>
      <trkpt lat="45.09325" lon="6.07624">
        <ele>1841.4</ele>
        <time>2021-03-10T15:22:09Z</time>
      </trkpt>
      <trkpt lat="45.09327" lon="6.0762">
        <ele>1841.3</ele>
        <time>2021-03-10T15:22:10Z</time>
      </trkpt>
      <trkpt lat="45.09327" lon="6.07619">
        <ele>1841.3</ele>
        <time>2021-03-10T15:22:11Z</time>
      </trkpt>
      <trkpt lat="45.09328" lon="6.07616">
        <ele>1841.4</ele>
        <time>2021-03-10T15:22:12Z</time>
      </trkpt>
      <trkpt lat="45.09329" lon="6.07614">
        <ele>1841.4</ele>
        <time>2021-03-10T15:22:13Z</time>
      </trkpt>
      <trkpt lat="45.09329" lon="6.07613">
        <ele>1841.4</ele>
        <time>2021-03-10T15:22:14Z</time>
      </trkpt>
      <trkpt lat="45.0933" lon="6.07611">
        <ele>1841.2</ele>
        <time>2021-03-10T15:22:15Z</time>
      </trkpt>
      <trkpt lat="45.0933" lon="6.07611">
        <ele>1841.2</ele>
        <time>2021-03-10T15:22:16Z</time>
      </trkpt>
      <trkpt lat="45.0933" lon="6.0761">
        <ele>1841.2</ele>
        <time>2021-03-10T15:22:17Z</time>
      </trkpt>
      <trkpt lat="45.09331" lon="6.07609">
        <ele>1841.6</ele>
        <time>2021-03-10T15:22:18Z</time>
      </trkpt>
      <trkpt lat="45.09331" lon="6.07608">
        <ele>1841.6</ele>
        <time>2021-03-10T15:22:19Z</time>
      </trkpt>
      <trkpt lat="45.09332" lon="6.07608">
        <ele>1841.4</ele>
        <time>2021-03-10T15:22:20Z</time>
      </trkpt>
      <trkpt lat="45.09332" lon="6.07607">
        <ele>1841.4</ele>
        <time>2021-03-10T15:22:21Z</time>
      </trkpt>
      <trkpt lat="45.09332" lon="6.07606">
        <ele>1841.4</ele>
        <time>2021-03-10T15:22:22Z</time>
      </trkpt>
      <trkpt lat="45.09332" lon="6.07604">
        <ele>1841.4</ele>
        <time>2021-03-10T15:22:23Z</time>
      </trkpt>
      <trkpt lat="45.09332" lon="6.07603">
        <ele>1841.3</ele>
        <time>2021-03-10T15:22:24Z</time>
      </trkpt>
      <trkpt lat="45.09333" lon="6.07601">
        <ele>1841.3</ele>
        <time>2021-03-10T15:22:25Z</time>
      </trkpt>
      <trkpt lat="45.09333" lon="6.07599">
        <ele>1841.1</ele>
        <time>2021-03-10T15:22:26Z</time>
      </trkpt>
      <trkpt lat="45.09334" lon="6.07599">
        <ele>1841.1</ele>
        <time>2021-03-10T15:22:27Z</time>
      </trkpt>
      <trkpt lat="45.09334" lon="6.07598">
        <ele>1841.1</ele>
        <time>2021-03-10T15:22:28Z</time>
      </trkpt>
      <trkpt lat="45.09334" lon="6.07597">
        <ele>1841.4</ele>
        <time>2021-03-10T15:22:29Z</time>
      </trkpt>
      <trkpt lat="45.09334" lon="6.07597">
        <ele>1841.4</ele>
        <time>2021-03-10T15:22:30Z</time>
      </trkpt>
      <trkpt lat="45.09335" lon="6.07596">
        <ele>1841.4</ele>
        <time>2021-03-10T15:22:31Z</time>
      </trkpt>
      <trkpt lat="45.09335" lon="6.07596">
        <ele>1841.4</ele>
        <time>2021-03-10T15:22:32Z</time>
      </trkpt>
      <trkpt lat="45.09335" lon="6.07595">
        <ele>1841.3</ele>
        <time>2021-03-10T15:22:33Z</time>
      </trkpt>
      <trkpt lat="45.09335" lon="6.07595">
        <ele>1841.3</ele>
        <time>2021-03-10T15:22:34Z</time>
      </trkpt>
      <trkpt lat="45.09335" lon="6.07594">
        <ele>1841.3</ele>
        <time>2021-03-10T15:22:35Z</time>
      </trkpt>
      <trkpt lat="45.09336" lon="6.07593">
        <ele>1841.3</ele>
        <time>2021-03-10T15:22:36Z</time>
      </trkpt>
      <trkpt lat="45.09337" lon="6.07591">
        <ele>1841.3</ele>
        <time>2021-03-10T15:22:37Z</time>
      </trkpt>
      <trkpt lat="45.09338" lon="6.07589">
        <ele>1841.5</ele>
        <time>2021-03-10T15:22:38Z</time>
      </trkpt>
      <trkpt lat="45.09338" lon="6.07588">
        <ele>1841.5</ele>
        <time>2021-03-10T15:22:39Z</time>
      </trkpt>
      <trkpt lat="45.09339" lon="6.07587">
        <ele>1841.5</ele>
        <time>2021-03-10T15:22:40Z</time>
      </trkpt>
      <trkpt lat="45.09339" lon="6.07586">
        <ele>1841.5</ele>
        <time>2021-03-10T15:22:41Z</time>
      </trkpt>
      <trkpt lat="45.09339" lon="6.07585">
        <ele>1841.5</ele>
        <time>2021-03-10T15:22:42Z</time>
      </trkpt>
      <trkpt lat="45.0934" lon="6.07585">
        <ele>1841.5</ele>
        <time>2021-03-10T15:22:43Z</time>
      </trkpt>
      <trkpt lat="45.0934" lon="6.07584">
        <ele>1841.8</ele>
        <time>2021-03-10T15:22:44Z</time>
      </trkpt>
      <trkpt lat="45.0934" lon="6.07583">
        <ele>1841.8</ele>
        <time>2021-03-10T15:22:45Z</time>
      </trkpt>
      <trkpt lat="45.0934" lon="6.07583">
        <ele>1841.8</ele>
        <time>2021-03-10T15:22:46Z</time>
      </trkpt>
      <trkpt lat="45.0934" lon="6.07582">
        <ele>1841.7</ele>
        <time>2021-03-10T15:22:47Z</time>
      </trkpt>
      <trkpt lat="45.09341" lon="6.07582">
        <ele>1841.7</ele>
        <time>2021-03-10T15:22:48Z</time>
      </trkpt>
      <trkpt lat="45.09341" lon="6.07582">
        <ele>1841.7</ele>
        <time>2021-03-10T15:22:49Z</time>
      </trkpt>
      <trkpt lat="45.09342" lon="6.07581">
        <ele>1841.7</ele>
        <time>2021-03-10T15:22:50Z</time>
      </trkpt>
      <trkpt lat="45.09342" lon="6.0758">
        <ele>1841.7</ele>
        <time>2021-03-10T15:22:51Z</time>
      </trkpt>
      <trkpt lat="45.09343" lon="6.07578">
        <ele>1841.6</ele>
        <time>2021-03-10T15:22:52Z</time>
      </trkpt>
      <trkpt lat="45.09343" lon="6.07576">
        <ele>1842</ele>
        <time>2021-03-10T15:22:53Z</time>
      </trkpt>
      <trkpt lat="45.09344" lon="6.07576">
        <ele>1842</ele>
        <time>2021-03-10T15:22:54Z</time>
      </trkpt>
      <trkpt lat="45.09345" lon="6.07575">
        <ele>1842</ele>
        <time>2021-03-10T15:22:55Z</time>
      </trkpt>
      <trkpt lat="45.09346" lon="6.07574">
        <ele>1841.9</ele>
        <time>2021-03-10T15:22:56Z</time>
      </trkpt>
      <trkpt lat="45.09346" lon="6.07573">
        <ele>1842.2</ele>
        <time>2021-03-10T15:22:57Z</time>
      </trkpt>
      <trkpt lat="45.09347" lon="6.07571">
        <ele>1842.2</ele>
        <time>2021-03-10T15:22:58Z</time>
      </trkpt>
      <trkpt lat="45.09347" lon="6.07569">
        <ele>1842.2</ele>
        <time>2021-03-10T15:22:59Z</time>
      </trkpt>
      <trkpt lat="45.09348" lon="6.07567">
        <ele>1842.2</ele>
        <time>2021-03-10T15:23:00Z</time>
      </trkpt>
      <trkpt lat="45.09348" lon="6.07564">
        <ele>1842.1</ele>
        <time>2021-03-10T15:23:01Z</time>
      </trkpt>
      <trkpt lat="45.09349" lon="6.07563">
        <ele>1842.1</ele>
        <time>2021-03-10T15:23:02Z</time>
      </trkpt>
      <trkpt lat="45.09349" lon="6.07561">
        <ele>1842.4</ele>
        <time>2021-03-10T15:23:03Z</time>
      </trkpt>
      <trkpt lat="45.0935" lon="6.07561">
        <ele>1842.4</ele>
        <time>2021-03-10T15:23:04Z</time>
      </trkpt>
      <trkpt lat="45.09351" lon="6.0756">
        <ele>1842.4</ele>
        <time>2021-03-10T15:23:05Z</time>
      </trkpt>
      <trkpt lat="45.09352" lon="6.07559">
        <ele>1842.4</ele>
        <time>2021-03-10T15:23:06Z</time>
      </trkpt>
      <trkpt lat="45.09353" lon="6.07558">
        <ele>1842.7</ele>
        <time>2021-03-10T15:23:07Z</time>
      </trkpt>
      <trkpt lat="45.09354" lon="6.07556">
        <ele>1842.6</ele>
        <time>2021-03-10T15:23:08Z</time>
      </trkpt>
      <trkpt lat="45.09354" lon="6.07554">
        <ele>1842.6</ele>
        <time>2021-03-10T15:23:09Z</time>
      </trkpt>
      <trkpt lat="45.09355" lon="6.0755">
        <ele>1842.9</ele>
        <time>2021-03-10T15:23:10Z</time>
      </trkpt>
      <trkpt lat="45.09356" lon="6.07546">
        <ele>1842.8</ele>
        <time>2021-03-10T15:23:11Z</time>
      </trkpt>
      <trkpt lat="45.09357" lon="6.07541">
        <ele>1842.5</ele>
        <time>2021-03-10T15:23:12Z</time>
      </trkpt>
      <trkpt lat="45.09358" lon="6.07536">
        <ele>1842.3</ele>
        <time>2021-03-10T15:23:13Z</time>
      </trkpt>
      <trkpt lat="45.09358" lon="6.07532">
        <ele>1842.4</ele>
        <time>2021-03-10T15:23:14Z</time>
      </trkpt>
      <trkpt lat="45.09358" lon="6.07528">
        <ele>1842.2</ele>
        <time>2021-03-10T15:23:15Z</time>
      </trkpt>
      <trkpt lat="45.09359" lon="6.07524">
        <ele>1841.9</ele>
        <time>2021-03-10T15:23:16Z</time>
      </trkpt>
      <trkpt lat="45.0936" lon="6.0752">
        <ele>1841.7</ele>
        <time>2021-03-10T15:23:17Z</time>
      </trkpt>
      <trkpt lat="45.09362" lon="6.07516">
        <ele>1841.8</ele>
        <time>2021-03-10T15:23:18Z</time>
      </trkpt>
      <trkpt lat="45.09363" lon="6.07515">
        <ele>1841.8</ele>
        <time>2021-03-10T15:23:19Z</time>
      </trkpt>
      <trkpt lat="45.09365" lon="6.07511">
        <ele>1842</ele>
        <time>2021-03-10T15:23:20Z</time>
      </trkpt>
      <trkpt lat="45.09366" lon="6.07507">
        <ele>1841.8</ele>
        <time>2021-03-10T15:23:21Z</time>
      </trkpt>
      <trkpt lat="45.09367" lon="6.07504">
        <ele>1841.6</ele>
        <time>2021-03-10T15:23:22Z</time>
      </trkpt>
      <trkpt lat="45.09368" lon="6.075">
        <ele>1841.7</ele>
        <time>2021-03-10T15:23:23Z</time>
      </trkpt>
      <trkpt lat="45.09369" lon="6.07494">
        <ele>1841.5</ele>
        <time>2021-03-10T15:23:24Z</time>
      </trkpt>
      <trkpt lat="45.0937" lon="6.07488">
        <ele>1841.1</ele>
        <time>2021-03-10T15:23:25Z</time>
      </trkpt>
      <trkpt lat="45.09371" lon="6.07482">
        <ele>1841.1</ele>
        <time>2021-03-10T15:23:26Z</time>
      </trkpt>
      <trkpt lat="45.09371" lon="6.07478">
        <ele>1840.9</ele>
        <time>2021-03-10T15:23:27Z</time>
      </trkpt>
      <trkpt lat="45.09372" lon="6.07472">
        <ele>1840.6</ele>
        <time>2021-03-10T15:23:28Z</time>
      </trkpt>
      <trkpt lat="45.09373" lon="6.07467">
        <ele>1840.4</ele>
        <time>2021-03-10T15:23:29Z</time>
      </trkpt>
      <trkpt lat="45.09374" lon="6.07461">
        <ele>1840.1</ele>
        <time>2021-03-10T15:23:30Z</time>
      </trkpt>
      <trkpt lat="45.09375" lon="6.07455">
        <ele>1839.9</ele>
        <time>2021-03-10T15:23:31Z</time>
      </trkpt>
      <trkpt lat="45.09377" lon="6.07451">
        <ele>1839.9</ele>
        <time>2021-03-10T15:23:32Z</time>
      </trkpt>
      <trkpt lat="45.09378" lon="6.07449">
        <ele>1839.6</ele>
        <time>2021-03-10T15:23:33Z</time>
      </trkpt>
      <trkpt lat="45.0938" lon="6.07446">
        <ele>1839.8</ele>
        <time>2021-03-10T15:23:34Z</time>
      </trkpt>
      <trkpt lat="45.09381" lon="6.07445">
        <ele>1839.8</ele>
        <time>2021-03-10T15:23:35Z</time>
      </trkpt>
      <trkpt lat="45.09382" lon="6.07444">
        <ele>1839.6</ele>
        <time>2021-03-10T15:23:36Z</time>
      </trkpt>
      <trkpt lat="45.09384" lon="6.07443">
        <ele>1839.8</ele>
        <time>2021-03-10T15:23:37Z</time>
      </trkpt>
      <trkpt lat="45.09385" lon="6.07443">
        <ele>1839.8</ele>
        <time>2021-03-10T15:23:38Z</time>
      </trkpt>
      <trkpt lat="45.09386" lon="6.07442">
        <ele>1840</ele>
        <time>2021-03-10T15:23:39Z</time>
      </trkpt>
      <trkpt lat="45.09388" lon="6.07442">
        <ele>1840</ele>
        <time>2021-03-10T15:23:40Z</time>
      </trkpt>
      <trkpt lat="45.09389" lon="6.07441">
        <ele>1840.2</ele>
        <time>2021-03-10T15:23:41Z</time>
      </trkpt>
      <trkpt lat="45.09392" lon="6.0744">
        <ele>1840.2</ele>
        <time>2021-03-10T15:23:42Z</time>
      </trkpt>
      <trkpt lat="45.09394" lon="6.0744">
        <ele>1840.2</ele>
        <time>2021-03-10T15:23:43Z</time>
      </trkpt>
      <trkpt lat="45.09395" lon="6.07439">
        <ele>1840.4</ele>
        <time>2021-03-10T15:23:44Z</time>
      </trkpt>
      <trkpt lat="45.09397" lon="6.07439">
        <ele>1840.4</ele>
        <time>2021-03-10T15:23:45Z</time>
      </trkpt>
      <trkpt lat="45.09398" lon="6.07438">
        <ele>1840.5</ele>
        <time>2021-03-10T15:23:46Z</time>
      </trkpt>
      <trkpt lat="45.09399" lon="6.07437">
        <ele>1840.5</ele>
        <time>2021-03-10T15:23:47Z</time>
      </trkpt>
      <trkpt lat="45.09401" lon="6.07437">
        <ele>1840.7</ele>
        <time>2021-03-10T15:23:48Z</time>
      </trkpt>
      <trkpt lat="45.09402" lon="6.07437">
        <ele>1840.5</ele>
        <time>2021-03-10T15:23:49Z</time>
      </trkpt>
      <trkpt lat="45.09405" lon="6.07437">
        <ele>1840.8</ele>
        <time>2021-03-10T15:23:50Z</time>
      </trkpt>
      <trkpt lat="45.09406" lon="6.07437">
        <ele>1840.8</ele>
        <time>2021-03-10T15:23:51Z</time>
      </trkpt>
      <trkpt lat="45.09408" lon="6.07437">
        <ele>1841</ele>
        <time>2021-03-10T15:23:52Z</time>
      </trkpt>
      <trkpt lat="45.09409" lon="6.07437">
        <ele>1841</ele>
        <time>2021-03-10T15:23:53Z</time>
      </trkpt>
      <trkpt lat="45.09411" lon="6.07437">
        <ele>1841.2</ele>
        <time>2021-03-10T15:23:54Z</time>
      </trkpt>
      <trkpt lat="45.09412" lon="6.07437">
        <ele>1841.2</ele>
        <time>2021-03-10T15:23:55Z</time>
      </trkpt>
      <trkpt lat="45.09414" lon="6.07436">
        <ele>1841.3</ele>
        <time>2021-03-10T15:23:56Z</time>
      </trkpt>
      <trkpt lat="45.09415" lon="6.07436">
        <ele>1841.3</ele>
        <time>2021-03-10T15:23:57Z</time>
      </trkpt>
      <trkpt lat="45.09417" lon="6.07434">
        <ele>1841.6</ele>
        <time>2021-03-10T15:23:58Z</time>
      </trkpt>
      <trkpt lat="45.09418" lon="6.07434">
        <ele>1841.6</ele>
        <time>2021-03-10T15:23:59Z</time>
      </trkpt>
      <trkpt lat="45.09418" lon="6.07433">
        <ele>1841.6</ele>
        <time>2021-03-10T15:24:00Z</time>
      </trkpt>
      <trkpt lat="45.0942" lon="6.07432">
        <ele>1841.7</ele>
        <time>2021-03-10T15:24:01Z</time>
      </trkpt>
      <trkpt lat="45.09421" lon="6.07432">
        <ele>1841.7</ele>
        <time>2021-03-10T15:24:02Z</time>
      </trkpt>
      <trkpt lat="45.09423" lon="6.07431">
        <ele>1842</ele>
        <time>2021-03-10T15:24:03Z</time>
      </trkpt>
      <trkpt lat="45.09424" lon="6.07431">
        <ele>1842</ele>
        <time>2021-03-10T15:24:04Z</time>
      </trkpt>
      <trkpt lat="45.09425" lon="6.0743">
        <ele>1842</ele>
        <time>2021-03-10T15:24:05Z</time>
      </trkpt>
      <trkpt lat="45.09426" lon="6.07429">
        <ele>1842.2</ele>
        <time>2021-03-10T15:24:06Z</time>
      </trkpt>
      <trkpt lat="45.09427" lon="6.07428">
        <ele>1842.1</ele>
        <time>2021-03-10T15:24:07Z</time>
      </trkpt>
      <trkpt lat="45.09429" lon="6.07427">
        <ele>1842.4</ele>
        <time>2021-03-10T15:24:08Z</time>
      </trkpt>
      <trkpt lat="45.0943" lon="6.07426">
        <ele>1842.4</ele>
        <time>2021-03-10T15:24:09Z</time>
      </trkpt>
      <trkpt lat="45.09431" lon="6.07426">
        <ele>1842.7</ele>
        <time>2021-03-10T15:24:10Z</time>
      </trkpt>
      <trkpt lat="45.09432" lon="6.07425">
        <ele>1842.7</ele>
        <time>2021-03-10T15:24:11Z</time>
      </trkpt>
      <trkpt lat="45.09433" lon="6.07424">
        <ele>1842.7</ele>
        <time>2021-03-10T15:24:12Z</time>
      </trkpt>
      <trkpt lat="45.09433" lon="6.07424">
        <ele>1842.6</ele>
        <time>2021-03-10T15:24:13Z</time>
      </trkpt>
      <trkpt lat="45.09434" lon="6.07422">
        <ele>1842.6</ele>
        <time>2021-03-10T15:24:14Z</time>
      </trkpt>
      <trkpt lat="45.09434" lon="6.07421">
        <ele>1842.9</ele>
        <time>2021-03-10T15:24:15Z</time>
      </trkpt>
      <trkpt lat="45.09434" lon="6.0742">
        <ele>1842.9</ele>
        <time>2021-03-10T15:24:16Z</time>
      </trkpt>
      <trkpt lat="45.09435" lon="6.07419">
        <ele>1842.8</ele>
        <time>2021-03-10T15:24:17Z</time>
      </trkpt>
      <trkpt lat="45.09436" lon="6.07417">
        <ele>1842.8</ele>
        <time>2021-03-10T15:24:18Z</time>
      </trkpt>
      <trkpt lat="45.09436" lon="6.07416">
        <ele>1842.8</ele>
        <time>2021-03-10T15:24:19Z</time>
      </trkpt>
      <trkpt lat="45.09437" lon="6.07415">
        <ele>1842.7</ele>
        <time>2021-03-10T15:24:20Z</time>
      </trkpt>
      <trkpt lat="45.09438" lon="6.07412">
        <ele>1843</ele>
        <time>2021-03-10T15:24:21Z</time>
      </trkpt>
      <trkpt lat="45.09439" lon="6.07411">
        <ele>1842.9</ele>
        <time>2021-03-10T15:24:22Z</time>
      </trkpt>
      <trkpt lat="45.09439" lon="6.0741">
        <ele>1842.9</ele>
        <time>2021-03-10T15:24:23Z</time>
      </trkpt>
      <trkpt lat="45.0944" lon="6.07409">
        <ele>1843.2</ele>
        <time>2021-03-10T15:24:24Z</time>
      </trkpt>
      <trkpt lat="45.0944" lon="6.07408">
        <ele>1843.2</ele>
        <time>2021-03-10T15:24:25Z</time>
      </trkpt>
      <trkpt lat="45.09442" lon="6.07405">
        <ele>1843.2</ele>
        <time>2021-03-10T15:24:26Z</time>
      </trkpt>
      <trkpt lat="45.09442" lon="6.07404">
        <ele>1843.2</ele>
        <time>2021-03-10T15:24:27Z</time>
      </trkpt>
      <trkpt lat="45.09443" lon="6.07402">
        <ele>1843.5</ele>
        <time>2021-03-10T15:24:28Z</time>
      </trkpt>
      <trkpt lat="45.09444" lon="6.07398">
        <ele>1843.3</ele>
        <time>2021-03-10T15:24:29Z</time>
      </trkpt>
      <trkpt lat="45.09445" lon="6.07396">
        <ele>1843.3</ele>
        <time>2021-03-10T15:24:30Z</time>
      </trkpt>
      <trkpt lat="45.09446" lon="6.07392">
        <ele>1843.2</ele>
        <time>2021-03-10T15:24:31Z</time>
      </trkpt>
      <trkpt lat="45.09446" lon="6.07391">
        <ele>1843.5</ele>
        <time>2021-03-10T15:24:32Z</time>
      </trkpt>
      <trkpt lat="45.09446" lon="6.07389">
        <ele>1843.4</ele>
        <time>2021-03-10T15:24:33Z</time>
      </trkpt>
      <trkpt lat="45.09447" lon="6.07387">
        <ele>1843.4</ele>
        <time>2021-03-10T15:24:34Z</time>
      </trkpt>
      <trkpt lat="45.09449" lon="6.07386">
        <ele>1843.4</ele>
        <time>2021-03-10T15:24:35Z</time>
      </trkpt>
      <trkpt lat="45.09449" lon="6.07385">
        <ele>1843.6</ele>
        <time>2021-03-10T15:24:36Z</time>
      </trkpt>
      <trkpt lat="45.0945" lon="6.07384">
        <ele>1843.6</ele>
        <time>2021-03-10T15:24:37Z</time>
      </trkpt>
      <trkpt lat="45.09451" lon="6.07383">
        <ele>1843.6</ele>
        <time>2021-03-10T15:24:38Z</time>
      </trkpt>
      <trkpt lat="45.09452" lon="6.0738">
        <ele>1843.8</ele>
        <time>2021-03-10T15:24:39Z</time>
      </trkpt>
      <trkpt lat="45.09453" lon="6.07378">
        <ele>1843.8</ele>
        <time>2021-03-10T15:24:40Z</time>
      </trkpt>
      <trkpt lat="45.09454" lon="6.07376">
        <ele>1843.7</ele>
        <time>2021-03-10T15:24:41Z</time>
      </trkpt>
      <trkpt lat="45.09454" lon="6.07374">
        <ele>1843.7</ele>
        <time>2021-03-10T15:24:42Z</time>
      </trkpt>
      <trkpt lat="45.09455" lon="6.07372">
        <ele>1844.1</ele>
        <time>2021-03-10T15:24:43Z</time>
      </trkpt>
      <trkpt lat="45.09457" lon="6.0737">
        <ele>1844</ele>
        <time>2021-03-10T15:24:44Z</time>
      </trkpt>
      <trkpt lat="45.09458" lon="6.07368">
        <ele>1844</ele>
        <time>2021-03-10T15:24:45Z</time>
      </trkpt>
      <trkpt lat="45.09459" lon="6.07365">
        <ele>1844.2</ele>
        <time>2021-03-10T15:24:46Z</time>
      </trkpt>
      <trkpt lat="45.09459" lon="6.07363">
        <ele>1844</ele>
        <time>2021-03-10T15:24:47Z</time>
      </trkpt>
      <trkpt lat="45.0946" lon="6.07359">
        <ele>1843.9</ele>
        <time>2021-03-10T15:24:48Z</time>
      </trkpt>
      <trkpt lat="45.0946" lon="6.07358">
        <ele>1843.9</ele>
        <time>2021-03-10T15:24:49Z</time>
      </trkpt>
      <trkpt lat="45.09461" lon="6.07354">
        <ele>1843.7</ele>
        <time>2021-03-10T15:24:50Z</time>
      </trkpt>
      <trkpt lat="45.09461" lon="6.07353">
        <ele>1843.7</ele>
        <time>2021-03-10T15:24:51Z</time>
      </trkpt>
      <trkpt lat="45.09461" lon="6.07351">
        <ele>1843.5</ele>
        <time>2021-03-10T15:24:52Z</time>
      </trkpt>
      <trkpt lat="45.09462" lon="6.07348">
        <ele>1843.9</ele>
        <time>2021-03-10T15:24:53Z</time>
      </trkpt>
      <trkpt lat="45.09462" lon="6.07345">
        <ele>1843.7</ele>
        <time>2021-03-10T15:24:54Z</time>
      </trkpt>
      <trkpt lat="45.09462" lon="6.07343">
        <ele>1843.7</ele>
        <time>2021-03-10T15:24:55Z</time>
      </trkpt>
      <trkpt lat="45.09462" lon="6.0734">
        <ele>1843.5</ele>
        <time>2021-03-10T15:24:56Z</time>
      </trkpt>
      <trkpt lat="45.09463" lon="6.07339">
        <ele>1843.5</ele>
        <time>2021-03-10T15:24:57Z</time>
      </trkpt>
      <trkpt lat="45.09463" lon="6.07338">
        <ele>1843.5</ele>
        <time>2021-03-10T15:24:58Z</time>
      </trkpt>
      <trkpt lat="45.09463" lon="6.07336">
        <ele>1843.2</ele>
        <time>2021-03-10T15:24:59Z</time>
      </trkpt>
      <trkpt lat="45.09463" lon="6.07334">
        <ele>1843.2</ele>
        <time>2021-03-10T15:25:00Z</time>
      </trkpt>
      <trkpt lat="45.09464" lon="6.0733">
        <ele>1843.5</ele>
        <time>2021-03-10T15:25:01Z</time>
      </trkpt>
      <trkpt lat="45.09464" lon="6.07328">
        <ele>1843.2</ele>
        <time>2021-03-10T15:25:02Z</time>
      </trkpt>
      <trkpt lat="45.09466" lon="6.07323">
        <ele>1843</ele>
        <time>2021-03-10T15:25:03Z</time>
      </trkpt>
      <trkpt lat="45.09466" lon="6.07322">
        <ele>1843</ele>
        <time>2021-03-10T15:25:04Z</time>
      </trkpt>
      <trkpt lat="45.09467" lon="6.07316">
        <ele>1842.9</ele>
        <time>2021-03-10T15:25:05Z</time>
      </trkpt>
      <trkpt lat="45.09468" lon="6.07314">
        <ele>1842.9</ele>
        <time>2021-03-10T15:25:06Z</time>
      </trkpt>
      <trkpt lat="45.09468" lon="6.0731">
        <ele>1842.6</ele>
        <time>2021-03-10T15:25:07Z</time>
      </trkpt>
      <trkpt lat="45.09469" lon="6.07306">
        <ele>1842.3</ele>
        <time>2021-03-10T15:25:08Z</time>
      </trkpt>
      <trkpt lat="45.09469" lon="6.07301">
        <ele>1842</ele>
        <time>2021-03-10T15:25:09Z</time>
      </trkpt>
      <trkpt lat="45.09469" lon="6.07299">
        <ele>1841.6</ele>
        <time>2021-03-10T15:25:10Z</time>
      </trkpt>
      <trkpt lat="45.09469" lon="6.07294">
        <ele>1841.3</ele>
        <time>2021-03-10T15:25:11Z</time>
      </trkpt>
      <trkpt lat="45.09469" lon="6.07292">
        <ele>1841.3</ele>
        <time>2021-03-10T15:25:12Z</time>
      </trkpt>
      <trkpt lat="45.09468" lon="6.07288">
        <ele>1841.1</ele>
        <time>2021-03-10T15:25:13Z</time>
      </trkpt>
      <trkpt lat="45.09468" lon="6.07283">
        <ele>1840.8</ele>
        <time>2021-03-10T15:25:14Z</time>
      </trkpt>
      <trkpt lat="45.09468" lon="6.07279">
        <ele>1840.6</ele>
        <time>2021-03-10T15:25:15Z</time>
      </trkpt>
      <trkpt lat="45.09467" lon="6.07275">
        <ele>1840.4</ele>
        <time>2021-03-10T15:25:16Z</time>
      </trkpt>
      <trkpt lat="45.09467" lon="6.07271">
        <ele>1839.7</ele>
        <time>2021-03-10T15:25:17Z</time>
      </trkpt>
      <trkpt lat="45.09466" lon="6.07267">
        <ele>1839.6</ele>
        <time>2021-03-10T15:25:18Z</time>
      </trkpt>
      <trkpt lat="45.09465" lon="6.07262">
        <ele>1839.4</ele>
        <time>2021-03-10T15:25:19Z</time>
      </trkpt>
      <trkpt lat="45.09465" lon="6.07261">
        <ele>1839.4</ele>
        <time>2021-03-10T15:25:20Z</time>
      </trkpt>
      <trkpt lat="45.09465" lon="6.07259">
        <ele>1839.2</ele>
        <time>2021-03-10T15:25:21Z</time>
      </trkpt>
      <trkpt lat="45.09465" lon="6.07256">
        <ele>1839.1</ele>
        <time>2021-03-10T15:25:22Z</time>
      </trkpt>
      <trkpt lat="45.09464" lon="6.07251">
        <ele>1838.5</ele>
        <time>2021-03-10T15:25:23Z</time>
      </trkpt>
      <trkpt lat="45.09464" lon="6.07249">
        <ele>1838.5</ele>
        <time>2021-03-10T15:25:24Z</time>
      </trkpt>
      <trkpt lat="45.09464" lon="6.07245">
        <ele>1838.8</ele>
        <time>2021-03-10T15:25:25Z</time>
      </trkpt>
      <trkpt lat="45.09465" lon="6.07241">
        <ele>1838.7</ele>
        <time>2021-03-10T15:25:26Z</time>
      </trkpt>
      <trkpt lat="45.09466" lon="6.07236">
        <ele>1838.6</ele>
        <time>2021-03-10T15:25:27Z</time>
      </trkpt>
      <trkpt lat="45.09467" lon="6.07232">
        <ele>1838.4</ele>
        <time>2021-03-10T15:25:28Z</time>
      </trkpt>
      <trkpt lat="45.09467" lon="6.07227">
        <ele>1838.3</ele>
        <time>2021-03-10T15:25:29Z</time>
      </trkpt>
      <trkpt lat="45.09466" lon="6.07222">
        <ele>1838.1</ele>
        <time>2021-03-10T15:25:30Z</time>
      </trkpt>
      <trkpt lat="45.09466" lon="6.07221">
        <ele>1838.1</ele>
        <time>2021-03-10T15:25:31Z</time>
      </trkpt>
      <trkpt lat="45.09466" lon="6.07218">
        <ele>1838.1</ele>
        <time>2021-03-10T15:25:32Z</time>
      </trkpt>
      <trkpt lat="45.09465" lon="6.07217">
        <ele>1838</ele>
        <time>2021-03-10T15:25:33Z</time>
      </trkpt>
      <trkpt lat="45.09464" lon="6.07213">
        <ele>1837.6</ele>
        <time>2021-03-10T15:25:34Z</time>
      </trkpt>
      <trkpt lat="45.09463" lon="6.07212">
        <ele>1837.6</ele>
        <time>2021-03-10T15:25:35Z</time>
      </trkpt>
      <trkpt lat="45.09461" lon="6.07209">
        <ele>1837.6</ele>
        <time>2021-03-10T15:25:36Z</time>
      </trkpt>
      <trkpt lat="45.09461" lon="6.07207">
        <ele>1837.3</ele>
        <time>2021-03-10T15:25:37Z</time>
      </trkpt>
      <trkpt lat="45.09459" lon="6.07203">
        <ele>1837.3</ele>
        <time>2021-03-10T15:25:38Z</time>
      </trkpt>
      <trkpt lat="45.09458" lon="6.07202">
        <ele>1837.3</ele>
        <time>2021-03-10T15:25:39Z</time>
      </trkpt>
      <trkpt lat="45.09458" lon="6.072">
        <ele>1837.1</ele>
        <time>2021-03-10T15:25:40Z</time>
      </trkpt>
      <trkpt lat="45.09457" lon="6.07198">
        <ele>1837.1</ele>
        <time>2021-03-10T15:25:41Z</time>
      </trkpt>
      <trkpt lat="45.09456" lon="6.07197">
        <ele>1837.1</ele>
        <time>2021-03-10T15:25:42Z</time>
      </trkpt>
      <trkpt lat="45.09456" lon="6.07195">
        <ele>1837.2</ele>
        <time>2021-03-10T15:25:43Z</time>
      </trkpt>
      <trkpt lat="45.09456" lon="6.07193">
        <ele>1837.2</ele>
        <time>2021-03-10T15:25:44Z</time>
      </trkpt>
      <trkpt lat="45.09455" lon="6.07191">
        <ele>1837.4</ele>
        <time>2021-03-10T15:25:45Z</time>
      </trkpt>
      <trkpt lat="45.09455" lon="6.0719">
        <ele>1837.4</ele>
        <time>2021-03-10T15:25:46Z</time>
      </trkpt>
      <trkpt lat="45.09455" lon="6.07188">
        <ele>1837</ele>
        <time>2021-03-10T15:25:47Z</time>
      </trkpt>
      <trkpt lat="45.09455" lon="6.07188">
        <ele>1837.5</ele>
        <time>2021-03-10T15:25:48Z</time>
      </trkpt>
      <trkpt lat="45.09455" lon="6.07186">
        <ele>1837.5</ele>
        <time>2021-03-10T15:25:49Z</time>
      </trkpt>
      <trkpt lat="45.09455" lon="6.07182">
        <ele>1837.3</ele>
        <time>2021-03-10T15:25:50Z</time>
      </trkpt>
      <trkpt lat="45.09455" lon="6.0718">
        <ele>1837.3</ele>
        <time>2021-03-10T15:25:51Z</time>
      </trkpt>
      <trkpt lat="45.09455" lon="6.07179">
        <ele>1837.5</ele>
        <time>2021-03-10T15:25:52Z</time>
      </trkpt>
      <trkpt lat="45.09455" lon="6.07179">
        <ele>1837.5</ele>
        <time>2021-03-10T15:25:53Z</time>
      </trkpt>
      <trkpt lat="45.09455" lon="6.07179">
        <ele>1837.5</ele>
        <time>2021-03-10T15:25:54Z</time>
      </trkpt>
      <trkpt lat="45.09455" lon="6.07179">
        <ele>1837.5</ele>
        <time>2021-03-10T15:25:55Z</time>
      </trkpt>
      <trkpt lat="45.09455" lon="6.07179">
        <ele>1837.5</ele>
        <time>2021-03-10T15:25:56Z</time>
      </trkpt>
      <trkpt lat="45.09455" lon="6.07179">
        <ele>1837.5</ele>
        <time>2021-03-10T15:25:57Z</time>
      </trkpt>
      <trkpt lat="45.09455" lon="6.07179">
        <ele>1837.5</ele>
        <time>2021-03-10T15:25:58Z</time>
      </trkpt>
      <trkpt lat="45.09455" lon="6.07179">
        <ele>1837.5</ele>
        <time>2021-03-10T15:25:59Z</time>
      </trkpt>
      <trkpt lat="45.09455" lon="6.07179">
        <ele>1837.5</ele>
        <time>2021-03-10T15:26:00Z</time>
      </trkpt>
      <trkpt lat="45.09454" lon="6.07176">
        <ele>1837.5</ele>
        <time>2021-03-10T15:26:01Z</time>
      </trkpt>
      <trkpt lat="45.09454" lon="6.07176">
        <ele>1837.5</ele>
        <time>2021-03-10T15:26:02Z</time>
      </trkpt>
      <trkpt lat="45.09454" lon="6.07176">
        <ele>1837.5</ele>
        <time>2021-03-10T15:26:03Z</time>
      </trkpt>
      <trkpt lat="45.09454" lon="6.07176">
        <ele>1837.5</ele>
        <time>2021-03-10T15:26:04Z</time>
      </trkpt>
    </trkseg>
  </trk>
</gpx>